<?xml version='1.0' encoding='UTF-8'?><gpx version="1.1" creator="JPX - https://github.com/jenetics/jpx" xmlns="http://www.topografix.com/GPX/1/1"><trk><trkseg><trkpt lat="41.8220242" lon="12.8275022"><ele>317.0</ele><time>2026-04-20T05:53:23.315Z</time></trkpt><trkpt lat="41.8221175" lon="12.8274927"><ele>317.0</ele><time>2026-04-20T05:53:25.32Z</time></trkpt><trkpt lat="41.8222209" lon="12.8275035"><ele>317.0</ele><time>2026-04-20T05:53:27.319Z</time></trkpt><trkpt lat="41.8223168" lon="12.8275273"><ele>317.0</ele><time>2026-04-20T05:53:29.315Z</time></trkpt><trkpt lat="41.8223569" lon="12.8276218"><ele>317.0</ele><time>2026-04-20T05:53:32.319Z</time></trkpt><trkpt lat="41.8223751" lon="12.8277419"><ele>317.6666666666667</ele><time>2026-04-20T05:53:34.32Z</time></trkpt><trkpt lat="41.8224249" lon="12.8278434"><ele>318.3333333333333</ele><time>2026-04-20T05:53:36.32Z</time></trkpt><trkpt lat="41.8226352" lon="12.8278917"><ele>319.0</ele><time>2026-04-20T05:53:38.596Z</time></trkpt><trkpt lat="41.8227497" lon="12.8277662"><ele>318.5</ele><time>2026-04-20T05:53:41.316Z</time></trkpt><trkpt lat="41.8228052" lon="12.8276624"><ele>318.0</ele><time>2026-04-20T05:53:42.316Z</time></trkpt><trkpt lat="41.8228606" lon="12.8275807"><ele>317.5</ele><time>2026-04-20T05:53:43.315Z</time></trkpt><trkpt lat="41.8229223" lon="12.8275247"><ele>317.0</ele><time>2026-04-20T05:53:44.316Z</time></trkpt><trkpt lat="41.8230079" lon="12.8274873"><ele>316.5</ele><time>2026-04-20T05:53:45.315Z</time></trkpt><trkpt lat="41.823103" lon="12.8274652"><ele>316.0</ele><time>2026-04-20T05:53:46.315Z</time></trkpt><trkpt lat="41.8232037" lon="12.8274528"><ele>316.0</ele><time>2026-04-20T05:53:47.316Z</time></trkpt><trkpt lat="41.8233017" lon="12.8274475"><ele>316.0</ele><time>2026-04-20T05:53:48.317Z</time></trkpt><trkpt lat="41.823395" lon="12.8274409"><ele>316.0</ele><time>2026-04-20T05:53:49.315Z</time></trkpt><trkpt lat="41.8234918" lon="12.8274359"><ele>316.0</ele><time>2026-04-20T05:53:50.318Z</time></trkpt><trkpt lat="41.8235873" lon="12.8274383"><ele>316.0</ele><time>2026-04-20T05:53:51.317Z</time></trkpt><trkpt lat="41.8236923" lon="12.8274421"><ele>316.0</ele><time>2026-04-20T05:53:52.316Z</time></trkpt><trkpt lat="41.8238058" lon="12.8274402"><ele>316.0</ele><time>2026-04-20T05:53:53.316Z</time></trkpt><trkpt lat="41.8239176" lon="12.8274328"><ele>316.0</ele><time>2026-04-20T05:53:54.316Z</time></trkpt><trkpt lat="41.8240294" lon="12.827425"><ele>316.0</ele><time>2026-04-20T05:53:55.317Z</time></trkpt><trkpt lat="41.8241427" lon="12.8274177"><ele>316.0</ele><time>2026-04-20T05:53:56.316Z</time></trkpt><trkpt lat="41.8242532" lon="12.8274114"><ele>316.0</ele><time>2026-04-20T05:53:57.316Z</time></trkpt><trkpt lat="41.8243573" lon="12.8274076"><ele>316.0</ele><time>2026-04-20T05:53:58.315Z</time></trkpt><trkpt lat="41.8244567" lon="12.8274047"><ele>316.0</ele><time>2026-04-20T05:53:59.316Z</time></trkpt><trkpt lat="41.8245504" lon="12.8274057"><ele>316.0</ele><time>2026-04-20T05:54:00.317Z</time></trkpt><trkpt lat="41.8246371" lon="12.8274048"><ele>316.16666666666663</ele><time>2026-04-20T05:54:01.316Z</time></trkpt><trkpt lat="41.824714" lon="12.8274029"><ele>316.3333333333333</ele><time>2026-04-20T05:54:02.315Z</time></trkpt><trkpt lat="41.8247806" lon="12.8273997"><ele>316.5</ele><time>2026-04-20T05:54:03.317Z</time></trkpt><trkpt lat="41.8248811" lon="12.8273932"><ele>316.6666666666667</ele><time>2026-04-20T05:54:05.317Z</time></trkpt><trkpt lat="41.8249667" lon="12.8273813"><ele>316.83333333333337</ele><time>2026-04-20T05:54:07.316Z</time></trkpt><trkpt lat="41.8250679" lon="12.8273777"><ele>317.0</ele><time>2026-04-20T05:54:09.317Z</time></trkpt><trkpt lat="41.8251347" lon="12.8273796"><ele>316.83333333333337</ele><time>2026-04-20T05:54:10.316Z</time></trkpt><trkpt lat="41.8252092" lon="12.8273799"><ele>316.6666666666667</ele><time>2026-04-20T05:54:11.316Z</time></trkpt><trkpt lat="41.8252755" lon="12.8273845"><ele>316.5</ele><time>2026-04-20T05:54:12.315Z</time></trkpt><trkpt lat="41.8253842" lon="12.827399"><ele>316.3333333333333</ele><time>2026-04-20T05:54:14.315Z</time></trkpt><trkpt lat="41.8254623" lon="12.8274104"><ele>316.16666666666663</ele><time>2026-04-20T05:54:16.316Z</time></trkpt><trkpt lat="41.8255331" lon="12.8274257"><ele>316.0</ele><time>2026-04-20T05:54:18.316Z</time></trkpt><trkpt lat="41.8256193" lon="12.8274641"><ele>316.0</ele><time>2026-04-20T05:54:20.317Z</time></trkpt><trkpt lat="41.8257265" lon="12.8275301"><ele>316.0</ele><time>2026-04-20T05:54:22.316Z</time></trkpt><trkpt lat="41.8258282" lon="12.8276091"><ele>316.0</ele><time>2026-04-20T05:54:24.316Z</time></trkpt><trkpt lat="41.8258799" lon="12.8276647"><ele>316.0</ele><time>2026-04-20T05:54:25.317Z</time></trkpt><trkpt lat="41.8259257" lon="12.8277394"><ele>316.0</ele><time>2026-04-20T05:54:26.315Z</time></trkpt><trkpt lat="41.82597" lon="12.8278192"><ele>316.0</ele><time>2026-04-20T05:54:27.316Z</time></trkpt><trkpt lat="41.8260133" lon="12.8279027"><ele>317.20000000000005</ele><time>2026-04-20T05:54:28.315Z</time></trkpt><trkpt lat="41.8260506" lon="12.8280103"><ele>318.40000000000003</ele><time>2026-04-20T05:54:29.315Z</time></trkpt><trkpt lat="41.8260822" lon="12.828131"><ele>319.6</ele><time>2026-04-20T05:54:30.317Z</time></trkpt><trkpt lat="41.8261224" lon="12.8282547"><ele>320.8</ele><time>2026-04-20T05:54:31.316Z</time></trkpt><trkpt lat="41.8261588" lon="12.8283904"><ele>322.0</ele><time>2026-04-20T05:54:32.316Z</time></trkpt><trkpt lat="41.8261966" lon="12.8285191"><ele>322.25</ele><time>2026-04-20T05:54:33.317Z</time></trkpt><trkpt lat="41.8262379" lon="12.8286518"><ele>322.5</ele><time>2026-04-20T05:54:34.316Z</time></trkpt><trkpt lat="41.8262782" lon="12.8287916"><ele>322.75</ele><time>2026-04-20T05:54:35.317Z</time></trkpt><trkpt lat="41.8263199" lon="12.8289354"><ele>323.0</ele><time>2026-04-20T05:54:36.318Z</time></trkpt><trkpt lat="41.8263587" lon="12.829084"><ele>323.0</ele><time>2026-04-20T05:54:37.317Z</time></trkpt><trkpt lat="41.8263986" lon="12.8292286"><ele>323.0</ele><time>2026-04-20T05:54:38.315Z</time></trkpt><trkpt lat="41.8264351" lon="12.8293608"><ele>323.0</ele><time>2026-04-20T05:54:39.317Z</time></trkpt><trkpt lat="41.8264671" lon="12.8294795"><ele>323.0</ele><time>2026-04-20T05:54:40.316Z</time></trkpt><trkpt lat="41.8264936" lon="12.8295866"><ele>323.0</ele><time>2026-04-20T05:54:41.318Z</time></trkpt><trkpt lat="41.8265156" lon="12.8296818"><ele>323.0</ele><time>2026-04-20T05:54:42.316Z</time></trkpt><trkpt lat="41.8265323" lon="12.8297664"><ele>323.0</ele><time>2026-04-20T05:54:43.319Z</time></trkpt><trkpt lat="41.826552" lon="12.8298843"><ele>323.0</ele><time>2026-04-20T05:54:45.319Z</time></trkpt><trkpt lat="41.8265589" lon="12.8299687"><ele>323.0</ele><time>2026-04-20T05:54:47.318Z</time></trkpt><trkpt lat="41.8265647" lon="12.8300653"><ele>323.0</ele><time>2026-04-20T05:54:49.319Z</time></trkpt><trkpt lat="41.8265796" lon="12.8302048"><ele>323.0</ele><time>2026-04-20T05:54:51.319Z</time></trkpt><trkpt lat="41.8265898" lon="12.830293"><ele>323.00000000000006</ele><time>2026-04-20T05:54:52.319Z</time></trkpt><trkpt lat="41.8265982" lon="12.8303818"><ele>323.0</ele><time>2026-04-20T05:54:53.32Z</time></trkpt><trkpt lat="41.8266006" lon="12.8304727"><ele>323.0</ele><time>2026-04-20T05:54:54.319Z</time></trkpt><trkpt lat="41.8266055" lon="12.8305678"><ele>323.0</ele><time>2026-04-20T05:54:55.319Z</time></trkpt><trkpt lat="41.8266121" lon="12.8306649"><ele>323.0</ele><time>2026-04-20T05:54:56.319Z</time></trkpt><trkpt lat="41.8266204" lon="12.8307634"><ele>323.00000000000006</ele><time>2026-04-20T05:54:57.318Z</time></trkpt><trkpt lat="41.82662" lon="12.8308633"><ele>323.0</ele><time>2026-04-20T05:54:58.32Z</time></trkpt><trkpt lat="41.826615" lon="12.8309697"><ele>323.79999999999995</ele><time>2026-04-20T05:54:59.319Z</time></trkpt><trkpt lat="41.8266096" lon="12.8310766"><ele>324.6</ele><time>2026-04-20T05:55:00.319Z</time></trkpt><trkpt lat="41.8266133" lon="12.8311699"><ele>325.4</ele><time>2026-04-20T05:55:01.319Z</time></trkpt><trkpt lat="41.8266064" lon="12.8313265"><ele>326.20000000000005</ele><time>2026-04-20T05:55:03.317Z</time></trkpt><trkpt lat="41.8265981" lon="12.8314693"><ele>327.0</ele><time>2026-04-20T05:55:05.317Z</time></trkpt><trkpt lat="41.8265848" lon="12.8316219"><ele>327.0</ele><time>2026-04-20T05:55:07.318Z</time></trkpt><trkpt lat="41.826585" lon="12.8317121"><ele>327.0</ele><time>2026-04-20T05:55:08.319Z</time></trkpt><trkpt lat="41.8265855" lon="12.8317988"><ele>327.0</ele><time>2026-04-20T05:55:09.319Z</time></trkpt><trkpt lat="41.8265792" lon="12.8319585"><ele>327.0</ele><time>2026-04-20T05:55:11.319Z</time></trkpt><trkpt lat="41.8265589" lon="12.8321311"><ele>327.0</ele><time>2026-04-20T05:55:13.317Z</time></trkpt><trkpt lat="41.8265587" lon="12.832231"><ele>327.2857142857143</ele><time>2026-04-20T05:55:14.318Z</time></trkpt><trkpt lat="41.8265441" lon="12.8323338"><ele>327.57142857142856</ele><time>2026-04-20T05:55:15.318Z</time></trkpt><trkpt lat="41.8265296" lon="12.8324348"><ele>327.8571428571429</ele><time>2026-04-20T05:55:16.318Z</time></trkpt><trkpt lat="41.8265165" lon="12.8325263"><ele>328.1428571428571</ele><time>2026-04-20T05:55:17.316Z</time></trkpt><trkpt lat="41.8264946" lon="12.8326097"><ele>328.42857142857144</ele><time>2026-04-20T05:55:18.319Z</time></trkpt><trkpt lat="41.8264763" lon="12.8326936"><ele>328.7142857142857</ele><time>2026-04-20T05:55:19.316Z</time></trkpt><trkpt lat="41.8264629" lon="12.8327805"><ele>329.0</ele><time>2026-04-20T05:55:20.315Z</time></trkpt><trkpt lat="41.8264361" lon="12.8329375"><ele>327.6</ele><time>2026-04-20T05:55:22.316Z</time></trkpt><trkpt lat="41.8264115" lon="12.8330602"><ele>326.2</ele><time>2026-04-20T05:55:24.315Z</time></trkpt><trkpt lat="41.8263924" lon="12.8331801"><ele>324.8</ele><time>2026-04-20T05:55:26.319Z</time></trkpt><trkpt lat="41.8263618" lon="12.8333034"><ele>323.40000000000003</ele><time>2026-04-20T05:55:28.315Z</time></trkpt><trkpt lat="41.8263131" lon="12.8334217"><ele>322.0</ele><time>2026-04-20T05:55:30.315Z</time></trkpt><trkpt lat="41.8262893" lon="12.833548"><ele>319.8</ele><time>2026-04-20T05:55:32.316Z</time></trkpt><trkpt lat="41.8262673" lon="12.8336701"><ele>317.6</ele><time>2026-04-20T05:55:34.319Z</time></trkpt><trkpt lat="41.8262458" lon="12.8338042"><ele>315.40000000000003</ele><time>2026-04-20T05:55:36.316Z</time></trkpt><trkpt lat="41.8262182" lon="12.8339757"><ele>313.20000000000005</ele><time>2026-04-20T05:55:38.319Z</time></trkpt><trkpt lat="41.8262025" lon="12.8340757"><ele>311.0</ele><time>2026-04-20T05:55:39.321Z</time></trkpt><trkpt lat="41.8261822" lon="12.8341824"><ele>311.0</ele><time>2026-04-20T05:55:40.319Z</time></trkpt><trkpt lat="41.8261561" lon="12.8342987"><ele>311.0</ele><time>2026-04-20T05:55:41.317Z</time></trkpt><trkpt lat="41.8261315" lon="12.8344197"><ele>311.0</ele><time>2026-04-20T05:55:42.319Z</time></trkpt><trkpt lat="41.8261031" lon="12.8345363"><ele>311.0</ele><time>2026-04-20T05:55:43.32Z</time></trkpt><trkpt lat="41.8260806" lon="12.8346549"><ele>311.0</ele><time>2026-04-20T05:55:44.318Z</time></trkpt><trkpt lat="41.8260657" lon="12.8347646"><ele>309.6666666666667</ele><time>2026-04-20T05:55:45.32Z</time></trkpt><trkpt lat="41.8260557" lon="12.8348564"><ele>308.33333333333337</ele><time>2026-04-20T05:55:46.316Z</time></trkpt><trkpt lat="41.8260546" lon="12.8350223"><ele>307.0</ele><time>2026-04-20T05:55:48.318Z</time></trkpt><trkpt lat="41.8260531" lon="12.8351231"><ele>305.6666666666667</ele><time>2026-04-20T05:55:49.319Z</time></trkpt><trkpt lat="41.8260634" lon="12.8352296"><ele>304.3333333333333</ele><time>2026-04-20T05:55:50.32Z</time></trkpt><trkpt lat="41.8260795" lon="12.8353305"><ele>303.0</ele><time>2026-04-20T05:55:51.319Z</time></trkpt><trkpt lat="41.826101" lon="12.8354173"><ele>303.0</ele><time>2026-04-20T05:55:52.319Z</time></trkpt><trkpt lat="41.8261232" lon="12.8355002"><ele>303.0</ele><time>2026-04-20T05:55:53.32Z</time></trkpt><trkpt lat="41.8261437" lon="12.8355834"><ele>303.0</ele><time>2026-04-20T05:55:54.319Z</time></trkpt><trkpt lat="41.8261677" lon="12.8356627"><ele>303.0</ele><time>2026-04-20T05:55:55.32Z</time></trkpt><trkpt lat="41.8262204" lon="12.8358075"><ele>303.0</ele><time>2026-04-20T05:55:57.318Z</time></trkpt><trkpt lat="41.8262665" lon="12.8359326"><ele>303.0</ele><time>2026-04-20T05:55:59.317Z</time></trkpt><trkpt lat="41.8263102" lon="12.8360722"><ele>305.5</ele><time>2026-04-20T05:56:01.317Z</time></trkpt><trkpt lat="41.8263482" lon="12.8362011"><ele>308.0</ele><time>2026-04-20T05:56:03.319Z</time></trkpt><trkpt lat="41.8263801" lon="12.8363407"><ele>310.5</ele><time>2026-04-20T05:56:05.318Z</time></trkpt><trkpt lat="41.8264059" lon="12.8364242"><ele>313.0</ele><time>2026-04-20T05:56:06.318Z</time></trkpt><trkpt lat="41.8264377" lon="12.8365128"><ele>315.5</ele><time>2026-04-20T05:56:07.318Z</time></trkpt><trkpt lat="41.8264744" lon="12.8366038"><ele>318.0</ele><time>2026-04-20T05:56:08.318Z</time></trkpt><trkpt lat="41.8265148" lon="12.8367127"><ele>319.8</ele><time>2026-04-20T05:56:09.317Z</time></trkpt><trkpt lat="41.8265614" lon="12.836835"><ele>321.6</ele><time>2026-04-20T05:56:10.317Z</time></trkpt><trkpt lat="41.8266118" lon="12.8369613"><ele>323.40000000000003</ele><time>2026-04-20T05:56:11.318Z</time></trkpt><trkpt lat="41.8266605" lon="12.8370907"><ele>325.20000000000005</ele><time>2026-04-20T05:56:12.317Z</time></trkpt><trkpt lat="41.826709" lon="12.8372203"><ele>327.0</ele><time>2026-04-20T05:56:13.318Z</time></trkpt><trkpt lat="41.82676" lon="12.8373606"><ele>327.75</ele><time>2026-04-20T05:56:14.318Z</time></trkpt><trkpt lat="41.8268135" lon="12.8375107"><ele>328.5</ele><time>2026-04-20T05:56:15.317Z</time></trkpt><trkpt lat="41.8268622" lon="12.8376694"><ele>329.25</ele><time>2026-04-20T05:56:16.317Z</time></trkpt><trkpt lat="41.826916" lon="12.8378239"><ele>330.0</ele><time>2026-04-20T05:56:17.316Z</time></trkpt><trkpt lat="41.826965" lon="12.8379646"><ele>328.6666666666667</ele><time>2026-04-20T05:56:18.32Z</time></trkpt><trkpt lat="41.8270141" lon="12.8380919"><ele>327.3333333333333</ele><time>2026-04-20T05:56:19.319Z</time></trkpt><trkpt lat="41.8270608" lon="12.8381953"><ele>326.0</ele><time>2026-04-20T05:56:20.319Z</time></trkpt><trkpt lat="41.8270984" lon="12.8382847"><ele>324.66666666666663</ele><time>2026-04-20T05:56:21.32Z</time></trkpt><trkpt lat="41.8271313" lon="12.8383684"><ele>323.3333333333333</ele><time>2026-04-20T05:56:22.32Z</time></trkpt><trkpt lat="41.8271611" lon="12.8384554"><ele>322.0</ele><time>2026-04-20T05:56:23.32Z</time></trkpt><trkpt lat="41.8271869" lon="12.8385465"><ele>321.8333333333333</ele><time>2026-04-20T05:56:24.32Z</time></trkpt><trkpt lat="41.8272054" lon="12.8386368"><ele>321.66666666666663</ele><time>2026-04-20T05:56:25.319Z</time></trkpt><trkpt lat="41.8272186" lon="12.8387327"><ele>321.5</ele><time>2026-04-20T05:56:26.319Z</time></trkpt><trkpt lat="41.8272321" lon="12.8388317"><ele>321.3333333333333</ele><time>2026-04-20T05:56:27.321Z</time></trkpt><trkpt lat="41.8272435" lon="12.83894"><ele>321.1666666666667</ele><time>2026-04-20T05:56:28.32Z</time></trkpt><trkpt lat="41.8272501" lon="12.8390438"><ele>321.0</ele><time>2026-04-20T05:56:29.32Z</time></trkpt><trkpt lat="41.827249" lon="12.8391499"><ele>321.0</ele><time>2026-04-20T05:56:30.32Z</time></trkpt><trkpt lat="41.8272361" lon="12.8392522"><ele>321.0</ele><time>2026-04-20T05:56:31.319Z</time></trkpt><trkpt lat="41.8272182" lon="12.8393442"><ele>321.0</ele><time>2026-04-20T05:56:32.317Z</time></trkpt><trkpt lat="41.8271684" lon="12.8394814"><ele>321.0</ele><time>2026-04-20T05:56:34.317Z</time></trkpt><trkpt lat="41.827142" lon="12.8395824"><ele>321.0</ele><time>2026-04-20T05:56:36.317Z</time></trkpt><trkpt lat="41.827199" lon="12.839658"><ele>321.0</ele><time>2026-04-20T05:56:39.318Z</time></trkpt><trkpt lat="41.8272892" lon="12.8396039"><ele>321.6</ele><time>2026-04-20T05:56:41.318Z</time></trkpt><trkpt lat="41.827362" lon="12.839544"><ele>322.20000000000005</ele><time>2026-04-20T05:56:42.317Z</time></trkpt><trkpt lat="41.8274375" lon="12.8394885"><ele>322.79999999999995</ele><time>2026-04-20T05:56:43.318Z</time></trkpt><trkpt lat="41.8275212" lon="12.8394013"><ele>323.4</ele><time>2026-04-20T05:56:44.509Z</time></trkpt><trkpt lat="41.8276514" lon="12.8393373"><ele>324.0</ele><time>2026-04-20T05:56:46.315Z</time></trkpt><trkpt lat="41.8277287" lon="12.8392868"><ele>324.6</ele><time>2026-04-20T05:56:47.316Z</time></trkpt><trkpt lat="41.8278248" lon="12.8392243"><ele>325.2</ele><time>2026-04-20T05:56:48.316Z</time></trkpt><trkpt lat="41.8279186" lon="12.839159"><ele>325.8</ele><time>2026-04-20T05:56:49.317Z</time></trkpt><trkpt lat="41.8280096" lon="12.8390955"><ele>326.40000000000003</ele><time>2026-04-20T05:56:50.318Z</time></trkpt><trkpt lat="41.8281027" lon="12.8390409"><ele>327.0</ele><time>2026-04-20T05:56:51.316Z</time></trkpt><trkpt lat="41.8281929" lon="12.8390063"><ele>327.0</ele><time>2026-04-20T05:56:52.316Z</time></trkpt><trkpt lat="41.8282772" lon="12.8389929"><ele>327.0</ele><time>2026-04-20T05:56:53.316Z</time></trkpt><trkpt lat="41.8283523" lon="12.8389901"><ele>327.0</ele><time>2026-04-20T05:56:54.317Z</time></trkpt><trkpt lat="41.8284177" lon="12.838985"><ele>327.0</ele><time>2026-04-20T05:56:55.315Z</time></trkpt><trkpt lat="41.828537" lon="12.8389562"><ele>327.0</ele><time>2026-04-20T05:56:57.316Z</time></trkpt><trkpt lat="41.8286595" lon="12.8389234"><ele>326.5</ele><time>2026-04-20T05:56:59.317Z</time></trkpt><trkpt lat="41.8287879" lon="12.8388867"><ele>326.0</ele><time>2026-04-20T05:57:01.317Z</time></trkpt><trkpt lat="41.8288565" lon="12.8388699"><ele>325.5</ele><time>2026-04-20T05:57:02.319Z</time></trkpt><trkpt lat="41.8289297" lon="12.8388591"><ele>325.0</ele><time>2026-04-20T05:57:03.318Z</time></trkpt><trkpt lat="41.8290067" lon="12.8388509"><ele>324.5</ele><time>2026-04-20T05:57:04.316Z</time></trkpt><trkpt lat="41.8290834" lon="12.8388445"><ele>324.0</ele><time>2026-04-20T05:57:05.317Z</time></trkpt><trkpt lat="41.8291572" lon="12.8388368"><ele>324.0</ele><time>2026-04-20T05:57:06.317Z</time></trkpt><trkpt lat="41.8292837" lon="12.8388198"><ele>324.0</ele><time>2026-04-20T05:57:08.318Z</time></trkpt><trkpt lat="41.8293509" lon="12.8388082"><ele>324.0</ele><time>2026-04-20T05:57:09.318Z</time></trkpt><trkpt lat="41.8294261" lon="12.8387874"><ele>324.0</ele><time>2026-04-20T05:57:10.317Z</time></trkpt><trkpt lat="41.8295044" lon="12.8387576"><ele>324.0</ele><time>2026-04-20T05:57:11.318Z</time></trkpt><trkpt lat="41.8295796" lon="12.8387234"><ele>324.0</ele><time>2026-04-20T05:57:12.317Z</time></trkpt><trkpt lat="41.8296525" lon="12.8386883"><ele>323.5</ele><time>2026-04-20T05:57:13.317Z</time></trkpt><trkpt lat="41.8297241" lon="12.8386568"><ele>323.0</ele><time>2026-04-20T05:57:14.318Z</time></trkpt><trkpt lat="41.8297941" lon="12.83863"><ele>322.5</ele><time>2026-04-20T05:57:15.316Z</time></trkpt><trkpt lat="41.8298663" lon="12.8385985"><ele>322.0</ele><time>2026-04-20T05:57:16.317Z</time></trkpt><trkpt lat="41.8299377" lon="12.838565"><ele>321.5</ele><time>2026-04-20T05:57:17.317Z</time></trkpt><trkpt lat="41.8300065" lon="12.8385233"><ele>321.0</ele><time>2026-04-20T05:57:18.317Z</time></trkpt><trkpt lat="41.830087" lon="12.8384726"><ele>321.0</ele><time>2026-04-20T05:57:19.318Z</time></trkpt><trkpt lat="41.830162" lon="12.8384172"><ele>321.0</ele><time>2026-04-20T05:57:20.317Z</time></trkpt><trkpt lat="41.8302363" lon="12.8383602"><ele>321.0</ele><time>2026-04-20T05:57:21.318Z</time></trkpt><trkpt lat="41.83031" lon="12.8382984"><ele>321.0</ele><time>2026-04-20T05:57:22.316Z</time></trkpt><trkpt lat="41.8303783" lon="12.8382416"><ele>321.0</ele><time>2026-04-20T05:57:23.317Z</time></trkpt><trkpt lat="41.8304447" lon="12.8381851"><ele>321.0</ele><time>2026-04-20T05:57:24.316Z</time></trkpt><trkpt lat="41.830513" lon="12.8381329"><ele>321.0</ele><time>2026-04-20T05:57:25.317Z</time></trkpt><trkpt lat="41.8305826" lon="12.83808"><ele>321.0</ele><time>2026-04-20T05:57:26.317Z</time></trkpt><trkpt lat="41.8306473" lon="12.8380166"><ele>321.0</ele><time>2026-04-20T05:57:27.317Z</time></trkpt><trkpt lat="41.8307222" lon="12.8379489"><ele>321.0</ele><time>2026-04-20T05:57:28.317Z</time></trkpt><trkpt lat="41.8307994" lon="12.8378788"><ele>321.0</ele><time>2026-04-20T05:57:29.319Z</time></trkpt><trkpt lat="41.8308819" lon="12.8378066"><ele>321.0</ele><time>2026-04-20T05:57:30.317Z</time></trkpt><trkpt lat="41.8309632" lon="12.8377402"><ele>320.2</ele><time>2026-04-20T05:57:31.317Z</time></trkpt><trkpt lat="41.8310429" lon="12.837675"><ele>319.40000000000003</ele><time>2026-04-20T05:57:32.317Z</time></trkpt><trkpt lat="41.8311237" lon="12.8376079"><ele>318.6</ele><time>2026-04-20T05:57:33.317Z</time></trkpt><trkpt lat="41.8312031" lon="12.8375353"><ele>317.8</ele><time>2026-04-20T05:57:34.317Z</time></trkpt><trkpt lat="41.8312831" lon="12.8374579"><ele>317.0</ele><time>2026-04-20T05:57:35.316Z</time></trkpt><trkpt lat="41.8313601" lon="12.8373856"><ele>317.0</ele><time>2026-04-20T05:57:36.317Z</time></trkpt><trkpt lat="41.8314317" lon="12.8373179"><ele>317.0</ele><time>2026-04-20T05:57:37.317Z</time></trkpt><trkpt lat="41.8315032" lon="12.837247"><ele>317.0</ele><time>2026-04-20T05:57:38.317Z</time></trkpt><trkpt lat="41.8315795" lon="12.837174"><ele>317.0</ele><time>2026-04-20T05:57:39.316Z</time></trkpt><trkpt lat="41.8316595" lon="12.8371045"><ele>317.0</ele><time>2026-04-20T05:57:40.317Z</time></trkpt><trkpt lat="41.8317383" lon="12.8370332"><ele>316.4</ele><time>2026-04-20T05:57:41.317Z</time></trkpt><trkpt lat="41.831818" lon="12.8369568"><ele>315.79999999999995</ele><time>2026-04-20T05:57:42.317Z</time></trkpt><trkpt lat="41.8318979" lon="12.8368829"><ele>315.2</ele><time>2026-04-20T05:57:43.317Z</time></trkpt><trkpt lat="41.8319793" lon="12.8368124"><ele>314.59999999999997</ele><time>2026-04-20T05:57:44.317Z</time></trkpt><trkpt lat="41.8320562" lon="12.8367379"><ele>314.0</ele><time>2026-04-20T05:57:45.318Z</time></trkpt><trkpt lat="41.8321209" lon="12.8366577"><ele>314.0</ele><time>2026-04-20T05:57:46.317Z</time></trkpt><trkpt lat="41.8321823" lon="12.8365818"><ele>314.0</ele><time>2026-04-20T05:57:47.317Z</time></trkpt><trkpt lat="41.8322394" lon="12.8365083"><ele>314.0</ele><time>2026-04-20T05:57:48.315Z</time></trkpt><trkpt lat="41.8323025" lon="12.8364374"><ele>314.0</ele><time>2026-04-20T05:57:49.316Z</time></trkpt><trkpt lat="41.832366" lon="12.836377"><ele>314.0</ele><time>2026-04-20T05:57:50.317Z</time></trkpt><trkpt lat="41.8324321" lon="12.8363115"><ele>314.0</ele><time>2026-04-20T05:57:51.317Z</time></trkpt><trkpt lat="41.8325025" lon="12.8362488"><ele>314.0</ele><time>2026-04-20T05:57:52.316Z</time></trkpt><trkpt lat="41.8325688" lon="12.836196"><ele>314.0</ele><time>2026-04-20T05:57:53.317Z</time></trkpt><trkpt lat="41.8326269" lon="12.8361576"><ele>314.0</ele><time>2026-04-20T05:57:54.318Z</time></trkpt><trkpt lat="41.8327377" lon="12.8361257"><ele>314.0</ele><time>2026-04-20T05:57:56.318Z</time></trkpt><trkpt lat="41.8328026" lon="12.8361119"><ele>314.0</ele><time>2026-04-20T05:57:57.32Z</time></trkpt><trkpt lat="41.8328787" lon="12.836083"><ele>314.0</ele><time>2026-04-20T05:57:58.32Z</time></trkpt><trkpt lat="41.8329679" lon="12.8360391"><ele>314.4</ele><time>2026-04-20T05:57:59.316Z</time></trkpt><trkpt lat="41.8330602" lon="12.8359831"><ele>314.79999999999995</ele><time>2026-04-20T05:58:00.316Z</time></trkpt><trkpt lat="41.8331528" lon="12.8359171"><ele>315.20000000000005</ele><time>2026-04-20T05:58:01.317Z</time></trkpt><trkpt lat="41.833243" lon="12.8358455"><ele>315.6</ele><time>2026-04-20T05:58:02.316Z</time></trkpt><trkpt lat="41.8333412" lon="12.8357759"><ele>316.0</ele><time>2026-04-20T05:58:03.319Z</time></trkpt><trkpt lat="41.8334414" lon="12.8357042"><ele>316.8</ele><time>2026-04-20T05:58:04.32Z</time></trkpt><trkpt lat="41.8335368" lon="12.8356322"><ele>317.6</ele><time>2026-04-20T05:58:05.32Z</time></trkpt><trkpt lat="41.8336266" lon="12.8355508"><ele>318.4</ele><time>2026-04-20T05:58:06.316Z</time></trkpt><trkpt lat="41.8337194" lon="12.8354705"><ele>319.2</ele><time>2026-04-20T05:58:07.32Z</time></trkpt><trkpt lat="41.8338162" lon="12.8353935"><ele>320.0</ele><time>2026-04-20T05:58:08.317Z</time></trkpt><trkpt lat="41.8339176" lon="12.8353112"><ele>320.0</ele><time>2026-04-20T05:58:09.32Z</time></trkpt><trkpt lat="41.8340208" lon="12.8352303"><ele>320.0</ele><time>2026-04-20T05:58:10.32Z</time></trkpt><trkpt lat="41.8341261" lon="12.835144"><ele>320.0</ele><time>2026-04-20T05:58:11.317Z</time></trkpt><trkpt lat="41.8342357" lon="12.835058"><ele>320.0</ele><time>2026-04-20T05:58:12.316Z</time></trkpt><trkpt lat="41.8343477" lon="12.834968"><ele>317.25</ele><time>2026-04-20T05:58:13.316Z</time></trkpt><trkpt lat="41.8344584" lon="12.834875"><ele>314.5</ele><time>2026-04-20T05:58:14.316Z</time></trkpt><trkpt lat="41.8345698" lon="12.8347846"><ele>311.75</ele><time>2026-04-20T05:58:15.318Z</time></trkpt><trkpt lat="41.8346802" lon="12.8346949"><ele>309.0</ele><time>2026-04-20T05:58:16.319Z</time></trkpt><trkpt lat="41.8347917" lon="12.8346059"><ele>309.0</ele><time>2026-04-20T05:58:17.316Z</time></trkpt><trkpt lat="41.8349096" lon="12.8345166"><ele>309.0</ele><time>2026-04-20T05:58:18.316Z</time></trkpt><trkpt lat="41.8350367" lon="12.8344258"><ele>309.0</ele><time>2026-04-20T05:58:19.317Z</time></trkpt><trkpt lat="41.8351662" lon="12.834333"><ele>309.0</ele><time>2026-04-20T05:58:20.317Z</time></trkpt><trkpt lat="41.8352944" lon="12.8342408"><ele>307.0</ele><time>2026-04-20T05:58:21.317Z</time></trkpt><trkpt lat="41.8354259" lon="12.83415"><ele>305.0</ele><time>2026-04-20T05:58:22.317Z</time></trkpt><trkpt lat="41.8355535" lon="12.8340667"><ele>303.0</ele><time>2026-04-20T05:58:23.317Z</time></trkpt><trkpt lat="41.8356757" lon="12.8339699"><ele>301.0</ele><time>2026-04-20T05:58:24.317Z</time></trkpt><trkpt lat="41.8358063" lon="12.8338817"><ele>301.0</ele><time>2026-04-20T05:58:25.316Z</time></trkpt><trkpt lat="41.8359349" lon="12.8338024"><ele>301.0</ele><time>2026-04-20T05:58:26.316Z</time></trkpt><trkpt lat="41.8360579" lon="12.8337257"><ele>301.0</ele><time>2026-04-20T05:58:27.316Z</time></trkpt><trkpt lat="41.8361781" lon="12.8336554"><ele>301.0</ele><time>2026-04-20T05:58:28.317Z</time></trkpt><trkpt lat="41.8362947" lon="12.8335913"><ele>301.0</ele><time>2026-04-20T05:58:29.316Z</time></trkpt><trkpt lat="41.8364138" lon="12.8335296"><ele>301.0</ele><time>2026-04-20T05:58:30.316Z</time></trkpt><trkpt lat="41.836547" lon="12.8334681"><ele>301.0</ele><time>2026-04-20T05:58:31.317Z</time></trkpt><trkpt lat="41.8366931" lon="12.8334006"><ele>301.0</ele><time>2026-04-20T05:58:32.318Z</time></trkpt><trkpt lat="41.8368417" lon="12.8333249"><ele>297.0</ele><time>2026-04-20T05:58:33.317Z</time></trkpt><trkpt lat="41.8369923" lon="12.8332377"><ele>293.0</ele><time>2026-04-20T05:58:34.317Z</time></trkpt><trkpt lat="41.8371533" lon="12.8331454"><ele>289.0</ele><time>2026-04-20T05:58:35.317Z</time></trkpt><trkpt lat="41.8373162" lon="12.833052"><ele>289.0</ele><time>2026-04-20T05:58:36.318Z</time></trkpt><trkpt lat="41.8374762" lon="12.8329568"><ele>289.0</ele><time>2026-04-20T05:58:37.316Z</time></trkpt><trkpt lat="41.8376315" lon="12.8328608"><ele>289.0</ele><time>2026-04-20T05:58:38.318Z</time></trkpt><trkpt lat="41.8377893" lon="12.8327642"><ele>289.66666666666663</ele><time>2026-04-20T05:58:39.316Z</time></trkpt><trkpt lat="41.8379414" lon="12.8326644"><ele>290.3333333333333</ele><time>2026-04-20T05:58:40.317Z</time></trkpt><trkpt lat="41.8380916" lon="12.8325596"><ele>291.0</ele><time>2026-04-20T05:58:41.317Z</time></trkpt><trkpt lat="41.838243" lon="12.8324532"><ele>287.6666666666667</ele><time>2026-04-20T05:58:42.317Z</time></trkpt><trkpt lat="41.838396" lon="12.8323474"><ele>284.33333333333337</ele><time>2026-04-20T05:58:43.317Z</time></trkpt><trkpt lat="41.838551" lon="12.8322364"><ele>281.0</ele><time>2026-04-20T05:58:44.317Z</time></trkpt><trkpt lat="41.8387076" lon="12.8321225"><ele>281.0</ele><time>2026-04-20T05:58:45.318Z</time></trkpt><trkpt lat="41.8388678" lon="12.8320065"><ele>281.0</ele><time>2026-04-20T05:58:46.316Z</time></trkpt><trkpt lat="41.8390269" lon="12.8318882"><ele>281.0</ele><time>2026-04-20T05:58:47.316Z</time></trkpt><trkpt lat="41.8391896" lon="12.8317663"><ele>279.0</ele><time>2026-04-20T05:58:48.317Z</time></trkpt><trkpt lat="41.8393544" lon="12.831643"><ele>277.0</ele><time>2026-04-20T05:58:49.316Z</time></trkpt><trkpt lat="41.8395168" lon="12.8315259"><ele>275.0</ele><time>2026-04-20T05:58:50.316Z</time></trkpt><trkpt lat="41.8396766" lon="12.8314068"><ele>275.0</ele><time>2026-04-20T05:58:51.318Z</time></trkpt><trkpt lat="41.8398321" lon="12.8312835"><ele>275.0</ele><time>2026-04-20T05:58:52.316Z</time></trkpt><trkpt lat="41.8399881" lon="12.8311605"><ele>275.0</ele><time>2026-04-20T05:58:53.317Z</time></trkpt><trkpt lat="41.8401447" lon="12.831042"><ele>273.0</ele><time>2026-04-20T05:58:54.317Z</time></trkpt><trkpt lat="41.8402983" lon="12.830931"><ele>271.0</ele><time>2026-04-20T05:58:55.319Z</time></trkpt><trkpt lat="41.840448" lon="12.8308031"><ele>269.0</ele><time>2026-04-20T05:58:56.318Z</time></trkpt><trkpt lat="41.8406008" lon="12.8306621"><ele>269.0</ele><time>2026-04-20T05:58:57.319Z</time></trkpt><trkpt lat="41.8407468" lon="12.830512"><ele>269.0</ele><time>2026-04-20T05:58:58.32Z</time></trkpt><trkpt lat="41.8408835" lon="12.8303581"><ele>269.0</ele><time>2026-04-20T05:58:59.319Z</time></trkpt><trkpt lat="41.8410165" lon="12.8301955"><ele>267.0</ele><time>2026-04-20T05:59:00.318Z</time></trkpt><trkpt lat="41.8411446" lon="12.8300295"><ele>265.0</ele><time>2026-04-20T05:59:01.319Z</time></trkpt><trkpt lat="41.8412698" lon="12.8298661"><ele>263.0</ele><time>2026-04-20T05:59:02.317Z</time></trkpt><trkpt lat="41.8413917" lon="12.829698"><ele>263.0</ele><time>2026-04-20T05:59:03.317Z</time></trkpt><trkpt lat="41.8415093" lon="12.8295354"><ele>263.0</ele><time>2026-04-20T05:59:04.317Z</time></trkpt><trkpt lat="41.8416267" lon="12.8293896"><ele>263.0</ele><time>2026-04-20T05:59:05.319Z</time></trkpt><trkpt lat="41.8417516" lon="12.8292627"><ele>258.6666666666667</ele><time>2026-04-20T05:59:06.32Z</time></trkpt><trkpt lat="41.8418887" lon="12.8291534"><ele>254.33333333333331</ele><time>2026-04-20T05:59:07.319Z</time></trkpt><trkpt lat="41.8420344" lon="12.8290524"><ele>250.0</ele><time>2026-04-20T05:59:08.32Z</time></trkpt><trkpt lat="41.8421924" lon="12.8289517"><ele>250.0</ele><time>2026-04-20T05:59:09.319Z</time></trkpt><trkpt lat="41.842361" lon="12.8288518"><ele>250.0</ele><time>2026-04-20T05:59:10.32Z</time></trkpt><trkpt lat="41.842524" lon="12.8287509"><ele>250.0</ele><time>2026-04-20T05:59:11.315Z</time></trkpt><trkpt lat="41.8426895" lon="12.8286521"><ele>248.33333333333331</ele><time>2026-04-20T05:59:12.317Z</time></trkpt><trkpt lat="41.8428532" lon="12.8285521"><ele>246.66666666666669</ele><time>2026-04-20T05:59:13.321Z</time></trkpt><trkpt lat="41.8430103" lon="12.8284433"><ele>245.0</ele><time>2026-04-20T05:59:14.318Z</time></trkpt><trkpt lat="41.8431668" lon="12.8283246"><ele>245.0</ele><time>2026-04-20T05:59:15.32Z</time></trkpt><trkpt lat="41.8433296" lon="12.8281972"><ele>245.0</ele><time>2026-04-20T05:59:16.32Z</time></trkpt><trkpt lat="41.8434857" lon="12.8280697"><ele>245.0</ele><time>2026-04-20T05:59:17.319Z</time></trkpt><trkpt lat="41.8436366" lon="12.8279491"><ele>245.66666666666669</ele><time>2026-04-20T05:59:18.317Z</time></trkpt><trkpt lat="41.8437906" lon="12.8278278"><ele>246.33333333333331</ele><time>2026-04-20T05:59:19.317Z</time></trkpt><trkpt lat="41.8439447" lon="12.8277049"><ele>247.0</ele><time>2026-04-20T05:59:20.317Z</time></trkpt><trkpt lat="41.8440984" lon="12.8275807"><ele>247.0</ele><time>2026-04-20T05:59:21.317Z</time></trkpt><trkpt lat="41.8442512" lon="12.8274608"><ele>247.0</ele><time>2026-04-20T05:59:22.317Z</time></trkpt><trkpt lat="41.8444004" lon="12.8273624"><ele>247.0</ele><time>2026-04-20T05:59:23.316Z</time></trkpt><trkpt lat="41.8445254" lon="12.8272825"><ele>243.75</ele><time>2026-04-20T05:59:24.317Z</time></trkpt><trkpt lat="41.8446397" lon="12.8272174"><ele>240.5</ele><time>2026-04-20T05:59:25.32Z</time></trkpt><trkpt lat="41.8447544" lon="12.8271648"><ele>237.25</ele><time>2026-04-20T05:59:26.319Z</time></trkpt><trkpt lat="41.8448749" lon="12.8271132"><ele>234.0</ele><time>2026-04-20T05:59:27.318Z</time></trkpt><trkpt lat="41.8449966" lon="12.8270685"><ele>234.0</ele><time>2026-04-20T05:59:28.316Z</time></trkpt><trkpt lat="41.8451207" lon="12.8270246"><ele>234.0</ele><time>2026-04-20T05:59:29.317Z</time></trkpt><trkpt lat="41.8452487" lon="12.8269846"><ele>234.0</ele><time>2026-04-20T05:59:30.318Z</time></trkpt><trkpt lat="41.8453735" lon="12.8269592"><ele>234.0</ele><time>2026-04-20T05:59:31.316Z</time></trkpt><trkpt lat="41.8454999" lon="12.8269339"><ele>234.0</ele><time>2026-04-20T05:59:32.318Z</time></trkpt><trkpt lat="41.8456249" lon="12.8268909"><ele>234.0</ele><time>2026-04-20T05:59:33.317Z</time></trkpt><trkpt lat="41.8457544" lon="12.8268371"><ele>234.0</ele><time>2026-04-20T05:59:34.315Z</time></trkpt><trkpt lat="41.8458958" lon="12.826791"><ele>234.0</ele><time>2026-04-20T05:59:35.317Z</time></trkpt><trkpt lat="41.8460438" lon="12.8267618"><ele>231.66666666666669</ele><time>2026-04-20T05:59:36.316Z</time></trkpt><trkpt lat="41.8461971" lon="12.8267329"><ele>229.33333333333334</ele><time>2026-04-20T05:59:37.317Z</time></trkpt><trkpt lat="41.846352" lon="12.826694"><ele>227.0</ele><time>2026-04-20T05:59:38.317Z</time></trkpt><trkpt lat="41.8465093" lon="12.8266368"><ele>227.0</ele><time>2026-04-20T05:59:39.316Z</time></trkpt><trkpt lat="41.8466724" lon="12.8265661"><ele>227.0</ele><time>2026-04-20T05:59:40.316Z</time></trkpt><trkpt lat="41.8468338" lon="12.8264872"><ele>227.0</ele><time>2026-04-20T05:59:41.318Z</time></trkpt><trkpt lat="41.8469853" lon="12.8264035"><ele>227.33333333333334</ele><time>2026-04-20T05:59:42.317Z</time></trkpt><trkpt lat="41.8471308" lon="12.8263197"><ele>227.66666666666669</ele><time>2026-04-20T05:59:43.316Z</time></trkpt><trkpt lat="41.8472735" lon="12.8262265"><ele>228.0</ele><time>2026-04-20T05:59:44.317Z</time></trkpt><trkpt lat="41.847415" lon="12.8261314"><ele>228.0</ele><time>2026-04-20T05:59:45.317Z</time></trkpt><trkpt lat="41.8475549" lon="12.8260295"><ele>228.0</ele><time>2026-04-20T05:59:46.319Z</time></trkpt><trkpt lat="41.8476919" lon="12.8259147"><ele>228.0</ele><time>2026-04-20T05:59:47.319Z</time></trkpt><trkpt lat="41.8478252" lon="12.8257927"><ele>229.0</ele><time>2026-04-20T05:59:48.318Z</time></trkpt><trkpt lat="41.8479569" lon="12.8256683"><ele>230.0</ele><time>2026-04-20T05:59:49.319Z</time></trkpt><trkpt lat="41.848091" lon="12.8255458"><ele>231.0</ele><time>2026-04-20T05:59:50.323Z</time></trkpt><trkpt lat="41.8482294" lon="12.825429"><ele>231.0</ele><time>2026-04-20T05:59:51.319Z</time></trkpt><trkpt lat="41.8483714" lon="12.8253207"><ele>231.0</ele><time>2026-04-20T05:59:52.319Z</time></trkpt><trkpt lat="41.8485133" lon="12.8252108"><ele>231.0</ele><time>2026-04-20T05:59:53.318Z</time></trkpt><trkpt lat="41.8486612" lon="12.8251025"><ele>229.66666666666669</ele><time>2026-04-20T05:59:54.318Z</time></trkpt><trkpt lat="41.8488115" lon="12.8249979"><ele>228.33333333333334</ele><time>2026-04-20T05:59:55.319Z</time></trkpt><trkpt lat="41.8489645" lon="12.8248901"><ele>227.0</ele><time>2026-04-20T05:59:56.319Z</time></trkpt><trkpt lat="41.8491196" lon="12.8247858"><ele>227.0</ele><time>2026-04-20T05:59:57.32Z</time></trkpt><trkpt lat="41.8492761" lon="12.824678"><ele>227.0</ele><time>2026-04-20T05:59:58.319Z</time></trkpt><trkpt lat="41.8494363" lon="12.8245685"><ele>227.0</ele><time>2026-04-20T05:59:59.316Z</time></trkpt><trkpt lat="41.8495934" lon="12.8244594"><ele>225.66666666666669</ele><time>2026-04-20T06:00:00.317Z</time></trkpt><trkpt lat="41.8497517" lon="12.824353"><ele>224.33333333333331</ele><time>2026-04-20T06:00:01.316Z</time></trkpt><trkpt lat="41.8499102" lon="12.8242413"><ele>223.0</ele><time>2026-04-20T06:00:02.316Z</time></trkpt><trkpt lat="41.8500713" lon="12.8241339"><ele>228.0</ele><time>2026-04-20T06:00:03.318Z</time></trkpt><trkpt lat="41.8502299" lon="12.8240194"><ele>233.0</ele><time>2026-04-20T06:00:04.317Z</time></trkpt><trkpt lat="41.8503883" lon="12.8239073"><ele>238.0</ele><time>2026-04-20T06:00:05.318Z</time></trkpt><trkpt lat="41.8505463" lon="12.8238001"><ele>238.0</ele><time>2026-04-20T06:00:06.317Z</time></trkpt><trkpt lat="41.850703" lon="12.8236969"><ele>238.0</ele><time>2026-04-20T06:00:07.316Z</time></trkpt><trkpt lat="41.8508612" lon="12.8235928"><ele>238.0</ele><time>2026-04-20T06:00:08.315Z</time></trkpt><trkpt lat="41.8510181" lon="12.8234845"><ele>234.66666666666666</ele><time>2026-04-20T06:00:09.317Z</time></trkpt><trkpt lat="41.8511748" lon="12.823367"><ele>231.33333333333331</ele><time>2026-04-20T06:00:10.317Z</time></trkpt><trkpt lat="41.8513318" lon="12.8232485"><ele>228.0</ele><time>2026-04-20T06:00:11.317Z</time></trkpt><trkpt lat="41.8514855" lon="12.8231254"><ele>228.0</ele><time>2026-04-20T06:00:12.319Z</time></trkpt><trkpt lat="41.8516415" lon="12.8230036"><ele>228.0</ele><time>2026-04-20T06:00:13.319Z</time></trkpt><trkpt lat="41.851797" lon="12.8228852"><ele>228.0</ele><time>2026-04-20T06:00:14.319Z</time></trkpt><trkpt lat="41.8519549" lon="12.8227747"><ele>224.33333333333331</ele><time>2026-04-20T06:00:15.319Z</time></trkpt><trkpt lat="41.8521133" lon="12.8226709"><ele>220.66666666666666</ele><time>2026-04-20T06:00:16.318Z</time></trkpt><trkpt lat="41.8522763" lon="12.8225728"><ele>217.0</ele><time>2026-04-20T06:00:17.32Z</time></trkpt><trkpt lat="41.8524337" lon="12.8224704"><ele>217.0</ele><time>2026-04-20T06:00:18.319Z</time></trkpt><trkpt lat="41.8525855" lon="12.8223536"><ele>217.0</ele><time>2026-04-20T06:00:19.319Z</time></trkpt><trkpt lat="41.8527257" lon="12.8222178"><ele>217.0</ele><time>2026-04-20T06:00:20.318Z</time></trkpt><trkpt lat="41.8528554" lon="12.8220615"><ele>216.66666666666666</ele><time>2026-04-20T06:00:21.319Z</time></trkpt><trkpt lat="41.8529817" lon="12.8218927"><ele>216.33333333333331</ele><time>2026-04-20T06:00:22.32Z</time></trkpt><trkpt lat="41.8531092" lon="12.8217202"><ele>216.0</ele><time>2026-04-20T06:00:23.319Z</time></trkpt><trkpt lat="41.8532362" lon="12.8215439"><ele>216.0</ele><time>2026-04-20T06:00:24.319Z</time></trkpt><trkpt lat="41.8533657" lon="12.8213665"><ele>216.0</ele><time>2026-04-20T06:00:25.319Z</time></trkpt><trkpt lat="41.8534943" lon="12.821188"><ele>216.0</ele><time>2026-04-20T06:00:26.319Z</time></trkpt><trkpt lat="41.8536254" lon="12.8210127"><ele>218.0</ele><time>2026-04-20T06:00:27.32Z</time></trkpt><trkpt lat="41.8537575" lon="12.8208378"><ele>220.0</ele><time>2026-04-20T06:00:28.319Z</time></trkpt><trkpt lat="41.8538896" lon="12.8206676"><ele>222.0</ele><time>2026-04-20T06:00:29.317Z</time></trkpt><trkpt lat="41.85402" lon="12.820496"><ele>222.0</ele><time>2026-04-20T06:00:30.316Z</time></trkpt><trkpt lat="41.8541538" lon="12.8203269"><ele>222.0</ele><time>2026-04-20T06:00:31.316Z</time></trkpt><trkpt lat="41.8542819" lon="12.8201496"><ele>222.0</ele><time>2026-04-20T06:00:32.317Z</time></trkpt><trkpt lat="41.8544083" lon="12.819977"><ele>224.0</ele><time>2026-04-20T06:00:33.317Z</time></trkpt><trkpt lat="41.8545424" lon="12.8197996"><ele>226.0</ele><time>2026-04-20T06:00:34.316Z</time></trkpt><trkpt lat="41.8546776" lon="12.8196168"><ele>228.0</ele><time>2026-04-20T06:00:35.316Z</time></trkpt><trkpt lat="41.8549244" lon="12.8194501"><ele>227.66666666666669</ele><time>2026-04-20T06:00:36.379Z</time></trkpt><trkpt lat="41.8550236" lon="12.819253"><ele>227.33333333333334</ele><time>2026-04-20T06:00:37.363Z</time></trkpt><trkpt lat="41.8552037" lon="12.8190059"><ele>227.0</ele><time>2026-04-20T06:00:38.817Z</time></trkpt><trkpt lat="41.855428" lon="12.8187732"><ele>227.0</ele><time>2026-04-20T06:00:40.318Z</time></trkpt><trkpt lat="41.8555856" lon="12.8186323"><ele>227.0</ele><time>2026-04-20T06:00:41.316Z</time></trkpt><trkpt lat="41.8557531" lon="12.8185012"><ele>227.0</ele><time>2026-04-20T06:00:42.317Z</time></trkpt><trkpt lat="41.8559269" lon="12.818378"><ele>225.33333333333334</ele><time>2026-04-20T06:00:43.316Z</time></trkpt><trkpt lat="41.856106" lon="12.8182653"><ele>223.66666666666669</ele><time>2026-04-20T06:00:44.316Z</time></trkpt><trkpt lat="41.8562877" lon="12.818154"><ele>222.0</ele><time>2026-04-20T06:00:45.316Z</time></trkpt><trkpt lat="41.8564671" lon="12.81804"><ele>222.0</ele><time>2026-04-20T06:00:46.316Z</time></trkpt><trkpt lat="41.8566451" lon="12.8179155"><ele>222.0</ele><time>2026-04-20T06:00:47.317Z</time></trkpt><trkpt lat="41.85682" lon="12.8177767"><ele>222.0</ele><time>2026-04-20T06:00:48.316Z</time></trkpt><trkpt lat="41.856995" lon="12.8176317"><ele>219.33333333333331</ele><time>2026-04-20T06:00:49.316Z</time></trkpt><trkpt lat="41.8571683" lon="12.8174783"><ele>216.66666666666666</ele><time>2026-04-20T06:00:50.316Z</time></trkpt><trkpt lat="41.85734" lon="12.81732"><ele>214.0</ele><time>2026-04-20T06:00:51.316Z</time></trkpt><trkpt lat="41.8575083" lon="12.81716"><ele>214.0</ele><time>2026-04-20T06:00:52.316Z</time></trkpt><trkpt lat="41.8576783" lon="12.8170033"><ele>214.0</ele><time>2026-04-20T06:00:53.316Z</time></trkpt><trkpt lat="41.8578467" lon="12.8168433"><ele>214.0</ele><time>2026-04-20T06:00:54.316Z</time></trkpt><trkpt lat="41.8580167" lon="12.8166833"><ele>214.0</ele><time>2026-04-20T06:00:55.315Z</time></trkpt><trkpt lat="41.85819" lon="12.8165267"><ele>214.0</ele><time>2026-04-20T06:00:56.317Z</time></trkpt><trkpt lat="41.8583533" lon="12.816375"><ele>214.0</ele><time>2026-04-20T06:00:57.317Z</time></trkpt><trkpt lat="41.858515" lon="12.8162233"><ele>213.66666666666666</ele><time>2026-04-20T06:00:58.316Z</time></trkpt><trkpt lat="41.8586783" lon="12.8160733"><ele>213.33333333333331</ele><time>2026-04-20T06:00:59.316Z</time></trkpt><trkpt lat="41.8588433" lon="12.8159167"><ele>213.0</ele><time>2026-04-20T06:01:00.317Z</time></trkpt><trkpt lat="41.8590133" lon="12.8157583"><ele>213.0</ele><time>2026-04-20T06:01:01.316Z</time></trkpt><trkpt lat="41.8591867" lon="12.815595"><ele>213.0</ele><time>2026-04-20T06:01:02.317Z</time></trkpt><trkpt lat="41.8593583" lon="12.81544"><ele>213.0</ele><time>2026-04-20T06:01:03.316Z</time></trkpt><trkpt lat="41.8595233" lon="12.815295"><ele>214.33333333333331</ele><time>2026-04-20T06:01:04.315Z</time></trkpt><trkpt lat="41.8596883" lon="12.815155"><ele>215.66666666666666</ele><time>2026-04-20T06:01:05.315Z</time></trkpt><trkpt lat="41.8598517" lon="12.81502"><ele>217.0</ele><time>2026-04-20T06:01:06.317Z</time></trkpt><trkpt lat="41.8600167" lon="12.8148983"><ele>218.0</ele><time>2026-04-20T06:01:07.317Z</time></trkpt><trkpt lat="41.8601883" lon="12.8147883"><ele>219.0</ele><time>2026-04-20T06:01:08.316Z</time></trkpt><trkpt lat="41.860365" lon="12.814685"><ele>220.0</ele><time>2026-04-20T06:01:09.316Z</time></trkpt><trkpt lat="41.860545" lon="12.8145933"><ele>220.0</ele><time>2026-04-20T06:01:10.316Z</time></trkpt><trkpt lat="41.8607233" lon="12.8145067"><ele>220.0</ele><time>2026-04-20T06:01:11.317Z</time></trkpt><trkpt lat="41.8609033" lon="12.8144167"><ele>220.0</ele><time>2026-04-20T06:01:12.317Z</time></trkpt><trkpt lat="41.8610867" lon="12.8143267"><ele>216.66666666666666</ele><time>2026-04-20T06:01:13.316Z</time></trkpt><trkpt lat="41.8612633" lon="12.81424"><ele>213.33333333333331</ele><time>2026-04-20T06:01:14.317Z</time></trkpt><trkpt lat="41.861435" lon="12.8141617"><ele>210.0</ele><time>2026-04-20T06:01:15.317Z</time></trkpt><trkpt lat="41.8616" lon="12.814085"><ele>210.0</ele><time>2026-04-20T06:01:16.317Z</time></trkpt><trkpt lat="41.8617533" lon="12.814015"><ele>210.0</ele><time>2026-04-20T06:01:17.316Z</time></trkpt><trkpt lat="41.8618967" lon="12.81392"><ele>210.0</ele><time>2026-04-20T06:01:18.317Z</time></trkpt><trkpt lat="41.8620333" lon="12.8138067"><ele>209.66666666666669</ele><time>2026-04-20T06:01:19.316Z</time></trkpt><trkpt lat="41.862155" lon="12.81367"><ele>209.33333333333334</ele><time>2026-04-20T06:01:20.317Z</time></trkpt><trkpt lat="41.8622767" lon="12.8135133"><ele>209.0</ele><time>2026-04-20T06:01:21.317Z</time></trkpt><trkpt lat="41.8624033" lon="12.8133517"><ele>209.0</ele><time>2026-04-20T06:01:22.315Z</time></trkpt><trkpt lat="41.8625317" lon="12.813185"><ele>209.0</ele><time>2026-04-20T06:01:23.317Z</time></trkpt><trkpt lat="41.8626583" lon="12.8130083"><ele>209.0</ele><time>2026-04-20T06:01:24.316Z</time></trkpt><trkpt lat="41.8628" lon="12.8128317"><ele>209.33333333333334</ele><time>2026-04-20T06:01:25.315Z</time></trkpt><trkpt lat="41.8629383" lon="12.8126533"><ele>209.66666666666669</ele><time>2026-04-20T06:01:26.317Z</time></trkpt><trkpt lat="41.863075" lon="12.81247"><ele>210.0</ele><time>2026-04-20T06:01:27.317Z</time></trkpt><trkpt lat="41.86321" lon="12.8122817"><ele>210.0</ele><time>2026-04-20T06:01:28.316Z</time></trkpt><trkpt lat="41.8633567" lon="12.8121017"><ele>210.0</ele><time>2026-04-20T06:01:29.315Z</time></trkpt><trkpt lat="41.8634983" lon="12.811925"><ele>210.0</ele><time>2026-04-20T06:01:30.316Z</time></trkpt><trkpt lat="41.86364" lon="12.8117483"><ele>211.66666666666669</ele><time>2026-04-20T06:01:31.316Z</time></trkpt><trkpt lat="41.8637783" lon="12.8115683"><ele>213.33333333333334</ele><time>2026-04-20T06:01:32.317Z</time></trkpt><trkpt lat="41.8639183" lon="12.811385"><ele>215.0</ele><time>2026-04-20T06:01:33.316Z</time></trkpt><trkpt lat="41.8640567" lon="12.8112067"><ele>215.0</ele><time>2026-04-20T06:01:34.316Z</time></trkpt><trkpt lat="41.8641883" lon="12.8110367"><ele>215.0</ele><time>2026-04-20T06:01:35.316Z</time></trkpt><trkpt lat="41.864315" lon="12.81087"><ele>215.0</ele><time>2026-04-20T06:01:36.317Z</time></trkpt><trkpt lat="41.864435" lon="12.81071"><ele>215.66666666666669</ele><time>2026-04-20T06:01:37.316Z</time></trkpt><trkpt lat="41.864555" lon="12.8105533"><ele>216.33333333333331</ele><time>2026-04-20T06:01:38.316Z</time></trkpt><trkpt lat="41.8646717" lon="12.8104017"><ele>217.0</ele><time>2026-04-20T06:01:39.316Z</time></trkpt><trkpt lat="41.8647867" lon="12.8102533"><ele>215.33333333333331</ele><time>2026-04-20T06:01:40.316Z</time></trkpt><trkpt lat="41.864905" lon="12.8101017"><ele>213.66666666666669</ele><time>2026-04-20T06:01:41.316Z</time></trkpt><trkpt lat="41.86502" lon="12.809955"><ele>212.0</ele><time>2026-04-20T06:01:42.319Z</time></trkpt><trkpt lat="41.8651317" lon="12.8098133"><ele>212.0</ele><time>2026-04-20T06:01:43.318Z</time></trkpt><trkpt lat="41.8652533" lon="12.8096833"><ele>212.0</ele><time>2026-04-20T06:01:44.319Z</time></trkpt><trkpt lat="41.8653833" lon="12.8095683"><ele>212.0</ele><time>2026-04-20T06:01:45.318Z</time></trkpt><trkpt lat="41.86552" lon="12.8094633"><ele>212.0</ele><time>2026-04-20T06:01:46.319Z</time></trkpt><trkpt lat="41.8656617" lon="12.809365"><ele>212.0</ele><time>2026-04-20T06:01:47.319Z</time></trkpt><trkpt lat="41.8658033" lon="12.8092667"><ele>212.0</ele><time>2026-04-20T06:01:48.318Z</time></trkpt><trkpt lat="41.8659417" lon="12.8091633"><ele>209.33333333333334</ele><time>2026-04-20T06:01:49.319Z</time></trkpt><trkpt lat="41.8660817" lon="12.80906"><ele>206.66666666666669</ele><time>2026-04-20T06:01:50.318Z</time></trkpt><trkpt lat="41.8662283" lon="12.808965"><ele>204.0</ele><time>2026-04-20T06:01:51.32Z</time></trkpt><trkpt lat="41.8663833" lon="12.8088667"><ele>204.0</ele><time>2026-04-20T06:01:52.318Z</time></trkpt><trkpt lat="41.866545" lon="12.808775"><ele>204.0</ele><time>2026-04-20T06:01:53.318Z</time></trkpt><trkpt lat="41.8666983" lon="12.8086817"><ele>204.0</ele><time>2026-04-20T06:01:54.319Z</time></trkpt><trkpt lat="41.8668417" lon="12.8085833"><ele>203.25</ele><time>2026-04-20T06:01:55.319Z</time></trkpt><trkpt lat="41.8669633" lon="12.808485"><ele>202.5</ele><time>2026-04-20T06:01:56.319Z</time></trkpt><trkpt lat="41.867065" lon="12.8083967"><ele>201.75</ele><time>2026-04-20T06:01:57.318Z</time></trkpt><trkpt lat="41.867165" lon="12.808305"><ele>201.0</ele><time>2026-04-20T06:01:58.319Z</time></trkpt><trkpt lat="41.8672583" lon="12.80822"><ele>201.0</ele><time>2026-04-20T06:01:59.317Z</time></trkpt><trkpt lat="41.8673417" lon="12.8081433"><ele>201.0</ele><time>2026-04-20T06:02:00.317Z</time></trkpt><trkpt lat="41.8674067" lon="12.8080783"><ele>201.0</ele><time>2026-04-20T06:02:01.315Z</time></trkpt><trkpt lat="41.867465" lon="12.808025"><ele>201.0</ele><time>2026-04-20T06:02:02.317Z</time></trkpt><trkpt lat="41.8675383" lon="12.8079467"><ele>201.0</ele><time>2026-04-20T06:02:04.316Z</time></trkpt><trkpt lat="41.8675983" lon="12.80789"><ele>201.0</ele><time>2026-04-20T06:02:06.317Z</time></trkpt><trkpt lat="41.8676633" lon="12.8078317"><ele>202.16666666666666</ele><time>2026-04-20T06:02:08.316Z</time></trkpt><trkpt lat="41.8677333" lon="12.8077617"><ele>203.33333333333331</ele><time>2026-04-20T06:02:10.319Z</time></trkpt><trkpt lat="41.8678167" lon="12.8076567"><ele>204.5</ele><time>2026-04-20T06:02:12.319Z</time></trkpt><trkpt lat="41.8678667" lon="12.8075917"><ele>205.66666666666666</ele><time>2026-04-20T06:02:13.318Z</time></trkpt><trkpt lat="41.8679183" lon="12.8075217"><ele>206.83333333333331</ele><time>2026-04-20T06:02:14.318Z</time></trkpt><trkpt lat="41.86797" lon="12.807445"><ele>208.0</ele><time>2026-04-20T06:02:15.318Z</time></trkpt><trkpt lat="41.86803" lon="12.8073467"><ele>208.0</ele><time>2026-04-20T06:02:16.319Z</time></trkpt><trkpt lat="41.8680967" lon="12.8072317"><ele>208.0</ele><time>2026-04-20T06:02:17.318Z</time></trkpt><trkpt lat="41.8681683" lon="12.807115"><ele>208.0</ele><time>2026-04-20T06:02:18.319Z</time></trkpt><trkpt lat="41.8682433" lon="12.8070083"><ele>208.0</ele><time>2026-04-20T06:02:19.319Z</time></trkpt><trkpt lat="41.8683267" lon="12.8068917"><ele>209.0</ele><time>2026-04-20T06:02:20.319Z</time></trkpt><trkpt lat="41.8684183" lon="12.8067617"><ele>210.0</ele><time>2026-04-20T06:02:21.32Z</time></trkpt><trkpt lat="41.8685133" lon="12.8066167"><ele>211.0</ele><time>2026-04-20T06:02:22.319Z</time></trkpt><trkpt lat="41.8686083" lon="12.8064783"><ele>212.0</ele><time>2026-04-20T06:02:23.318Z</time></trkpt><trkpt lat="41.868705" lon="12.806335"><ele>212.0</ele><time>2026-04-20T06:02:24.319Z</time></trkpt><trkpt lat="41.868805" lon="12.8061883"><ele>212.0</ele><time>2026-04-20T06:02:25.319Z</time></trkpt><trkpt lat="41.8689067" lon="12.80603"><ele>212.0</ele><time>2026-04-20T06:02:26.318Z</time></trkpt><trkpt lat="41.8690117" lon="12.8058683"><ele>213.0</ele><time>2026-04-20T06:02:27.319Z</time></trkpt><trkpt lat="41.8691217" lon="12.8057033"><ele>214.0</ele><time>2026-04-20T06:02:28.319Z</time></trkpt><trkpt lat="41.8692367" lon="12.8055333"><ele>215.0</ele><time>2026-04-20T06:02:29.319Z</time></trkpt><trkpt lat="41.86935" lon="12.8053633"><ele>215.0</ele><time>2026-04-20T06:02:30.316Z</time></trkpt><trkpt lat="41.869465" lon="12.8051983"><ele>215.0</ele><time>2026-04-20T06:02:31.318Z</time></trkpt><trkpt lat="41.8695783" lon="12.8050317"><ele>215.0</ele><time>2026-04-20T06:02:32.318Z</time></trkpt><trkpt lat="41.8696883" lon="12.8048617"><ele>210.33333333333334</ele><time>2026-04-20T06:02:33.316Z</time></trkpt><trkpt lat="41.869795" lon="12.8046833"><ele>205.66666666666669</ele><time>2026-04-20T06:02:34.315Z</time></trkpt><trkpt lat="41.8698967" lon="12.8045017"><ele>201.0</ele><time>2026-04-20T06:02:35.316Z</time></trkpt><trkpt lat="41.8699967" lon="12.8043067"><ele>205.0</ele><time>2026-04-20T06:02:36.316Z</time></trkpt><trkpt lat="41.8700967" lon="12.80411"><ele>209.0</ele><time>2026-04-20T06:02:37.316Z</time></trkpt><trkpt lat="41.8701917" lon="12.8038983"><ele>213.0</ele><time>2026-04-20T06:02:38.316Z</time></trkpt><trkpt lat="41.8702833" lon="12.8036917"><ele>209.33333333333331</ele><time>2026-04-20T06:02:39.318Z</time></trkpt><trkpt lat="41.8703767" lon="12.803495"><ele>205.66666666666666</ele><time>2026-04-20T06:02:40.315Z</time></trkpt><trkpt lat="41.87048" lon="12.80331"><ele>202.0</ele><time>2026-04-20T06:02:41.317Z</time></trkpt><trkpt lat="41.8705967" lon="12.8031317"><ele>202.0</ele><time>2026-04-20T06:02:42.316Z</time></trkpt><trkpt lat="41.87073" lon="12.80296"><ele>202.0</ele><time>2026-04-20T06:02:43.316Z</time></trkpt><trkpt lat="41.8708733" lon="12.8027917"><ele>202.0</ele><time>2026-04-20T06:02:44.319Z</time></trkpt><trkpt lat="41.8710167" lon="12.8026183"><ele>200.66666666666666</ele><time>2026-04-20T06:02:45.319Z</time></trkpt><trkpt lat="41.8711583" lon="12.8024333"><ele>199.33333333333331</ele><time>2026-04-20T06:02:46.319Z</time></trkpt><trkpt lat="41.8712983" lon="12.8022383"><ele>198.0</ele><time>2026-04-20T06:02:47.319Z</time></trkpt><trkpt lat="41.8714333" lon="12.8020333"><ele>193.33333333333334</ele><time>2026-04-20T06:02:48.318Z</time></trkpt><trkpt lat="41.8715583" lon="12.8018267"><ele>188.66666666666669</ele><time>2026-04-20T06:02:49.319Z</time></trkpt><trkpt lat="41.87167" lon="12.8016217"><ele>184.0</ele><time>2026-04-20T06:02:50.319Z</time></trkpt><trkpt lat="41.8717717" lon="12.80141"><ele>187.33333333333334</ele><time>2026-04-20T06:02:51.318Z</time></trkpt><trkpt lat="41.8718733" lon="12.8011967"><ele>190.66666666666669</ele><time>2026-04-20T06:02:52.319Z</time></trkpt><trkpt lat="41.8719767" lon="12.8009817"><ele>194.0</ele><time>2026-04-20T06:02:53.319Z</time></trkpt><trkpt lat="41.8720817" lon="12.8007717"><ele>194.0</ele><time>2026-04-20T06:02:54.319Z</time></trkpt><trkpt lat="41.872185" lon="12.8005683"><ele>194.0</ele><time>2026-04-20T06:02:55.317Z</time></trkpt><trkpt lat="41.87229" lon="12.8003683"><ele>194.0</ele><time>2026-04-20T06:02:56.319Z</time></trkpt><trkpt lat="41.872395" lon="12.8001667"><ele>195.66666666666669</ele><time>2026-04-20T06:02:57.319Z</time></trkpt><trkpt lat="41.8725083" lon="12.7999667"><ele>197.33333333333331</ele><time>2026-04-20T06:02:58.318Z</time></trkpt><trkpt lat="41.8726333" lon="12.7997717"><ele>199.0</ele><time>2026-04-20T06:02:59.316Z</time></trkpt><trkpt lat="41.872765" lon="12.7995833"><ele>199.0</ele><time>2026-04-20T06:03:00.317Z</time></trkpt><trkpt lat="41.8728983" lon="12.7993967"><ele>199.0</ele><time>2026-04-20T06:03:01.317Z</time></trkpt><trkpt lat="41.87303" lon="12.7992183"><ele>199.0</ele><time>2026-04-20T06:03:02.316Z</time></trkpt><trkpt lat="41.8731617" lon="12.7990433"><ele>201.33333333333331</ele><time>2026-04-20T06:03:03.317Z</time></trkpt><trkpt lat="41.8732883" lon="12.79888"><ele>203.66666666666669</ele><time>2026-04-20T06:03:04.317Z</time></trkpt><trkpt lat="41.8734083" lon="12.7987233"><ele>206.0</ele><time>2026-04-20T06:03:05.316Z</time></trkpt><trkpt lat="41.87353" lon="12.7985667"><ele>199.33333333333334</ele><time>2026-04-20T06:03:06.317Z</time></trkpt><trkpt lat="41.8736533" lon="12.7984183"><ele>192.66666666666669</ele><time>2026-04-20T06:03:07.317Z</time></trkpt><trkpt lat="41.8737767" lon="12.798265"><ele>186.0</ele><time>2026-04-20T06:03:08.316Z</time></trkpt><trkpt lat="41.8739067" lon="12.79811"><ele>186.0</ele><time>2026-04-20T06:03:09.317Z</time></trkpt><trkpt lat="41.8740417" lon="12.797955"><ele>186.0</ele><time>2026-04-20T06:03:10.316Z</time></trkpt><trkpt lat="41.874175" lon="12.7978"><ele>186.0</ele><time>2026-04-20T06:03:11.318Z</time></trkpt><trkpt lat="41.8743083" lon="12.797645"><ele>186.33333333333334</ele><time>2026-04-20T06:03:12.319Z</time></trkpt><trkpt lat="41.874445" lon="12.7974883"><ele>186.66666666666669</ele><time>2026-04-20T06:03:13.317Z</time></trkpt><trkpt lat="41.87459" lon="12.7973367"><ele>187.0</ele><time>2026-04-20T06:03:14.319Z</time></trkpt><trkpt lat="41.8747267" lon="12.7971867"><ele>187.0</ele><time>2026-04-20T06:03:15.318Z</time></trkpt><trkpt lat="41.8748683" lon="12.797045"><ele>187.0</ele><time>2026-04-20T06:03:16.317Z</time></trkpt><trkpt lat="41.8750067" lon="12.7969083"><ele>187.0</ele><time>2026-04-20T06:03:17.316Z</time></trkpt><trkpt lat="41.8751467" lon="12.7967767"><ele>185.66666666666669</ele><time>2026-04-20T06:03:18.318Z</time></trkpt><trkpt lat="41.87529" lon="12.7966483"><ele>184.33333333333334</ele><time>2026-04-20T06:03:19.316Z</time></trkpt><trkpt lat="41.8754333" lon="12.7965217"><ele>183.0</ele><time>2026-04-20T06:03:20.318Z</time></trkpt><trkpt lat="41.87558" lon="12.7963933"><ele>183.0</ele><time>2026-04-20T06:03:21.318Z</time></trkpt><trkpt lat="41.8757283" lon="12.7962667"><ele>183.0</ele><time>2026-04-20T06:03:22.318Z</time></trkpt><trkpt lat="41.8758783" lon="12.7961383"><ele>183.0</ele><time>2026-04-20T06:03:23.319Z</time></trkpt><trkpt lat="41.87603" lon="12.7960033"><ele>181.66666666666666</ele><time>2026-04-20T06:03:24.318Z</time></trkpt><trkpt lat="41.87618" lon="12.7958683"><ele>180.33333333333331</ele><time>2026-04-20T06:03:25.317Z</time></trkpt><trkpt lat="41.876335" lon="12.795735"><ele>179.0</ele><time>2026-04-20T06:03:26.318Z</time></trkpt><trkpt lat="41.8764933" lon="12.7955967"><ele>179.0</ele><time>2026-04-20T06:03:27.319Z</time></trkpt><trkpt lat="41.8766517" lon="12.7954583"><ele>179.0</ele><time>2026-04-20T06:03:28.317Z</time></trkpt><trkpt lat="41.87681" lon="12.79532"><ele>179.0</ele><time>2026-04-20T06:03:29.319Z</time></trkpt><trkpt lat="41.876965" lon="12.79518"><ele>177.33333333333331</ele><time>2026-04-20T06:03:30.319Z</time></trkpt><trkpt lat="41.877115" lon="12.7950367"><ele>175.66666666666666</ele><time>2026-04-20T06:03:31.319Z</time></trkpt><trkpt lat="41.87727" lon="12.7948933"><ele>174.0</ele><time>2026-04-20T06:03:32.318Z</time></trkpt><trkpt lat="41.8774233" lon="12.7947617"><ele>174.0</ele><time>2026-04-20T06:03:33.32Z</time></trkpt><trkpt lat="41.8775817" lon="12.7946317"><ele>174.0</ele><time>2026-04-20T06:03:34.316Z</time></trkpt><trkpt lat="41.8777367" lon="12.7944983"><ele>174.0</ele><time>2026-04-20T06:03:35.317Z</time></trkpt><trkpt lat="41.8778917" lon="12.7943667"><ele>172.66666666666666</ele><time>2026-04-20T06:03:36.318Z</time></trkpt><trkpt lat="41.8780483" lon="12.7942367"><ele>171.33333333333331</ele><time>2026-04-20T06:03:37.318Z</time></trkpt><trkpt lat="41.8781983" lon="12.7941"><ele>170.0</ele><time>2026-04-20T06:03:38.319Z</time></trkpt><trkpt lat="41.8783467" lon="12.7939567"><ele>172.66666666666666</ele><time>2026-04-20T06:03:39.319Z</time></trkpt><trkpt lat="41.8784867" lon="12.7937983"><ele>175.33333333333334</ele><time>2026-04-20T06:03:40.317Z</time></trkpt><trkpt lat="41.87861" lon="12.793625"><ele>178.0</ele><time>2026-04-20T06:03:41.319Z</time></trkpt><trkpt lat="41.8787217" lon="12.7934367"><ele>178.0</ele><time>2026-04-20T06:03:42.319Z</time></trkpt><trkpt lat="41.8788267" lon="12.7932333"><ele>178.0</ele><time>2026-04-20T06:03:43.319Z</time></trkpt><trkpt lat="41.8789283" lon="12.793025"><ele>178.0</ele><time>2026-04-20T06:03:44.319Z</time></trkpt><trkpt lat="41.879035" lon="12.7928183"><ele>174.33333333333334</ele><time>2026-04-20T06:03:45.319Z</time></trkpt><trkpt lat="41.8791367" lon="12.7926183"><ele>170.66666666666666</ele><time>2026-04-20T06:03:46.319Z</time></trkpt><trkpt lat="41.87924" lon="12.7924183"><ele>167.0</ele><time>2026-04-20T06:03:47.32Z</time></trkpt><trkpt lat="41.8793433" lon="12.79221"><ele>170.0</ele><time>2026-04-20T06:03:48.32Z</time></trkpt><trkpt lat="41.879455" lon="12.7920017"><ele>173.0</ele><time>2026-04-20T06:03:49.316Z</time></trkpt><trkpt lat="41.8795683" lon="12.7917867"><ele>176.0</ele><time>2026-04-20T06:03:50.316Z</time></trkpt><trkpt lat="41.879685" lon="12.7915683"><ele>176.0</ele><time>2026-04-20T06:03:51.318Z</time></trkpt><trkpt lat="41.879805" lon="12.7913483"><ele>176.0</ele><time>2026-04-20T06:03:52.316Z</time></trkpt><trkpt lat="41.879925" lon="12.7911333"><ele>176.0</ele><time>2026-04-20T06:03:53.317Z</time></trkpt><trkpt lat="41.88004" lon="12.7909183"><ele>178.66666666666666</ele><time>2026-04-20T06:03:54.317Z</time></trkpt><trkpt lat="41.8801517" lon="12.7906883"><ele>181.33333333333334</ele><time>2026-04-20T06:03:55.316Z</time></trkpt><trkpt lat="41.8802483" lon="12.790455"><ele>184.0</ele><time>2026-04-20T06:03:56.318Z</time></trkpt><trkpt lat="41.8803333" lon="12.7902167"><ele>179.66666666666669</ele><time>2026-04-20T06:03:57.317Z</time></trkpt><trkpt lat="41.8804083" lon="12.7899833"><ele>175.33333333333334</ele><time>2026-04-20T06:03:58.317Z</time></trkpt><trkpt lat="41.8804783" lon="12.7897517"><ele>171.0</ele><time>2026-04-20T06:03:59.317Z</time></trkpt><trkpt lat="41.880555" lon="12.78952"><ele>168.66666666666666</ele><time>2026-04-20T06:04:00.316Z</time></trkpt><trkpt lat="41.8806383" lon="12.78929"><ele>166.33333333333331</ele><time>2026-04-20T06:04:01.318Z</time></trkpt><trkpt lat="41.8807283" lon="12.789055"><ele>164.0</ele><time>2026-04-20T06:04:02.317Z</time></trkpt><trkpt lat="41.8808183" lon="12.7888267"><ele>164.0</ele><time>2026-04-20T06:04:03.317Z</time></trkpt><trkpt lat="41.8809083" lon="12.7886017"><ele>164.0</ele><time>2026-04-20T06:04:04.317Z</time></trkpt><trkpt lat="41.8810017" lon="12.78838"><ele>164.0</ele><time>2026-04-20T06:04:05.317Z</time></trkpt><trkpt lat="41.881095" lon="12.7881567"><ele>163.66666666666666</ele><time>2026-04-20T06:04:06.318Z</time></trkpt><trkpt lat="41.8811917" lon="12.7879417"><ele>163.33333333333334</ele><time>2026-04-20T06:04:07.318Z</time></trkpt><trkpt lat="41.881285" lon="12.787735"><ele>163.0</ele><time>2026-04-20T06:04:08.316Z</time></trkpt><trkpt lat="41.8813783" lon="12.78753"><ele>163.0</ele><time>2026-04-20T06:04:09.317Z</time></trkpt><trkpt lat="41.88147" lon="12.787335"><ele>163.0</ele><time>2026-04-20T06:04:10.316Z</time></trkpt><trkpt lat="41.881575" lon="12.78716"><ele>163.0</ele><time>2026-04-20T06:04:11.318Z</time></trkpt><trkpt lat="41.8816933" lon="12.7870033"><ele>163.66666666666669</ele><time>2026-04-20T06:04:12.319Z</time></trkpt><trkpt lat="41.8818283" lon="12.7868583"><ele>164.33333333333334</ele><time>2026-04-20T06:04:13.316Z</time></trkpt><trkpt lat="41.881975" lon="12.78672"><ele>165.0</ele><time>2026-04-20T06:04:14.317Z</time></trkpt><trkpt lat="41.8821233" lon="12.786565"><ele>165.0</ele><time>2026-04-20T06:04:15.32Z</time></trkpt><trkpt lat="41.882255" lon="12.7863833"><ele>165.0</ele><time>2026-04-20T06:04:16.32Z</time></trkpt><trkpt lat="41.8823767" lon="12.7861783"><ele>165.0</ele><time>2026-04-20T06:04:17.32Z</time></trkpt><trkpt lat="41.8824833" lon="12.7859583"><ele>163.66666666666666</ele><time>2026-04-20T06:04:18.32Z</time></trkpt><trkpt lat="41.882585" lon="12.7857267"><ele>162.33333333333331</ele><time>2026-04-20T06:04:19.317Z</time></trkpt><trkpt lat="41.882685" lon="12.78549"><ele>161.0</ele><time>2026-04-20T06:04:20.32Z</time></trkpt><trkpt lat="41.88278" lon="12.7852483"><ele>158.66666666666666</ele><time>2026-04-20T06:04:21.319Z</time></trkpt><trkpt lat="41.882875" lon="12.7850017"><ele>156.33333333333334</ele><time>2026-04-20T06:04:22.319Z</time></trkpt><trkpt lat="41.8829717" lon="12.784755"><ele>154.0</ele><time>2026-04-20T06:04:23.319Z</time></trkpt><trkpt lat="41.88307" lon="12.78451"><ele>152.33333333333334</ele><time>2026-04-20T06:04:24.319Z</time></trkpt><trkpt lat="41.8831667" lon="12.7842667"><ele>150.66666666666666</ele><time>2026-04-20T06:04:25.319Z</time></trkpt><trkpt lat="41.883265" lon="12.7840317"><ele>149.0</ele><time>2026-04-20T06:04:26.32Z</time></trkpt><trkpt lat="41.8833617" lon="12.7838067"><ele>152.0</ele><time>2026-04-20T06:04:27.319Z</time></trkpt><trkpt lat="41.883455" lon="12.7835867"><ele>155.0</ele><time>2026-04-20T06:04:28.317Z</time></trkpt><trkpt lat="41.8835467" lon="12.7833717"><ele>158.0</ele><time>2026-04-20T06:04:29.319Z</time></trkpt><trkpt lat="41.8836433" lon="12.783165"><ele>158.0</ele><time>2026-04-20T06:04:30.319Z</time></trkpt><trkpt lat="41.88375" lon="12.7829583"><ele>158.0</ele><time>2026-04-20T06:04:31.318Z</time></trkpt><trkpt lat="41.8838483" lon="12.78275"><ele>158.0</ele><time>2026-04-20T06:04:32.32Z</time></trkpt><trkpt lat="41.883925" lon="12.7825383"><ele>155.33333333333331</ele><time>2026-04-20T06:04:33.319Z</time></trkpt><trkpt lat="41.8839833" lon="12.7823117"><ele>152.66666666666666</ele><time>2026-04-20T06:04:34.319Z</time></trkpt><trkpt lat="41.8840333" lon="12.782085"><ele>150.0</ele><time>2026-04-20T06:04:35.319Z</time></trkpt><trkpt lat="41.8840833" lon="12.781865"><ele>152.0</ele><time>2026-04-20T06:04:36.319Z</time></trkpt><trkpt lat="41.884145" lon="12.7816483"><ele>154.0</ele><time>2026-04-20T06:04:37.318Z</time></trkpt><trkpt lat="41.8842233" lon="12.7814433"><ele>156.0</ele><time>2026-04-20T06:04:38.318Z</time></trkpt><trkpt lat="41.8843383" lon="12.7812567"><ele>156.0</ele><time>2026-04-20T06:04:39.318Z</time></trkpt><trkpt lat="41.8844767" lon="12.7810817"><ele>156.0</ele><time>2026-04-20T06:04:40.319Z</time></trkpt><trkpt lat="41.8846117" lon="12.7809083"><ele>156.0</ele><time>2026-04-20T06:04:41.318Z</time></trkpt><trkpt lat="41.8847433" lon="12.780735"><ele>150.66666666666666</ele><time>2026-04-20T06:04:42.32Z</time></trkpt><trkpt lat="41.8848717" lon="12.7805517"><ele>145.33333333333331</ele><time>2026-04-20T06:04:43.32Z</time></trkpt><trkpt lat="41.8849983" lon="12.780355"><ele>140.0</ele><time>2026-04-20T06:04:44.32Z</time></trkpt><trkpt lat="41.8851217" lon="12.7801467"><ele>137.66666666666666</ele><time>2026-04-20T06:04:45.319Z</time></trkpt><trkpt lat="41.8852417" lon="12.7799433"><ele>135.33333333333334</ele><time>2026-04-20T06:04:46.319Z</time></trkpt><trkpt lat="41.885355" lon="12.7797483"><ele>133.0</ele><time>2026-04-20T06:04:47.319Z</time></trkpt><trkpt lat="41.8854683" lon="12.7795533"><ele>133.0</ele><time>2026-04-20T06:04:48.317Z</time></trkpt><trkpt lat="41.8855833" lon="12.7793617"><ele>133.0</ele><time>2026-04-20T06:04:49.318Z</time></trkpt><trkpt lat="41.8857017" lon="12.7791817"><ele>133.0</ele><time>2026-04-20T06:04:50.319Z</time></trkpt><trkpt lat="41.8858333" lon="12.7790167"><ele>129.66666666666669</ele><time>2026-04-20T06:04:51.318Z</time></trkpt><trkpt lat="41.8859767" lon="12.7788633"><ele>126.33333333333334</ele><time>2026-04-20T06:04:52.319Z</time></trkpt><trkpt lat="41.88613" lon="12.7787217"><ele>123.0</ele><time>2026-04-20T06:04:53.318Z</time></trkpt><trkpt lat="41.8862983" lon="12.7785917"><ele>123.0</ele><time>2026-04-20T06:04:54.319Z</time></trkpt><trkpt lat="41.8864717" lon="12.7784733"><ele>123.0</ele><time>2026-04-20T06:04:55.318Z</time></trkpt><trkpt lat="41.8866483" lon="12.7783583"><ele>123.0</ele><time>2026-04-20T06:04:56.318Z</time></trkpt><trkpt lat="41.886825" lon="12.7782417"><ele>122.0</ele><time>2026-04-20T06:04:57.319Z</time></trkpt><trkpt lat="41.887005" lon="12.7781333"><ele>121.0</ele><time>2026-04-20T06:04:58.318Z</time></trkpt><trkpt lat="41.8871767" lon="12.7780267"><ele>120.0</ele><time>2026-04-20T06:04:59.32Z</time></trkpt><trkpt lat="41.8873367" lon="12.7779217"><ele>120.0</ele><time>2026-04-20T06:05:00.32Z</time></trkpt><trkpt lat="41.8874817" lon="12.7778067"><ele>120.0</ele><time>2026-04-20T06:05:01.32Z</time></trkpt><trkpt lat="41.88761" lon="12.7776633"><ele>120.0</ele><time>2026-04-20T06:05:02.319Z</time></trkpt><trkpt lat="41.88772" lon="12.7774983"><ele>120.33333333333334</ele><time>2026-04-20T06:05:03.319Z</time></trkpt><trkpt lat="41.88782" lon="12.77731"><ele>120.66666666666667</ele><time>2026-04-20T06:05:04.32Z</time></trkpt><trkpt lat="41.88792" lon="12.7771133"><ele>121.0</ele><time>2026-04-20T06:05:05.316Z</time></trkpt><trkpt lat="41.8880283" lon="12.77692"><ele>120.33333333333334</ele><time>2026-04-20T06:05:06.316Z</time></trkpt><trkpt lat="41.888145" lon="12.77673"><ele>119.66666666666666</ele><time>2026-04-20T06:05:07.318Z</time></trkpt><trkpt lat="41.8882683" lon="12.7765467"><ele>119.0</ele><time>2026-04-20T06:05:08.318Z</time></trkpt><trkpt lat="41.8884033" lon="12.7763633"><ele>118.0</ele><time>2026-04-20T06:05:09.318Z</time></trkpt><trkpt lat="41.88854" lon="12.7761833"><ele>117.0</ele><time>2026-04-20T06:05:10.316Z</time></trkpt><trkpt lat="41.8886733" lon="12.776"><ele>116.0</ele><time>2026-04-20T06:05:11.318Z</time></trkpt><trkpt lat="41.88881" lon="12.7758117"><ele>116.0</ele><time>2026-04-20T06:05:12.32Z</time></trkpt><trkpt lat="41.888945" lon="12.7756333"><ele>116.0</ele><time>2026-04-20T06:05:13.319Z</time></trkpt><trkpt lat="41.8890833" lon="12.7754583"><ele>116.0</ele><time>2026-04-20T06:05:14.317Z</time></trkpt><trkpt lat="41.8892267" lon="12.77529"><ele>115.0</ele><time>2026-04-20T06:05:15.32Z</time></trkpt><trkpt lat="41.8893733" lon="12.7751267"><ele>114.0</ele><time>2026-04-20T06:05:16.319Z</time></trkpt><trkpt lat="41.8895183" lon="12.7749683"><ele>113.0</ele><time>2026-04-20T06:05:17.318Z</time></trkpt><trkpt lat="41.8896617" lon="12.7748133"><ele>113.0</ele><time>2026-04-20T06:05:18.317Z</time></trkpt><trkpt lat="41.8898067" lon="12.77466"><ele>113.0</ele><time>2026-04-20T06:05:19.316Z</time></trkpt><trkpt lat="41.8899517" lon="12.7745067"><ele>113.0</ele><time>2026-04-20T06:05:20.317Z</time></trkpt><trkpt lat="41.8900983" lon="12.774365"><ele>113.66666666666666</ele><time>2026-04-20T06:05:21.317Z</time></trkpt><trkpt lat="41.890245" lon="12.7742333"><ele>114.33333333333334</ele><time>2026-04-20T06:05:22.316Z</time></trkpt><trkpt lat="41.8903967" lon="12.77412"><ele>115.0</ele><time>2026-04-20T06:05:23.316Z</time></trkpt><trkpt lat="41.890555" lon="12.774025"><ele>115.0</ele><time>2026-04-20T06:05:24.317Z</time></trkpt><trkpt lat="41.8907183" lon="12.7739433"><ele>115.0</ele><time>2026-04-20T06:05:25.319Z</time></trkpt><trkpt lat="41.8908817" lon="12.7738617"><ele>115.0</ele><time>2026-04-20T06:05:26.317Z</time></trkpt><trkpt lat="41.89105" lon="12.77377"><ele>115.66666666666667</ele><time>2026-04-20T06:05:27.319Z</time></trkpt><trkpt lat="41.891215" lon="12.773675"><ele>116.33333333333334</ele><time>2026-04-20T06:05:28.32Z</time></trkpt><trkpt lat="41.8913717" lon="12.7735733"><ele>117.0</ele><time>2026-04-20T06:05:29.318Z</time></trkpt><trkpt lat="41.8915217" lon="12.7734617"><ele>117.0</ele><time>2026-04-20T06:05:30.317Z</time></trkpt><trkpt lat="41.8916733" lon="12.7733483"><ele>117.0</ele><time>2026-04-20T06:05:31.316Z</time></trkpt><trkpt lat="41.891825" lon="12.7732517"><ele>117.0</ele><time>2026-04-20T06:05:32.316Z</time></trkpt><trkpt lat="41.891975" lon="12.773165"><ele>115.0</ele><time>2026-04-20T06:05:33.317Z</time></trkpt><trkpt lat="41.892135" lon="12.773095"><ele>113.0</ele><time>2026-04-20T06:05:34.316Z</time></trkpt><trkpt lat="41.89231" lon="12.7730533"><ele>111.0</ele><time>2026-04-20T06:05:35.317Z</time></trkpt><trkpt lat="41.8924983" lon="12.773025"><ele>110.66666666666666</ele><time>2026-04-20T06:05:36.316Z</time></trkpt><trkpt lat="41.8926933" lon="12.773"><ele>110.33333333333333</ele><time>2026-04-20T06:05:37.317Z</time></trkpt><trkpt lat="41.8928867" lon="12.772975"><ele>110.0</ele><time>2026-04-20T06:05:38.317Z</time></trkpt><trkpt lat="41.8930767" lon="12.7729567"><ele>110.0</ele><time>2026-04-20T06:05:39.318Z</time></trkpt><trkpt lat="41.893275" lon="12.7729333"><ele>110.0</ele><time>2026-04-20T06:05:40.317Z</time></trkpt><trkpt lat="41.8934783" lon="12.7729183"><ele>110.0</ele><time>2026-04-20T06:05:41.317Z</time></trkpt><trkpt lat="41.8936767" lon="12.7729017"><ele>111.0</ele><time>2026-04-20T06:05:42.32Z</time></trkpt><trkpt lat="41.8938667" lon="12.772885"><ele>112.0</ele><time>2026-04-20T06:05:43.319Z</time></trkpt><trkpt lat="41.8940567" lon="12.7728567"><ele>113.0</ele><time>2026-04-20T06:05:44.32Z</time></trkpt><trkpt lat="41.89424" lon="12.7728317"><ele>117.0</ele><time>2026-04-20T06:05:45.319Z</time></trkpt><trkpt lat="41.8944217" lon="12.7728083"><ele>121.0</ele><time>2026-04-20T06:05:46.319Z</time></trkpt><trkpt lat="41.8945983" lon="12.772765"><ele>125.0</ele><time>2026-04-20T06:05:47.317Z</time></trkpt><trkpt lat="41.8947833" lon="12.77271"><ele>122.66666666666666</ele><time>2026-04-20T06:05:48.316Z</time></trkpt><trkpt lat="41.8949667" lon="12.772645"><ele>120.33333333333334</ele><time>2026-04-20T06:05:49.317Z</time></trkpt><trkpt lat="41.8951467" lon="12.772555"><ele>118.0</ele><time>2026-04-20T06:05:50.32Z</time></trkpt><trkpt lat="41.89532" lon="12.7724483"><ele>118.0</ele><time>2026-04-20T06:05:51.32Z</time></trkpt><trkpt lat="41.8954883" lon="12.7723317"><ele>118.0</ele><time>2026-04-20T06:05:52.318Z</time></trkpt><trkpt lat="41.895655" lon="12.7722083"><ele>118.0</ele><time>2026-04-20T06:05:53.317Z</time></trkpt><trkpt lat="41.895815" lon="12.7720833"><ele>117.0</ele><time>2026-04-20T06:05:54.318Z</time></trkpt><trkpt lat="41.8959767" lon="12.77196"><ele>116.0</ele><time>2026-04-20T06:05:55.317Z</time></trkpt><trkpt lat="41.8961383" lon="12.7718383"><ele>115.0</ele><time>2026-04-20T06:05:56.32Z</time></trkpt><trkpt lat="41.8962983" lon="12.77172"><ele>115.0</ele><time>2026-04-20T06:05:57.319Z</time></trkpt><trkpt lat="41.8964567" lon="12.7715967"><ele>115.0</ele><time>2026-04-20T06:05:58.319Z</time></trkpt><trkpt lat="41.8966183" lon="12.7714767"><ele>115.0</ele><time>2026-04-20T06:05:59.316Z</time></trkpt><trkpt lat="41.8967817" lon="12.7713583"><ele>116.66666666666667</ele><time>2026-04-20T06:06:00.32Z</time></trkpt><trkpt lat="41.8969467" lon="12.77124"><ele>118.33333333333334</ele><time>2026-04-20T06:06:01.318Z</time></trkpt><trkpt lat="41.8971133" lon="12.7711217"><ele>120.0</ele><time>2026-04-20T06:06:02.319Z</time></trkpt><trkpt lat="41.8972833" lon="12.771005"><ele>118.0</ele><time>2026-04-20T06:06:03.318Z</time></trkpt><trkpt lat="41.8974517" lon="12.770885"><ele>116.0</ele><time>2026-04-20T06:06:04.319Z</time></trkpt><trkpt lat="41.8976233" lon="12.7707667"><ele>114.0</ele><time>2026-04-20T06:06:05.319Z</time></trkpt><trkpt lat="41.8977933" lon="12.7706517"><ele>114.0</ele><time>2026-04-20T06:06:06.318Z</time></trkpt><trkpt lat="41.8979683" lon="12.7705383"><ele>114.0</ele><time>2026-04-20T06:06:07.317Z</time></trkpt><trkpt lat="41.8981433" lon="12.7704383"><ele>114.0</ele><time>2026-04-20T06:06:08.319Z</time></trkpt><trkpt lat="41.8983267" lon="12.7703583"><ele>114.33333333333334</ele><time>2026-04-20T06:06:09.316Z</time></trkpt><trkpt lat="41.898515" lon="12.7702933"><ele>114.66666666666667</ele><time>2026-04-20T06:06:10.316Z</time></trkpt><trkpt lat="41.8987083" lon="12.7702317"><ele>115.0</ele><time>2026-04-20T06:06:11.316Z</time></trkpt><trkpt lat="41.898905" lon="12.7701633"><ele>112.33333333333334</ele><time>2026-04-20T06:06:12.32Z</time></trkpt><trkpt lat="41.8990967" lon="12.7700833"><ele>109.66666666666666</ele><time>2026-04-20T06:06:13.319Z</time></trkpt><trkpt lat="41.8992817" lon="12.7699933"><ele>107.0</ele><time>2026-04-20T06:06:14.319Z</time></trkpt><trkpt lat="41.8994617" lon="12.7698933"><ele>106.0</ele><time>2026-04-20T06:06:15.32Z</time></trkpt><trkpt lat="41.89964" lon="12.769785"><ele>105.0</ele><time>2026-04-20T06:06:16.32Z</time></trkpt><trkpt lat="41.8998183" lon="12.769675"><ele>104.0</ele><time>2026-04-20T06:06:17.319Z</time></trkpt><trkpt lat="41.8999967" lon="12.76957"><ele>104.33333333333333</ele><time>2026-04-20T06:06:18.32Z</time></trkpt><trkpt lat="41.90017" lon="12.76946"><ele>104.66666666666666</ele><time>2026-04-20T06:06:19.318Z</time></trkpt><trkpt lat="41.9003467" lon="12.76935"><ele>105.0</ele><time>2026-04-20T06:06:20.32Z</time></trkpt><trkpt lat="41.90052" lon="12.7692383"><ele>105.0</ele><time>2026-04-20T06:06:21.32Z</time></trkpt><trkpt lat="41.900695" lon="12.76913"><ele>105.0</ele><time>2026-04-20T06:06:22.316Z</time></trkpt><trkpt lat="41.90087" lon="12.76902"><ele>105.0</ele><time>2026-04-20T06:06:23.32Z</time></trkpt><trkpt lat="41.901045" lon="12.7689117"><ele>105.33333333333334</ele><time>2026-04-20T06:06:24.318Z</time></trkpt><trkpt lat="41.90122" lon="12.76881"><ele>105.66666666666667</ele><time>2026-04-20T06:06:25.32Z</time></trkpt><trkpt lat="41.9013917" lon="12.768715"><ele>106.0</ele><time>2026-04-20T06:06:26.319Z</time></trkpt><trkpt lat="41.901555" lon="12.7686233"><ele>105.66666666666667</ele><time>2026-04-20T06:06:27.321Z</time></trkpt><trkpt lat="41.9017083" lon="12.7685233"><ele>105.33333333333334</ele><time>2026-04-20T06:06:28.32Z</time></trkpt><trkpt lat="41.9018567" lon="12.7684083"><ele>105.0</ele><time>2026-04-20T06:06:29.318Z</time></trkpt><trkpt lat="41.901995" lon="12.7682783"><ele>105.0</ele><time>2026-04-20T06:06:30.319Z</time></trkpt><trkpt lat="41.90213" lon="12.768135"><ele>105.0</ele><time>2026-04-20T06:06:31.315Z</time></trkpt><trkpt lat="41.9022617" lon="12.767985"><ele>105.0</ele><time>2026-04-20T06:06:32.317Z</time></trkpt><trkpt lat="41.902395" lon="12.767835"><ele>105.33333333333334</ele><time>2026-04-20T06:06:33.317Z</time></trkpt><trkpt lat="41.9025233" lon="12.7676867"><ele>105.66666666666667</ele><time>2026-04-20T06:06:34.317Z</time></trkpt><trkpt lat="41.9026533" lon="12.7675433"><ele>106.0</ele><time>2026-04-20T06:06:35.318Z</time></trkpt><trkpt lat="41.9027833" lon="12.7674033"><ele>106.0</ele><time>2026-04-20T06:06:36.316Z</time></trkpt><trkpt lat="41.902915" lon="12.76726"><ele>106.0</ele><time>2026-04-20T06:06:37.317Z</time></trkpt><trkpt lat="41.9030483" lon="12.7671183"><ele>106.0</ele><time>2026-04-20T06:06:38.316Z</time></trkpt><trkpt lat="41.9031833" lon="12.7669733"><ele>106.0</ele><time>2026-04-20T06:06:39.316Z</time></trkpt><trkpt lat="41.903315" lon="12.7668233"><ele>106.0</ele><time>2026-04-20T06:06:40.32Z</time></trkpt><trkpt lat="41.9034483" lon="12.7666767"><ele>106.0</ele><time>2026-04-20T06:06:41.317Z</time></trkpt><trkpt lat="41.9035833" lon="12.7665267"><ele>106.0</ele><time>2026-04-20T06:06:42.318Z</time></trkpt><trkpt lat="41.9037283" lon="12.766375"><ele>106.0</ele><time>2026-04-20T06:06:43.318Z</time></trkpt><trkpt lat="41.90388" lon="12.7662233"><ele>106.0</ele><time>2026-04-20T06:06:44.319Z</time></trkpt><trkpt lat="41.9040383" lon="12.7660733"><ele>105.0</ele><time>2026-04-20T06:06:45.319Z</time></trkpt><trkpt lat="41.9042033" lon="12.7659217"><ele>104.0</ele><time>2026-04-20T06:06:46.319Z</time></trkpt><trkpt lat="41.90437" lon="12.7657717"><ele>103.0</ele><time>2026-04-20T06:06:47.318Z</time></trkpt><trkpt lat="41.904535" lon="12.76562"><ele>103.0</ele><time>2026-04-20T06:06:48.32Z</time></trkpt><trkpt lat="41.9046983" lon="12.7654667"><ele>103.0</ele><time>2026-04-20T06:06:49.319Z</time></trkpt><trkpt lat="41.9048633" lon="12.7653217"><ele>103.0</ele><time>2026-04-20T06:06:50.318Z</time></trkpt><trkpt lat="41.9050283" lon="12.7651767"><ele>102.33333333333334</ele><time>2026-04-20T06:06:51.32Z</time></trkpt><trkpt lat="41.9051867" lon="12.7650333"><ele>101.66666666666666</ele><time>2026-04-20T06:06:52.318Z</time></trkpt><trkpt lat="41.905345" lon="12.7648983"><ele>101.0</ele><time>2026-04-20T06:06:53.318Z</time></trkpt><trkpt lat="41.9054983" lon="12.7647633"><ele>101.0</ele><time>2026-04-20T06:06:54.318Z</time></trkpt><trkpt lat="41.905645" lon="12.7646317"><ele>101.0</ele><time>2026-04-20T06:06:55.319Z</time></trkpt><trkpt lat="41.9057817" lon="12.7645"><ele>101.0</ele><time>2026-04-20T06:06:56.318Z</time></trkpt><trkpt lat="41.9059083" lon="12.76437"><ele>102.25</ele><time>2026-04-20T06:06:57.319Z</time></trkpt><trkpt lat="41.906025" lon="12.7642433"><ele>103.5</ele><time>2026-04-20T06:06:58.319Z</time></trkpt><trkpt lat="41.906135" lon="12.76412"><ele>104.75</ele><time>2026-04-20T06:06:59.318Z</time></trkpt><trkpt lat="41.9062417" lon="12.764"><ele>106.0</ele><time>2026-04-20T06:07:00.317Z</time></trkpt><trkpt lat="41.9063483" lon="12.7638783"><ele>106.0</ele><time>2026-04-20T06:07:01.316Z</time></trkpt><trkpt lat="41.9064567" lon="12.7637483"><ele>106.0</ele><time>2026-04-20T06:07:02.316Z</time></trkpt><trkpt lat="41.9065633" lon="12.7636083"><ele>106.0</ele><time>2026-04-20T06:07:03.317Z</time></trkpt><trkpt lat="41.9066667" lon="12.7634567"><ele>106.0</ele><time>2026-04-20T06:07:04.317Z</time></trkpt><trkpt lat="41.9067717" lon="12.763295"><ele>105.33333333333334</ele><time>2026-04-20T06:07:05.317Z</time></trkpt><trkpt lat="41.9068783" lon="12.7631267"><ele>104.66666666666666</ele><time>2026-04-20T06:07:06.316Z</time></trkpt><trkpt lat="41.9069967" lon="12.7629717"><ele>104.0</ele><time>2026-04-20T06:07:07.316Z</time></trkpt><trkpt lat="41.9071283" lon="12.762835"><ele>104.0</ele><time>2026-04-20T06:07:08.317Z</time></trkpt><trkpt lat="41.9072733" lon="12.762725"><ele>104.0</ele><time>2026-04-20T06:07:09.317Z</time></trkpt><trkpt lat="41.9074167" lon="12.7626367"><ele>104.0</ele><time>2026-04-20T06:07:10.315Z</time></trkpt><trkpt lat="41.9075533" lon="12.7625633"><ele>101.25</ele><time>2026-04-20T06:07:11.319Z</time></trkpt><trkpt lat="41.907685" lon="12.762495"><ele>98.5</ele><time>2026-04-20T06:07:12.319Z</time></trkpt><trkpt lat="41.9078083" lon="12.7624283"><ele>95.75</ele><time>2026-04-20T06:07:13.319Z</time></trkpt><trkpt lat="41.9079333" lon="12.7623633"><ele>93.0</ele><time>2026-04-20T06:07:14.319Z</time></trkpt><trkpt lat="41.9080567" lon="12.7623067"><ele>93.0</ele><time>2026-04-20T06:07:15.319Z</time></trkpt><trkpt lat="41.908185" lon="12.76226"><ele>93.0</ele><time>2026-04-20T06:07:16.319Z</time></trkpt><trkpt lat="41.9083267" lon="12.76224"><ele>93.0</ele><time>2026-04-20T06:07:17.319Z</time></trkpt><trkpt lat="41.9084733" lon="12.7622617"><ele>93.0</ele><time>2026-04-20T06:07:18.318Z</time></trkpt><trkpt lat="41.9086167" lon="12.7623167"><ele>91.5</ele><time>2026-04-20T06:07:19.319Z</time></trkpt><trkpt lat="41.908755" lon="12.7623683"><ele>90.0</ele><time>2026-04-20T06:07:20.319Z</time></trkpt><trkpt lat="41.9088933" lon="12.7624017"><ele>88.5</ele><time>2026-04-20T06:07:21.32Z</time></trkpt><trkpt lat="41.90903" lon="12.76242"><ele>87.0</ele><time>2026-04-20T06:07:22.32Z</time></trkpt><trkpt lat="41.9091683" lon="12.7624183"><ele>86.33333333333333</ele><time>2026-04-20T06:07:23.317Z</time></trkpt><trkpt lat="41.9093083" lon="12.762405"><ele>85.66666666666666</ele><time>2026-04-20T06:07:24.317Z</time></trkpt><trkpt lat="41.9094567" lon="12.762385"><ele>85.0</ele><time>2026-04-20T06:07:25.32Z</time></trkpt><trkpt lat="41.90962" lon="12.7623517"><ele>85.0</ele><time>2026-04-20T06:07:26.318Z</time></trkpt><trkpt lat="41.90979" lon="12.7623133"><ele>85.0</ele><time>2026-04-20T06:07:27.32Z</time></trkpt><trkpt lat="41.9099583" lon="12.762265"><ele>85.0</ele><time>2026-04-20T06:07:28.318Z</time></trkpt><trkpt lat="41.9101267" lon="12.76221"><ele>87.66666666666666</ele><time>2026-04-20T06:07:29.317Z</time></trkpt><trkpt lat="41.9102933" lon="12.7621517"><ele>90.33333333333333</ele><time>2026-04-20T06:07:30.317Z</time></trkpt><trkpt lat="41.9104533" lon="12.7620917"><ele>93.0</ele><time>2026-04-20T06:07:31.316Z</time></trkpt><trkpt lat="41.9106033" lon="12.7620333"><ele>93.0</ele><time>2026-04-20T06:07:32.32Z</time></trkpt><trkpt lat="41.91075" lon="12.761965"><ele>93.0</ele><time>2026-04-20T06:07:33.317Z</time></trkpt><trkpt lat="41.9108933" lon="12.761895"><ele>93.0</ele><time>2026-04-20T06:07:34.316Z</time></trkpt><trkpt lat="41.9110267" lon="12.7618183"><ele>91.0</ele><time>2026-04-20T06:07:35.32Z</time></trkpt><trkpt lat="41.9111617" lon="12.7617567"><ele>89.0</ele><time>2026-04-20T06:07:36.319Z</time></trkpt><trkpt lat="41.911295" lon="12.7617033"><ele>87.0</ele><time>2026-04-20T06:07:37.319Z</time></trkpt><trkpt lat="41.9114367" lon="12.7616683"><ele>85.0</ele><time>2026-04-20T06:07:38.319Z</time></trkpt><trkpt lat="41.9115883" lon="12.7616383"><ele>85.0</ele><time>2026-04-20T06:07:39.317Z</time></trkpt><trkpt lat="41.9117317" lon="12.7616067"><ele>85.0</ele><time>2026-04-20T06:07:40.318Z</time></trkpt><trkpt lat="41.9118783" lon="12.7615667"><ele>85.0</ele><time>2026-04-20T06:07:41.319Z</time></trkpt><trkpt lat="41.9120283" lon="12.7615267"><ele>85.0</ele><time>2026-04-20T06:07:42.317Z</time></trkpt><trkpt lat="41.9121767" lon="12.7614767"><ele>86.0</ele><time>2026-04-20T06:07:43.32Z</time></trkpt><trkpt lat="41.9123233" lon="12.761425"><ele>87.0</ele><time>2026-04-20T06:07:44.316Z</time></trkpt><trkpt lat="41.9124617" lon="12.7613767"><ele>88.0</ele><time>2026-04-20T06:07:45.318Z</time></trkpt><trkpt lat="41.9125983" lon="12.7613217"><ele>89.0</ele><time>2026-04-20T06:07:46.319Z</time></trkpt><trkpt lat="41.91273" lon="12.7612533"><ele>89.0</ele><time>2026-04-20T06:07:47.319Z</time></trkpt><trkpt lat="41.9128567" lon="12.761185"><ele>89.0</ele><time>2026-04-20T06:07:48.319Z</time></trkpt><trkpt lat="41.9129867" lon="12.76112"><ele>89.0</ele><time>2026-04-20T06:07:49.315Z</time></trkpt><trkpt lat="41.9131317" lon="12.7610617"><ele>89.0</ele><time>2026-04-20T06:07:50.319Z</time></trkpt><trkpt lat="41.913285" lon="12.76101"><ele>84.0</ele><time>2026-04-20T06:07:51.32Z</time></trkpt><trkpt lat="41.91345" lon="12.7609533"><ele>79.0</ele><time>2026-04-20T06:07:52.318Z</time></trkpt><trkpt lat="41.91362" lon="12.76088"><ele>74.0</ele><time>2026-04-20T06:07:53.319Z</time></trkpt><trkpt lat="41.9137833" lon="12.7607817"><ele>74.0</ele><time>2026-04-20T06:07:54.318Z</time></trkpt><trkpt lat="41.9139367" lon="12.7606717"><ele>74.0</ele><time>2026-04-20T06:07:55.318Z</time></trkpt><trkpt lat="41.9140817" lon="12.7605567"><ele>74.0</ele><time>2026-04-20T06:07:56.319Z</time></trkpt><trkpt lat="41.9142233" lon="12.760435"><ele>72.66666666666667</ele><time>2026-04-20T06:07:57.319Z</time></trkpt><trkpt lat="41.9143667" lon="12.760305"><ele>71.33333333333333</ele><time>2026-04-20T06:07:58.318Z</time></trkpt><trkpt lat="41.9145067" lon="12.7601783"><ele>70.0</ele><time>2026-04-20T06:07:59.318Z</time></trkpt><trkpt lat="41.914645" lon="12.7600583"><ele>70.0</ele><time>2026-04-20T06:08:00.319Z</time></trkpt><trkpt lat="41.9147783" lon="12.759935"><ele>70.0</ele><time>2026-04-20T06:08:01.318Z</time></trkpt><trkpt lat="41.9149183" lon="12.7598183"><ele>70.0</ele><time>2026-04-20T06:08:02.319Z</time></trkpt><trkpt lat="41.915065" lon="12.75971"><ele>70.66666666666666</ele><time>2026-04-20T06:08:03.32Z</time></trkpt><trkpt lat="41.9152183" lon="12.75961"><ele>71.33333333333333</ele><time>2026-04-20T06:08:04.319Z</time></trkpt><trkpt lat="41.915375" lon="12.7595133"><ele>72.0</ele><time>2026-04-20T06:08:05.319Z</time></trkpt><trkpt lat="41.9155333" lon="12.7594167"><ele>68.0</ele><time>2026-04-20T06:08:06.319Z</time></trkpt><trkpt lat="41.91569" lon="12.7593217"><ele>64.0</ele><time>2026-04-20T06:08:07.319Z</time></trkpt><trkpt lat="41.9158483" lon="12.7592233"><ele>60.0</ele><time>2026-04-20T06:08:08.319Z</time></trkpt><trkpt lat="41.9160033" lon="12.7591233"><ele>59.66666666666667</ele><time>2026-04-20T06:08:09.319Z</time></trkpt><trkpt lat="41.916165" lon="12.7590233"><ele>59.333333333333336</ele><time>2026-04-20T06:08:10.319Z</time></trkpt><trkpt lat="41.9163217" lon="12.7589217"><ele>59.0</ele><time>2026-04-20T06:08:11.318Z</time></trkpt><trkpt lat="41.9164867" lon="12.758825"><ele>59.0</ele><time>2026-04-20T06:08:12.319Z</time></trkpt><trkpt lat="41.916645" lon="12.7587283"><ele>59.0</ele><time>2026-04-20T06:08:13.319Z</time></trkpt><trkpt lat="41.9167967" lon="12.7586367"><ele>59.0</ele><time>2026-04-20T06:08:14.319Z</time></trkpt><trkpt lat="41.916945" lon="12.7585383"><ele>58.0</ele><time>2026-04-20T06:08:15.319Z</time></trkpt><trkpt lat="41.9170933" lon="12.758435"><ele>57.0</ele><time>2026-04-20T06:08:16.318Z</time></trkpt><trkpt lat="41.917245" lon="12.758325"><ele>56.0</ele><time>2026-04-20T06:08:17.316Z</time></trkpt><trkpt lat="41.917395" lon="12.75821"><ele>56.0</ele><time>2026-04-20T06:08:18.32Z</time></trkpt><trkpt lat="41.917545" lon="12.7580967"><ele>56.0</ele><time>2026-04-20T06:08:19.319Z</time></trkpt><trkpt lat="41.9176917" lon="12.757985"><ele>56.0</ele><time>2026-04-20T06:08:20.319Z</time></trkpt><trkpt lat="41.9178317" lon="12.7578717"><ele>55.66666666666667</ele><time>2026-04-20T06:08:21.317Z</time></trkpt><trkpt lat="41.9179717" lon="12.7577567"><ele>55.33333333333333</ele><time>2026-04-20T06:08:22.319Z</time></trkpt><trkpt lat="41.9181167" lon="12.7576483"><ele>55.0</ele><time>2026-04-20T06:08:23.319Z</time></trkpt><trkpt lat="41.9182633" lon="12.7575383"><ele>55.0</ele><time>2026-04-20T06:08:24.319Z</time></trkpt><trkpt lat="41.918415" lon="12.7574283"><ele>55.0</ele><time>2026-04-20T06:08:25.316Z</time></trkpt><trkpt lat="41.91857" lon="12.7573167"><ele>55.0</ele><time>2026-04-20T06:08:26.316Z</time></trkpt><trkpt lat="41.91872" lon="12.7572033"><ele>55.0</ele><time>2026-04-20T06:08:27.317Z</time></trkpt><trkpt lat="41.918865" lon="12.7571017"><ele>55.0</ele><time>2026-04-20T06:08:28.319Z</time></trkpt><trkpt lat="41.9190067" lon="12.75701"><ele>55.0</ele><time>2026-04-20T06:08:29.317Z</time></trkpt><trkpt lat="41.9191383" lon="12.7569317"><ele>54.25</ele><time>2026-04-20T06:08:30.317Z</time></trkpt><trkpt lat="41.9192583" lon="12.756865"><ele>53.5</ele><time>2026-04-20T06:08:31.318Z</time></trkpt><trkpt lat="41.9193667" lon="12.7567983"><ele>52.75</ele><time>2026-04-20T06:08:32.32Z</time></trkpt><trkpt lat="41.91947" lon="12.7567267"><ele>52.0</ele><time>2026-04-20T06:08:33.316Z</time></trkpt><trkpt lat="41.919565" lon="12.756655"><ele>52.0</ele><time>2026-04-20T06:08:34.315Z</time></trkpt><trkpt lat="41.9196483" lon="12.7565817"><ele>52.0</ele><time>2026-04-20T06:08:35.316Z</time></trkpt><trkpt lat="41.9197317" lon="12.75651"><ele>52.0</ele><time>2026-04-20T06:08:36.316Z</time></trkpt><trkpt lat="41.919805" lon="12.75644"><ele>52.0</ele><time>2026-04-20T06:08:37.32Z</time></trkpt><trkpt lat="41.9198767" lon="12.7563817"><ele>52.0</ele><time>2026-04-20T06:08:38.316Z</time></trkpt><trkpt lat="41.919945" lon="12.7563267"><ele>51.99999999999999</ele><time>2026-04-20T06:08:39.317Z</time></trkpt><trkpt lat="41.9200067" lon="12.756275"><ele>52.0</ele><time>2026-04-20T06:08:40.319Z</time></trkpt><trkpt lat="41.9200633" lon="12.7562183"><ele>52.0</ele><time>2026-04-20T06:08:41.317Z</time></trkpt><trkpt lat="41.9201267" lon="12.7561583"><ele>52.0</ele><time>2026-04-20T06:08:42.32Z</time></trkpt><trkpt lat="41.9201967" lon="12.7560967"><ele>51.99999999999999</ele><time>2026-04-20T06:08:43.32Z</time></trkpt><trkpt lat="41.9202717" lon="12.7560333"><ele>52.0</ele><time>2026-04-20T06:08:44.319Z</time></trkpt><trkpt lat="41.9203517" lon="12.7559717"><ele>52.49999999999999</ele><time>2026-04-20T06:08:45.32Z</time></trkpt><trkpt lat="41.920425" lon="12.7559167"><ele>53.0</ele><time>2026-04-20T06:08:46.318Z</time></trkpt><trkpt lat="41.9204933" lon="12.7558567"><ele>53.5</ele><time>2026-04-20T06:08:47.317Z</time></trkpt><trkpt lat="41.9205633" lon="12.75579"><ele>54.0</ele><time>2026-04-20T06:08:48.32Z</time></trkpt><trkpt lat="41.9206283" lon="12.7557217"><ele>54.49999999999999</ele><time>2026-04-20T06:08:49.318Z</time></trkpt><trkpt lat="41.9206833" lon="12.7556617"><ele>55.0</ele><time>2026-04-20T06:08:50.319Z</time></trkpt><trkpt lat="41.9207583" lon="12.755575"><ele>55.0</ele><time>2026-04-20T06:08:52.319Z</time></trkpt><trkpt lat="41.9208317" lon="12.7555"><ele>55.0</ele><time>2026-04-20T06:08:59.317Z</time></trkpt><trkpt lat="41.9209067" lon="12.7554067"><ele>55.0</ele><time>2026-04-20T06:09:02.317Z</time></trkpt><trkpt lat="41.9209683" lon="12.75526"><ele>55.0</ele><time>2026-04-20T06:09:04.316Z</time></trkpt><trkpt lat="41.920995" lon="12.755165"><ele>55.0</ele><time>2026-04-20T06:09:05.317Z</time></trkpt><trkpt lat="41.9210233" lon="12.7550617"><ele>54.8</ele><time>2026-04-20T06:09:06.316Z</time></trkpt><trkpt lat="41.9210567" lon="12.7549417"><ele>54.6</ele><time>2026-04-20T06:09:07.316Z</time></trkpt><trkpt lat="41.921095" lon="12.7548117"><ele>54.400000000000006</ele><time>2026-04-20T06:09:08.316Z</time></trkpt><trkpt lat="41.9211333" lon="12.75467"><ele>54.2</ele><time>2026-04-20T06:09:09.317Z</time></trkpt><trkpt lat="41.9211783" lon="12.7545267"><ele>54.0</ele><time>2026-04-20T06:09:10.316Z</time></trkpt><trkpt lat="41.9212233" lon="12.75437"><ele>54.0</ele><time>2026-04-20T06:09:11.316Z</time></trkpt><trkpt lat="41.9212683" lon="12.75421"><ele>54.0</ele><time>2026-04-20T06:09:12.317Z</time></trkpt><trkpt lat="41.9213167" lon="12.75405"><ele>54.0</ele><time>2026-04-20T06:09:13.316Z</time></trkpt><trkpt lat="41.92136" lon="12.7539"><ele>54.0</ele><time>2026-04-20T06:09:14.316Z</time></trkpt><trkpt lat="41.9213983" lon="12.75377"><ele>54.0</ele><time>2026-04-20T06:09:15.318Z</time></trkpt><trkpt lat="41.9214267" lon="12.7536667"><ele>54.0</ele><time>2026-04-20T06:09:16.315Z</time></trkpt><trkpt lat="41.9214633" lon="12.7535217"><ele>54.0</ele><time>2026-04-20T06:09:18.316Z</time></trkpt><trkpt lat="41.9214933" lon="12.7534167"><ele>54.0</ele><time>2026-04-20T06:09:20.319Z</time></trkpt><trkpt lat="41.9215317" lon="12.7533283"><ele>54.0</ele><time>2026-04-20T06:09:22.317Z</time></trkpt><trkpt lat="41.9215783" lon="12.75327"><ele>54.0</ele><time>2026-04-20T06:09:24.316Z</time></trkpt><trkpt lat="41.921685" lon="12.753275"><ele>54.0</ele><time>2026-04-20T06:09:32.316Z</time></trkpt><trkpt lat="41.9217767" lon="12.7533233"><ele>54.00000000000001</ele><time>2026-04-20T06:09:35.316Z</time></trkpt><trkpt lat="41.921885" lon="12.7534217"><ele>54.00000000000001</ele><time>2026-04-20T06:09:37.317Z</time></trkpt><trkpt lat="41.921945" lon="12.7534883"><ele>54.0</ele><time>2026-04-20T06:09:38.316Z</time></trkpt><trkpt lat="41.9220117" lon="12.7535567"><ele>54.0</ele><time>2026-04-20T06:09:39.318Z</time></trkpt><trkpt lat="41.9220817" lon="12.7536233"><ele>54.800000000000004</ele><time>2026-04-20T06:09:40.316Z</time></trkpt><trkpt lat="41.9221583" lon="12.7537033"><ele>55.60000000000001</ele><time>2026-04-20T06:09:41.316Z</time></trkpt><trkpt lat="41.9222533" lon="12.7537883"><ele>56.4</ele><time>2026-04-20T06:09:42.318Z</time></trkpt><trkpt lat="41.9223467" lon="12.7538767"><ele>57.2</ele><time>2026-04-20T06:09:43.315Z</time></trkpt><trkpt lat="41.9224417" lon="12.75397"><ele>58.0</ele><time>2026-04-20T06:09:44.317Z</time></trkpt><trkpt lat="41.9225383" lon="12.75407"><ele>59.75</ele><time>2026-04-20T06:09:45.321Z</time></trkpt><trkpt lat="41.9226283" lon="12.7541667"><ele>61.5</ele><time>2026-04-20T06:09:46.319Z</time></trkpt><trkpt lat="41.9227283" lon="12.754265"><ele>63.25</ele><time>2026-04-20T06:09:47.319Z</time></trkpt><trkpt lat="41.9228283" lon="12.754365"><ele>65.0</ele><time>2026-04-20T06:09:48.316Z</time></trkpt><trkpt lat="41.92293" lon="12.7544717"><ele>66.0</ele><time>2026-04-20T06:09:49.315Z</time></trkpt><trkpt lat="41.9230333" lon="12.7545767"><ele>67.0</ele><time>2026-04-20T06:09:50.316Z</time></trkpt><trkpt lat="41.9231333" lon="12.7546733"><ele>68.0</ele><time>2026-04-20T06:09:51.315Z</time></trkpt><trkpt lat="41.9232217" lon="12.754755"><ele>69.0</ele><time>2026-04-20T06:09:52.315Z</time></trkpt><trkpt lat="41.9232983" lon="12.7548267"><ele>69.0</ele><time>2026-04-20T06:09:53.316Z</time></trkpt><trkpt lat="41.9233683" lon="12.7548867"><ele>69.0</ele><time>2026-04-20T06:09:54.316Z</time></trkpt><trkpt lat="41.92343" lon="12.75494"><ele>69.0</ele><time>2026-04-20T06:09:55.316Z</time></trkpt><trkpt lat="41.923525" lon="12.7550283"><ele>69.0</ele><time>2026-04-20T06:09:57.317Z</time></trkpt><trkpt lat="41.9236133" lon="12.75512"><ele>69.0</ele><time>2026-04-20T06:09:59.315Z</time></trkpt><trkpt lat="41.9236667" lon="12.7551717"><ele>69.0</ele><time>2026-04-20T06:10:00.317Z</time></trkpt><trkpt lat="41.9237217" lon="12.7552283"><ele>71.0</ele><time>2026-04-20T06:10:01.315Z</time></trkpt><trkpt lat="41.92378" lon="12.755285"><ele>73.0</ele><time>2026-04-20T06:10:02.317Z</time></trkpt><trkpt lat="41.9238417" lon="12.7553433"><ele>75.0</ele><time>2026-04-20T06:10:03.317Z</time></trkpt><trkpt lat="41.9239083" lon="12.7554067"><ele>77.0</ele><time>2026-04-20T06:10:04.316Z</time></trkpt><trkpt lat="41.9239783" lon="12.755475"><ele>79.0</ele><time>2026-04-20T06:10:05.317Z</time></trkpt><trkpt lat="41.9240517" lon="12.7555467"><ele>81.0</ele><time>2026-04-20T06:10:06.315Z</time></trkpt><trkpt lat="41.9241283" lon="12.7556167"><ele>81.0</ele><time>2026-04-20T06:10:07.316Z</time></trkpt><trkpt lat="41.92421" lon="12.7556883"><ele>81.0</ele><time>2026-04-20T06:10:08.317Z</time></trkpt><trkpt lat="41.9242983" lon="12.7557583"><ele>81.0</ele><time>2026-04-20T06:10:09.316Z</time></trkpt><trkpt lat="41.924395" lon="12.755825"><ele>81.0</ele><time>2026-04-20T06:10:10.316Z</time></trkpt><trkpt lat="41.92449" lon="12.755885"><ele>81.0</ele><time>2026-04-20T06:10:11.319Z</time></trkpt><trkpt lat="41.924585" lon="12.75593"><ele>81.4</ele><time>2026-04-20T06:10:12.319Z</time></trkpt><trkpt lat="41.9246817" lon="12.7559417"><ele>81.8</ele><time>2026-04-20T06:10:13.319Z</time></trkpt><trkpt lat="41.9247833" lon="12.7559233"><ele>82.2</ele><time>2026-04-20T06:10:14.319Z</time></trkpt><trkpt lat="41.9248917" lon="12.7558933"><ele>82.60000000000001</ele><time>2026-04-20T06:10:15.317Z</time></trkpt><trkpt lat="41.924995" lon="12.75583"><ele>83.0</ele><time>2026-04-20T06:10:16.319Z</time></trkpt><trkpt lat="41.9250983" lon="12.75575"><ele>83.0</ele><time>2026-04-20T06:10:17.319Z</time></trkpt><trkpt lat="41.925205" lon="12.755665"><ele>83.0</ele><time>2026-04-20T06:10:18.316Z</time></trkpt><trkpt lat="41.925305" lon="12.7555833"><ele>83.0</ele><time>2026-04-20T06:10:19.316Z</time></trkpt><trkpt lat="41.9253983" lon="12.7555033"><ele>83.0</ele><time>2026-04-20T06:10:20.317Z</time></trkpt><trkpt lat="41.9254933" lon="12.7554233"><ele>83.0</ele><time>2026-04-20T06:10:21.316Z</time></trkpt><trkpt lat="41.9255967" lon="12.7553483"><ele>83.0</ele><time>2026-04-20T06:10:22.316Z</time></trkpt><trkpt lat="41.9257083" lon="12.7552733"><ele>83.0</ele><time>2026-04-20T06:10:23.316Z</time></trkpt><trkpt lat="41.9258267" lon="12.7552"><ele>83.0</ele><time>2026-04-20T06:10:24.315Z</time></trkpt><trkpt lat="41.9259417" lon="12.7551233"><ele>81.25</ele><time>2026-04-20T06:10:25.32Z</time></trkpt><trkpt lat="41.9260567" lon="12.7550567"><ele>79.5</ele><time>2026-04-20T06:10:26.319Z</time></trkpt><trkpt lat="41.92618" lon="12.7549983"><ele>77.75</ele><time>2026-04-20T06:10:27.32Z</time></trkpt><trkpt lat="41.9263067" lon="12.7549317"><ele>76.0</ele><time>2026-04-20T06:10:28.32Z</time></trkpt><trkpt lat="41.9264283" lon="12.7548767"><ele>76.0</ele><time>2026-04-20T06:10:29.317Z</time></trkpt><trkpt lat="41.9265483" lon="12.75482"><ele>76.0</ele><time>2026-04-20T06:10:30.321Z</time></trkpt><trkpt lat="41.9266733" lon="12.754765"><ele>76.0</ele><time>2026-04-20T06:10:31.319Z</time></trkpt><trkpt lat="41.9268" lon="12.7547033"><ele>76.0</ele><time>2026-04-20T06:10:32.319Z</time></trkpt><trkpt lat="41.92693" lon="12.7546333"><ele>75.75</ele><time>2026-04-20T06:10:33.318Z</time></trkpt><trkpt lat="41.927055" lon="12.7545667"><ele>75.5</ele><time>2026-04-20T06:10:34.316Z</time></trkpt><trkpt lat="41.9271783" lon="12.7545017"><ele>75.25</ele><time>2026-04-20T06:10:35.32Z</time></trkpt><trkpt lat="41.9273017" lon="12.75444"><ele>75.0</ele><time>2026-04-20T06:10:36.32Z</time></trkpt><trkpt lat="41.9274283" lon="12.7543817"><ele>74.75</ele><time>2026-04-20T06:10:37.32Z</time></trkpt><trkpt lat="41.9275483" lon="12.7543167"><ele>74.5</ele><time>2026-04-20T06:10:38.319Z</time></trkpt><trkpt lat="41.92767" lon="12.754255"><ele>74.25</ele><time>2026-04-20T06:10:39.318Z</time></trkpt><trkpt lat="41.9277933" lon="12.7542"><ele>74.0</ele><time>2026-04-20T06:10:40.316Z</time></trkpt><trkpt lat="41.927915" lon="12.75414"><ele>71.75</ele><time>2026-04-20T06:10:41.317Z</time></trkpt><trkpt lat="41.9280417" lon="12.7541083"><ele>69.5</ele><time>2026-04-20T06:10:42.317Z</time></trkpt><trkpt lat="41.92817" lon="12.7541183"><ele>67.25</ele><time>2026-04-20T06:10:43.32Z</time></trkpt><trkpt lat="41.9282983" lon="12.7541483"><ele>65.0</ele><time>2026-04-20T06:10:44.32Z</time></trkpt><trkpt lat="41.928425" lon="12.75421"><ele>64.75</ele><time>2026-04-20T06:10:45.32Z</time></trkpt><trkpt lat="41.9285467" lon="12.7542783"><ele>64.5</ele><time>2026-04-20T06:10:46.319Z</time></trkpt><trkpt lat="41.9286683" lon="12.7543517"><ele>64.25</ele><time>2026-04-20T06:10:47.319Z</time></trkpt><trkpt lat="41.928795" lon="12.7544283"><ele>64.0</ele><time>2026-04-20T06:10:48.318Z</time></trkpt><trkpt lat="41.9289233" lon="12.754505"><ele>63.0</ele><time>2026-04-20T06:10:49.319Z</time></trkpt><trkpt lat="41.929055" lon="12.754585"><ele>62.0</ele><time>2026-04-20T06:10:50.318Z</time></trkpt><trkpt lat="41.92919" lon="12.754665"><ele>61.0</ele><time>2026-04-20T06:10:51.319Z</time></trkpt><trkpt lat="41.9293267" lon="12.75475"><ele>60.0</ele><time>2026-04-20T06:10:52.318Z</time></trkpt><trkpt lat="41.9294617" lon="12.754835"><ele>60.0</ele><time>2026-04-20T06:10:53.319Z</time></trkpt><trkpt lat="41.92959" lon="12.75492"><ele>60.0</ele><time>2026-04-20T06:10:54.318Z</time></trkpt><trkpt lat="41.929715" lon="12.7549933"><ele>60.0</ele><time>2026-04-20T06:10:55.317Z</time></trkpt><trkpt lat="41.92984" lon="12.7550367"><ele>60.0</ele><time>2026-04-20T06:10:56.32Z</time></trkpt><trkpt lat="41.92997" lon="12.7550583"><ele>59.75</ele><time>2026-04-20T06:10:57.317Z</time></trkpt><trkpt lat="41.9301033" lon="12.7550483"><ele>59.5</ele><time>2026-04-20T06:10:58.317Z</time></trkpt><trkpt lat="41.9302383" lon="12.7550167"><ele>59.25</ele><time>2026-04-20T06:10:59.319Z</time></trkpt><trkpt lat="41.9303683" lon="12.7549783"><ele>59.0</ele><time>2026-04-20T06:11:00.317Z</time></trkpt><trkpt lat="41.930495" lon="12.7549267"><ele>59.0</ele><time>2026-04-20T06:11:01.32Z</time></trkpt><trkpt lat="41.9306117" lon="12.754865"><ele>59.0</ele><time>2026-04-20T06:11:02.32Z</time></trkpt><trkpt lat="41.9307183" lon="12.7547967"><ele>59.0</ele><time>2026-04-20T06:11:03.317Z</time></trkpt><trkpt lat="41.9308183" lon="12.7547217"><ele>59.0</ele><time>2026-04-20T06:11:04.316Z</time></trkpt><trkpt lat="41.9309233" lon="12.7546417"><ele>58.75</ele><time>2026-04-20T06:11:05.316Z</time></trkpt><trkpt lat="41.93103" lon="12.7545633"><ele>58.5</ele><time>2026-04-20T06:11:06.317Z</time></trkpt><trkpt lat="41.931135" lon="12.7544933"><ele>58.25</ele><time>2026-04-20T06:11:07.316Z</time></trkpt><trkpt lat="41.931235" lon="12.7544367"><ele>58.0</ele><time>2026-04-20T06:11:08.318Z</time></trkpt><trkpt lat="41.9313333" lon="12.754385"><ele>57.599999999999994</ele><time>2026-04-20T06:11:09.317Z</time></trkpt><trkpt lat="41.9314367" lon="12.7543433"><ele>57.199999999999996</ele><time>2026-04-20T06:11:10.316Z</time></trkpt><trkpt lat="41.9315433" lon="12.7543267"><ele>56.8</ele><time>2026-04-20T06:11:11.317Z</time></trkpt><trkpt lat="41.9316517" lon="12.7543283"><ele>56.4</ele><time>2026-04-20T06:11:12.317Z</time></trkpt><trkpt lat="41.9317583" lon="12.754355"><ele>56.0</ele><time>2026-04-20T06:11:13.319Z</time></trkpt><trkpt lat="41.931855" lon="12.7543983"><ele>56.00000000000001</ele><time>2026-04-20T06:11:14.32Z</time></trkpt><trkpt lat="41.9319383" lon="12.7544467"><ele>56.0</ele><time>2026-04-20T06:11:15.32Z</time></trkpt><trkpt lat="41.932015" lon="12.7544983"><ele>56.0</ele><time>2026-04-20T06:11:16.32Z</time></trkpt><trkpt lat="41.9321" lon="12.754555"><ele>56.0</ele><time>2026-04-20T06:11:18.318Z</time></trkpt><trkpt lat="41.932165" lon="12.7546033"><ele>56.00000000000001</ele><time>2026-04-20T06:11:21.317Z</time></trkpt><trkpt lat="41.9322317" lon="12.7546467"><ele>56.0</ele><time>2026-04-20T06:11:23.318Z</time></trkpt><trkpt lat="41.9323317" lon="12.7547067"><ele>56.0</ele><time>2026-04-20T06:11:25.317Z</time></trkpt><trkpt lat="41.9323917" lon="12.7547433"><ele>56.0</ele><time>2026-04-20T06:11:26.318Z</time></trkpt><trkpt lat="41.9324517" lon="12.7547833"><ele>56.0</ele><time>2026-04-20T06:11:27.318Z</time></trkpt><trkpt lat="41.932515" lon="12.7548267"><ele>56.0</ele><time>2026-04-20T06:11:28.316Z</time></trkpt><trkpt lat="41.9325867" lon="12.75488"><ele>56.0</ele><time>2026-04-20T06:11:29.318Z</time></trkpt><trkpt lat="41.93266" lon="12.75493"><ele>56.0</ele><time>2026-04-20T06:11:30.317Z</time></trkpt><trkpt lat="41.9327317" lon="12.7549767"><ele>56.0</ele><time>2026-04-20T06:11:31.317Z</time></trkpt><trkpt lat="41.9328433" lon="12.7550367"><ele>55.833333333333336</ele><time>2026-04-20T06:11:33.318Z</time></trkpt><trkpt lat="41.9329067" lon="12.7550617"><ele>55.66666666666667</ele><time>2026-04-20T06:11:35.32Z</time></trkpt><trkpt lat="41.932985" lon="12.755065"><ele>55.5</ele><time>2026-04-20T06:11:50.316Z</time></trkpt><trkpt lat="41.9331" lon="12.7550867"><ele>55.33333333333333</ele><time>2026-04-20T06:11:52.317Z</time></trkpt><trkpt lat="41.933165" lon="12.7551033"><ele>55.166666666666664</ele><time>2026-04-20T06:11:53.318Z</time></trkpt><trkpt lat="41.9332383" lon="12.755115"><ele>55.0</ele><time>2026-04-20T06:11:54.318Z</time></trkpt><trkpt lat="41.9333217" lon="12.7551183"><ele>55.666666666666664</ele><time>2026-04-20T06:11:55.317Z</time></trkpt><trkpt lat="41.9334183" lon="12.7551167"><ele>56.33333333333333</ele><time>2026-04-20T06:11:56.317Z</time></trkpt><trkpt lat="41.9335117" lon="12.75511"><ele>57.0</ele><time>2026-04-20T06:11:57.318Z</time></trkpt><trkpt lat="41.9335967" lon="12.7550933"><ele>57.66666666666667</ele><time>2026-04-20T06:11:58.316Z</time></trkpt><trkpt lat="41.933675" lon="12.75508"><ele>58.333333333333336</ele><time>2026-04-20T06:11:59.318Z</time></trkpt><trkpt lat="41.93374" lon="12.7550683"><ele>59.0</ele><time>2026-04-20T06:12:00.318Z</time></trkpt><trkpt lat="41.93383" lon="12.7550517"><ele>59.0</ele><time>2026-04-20T06:12:02.317Z</time></trkpt><trkpt lat="41.9339083" lon="12.7550433"><ele>59.0</ele><time>2026-04-20T06:12:05.316Z</time></trkpt><trkpt lat="41.9339917" lon="12.7550283"><ele>59.0</ele><time>2026-04-20T06:12:08.318Z</time></trkpt><trkpt lat="41.9340533" lon="12.7550033"><ele>59.0</ele><time>2026-04-20T06:12:10.317Z</time></trkpt><trkpt lat="41.9341167" lon="12.7549867"><ele>59.0</ele><time>2026-04-20T06:12:12.318Z</time></trkpt><trkpt lat="41.9341933" lon="12.754985"><ele>59.0</ele><time>2026-04-20T06:12:15.318Z</time></trkpt><trkpt lat="41.9342567" lon="12.7549817"><ele>59.0</ele><time>2026-04-20T06:23:06.316Z</time></trkpt><trkpt lat="41.93434" lon="12.7549733"><ele>59.800000000000004</ele><time>2026-04-20T06:23:09.316Z</time></trkpt><trkpt lat="41.9344283" lon="12.7549517"><ele>60.60000000000001</ele><time>2026-04-20T06:23:11.316Z</time></trkpt><trkpt lat="41.9345517" lon="12.7549217"><ele>61.4</ele><time>2026-04-20T06:23:13.316Z</time></trkpt><trkpt lat="41.9346283" lon="12.7549017"><ele>62.2</ele><time>2026-04-20T06:23:14.316Z</time></trkpt><trkpt lat="41.9347117" lon="12.7548817"><ele>63.0</ele><time>2026-04-20T06:23:15.317Z</time></trkpt><trkpt lat="41.9348017" lon="12.75486"><ele>63.0</ele><time>2026-04-20T06:23:16.317Z</time></trkpt><trkpt lat="41.934895" lon="12.75484"><ele>63.0</ele><time>2026-04-20T06:23:17.317Z</time></trkpt><trkpt lat="41.9350017" lon="12.7548117"><ele>63.0</ele><time>2026-04-20T06:23:18.317Z</time></trkpt><trkpt lat="41.9351033" lon="12.7547867"><ele>63.0</ele><time>2026-04-20T06:23:19.315Z</time></trkpt><trkpt lat="41.935205" lon="12.7547617"><ele>63.0</ele><time>2026-04-20T06:23:20.317Z</time></trkpt><trkpt lat="41.9352983" lon="12.7547417"><ele>62.2</ele><time>2026-04-20T06:23:21.317Z</time></trkpt><trkpt lat="41.9353733" lon="12.7547283"><ele>61.4</ele><time>2026-04-20T06:23:22.316Z</time></trkpt><trkpt lat="41.9354767" lon="12.7547133"><ele>60.60000000000001</ele><time>2026-04-20T06:23:24.317Z</time></trkpt><trkpt lat="41.9355667" lon="12.7546983"><ele>59.800000000000004</ele><time>2026-04-20T06:23:26.316Z</time></trkpt><trkpt lat="41.9356983" lon="12.754675"><ele>59.0</ele><time>2026-04-20T06:23:28.317Z</time></trkpt><trkpt lat="41.9357767" lon="12.7546683"><ele>59.0</ele><time>2026-04-20T06:23:29.317Z</time></trkpt><trkpt lat="41.9358633" lon="12.7546617"><ele>59.00000000000001</ele><time>2026-04-20T06:23:30.317Z</time></trkpt><trkpt lat="41.9359683" lon="12.7546633"><ele>59.00000000000001</ele><time>2026-04-20T06:23:31.316Z</time></trkpt><trkpt lat="41.936075" lon="12.7546667"><ele>59.0</ele><time>2026-04-20T06:23:32.317Z</time></trkpt><trkpt lat="41.9361817" lon="12.75468"><ele>59.0</ele><time>2026-04-20T06:23:33.316Z</time></trkpt><trkpt lat="41.9362933" lon="12.7547033"><ele>56.75</ele><time>2026-04-20T06:23:34.316Z</time></trkpt><trkpt lat="41.936405" lon="12.7547367"><ele>54.5</ele><time>2026-04-20T06:23:35.316Z</time></trkpt><trkpt lat="41.9365233" lon="12.7547767"><ele>52.25</ele><time>2026-04-20T06:23:36.316Z</time></trkpt><trkpt lat="41.9366433" lon="12.7548183"><ele>50.0</ele><time>2026-04-20T06:23:37.316Z</time></trkpt><trkpt lat="41.936765" lon="12.7548667"><ele>49.75</ele><time>2026-04-20T06:23:38.317Z</time></trkpt><trkpt lat="41.9368883" lon="12.7549117"><ele>49.5</ele><time>2026-04-20T06:23:39.317Z</time></trkpt><trkpt lat="41.9370167" lon="12.7549617"><ele>49.25</ele><time>2026-04-20T06:23:40.317Z</time></trkpt><trkpt lat="41.9371383" lon="12.75501"><ele>49.0</ele><time>2026-04-20T06:23:41.317Z</time></trkpt><trkpt lat="41.93726" lon="12.7550533"><ele>49.0</ele><time>2026-04-20T06:23:42.318Z</time></trkpt><trkpt lat="41.937385" lon="12.755095"><ele>49.0</ele><time>2026-04-20T06:23:43.316Z</time></trkpt><trkpt lat="41.9375167" lon="12.7551433"><ele>49.0</ele><time>2026-04-20T06:23:44.316Z</time></trkpt><trkpt lat="41.937645" lon="12.755185"><ele>49.0</ele><time>2026-04-20T06:23:45.318Z</time></trkpt><trkpt lat="41.9377733" lon="12.7552183"><ele>50.75</ele><time>2026-04-20T06:23:46.315Z</time></trkpt><trkpt lat="41.937905" lon="12.7552417"><ele>52.5</ele><time>2026-04-20T06:23:47.315Z</time></trkpt><trkpt lat="41.9380433" lon="12.7552567"><ele>54.25</ele><time>2026-04-20T06:23:48.317Z</time></trkpt><trkpt lat="41.938185" lon="12.75526"><ele>56.0</ele><time>2026-04-20T06:23:49.317Z</time></trkpt><trkpt lat="41.9383283" lon="12.755265"><ele>55.0</ele><time>2026-04-20T06:23:50.317Z</time></trkpt><trkpt lat="41.938475" lon="12.75527"><ele>54.0</ele><time>2026-04-20T06:23:51.316Z</time></trkpt><trkpt lat="41.93862" lon="12.755275"><ele>53.0</ele><time>2026-04-20T06:23:52.316Z</time></trkpt><trkpt lat="41.9387683" lon="12.755285"><ele>52.0</ele><time>2026-04-20T06:23:53.317Z</time></trkpt><trkpt lat="41.938915" lon="12.755295"><ele>52.0</ele><time>2026-04-20T06:23:54.316Z</time></trkpt><trkpt lat="41.9390633" lon="12.7553033"><ele>52.0</ele><time>2026-04-20T06:23:55.316Z</time></trkpt><trkpt lat="41.9392167" lon="12.7553233"><ele>52.0</ele><time>2026-04-20T06:23:56.317Z</time></trkpt><trkpt lat="41.9393667" lon="12.7553417"><ele>51.25</ele><time>2026-04-20T06:23:57.316Z</time></trkpt><trkpt lat="41.9395083" lon="12.7553517"><ele>50.5</ele><time>2026-04-20T06:23:58.316Z</time></trkpt><trkpt lat="41.9396533" lon="12.7553633"><ele>49.75</ele><time>2026-04-20T06:23:59.317Z</time></trkpt><trkpt lat="41.9397833" lon="12.75537"><ele>49.0</ele><time>2026-04-20T06:24:00.317Z</time></trkpt><trkpt lat="41.9399033" lon="12.755385"><ele>49.0</ele><time>2026-04-20T06:24:01.317Z</time></trkpt><trkpt lat="41.9400167" lon="12.7553967"><ele>49.0</ele><time>2026-04-20T06:24:02.32Z</time></trkpt><trkpt lat="41.9401333" lon="12.755395"><ele>49.0</ele><time>2026-04-20T06:24:03.32Z</time></trkpt><trkpt lat="41.9402583" lon="12.755395"><ele>49.0</ele><time>2026-04-20T06:24:04.319Z</time></trkpt><trkpt lat="41.9403967" lon="12.7554017"><ele>49.25</ele><time>2026-04-20T06:24:05.32Z</time></trkpt><trkpt lat="41.9405417" lon="12.75541"><ele>49.5</ele><time>2026-04-20T06:24:06.318Z</time></trkpt><trkpt lat="41.9406833" lon="12.75542"><ele>49.75</ele><time>2026-04-20T06:24:07.319Z</time></trkpt><trkpt lat="41.9408317" lon="12.755425"><ele>50.0</ele><time>2026-04-20T06:24:08.315Z</time></trkpt><trkpt lat="41.9409867" lon="12.7554333"><ele>52.333333333333336</ele><time>2026-04-20T06:24:09.318Z</time></trkpt><trkpt lat="41.9411433" lon="12.7554467"><ele>54.66666666666667</ele><time>2026-04-20T06:24:10.318Z</time></trkpt><trkpt lat="41.9413083" lon="12.7554617"><ele>57.0</ele><time>2026-04-20T06:24:11.318Z</time></trkpt><trkpt lat="41.941475" lon="12.7554733"><ele>57.0</ele><time>2026-04-20T06:24:12.318Z</time></trkpt><trkpt lat="41.9416383" lon="12.755485"><ele>57.0</ele><time>2026-04-20T06:24:13.318Z</time></trkpt><trkpt lat="41.9418083" lon="12.755505"><ele>57.0</ele><time>2026-04-20T06:24:14.319Z</time></trkpt><trkpt lat="41.9419733" lon="12.7555283"><ele>55.33333333333333</ele><time>2026-04-20T06:24:15.319Z</time></trkpt><trkpt lat="41.9421317" lon="12.75557"><ele>53.666666666666664</ele><time>2026-04-20T06:24:16.319Z</time></trkpt><trkpt lat="41.9422867" lon="12.7556417"><ele>52.0</ele><time>2026-04-20T06:24:17.318Z</time></trkpt><trkpt lat="41.9424317" lon="12.755745"><ele>50.33333333333333</ele><time>2026-04-20T06:24:18.317Z</time></trkpt><trkpt lat="41.9425617" lon="12.7558867"><ele>48.666666666666664</ele><time>2026-04-20T06:24:19.316Z</time></trkpt><trkpt lat="41.9426733" lon="12.7560583"><ele>47.0</ele><time>2026-04-20T06:24:20.319Z</time></trkpt><trkpt lat="41.9427583" lon="12.7562517"><ele>47.0</ele><time>2026-04-20T06:24:21.318Z</time></trkpt><trkpt lat="41.94282" lon="12.7564583"><ele>47.0</ele><time>2026-04-20T06:24:22.318Z</time></trkpt><trkpt lat="41.94287" lon="12.75667"><ele>47.0</ele><time>2026-04-20T06:24:23.317Z</time></trkpt><trkpt lat="41.94291" lon="12.75688"><ele>47.33333333333333</ele><time>2026-04-20T06:24:24.318Z</time></trkpt><trkpt lat="41.942945" lon="12.757085"><ele>47.666666666666664</ele><time>2026-04-20T06:24:25.32Z</time></trkpt><trkpt lat="41.9429833" lon="12.7572833"><ele>48.0</ele><time>2026-04-20T06:24:26.318Z</time></trkpt><trkpt lat="41.94302" lon="12.7574767"><ele>48.0</ele><time>2026-04-20T06:24:27.319Z</time></trkpt><trkpt lat="41.94306" lon="12.7576717"><ele>48.0</ele><time>2026-04-20T06:24:28.319Z</time></trkpt><trkpt lat="41.9430933" lon="12.75787"><ele>48.0</ele><time>2026-04-20T06:24:29.316Z</time></trkpt><trkpt lat="41.9431283" lon="12.7580733"><ele>48.0</ele><time>2026-04-20T06:24:30.317Z</time></trkpt><trkpt lat="41.94317" lon="12.758275"><ele>48.0</ele><time>2026-04-20T06:24:31.316Z</time></trkpt><trkpt lat="41.9432217" lon="12.758475"><ele>48.0</ele><time>2026-04-20T06:24:32.317Z</time></trkpt><trkpt lat="41.9432867" lon="12.7586617"><ele>48.0</ele><time>2026-04-20T06:24:33.316Z</time></trkpt><trkpt lat="41.94337" lon="12.75883"><ele>48.0</ele><time>2026-04-20T06:24:34.315Z</time></trkpt><trkpt lat="41.94347" lon="12.7589817"><ele>48.0</ele><time>2026-04-20T06:24:35.316Z</time></trkpt><trkpt lat="41.943585" lon="12.75911"><ele>48.0</ele><time>2026-04-20T06:24:36.316Z</time></trkpt><trkpt lat="41.94371" lon="12.7592183"><ele>48.0</ele><time>2026-04-20T06:24:37.316Z</time></trkpt><trkpt lat="41.9438383" lon="12.7593"><ele>48.0</ele><time>2026-04-20T06:24:38.316Z</time></trkpt><trkpt lat="41.9439733" lon="12.7593583"><ele>48.0</ele><time>2026-04-20T06:24:39.316Z</time></trkpt><trkpt lat="41.9441067" lon="12.7593983"><ele>49.5</ele><time>2026-04-20T06:24:40.316Z</time></trkpt><trkpt lat="41.944225" lon="12.75944"><ele>51.0</ele><time>2026-04-20T06:24:41.318Z</time></trkpt><trkpt lat="41.944335" lon="12.7594717"><ele>52.5</ele><time>2026-04-20T06:24:42.318Z</time></trkpt><trkpt lat="41.9444417" lon="12.7595017"><ele>54.0</ele><time>2026-04-20T06:24:43.316Z</time></trkpt><trkpt lat="41.9445467" lon="12.7595333"><ele>54.0</ele><time>2026-04-20T06:24:44.316Z</time></trkpt><trkpt lat="41.9446467" lon="12.75956"><ele>54.00000000000001</ele><time>2026-04-20T06:24:45.316Z</time></trkpt><trkpt lat="41.944745" lon="12.7595867"><ele>54.00000000000001</ele><time>2026-04-20T06:24:46.317Z</time></trkpt><trkpt lat="41.94484" lon="12.7596117"><ele>54.0</ele><time>2026-04-20T06:24:47.32Z</time></trkpt><trkpt lat="41.9449267" lon="12.7596367"><ele>54.0</ele><time>2026-04-20T06:24:48.317Z</time></trkpt><trkpt lat="41.94501" lon="12.7596633"><ele>53.2</ele><time>2026-04-20T06:24:49.316Z</time></trkpt><trkpt lat="41.9450933" lon="12.7596933"><ele>52.400000000000006</ele><time>2026-04-20T06:24:50.316Z</time></trkpt><trkpt lat="41.94518" lon="12.7597217"><ele>51.6</ele><time>2026-04-20T06:24:51.317Z</time></trkpt><trkpt lat="41.945275" lon="12.7597567"><ele>50.8</ele><time>2026-04-20T06:24:52.316Z</time></trkpt><trkpt lat="41.94538" lon="12.7597917"><ele>50.0</ele><time>2026-04-20T06:24:53.316Z</time></trkpt><trkpt lat="41.945495" lon="12.7598217"><ele>50.0</ele><time>2026-04-20T06:24:54.316Z</time></trkpt><trkpt lat="41.94561" lon="12.7598483"><ele>50.0</ele><time>2026-04-20T06:24:55.319Z</time></trkpt><trkpt lat="41.9457267" lon="12.75987"><ele>50.0</ele><time>2026-04-20T06:24:56.318Z</time></trkpt><trkpt lat="41.94585" lon="12.7598883"><ele>50.0</ele><time>2026-04-20T06:24:57.318Z</time></trkpt><trkpt lat="41.94598" lon="12.7599083"><ele>49.5</ele><time>2026-04-20T06:24:58.319Z</time></trkpt><trkpt lat="41.94612" lon="12.759935"><ele>49.0</ele><time>2026-04-20T06:24:59.319Z</time></trkpt><trkpt lat="41.946265" lon="12.75997"><ele>48.5</ele><time>2026-04-20T06:25:00.318Z</time></trkpt><trkpt lat="41.94642" lon="12.7600117"><ele>48.0</ele><time>2026-04-20T06:25:01.319Z</time></trkpt><trkpt lat="41.9465783" lon="12.7600583"><ele>48.0</ele><time>2026-04-20T06:25:02.319Z</time></trkpt><trkpt lat="41.94674" lon="12.7601067"><ele>48.0</ele><time>2026-04-20T06:25:03.318Z</time></trkpt><trkpt lat="41.9469017" lon="12.7601567"><ele>48.0</ele><time>2026-04-20T06:25:04.319Z</time></trkpt><trkpt lat="41.9470667" lon="12.7602017"><ele>48.0</ele><time>2026-04-20T06:25:05.318Z</time></trkpt><trkpt lat="41.9472317" lon="12.7602517"><ele>48.0</ele><time>2026-04-20T06:25:06.319Z</time></trkpt><trkpt lat="41.9473983" lon="12.7603017"><ele>48.0</ele><time>2026-04-20T06:25:07.319Z</time></trkpt><trkpt lat="41.9475667" lon="12.7603483"><ele>48.0</ele><time>2026-04-20T06:25:08.317Z</time></trkpt><trkpt lat="41.9477317" lon="12.760395"><ele>48.0</ele><time>2026-04-20T06:25:09.319Z</time></trkpt><trkpt lat="41.9478917" lon="12.7604383"><ele>48.0</ele><time>2026-04-20T06:25:10.319Z</time></trkpt><trkpt lat="41.9480433" lon="12.7604783"><ele>48.0</ele><time>2026-04-20T06:25:11.318Z</time></trkpt><trkpt lat="41.9481917" lon="12.7605183"><ele>48.0</ele><time>2026-04-20T06:25:12.319Z</time></trkpt><trkpt lat="41.948335" lon="12.7605583"><ele>48.0</ele><time>2026-04-20T06:25:13.318Z</time></trkpt><trkpt lat="41.9484767" lon="12.7605983"><ele>48.0</ele><time>2026-04-20T06:25:14.319Z</time></trkpt><trkpt lat="41.948615" lon="12.76064"><ele>48.0</ele><time>2026-04-20T06:25:15.32Z</time></trkpt><trkpt lat="41.9487517" lon="12.760675"><ele>48.0</ele><time>2026-04-20T06:25:16.319Z</time></trkpt><trkpt lat="41.9488867" lon="12.7607183"><ele>48.0</ele><time>2026-04-20T06:25:17.319Z</time></trkpt><trkpt lat="41.9490217" lon="12.76076"><ele>48.0</ele><time>2026-04-20T06:25:18.317Z</time></trkpt><trkpt lat="41.9491583" lon="12.7608"><ele>47.75</ele><time>2026-04-20T06:25:19.317Z</time></trkpt><trkpt lat="41.9492967" lon="12.7608417"><ele>47.5</ele><time>2026-04-20T06:25:20.317Z</time></trkpt><trkpt lat="41.9494333" lon="12.7608783"><ele>47.25</ele><time>2026-04-20T06:25:21.317Z</time></trkpt><trkpt lat="41.9495717" lon="12.76092"><ele>47.0</ele><time>2026-04-20T06:25:22.317Z</time></trkpt><trkpt lat="41.9497117" lon="12.760965"><ele>47.0</ele><time>2026-04-20T06:25:23.316Z</time></trkpt><trkpt lat="41.94985" lon="12.7610033"><ele>47.0</ele><time>2026-04-20T06:25:24.317Z</time></trkpt><trkpt lat="41.94999" lon="12.76104"><ele>47.0</ele><time>2026-04-20T06:25:25.32Z</time></trkpt><trkpt lat="41.9501283" lon="12.76108"><ele>47.0</ele><time>2026-04-20T06:25:26.318Z</time></trkpt><trkpt lat="41.9502683" lon="12.7611167"><ele>47.25</ele><time>2026-04-20T06:25:27.319Z</time></trkpt><trkpt lat="41.9504083" lon="12.7611567"><ele>47.5</ele><time>2026-04-20T06:25:28.319Z</time></trkpt><trkpt lat="41.950545" lon="12.761195"><ele>47.75</ele><time>2026-04-20T06:25:29.318Z</time></trkpt><trkpt lat="41.9506767" lon="12.761235"><ele>48.0</ele><time>2026-04-20T06:25:30.319Z</time></trkpt><trkpt lat="41.9508067" lon="12.7612717"><ele>47.75</ele><time>2026-04-20T06:25:31.318Z</time></trkpt><trkpt lat="41.950935" lon="12.761315"><ele>47.5</ele><time>2026-04-20T06:25:32.319Z</time></trkpt><trkpt lat="41.951065" lon="12.7613667"><ele>47.25</ele><time>2026-04-20T06:25:33.318Z</time></trkpt><trkpt lat="41.9511917" lon="12.7614233"><ele>47.0</ele><time>2026-04-20T06:25:34.319Z</time></trkpt><trkpt lat="41.9513133" lon="12.761485"><ele>47.0</ele><time>2026-04-20T06:25:35.324Z</time></trkpt><trkpt lat="41.9514333" lon="12.7615517"><ele>47.0</ele><time>2026-04-20T06:25:36.319Z</time></trkpt><trkpt lat="41.9515533" lon="12.7616117"><ele>47.0</ele><time>2026-04-20T06:25:37.318Z</time></trkpt><trkpt lat="41.951665" lon="12.7616617"><ele>47.0</ele><time>2026-04-20T06:25:38.319Z</time></trkpt><trkpt lat="41.95177" lon="12.7617"><ele>47.2</ele><time>2026-04-20T06:25:39.319Z</time></trkpt><trkpt lat="41.951875" lon="12.7617367"><ele>47.400000000000006</ele><time>2026-04-20T06:25:40.321Z</time></trkpt><trkpt lat="41.9519733" lon="12.76177"><ele>47.599999999999994</ele><time>2026-04-20T06:25:41.319Z</time></trkpt><trkpt lat="41.9520633" lon="12.7617983"><ele>47.8</ele><time>2026-04-20T06:25:42.319Z</time></trkpt><trkpt lat="41.95215" lon="12.76183"><ele>48.0</ele><time>2026-04-20T06:25:43.319Z</time></trkpt><trkpt lat="41.95223" lon="12.761855"><ele>48.0</ele><time>2026-04-20T06:25:44.317Z</time></trkpt><trkpt lat="41.9523083" lon="12.7618683"><ele>48.0</ele><time>2026-04-20T06:25:45.319Z</time></trkpt><trkpt lat="41.9523917" lon="12.76187"><ele>48.0</ele><time>2026-04-20T06:25:46.319Z</time></trkpt><trkpt lat="41.9524767" lon="12.7618733"><ele>48.0</ele><time>2026-04-20T06:25:47.317Z</time></trkpt><trkpt lat="41.9525633" lon="12.7618833"><ele>48.0</ele><time>2026-04-20T06:25:48.317Z</time></trkpt><trkpt lat="41.9526483" lon="12.7619067"><ele>48.0</ele><time>2026-04-20T06:25:49.315Z</time></trkpt><trkpt lat="41.9527367" lon="12.7619467"><ele>48.0</ele><time>2026-04-20T06:25:50.317Z</time></trkpt><trkpt lat="41.9528317" lon="12.762005"><ele>48.0</ele><time>2026-04-20T06:25:51.319Z</time></trkpt><trkpt lat="41.9529333" lon="12.762065"><ele>48.0</ele><time>2026-04-20T06:25:52.319Z</time></trkpt><trkpt lat="41.953035" lon="12.7621217"><ele>48.0</ele><time>2026-04-20T06:25:53.319Z</time></trkpt><trkpt lat="41.953135" lon="12.76217"><ele>48.0</ele><time>2026-04-20T06:25:54.319Z</time></trkpt><trkpt lat="41.953225" lon="12.7622167"><ele>48.0</ele><time>2026-04-20T06:25:55.316Z</time></trkpt><trkpt lat="41.9532967" lon="12.7622533"><ele>48.0</ele><time>2026-04-20T06:25:56.316Z</time></trkpt><trkpt lat="41.9533717" lon="12.7622933"><ele>48.0</ele><time>2026-04-20T06:25:57.316Z</time></trkpt><trkpt lat="41.9534583" lon="12.762345"><ele>48.0</ele><time>2026-04-20T06:25:58.319Z</time></trkpt><trkpt lat="41.9535567" lon="12.7623967"><ele>48.0</ele><time>2026-04-20T06:25:59.319Z</time></trkpt><trkpt lat="41.9536567" lon="12.7624467"><ele>48.0</ele><time>2026-04-20T06:26:00.316Z</time></trkpt><trkpt lat="41.9537517" lon="12.7625"><ele>48.0</ele><time>2026-04-20T06:26:01.317Z</time></trkpt><trkpt lat="41.95385" lon="12.7625517"><ele>48.0</ele><time>2026-04-20T06:26:02.317Z</time></trkpt><trkpt lat="41.9539483" lon="12.7626"><ele>48.0</ele><time>2026-04-20T06:26:03.317Z</time></trkpt><trkpt lat="41.9540433" lon="12.7626433"><ele>48.0</ele><time>2026-04-20T06:26:04.316Z</time></trkpt><trkpt lat="41.9541417" lon="12.762695"><ele>48.8</ele><time>2026-04-20T06:26:05.318Z</time></trkpt><trkpt lat="41.9542267" lon="12.7627517"><ele>49.599999999999994</ele><time>2026-04-20T06:26:06.317Z</time></trkpt><trkpt lat="41.9543083" lon="12.7628267"><ele>50.400000000000006</ele><time>2026-04-20T06:26:07.319Z</time></trkpt><trkpt lat="41.9543733" lon="12.7629167"><ele>51.2</ele><time>2026-04-20T06:26:08.317Z</time></trkpt><trkpt lat="41.954425" lon="12.7630183"><ele>52.0</ele><time>2026-04-20T06:26:09.316Z</time></trkpt><trkpt lat="41.954465" lon="12.763145"><ele>52.0</ele><time>2026-04-20T06:26:10.319Z</time></trkpt><trkpt lat="41.9545033" lon="12.763285"><ele>52.0</ele><time>2026-04-20T06:26:11.319Z</time></trkpt><trkpt lat="41.9545417" lon="12.76344"><ele>52.0</ele><time>2026-04-20T06:26:12.318Z</time></trkpt><trkpt lat="41.9545833" lon="12.763605"><ele>52.0</ele><time>2026-04-20T06:26:13.317Z</time></trkpt><trkpt lat="41.9546267" lon="12.7637767"><ele>52.75</ele><time>2026-04-20T06:26:14.319Z</time></trkpt><trkpt lat="41.954665" lon="12.7639533"><ele>53.5</ele><time>2026-04-20T06:26:15.318Z</time></trkpt><trkpt lat="41.9547033" lon="12.7641317"><ele>54.25</ele><time>2026-04-20T06:26:16.32Z</time></trkpt><trkpt lat="41.9547433" lon="12.7643033"><ele>55.0</ele><time>2026-04-20T06:26:17.32Z</time></trkpt><trkpt lat="41.954785" lon="12.7644783"><ele>55.25</ele><time>2026-04-20T06:26:18.32Z</time></trkpt><trkpt lat="41.9548267" lon="12.7646517"><ele>55.5</ele><time>2026-04-20T06:26:19.317Z</time></trkpt><trkpt lat="41.95487" lon="12.7648217"><ele>55.75</ele><time>2026-04-20T06:26:20.32Z</time></trkpt><trkpt lat="41.95491" lon="12.7649917"><ele>56.0</ele><time>2026-04-20T06:26:21.316Z</time></trkpt><trkpt lat="41.9549467" lon="12.7651633"><ele>57.5</ele><time>2026-04-20T06:26:22.32Z</time></trkpt><trkpt lat="41.9549767" lon="12.7653433"><ele>59.0</ele><time>2026-04-20T06:26:23.32Z</time></trkpt><trkpt lat="41.955" lon="12.7655267"><ele>60.5</ele><time>2026-04-20T06:26:24.32Z</time></trkpt><trkpt lat="41.9550233" lon="12.76571"><ele>62.0</ele><time>2026-04-20T06:26:25.319Z</time></trkpt><trkpt lat="41.955055" lon="12.76589"><ele>63.0</ele><time>2026-04-20T06:26:26.319Z</time></trkpt><trkpt lat="41.95508" lon="12.7660517"><ele>64.0</ele><time>2026-04-20T06:26:27.319Z</time></trkpt><trkpt lat="41.9551" lon="12.7661933"><ele>65.0</ele><time>2026-04-20T06:26:28.32Z</time></trkpt><trkpt lat="41.955115" lon="12.76631"><ele>66.0</ele><time>2026-04-20T06:26:29.32Z</time></trkpt><trkpt lat="41.9551333" lon="12.7664033"><ele>67.0</ele><time>2026-04-20T06:26:30.32Z</time></trkpt><trkpt lat="41.955145" lon="12.7664933"><ele>67.0</ele><time>2026-04-20T06:26:31.317Z</time></trkpt><trkpt lat="41.9551617" lon="12.7665867"><ele>67.0</ele><time>2026-04-20T06:26:32.32Z</time></trkpt><trkpt lat="41.9551733" lon="12.766685"><ele>67.0</ele><time>2026-04-20T06:26:33.32Z</time></trkpt><trkpt lat="41.955185" lon="12.76678"><ele>67.0</ele><time>2026-04-20T06:26:34.32Z</time></trkpt><trkpt lat="41.9551933" lon="12.7668733"><ele>67.0</ele><time>2026-04-20T06:26:35.32Z</time></trkpt><trkpt lat="41.955205" lon="12.7670183"><ele>67.0</ele><time>2026-04-20T06:26:37.32Z</time></trkpt><trkpt lat="41.95523" lon="12.7671433"><ele>67.0</ele><time>2026-04-20T06:26:41.318Z</time></trkpt><trkpt lat="41.9552383" lon="12.76731"><ele>67.0</ele><time>2026-04-20T06:26:43.32Z</time></trkpt><trkpt lat="41.9552467" lon="12.7674017"><ele>67.0</ele><time>2026-04-20T06:26:44.32Z</time></trkpt><trkpt lat="41.9552617" lon="12.7674967"><ele>67.0</ele><time>2026-04-20T06:26:45.32Z</time></trkpt><trkpt lat="41.9552733" lon="12.7676017"><ele>67.0</ele><time>2026-04-20T06:26:46.32Z</time></trkpt><trkpt lat="41.9552883" lon="12.7677167"><ele>67.0</ele><time>2026-04-20T06:26:47.319Z</time></trkpt><trkpt lat="41.9553017" lon="12.767835"><ele>66.66666666666666</ele><time>2026-04-20T06:26:48.319Z</time></trkpt><trkpt lat="41.9553183" lon="12.7679567"><ele>66.33333333333333</ele><time>2026-04-20T06:26:49.319Z</time></trkpt><trkpt lat="41.9553367" lon="12.7680717"><ele>66.0</ele><time>2026-04-20T06:26:50.319Z</time></trkpt><trkpt lat="41.9553583" lon="12.7681783"><ele>65.66666666666667</ele><time>2026-04-20T06:26:51.32Z</time></trkpt><trkpt lat="41.95538" lon="12.7682783"><ele>65.33333333333334</ele><time>2026-04-20T06:26:52.32Z</time></trkpt><trkpt lat="41.955405" lon="12.7683667"><ele>65.0</ele><time>2026-04-20T06:26:53.32Z</time></trkpt><trkpt lat="41.9554383" lon="12.7684867"><ele>64.8</ele><time>2026-04-20T06:26:55.32Z</time></trkpt><trkpt lat="41.9554667" lon="12.768575"><ele>64.6</ele><time>2026-04-20T06:26:57.32Z</time></trkpt><trkpt lat="41.955515" lon="12.7687233"><ele>64.4</ele><time>2026-04-20T06:26:59.319Z</time></trkpt><trkpt lat="41.95557" lon="12.768875"><ele>64.2</ele><time>2026-04-20T06:27:01.32Z</time></trkpt><trkpt lat="41.95563" lon="12.7690233"><ele>64.0</ele><time>2026-04-20T06:27:03.319Z</time></trkpt><trkpt lat="41.9556983" lon="12.76913"><ele>63.99999999999999</ele><time>2026-04-20T06:27:05.32Z</time></trkpt><trkpt lat="41.95575" lon="12.769215"><ele>64.0</ele><time>2026-04-20T06:27:07.32Z</time></trkpt><trkpt lat="41.95581" lon="12.7692983"><ele>64.0</ele><time>2026-04-20T06:27:09.32Z</time></trkpt><trkpt lat="41.955905" lon="12.7694233"><ele>64.0</ele><time>2026-04-20T06:27:11.32Z</time></trkpt><trkpt lat="41.955955" lon="12.7694983"><ele>63.99999999999999</ele><time>2026-04-20T06:27:12.32Z</time></trkpt><trkpt lat="41.9560033" lon="12.7695717"><ele>64.0</ele><time>2026-04-20T06:27:13.32Z</time></trkpt><trkpt lat="41.9560483" lon="12.7696417"><ele>64.33333333333333</ele><time>2026-04-20T06:27:14.32Z</time></trkpt><trkpt lat="41.9560867" lon="12.7697267"><ele>64.66666666666666</ele><time>2026-04-20T06:27:15.32Z</time></trkpt><trkpt lat="41.9561233" lon="12.7698183"><ele>65.0</ele><time>2026-04-20T06:27:16.319Z</time></trkpt><trkpt lat="41.9561583" lon="12.7699083"><ele>65.33333333333333</ele><time>2026-04-20T06:27:17.32Z</time></trkpt><trkpt lat="41.9561883" lon="12.7699917"><ele>65.66666666666667</ele><time>2026-04-20T06:27:18.32Z</time></trkpt><trkpt lat="41.9562133" lon="12.7700717"><ele>66.0</ele><time>2026-04-20T06:27:19.316Z</time></trkpt><trkpt lat="41.95626" lon="12.77022"><ele>66.2</ele><time>2026-04-20T06:27:21.318Z</time></trkpt><trkpt lat="41.9563" lon="12.7703817"><ele>66.39999999999999</ele><time>2026-04-20T06:27:23.317Z</time></trkpt><trkpt lat="41.9563167" lon="12.77047"><ele>66.6</ele><time>2026-04-20T06:27:24.318Z</time></trkpt><trkpt lat="41.9563367" lon="12.770635"><ele>66.8</ele><time>2026-04-20T06:27:26.317Z</time></trkpt><trkpt lat="41.9563433" lon="12.7707233"><ele>67.0</ele><time>2026-04-20T06:27:27.317Z</time></trkpt><trkpt lat="41.9563467" lon="12.7708867"><ele>67.6</ele><time>2026-04-20T06:27:29.318Z</time></trkpt><trkpt lat="41.9563433" lon="12.7710483"><ele>68.2</ele><time>2026-04-20T06:27:31.319Z</time></trkpt><trkpt lat="41.956345" lon="12.771185"><ele>68.8</ele><time>2026-04-20T06:27:33.32Z</time></trkpt><trkpt lat="41.9563417" lon="12.7713133"><ele>69.4</ele><time>2026-04-20T06:27:35.319Z</time></trkpt><trkpt lat="41.9563433" lon="12.77141"><ele>70.0</ele><time>2026-04-20T06:27:37.32Z</time></trkpt><trkpt lat="41.9563433" lon="12.7714967"><ele>70.0</ele><time>2026-04-20T06:27:39.319Z</time></trkpt><trkpt lat="41.9563483" lon="12.7716033"><ele>70.0</ele><time>2026-04-20T06:27:42.316Z</time></trkpt><trkpt lat="41.9563633" lon="12.7716967"><ele>70.0</ele><time>2026-04-20T06:27:47.319Z</time></trkpt><trkpt lat="41.956375" lon="12.7718217"><ele>70.0</ele><time>2026-04-20T06:27:50.317Z</time></trkpt><trkpt lat="41.9563967" lon="12.7719567"><ele>70.0</ele><time>2026-04-20T06:27:52.317Z</time></trkpt><trkpt lat="41.9564167" lon="12.7721083"><ele>70.4</ele><time>2026-04-20T06:27:54.318Z</time></trkpt><trkpt lat="41.9564417" lon="12.7722733"><ele>70.8</ele><time>2026-04-20T06:27:56.318Z</time></trkpt><trkpt lat="41.9564733" lon="12.7724367"><ele>71.2</ele><time>2026-04-20T06:27:58.317Z</time></trkpt><trkpt lat="41.95649" lon="12.7725317"><ele>71.6</ele><time>2026-04-20T06:27:59.318Z</time></trkpt><trkpt lat="41.9565033" lon="12.7726333"><ele>72.0</ele><time>2026-04-20T06:28:00.32Z</time></trkpt><trkpt lat="41.9565233" lon="12.7727267"><ele>72.4</ele><time>2026-04-20T06:28:01.32Z</time></trkpt><trkpt lat="41.9565567" lon="12.77285"><ele>72.80000000000001</ele><time>2026-04-20T06:28:03.32Z</time></trkpt><trkpt lat="41.9565733" lon="12.7729733"><ele>73.2</ele><time>2026-04-20T06:28:05.319Z</time></trkpt><trkpt lat="41.9565867" lon="12.77308"><ele>73.60000000000001</ele><time>2026-04-20T06:28:06.32Z</time></trkpt><trkpt lat="41.9566033" lon="12.7732017"><ele>74.0</ele><time>2026-04-20T06:28:07.32Z</time></trkpt><trkpt lat="41.9566217" lon="12.773335"><ele>74.0</ele><time>2026-04-20T06:28:08.317Z</time></trkpt><trkpt lat="41.9566467" lon="12.7734733"><ele>74.0</ele><time>2026-04-20T06:28:09.32Z</time></trkpt><trkpt lat="41.9566717" lon="12.7736167"><ele>74.0</ele><time>2026-04-20T06:28:10.319Z</time></trkpt><trkpt lat="41.956685" lon="12.7737633"><ele>74.0</ele><time>2026-04-20T06:28:11.32Z</time></trkpt><trkpt lat="41.9566983" lon="12.7739033"><ele>74.0</ele><time>2026-04-20T06:28:12.319Z</time></trkpt><trkpt lat="41.95671" lon="12.7740333"><ele>73.83333333333334</ele><time>2026-04-20T06:28:13.317Z</time></trkpt><trkpt lat="41.956725" lon="12.77415"><ele>73.66666666666667</ele><time>2026-04-20T06:28:14.319Z</time></trkpt><trkpt lat="41.956735" lon="12.7742617"><ele>73.5</ele><time>2026-04-20T06:28:15.321Z</time></trkpt><trkpt lat="41.9567467" lon="12.7743733"><ele>73.33333333333333</ele><time>2026-04-20T06:28:16.32Z</time></trkpt><trkpt lat="41.9567617" lon="12.7744833"><ele>73.16666666666666</ele><time>2026-04-20T06:28:17.319Z</time></trkpt><trkpt lat="41.9567717" lon="12.7745967"><ele>73.0</ele><time>2026-04-20T06:28:18.319Z</time></trkpt><trkpt lat="41.9567783" lon="12.774705"><ele>73.0</ele><time>2026-04-20T06:28:19.317Z</time></trkpt><trkpt lat="41.956785" lon="12.774805"><ele>73.0</ele><time>2026-04-20T06:28:20.317Z</time></trkpt><trkpt lat="41.9567933" lon="12.7749667"><ele>73.0</ele><time>2026-04-20T06:28:22.317Z</time></trkpt><trkpt lat="41.9567867" lon="12.77514"><ele>73.0</ele><time>2026-04-20T06:28:24.318Z</time></trkpt><trkpt lat="41.95678" lon="12.775265"><ele>73.0</ele><time>2026-04-20T06:28:25.317Z</time></trkpt><trkpt lat="41.9567783" lon="12.7754183"><ele>73.2</ele><time>2026-04-20T06:28:26.318Z</time></trkpt><trkpt lat="41.9567817" lon="12.7755717"><ele>73.4</ele><time>2026-04-20T06:28:27.319Z</time></trkpt><trkpt lat="41.9567833" lon="12.7757"><ele>73.60000000000001</ele><time>2026-04-20T06:28:28.317Z</time></trkpt><trkpt lat="41.9567767" lon="12.7758067"><ele>73.8</ele><time>2026-04-20T06:28:29.316Z</time></trkpt><trkpt lat="41.9567767" lon="12.7759583"><ele>74.0</ele><time>2026-04-20T06:28:31.317Z</time></trkpt><trkpt lat="41.9567733" lon="12.7761083"><ele>74.2</ele><time>2026-04-20T06:28:33.319Z</time></trkpt><trkpt lat="41.956765" lon="12.77627"><ele>74.4</ele><time>2026-04-20T06:28:35.319Z</time></trkpt><trkpt lat="41.9567583" lon="12.7763983"><ele>74.6</ele><time>2026-04-20T06:28:37.317Z</time></trkpt><trkpt lat="41.9567383" lon="12.7765633"><ele>74.8</ele><time>2026-04-20T06:28:39.316Z</time></trkpt><trkpt lat="41.956725" lon="12.7766783"><ele>75.0</ele><time>2026-04-20T06:28:40.316Z</time></trkpt><trkpt lat="41.9567167" lon="12.776835"><ele>75.5</ele><time>2026-04-20T06:28:41.317Z</time></trkpt><trkpt lat="41.9567117" lon="12.777"><ele>76.0</ele><time>2026-04-20T06:28:42.317Z</time></trkpt><trkpt lat="41.9567083" lon="12.7771683"><ele>76.5</ele><time>2026-04-20T06:28:43.318Z</time></trkpt><trkpt lat="41.9567" lon="12.777345"><ele>77.0</ele><time>2026-04-20T06:28:44.32Z</time></trkpt><trkpt lat="41.95669" lon="12.7775283"><ele>76.75</ele><time>2026-04-20T06:28:45.32Z</time></trkpt><trkpt lat="41.95668" lon="12.777725"><ele>76.5</ele><time>2026-04-20T06:28:46.319Z</time></trkpt><trkpt lat="41.9566717" lon="12.7779267"><ele>76.25</ele><time>2026-04-20T06:28:47.319Z</time></trkpt><trkpt lat="41.9566667" lon="12.7781283"><ele>76.0</ele><time>2026-04-20T06:28:48.317Z</time></trkpt><trkpt lat="41.9566583" lon="12.7783217"><ele>76.33333333333333</ele><time>2026-04-20T06:28:49.317Z</time></trkpt><trkpt lat="41.9566467" lon="12.77852"><ele>76.66666666666667</ele><time>2026-04-20T06:28:50.318Z</time></trkpt><trkpt lat="41.956635" lon="12.7787283"><ele>77.0</ele><time>2026-04-20T06:28:51.319Z</time></trkpt><trkpt lat="41.9566183" lon="12.778945"><ele>77.0</ele><time>2026-04-20T06:28:52.317Z</time></trkpt><trkpt lat="41.956615" lon="12.77915"><ele>77.0</ele><time>2026-04-20T06:28:53.317Z</time></trkpt><trkpt lat="41.9566117" lon="12.7793467"><ele>77.0</ele><time>2026-04-20T06:28:54.318Z</time></trkpt><trkpt lat="41.9566" lon="12.7795483"><ele>77.0</ele><time>2026-04-20T06:28:55.316Z</time></trkpt><trkpt lat="41.956595" lon="12.7797567"><ele>78.0</ele><time>2026-04-20T06:28:56.317Z</time></trkpt><trkpt lat="41.95658" lon="12.779975"><ele>79.0</ele><time>2026-04-20T06:28:57.317Z</time></trkpt><trkpt lat="41.9565667" lon="12.7802"><ele>80.0</ele><time>2026-04-20T06:28:58.317Z</time></trkpt><trkpt lat="41.9565583" lon="12.7804333"><ele>81.0</ele><time>2026-04-20T06:28:59.317Z</time></trkpt><trkpt lat="41.95655" lon="12.7806767"><ele>82.0</ele><time>2026-04-20T06:29:00.316Z</time></trkpt><trkpt lat="41.95654" lon="12.7809267"><ele>83.0</ele><time>2026-04-20T06:29:01.317Z</time></trkpt><trkpt lat="41.95653" lon="12.7811783"><ele>83.66666666666667</ele><time>2026-04-20T06:29:02.318Z</time></trkpt><trkpt lat="41.9565167" lon="12.7814267"><ele>84.33333333333333</ele><time>2026-04-20T06:29:03.317Z</time></trkpt><trkpt lat="41.9565017" lon="12.781665"><ele>85.0</ele><time>2026-04-20T06:29:04.317Z</time></trkpt><trkpt lat="41.9564883" lon="12.7818967"><ele>86.0</ele><time>2026-04-20T06:29:05.316Z</time></trkpt><trkpt lat="41.95647" lon="12.7821283"><ele>87.0</ele><time>2026-04-20T06:29:06.317Z</time></trkpt><trkpt lat="41.9564467" lon="12.7823633"><ele>88.0</ele><time>2026-04-20T06:29:07.316Z</time></trkpt><trkpt lat="41.95642" lon="12.78259"><ele>88.66666666666666</ele><time>2026-04-20T06:29:08.317Z</time></trkpt><trkpt lat="41.9563817" lon="12.7827983"><ele>89.33333333333333</ele><time>2026-04-20T06:29:09.318Z</time></trkpt><trkpt lat="41.956325" lon="12.78299"><ele>90.0</ele><time>2026-04-20T06:29:10.316Z</time></trkpt><trkpt lat="41.9562467" lon="12.78317"><ele>90.0</ele><time>2026-04-20T06:29:11.316Z</time></trkpt><trkpt lat="41.956145" lon="12.7833317"><ele>90.0</ele><time>2026-04-20T06:29:12.316Z</time></trkpt><trkpt lat="41.95603" lon="12.7834667"><ele>90.0</ele><time>2026-04-20T06:29:13.319Z</time></trkpt><trkpt lat="41.9558983" lon="12.7835667"><ele>92.66666666666666</ele><time>2026-04-20T06:29:14.319Z</time></trkpt><trkpt lat="41.9557383" lon="12.783615"><ele>95.33333333333333</ele><time>2026-04-20T06:29:15.316Z</time></trkpt><trkpt lat="41.95557" lon="12.7836333"><ele>98.0</ele><time>2026-04-20T06:29:16.316Z</time></trkpt><trkpt lat="41.95539" lon="12.7836267"><ele>98.0</ele><time>2026-04-20T06:29:17.317Z</time></trkpt><trkpt lat="41.95521" lon="12.7836033"><ele>98.0</ele><time>2026-04-20T06:29:18.316Z</time></trkpt><trkpt lat="41.9550283" lon="12.783585"><ele>98.0</ele><time>2026-04-20T06:29:19.318Z</time></trkpt><trkpt lat="41.9548483" lon="12.7835783"><ele>100.33333333333333</ele><time>2026-04-20T06:29:20.318Z</time></trkpt><trkpt lat="41.9546783" lon="12.78359"><ele>102.66666666666666</ele><time>2026-04-20T06:29:21.318Z</time></trkpt><trkpt lat="41.9545233" lon="12.783625"><ele>105.0</ele><time>2026-04-20T06:29:22.317Z</time></trkpt><trkpt lat="41.954385" lon="12.7836867"><ele>105.0</ele><time>2026-04-20T06:29:23.317Z</time></trkpt><trkpt lat="41.9542683" lon="12.7837883"><ele>105.0</ele><time>2026-04-20T06:29:24.316Z</time></trkpt><trkpt lat="41.9541667" lon="12.7839333"><ele>105.0</ele><time>2026-04-20T06:29:25.318Z</time></trkpt><trkpt lat="41.9540917" lon="12.7841017"><ele>105.0</ele><time>2026-04-20T06:29:26.317Z</time></trkpt><trkpt lat="41.9540517" lon="12.784295"><ele>106.0</ele><time>2026-04-20T06:29:27.32Z</time></trkpt><trkpt lat="41.9540467" lon="12.7845033"><ele>107.0</ele><time>2026-04-20T06:29:28.317Z</time></trkpt><trkpt lat="41.9540733" lon="12.7847167"><ele>108.0</ele><time>2026-04-20T06:29:29.317Z</time></trkpt><trkpt lat="41.9541367" lon="12.7849333"><ele>109.33333333333334</ele><time>2026-04-20T06:29:30.317Z</time></trkpt><trkpt lat="41.9542117" lon="12.7851483"><ele>110.66666666666667</ele><time>2026-04-20T06:29:31.318Z</time></trkpt><trkpt lat="41.9542867" lon="12.7853667"><ele>112.0</ele><time>2026-04-20T06:29:32.318Z</time></trkpt><trkpt lat="41.954355" lon="12.7855783"><ele>113.0</ele><time>2026-04-20T06:29:33.317Z</time></trkpt><trkpt lat="41.9544133" lon="12.7857683"><ele>114.0</ele><time>2026-04-20T06:29:34.316Z</time></trkpt><trkpt lat="41.9544633" lon="12.7859567"><ele>115.0</ele><time>2026-04-20T06:29:35.317Z</time></trkpt><trkpt lat="41.9544967" lon="12.7861517"><ele>116.5</ele><time>2026-04-20T06:29:36.317Z</time></trkpt><trkpt lat="41.9545117" lon="12.78635"><ele>118.0</ele><time>2026-04-20T06:29:37.317Z</time></trkpt><trkpt lat="41.9545" lon="12.7865417"><ele>119.5</ele><time>2026-04-20T06:29:38.317Z</time></trkpt><trkpt lat="41.954455" lon="12.7867267"><ele>121.0</ele><time>2026-04-20T06:29:39.318Z</time></trkpt><trkpt lat="41.95438" lon="12.7868967"><ele>121.66666666666667</ele><time>2026-04-20T06:29:40.317Z</time></trkpt><trkpt lat="41.9542783" lon="12.7870333"><ele>122.33333333333334</ele><time>2026-04-20T06:29:41.318Z</time></trkpt><trkpt lat="41.9541433" lon="12.7871267"><ele>123.0</ele><time>2026-04-20T06:29:42.319Z</time></trkpt><trkpt lat="41.9539917" lon="12.78717"><ele>123.0</ele><time>2026-04-20T06:29:43.317Z</time></trkpt><trkpt lat="41.9538233" lon="12.787165"><ele>123.0</ele><time>2026-04-20T06:29:44.316Z</time></trkpt><trkpt lat="41.95365" lon="12.787135"><ele>123.0</ele><time>2026-04-20T06:29:45.317Z</time></trkpt><trkpt lat="41.953475" lon="12.787115"><ele>123.33333333333334</ele><time>2026-04-20T06:29:46.319Z</time></trkpt><trkpt lat="41.953295" lon="12.7870983"><ele>123.66666666666667</ele><time>2026-04-20T06:29:47.319Z</time></trkpt><trkpt lat="41.9531167" lon="12.7870867"><ele>124.0</ele><time>2026-04-20T06:29:48.317Z</time></trkpt><trkpt lat="41.9529417" lon="12.7870917"><ele>124.0</ele><time>2026-04-20T06:29:49.316Z</time></trkpt><trkpt lat="41.952765" lon="12.7871217"><ele>124.0</ele><time>2026-04-20T06:29:50.318Z</time></trkpt><trkpt lat="41.952595" lon="12.787185"><ele>124.0</ele><time>2026-04-20T06:29:51.317Z</time></trkpt><trkpt lat="41.9524283" lon="12.7872783"><ele>125.33333333333334</ele><time>2026-04-20T06:29:52.317Z</time></trkpt><trkpt lat="41.9522617" lon="12.7873867"><ele>126.66666666666666</ele><time>2026-04-20T06:29:53.316Z</time></trkpt><trkpt lat="41.9520967" lon="12.7875033"><ele>128.0</ele><time>2026-04-20T06:29:54.317Z</time></trkpt><trkpt lat="41.9519267" lon="12.787625"><ele>130.66666666666666</ele><time>2026-04-20T06:29:55.316Z</time></trkpt><trkpt lat="41.95175" lon="12.7877467"><ele>133.33333333333334</ele><time>2026-04-20T06:29:56.318Z</time></trkpt><trkpt lat="41.95157" lon="12.7878733"><ele>136.0</ele><time>2026-04-20T06:29:57.319Z</time></trkpt><trkpt lat="41.9513883" lon="12.7880017"><ele>136.0</ele><time>2026-04-20T06:29:58.318Z</time></trkpt><trkpt lat="41.9512033" lon="12.788135"><ele>136.0</ele><time>2026-04-20T06:29:59.32Z</time></trkpt><trkpt lat="41.9510167" lon="12.788265"><ele>136.0</ele><time>2026-04-20T06:30:00.317Z</time></trkpt><trkpt lat="41.9508333" lon="12.788395"><ele>140.66666666666669</ele><time>2026-04-20T06:30:01.317Z</time></trkpt><trkpt lat="41.9506517" lon="12.78853"><ele>145.33333333333334</ele><time>2026-04-20T06:30:02.317Z</time></trkpt><trkpt lat="41.9504717" lon="12.78867"><ele>150.0</ele><time>2026-04-20T06:30:03.318Z</time></trkpt><trkpt lat="41.95029" lon="12.7888233"><ele>150.0</ele><time>2026-04-20T06:30:04.317Z</time></trkpt><trkpt lat="41.9501117" lon="12.7889817"><ele>150.0</ele><time>2026-04-20T06:30:05.316Z</time></trkpt><trkpt lat="41.949935" lon="12.7891383"><ele>150.0</ele><time>2026-04-20T06:30:06.317Z</time></trkpt><trkpt lat="41.9497567" lon="12.7893017"><ele>154.33333333333334</ele><time>2026-04-20T06:30:07.316Z</time></trkpt><trkpt lat="41.9495817" lon="12.7894683"><ele>158.66666666666669</ele><time>2026-04-20T06:30:08.317Z</time></trkpt><trkpt lat="41.9494133" lon="12.7896367"><ele>163.0</ele><time>2026-04-20T06:30:09.317Z</time></trkpt><trkpt lat="41.9492467" lon="12.789805"><ele>164.0</ele><time>2026-04-20T06:30:10.316Z</time></trkpt><trkpt lat="41.9490883" lon="12.7899683"><ele>165.0</ele><time>2026-04-20T06:30:11.317Z</time></trkpt><trkpt lat="41.9489417" lon="12.7901233"><ele>166.0</ele><time>2026-04-20T06:30:12.318Z</time></trkpt><trkpt lat="41.9488067" lon="12.7902733"><ele>166.0</ele><time>2026-04-20T06:30:13.316Z</time></trkpt><trkpt lat="41.94869" lon="12.7904283"><ele>166.0</ele><time>2026-04-20T06:30:14.317Z</time></trkpt><trkpt lat="41.94859" lon="12.7905917"><ele>166.0</ele><time>2026-04-20T06:30:15.318Z</time></trkpt><trkpt lat="41.948515" lon="12.790775"><ele>166.0</ele><time>2026-04-20T06:30:16.316Z</time></trkpt><trkpt lat="41.94846" lon="12.790975"><ele>166.0</ele><time>2026-04-20T06:30:17.317Z</time></trkpt><trkpt lat="41.9484217" lon="12.791175"><ele>166.0</ele><time>2026-04-20T06:30:18.32Z</time></trkpt><trkpt lat="41.9483967" lon="12.7913717"><ele>165.5</ele><time>2026-04-20T06:30:19.32Z</time></trkpt><trkpt lat="41.9483783" lon="12.7915533"><ele>165.0</ele><time>2026-04-20T06:30:20.319Z</time></trkpt><trkpt lat="41.948355" lon="12.7917217"><ele>164.5</ele><time>2026-04-20T06:30:21.32Z</time></trkpt><trkpt lat="41.9483267" lon="12.7918783"><ele>164.0</ele><time>2026-04-20T06:30:22.319Z</time></trkpt><trkpt lat="41.9482767" lon="12.7920317"><ele>164.0</ele><time>2026-04-20T06:30:23.319Z</time></trkpt><trkpt lat="41.948205" lon="12.7921717"><ele>164.0</ele><time>2026-04-20T06:30:24.319Z</time></trkpt><trkpt lat="41.9481233" lon="12.7923"><ele>164.0</ele><time>2026-04-20T06:30:25.316Z</time></trkpt><trkpt lat="41.948045" lon="12.79241"><ele>164.0</ele><time>2026-04-20T06:30:26.317Z</time></trkpt><trkpt lat="41.94797" lon="12.7925033"><ele>164.0</ele><time>2026-04-20T06:30:27.317Z</time></trkpt><trkpt lat="41.9478983" lon="12.792595"><ele>164.0</ele><time>2026-04-20T06:30:28.317Z</time></trkpt><trkpt lat="41.9478367" lon="12.7926867"><ele>164.0</ele><time>2026-04-20T06:30:29.317Z</time></trkpt><trkpt lat="41.947785" lon="12.7927767"><ele>164.0</ele><time>2026-04-20T06:30:30.316Z</time></trkpt><trkpt lat="41.9477633" lon="12.7928683"><ele>164.0</ele><time>2026-04-20T06:30:31.317Z</time></trkpt><trkpt lat="41.9477567" lon="12.792965"><ele>164.0</ele><time>2026-04-20T06:30:32.319Z</time></trkpt><trkpt lat="41.947775" lon="12.79307"><ele>166.2</ele><time>2026-04-20T06:30:33.316Z</time></trkpt><trkpt lat="41.947815" lon="12.7931683"><ele>168.39999999999998</ele><time>2026-04-20T06:30:34.317Z</time></trkpt><trkpt lat="41.9478833" lon="12.79324"><ele>170.6</ele><time>2026-04-20T06:30:35.316Z</time></trkpt><trkpt lat="41.9479867" lon="12.793275"><ele>172.8</ele><time>2026-04-20T06:30:36.316Z</time></trkpt><trkpt lat="41.94812" lon="12.79327"><ele>175.0</ele><time>2026-04-20T06:30:37.316Z</time></trkpt><trkpt lat="41.94824" lon="12.793265"><ele>175.0</ele><time>2026-04-20T06:30:38.318Z</time></trkpt><trkpt lat="41.948355" lon="12.7932583"><ele>175.0</ele><time>2026-04-20T06:30:39.316Z</time></trkpt><trkpt lat="41.9484717" lon="12.7932417"><ele>175.0</ele><time>2026-04-20T06:30:40.316Z</time></trkpt><trkpt lat="41.94858" lon="12.7932067"><ele>175.0</ele><time>2026-04-20T06:30:41.317Z</time></trkpt><trkpt lat="41.94868" lon="12.7931617"><ele>175.0</ele><time>2026-04-20T06:30:42.316Z</time></trkpt><trkpt lat="41.9487683" lon="12.7931067"><ele>175.8</ele><time>2026-04-20T06:30:43.32Z</time></trkpt><trkpt lat="41.9488533" lon="12.79303"><ele>176.6</ele><time>2026-04-20T06:30:44.319Z</time></trkpt><trkpt lat="41.9489133" lon="12.7929267"><ele>177.39999999999998</ele><time>2026-04-20T06:30:45.317Z</time></trkpt><trkpt lat="41.9489517" lon="12.7927983"><ele>178.2</ele><time>2026-04-20T06:30:46.318Z</time></trkpt><trkpt lat="41.948965" lon="12.7926583"><ele>179.0</ele><time>2026-04-20T06:30:47.319Z</time></trkpt><trkpt lat="41.948965" lon="12.79252"><ele>179.0</ele><time>2026-04-20T06:30:48.32Z</time></trkpt><trkpt lat="41.9489583" lon="12.79238"><ele>179.0</ele><time>2026-04-20T06:30:49.319Z</time></trkpt><trkpt lat="41.94896" lon="12.79224"><ele>179.0</ele><time>2026-04-20T06:30:50.318Z</time></trkpt><trkpt lat="41.9489667" lon="12.7921"><ele>179.0</ele><time>2026-04-20T06:30:51.319Z</time></trkpt><trkpt lat="41.9489867" lon="12.7919583"><ele>179.0</ele><time>2026-04-20T06:30:52.318Z</time></trkpt><trkpt lat="41.9490283" lon="12.7918233"><ele>178.0</ele><time>2026-04-20T06:30:53.317Z</time></trkpt><trkpt lat="41.9490833" lon="12.7916917"><ele>177.0</ele><time>2026-04-20T06:30:54.319Z</time></trkpt><trkpt lat="41.9491617" lon="12.79157"><ele>176.0</ele><time>2026-04-20T06:30:55.315Z</time></trkpt><trkpt lat="41.9492567" lon="12.7914683"><ele>175.0</ele><time>2026-04-20T06:30:56.316Z</time></trkpt><trkpt lat="41.9493667" lon="12.7913867"><ele>180.25</ele><time>2026-04-20T06:30:57.316Z</time></trkpt><trkpt lat="41.9494933" lon="12.7913167"><ele>185.5</ele><time>2026-04-20T06:30:58.317Z</time></trkpt><trkpt lat="41.9496217" lon="12.7912583"><ele>190.75</ele><time>2026-04-20T06:30:59.316Z</time></trkpt><trkpt lat="41.949755" lon="12.7912083"><ele>196.0</ele><time>2026-04-20T06:31:00.317Z</time></trkpt><trkpt lat="41.9498967" lon="12.7911617"><ele>196.0</ele><time>2026-04-20T06:31:01.316Z</time></trkpt><trkpt lat="41.9500367" lon="12.791115"><ele>196.0</ele><time>2026-04-20T06:31:02.317Z</time></trkpt><trkpt lat="41.9501767" lon="12.791075"><ele>196.0</ele><time>2026-04-20T06:31:03.317Z</time></trkpt><trkpt lat="41.9503233" lon="12.791035"><ele>196.0</ele><time>2026-04-20T06:31:04.315Z</time></trkpt><trkpt lat="41.950475" lon="12.7910183"><ele>193.0</ele><time>2026-04-20T06:31:05.317Z</time></trkpt><trkpt lat="41.9506367" lon="12.791005"><ele>190.0</ele><time>2026-04-20T06:31:06.316Z</time></trkpt><trkpt lat="41.9508133" lon="12.7909983"><ele>187.0</ele><time>2026-04-20T06:31:07.317Z</time></trkpt><trkpt lat="41.9510133" lon="12.790995"><ele>198.5</ele><time>2026-04-20T06:31:08.316Z</time></trkpt><trkpt lat="41.95124" lon="12.7910083"><ele>210.0</ele><time>2026-04-20T06:31:09.316Z</time></trkpt><trkpt lat="41.9514767" lon="12.7910283"><ele>211.0</ele><time>2026-04-20T06:31:10.315Z</time></trkpt><trkpt lat="41.9517083" lon="12.7910467"><ele>212.0</ele><time>2026-04-20T06:31:11.317Z</time></trkpt><trkpt lat="41.9519283" lon="12.7910733"><ele>212.0</ele><time>2026-04-20T06:31:12.318Z</time></trkpt><trkpt lat="41.9521317" lon="12.791105"><ele>212.0</ele><time>2026-04-20T06:31:13.317Z</time></trkpt><trkpt lat="41.95233" lon="12.7911483"><ele>212.0</ele><time>2026-04-20T06:31:14.317Z</time></trkpt><trkpt lat="41.95252" lon="12.7911983"><ele>211.66666666666669</ele><time>2026-04-20T06:31:15.317Z</time></trkpt><trkpt lat="41.9527083" lon="12.7912467"><ele>211.33333333333331</ele><time>2026-04-20T06:31:16.319Z</time></trkpt><trkpt lat="41.952895" lon="12.791295"><ele>211.0</ele><time>2026-04-20T06:31:17.319Z</time></trkpt><trkpt lat="41.95308" lon="12.7913467"><ele>211.0</ele><time>2026-04-20T06:31:18.319Z</time></trkpt><trkpt lat="41.95326" lon="12.791405"><ele>211.0</ele><time>2026-04-20T06:31:19.319Z</time></trkpt><trkpt lat="41.9534333" lon="12.7914583"><ele>211.0</ele><time>2026-04-20T06:31:20.319Z</time></trkpt><trkpt lat="41.9535867" lon="12.7915"><ele>211.0</ele><time>2026-04-20T06:31:21.319Z</time></trkpt><trkpt lat="41.9537167" lon="12.7915367"><ele>211.0</ele><time>2026-04-20T06:31:22.319Z</time></trkpt><trkpt lat="41.9538367" lon="12.7915667"><ele>211.0</ele><time>2026-04-20T06:31:23.319Z</time></trkpt><trkpt lat="41.9539583" lon="12.7915933"><ele>211.0</ele><time>2026-04-20T06:31:24.319Z</time></trkpt><trkpt lat="41.95408" lon="12.7916217"><ele>211.0</ele><time>2026-04-20T06:31:25.316Z</time></trkpt><trkpt lat="41.9541967" lon="12.7916517"><ele>211.0</ele><time>2026-04-20T06:31:26.319Z</time></trkpt><trkpt lat="41.9543117" lon="12.7916783"><ele>211.0</ele><time>2026-04-20T06:31:27.316Z</time></trkpt><trkpt lat="41.954425" lon="12.7917067"><ele>211.0</ele><time>2026-04-20T06:31:28.316Z</time></trkpt><trkpt lat="41.954525" lon="12.7917367"><ele>210.49999999999997</ele><time>2026-04-20T06:31:29.317Z</time></trkpt><trkpt lat="41.9546133" lon="12.79176"><ele>210.0</ele><time>2026-04-20T06:31:30.316Z</time></trkpt><trkpt lat="41.9546933" lon="12.7917767"><ele>209.5</ele><time>2026-04-20T06:31:31.316Z</time></trkpt><trkpt lat="41.954765" lon="12.7917983"><ele>209.0</ele><time>2026-04-20T06:31:32.316Z</time></trkpt><trkpt lat="41.9548317" lon="12.7918217"><ele>208.49999999999997</ele><time>2026-04-20T06:31:33.317Z</time></trkpt><trkpt lat="41.95493" lon="12.7918533"><ele>208.0</ele><time>2026-04-20T06:31:35.317Z</time></trkpt><trkpt lat="41.955005" lon="12.7918783"><ele>211.4</ele><time>2026-04-20T06:31:40.318Z</time></trkpt><trkpt lat="41.95508" lon="12.791895"><ele>214.8</ele><time>2026-04-20T06:31:42.317Z</time></trkpt><trkpt lat="41.9551717" lon="12.7919367"><ele>218.2</ele><time>2026-04-20T06:31:44.316Z</time></trkpt><trkpt lat="41.9552733" lon="12.7919767"><ele>221.6</ele><time>2026-04-20T06:31:46.32Z</time></trkpt><trkpt lat="41.9553967" lon="12.7919967"><ele>225.0</ele><time>2026-04-20T06:31:48.32Z</time></trkpt><trkpt lat="41.9554717" lon="12.7920167"><ele>225.0</ele><time>2026-04-20T06:31:49.319Z</time></trkpt><trkpt lat="41.955555" lon="12.79204"><ele>225.0</ele><time>2026-04-20T06:31:50.319Z</time></trkpt><trkpt lat="41.95564" lon="12.7920617"><ele>225.0</ele><time>2026-04-20T06:31:51.318Z</time></trkpt><trkpt lat="41.955735" lon="12.7920917"><ele>225.0</ele><time>2026-04-20T06:31:52.318Z</time></trkpt><trkpt lat="41.95584" lon="12.79213"><ele>225.0</ele><time>2026-04-20T06:31:53.319Z</time></trkpt><trkpt lat="41.9559483" lon="12.7921783"><ele>224.2</ele><time>2026-04-20T06:31:54.318Z</time></trkpt><trkpt lat="41.9560617" lon="12.7922367"><ele>223.4</ele><time>2026-04-20T06:31:55.316Z</time></trkpt><trkpt lat="41.9561633" lon="12.7922917"><ele>222.60000000000002</ele><time>2026-04-20T06:31:56.317Z</time></trkpt><trkpt lat="41.9562567" lon="12.7923417"><ele>221.8</ele><time>2026-04-20T06:31:57.317Z</time></trkpt><trkpt lat="41.9563483" lon="12.792395"><ele>221.0</ele><time>2026-04-20T06:31:58.317Z</time></trkpt><trkpt lat="41.95644" lon="12.792455"><ele>221.0</ele><time>2026-04-20T06:31:59.316Z</time></trkpt><trkpt lat="41.9565317" lon="12.79252"><ele>221.00000000000003</ele><time>2026-04-20T06:32:00.317Z</time></trkpt><trkpt lat="41.956625" lon="12.7925817"><ele>221.00000000000003</ele><time>2026-04-20T06:32:01.316Z</time></trkpt><trkpt lat="41.9567167" lon="12.7926467"><ele>221.0</ele><time>2026-04-20T06:32:02.316Z</time></trkpt><trkpt lat="41.9568067" lon="12.7927117"><ele>221.0</ele><time>2026-04-20T06:32:03.317Z</time></trkpt><trkpt lat="41.9568983" lon="12.792775"><ele>223.8</ele><time>2026-04-20T06:32:04.316Z</time></trkpt><trkpt lat="41.9569883" lon="12.7928367"><ele>226.60000000000002</ele><time>2026-04-20T06:32:05.317Z</time></trkpt><trkpt lat="41.9570783" lon="12.7929017"><ele>229.4</ele><time>2026-04-20T06:32:06.317Z</time></trkpt><trkpt lat="41.9571667" lon="12.7929683"><ele>232.2</ele><time>2026-04-20T06:32:07.317Z</time></trkpt><trkpt lat="41.9572567" lon="12.7930267"><ele>235.0</ele><time>2026-04-20T06:32:08.316Z</time></trkpt><trkpt lat="41.9573467" lon="12.7930883"><ele>235.0</ele><time>2026-04-20T06:32:09.317Z</time></trkpt><trkpt lat="41.95744" lon="12.793155"><ele>235.0</ele><time>2026-04-20T06:32:10.316Z</time></trkpt><trkpt lat="41.9575383" lon="12.7932217"><ele>235.0</ele><time>2026-04-20T06:32:11.316Z</time></trkpt><trkpt lat="41.95764" lon="12.79329"><ele>235.0</ele><time>2026-04-20T06:32:12.316Z</time></trkpt><trkpt lat="41.9577467" lon="12.793365"><ele>233.5</ele><time>2026-04-20T06:32:13.316Z</time></trkpt><trkpt lat="41.9578617" lon="12.7934483"><ele>232.0</ele><time>2026-04-20T06:32:14.317Z</time></trkpt><trkpt lat="41.9579783" lon="12.7935383"><ele>230.5</ele><time>2026-04-20T06:32:15.318Z</time></trkpt><trkpt lat="41.9580933" lon="12.7936283"><ele>229.0</ele><time>2026-04-20T06:32:16.316Z</time></trkpt><trkpt lat="41.95821" lon="12.7937167"><ele>230.25</ele><time>2026-04-20T06:32:17.317Z</time></trkpt><trkpt lat="41.958325" lon="12.7938083"><ele>231.5</ele><time>2026-04-20T06:32:18.317Z</time></trkpt><trkpt lat="41.9584417" lon="12.793905"><ele>232.75</ele><time>2026-04-20T06:32:19.318Z</time></trkpt><trkpt lat="41.95856" lon="12.7940017"><ele>234.0</ele><time>2026-04-20T06:32:20.317Z</time></trkpt><trkpt lat="41.95868" lon="12.7940967"><ele>234.0</ele><time>2026-04-20T06:32:21.319Z</time></trkpt><trkpt lat="41.9588" lon="12.7941867"><ele>234.0</ele><time>2026-04-20T06:32:22.319Z</time></trkpt><trkpt lat="41.958915" lon="12.7942767"><ele>234.0</ele><time>2026-04-20T06:32:23.318Z</time></trkpt><trkpt lat="41.959025" lon="12.7943633"><ele>234.0</ele><time>2026-04-20T06:32:24.318Z</time></trkpt><trkpt lat="41.9591267" lon="12.7944433"><ele>236.0</ele><time>2026-04-20T06:32:25.316Z</time></trkpt><trkpt lat="41.9592267" lon="12.7945233"><ele>238.0</ele><time>2026-04-20T06:32:26.317Z</time></trkpt><trkpt lat="41.95933" lon="12.79461"><ele>240.0</ele><time>2026-04-20T06:32:27.317Z</time></trkpt><trkpt lat="41.959435" lon="12.794705"><ele>242.0</ele><time>2026-04-20T06:32:28.319Z</time></trkpt><trkpt lat="41.9595433" lon="12.7948033"><ele>242.0</ele><time>2026-04-20T06:32:29.316Z</time></trkpt><trkpt lat="41.9596467" lon="12.794895"><ele>242.0</ele><time>2026-04-20T06:32:30.316Z</time></trkpt><trkpt lat="41.9597417" lon="12.79498"><ele>242.0</ele><time>2026-04-20T06:32:31.316Z</time></trkpt><trkpt lat="41.9598367" lon="12.79506"><ele>242.0</ele><time>2026-04-20T06:32:32.319Z</time></trkpt><trkpt lat="41.959915" lon="12.795125"><ele>242.0</ele><time>2026-04-20T06:32:33.318Z</time></trkpt><trkpt lat="41.959985" lon="12.79519"><ele>241.8</ele><time>2026-04-20T06:32:34.315Z</time></trkpt><trkpt lat="41.9600533" lon="12.795265"><ele>241.6</ele><time>2026-04-20T06:32:35.316Z</time></trkpt><trkpt lat="41.96012" lon="12.79534"><ele>241.40000000000003</ele><time>2026-04-20T06:32:36.316Z</time></trkpt><trkpt lat="41.96019" lon="12.795425"><ele>241.20000000000002</ele><time>2026-04-20T06:32:37.315Z</time></trkpt><trkpt lat="41.96026" lon="12.7955183"><ele>241.0</ele><time>2026-04-20T06:32:38.315Z</time></trkpt><trkpt lat="41.960325" lon="12.795615"><ele>241.0</ele><time>2026-04-20T06:32:39.316Z</time></trkpt><trkpt lat="41.96038" lon="12.7957183"><ele>241.00000000000003</ele><time>2026-04-20T06:32:40.316Z</time></trkpt><trkpt lat="41.9604317" lon="12.79583"><ele>241.00000000000003</ele><time>2026-04-20T06:32:41.317Z</time></trkpt><trkpt lat="41.9604817" lon="12.795935"><ele>241.0</ele><time>2026-04-20T06:32:42.318Z</time></trkpt><trkpt lat="41.9605233" lon="12.7960383"><ele>241.0</ele><time>2026-04-20T06:32:43.315Z</time></trkpt><trkpt lat="41.960565" lon="12.79614"><ele>241.60000000000002</ele><time>2026-04-20T06:32:44.317Z</time></trkpt><trkpt lat="41.9606033" lon="12.7962333"><ele>242.20000000000002</ele><time>2026-04-20T06:32:45.317Z</time></trkpt><trkpt lat="41.9606317" lon="12.79631"><ele>242.79999999999998</ele><time>2026-04-20T06:32:46.316Z</time></trkpt><trkpt lat="41.96066" lon="12.79645"><ele>243.39999999999998</ele><time>2026-04-20T06:32:48.316Z</time></trkpt><trkpt lat="41.960655" lon="12.7966183"><ele>244.0</ele><time>2026-04-20T06:32:50.318Z</time></trkpt><trkpt lat="41.9606333" lon="12.7967133"><ele>244.0</ele><time>2026-04-20T06:32:51.319Z</time></trkpt><trkpt lat="41.9606" lon="12.7968067"><ele>243.99999999999997</ele><time>2026-04-20T06:32:52.318Z</time></trkpt><trkpt lat="41.96055" lon="12.796895"><ele>243.99999999999997</ele><time>2026-04-20T06:32:53.318Z</time></trkpt><trkpt lat="41.96048" lon="12.7969817"><ele>244.0</ele><time>2026-04-20T06:32:54.316Z</time></trkpt><trkpt lat="41.960395" lon="12.7970717"><ele>244.0</ele><time>2026-04-20T06:32:55.32Z</time></trkpt><trkpt lat="41.9603067" lon="12.7971617"><ele>244.39999999999998</ele><time>2026-04-20T06:32:56.317Z</time></trkpt><trkpt lat="41.9602267" lon="12.7972583"><ele>244.79999999999998</ele><time>2026-04-20T06:32:57.319Z</time></trkpt><trkpt lat="41.9601467" lon="12.797355"><ele>245.20000000000002</ele><time>2026-04-20T06:32:58.319Z</time></trkpt><trkpt lat="41.96007" lon="12.79745"><ele>245.60000000000002</ele><time>2026-04-20T06:32:59.316Z</time></trkpt><trkpt lat="41.96" lon="12.797545"><ele>246.0</ele><time>2026-04-20T06:33:00.319Z</time></trkpt><trkpt lat="41.959945" lon="12.7976383"><ele>246.16666666666666</ele><time>2026-04-20T06:33:01.318Z</time></trkpt><trkpt lat="41.9598967" lon="12.79771"><ele>246.33333333333331</ele><time>2026-04-20T06:33:02.319Z</time></trkpt><trkpt lat="41.959845" lon="12.7977783"><ele>246.5</ele><time>2026-04-20T06:33:03.317Z</time></trkpt><trkpt lat="41.9597633" lon="12.7978667"><ele>246.66666666666666</ele><time>2026-04-20T06:33:05.316Z</time></trkpt><trkpt lat="41.9596733" lon="12.7979383"><ele>246.83333333333331</ele><time>2026-04-20T06:33:07.318Z</time></trkpt><trkpt lat="41.95962" lon="12.798"><ele>247.0</ele><time>2026-04-20T06:33:08.315Z</time></trkpt><trkpt lat="41.9595633" lon="12.7980733"><ele>246.99999999999997</ele><time>2026-04-20T06:33:09.318Z</time></trkpt><trkpt lat="41.95951" lon="12.7981483"><ele>247.0</ele><time>2026-04-20T06:33:10.316Z</time></trkpt><trkpt lat="41.9594533" lon="12.7982217"><ele>247.0</ele><time>2026-04-20T06:33:11.316Z</time></trkpt><trkpt lat="41.9594067" lon="12.7982983"><ele>247.0</ele><time>2026-04-20T06:33:12.316Z</time></trkpt><trkpt lat="41.9593733" lon="12.79839"><ele>246.99999999999997</ele><time>2026-04-20T06:33:13.315Z</time></trkpt><trkpt lat="41.9593633" lon="12.7985067"><ele>247.0</ele><time>2026-04-20T06:33:14.315Z</time></trkpt><trkpt lat="41.9593683" lon="12.7986317"><ele>247.8</ele><time>2026-04-20T06:33:15.317Z</time></trkpt><trkpt lat="41.959375" lon="12.7987533"><ele>248.6</ele><time>2026-04-20T06:33:16.318Z</time></trkpt><trkpt lat="41.95938" lon="12.7988717"><ele>249.40000000000003</ele><time>2026-04-20T06:33:17.317Z</time></trkpt><trkpt lat="41.9593867" lon="12.798995"><ele>250.20000000000002</ele><time>2026-04-20T06:33:18.316Z</time></trkpt><trkpt lat="41.95939" lon="12.79913"><ele>251.0</ele><time>2026-04-20T06:33:19.319Z</time></trkpt><trkpt lat="41.95938" lon="12.799265"><ele>251.4</ele><time>2026-04-20T06:33:20.319Z</time></trkpt><trkpt lat="41.95937" lon="12.7994017"><ele>251.8</ele><time>2026-04-20T06:33:21.317Z</time></trkpt><trkpt lat="41.9593733" lon="12.7995417"><ele>252.20000000000002</ele><time>2026-04-20T06:33:22.316Z</time></trkpt><trkpt lat="41.9593767" lon="12.7996733"><ele>252.60000000000002</ele><time>2026-04-20T06:33:23.317Z</time></trkpt><trkpt lat="41.95938" lon="12.799805"><ele>253.0</ele><time>2026-04-20T06:33:24.316Z</time></trkpt><trkpt lat="41.959375" lon="12.7999333"><ele>253.0</ele><time>2026-04-20T06:33:25.318Z</time></trkpt><trkpt lat="41.9593833" lon="12.8000617"><ele>253.0</ele><time>2026-04-20T06:33:26.316Z</time></trkpt><trkpt lat="41.9593667" lon="12.800195"><ele>253.0</ele><time>2026-04-20T06:33:27.315Z</time></trkpt><trkpt lat="41.9593617" lon="12.8003183"><ele>253.0</ele><time>2026-04-20T06:33:28.315Z</time></trkpt><trkpt lat="41.959375" lon="12.8004383"><ele>253.0</ele><time>2026-04-20T06:33:29.319Z</time></trkpt><trkpt lat="41.9593783" lon="12.8005567"><ele>252.49999999999997</ele><time>2026-04-20T06:33:30.318Z</time></trkpt><trkpt lat="41.9593817" lon="12.8006667"><ele>252.0</ele><time>2026-04-20T06:33:31.316Z</time></trkpt><trkpt lat="41.9593983" lon="12.800775"><ele>251.5</ele><time>2026-04-20T06:33:32.318Z</time></trkpt><trkpt lat="41.959415" lon="12.8008833"><ele>251.0</ele><time>2026-04-20T06:33:33.317Z</time></trkpt><trkpt lat="41.9594317" lon="12.800975"><ele>250.49999999999997</ele><time>2026-04-20T06:33:34.316Z</time></trkpt><trkpt lat="41.95945" lon="12.8010583"><ele>250.0</ele><time>2026-04-20T06:33:35.317Z</time></trkpt><trkpt lat="41.959465" lon="12.8012083"><ele>249.0</ele><time>2026-04-20T06:33:37.316Z</time></trkpt><trkpt lat="41.95948" lon="12.80135"><ele>248.0</ele><time>2026-04-20T06:33:39.316Z</time></trkpt><trkpt lat="41.9594883" lon="12.8015133"><ele>247.0</ele><time>2026-04-20T06:33:41.317Z</time></trkpt><trkpt lat="41.9595083" lon="12.8016733"><ele>246.0</ele><time>2026-04-20T06:33:43.316Z</time></trkpt><trkpt lat="41.9595217" lon="12.80178"><ele>245.0</ele><time>2026-04-20T06:33:45.317Z</time></trkpt><trkpt lat="41.9595283" lon="12.8018783"><ele>244.66666666666669</ele><time>2026-04-20T06:33:49.316Z</time></trkpt><trkpt lat="41.9595317" lon="12.8019883"><ele>244.33333333333334</ele><time>2026-04-20T06:33:52.316Z</time></trkpt><trkpt lat="41.95955" lon="12.8020817"><ele>244.0</ele><time>2026-04-20T06:33:54.316Z</time></trkpt><trkpt lat="41.95959" lon="12.8022183"><ele>243.66666666666669</ele><time>2026-04-20T06:33:56.318Z</time></trkpt><trkpt lat="41.959615" lon="12.8022967"><ele>243.33333333333334</ele><time>2026-04-20T06:33:57.319Z</time></trkpt><trkpt lat="41.959635" lon="12.80238"><ele>243.0</ele><time>2026-04-20T06:33:58.316Z</time></trkpt><trkpt lat="41.959655" lon="12.8024617"><ele>243.0</ele><time>2026-04-20T06:33:59.315Z</time></trkpt><trkpt lat="41.9596983" lon="12.8026067"><ele>243.0</ele><time>2026-04-20T06:34:01.316Z</time></trkpt><trkpt lat="41.9597433" lon="12.8027333"><ele>243.0</ele><time>2026-04-20T06:34:03.316Z</time></trkpt><trkpt lat="41.9597817" lon="12.8028583"><ele>243.0</ele><time>2026-04-20T06:34:05.317Z</time></trkpt><trkpt lat="41.9598333" lon="12.80301"><ele>243.0</ele><time>2026-04-20T06:34:07.318Z</time></trkpt><trkpt lat="41.959925" lon="12.803135"><ele>240.60000000000002</ele><time>2026-04-20T06:34:09.316Z</time></trkpt><trkpt lat="41.9600217" lon="12.8031817"><ele>238.20000000000002</ele><time>2026-04-20T06:34:10.316Z</time></trkpt><trkpt lat="41.9601" lon="12.80321"><ele>235.8</ele><time>2026-04-20T06:34:11.316Z</time></trkpt><trkpt lat="41.9601867" lon="12.8032133"><ele>233.4</ele><time>2026-04-20T06:34:12.318Z</time></trkpt><trkpt lat="41.9602867" lon="12.8031883"><ele>231.0</ele><time>2026-04-20T06:34:13.319Z</time></trkpt><trkpt lat="41.9603933" lon="12.80317"><ele>230.0</ele><time>2026-04-20T06:34:14.32Z</time></trkpt><trkpt lat="41.960505" lon="12.8031467"><ele>229.00000000000003</ele><time>2026-04-20T06:34:15.321Z</time></trkpt><trkpt lat="41.96061" lon="12.80312"><ele>228.00000000000003</ele><time>2026-04-20T06:34:16.318Z</time></trkpt><trkpt lat="41.9607117" lon="12.803095"><ele>227.0</ele><time>2026-04-20T06:34:17.316Z</time></trkpt><trkpt lat="41.9608233" lon="12.803055"><ele>226.0</ele><time>2026-04-20T06:34:18.318Z</time></trkpt><trkpt lat="41.9609283" lon="12.80303"><ele>224.60000000000002</ele><time>2026-04-20T06:34:19.317Z</time></trkpt><trkpt lat="41.961035" lon="12.8029917"><ele>223.20000000000002</ele><time>2026-04-20T06:34:20.318Z</time></trkpt><trkpt lat="41.96113" lon="12.8029617"><ele>221.79999999999998</ele><time>2026-04-20T06:34:21.316Z</time></trkpt><trkpt lat="41.96123" lon="12.80293"><ele>220.39999999999998</ele><time>2026-04-20T06:34:22.316Z</time></trkpt><trkpt lat="41.9613283" lon="12.8028917"><ele>219.0</ele><time>2026-04-20T06:34:23.317Z</time></trkpt><trkpt lat="41.9614267" lon="12.8028417"><ele>219.0</ele><time>2026-04-20T06:34:24.317Z</time></trkpt><trkpt lat="41.96152" lon="12.8027983"><ele>219.0</ele><time>2026-04-20T06:34:25.316Z</time></trkpt><trkpt lat="41.961625" lon="12.8027467"><ele>219.0</ele><time>2026-04-20T06:34:26.318Z</time></trkpt><trkpt lat="41.9617417" lon="12.802695"><ele>219.0</ele><time>2026-04-20T06:34:27.321Z</time></trkpt><trkpt lat="41.9618583" lon="12.802625"><ele>219.75</ele><time>2026-04-20T06:34:28.319Z</time></trkpt><trkpt lat="41.961975" lon="12.802565"><ele>220.5</ele><time>2026-04-20T06:34:29.317Z</time></trkpt><trkpt lat="41.9620867" lon="12.802505"><ele>221.25</ele><time>2026-04-20T06:34:30.317Z</time></trkpt><trkpt lat="41.96219" lon="12.80244"><ele>222.0</ele><time>2026-04-20T06:34:31.32Z</time></trkpt><trkpt lat="41.9622883" lon="12.80238"><ele>222.0</ele><time>2026-04-20T06:34:32.316Z</time></trkpt><trkpt lat="41.96238" lon="12.8023133"><ele>222.0</ele><time>2026-04-20T06:34:33.318Z</time></trkpt><trkpt lat="41.9624717" lon="12.80225"><ele>222.0</ele><time>2026-04-20T06:34:34.316Z</time></trkpt><trkpt lat="41.9625667" lon="12.80219"><ele>222.0</ele><time>2026-04-20T06:34:35.317Z</time></trkpt><trkpt lat="41.9626567" lon="12.802125"><ele>222.0</ele><time>2026-04-20T06:34:36.317Z</time></trkpt><trkpt lat="41.9627517" lon="12.8020617"><ele>222.39999999999998</ele><time>2026-04-20T06:34:37.316Z</time></trkpt><trkpt lat="41.9628433" lon="12.802"><ele>222.79999999999998</ele><time>2026-04-20T06:34:38.318Z</time></trkpt><trkpt lat="41.9629333" lon="12.8019483"><ele>223.2</ele><time>2026-04-20T06:34:39.318Z</time></trkpt><trkpt lat="41.9630183" lon="12.80191"><ele>223.6</ele><time>2026-04-20T06:34:40.32Z</time></trkpt><trkpt lat="41.9630917" lon="12.8018583"><ele>224.0</ele><time>2026-04-20T06:34:41.317Z</time></trkpt><trkpt lat="41.9631717" lon="12.801815"><ele>223.33333333333334</ele><time>2026-04-20T06:34:42.318Z</time></trkpt><trkpt lat="41.963255" lon="12.8017733"><ele>222.66666666666669</ele><time>2026-04-20T06:34:43.316Z</time></trkpt><trkpt lat="41.9633383" lon="12.8017283"><ele>222.0</ele><time>2026-04-20T06:34:44.317Z</time></trkpt><trkpt lat="41.96342" lon="12.801685"><ele>221.33333333333331</ele><time>2026-04-20T06:34:45.318Z</time></trkpt><trkpt lat="41.9635067" lon="12.8016517"><ele>220.66666666666666</ele><time>2026-04-20T06:34:46.317Z</time></trkpt><trkpt lat="41.96359" lon="12.80162"><ele>220.0</ele><time>2026-04-20T06:34:47.316Z</time></trkpt><trkpt lat="41.9636717" lon="12.8016033"><ele>220.0</ele><time>2026-04-20T06:34:48.318Z</time></trkpt><trkpt lat="41.963755" lon="12.8015933"><ele>220.0</ele><time>2026-04-20T06:34:49.316Z</time></trkpt><trkpt lat="41.9638433" lon="12.801565"><ele>220.0</ele><time>2026-04-20T06:34:50.317Z</time></trkpt><trkpt lat="41.9639383" lon="12.8015783"><ele>220.0</ele><time>2026-04-20T06:34:51.317Z</time></trkpt><trkpt lat="41.9640333" lon="12.8016033"><ele>220.0</ele><time>2026-04-20T06:34:52.317Z</time></trkpt><trkpt lat="41.9641317" lon="12.8016367"><ele>220.66666666666666</ele><time>2026-04-20T06:34:53.318Z</time></trkpt><trkpt lat="41.9642367" lon="12.8016783"><ele>221.33333333333331</ele><time>2026-04-20T06:34:54.317Z</time></trkpt><trkpt lat="41.9643217" lon="12.8017033"><ele>222.0</ele><time>2026-04-20T06:34:55.316Z</time></trkpt><trkpt lat="41.9643983" lon="12.8017217"><ele>222.66666666666669</ele><time>2026-04-20T06:34:56.32Z</time></trkpt><trkpt lat="41.9644683" lon="12.8017283"><ele>223.33333333333334</ele><time>2026-04-20T06:34:57.319Z</time></trkpt><trkpt lat="41.9645333" lon="12.8017233"><ele>224.0</ele><time>2026-04-20T06:34:58.316Z</time></trkpt><trkpt lat="41.96462" lon="12.8017"><ele>224.00000000000003</ele><time>2026-04-20T06:35:00.317Z</time></trkpt><trkpt lat="41.964685" lon="12.8016883"><ele>224.0</ele><time>2026-04-20T06:35:02.32Z</time></trkpt><trkpt lat="41.9647567" lon="12.80166"><ele>224.0</ele><time>2026-04-20T06:35:04.319Z</time></trkpt><trkpt lat="41.9648667" lon="12.801615"><ele>224.0</ele><time>2026-04-20T06:35:06.32Z</time></trkpt><trkpt lat="41.9649567" lon="12.80158"><ele>224.00000000000003</ele><time>2026-04-20T06:35:08.318Z</time></trkpt><trkpt lat="41.9650267" lon="12.801595"><ele>224.0</ele><time>2026-04-20T06:35:10.316Z</time></trkpt><trkpt lat="41.9650717" lon="12.8016867"><ele>224.33333333333334</ele><time>2026-04-20T06:35:12.316Z</time></trkpt><trkpt lat="41.9650617" lon="12.80184"><ele>224.66666666666669</ele><time>2026-04-20T06:35:14.317Z</time></trkpt><trkpt lat="41.96503" lon="12.8019267"><ele>225.0</ele><time>2026-04-20T06:35:15.318Z</time></trkpt><trkpt lat="41.9649817" lon="12.802015"><ele>225.33333333333331</ele><time>2026-04-20T06:35:16.32Z</time></trkpt><trkpt lat="41.964925" lon="12.802085"><ele>225.66666666666666</ele><time>2026-04-20T06:35:17.319Z</time></trkpt><trkpt lat="41.9648717" lon="12.80215"><ele>226.0</ele><time>2026-04-20T06:35:18.317Z</time></trkpt><trkpt lat="41.9648267" lon="12.8022183"><ele>226.99999999999997</ele><time>2026-04-20T06:35:19.317Z</time></trkpt><trkpt lat="41.9647817" lon="12.8022917"><ele>228.0</ele><time>2026-04-20T06:35:20.316Z</time></trkpt><trkpt lat="41.9647283" lon="12.8023617"><ele>229.0</ele><time>2026-04-20T06:35:21.318Z</time></trkpt><trkpt lat="41.9646667" lon="12.802435"><ele>230.0</ele><time>2026-04-20T06:35:22.316Z</time></trkpt><trkpt lat="41.9646" lon="12.8025183"><ele>230.99999999999997</ele><time>2026-04-20T06:35:23.316Z</time></trkpt><trkpt lat="41.9645317" lon="12.80261"><ele>232.0</ele><time>2026-04-20T06:35:24.317Z</time></trkpt><trkpt lat="41.964465" lon="12.8027017"><ele>233.8</ele><time>2026-04-20T06:35:25.32Z</time></trkpt><trkpt lat="41.9643933" lon="12.80279"><ele>235.6</ele><time>2026-04-20T06:35:26.32Z</time></trkpt><trkpt lat="41.9643233" lon="12.80288"><ele>237.40000000000003</ele><time>2026-04-20T06:35:27.317Z</time></trkpt><trkpt lat="41.9642467" lon="12.8029717"><ele>239.20000000000002</ele><time>2026-04-20T06:35:28.318Z</time></trkpt><trkpt lat="41.9641667" lon="12.8030633"><ele>241.0</ele><time>2026-04-20T06:35:29.316Z</time></trkpt><trkpt lat="41.9640867" lon="12.8031567"><ele>241.0</ele><time>2026-04-20T06:35:30.318Z</time></trkpt><trkpt lat="41.96401" lon="12.8032533"><ele>241.00000000000003</ele><time>2026-04-20T06:35:31.317Z</time></trkpt><trkpt lat="41.9639467" lon="12.8033667"><ele>241.00000000000003</ele><time>2026-04-20T06:35:32.318Z</time></trkpt><trkpt lat="41.9638833" lon="12.803495"><ele>241.0</ele><time>2026-04-20T06:35:33.318Z</time></trkpt><trkpt lat="41.9638183" lon="12.8036317"><ele>241.0</ele><time>2026-04-20T06:35:34.317Z</time></trkpt><trkpt lat="41.9637483" lon="12.8037733"><ele>245.25</ele><time>2026-04-20T06:35:35.317Z</time></trkpt><trkpt lat="41.9636733" lon="12.8039233"><ele>249.5</ele><time>2026-04-20T06:35:36.317Z</time></trkpt><trkpt lat="41.9635967" lon="12.8040717"><ele>253.75</ele><time>2026-04-20T06:35:37.317Z</time></trkpt><trkpt lat="41.9635317" lon="12.8042283"><ele>258.0</ele><time>2026-04-20T06:35:38.317Z</time></trkpt><trkpt lat="41.963475" lon="12.804375"><ele>255.25</ele><time>2026-04-20T06:35:39.318Z</time></trkpt><trkpt lat="41.9634033" lon="12.8045067"><ele>252.5</ele><time>2026-04-20T06:35:40.32Z</time></trkpt><trkpt lat="41.96333" lon="12.8046267"><ele>249.75</ele><time>2026-04-20T06:35:41.317Z</time></trkpt><trkpt lat="41.9632367" lon="12.80473"><ele>247.0</ele><time>2026-04-20T06:35:42.317Z</time></trkpt><trkpt lat="41.9631417" lon="12.8048317"><ele>247.0</ele><time>2026-04-20T06:35:43.316Z</time></trkpt><trkpt lat="41.963045" lon="12.8049333"><ele>247.0</ele><time>2026-04-20T06:35:44.317Z</time></trkpt><trkpt lat="41.9629383" lon="12.8050283"><ele>247.0</ele><time>2026-04-20T06:35:45.317Z</time></trkpt><trkpt lat="41.962825" lon="12.8051183"><ele>247.0</ele><time>2026-04-20T06:35:46.317Z</time></trkpt><trkpt lat="41.9627" lon="12.8051933"><ele>248.75</ele><time>2026-04-20T06:35:47.317Z</time></trkpt><trkpt lat="41.9625717" lon="12.805255"><ele>250.5</ele><time>2026-04-20T06:35:48.317Z</time></trkpt><trkpt lat="41.962445" lon="12.80532"><ele>252.25</ele><time>2026-04-20T06:35:49.317Z</time></trkpt><trkpt lat="41.9623183" lon="12.80538"><ele>254.0</ele><time>2026-04-20T06:35:50.318Z</time></trkpt><trkpt lat="41.9621933" lon="12.80544"><ele>254.0</ele><time>2026-04-20T06:35:51.318Z</time></trkpt><trkpt lat="41.96206" lon="12.805505"><ele>254.0</ele><time>2026-04-20T06:35:52.317Z</time></trkpt><trkpt lat="41.96192" lon="12.8055683"><ele>254.0</ele><time>2026-04-20T06:35:53.318Z</time></trkpt><trkpt lat="41.9617767" lon="12.80563"><ele>254.0</ele><time>2026-04-20T06:35:54.316Z</time></trkpt><trkpt lat="41.9616333" lon="12.8056933"><ele>249.33333333333334</ele><time>2026-04-20T06:35:55.317Z</time></trkpt><trkpt lat="41.96149" lon="12.8057517"><ele>244.66666666666669</ele><time>2026-04-20T06:35:56.317Z</time></trkpt><trkpt lat="41.9613383" lon="12.8057933"><ele>240.0</ele><time>2026-04-20T06:35:57.317Z</time></trkpt><trkpt lat="41.96118" lon="12.8058167"><ele>240.0</ele><time>2026-04-20T06:35:58.316Z</time></trkpt><trkpt lat="41.9610367" lon="12.8058283"><ele>240.0</ele><time>2026-04-20T06:35:59.32Z</time></trkpt><trkpt lat="41.9608933" lon="12.8058317"><ele>240.0</ele><time>2026-04-20T06:36:00.32Z</time></trkpt><trkpt lat="41.9607583" lon="12.80583"><ele>240.0</ele><time>2026-04-20T06:36:01.317Z</time></trkpt><trkpt lat="41.9606317" lon="12.805835"><ele>239.75</ele><time>2026-04-20T06:36:02.317Z</time></trkpt><trkpt lat="41.9605133" lon="12.8058317"><ele>239.5</ele><time>2026-04-20T06:36:03.317Z</time></trkpt><trkpt lat="41.9603983" lon="12.8058367"><ele>239.25</ele><time>2026-04-20T06:36:04.319Z</time></trkpt><trkpt lat="41.9602817" lon="12.805855"><ele>239.0</ele><time>2026-04-20T06:36:05.32Z</time></trkpt><trkpt lat="41.9601617" lon="12.8058867"><ele>239.0</ele><time>2026-04-20T06:36:06.318Z</time></trkpt><trkpt lat="41.9600433" lon="12.805925"><ele>239.0</ele><time>2026-04-20T06:36:07.319Z</time></trkpt><trkpt lat="41.9599267" lon="12.80598"><ele>239.0</ele><time>2026-04-20T06:36:08.319Z</time></trkpt><trkpt lat="41.9598083" lon="12.80604"><ele>239.0</ele><time>2026-04-20T06:36:09.318Z</time></trkpt><trkpt lat="41.9596867" lon="12.8061167"><ele>243.75</ele><time>2026-04-20T06:36:10.317Z</time></trkpt><trkpt lat="41.95958" lon="12.8062117"><ele>248.5</ele><time>2026-04-20T06:36:11.318Z</time></trkpt><trkpt lat="41.9594767" lon="12.80632"><ele>253.25</ele><time>2026-04-20T06:36:12.316Z</time></trkpt><trkpt lat="41.9593733" lon="12.80643"><ele>258.0</ele><time>2026-04-20T06:36:13.316Z</time></trkpt><trkpt lat="41.9592783" lon="12.8065483"><ele>257.25</ele><time>2026-04-20T06:36:14.317Z</time></trkpt><trkpt lat="41.9591867" lon="12.8066733"><ele>256.5</ele><time>2026-04-20T06:36:15.32Z</time></trkpt><trkpt lat="41.9591067" lon="12.8068183"><ele>255.75</ele><time>2026-04-20T06:36:16.32Z</time></trkpt><trkpt lat="41.9590233" lon="12.8069583"><ele>255.0</ele><time>2026-04-20T06:36:17.317Z</time></trkpt><trkpt lat="41.95894" lon="12.8070933"><ele>255.0</ele><time>2026-04-20T06:36:18.316Z</time></trkpt><trkpt lat="41.9588583" lon="12.8072167"><ele>255.0</ele><time>2026-04-20T06:36:19.316Z</time></trkpt><trkpt lat="41.9587783" lon="12.8073433"><ele>255.0</ele><time>2026-04-20T06:36:20.317Z</time></trkpt><trkpt lat="41.9586967" lon="12.80749"><ele>255.0</ele><time>2026-04-20T06:36:21.316Z</time></trkpt><trkpt lat="41.9585967" lon="12.8076483"><ele>252.66666666666669</ele><time>2026-04-20T06:36:22.316Z</time></trkpt><trkpt lat="41.9584833" lon="12.8078183"><ele>250.33333333333334</ele><time>2026-04-20T06:36:23.316Z</time></trkpt><trkpt lat="41.9583583" lon="12.8079983"><ele>248.0</ele><time>2026-04-20T06:36:24.316Z</time></trkpt><trkpt lat="41.958225" lon="12.8082"><ele>248.0</ele><time>2026-04-20T06:36:25.317Z</time></trkpt><trkpt lat="41.9580967" lon="12.80841"><ele>248.0</ele><time>2026-04-20T06:36:26.319Z</time></trkpt><trkpt lat="41.9579667" lon="12.8086167"><ele>248.0</ele><time>2026-04-20T06:36:27.317Z</time></trkpt><trkpt lat="41.95784" lon="12.8088217"><ele>249.33333333333334</ele><time>2026-04-20T06:36:28.316Z</time></trkpt><trkpt lat="41.9577233" lon="12.80901"><ele>250.66666666666669</ele><time>2026-04-20T06:36:29.32Z</time></trkpt><trkpt lat="41.9576017" lon="12.8091933"><ele>252.0</ele><time>2026-04-20T06:36:30.32Z</time></trkpt><trkpt lat="41.957505" lon="12.80937"><ele>252.0</ele><time>2026-04-20T06:36:31.316Z</time></trkpt><trkpt lat="41.9574083" lon="12.80954"><ele>252.0</ele><time>2026-04-20T06:36:32.32Z</time></trkpt><trkpt lat="41.9573217" lon="12.8096917"><ele>252.0</ele><time>2026-04-20T06:36:33.32Z</time></trkpt><trkpt lat="41.9572367" lon="12.809835"><ele>252.0</ele><time>2026-04-20T06:36:34.319Z</time></trkpt><trkpt lat="41.9571667" lon="12.809965"><ele>252.0</ele><time>2026-04-20T06:36:35.32Z</time></trkpt><trkpt lat="41.9570833" lon="12.8100867"><ele>252.0</ele><time>2026-04-20T06:36:36.319Z</time></trkpt><trkpt lat="41.9570033" lon="12.8102083"><ele>252.0</ele><time>2026-04-20T06:36:37.32Z</time></trkpt><trkpt lat="41.956925" lon="12.81033"><ele>252.0</ele><time>2026-04-20T06:36:38.318Z</time></trkpt><trkpt lat="41.9568467" lon="12.8104517"><ele>251.75</ele><time>2026-04-20T06:36:39.319Z</time></trkpt><trkpt lat="41.9567667" lon="12.8105733"><ele>251.5</ele><time>2026-04-20T06:36:40.319Z</time></trkpt><trkpt lat="41.95669" lon="12.8106867"><ele>251.25</ele><time>2026-04-20T06:36:41.319Z</time></trkpt><trkpt lat="41.9566133" lon="12.8107917"><ele>251.0</ele><time>2026-04-20T06:36:42.32Z</time></trkpt><trkpt lat="41.9565483" lon="12.8109067"><ele>254.75</ele><time>2026-04-20T06:36:43.319Z</time></trkpt><trkpt lat="41.9564917" lon="12.81103"><ele>258.5</ele><time>2026-04-20T06:36:44.32Z</time></trkpt><trkpt lat="41.956445" lon="12.8111783"><ele>262.25</ele><time>2026-04-20T06:36:45.316Z</time></trkpt><trkpt lat="41.9564" lon="12.811335"><ele>266.0</ele><time>2026-04-20T06:36:46.319Z</time></trkpt><trkpt lat="41.956355" lon="12.8114967"><ele>266.0</ele><time>2026-04-20T06:36:47.319Z</time></trkpt><trkpt lat="41.9563133" lon="12.811655"><ele>266.0</ele><time>2026-04-20T06:36:48.318Z</time></trkpt><trkpt lat="41.9562733" lon="12.8118117"><ele>266.0</ele><time>2026-04-20T06:36:49.316Z</time></trkpt><trkpt lat="41.9562333" lon="12.8119683"><ele>266.0</ele><time>2026-04-20T06:36:50.317Z</time></trkpt><trkpt lat="41.956195" lon="12.812125"><ele>268.0</ele><time>2026-04-20T06:36:51.317Z</time></trkpt><trkpt lat="41.9561567" lon="12.8122783"><ele>270.0</ele><time>2026-04-20T06:36:52.317Z</time></trkpt><trkpt lat="41.9561083" lon="12.81243"><ele>272.0</ele><time>2026-04-20T06:36:53.316Z</time></trkpt><trkpt lat="41.9560567" lon="12.8125767"><ele>274.0</ele><time>2026-04-20T06:36:54.316Z</time></trkpt><trkpt lat="41.9559933" lon="12.8127133"><ele>276.0</ele><time>2026-04-20T06:36:55.317Z</time></trkpt><trkpt lat="41.9559333" lon="12.8128383"><ele>278.0</ele><time>2026-04-20T06:36:56.319Z</time></trkpt><trkpt lat="41.9558683" lon="12.8129683"><ele>280.0</ele><time>2026-04-20T06:36:57.32Z</time></trkpt><trkpt lat="41.9558133" lon="12.8130933"><ele>282.0</ele><time>2026-04-20T06:36:58.32Z</time></trkpt><trkpt lat="41.95577" lon="12.8132283"><ele>284.0</ele><time>2026-04-20T06:36:59.317Z</time></trkpt><trkpt lat="41.9557383" lon="12.8133683"><ele>280.2</ele><time>2026-04-20T06:37:00.317Z</time></trkpt><trkpt lat="41.955715" lon="12.8135133"><ele>276.4</ele><time>2026-04-20T06:37:01.316Z</time></trkpt><trkpt lat="41.9556983" lon="12.813655"><ele>272.6</ele><time>2026-04-20T06:37:02.317Z</time></trkpt><trkpt lat="41.9556817" lon="12.8138083"><ele>268.8</ele><time>2026-04-20T06:37:03.318Z</time></trkpt><trkpt lat="41.9556583" lon="12.8139567"><ele>265.0</ele><time>2026-04-20T06:37:04.317Z</time></trkpt><trkpt lat="41.95563" lon="12.81411"><ele>265.0</ele><time>2026-04-20T06:37:05.317Z</time></trkpt><trkpt lat="41.9555917" lon="12.8142683"><ele>265.0</ele><time>2026-04-20T06:37:06.317Z</time></trkpt><trkpt lat="41.955555" lon="12.8144233"><ele>265.0</ele><time>2026-04-20T06:37:07.317Z</time></trkpt><trkpt lat="41.9555117" lon="12.8145867"><ele>265.0</ele><time>2026-04-20T06:37:08.317Z</time></trkpt><trkpt lat="41.9554717" lon="12.8147517"><ele>265.0</ele><time>2026-04-20T06:37:09.316Z</time></trkpt><trkpt lat="41.9554367" lon="12.81492"><ele>265.0</ele><time>2026-04-20T06:37:10.316Z</time></trkpt><trkpt lat="41.955425" lon="12.815085"><ele>265.0</ele><time>2026-04-20T06:37:11.318Z</time></trkpt><trkpt lat="41.9554133" lon="12.8152433"><ele>265.0</ele><time>2026-04-20T06:37:12.317Z</time></trkpt><trkpt lat="41.9554067" lon="12.8154017"><ele>264.25</ele><time>2026-04-20T06:37:13.317Z</time></trkpt><trkpt lat="41.9554217" lon="12.8155617"><ele>263.5</ele><time>2026-04-20T06:37:14.317Z</time></trkpt><trkpt lat="41.9554417" lon="12.81572"><ele>262.75</ele><time>2026-04-20T06:37:15.317Z</time></trkpt><trkpt lat="41.95546" lon="12.8158817"><ele>262.0</ele><time>2026-04-20T06:37:16.32Z</time></trkpt><trkpt lat="41.9554817" lon="12.8160417"><ele>262.0</ele><time>2026-04-20T06:37:17.32Z</time></trkpt><trkpt lat="41.95551" lon="12.8162017"><ele>262.0</ele><time>2026-04-20T06:37:18.317Z</time></trkpt><trkpt lat="41.95554" lon="12.816355"><ele>262.0</ele><time>2026-04-20T06:37:19.317Z</time></trkpt><trkpt lat="41.9555683" lon="12.8165017"><ele>262.0</ele><time>2026-04-20T06:37:20.317Z</time></trkpt><trkpt lat="41.955605" lon="12.816645"><ele>262.0</ele><time>2026-04-20T06:37:21.317Z</time></trkpt><trkpt lat="41.9556433" lon="12.8167883"><ele>262.0</ele><time>2026-04-20T06:37:22.316Z</time></trkpt><trkpt lat="41.95568" lon="12.816925"><ele>262.0</ele><time>2026-04-20T06:37:23.317Z</time></trkpt><trkpt lat="41.95572" lon="12.81706"><ele>262.0</ele><time>2026-04-20T06:37:24.317Z</time></trkpt><trkpt lat="41.9557683" lon="12.8171917"><ele>262.0</ele><time>2026-04-20T06:37:25.316Z</time></trkpt><trkpt lat="41.9558167" lon="12.8173233"><ele>262.0</ele><time>2026-04-20T06:37:26.317Z</time></trkpt><trkpt lat="41.9558683" lon="12.8174583"><ele>262.0</ele><time>2026-04-20T06:37:27.317Z</time></trkpt><trkpt lat="41.955925" lon="12.8176"><ele>262.0</ele><time>2026-04-20T06:37:28.317Z</time></trkpt><trkpt lat="41.9559917" lon="12.8177383"><ele>262.0</ele><time>2026-04-20T06:37:29.317Z</time></trkpt><trkpt lat="41.9560733" lon="12.8178717"><ele>262.0</ele><time>2026-04-20T06:37:30.317Z</time></trkpt><trkpt lat="41.9561833" lon="12.8180217"><ele>262.0</ele><time>2026-04-20T06:37:31.318Z</time></trkpt><trkpt lat="41.9563083" lon="12.8181867"><ele>262.0</ele><time>2026-04-20T06:37:32.318Z</time></trkpt><trkpt lat="41.9564367" lon="12.8183667"><ele>260.3333333333333</ele><time>2026-04-20T06:37:33.317Z</time></trkpt><trkpt lat="41.956565" lon="12.8185483"><ele>258.6666666666667</ele><time>2026-04-20T06:37:34.317Z</time></trkpt><trkpt lat="41.9566733" lon="12.8187267"><ele>257.0</ele><time>2026-04-20T06:37:35.317Z</time></trkpt><trkpt lat="41.956775" lon="12.8189033"><ele>258.0</ele><time>2026-04-20T06:37:36.317Z</time></trkpt><trkpt lat="41.9568717" lon="12.8190767"><ele>259.0</ele><time>2026-04-20T06:37:37.317Z</time></trkpt><trkpt lat="41.9569617" lon="12.819245"><ele>260.0</ele><time>2026-04-20T06:37:38.316Z</time></trkpt><trkpt lat="41.9570433" lon="12.8194017"><ele>260.0</ele><time>2026-04-20T06:37:39.318Z</time></trkpt><trkpt lat="41.9571183" lon="12.8195517"><ele>260.0</ele><time>2026-04-20T06:37:40.316Z</time></trkpt><trkpt lat="41.9571933" lon="12.8196983"><ele>260.0</ele><time>2026-04-20T06:37:41.316Z</time></trkpt><trkpt lat="41.9572733" lon="12.8198333"><ele>260.0</ele><time>2026-04-20T06:37:42.319Z</time></trkpt><trkpt lat="41.9573533" lon="12.81997"><ele>260.0</ele><time>2026-04-20T06:37:43.319Z</time></trkpt><trkpt lat="41.95744" lon="12.8201083"><ele>260.0</ele><time>2026-04-20T06:37:44.317Z</time></trkpt><trkpt lat="41.9575333" lon="12.8202367"><ele>260.0</ele><time>2026-04-20T06:37:45.317Z</time></trkpt><trkpt lat="41.9576383" lon="12.8203567"><ele>260.0</ele><time>2026-04-20T06:37:46.316Z</time></trkpt><trkpt lat="41.9577383" lon="12.8204667"><ele>260.25</ele><time>2026-04-20T06:37:47.316Z</time></trkpt><trkpt lat="41.95784" lon="12.820565"><ele>260.5</ele><time>2026-04-20T06:37:48.318Z</time></trkpt><trkpt lat="41.957945" lon="12.8206517"><ele>260.75</ele><time>2026-04-20T06:37:49.318Z</time></trkpt><trkpt lat="41.9580483" lon="12.8207283"><ele>261.0</ele><time>2026-04-20T06:37:50.318Z</time></trkpt><trkpt lat="41.9581567" lon="12.8208"><ele>261.0</ele><time>2026-04-20T06:37:51.316Z</time></trkpt><trkpt lat="41.9582567" lon="12.8208733"><ele>261.0</ele><time>2026-04-20T06:37:52.319Z</time></trkpt><trkpt lat="41.9583617" lon="12.8209433"><ele>261.0</ele><time>2026-04-20T06:37:53.315Z</time></trkpt><trkpt lat="41.9584717" lon="12.821015"><ele>261.0</ele><time>2026-04-20T06:37:54.317Z</time></trkpt><trkpt lat="41.958585" lon="12.8211"><ele>261.0</ele><time>2026-04-20T06:37:55.316Z</time></trkpt><trkpt lat="41.958705" lon="12.8211867"><ele>261.0</ele><time>2026-04-20T06:37:56.319Z</time></trkpt><trkpt lat="41.9588333" lon="12.821275"><ele>261.0</ele><time>2026-04-20T06:37:57.319Z</time></trkpt><trkpt lat="41.9589667" lon="12.8213667"><ele>261.0</ele><time>2026-04-20T06:37:58.319Z</time></trkpt><trkpt lat="41.959105" lon="12.8214617"><ele>262.3333333333333</ele><time>2026-04-20T06:37:59.316Z</time></trkpt><trkpt lat="41.959245" lon="12.821555"><ele>263.66666666666663</ele><time>2026-04-20T06:38:00.318Z</time></trkpt><trkpt lat="41.9593867" lon="12.821645"><ele>265.0</ele><time>2026-04-20T06:38:01.316Z</time></trkpt><trkpt lat="41.9595333" lon="12.8217283"><ele>265.0</ele><time>2026-04-20T06:38:02.317Z</time></trkpt><trkpt lat="41.95969" lon="12.821805"><ele>265.0</ele><time>2026-04-20T06:38:03.318Z</time></trkpt><trkpt lat="41.9598567" lon="12.8218817"><ele>265.0</ele><time>2026-04-20T06:38:04.318Z</time></trkpt><trkpt lat="41.9600417" lon="12.8219617"><ele>263.0</ele><time>2026-04-20T06:38:05.317Z</time></trkpt><trkpt lat="41.960245" lon="12.8220517"><ele>261.0</ele><time>2026-04-20T06:38:06.316Z</time></trkpt><trkpt lat="41.96045" lon="12.8221483"><ele>259.0</ele><time>2026-04-20T06:38:07.317Z</time></trkpt><trkpt lat="41.9606583" lon="12.82224"><ele>259.0</ele><time>2026-04-20T06:38:08.317Z</time></trkpt><trkpt lat="41.960865" lon="12.8223167"><ele>259.0</ele><time>2026-04-20T06:38:09.316Z</time></trkpt><trkpt lat="41.9610667" lon="12.8223817"><ele>259.0</ele><time>2026-04-20T06:38:10.317Z</time></trkpt><trkpt lat="41.9612633" lon="12.822445"><ele>260.3333333333333</ele><time>2026-04-20T06:38:11.317Z</time></trkpt><trkpt lat="41.961455" lon="12.8225067"><ele>261.6666666666667</ele><time>2026-04-20T06:38:12.319Z</time></trkpt><trkpt lat="41.9616467" lon="12.8225733"><ele>263.0</ele><time>2026-04-20T06:38:13.319Z</time></trkpt><trkpt lat="41.96184" lon="12.8226433"><ele>260.6666666666667</ele><time>2026-04-20T06:38:14.318Z</time></trkpt><trkpt lat="41.9620433" lon="12.822715"><ele>258.3333333333333</ele><time>2026-04-20T06:38:15.319Z</time></trkpt><trkpt lat="41.962255" lon="12.8228017"><ele>256.0</ele><time>2026-04-20T06:38:16.32Z</time></trkpt><trkpt lat="41.96247" lon="12.82291"><ele>257.5</ele><time>2026-04-20T06:38:17.318Z</time></trkpt><trkpt lat="41.962685" lon="12.82304"><ele>259.0</ele><time>2026-04-20T06:38:18.318Z</time></trkpt><trkpt lat="41.9629" lon="12.8231917"><ele>259.0</ele><time>2026-04-20T06:38:19.319Z</time></trkpt><trkpt lat="41.963115" lon="12.82336"><ele>259.0</ele><time>2026-04-20T06:38:20.318Z</time></trkpt><trkpt lat="41.963335" lon="12.8235267"><ele>259.0</ele><time>2026-04-20T06:38:21.32Z</time></trkpt><trkpt lat="41.96355" lon="12.8236933"><ele>259.0</ele><time>2026-04-20T06:38:22.318Z</time></trkpt><trkpt lat="41.96376" lon="12.8238567"><ele>259.0</ele><time>2026-04-20T06:38:23.319Z</time></trkpt><trkpt lat="41.96397" lon="12.8240033"><ele>259.0</ele><time>2026-04-20T06:38:24.318Z</time></trkpt><trkpt lat="41.9641817" lon="12.8241333"><ele>258.5</ele><time>2026-04-20T06:38:25.318Z</time></trkpt><trkpt lat="41.964395" lon="12.82426"><ele>258.0</ele><time>2026-04-20T06:38:26.32Z</time></trkpt><trkpt lat="41.9646067" lon="12.8243883"><ele>257.5</ele><time>2026-04-20T06:38:27.319Z</time></trkpt><trkpt lat="41.96482" lon="12.8245117"><ele>257.0</ele><time>2026-04-20T06:38:28.318Z</time></trkpt><trkpt lat="41.9650333" lon="12.8246317"><ele>257.0</ele><time>2026-04-20T06:38:29.317Z</time></trkpt><trkpt lat="41.96525" lon="12.82475"><ele>257.0</ele><time>2026-04-20T06:38:30.318Z</time></trkpt><trkpt lat="41.9654633" lon="12.8248733"><ele>257.0</ele><time>2026-04-20T06:38:31.316Z</time></trkpt><trkpt lat="41.9656767" lon="12.8250033"><ele>257.0</ele><time>2026-04-20T06:38:32.317Z</time></trkpt><trkpt lat="41.965895" lon="12.8251267"><ele>256.5</ele><time>2026-04-20T06:38:33.317Z</time></trkpt><trkpt lat="41.9661183" lon="12.8252433"><ele>256.0</ele><time>2026-04-20T06:38:34.316Z</time></trkpt><trkpt lat="41.9663317" lon="12.825355"><ele>256.0</ele><time>2026-04-20T06:38:35.316Z</time></trkpt><trkpt lat="41.9665417" lon="12.82547"><ele>256.0</ele><time>2026-04-20T06:38:36.316Z</time></trkpt><trkpt lat="41.9667467" lon="12.825595"><ele>257.5</ele><time>2026-04-20T06:38:37.316Z</time></trkpt><trkpt lat="41.96695" lon="12.8257383"><ele>259.0</ele><time>2026-04-20T06:38:38.316Z</time></trkpt><trkpt lat="41.9671433" lon="12.8258933"><ele>258.0</ele><time>2026-04-20T06:38:39.318Z</time></trkpt><trkpt lat="41.967325" lon="12.8260717"><ele>257.0</ele><time>2026-04-20T06:38:40.316Z</time></trkpt><trkpt lat="41.9675017" lon="12.8262667"><ele>258.33333333333337</ele><time>2026-04-20T06:38:41.316Z</time></trkpt><trkpt lat="41.96767" lon="12.82647"><ele>259.6666666666667</ele><time>2026-04-20T06:38:42.319Z</time></trkpt><trkpt lat="41.9678233" lon="12.8266817"><ele>261.0</ele><time>2026-04-20T06:38:43.317Z</time></trkpt><trkpt lat="41.9679667" lon="12.8269033"><ele>261.0</ele><time>2026-04-20T06:38:44.316Z</time></trkpt><trkpt lat="41.9681" lon="12.8271333"><ele>261.0</ele><time>2026-04-20T06:38:45.318Z</time></trkpt><trkpt lat="41.9682233" lon="12.8273667"><ele>261.0</ele><time>2026-04-20T06:38:46.32Z</time></trkpt><trkpt lat="41.968335" lon="12.827605"><ele>261.6666666666667</ele><time>2026-04-20T06:38:47.318Z</time></trkpt><trkpt lat="41.9684467" lon="12.827845"><ele>262.33333333333337</ele><time>2026-04-20T06:38:48.32Z</time></trkpt><trkpt lat="41.9685583" lon="12.828085"><ele>263.0</ele><time>2026-04-20T06:38:49.319Z</time></trkpt><trkpt lat="41.96867" lon="12.8283283"><ele>263.0</ele><time>2026-04-20T06:38:50.318Z</time></trkpt><trkpt lat="41.9687833" lon="12.8285733"><ele>263.0</ele><time>2026-04-20T06:38:51.319Z</time></trkpt><trkpt lat="41.968895" lon="12.8288217"><ele>263.0</ele><time>2026-04-20T06:38:52.319Z</time></trkpt><trkpt lat="41.9690183" lon="12.8290633"><ele>263.0</ele><time>2026-04-20T06:38:53.319Z</time></trkpt><trkpt lat="41.9691583" lon="12.8292933"><ele>263.0</ele><time>2026-04-20T06:38:54.319Z</time></trkpt><trkpt lat="41.9693" lon="12.8295183"><ele>263.0</ele><time>2026-04-20T06:38:55.318Z</time></trkpt><trkpt lat="41.9694567" lon="12.829735"><ele>262.0</ele><time>2026-04-20T06:38:56.317Z</time></trkpt><trkpt lat="41.969625" lon="12.8299333"><ele>261.0</ele><time>2026-04-20T06:38:57.32Z</time></trkpt><trkpt lat="41.9697983" lon="12.8301133"><ele>260.0</ele><time>2026-04-20T06:38:58.316Z</time></trkpt><trkpt lat="41.9699817" lon="12.8302817"><ele>258.0</ele><time>2026-04-20T06:38:59.316Z</time></trkpt><trkpt lat="41.9701683" lon="12.83045"><ele>256.0</ele><time>2026-04-20T06:39:00.317Z</time></trkpt><trkpt lat="41.9703633" lon="12.8306183"><ele>256.0</ele><time>2026-04-20T06:39:01.319Z</time></trkpt><trkpt lat="41.9705667" lon="12.830785"><ele>256.0</ele><time>2026-04-20T06:39:02.321Z</time></trkpt><trkpt lat="41.9707617" lon="12.830955"><ele>253.5</ele><time>2026-04-20T06:39:03.317Z</time></trkpt><trkpt lat="41.97096" lon="12.8311217"><ele>251.0</ele><time>2026-04-20T06:39:04.315Z</time></trkpt><trkpt lat="41.9711583" lon="12.831285"><ele>251.0</ele><time>2026-04-20T06:39:05.317Z</time></trkpt><trkpt lat="41.97136" lon="12.831445"><ele>251.0</ele><time>2026-04-20T06:39:06.317Z</time></trkpt><trkpt lat="41.9715583" lon="12.8316033"><ele>253.0</ele><time>2026-04-20T06:39:07.316Z</time></trkpt><trkpt lat="41.971765" lon="12.8317483"><ele>255.0</ele><time>2026-04-20T06:39:08.317Z</time></trkpt><trkpt lat="41.9719733" lon="12.83188"><ele>255.5</ele><time>2026-04-20T06:39:09.317Z</time></trkpt><trkpt lat="41.972185" lon="12.8319917"><ele>256.0</ele><time>2026-04-20T06:39:10.315Z</time></trkpt><trkpt lat="41.9724" lon="12.8320833"><ele>257.5</ele><time>2026-04-20T06:39:11.316Z</time></trkpt><trkpt lat="41.97262" lon="12.8321567"><ele>259.0</ele><time>2026-04-20T06:39:12.317Z</time></trkpt><trkpt lat="41.972845" lon="12.83221"><ele>259.0</ele><time>2026-04-20T06:39:13.317Z</time></trkpt><trkpt lat="41.9730717" lon="12.8322567"><ele>259.0</ele><time>2026-04-20T06:39:14.316Z</time></trkpt><trkpt lat="41.9732933" lon="12.8323017"><ele>261.0</ele><time>2026-04-20T06:39:15.318Z</time></trkpt><trkpt lat="41.9735183" lon="12.8323467"><ele>263.0</ele><time>2026-04-20T06:39:16.318Z</time></trkpt><trkpt lat="41.97374" lon="12.83239"><ele>263.0</ele><time>2026-04-20T06:39:17.318Z</time></trkpt><trkpt lat="41.973955" lon="12.832435"><ele>263.0</ele><time>2026-04-20T06:39:18.319Z</time></trkpt><trkpt lat="41.974165" lon="12.8324783"><ele>263.0</ele><time>2026-04-20T06:39:19.315Z</time></trkpt><trkpt lat="41.9743717" lon="12.8325217"><ele>263.33333333333337</ele><time>2026-04-20T06:39:20.316Z</time></trkpt><trkpt lat="41.9745833" lon="12.8325717"><ele>263.6666666666667</ele><time>2026-04-20T06:39:21.317Z</time></trkpt><trkpt lat="41.974795" lon="12.8326283"><ele>264.0</ele><time>2026-04-20T06:39:22.315Z</time></trkpt><trkpt lat="41.9750067" lon="12.83269"><ele>260.5</ele><time>2026-04-20T06:39:23.317Z</time></trkpt><trkpt lat="41.9752267" lon="12.8327517"><ele>257.0</ele><time>2026-04-20T06:39:24.318Z</time></trkpt><trkpt lat="41.9754583" lon="12.83282"><ele>257.0</ele><time>2026-04-20T06:39:25.316Z</time></trkpt><trkpt lat="41.9756817" lon="12.8329133"><ele>257.0</ele><time>2026-04-20T06:39:26.316Z</time></trkpt><trkpt lat="41.9758867" lon="12.8330117"><ele>258.33333333333337</ele><time>2026-04-20T06:39:27.316Z</time></trkpt><trkpt lat="41.9760983" lon="12.8331017"><ele>259.6666666666667</ele><time>2026-04-20T06:39:28.316Z</time></trkpt><trkpt lat="41.9763083" lon="12.833185"><ele>261.0</ele><time>2026-04-20T06:39:29.317Z</time></trkpt><trkpt lat="41.9765283" lon="12.8332683"><ele>261.5</ele><time>2026-04-20T06:39:30.317Z</time></trkpt><trkpt lat="41.976745" lon="12.8333617"><ele>262.0</ele><time>2026-04-20T06:39:31.317Z</time></trkpt><trkpt lat="41.9769483" lon="12.8334833"><ele>260.3333333333333</ele><time>2026-04-20T06:39:32.32Z</time></trkpt><trkpt lat="41.97715" lon="12.8336217"><ele>258.6666666666667</ele><time>2026-04-20T06:39:33.316Z</time></trkpt><trkpt lat="41.9773333" lon="12.83379"><ele>257.0</ele><time>2026-04-20T06:39:34.316Z</time></trkpt><trkpt lat="41.97751" lon="12.8339917"><ele>258.5</ele><time>2026-04-20T06:39:35.32Z</time></trkpt><trkpt lat="41.9776733" lon="12.8342217"><ele>260.0</ele><time>2026-04-20T06:39:36.317Z</time></trkpt><trkpt lat="41.97783" lon="12.834475"><ele>260.0</ele><time>2026-04-20T06:39:37.316Z</time></trkpt><trkpt lat="41.9779767" lon="12.83475"><ele>260.0</ele><time>2026-04-20T06:39:38.316Z</time></trkpt><trkpt lat="41.97812" lon="12.8350267"><ele>263.0</ele><time>2026-04-20T06:39:39.319Z</time></trkpt><trkpt lat="41.978255" lon="12.8353033"><ele>266.0</ele><time>2026-04-20T06:39:40.316Z</time></trkpt><trkpt lat="41.978375" lon="12.8355667"><ele>266.0</ele><time>2026-04-20T06:39:41.316Z</time></trkpt><trkpt lat="41.97851" lon="12.83581"><ele>266.0</ele><time>2026-04-20T06:39:42.319Z</time></trkpt><trkpt lat="41.978645" lon="12.8360533"><ele>262.6666666666667</ele><time>2026-04-20T06:39:43.319Z</time></trkpt><trkpt lat="41.97881" lon="12.836265"><ele>259.3333333333333</ele><time>2026-04-20T06:39:44.319Z</time></trkpt><trkpt lat="41.9789683" lon="12.8364617"><ele>256.0</ele><time>2026-04-20T06:39:45.317Z</time></trkpt><trkpt lat="41.97912" lon="12.8366533"><ele>256.3333333333333</ele><time>2026-04-20T06:39:46.318Z</time></trkpt><trkpt lat="41.9792433" lon="12.8368583"><ele>256.6666666666667</ele><time>2026-04-20T06:39:47.319Z</time></trkpt><trkpt lat="41.979345" lon="12.8371083"><ele>257.0</ele><time>2026-04-20T06:39:48.319Z</time></trkpt><trkpt lat="41.97943" lon="12.83736"><ele>257.0</ele><time>2026-04-20T06:39:49.316Z</time></trkpt><trkpt lat="41.9794683" lon="12.837595"><ele>257.0</ele><time>2026-04-20T06:39:50.315Z</time></trkpt><trkpt lat="41.9794883" lon="12.83781"><ele>257.0</ele><time>2026-04-20T06:39:51.316Z</time></trkpt><trkpt lat="41.9794817" lon="12.8380283"><ele>259.0</ele><time>2026-04-20T06:39:52.315Z</time></trkpt><trkpt lat="41.979435" lon="12.8382617"><ele>261.0</ele><time>2026-04-20T06:39:53.317Z</time></trkpt><trkpt lat="41.9793667" lon="12.83849"><ele>263.0</ele><time>2026-04-20T06:39:54.315Z</time></trkpt><trkpt lat="41.9792733" lon="12.838715"><ele>260.0</ele><time>2026-04-20T06:39:55.315Z</time></trkpt><trkpt lat="41.9791683" lon="12.838945"><ele>257.0</ele><time>2026-04-20T06:39:56.316Z</time></trkpt><trkpt lat="41.979075" lon="12.8391817"><ele>254.0</ele><time>2026-04-20T06:39:57.317Z</time></trkpt><trkpt lat="41.9789917" lon="12.8394183"><ele>254.0</ele><time>2026-04-20T06:39:58.315Z</time></trkpt><trkpt lat="41.97895" lon="12.8396667"><ele>254.0</ele><time>2026-04-20T06:39:59.316Z</time></trkpt><trkpt lat="41.9789583" lon="12.8399117"><ele>254.0</ele><time>2026-04-20T06:40:00.32Z</time></trkpt><trkpt lat="41.9789983" lon="12.8401517"><ele>253.33333333333334</ele><time>2026-04-20T06:40:01.317Z</time></trkpt><trkpt lat="41.97907" lon="12.84037"><ele>252.66666666666669</ele><time>2026-04-20T06:40:02.315Z</time></trkpt><trkpt lat="41.9791783" lon="12.8405667"><ele>252.0</ele><time>2026-04-20T06:40:03.317Z</time></trkpt><trkpt lat="41.979325" lon="12.8407433"><ele>252.33333333333331</ele><time>2026-04-20T06:40:04.316Z</time></trkpt><trkpt lat="41.9794883" lon="12.8409133"><ele>252.66666666666666</ele><time>2026-04-20T06:40:05.317Z</time></trkpt><trkpt lat="41.9796433" lon="12.8410767"><ele>253.0</ele><time>2026-04-20T06:40:06.315Z</time></trkpt><trkpt lat="41.9797967" lon="12.8412567"><ele>253.0</ele><time>2026-04-20T06:40:07.32Z</time></trkpt><trkpt lat="41.9799417" lon="12.8414517"><ele>253.0</ele><time>2026-04-20T06:40:08.316Z</time></trkpt><trkpt lat="41.9800783" lon="12.8416733"><ele>253.0</ele><time>2026-04-20T06:40:09.317Z</time></trkpt><trkpt lat="41.9802033" lon="12.8419117"><ele>253.66666666666666</ele><time>2026-04-20T06:40:10.317Z</time></trkpt><trkpt lat="41.9803167" lon="12.8421583"><ele>254.33333333333331</ele><time>2026-04-20T06:40:11.316Z</time></trkpt><trkpt lat="41.98041" lon="12.8424183"><ele>255.0</ele><time>2026-04-20T06:40:12.32Z</time></trkpt><trkpt lat="41.98049" lon="12.84269"><ele>255.0</ele><time>2026-04-20T06:40:13.319Z</time></trkpt><trkpt lat="41.98056" lon="12.84297"><ele>255.0</ele><time>2026-04-20T06:40:14.317Z</time></trkpt><trkpt lat="41.9806317" lon="12.84324"><ele>255.0</ele><time>2026-04-20T06:40:15.317Z</time></trkpt><trkpt lat="41.9807217" lon="12.8434833"><ele>255.33333333333331</ele><time>2026-04-20T06:40:16.316Z</time></trkpt><trkpt lat="41.9808383" lon="12.8437067"><ele>255.66666666666666</ele><time>2026-04-20T06:40:17.319Z</time></trkpt><trkpt lat="41.98097" lon="12.8439017"><ele>256.0</ele><time>2026-04-20T06:40:18.318Z</time></trkpt><trkpt lat="41.98112" lon="12.844075"><ele>256.0</ele><time>2026-04-20T06:40:19.316Z</time></trkpt><trkpt lat="41.981295" lon="12.8442033"><ele>256.0</ele><time>2026-04-20T06:40:20.317Z</time></trkpt><trkpt lat="41.9814783" lon="12.844305"><ele>256.0</ele><time>2026-04-20T06:40:21.317Z</time></trkpt><trkpt lat="41.9816733" lon="12.8443683"><ele>250.0</ele><time>2026-04-20T06:40:22.317Z</time></trkpt><trkpt lat="41.9818717" lon="12.8443933"><ele>244.0</ele><time>2026-04-20T06:40:23.317Z</time></trkpt><trkpt lat="41.982075" lon="12.8443867"><ele>238.0</ele><time>2026-04-20T06:40:24.317Z</time></trkpt><trkpt lat="41.982285" lon="12.84436"><ele>238.0</ele><time>2026-04-20T06:40:25.316Z</time></trkpt><trkpt lat="41.9824983" lon="12.8443167"><ele>238.0</ele><time>2026-04-20T06:40:26.317Z</time></trkpt><trkpt lat="41.982715" lon="12.8442667"><ele>238.0</ele><time>2026-04-20T06:40:27.316Z</time></trkpt><trkpt lat="41.9829333" lon="12.8442217"><ele>243.33333333333331</ele><time>2026-04-20T06:40:28.315Z</time></trkpt><trkpt lat="41.9831517" lon="12.8441783"><ele>248.66666666666669</ele><time>2026-04-20T06:40:29.316Z</time></trkpt><trkpt lat="41.9833733" lon="12.8441367"><ele>254.0</ele><time>2026-04-20T06:40:30.319Z</time></trkpt><trkpt lat="41.983585" lon="12.8441067"><ele>254.0</ele><time>2026-04-20T06:40:31.319Z</time></trkpt><trkpt lat="41.9837967" lon="12.8440917"><ele>254.0</ele><time>2026-04-20T06:40:32.318Z</time></trkpt><trkpt lat="41.98401" lon="12.8440833"><ele>254.0</ele><time>2026-04-20T06:40:33.316Z</time></trkpt><trkpt lat="41.9842217" lon="12.8441017"><ele>255.0</ele><time>2026-04-20T06:40:34.319Z</time></trkpt><trkpt lat="41.9844267" lon="12.8441433"><ele>256.0</ele><time>2026-04-20T06:40:35.316Z</time></trkpt><trkpt lat="41.9846333" lon="12.8441983"><ele>257.0</ele><time>2026-04-20T06:40:36.317Z</time></trkpt><trkpt lat="41.98484" lon="12.8443067"><ele>256.6666666666667</ele><time>2026-04-20T06:40:37.319Z</time></trkpt><trkpt lat="41.985045" lon="12.844435"><ele>256.3333333333333</ele><time>2026-04-20T06:40:38.319Z</time></trkpt><trkpt lat="41.9852333" lon="12.8445967"><ele>256.0</ele><time>2026-04-20T06:40:39.319Z</time></trkpt><trkpt lat="41.985415" lon="12.844775"><ele>256.0</ele><time>2026-04-20T06:40:40.319Z</time></trkpt><trkpt lat="41.9855867" lon="12.844975"><ele>256.0</ele><time>2026-04-20T06:40:41.319Z</time></trkpt><trkpt lat="41.9857367" lon="12.8451767"><ele>256.0</ele><time>2026-04-20T06:40:42.318Z</time></trkpt><trkpt lat="41.9858683" lon="12.8453933"><ele>256.3333333333333</ele><time>2026-04-20T06:40:43.318Z</time></trkpt><trkpt lat="41.9859867" lon="12.8456283"><ele>256.6666666666667</ele><time>2026-04-20T06:40:44.318Z</time></trkpt><trkpt lat="41.9861033" lon="12.845875"><ele>257.0</ele><time>2026-04-20T06:40:45.319Z</time></trkpt><trkpt lat="41.9862117" lon="12.84613"><ele>257.0</ele><time>2026-04-20T06:40:46.32Z</time></trkpt><trkpt lat="41.9863167" lon="12.8463917"><ele>257.0</ele><time>2026-04-20T06:40:47.316Z</time></trkpt><trkpt lat="41.986415" lon="12.8466383"><ele>257.0</ele><time>2026-04-20T06:40:48.317Z</time></trkpt><trkpt lat="41.9865067" lon="12.846875"><ele>257.33333333333337</ele><time>2026-04-20T06:40:49.317Z</time></trkpt><trkpt lat="41.9865917" lon="12.8470983"><ele>257.6666666666667</ele><time>2026-04-20T06:40:50.317Z</time></trkpt><trkpt lat="41.9866467" lon="12.8473183"><ele>258.0</ele><time>2026-04-20T06:40:51.316Z</time></trkpt><trkpt lat="41.9866733" lon="12.8475433"><ele>257.3333333333333</ele><time>2026-04-20T06:40:52.315Z</time></trkpt><trkpt lat="41.9866667" lon="12.8477717"><ele>256.66666666666663</ele><time>2026-04-20T06:40:53.317Z</time></trkpt><trkpt lat="41.986635" lon="12.847995"><ele>256.0</ele><time>2026-04-20T06:40:54.316Z</time></trkpt><trkpt lat="41.9865833" lon="12.848205"><ele>256.0</ele><time>2026-04-20T06:40:55.316Z</time></trkpt><trkpt lat="41.9864867" lon="12.8484017"><ele>256.0</ele><time>2026-04-20T06:40:56.316Z</time></trkpt><trkpt lat="41.9863817" lon="12.848595"><ele>256.0</ele><time>2026-04-20T06:40:57.316Z</time></trkpt><trkpt lat="41.98627" lon="12.8487783"><ele>257.66666666666663</ele><time>2026-04-20T06:40:58.315Z</time></trkpt><trkpt lat="41.9861783" lon="12.8489667"><ele>259.3333333333333</ele><time>2026-04-20T06:40:59.316Z</time></trkpt><trkpt lat="41.986095" lon="12.84917"><ele>261.0</ele><time>2026-04-20T06:41:00.317Z</time></trkpt><trkpt lat="41.9860483" lon="12.8494017"><ele>261.3333333333333</ele><time>2026-04-20T06:41:01.318Z</time></trkpt><trkpt lat="41.986025" lon="12.849655"><ele>261.66666666666663</ele><time>2026-04-20T06:41:02.315Z</time></trkpt><trkpt lat="41.9860167" lon="12.8499117"><ele>262.0</ele><time>2026-04-20T06:41:03.317Z</time></trkpt><trkpt lat="41.9860067" lon="12.8501567"><ele>262.3333333333333</ele><time>2026-04-20T06:41:04.316Z</time></trkpt><trkpt lat="41.9859817" lon="12.8503933"><ele>262.6666666666667</ele><time>2026-04-20T06:41:05.318Z</time></trkpt><trkpt lat="41.985935" lon="12.8506233"><ele>263.0</ele><time>2026-04-20T06:41:06.317Z</time></trkpt><trkpt lat="41.985865" lon="12.8508483"><ele>263.0</ele><time>2026-04-20T06:41:07.315Z</time></trkpt><trkpt lat="41.9857767" lon="12.8510767"><ele>263.0</ele><time>2026-04-20T06:41:08.317Z</time></trkpt><trkpt lat="41.9856767" lon="12.8513"><ele>263.0</ele><time>2026-04-20T06:41:09.318Z</time></trkpt><trkpt lat="41.9855617" lon="12.8515083"><ele>263.0</ele><time>2026-04-20T06:41:10.317Z</time></trkpt><trkpt lat="41.98543" lon="12.8517017"><ele>263.0</ele><time>2026-04-20T06:41:11.32Z</time></trkpt><trkpt lat="41.98528" lon="12.8518867"><ele>263.0</ele><time>2026-04-20T06:41:12.32Z</time></trkpt><trkpt lat="41.9851217" lon="12.8520767"><ele>261.6666666666667</ele><time>2026-04-20T06:41:13.319Z</time></trkpt><trkpt lat="41.9849533" lon="12.8522633"><ele>260.3333333333333</ele><time>2026-04-20T06:41:14.318Z</time></trkpt><trkpt lat="41.9847867" lon="12.8524533"><ele>259.0</ele><time>2026-04-20T06:41:15.318Z</time></trkpt><trkpt lat="41.9846183" lon="12.8526417"><ele>261.66666666666663</ele><time>2026-04-20T06:41:16.319Z</time></trkpt><trkpt lat="41.9844633" lon="12.8528217"><ele>264.3333333333333</ele><time>2026-04-20T06:41:17.319Z</time></trkpt><trkpt lat="41.9843183" lon="12.85299"><ele>267.0</ele><time>2026-04-20T06:41:18.318Z</time></trkpt><trkpt lat="41.9841817" lon="12.8531617"><ele>263.0</ele><time>2026-04-20T06:41:19.318Z</time></trkpt><trkpt lat="41.9840617" lon="12.853345"><ele>259.0</ele><time>2026-04-20T06:41:20.318Z</time></trkpt><trkpt lat="41.9839683" lon="12.8535417"><ele>255.0</ele><time>2026-04-20T06:41:21.318Z</time></trkpt><trkpt lat="41.9839017" lon="12.8537683"><ele>255.0</ele><time>2026-04-20T06:41:22.317Z</time></trkpt><trkpt lat="41.983855" lon="12.8540167"><ele>255.0</ele><time>2026-04-20T06:41:23.317Z</time></trkpt><trkpt lat="41.9838267" lon="12.8542867"><ele>255.0</ele><time>2026-04-20T06:41:24.318Z</time></trkpt><trkpt lat="41.9838033" lon="12.854565"><ele>256.0</ele><time>2026-04-20T06:41:25.32Z</time></trkpt><trkpt lat="41.983775" lon="12.8548467"><ele>257.0</ele><time>2026-04-20T06:41:26.318Z</time></trkpt><trkpt lat="41.9837517" lon="12.8551267"><ele>258.0</ele><time>2026-04-20T06:41:27.319Z</time></trkpt><trkpt lat="41.983745" lon="12.8554"><ele>257.6666666666667</ele><time>2026-04-20T06:41:28.319Z</time></trkpt><trkpt lat="41.9837667" lon="12.8556583"><ele>257.33333333333337</ele><time>2026-04-20T06:41:29.319Z</time></trkpt><trkpt lat="41.9838183" lon="12.8558883"><ele>257.0</ele><time>2026-04-20T06:41:30.318Z</time></trkpt><trkpt lat="41.9838933" lon="12.8561083"><ele>257.0</ele><time>2026-04-20T06:41:31.317Z</time></trkpt><trkpt lat="41.9840017" lon="12.8563117"><ele>257.0</ele><time>2026-04-20T06:41:32.32Z</time></trkpt><trkpt lat="41.9841467" lon="12.85649"><ele>257.0</ele><time>2026-04-20T06:41:33.318Z</time></trkpt><trkpt lat="41.9843167" lon="12.85665"><ele>257.33333333333337</ele><time>2026-04-20T06:41:34.317Z</time></trkpt><trkpt lat="41.98449" lon="12.8568183"><ele>257.6666666666667</ele><time>2026-04-20T06:41:35.318Z</time></trkpt><trkpt lat="41.98467" lon="12.8569817"><ele>258.0</ele><time>2026-04-20T06:41:36.316Z</time></trkpt><trkpt lat="41.9848483" lon="12.8571567"><ele>259.3333333333333</ele><time>2026-04-20T06:41:37.318Z</time></trkpt><trkpt lat="41.985025" lon="12.8573383"><ele>260.66666666666663</ele><time>2026-04-20T06:41:38.317Z</time></trkpt><trkpt lat="41.9852067" lon="12.857505"><ele>262.0</ele><time>2026-04-20T06:41:39.318Z</time></trkpt><trkpt lat="41.9853833" lon="12.8576767"><ele>262.0</ele><time>2026-04-20T06:41:40.317Z</time></trkpt><trkpt lat="41.9855583" lon="12.8578617"><ele>262.0</ele><time>2026-04-20T06:41:41.317Z</time></trkpt><trkpt lat="41.9857267" lon="12.85806"><ele>262.0</ele><time>2026-04-20T06:41:42.321Z</time></trkpt><trkpt lat="41.985875" lon="12.858255"><ele>267.0</ele><time>2026-04-20T06:41:43.319Z</time></trkpt><trkpt lat="41.9860133" lon="12.8584417"><ele>272.0</ele><time>2026-04-20T06:41:44.319Z</time></trkpt><trkpt lat="41.98613" lon="12.85864"><ele>277.0</ele><time>2026-04-20T06:41:45.32Z</time></trkpt><trkpt lat="41.9862367" lon="12.8588617"><ele>277.0</ele><time>2026-04-20T06:41:46.319Z</time></trkpt><trkpt lat="41.9863367" lon="12.859105"><ele>277.0</ele><time>2026-04-20T06:41:47.32Z</time></trkpt><trkpt lat="41.9864317" lon="12.8593617"><ele>277.0</ele><time>2026-04-20T06:41:48.318Z</time></trkpt><trkpt lat="41.9865317" lon="12.859605"><ele>278.66666666666663</ele><time>2026-04-20T06:41:49.317Z</time></trkpt><trkpt lat="41.9866117" lon="12.8598433"><ele>280.3333333333333</ele><time>2026-04-20T06:41:50.317Z</time></trkpt><trkpt lat="41.9866667" lon="12.860095"><ele>282.0</ele><time>2026-04-20T06:41:51.318Z</time></trkpt><trkpt lat="41.9866867" lon="12.8603583"><ele>282.0</ele><time>2026-04-20T06:41:52.317Z</time></trkpt><trkpt lat="41.9866817" lon="12.860625"><ele>282.0</ele><time>2026-04-20T06:41:53.318Z</time></trkpt><trkpt lat="41.98665" lon="12.8608883"><ele>282.0</ele><time>2026-04-20T06:41:54.317Z</time></trkpt><trkpt lat="41.9865967" lon="12.8611433"><ele>281.3333333333333</ele><time>2026-04-20T06:41:55.317Z</time></trkpt><trkpt lat="41.9865217" lon="12.8613867"><ele>280.66666666666663</ele><time>2026-04-20T06:41:56.318Z</time></trkpt><trkpt lat="41.9864383" lon="12.8616017"><ele>280.0</ele><time>2026-04-20T06:41:57.318Z</time></trkpt><trkpt lat="41.986355" lon="12.8618033"><ele>280.0</ele><time>2026-04-20T06:41:58.317Z</time></trkpt><trkpt lat="41.986285" lon="12.862"><ele>280.0</ele><time>2026-04-20T06:41:59.317Z</time></trkpt><trkpt lat="41.9862483" lon="12.8622017"><ele>280.0</ele><time>2026-04-20T06:42:00.318Z</time></trkpt><trkpt lat="41.986245" lon="12.862405"><ele>280.0</ele><time>2026-04-20T06:42:01.32Z</time></trkpt><trkpt lat="41.9862767" lon="12.8626133"><ele>280.0</ele><time>2026-04-20T06:42:02.32Z</time></trkpt><trkpt lat="41.986345" lon="12.86281"><ele>280.0</ele><time>2026-04-20T06:42:03.316Z</time></trkpt><trkpt lat="41.9864533" lon="12.86297"><ele>280.0</ele><time>2026-04-20T06:42:04.318Z</time></trkpt><trkpt lat="41.986595" lon="12.863085"><ele>280.0</ele><time>2026-04-20T06:42:05.319Z</time></trkpt><trkpt lat="41.986765" lon="12.8631617"><ele>280.0</ele><time>2026-04-20T06:42:06.319Z</time></trkpt><trkpt lat="41.9869517" lon="12.8632067"><ele>280.0</ele><time>2026-04-20T06:42:07.317Z</time></trkpt><trkpt lat="41.98714" lon="12.86324"><ele>280.0</ele><time>2026-04-20T06:42:08.318Z</time></trkpt><trkpt lat="41.98733" lon="12.86327"><ele>280.0</ele><time>2026-04-20T06:42:09.32Z</time></trkpt><trkpt lat="41.9875067" lon="12.8633"><ele>277.66666666666663</ele><time>2026-04-20T06:42:10.319Z</time></trkpt><trkpt lat="41.9876667" lon="12.8633567"><ele>275.3333333333333</ele><time>2026-04-20T06:42:11.318Z</time></trkpt><trkpt lat="41.9878183" lon="12.86344"><ele>273.0</ele><time>2026-04-20T06:42:12.317Z</time></trkpt><trkpt lat="41.9879667" lon="12.863565"><ele>273.0</ele><time>2026-04-20T06:42:13.319Z</time></trkpt><trkpt lat="41.9881267" lon="12.8637133"><ele>273.0</ele><time>2026-04-20T06:42:14.32Z</time></trkpt><trkpt lat="41.9882933" lon="12.8638733"><ele>273.0</ele><time>2026-04-20T06:42:15.319Z</time></trkpt><trkpt lat="41.9884567" lon="12.864035"><ele>276.0</ele><time>2026-04-20T06:42:16.319Z</time></trkpt><trkpt lat="41.9886083" lon="12.8641883"><ele>279.0</ele><time>2026-04-20T06:42:17.317Z</time></trkpt><trkpt lat="41.9887483" lon="12.8643467"><ele>282.0</ele><time>2026-04-20T06:42:18.319Z</time></trkpt><trkpt lat="41.988865" lon="12.8645367"><ele>282.0</ele><time>2026-04-20T06:42:19.32Z</time></trkpt><trkpt lat="41.9889667" lon="12.864765"><ele>282.0</ele><time>2026-04-20T06:42:20.32Z</time></trkpt><trkpt lat="41.989065" lon="12.8650017"><ele>282.0</ele><time>2026-04-20T06:42:21.317Z</time></trkpt><trkpt lat="41.9891633" lon="12.86527"><ele>284.6666666666667</ele><time>2026-04-20T06:42:22.318Z</time></trkpt><trkpt lat="41.9892667" lon="12.8655317"><ele>287.33333333333337</ele><time>2026-04-20T06:42:23.319Z</time></trkpt><trkpt lat="41.9893633" lon="12.865775"><ele>290.0</ele><time>2026-04-20T06:42:24.319Z</time></trkpt><trkpt lat="41.9894667" lon="12.866005"><ele>283.6666666666667</ele><time>2026-04-20T06:42:25.319Z</time></trkpt><trkpt lat="41.9895867" lon="12.866215"><ele>277.3333333333333</ele><time>2026-04-20T06:42:26.317Z</time></trkpt><trkpt lat="41.98972" lon="12.8664067"><ele>271.0</ele><time>2026-04-20T06:42:27.32Z</time></trkpt><trkpt lat="41.98987" lon="12.8665733"><ele>272.0</ele><time>2026-04-20T06:42:28.319Z</time></trkpt><trkpt lat="41.990025" lon="12.8667267"><ele>273.0</ele><time>2026-04-20T06:42:29.319Z</time></trkpt><trkpt lat="41.9901883" lon="12.8668583"><ele>274.0</ele><time>2026-04-20T06:42:30.318Z</time></trkpt><trkpt lat="41.990365" lon="12.8669667"><ele>270.3333333333333</ele><time>2026-04-20T06:42:31.32Z</time></trkpt><trkpt lat="41.9905617" lon="12.867055"><ele>266.6666666666667</ele><time>2026-04-20T06:42:32.317Z</time></trkpt><trkpt lat="41.9907733" lon="12.867125"><ele>263.0</ele><time>2026-04-20T06:42:33.317Z</time></trkpt><trkpt lat="41.9909883" lon="12.867195"><ele>263.0</ele><time>2026-04-20T06:42:34.316Z</time></trkpt><trkpt lat="41.9912033" lon="12.8672783"><ele>263.0</ele><time>2026-04-20T06:42:35.317Z</time></trkpt><trkpt lat="41.991425" lon="12.8673733"><ele>263.0</ele><time>2026-04-20T06:42:36.318Z</time></trkpt><trkpt lat="41.9916483" lon="12.8674833"><ele>263.0</ele><time>2026-04-20T06:42:37.318Z</time></trkpt><trkpt lat="41.9918733" lon="12.8676083"><ele>263.5</ele><time>2026-04-20T06:42:38.317Z</time></trkpt><trkpt lat="41.9920967" lon="12.8677433"><ele>264.0</ele><time>2026-04-20T06:42:39.318Z</time></trkpt><trkpt lat="41.9923133" lon="12.8678783"><ele>269.3333333333333</ele><time>2026-04-20T06:42:40.317Z</time></trkpt><trkpt lat="41.9925133" lon="12.86801"><ele>274.66666666666663</ele><time>2026-04-20T06:42:41.317Z</time></trkpt><trkpt lat="41.9927" lon="12.8681517"><ele>280.0</ele><time>2026-04-20T06:42:42.317Z</time></trkpt><trkpt lat="41.9928817" lon="12.868305"><ele>277.3333333333333</ele><time>2026-04-20T06:42:43.318Z</time></trkpt><trkpt lat="41.993065" lon="12.86846"><ele>274.6666666666667</ele><time>2026-04-20T06:42:44.32Z</time></trkpt><trkpt lat="41.9932367" lon="12.8686167"><ele>272.0</ele><time>2026-04-20T06:42:45.32Z</time></trkpt><trkpt lat="41.9934" lon="12.8687733"><ele>272.0</ele><time>2026-04-20T06:42:46.316Z</time></trkpt><trkpt lat="41.993555" lon="12.8689383"><ele>272.0</ele><time>2026-04-20T06:42:47.317Z</time></trkpt><trkpt lat="41.99369" lon="12.86915"><ele>272.0</ele><time>2026-04-20T06:42:48.318Z</time></trkpt><trkpt lat="41.9938167" lon="12.86939"><ele>272.0</ele><time>2026-04-20T06:42:49.317Z</time></trkpt><trkpt lat="41.9939317" lon="12.86964"><ele>272.0</ele><time>2026-04-20T06:42:50.317Z</time></trkpt><trkpt lat="41.9940283" lon="12.8698883"><ele>272.0</ele><time>2026-04-20T06:42:51.317Z</time></trkpt><trkpt lat="41.9941033" lon="12.870135"><ele>272.0</ele><time>2026-04-20T06:42:52.317Z</time></trkpt><trkpt lat="41.99416" lon="12.8703717"><ele>272.0</ele><time>2026-04-20T06:42:53.317Z</time></trkpt><trkpt lat="41.9941917" lon="12.87061"><ele>272.0</ele><time>2026-04-20T06:42:54.318Z</time></trkpt><trkpt lat="41.9942167" lon="12.87085"><ele>272.6666666666667</ele><time>2026-04-20T06:42:55.317Z</time></trkpt><trkpt lat="41.9942067" lon="12.87111"><ele>273.3333333333333</ele><time>2026-04-20T06:42:56.317Z</time></trkpt><trkpt lat="41.9941883" lon="12.8713617"><ele>274.0</ele><time>2026-04-20T06:42:57.32Z</time></trkpt><trkpt lat="41.9941633" lon="12.871595"><ele>271.66666666666663</ele><time>2026-04-20T06:42:58.315Z</time></trkpt><trkpt lat="41.9941483" lon="12.87183"><ele>269.3333333333333</ele><time>2026-04-20T06:42:59.316Z</time></trkpt><trkpt lat="41.9941583" lon="12.8720683"><ele>267.0</ele><time>2026-04-20T06:43:00.317Z</time></trkpt><trkpt lat="41.9941883" lon="12.8722967"><ele>270.0</ele><time>2026-04-20T06:43:01.317Z</time></trkpt><trkpt lat="41.9942633" lon="12.8725233"><ele>273.0</ele><time>2026-04-20T06:43:02.316Z</time></trkpt><trkpt lat="41.9943667" lon="12.87275"><ele>276.0</ele><time>2026-04-20T06:43:03.318Z</time></trkpt><trkpt lat="41.9944783" lon="12.8729717"><ele>276.0</ele><time>2026-04-20T06:43:04.317Z</time></trkpt><trkpt lat="41.9945917" lon="12.8731733"><ele>276.0</ele><time>2026-04-20T06:43:05.317Z</time></trkpt><trkpt lat="41.9947167" lon="12.87334"><ele>276.0</ele><time>2026-04-20T06:43:06.319Z</time></trkpt><trkpt lat="41.99487" lon="12.8734767"><ele>273.3333333333333</ele><time>2026-04-20T06:43:07.32Z</time></trkpt><trkpt lat="41.995045" lon="12.8735883"><ele>270.66666666666663</ele><time>2026-04-20T06:43:08.319Z</time></trkpt><trkpt lat="41.99523" lon="12.87367"><ele>268.0</ele><time>2026-04-20T06:43:09.318Z</time></trkpt><trkpt lat="41.9954033" lon="12.8737467"><ele>268.0</ele><time>2026-04-20T06:43:10.317Z</time></trkpt><trkpt lat="41.995565" lon="12.8738567"><ele>268.0</ele><time>2026-04-20T06:43:11.317Z</time></trkpt><trkpt lat="41.9957183" lon="12.8740033"><ele>268.0</ele><time>2026-04-20T06:43:12.318Z</time></trkpt><trkpt lat="41.995865" lon="12.8742033"><ele>269.5</ele><time>2026-04-20T06:43:13.317Z</time></trkpt><trkpt lat="41.9960167" lon="12.8744267"><ele>271.0</ele><time>2026-04-20T06:43:14.32Z</time></trkpt><trkpt lat="41.9961833" lon="12.874655"><ele>271.0</ele><time>2026-04-20T06:43:15.32Z</time></trkpt><trkpt lat="41.996355" lon="12.8748917"><ele>271.0</ele><time>2026-04-20T06:43:16.317Z</time></trkpt><trkpt lat="41.996545" lon="12.8751183"><ele>269.0</ele><time>2026-04-20T06:43:17.319Z</time></trkpt><trkpt lat="41.9967483" lon="12.875355"><ele>267.0</ele><time>2026-04-20T06:43:18.318Z</time></trkpt><trkpt lat="41.9969617" lon="12.8755767"><ele>267.0</ele><time>2026-04-20T06:43:19.319Z</time></trkpt><trkpt lat="41.9971717" lon="12.8757783"><ele>267.0</ele><time>2026-04-20T06:43:20.32Z</time></trkpt><trkpt lat="41.99737" lon="12.8759517"><ele>265.0</ele><time>2026-04-20T06:43:21.32Z</time></trkpt><trkpt lat="41.997565" lon="12.8761067"><ele>263.0</ele><time>2026-04-20T06:43:22.32Z</time></trkpt><trkpt lat="41.9977617" lon="12.8762567"><ele>263.0</ele><time>2026-04-20T06:43:23.319Z</time></trkpt><trkpt lat="41.997975" lon="12.8763883"><ele>263.0</ele><time>2026-04-20T06:43:24.319Z</time></trkpt><trkpt lat="41.9982067" lon="12.876505"><ele>268.0</ele><time>2026-04-20T06:43:25.32Z</time></trkpt><trkpt lat="41.9984517" lon="12.8766217"><ele>273.0</ele><time>2026-04-20T06:43:26.32Z</time></trkpt><trkpt lat="41.9986967" lon="12.8767433"><ele>268.0</ele><time>2026-04-20T06:43:27.32Z</time></trkpt><trkpt lat="41.998935" lon="12.8768567"><ele>263.0</ele><time>2026-04-20T06:43:28.32Z</time></trkpt><trkpt lat="41.99918" lon="12.8769417"><ele>263.0</ele><time>2026-04-20T06:43:29.317Z</time></trkpt><trkpt lat="41.9994233" lon="12.8770267"><ele>263.0</ele><time>2026-04-20T06:43:30.317Z</time></trkpt><trkpt lat="41.99967" lon="12.8770833"><ele>263.0</ele><time>2026-04-20T06:43:31.316Z</time></trkpt><trkpt lat="41.99991" lon="12.8771267"><ele>263.0</ele><time>2026-04-20T06:43:32.316Z</time></trkpt><trkpt lat="42.0001467" lon="12.8771567"><ele>263.0</ele><time>2026-04-20T06:43:33.317Z</time></trkpt><trkpt lat="42.0003817" lon="12.8771717"><ele>263.0</ele><time>2026-04-20T06:43:34.316Z</time></trkpt><trkpt lat="42.0006083" lon="12.8771783"><ele>263.0</ele><time>2026-04-20T06:43:35.317Z</time></trkpt><trkpt lat="42.0008367" lon="12.8771733"><ele>263.0</ele><time>2026-04-20T06:43:36.317Z</time></trkpt><trkpt lat="42.0010583" lon="12.8771467"><ele>263.0</ele><time>2026-04-20T06:43:37.317Z</time></trkpt><trkpt lat="42.0012733" lon="12.8771167"><ele>263.0</ele><time>2026-04-20T06:43:38.316Z</time></trkpt><trkpt lat="42.0014817" lon="12.8771083"><ele>263.0</ele><time>2026-04-20T06:43:39.317Z</time></trkpt><trkpt lat="42.0016833" lon="12.8771167"><ele>262.33333333333337</ele><time>2026-04-20T06:43:40.316Z</time></trkpt><trkpt lat="42.001885" lon="12.87712"><ele>261.6666666666667</ele><time>2026-04-20T06:43:41.318Z</time></trkpt><trkpt lat="42.0020867" lon="12.8771083"><ele>261.0</ele><time>2026-04-20T06:43:42.317Z</time></trkpt><trkpt lat="42.0022833" lon="12.87705"><ele>261.0</ele><time>2026-04-20T06:43:43.318Z</time></trkpt><trkpt lat="42.0024767" lon="12.876945"><ele>261.0</ele><time>2026-04-20T06:43:44.317Z</time></trkpt><trkpt lat="42.0026683" lon="12.8768133"><ele>261.0</ele><time>2026-04-20T06:43:45.318Z</time></trkpt><trkpt lat="42.002865" lon="12.8767"><ele>261.0</ele><time>2026-04-20T06:43:46.32Z</time></trkpt><trkpt lat="42.0030567" lon="12.8766167"><ele>261.0</ele><time>2026-04-20T06:43:47.316Z</time></trkpt><trkpt lat="42.003245" lon="12.876575"><ele>261.0</ele><time>2026-04-20T06:43:48.316Z</time></trkpt><trkpt lat="42.003435" lon="12.87658"><ele>260.6666666666667</ele><time>2026-04-20T06:43:49.316Z</time></trkpt><trkpt lat="42.003625" lon="12.8766367"><ele>260.33333333333337</ele><time>2026-04-20T06:43:50.317Z</time></trkpt><trkpt lat="42.003815" lon="12.8767333"><ele>260.0</ele><time>2026-04-20T06:43:51.317Z</time></trkpt><trkpt lat="42.0040033" lon="12.8768383"><ele>262.0</ele><time>2026-04-20T06:43:52.316Z</time></trkpt><trkpt lat="42.0041933" lon="12.87695"><ele>264.0</ele><time>2026-04-20T06:43:53.316Z</time></trkpt><trkpt lat="42.0043783" lon="12.877035"><ele>266.0</ele><time>2026-04-20T06:43:54.32Z</time></trkpt><trkpt lat="42.0045617" lon="12.8770933"><ele>266.0</ele><time>2026-04-20T06:43:55.316Z</time></trkpt><trkpt lat="42.0047417" lon="12.877105"><ele>266.0</ele><time>2026-04-20T06:43:56.318Z</time></trkpt><trkpt lat="42.0049083" lon="12.87709"><ele>266.0</ele><time>2026-04-20T06:43:57.32Z</time></trkpt><trkpt lat="42.0050567" lon="12.8770967"><ele>267.25</ele><time>2026-04-20T06:43:58.316Z</time></trkpt><trkpt lat="42.0051917" lon="12.8771467"><ele>268.5</ele><time>2026-04-20T06:43:59.316Z</time></trkpt><trkpt lat="42.0053083" lon="12.8772283"><ele>269.75</ele><time>2026-04-20T06:44:00.317Z</time></trkpt><trkpt lat="42.0053967" lon="12.8773483"><ele>271.0</ele><time>2026-04-20T06:44:01.317Z</time></trkpt><trkpt lat="42.0054583" lon="12.8775233"><ele>269.0</ele><time>2026-04-20T06:44:02.319Z</time></trkpt><trkpt lat="42.0054967" lon="12.877745"><ele>267.0</ele><time>2026-04-20T06:44:03.317Z</time></trkpt><trkpt lat="42.0055433" lon="12.87798"><ele>265.0</ele><time>2026-04-20T06:44:04.317Z</time></trkpt><trkpt lat="42.005605" lon="12.8782183"><ele>264.3333333333333</ele><time>2026-04-20T06:44:05.32Z</time></trkpt><trkpt lat="42.0057" lon="12.8784717"><ele>263.6666666666667</ele><time>2026-04-20T06:44:06.317Z</time></trkpt><trkpt lat="42.0057983" lon="12.878735"><ele>263.0</ele><time>2026-04-20T06:44:07.317Z</time></trkpt><trkpt lat="42.0058933" lon="12.878995"><ele>263.33333333333337</ele><time>2026-04-20T06:44:08.316Z</time></trkpt><trkpt lat="42.005985" lon="12.8792417"><ele>263.6666666666667</ele><time>2026-04-20T06:44:09.317Z</time></trkpt><trkpt lat="42.0060633" lon="12.8794883"><ele>264.0</ele><time>2026-04-20T06:44:10.32Z</time></trkpt><trkpt lat="42.006115" lon="12.8797367"><ele>264.0</ele><time>2026-04-20T06:44:11.32Z</time></trkpt><trkpt lat="42.0061583" lon="12.8799783"><ele>264.0</ele><time>2026-04-20T06:44:12.32Z</time></trkpt><trkpt lat="42.0062133" lon="12.8802167"><ele>264.0</ele><time>2026-04-20T06:44:13.316Z</time></trkpt><trkpt lat="42.006295" lon="12.8804583"><ele>263.6666666666667</ele><time>2026-04-20T06:44:14.32Z</time></trkpt><trkpt lat="42.00641" lon="12.8806983"><ele>263.33333333333337</ele><time>2026-04-20T06:44:15.316Z</time></trkpt><trkpt lat="42.0065633" lon="12.88093"><ele>263.0</ele><time>2026-04-20T06:44:16.321Z</time></trkpt><trkpt lat="42.0067283" lon="12.88115"><ele>263.0</ele><time>2026-04-20T06:44:17.318Z</time></trkpt><trkpt lat="42.006915" lon="12.8813467"><ele>263.0</ele><time>2026-04-20T06:44:18.319Z</time></trkpt><trkpt lat="42.007095" lon="12.881515"><ele>263.0</ele><time>2026-04-20T06:44:19.318Z</time></trkpt><trkpt lat="42.007275" lon="12.8816567"><ele>263.0</ele><time>2026-04-20T06:44:20.317Z</time></trkpt><trkpt lat="42.0074583" lon="12.8817583"><ele>263.0</ele><time>2026-04-20T06:44:21.316Z</time></trkpt><trkpt lat="42.007655" lon="12.88183"><ele>263.0</ele><time>2026-04-20T06:44:22.321Z</time></trkpt><trkpt lat="42.0078633" lon="12.8818683"><ele>263.0</ele><time>2026-04-20T06:44:23.32Z</time></trkpt><trkpt lat="42.0080767" lon="12.8818983"><ele>263.0</ele><time>2026-04-20T06:44:24.319Z</time></trkpt><trkpt lat="42.0082833" lon="12.88192"><ele>263.0</ele><time>2026-04-20T06:44:25.316Z</time></trkpt><trkpt lat="42.0084717" lon="12.8819517"><ele>263.0</ele><time>2026-04-20T06:44:26.32Z</time></trkpt><trkpt lat="42.0086467" lon="12.8820217"><ele>263.0</ele><time>2026-04-20T06:44:27.317Z</time></trkpt><trkpt lat="42.0088167" lon="12.8821367"><ele>263.0</ele><time>2026-04-20T06:44:28.316Z</time></trkpt><trkpt lat="42.0089883" lon="12.88228"><ele>263.0</ele><time>2026-04-20T06:44:29.319Z</time></trkpt><trkpt lat="42.0091617" lon="12.882435"><ele>263.0</ele><time>2026-04-20T06:44:30.316Z</time></trkpt><trkpt lat="42.0093367" lon="12.882605"><ele>263.6666666666667</ele><time>2026-04-20T06:44:31.317Z</time></trkpt><trkpt lat="42.0095017" lon="12.88277"><ele>264.3333333333333</ele><time>2026-04-20T06:44:32.317Z</time></trkpt><trkpt lat="42.0096717" lon="12.8829517"><ele>265.0</ele><time>2026-04-20T06:44:33.32Z</time></trkpt><trkpt lat="42.0098383" lon="12.8831367"><ele>265.0</ele><time>2026-04-20T06:44:34.315Z</time></trkpt><trkpt lat="42.0099983" lon="12.8833267"><ele>265.0</ele><time>2026-04-20T06:44:35.316Z</time></trkpt><trkpt lat="42.010155" lon="12.8835217"><ele>265.0</ele><time>2026-04-20T06:44:36.317Z</time></trkpt><trkpt lat="42.01031" lon="12.8837233"><ele>265.0</ele><time>2026-04-20T06:44:37.316Z</time></trkpt><trkpt lat="42.0104633" lon="12.88394"><ele>265.0</ele><time>2026-04-20T06:44:38.317Z</time></trkpt><trkpt lat="42.0106133" lon="12.8841717"><ele>264.5</ele><time>2026-04-20T06:44:39.318Z</time></trkpt><trkpt lat="42.0107633" lon="12.8844117"><ele>264.0</ele><time>2026-04-20T06:44:40.315Z</time></trkpt><trkpt lat="42.01091" lon="12.8846517"><ele>264.6666666666667</ele><time>2026-04-20T06:44:41.316Z</time></trkpt><trkpt lat="42.01105" lon="12.8848833"><ele>265.33333333333337</ele><time>2026-04-20T06:44:42.317Z</time></trkpt><trkpt lat="42.0111817" lon="12.8851183"><ele>266.0</ele><time>2026-04-20T06:44:43.319Z</time></trkpt><trkpt lat="42.011305" lon="12.8853683"><ele>266.0</ele><time>2026-04-20T06:44:44.317Z</time></trkpt><trkpt lat="42.0114183" lon="12.885635"><ele>266.0</ele><time>2026-04-20T06:44:45.317Z</time></trkpt><trkpt lat="42.0115217" lon="12.8859"><ele>264.6666666666667</ele><time>2026-04-20T06:44:46.316Z</time></trkpt><trkpt lat="42.0116033" lon="12.8861683"><ele>263.3333333333333</ele><time>2026-04-20T06:44:47.319Z</time></trkpt><trkpt lat="42.01167" lon="12.8864267"><ele>262.0</ele><time>2026-04-20T06:44:48.319Z</time></trkpt><trkpt lat="42.01174" lon="12.886655"><ele>264.66666666666663</ele><time>2026-04-20T06:44:49.32Z</time></trkpt><trkpt lat="42.01181" lon="12.886865"><ele>267.3333333333333</ele><time>2026-04-20T06:44:50.318Z</time></trkpt><trkpt lat="42.0118883" lon="12.887055"><ele>270.0</ele><time>2026-04-20T06:44:51.319Z</time></trkpt><trkpt lat="42.0119733" lon="12.8872317"><ele>270.0</ele><time>2026-04-20T06:44:52.319Z</time></trkpt><trkpt lat="42.0120583" lon="12.8874017"><ele>270.0</ele><time>2026-04-20T06:44:53.319Z</time></trkpt><trkpt lat="42.0121417" lon="12.8875767"><ele>270.0</ele><time>2026-04-20T06:44:54.318Z</time></trkpt><trkpt lat="42.0122217" lon="12.88775"><ele>269.6666666666667</ele><time>2026-04-20T06:44:55.318Z</time></trkpt><trkpt lat="42.0123017" lon="12.8879233"><ele>269.33333333333337</ele><time>2026-04-20T06:44:56.316Z</time></trkpt><trkpt lat="42.0123817" lon="12.8880967"><ele>269.0</ele><time>2026-04-20T06:44:57.32Z</time></trkpt><trkpt lat="42.0124633" lon="12.888275"><ele>269.33333333333337</ele><time>2026-04-20T06:44:58.318Z</time></trkpt><trkpt lat="42.0125467" lon="12.8884517"><ele>269.6666666666667</ele><time>2026-04-20T06:44:59.317Z</time></trkpt><trkpt lat="42.0126333" lon="12.8886267"><ele>270.0</ele><time>2026-04-20T06:45:00.316Z</time></trkpt><trkpt lat="42.0127233" lon="12.8887967"><ele>270.0</ele><time>2026-04-20T06:45:01.319Z</time></trkpt><trkpt lat="42.0128217" lon="12.888965"><ele>270.0</ele><time>2026-04-20T06:45:02.316Z</time></trkpt><trkpt lat="42.0129283" lon="12.889095"><ele>270.0</ele><time>2026-04-20T06:45:03.32Z</time></trkpt><trkpt lat="42.0130433" lon="12.88921"><ele>270.0</ele><time>2026-04-20T06:45:04.32Z</time></trkpt><trkpt lat="42.013155" lon="12.889325"><ele>269.5</ele><time>2026-04-20T06:45:05.32Z</time></trkpt><trkpt lat="42.0132517" lon="12.8894567"><ele>269.0</ele><time>2026-04-20T06:45:06.319Z</time></trkpt><trkpt lat="42.0133317" lon="12.8896017"><ele>268.5</ele><time>2026-04-20T06:45:07.316Z</time></trkpt><trkpt lat="42.0133917" lon="12.8897683"><ele>268.0</ele><time>2026-04-20T06:45:08.318Z</time></trkpt><trkpt lat="42.013425" lon="12.88996"><ele>273.3333333333333</ele><time>2026-04-20T06:45:09.317Z</time></trkpt><trkpt lat="42.0134467" lon="12.8901633"><ele>278.6666666666667</ele><time>2026-04-20T06:45:10.319Z</time></trkpt><trkpt lat="42.0134583" lon="12.89037"><ele>284.0</ele><time>2026-04-20T06:45:11.32Z</time></trkpt><trkpt lat="42.01347" lon="12.8905767"><ele>284.0</ele><time>2026-04-20T06:45:12.316Z</time></trkpt><trkpt lat="42.013465" lon="12.890775"><ele>284.0</ele><time>2026-04-20T06:45:13.316Z</time></trkpt><trkpt lat="42.013445" lon="12.8909767"><ele>284.0</ele><time>2026-04-20T06:45:14.32Z</time></trkpt><trkpt lat="42.0134167" lon="12.8911717"><ele>284.0</ele><time>2026-04-20T06:45:15.32Z</time></trkpt><trkpt lat="42.013395" lon="12.8913617"><ele>284.75</ele><time>2026-04-20T06:45:16.319Z</time></trkpt><trkpt lat="42.013375" lon="12.8915467"><ele>285.5</ele><time>2026-04-20T06:45:17.32Z</time></trkpt><trkpt lat="42.0133667" lon="12.8917383"><ele>286.25</ele><time>2026-04-20T06:45:18.317Z</time></trkpt><trkpt lat="42.0133617" lon="12.8919267"><ele>287.0</ele><time>2026-04-20T06:45:19.317Z</time></trkpt><trkpt lat="42.01337" lon="12.8921083"><ele>287.0</ele><time>2026-04-20T06:45:20.319Z</time></trkpt><trkpt lat="42.0133983" lon="12.8922783"><ele>287.0</ele><time>2026-04-20T06:45:21.318Z</time></trkpt><trkpt lat="42.0134517" lon="12.8924233"><ele>287.0</ele><time>2026-04-20T06:45:22.316Z</time></trkpt><trkpt lat="42.0135267" lon="12.8925533"><ele>287.0</ele><time>2026-04-20T06:45:23.319Z</time></trkpt><trkpt lat="42.0136233" lon="12.89267"><ele>282.33333333333337</ele><time>2026-04-20T06:45:24.318Z</time></trkpt><trkpt lat="42.0137733" lon="12.8927067"><ele>277.6666666666667</ele><time>2026-04-20T06:45:25.319Z</time></trkpt><trkpt lat="42.0139233" lon="12.8927367"><ele>273.0</ele><time>2026-04-20T06:45:26.318Z</time></trkpt><trkpt lat="42.0140767" lon="12.8927517"><ele>274.75</ele><time>2026-04-20T06:45:27.318Z</time></trkpt><trkpt lat="42.0142267" lon="12.892765"><ele>276.5</ele><time>2026-04-20T06:45:28.32Z</time></trkpt><trkpt lat="42.0143717" lon="12.89279"><ele>278.25</ele><time>2026-04-20T06:45:29.319Z</time></trkpt><trkpt lat="42.0145067" lon="12.892825"><ele>280.0</ele><time>2026-04-20T06:45:30.32Z</time></trkpt><trkpt lat="42.0146367" lon="12.8928667"><ele>280.0</ele><time>2026-04-20T06:45:31.318Z</time></trkpt><trkpt lat="42.014775" lon="12.8929233"><ele>280.0</ele><time>2026-04-20T06:45:32.318Z</time></trkpt><trkpt lat="42.0149017" lon="12.893005"><ele>280.0</ele><time>2026-04-20T06:45:33.317Z</time></trkpt><trkpt lat="42.0150217" lon="12.893105"><ele>280.0</ele><time>2026-04-20T06:45:34.317Z</time></trkpt><trkpt lat="42.0151367" lon="12.8932217"><ele>279.75</ele><time>2026-04-20T06:45:35.317Z</time></trkpt><trkpt lat="42.0152467" lon="12.893345"><ele>279.5</ele><time>2026-04-20T06:45:36.316Z</time></trkpt><trkpt lat="42.0153467" lon="12.8934867"><ele>279.25</ele><time>2026-04-20T06:45:37.317Z</time></trkpt><trkpt lat="42.0154367" lon="12.893645"><ele>279.0</ele><time>2026-04-20T06:45:38.319Z</time></trkpt><trkpt lat="42.0155217" lon="12.89381"><ele>279.0</ele><time>2026-04-20T06:45:39.319Z</time></trkpt><trkpt lat="42.0156033" lon="12.8939717"><ele>279.0</ele><time>2026-04-20T06:45:40.319Z</time></trkpt><trkpt lat="42.015695" lon="12.89413"><ele>279.0</ele><time>2026-04-20T06:45:41.316Z</time></trkpt><trkpt lat="42.0157733" lon="12.8942917"><ele>279.0</ele><time>2026-04-20T06:45:42.317Z</time></trkpt><trkpt lat="42.0158467" lon="12.8944583"><ele>283.25</ele><time>2026-04-20T06:45:43.319Z</time></trkpt><trkpt lat="42.0159117" lon="12.894625"><ele>287.5</ele><time>2026-04-20T06:45:44.318Z</time></trkpt><trkpt lat="42.015975" lon="12.894785"><ele>291.75</ele><time>2026-04-20T06:45:45.321Z</time></trkpt><trkpt lat="42.01603" lon="12.894955"><ele>296.0</ele><time>2026-04-20T06:45:46.319Z</time></trkpt><trkpt lat="42.0160717" lon="12.89513"><ele>296.0</ele><time>2026-04-20T06:45:47.32Z</time></trkpt><trkpt lat="42.01611" lon="12.8953017"><ele>296.0</ele><time>2026-04-20T06:45:48.315Z</time></trkpt><trkpt lat="42.0161283" lon="12.895455"><ele>296.0</ele><time>2026-04-20T06:45:49.316Z</time></trkpt><trkpt lat="42.0161483" lon="12.8955917"><ele>296.0</ele><time>2026-04-20T06:45:50.317Z</time></trkpt><trkpt lat="42.0161567" lon="12.8957267"><ele>296.0</ele><time>2026-04-20T06:45:51.317Z</time></trkpt><trkpt lat="42.01616" lon="12.8958617"><ele>296.0</ele><time>2026-04-20T06:45:52.316Z</time></trkpt><trkpt lat="42.0161567" lon="12.8959983"><ele>296.0</ele><time>2026-04-20T06:45:53.317Z</time></trkpt><trkpt lat="42.0161517" lon="12.8961417"><ele>296.0</ele><time>2026-04-20T06:45:54.317Z</time></trkpt><trkpt lat="42.016145" lon="12.8962933"><ele>296.0</ele><time>2026-04-20T06:45:55.319Z</time></trkpt><trkpt lat="42.0161383" lon="12.89645"><ele>295.75</ele><time>2026-04-20T06:45:56.319Z</time></trkpt><trkpt lat="42.016145" lon="12.89661"><ele>295.5</ele><time>2026-04-20T06:45:57.319Z</time></trkpt><trkpt lat="42.0161533" lon="12.8967767"><ele>295.25</ele><time>2026-04-20T06:45:58.319Z</time></trkpt><trkpt lat="42.0161617" lon="12.8969433"><ele>295.0</ele><time>2026-04-20T06:45:59.318Z</time></trkpt><trkpt lat="42.01617" lon="12.8971217"><ele>295.0</ele><time>2026-04-20T06:46:00.32Z</time></trkpt><trkpt lat="42.01619" lon="12.8973067"><ele>295.0</ele><time>2026-04-20T06:46:01.316Z</time></trkpt><trkpt lat="42.0162067" lon="12.8975"><ele>295.0</ele><time>2026-04-20T06:46:02.318Z</time></trkpt><trkpt lat="42.016235" lon="12.8976967"><ele>295.0</ele><time>2026-04-20T06:46:03.316Z</time></trkpt><trkpt lat="42.0162567" lon="12.8978933"><ele>294.0</ele><time>2026-04-20T06:46:04.321Z</time></trkpt><trkpt lat="42.0162733" lon="12.8980833"><ele>293.0</ele><time>2026-04-20T06:46:05.319Z</time></trkpt><trkpt lat="42.0162883" lon="12.8982733"><ele>292.0</ele><time>2026-04-20T06:46:06.317Z</time></trkpt><trkpt lat="42.0163067" lon="12.8984517"><ele>291.0</ele><time>2026-04-20T06:46:07.32Z</time></trkpt><trkpt lat="42.0163217" lon="12.8986183"><ele>289.5</ele><time>2026-04-20T06:46:08.319Z</time></trkpt><trkpt lat="42.0163517" lon="12.89877"><ele>288.0</ele><time>2026-04-20T06:46:09.319Z</time></trkpt><trkpt lat="42.0163967" lon="12.8989083"><ele>286.5</ele><time>2026-04-20T06:46:10.319Z</time></trkpt><trkpt lat="42.0164617" lon="12.8990317"><ele>285.0</ele><time>2026-04-20T06:46:11.319Z</time></trkpt><trkpt lat="42.0165383" lon="12.8991417"><ele>285.0</ele><time>2026-04-20T06:46:12.317Z</time></trkpt><trkpt lat="42.0166367" lon="12.899215"><ele>285.0</ele><time>2026-04-20T06:46:13.319Z</time></trkpt><trkpt lat="42.016755" lon="12.8992617"><ele>285.0</ele><time>2026-04-20T06:46:14.318Z</time></trkpt><trkpt lat="42.016895" lon="12.899265"><ele>285.0</ele><time>2026-04-20T06:46:15.32Z</time></trkpt><trkpt lat="42.0170467" lon="12.899245"><ele>293.0</ele><time>2026-04-20T06:46:16.316Z</time></trkpt><trkpt lat="42.0172083" lon="12.8992183"><ele>301.0</ele><time>2026-04-20T06:46:17.317Z</time></trkpt><trkpt lat="42.0173717" lon="12.8991883"><ele>309.0</ele><time>2026-04-20T06:46:18.317Z</time></trkpt><trkpt lat="42.01754" lon="12.8991667"><ele>309.6666666666667</ele><time>2026-04-20T06:46:19.316Z</time></trkpt><trkpt lat="42.0177217" lon="12.8991433"><ele>310.33333333333337</ele><time>2026-04-20T06:46:20.317Z</time></trkpt><trkpt lat="42.0179083" lon="12.89913"><ele>311.0</ele><time>2026-04-20T06:46:21.317Z</time></trkpt><trkpt lat="42.0181" lon="12.89911"><ele>311.0</ele><time>2026-04-20T06:46:22.317Z</time></trkpt><trkpt lat="42.018285" lon="12.8991"><ele>311.0</ele><time>2026-04-20T06:46:23.317Z</time></trkpt><trkpt lat="42.0184767" lon="12.899085"><ele>311.0</ele><time>2026-04-20T06:46:24.317Z</time></trkpt><trkpt lat="42.0186617" lon="12.8990667"><ele>311.0</ele><time>2026-04-20T06:46:25.316Z</time></trkpt><trkpt lat="42.0188467" lon="12.8990483"><ele>311.0</ele><time>2026-04-20T06:46:26.32Z</time></trkpt><trkpt lat="42.0190283" lon="12.89903"><ele>311.0</ele><time>2026-04-20T06:46:27.318Z</time></trkpt><trkpt lat="42.019205" lon="12.8990067"><ele>311.0</ele><time>2026-04-20T06:46:28.318Z</time></trkpt><trkpt lat="42.019385" lon="12.8989933"><ele>311.0</ele><time>2026-04-20T06:46:29.316Z</time></trkpt><trkpt lat="42.0195533" lon="12.8989767"><ele>311.0</ele><time>2026-04-20T06:46:30.319Z</time></trkpt><trkpt lat="42.0197067" lon="12.89896"><ele>311.0</ele><time>2026-04-20T06:46:31.319Z</time></trkpt><trkpt lat="42.0198333" lon="12.8989533"><ele>311.0</ele><time>2026-04-20T06:46:32.316Z</time></trkpt><trkpt lat="42.01994" lon="12.898965"><ele>311.0</ele><time>2026-04-20T06:46:33.316Z</time></trkpt><trkpt lat="42.0200217" lon="12.8989917"><ele>311.0</ele><time>2026-04-20T06:46:34.316Z</time></trkpt><trkpt lat="42.0200633" lon="12.8990733"><ele>311.0</ele><time>2026-04-20T06:46:35.317Z</time></trkpt><trkpt lat="42.0200717" lon="12.899195"><ele>312.40000000000003</ele><time>2026-04-20T06:46:36.319Z</time></trkpt><trkpt lat="42.0200433" lon="12.8993083"><ele>313.8</ele><time>2026-04-20T06:46:37.319Z</time></trkpt><trkpt lat="42.0200117" lon="12.899405"><ele>315.20000000000005</ele><time>2026-04-20T06:46:38.317Z</time></trkpt><trkpt lat="42.0198933" lon="12.8994817"><ele>316.6</ele><time>2026-04-20T06:46:39.318Z</time></trkpt><trkpt lat="42.0197683" lon="12.899555"><ele>318.0</ele><time>2026-04-20T06:46:40.317Z</time></trkpt><trkpt lat="42.019575" lon="12.8996333"><ele>318.0</ele><time>2026-04-20T06:46:41.318Z</time></trkpt><trkpt lat="42.0194" lon="12.8997017"><ele>318.0</ele><time>2026-04-20T06:46:42.315Z</time></trkpt><trkpt lat="42.019235" lon="12.8997733"><ele>318.0</ele><time>2026-04-20T06:46:43.321Z</time></trkpt><trkpt lat="42.01911" lon="12.89988"><ele>318.3333333333333</ele><time>2026-04-20T06:46:44.32Z</time></trkpt><trkpt lat="42.0190183" lon="12.900035"><ele>318.66666666666663</ele><time>2026-04-20T06:46:45.32Z</time></trkpt><trkpt lat="42.0189383" lon="12.9002283"><ele>319.0</ele><time>2026-04-20T06:46:46.319Z</time></trkpt><trkpt lat="42.0188633" lon="12.9004433"><ele>319.0</ele><time>2026-04-20T06:46:47.32Z</time></trkpt><trkpt lat="42.01879" lon="12.9006733"><ele>319.0</ele><time>2026-04-20T06:46:48.317Z</time></trkpt><trkpt lat="42.0187083" lon="12.9008767"><ele>319.0</ele><time>2026-04-20T06:46:49.317Z</time></trkpt><trkpt lat="42.0186067" lon="12.901015"><ele>316.0</ele><time>2026-04-20T06:46:50.316Z</time></trkpt><trkpt lat="42.0184917" lon="12.9011217"><ele>313.0</ele><time>2026-04-20T06:46:51.317Z</time></trkpt><trkpt lat="42.018355" lon="12.9011933"><ele>310.0</ele><time>2026-04-20T06:46:52.317Z</time></trkpt><trkpt lat="42.0181667" lon="12.9011967"><ele>310.0</ele><time>2026-04-20T06:46:53.317Z</time></trkpt><trkpt lat="42.0180083" lon="12.90121"><ele>310.0</ele><time>2026-04-20T06:46:54.317Z</time></trkpt><trkpt lat="42.01787" lon="12.9012333"><ele>310.0</ele><time>2026-04-20T06:46:55.319Z</time></trkpt><trkpt lat="42.0177617" lon="12.9012917"><ele>310.0</ele><time>2026-04-20T06:46:56.318Z</time></trkpt><trkpt lat="42.0176867" lon="12.9013833"><ele>310.0</ele><time>2026-04-20T06:46:57.32Z</time></trkpt><trkpt lat="42.01766" lon="12.9015"><ele>310.0</ele><time>2026-04-20T06:46:58.319Z</time></trkpt><trkpt lat="42.0176733" lon="12.9016283"><ele>310.0</ele><time>2026-04-20T06:46:59.32Z</time></trkpt><trkpt lat="42.0177183" lon="12.90176"><ele>310.0</ele><time>2026-04-20T06:47:00.319Z</time></trkpt><trkpt lat="42.0178133" lon="12.9018917"><ele>310.0</ele><time>2026-04-20T06:47:01.318Z</time></trkpt><trkpt lat="42.0179283" lon="12.90203"><ele>307.66666666666663</ele><time>2026-04-20T06:47:02.32Z</time></trkpt><trkpt lat="42.01805" lon="12.9021717"><ele>305.3333333333333</ele><time>2026-04-20T06:47:03.319Z</time></trkpt><trkpt lat="42.0181733" lon="12.9023133"><ele>303.0</ele><time>2026-04-20T06:47:04.317Z</time></trkpt><trkpt lat="42.0183117" lon="12.90244"><ele>308.0</ele><time>2026-04-20T06:47:05.317Z</time></trkpt><trkpt lat="42.01846" lon="12.9025317"><ele>313.0</ele><time>2026-04-20T06:47:06.318Z</time></trkpt><trkpt lat="42.0186133" lon="12.9025817"><ele>318.0</ele><time>2026-04-20T06:47:07.319Z</time></trkpt><trkpt lat="42.0187833" lon="12.90258"><ele>321.3333333333333</ele><time>2026-04-20T06:47:08.318Z</time></trkpt><trkpt lat="42.0189567" lon="12.90255"><ele>324.66666666666663</ele><time>2026-04-20T06:47:09.319Z</time></trkpt><trkpt lat="42.0191533" lon="12.9024883"><ele>328.0</ele><time>2026-04-20T06:47:10.316Z</time></trkpt><trkpt lat="42.0193167" lon="12.9024383"><ele>327.0</ele><time>2026-04-20T06:47:11.317Z</time></trkpt><trkpt lat="42.0194617" lon="12.9024217"><ele>326.0</ele><time>2026-04-20T06:47:12.316Z</time></trkpt><trkpt lat="42.01959" lon="12.9024483"><ele>325.0</ele><time>2026-04-20T06:47:13.316Z</time></trkpt><trkpt lat="42.019715" lon="12.902525"><ele>324.0</ele><time>2026-04-20T06:47:14.316Z</time></trkpt><trkpt lat="42.0198417" lon="12.9026317"><ele>324.0</ele><time>2026-04-20T06:47:15.317Z</time></trkpt><trkpt lat="42.0199533" lon="12.9027567"><ele>324.0</ele><time>2026-04-20T06:47:16.317Z</time></trkpt><trkpt lat="42.0200233" lon="12.9029017"><ele>324.0</ele><time>2026-04-20T06:47:17.316Z</time></trkpt><trkpt lat="42.020065" lon="12.90306"><ele>324.0</ele><time>2026-04-20T06:47:18.317Z</time></trkpt><trkpt lat="42.020065" lon="12.903235"><ele>326.0</ele><time>2026-04-20T06:47:19.318Z</time></trkpt><trkpt lat="42.0200233" lon="12.9034133"><ele>328.0</ele><time>2026-04-20T06:47:20.316Z</time></trkpt><trkpt lat="42.0199433" lon="12.9035867"><ele>330.0</ele><time>2026-04-20T06:47:21.317Z</time></trkpt><trkpt lat="42.0198267" lon="12.9037517"><ele>330.0</ele><time>2026-04-20T06:47:22.316Z</time></trkpt><trkpt lat="42.0197033" lon="12.903915"><ele>330.0</ele><time>2026-04-20T06:47:23.317Z</time></trkpt><trkpt lat="42.0195817" lon="12.904075"><ele>330.0</ele><time>2026-04-20T06:47:24.316Z</time></trkpt><trkpt lat="42.0194567" lon="12.9042383"><ele>334.0</ele><time>2026-04-20T06:47:25.32Z</time></trkpt><trkpt lat="42.0193517" lon="12.904405"><ele>338.0</ele><time>2026-04-20T06:47:26.319Z</time></trkpt><trkpt lat="42.01925" lon="12.904575"><ele>342.0</ele><time>2026-04-20T06:47:27.318Z</time></trkpt><trkpt lat="42.0191533" lon="12.9047517"><ele>339.3333333333333</ele><time>2026-04-20T06:47:28.319Z</time></trkpt><trkpt lat="42.019065" lon="12.9049233"><ele>336.66666666666663</ele><time>2026-04-20T06:47:29.32Z</time></trkpt><trkpt lat="42.0189817" lon="12.9050967"><ele>334.0</ele><time>2026-04-20T06:47:30.319Z</time></trkpt><trkpt lat="42.0189" lon="12.9052683"><ele>334.0</ele><time>2026-04-20T06:47:31.321Z</time></trkpt><trkpt lat="42.0188217" lon="12.9054333"><ele>334.0</ele><time>2026-04-20T06:47:32.319Z</time></trkpt><trkpt lat="42.0187533" lon="12.9056"><ele>334.0</ele><time>2026-04-20T06:47:33.32Z</time></trkpt><trkpt lat="42.01868" lon="12.9057433"><ele>334.0</ele><time>2026-04-20T06:47:34.32Z</time></trkpt><trkpt lat="42.0186083" lon="12.9058817"><ele>335.75</ele><time>2026-04-20T06:47:35.321Z</time></trkpt><trkpt lat="42.01854" lon="12.9060183"><ele>337.5</ele><time>2026-04-20T06:47:36.317Z</time></trkpt><trkpt lat="42.0184683" lon="12.9061467"><ele>339.25</ele><time>2026-04-20T06:47:37.321Z</time></trkpt><trkpt lat="42.0184017" lon="12.9062767"><ele>341.0</ele><time>2026-04-20T06:47:38.319Z</time></trkpt><trkpt lat="42.01834" lon="12.9064"><ele>340.6</ele><time>2026-04-20T06:47:39.32Z</time></trkpt><trkpt lat="42.018275" lon="12.9065267"><ele>340.20000000000005</ele><time>2026-04-20T06:47:40.32Z</time></trkpt><trkpt lat="42.0182133" lon="12.906645"><ele>339.79999999999995</ele><time>2026-04-20T06:47:41.32Z</time></trkpt><trkpt lat="42.01816" lon="12.9067567"><ele>339.4</ele><time>2026-04-20T06:47:42.32Z</time></trkpt><trkpt lat="42.0181033" lon="12.906865"><ele>339.0</ele><time>2026-04-20T06:47:43.32Z</time></trkpt><trkpt lat="42.0180483" lon="12.90697"><ele>339.0</ele><time>2026-04-20T06:47:44.319Z</time></trkpt><trkpt lat="42.0179983" lon="12.9070733"><ele>339.0</ele><time>2026-04-20T06:47:45.319Z</time></trkpt><trkpt lat="42.0179567" lon="12.9071583"><ele>339.0</ele><time>2026-04-20T06:47:46.32Z</time></trkpt><trkpt lat="42.01792" lon="12.9072317"><ele>339.0</ele><time>2026-04-20T06:47:47.32Z</time></trkpt><trkpt lat="42.017865" lon="12.9073383"><ele>339.0</ele><time>2026-04-20T06:47:49.321Z</time></trkpt><trkpt lat="42.0178417" lon="12.9074333"><ele>339.0</ele><time>2026-04-20T06:47:53.32Z</time></trkpt><trkpt lat="42.0179017" lon="12.9074933"><ele>339.0</ele><time>2026-04-20T06:48:02.319Z</time></trkpt><trkpt lat="42.0179683" lon="12.9075117"><ele>339.0</ele><time>2026-04-20T06:48:08.317Z</time></trkpt><trkpt lat="42.0180933" lon="12.9075317"><ele>339.0</ele><time>2026-04-20T06:49:02.866Z</time></trkpt><trkpt lat="42.0180283" lon="12.907515"><ele>339.0</ele><time>2026-04-20T06:49:04.819Z</time></trkpt><trkpt lat="42.01792" lon="12.9074783"><ele>339.0</ele><time>2026-04-20T06:50:14.318Z</time></trkpt><trkpt lat="42.0178983" lon="12.9073917"><ele>339.0</ele><time>2026-04-20T06:51:23.318Z</time></trkpt><trkpt lat="42.0179358" lon="12.9074751"><ele>339.0</ele><time>2026-04-20T06:51:55.317Z</time></trkpt><trkpt lat="42.0179054" lon="12.907553"><ele>339.0</ele><time>2026-04-20T06:52:19.316Z</time></trkpt><trkpt lat="42.0179059" lon="12.9074005"><ele>339.0</ele><time>2026-04-20T06:52:58.319Z</time></trkpt><trkpt lat="42.0179317" lon="12.9074804"><ele>339.0</ele><time>2026-04-20T06:53:14.317Z</time></trkpt><trkpt lat="42.0180136" lon="12.9075226"><ele>339.0</ele><time>2026-04-20T06:55:11.319Z</time></trkpt><trkpt lat="42.0180773" lon="12.9075559"><ele>339.0</ele><time>2026-04-20T06:55:18.319Z</time></trkpt><trkpt lat="42.0181444" lon="12.9075511"><ele>339.0</ele><time>2026-04-20T06:55:28.319Z</time></trkpt><trkpt lat="42.0182037" lon="12.907589"><ele>339.0</ele><time>2026-04-20T06:55:33.319Z</time></trkpt><trkpt lat="42.0182718" lon="12.9076057"><ele>339.0</ele><time>2026-04-20T06:55:36.319Z</time></trkpt><trkpt lat="42.018316" lon="12.9075428"><ele>339.0</ele><time>2026-04-20T06:55:45.319Z</time></trkpt><trkpt lat="42.0183615" lon="12.9074814"><ele>339.0</ele><time>2026-04-20T06:55:57.32Z</time></trkpt><trkpt lat="42.0184323" lon="12.9074403"><ele>339.0</ele><time>2026-04-20T06:56:01.319Z</time></trkpt><trkpt lat="42.0184976" lon="12.907375"><ele>339.0</ele><time>2026-04-20T06:56:05.32Z</time></trkpt><trkpt lat="42.0184232" lon="12.9074249"><ele>339.0</ele><time>2026-04-20T06:56:12.319Z</time></trkpt><trkpt lat="42.0183514" lon="12.9074403"><ele>339.0</ele><time>2026-04-20T06:56:27.319Z</time></trkpt><trkpt lat="42.0182829" lon="12.9075153"><ele>339.0</ele><time>2026-04-20T06:56:42.318Z</time></trkpt><trkpt lat="42.0183375" lon="12.9075981"><ele>339.0</ele><time>2026-04-20T06:56:52.32Z</time></trkpt><trkpt lat="42.0182768" lon="12.9076215"><ele>339.0</ele><time>2026-04-20T06:57:05.318Z</time></trkpt><trkpt lat="42.0181981" lon="12.9076166"><ele>339.0</ele><time>2026-04-20T06:57:09.321Z</time></trkpt><trkpt lat="42.0181118" lon="12.9076572"><ele>339.0</ele><time>2026-04-20T06:59:47.319Z</time></trkpt><trkpt lat="42.0180653" lon="12.9077174"><ele>339.0</ele><time>2026-04-20T07:00:00.318Z</time></trkpt><trkpt lat="42.0181553" lon="12.9077672"><ele>339.0</ele><time>2026-04-20T07:00:20.32Z</time></trkpt><trkpt lat="42.0181756" lon="12.9076383"><ele>339.0</ele><time>2026-04-20T07:00:24.32Z</time></trkpt><trkpt lat="42.01803" lon="12.9075742"><ele>339.0</ele><time>2026-04-20T07:00:45.318Z</time></trkpt><trkpt lat="42.0179864" lon="12.9075011"><ele>339.0</ele><time>2026-04-20T07:01:34.319Z</time></trkpt><trkpt lat="42.0179255" lon="12.9075272"><ele>339.0</ele><time>2026-04-20T07:02:00.319Z</time></trkpt><trkpt lat="42.0179921" lon="12.9074964"><ele>339.0</ele><time>2026-04-20T07:03:06.315Z</time></trkpt><trkpt lat="42.0180507" lon="12.9075513"><ele>339.0</ele><time>2026-04-20T07:03:16.318Z</time></trkpt><trkpt lat="42.0181235" lon="12.9075687"><ele>339.0</ele><time>2026-04-20T07:03:29.317Z</time></trkpt><trkpt lat="42.0181983" lon="12.9075766"><ele>339.0</ele><time>2026-04-20T07:03:46.319Z</time></trkpt><trkpt lat="42.0182714" lon="12.9075553"><ele>339.0</ele><time>2026-04-20T07:03:53.32Z</time></trkpt><trkpt lat="42.0181811" lon="12.9075647"><ele>339.0</ele><time>2026-04-20T07:03:58.317Z</time></trkpt><trkpt lat="42.01821" lon="12.9074606"><ele>339.0</ele><time>2026-04-20T07:04:49.32Z</time></trkpt><trkpt lat="42.0181824" lon="12.9075517"><ele>339.0</ele><time>2026-04-20T07:04:56.319Z</time></trkpt><trkpt lat="42.0182808" lon="12.9076208"><ele>339.0</ele><time>2026-04-20T07:07:03.32Z</time></trkpt><trkpt lat="42.0183228" lon="12.9075381"><ele>339.0</ele><time>2026-04-20T07:07:07.32Z</time></trkpt><trkpt lat="42.018361" lon="12.9074686"><ele>339.0</ele><time>2026-04-20T07:07:11.319Z</time></trkpt><trkpt lat="42.018391" lon="12.9073872"><ele>339.0</ele><time>2026-04-20T07:07:20.319Z</time></trkpt><trkpt lat="42.0184284" lon="12.9073188"><ele>339.0</ele><time>2026-04-20T07:07:26.32Z</time></trkpt><trkpt lat="42.0183517" lon="12.9073998"><ele>339.0</ele><time>2026-04-20T07:07:29.319Z</time></trkpt><trkpt lat="42.0182824" lon="12.9074187"><ele>339.0</ele><time>2026-04-20T07:07:37.318Z</time></trkpt><trkpt lat="42.0181648" lon="12.9074893"><ele>339.0</ele><time>2026-04-20T07:07:40.318Z</time></trkpt><trkpt lat="42.0181011" lon="12.9075414"><ele>339.0</ele><time>2026-04-20T07:07:42.318Z</time></trkpt><trkpt lat="42.0180431" lon="12.9075802"><ele>339.0</ele><time>2026-04-20T07:07:51.321Z</time></trkpt><trkpt lat="42.0179904" lon="12.9075215"><ele>339.0</ele><time>2026-04-20T07:08:02.321Z</time></trkpt><trkpt lat="42.0179489" lon="12.9074555"><ele>339.0</ele><time>2026-04-20T07:14:23.316Z</time></trkpt><trkpt lat="42.0179411" lon="12.9073365"><ele>339.0</ele><time>2026-04-20T07:14:35.316Z</time></trkpt><trkpt lat="42.0179879" lon="12.9072033"><ele>339.0</ele><time>2026-04-20T07:14:37.317Z</time></trkpt><trkpt lat="42.0180204" lon="12.9071252"><ele>339.0</ele><time>2026-04-20T07:14:38.317Z</time></trkpt><trkpt lat="42.0180524" lon="12.9070469"><ele>339.0</ele><time>2026-04-20T07:14:39.317Z</time></trkpt><trkpt lat="42.0180874" lon="12.9069668"><ele>339.0</ele><time>2026-04-20T07:14:40.316Z</time></trkpt><trkpt lat="42.0181318" lon="12.9068804"><ele>339.0</ele><time>2026-04-20T07:14:41.317Z</time></trkpt><trkpt lat="42.0181853" lon="12.9067791"><ele>339.0</ele><time>2026-04-20T07:14:42.317Z</time></trkpt><trkpt lat="42.0182441" lon="12.9066694"><ele>339.0</ele><time>2026-04-20T07:14:43.315Z</time></trkpt><trkpt lat="42.0183033" lon="12.9065563"><ele>339.0</ele><time>2026-04-20T07:14:44.316Z</time></trkpt><trkpt lat="42.0183628" lon="12.9064377"><ele>339.4</ele><time>2026-04-20T07:14:45.317Z</time></trkpt><trkpt lat="42.0184183" lon="12.9063155"><ele>339.79999999999995</ele><time>2026-04-20T07:14:46.32Z</time></trkpt><trkpt lat="42.0184749" lon="12.9061965"><ele>340.20000000000005</ele><time>2026-04-20T07:14:47.318Z</time></trkpt><trkpt lat="42.0185282" lon="12.9060819"><ele>340.6</ele><time>2026-04-20T07:14:48.319Z</time></trkpt><trkpt lat="42.0185779" lon="12.9059653"><ele>341.0</ele><time>2026-04-20T07:14:49.318Z</time></trkpt><trkpt lat="42.0186311" lon="12.9058532"><ele>339.83333333333337</ele><time>2026-04-20T07:14:50.32Z</time></trkpt><trkpt lat="42.0186845" lon="12.9057539"><ele>338.6666666666667</ele><time>2026-04-20T07:14:51.319Z</time></trkpt><trkpt lat="42.0187391" lon="12.9056645"><ele>337.5</ele><time>2026-04-20T07:14:52.318Z</time></trkpt><trkpt lat="42.0187966" lon="12.9055905"><ele>336.3333333333333</ele><time>2026-04-20T07:14:53.32Z</time></trkpt><trkpt lat="42.0188587" lon="12.9055308"><ele>335.16666666666663</ele><time>2026-04-20T07:14:54.32Z</time></trkpt><trkpt lat="42.0189367" lon="12.90549"><ele>334.0</ele><time>2026-04-20T07:14:55.318Z</time></trkpt><trkpt lat="42.0190233" lon="12.9054717"><ele>334.0</ele><time>2026-04-20T07:14:56.318Z</time></trkpt><trkpt lat="42.0191233" lon="12.9054767"><ele>334.0</ele><time>2026-04-20T07:14:57.316Z</time></trkpt><trkpt lat="42.01923" lon="12.9055017"><ele>334.0</ele><time>2026-04-20T07:14:58.319Z</time></trkpt><trkpt lat="42.0193467" lon="12.9055083"><ele>334.0</ele><time>2026-04-20T07:14:59.32Z</time></trkpt><trkpt lat="42.0194633" lon="12.9054883"><ele>334.0</ele><time>2026-04-20T07:15:00.319Z</time></trkpt><trkpt lat="42.019585" lon="12.905445"><ele>336.0</ele><time>2026-04-20T07:15:01.315Z</time></trkpt><trkpt lat="42.0197" lon="12.905365"><ele>338.0</ele><time>2026-04-20T07:15:02.319Z</time></trkpt><trkpt lat="42.0198033" lon="12.9052567"><ele>340.0</ele><time>2026-04-20T07:15:03.318Z</time></trkpt><trkpt lat="42.0198983" lon="12.9051317"><ele>342.0</ele><time>2026-04-20T07:15:04.315Z</time></trkpt><trkpt lat="42.019995" lon="12.9049983"><ele>343.5</ele><time>2026-04-20T07:15:05.316Z</time></trkpt><trkpt lat="42.0201017" lon="12.904855"><ele>345.0</ele><time>2026-04-20T07:15:06.318Z</time></trkpt><trkpt lat="42.0202033" lon="12.904715"><ele>346.5</ele><time>2026-04-20T07:15:07.316Z</time></trkpt><trkpt lat="42.02031" lon="12.9045767"><ele>348.0</ele><time>2026-04-20T07:15:08.316Z</time></trkpt><trkpt lat="42.0204133" lon="12.9044383"><ele>348.0</ele><time>2026-04-20T07:15:09.317Z</time></trkpt><trkpt lat="42.0205183" lon="12.9043017"><ele>348.0</ele><time>2026-04-20T07:15:10.315Z</time></trkpt><trkpt lat="42.0206267" lon="12.904165"><ele>348.0</ele><time>2026-04-20T07:15:11.316Z</time></trkpt><trkpt lat="42.0207333" lon="12.9040267"><ele>348.0</ele><time>2026-04-20T07:15:12.32Z</time></trkpt><trkpt lat="42.0208383" lon="12.9038883"><ele>348.6666666666667</ele><time>2026-04-20T07:15:13.319Z</time></trkpt><trkpt lat="42.0209433" lon="12.90374"><ele>349.33333333333337</ele><time>2026-04-20T07:15:14.32Z</time></trkpt><trkpt lat="42.0210517" lon="12.90359"><ele>350.0</ele><time>2026-04-20T07:15:15.318Z</time></trkpt><trkpt lat="42.02116" lon="12.9034367"><ele>350.6666666666667</ele><time>2026-04-20T07:15:16.316Z</time></trkpt><trkpt lat="42.021275" lon="12.9032867"><ele>351.3333333333333</ele><time>2026-04-20T07:15:17.318Z</time></trkpt><trkpt lat="42.0213967" lon="12.9031433"><ele>352.0</ele><time>2026-04-20T07:15:18.318Z</time></trkpt><trkpt lat="42.02152" lon="12.9030067"><ele>353.66666666666663</ele><time>2026-04-20T07:15:19.316Z</time></trkpt><trkpt lat="42.0216517" lon="12.9028817"><ele>355.3333333333333</ele><time>2026-04-20T07:15:20.319Z</time></trkpt><trkpt lat="42.0217983" lon="12.9027867"><ele>357.0</ele><time>2026-04-20T07:15:21.317Z</time></trkpt><trkpt lat="42.0219583" lon="12.9027167"><ele>357.0</ele><time>2026-04-20T07:15:22.316Z</time></trkpt><trkpt lat="42.022125" lon="12.9026617"><ele>357.0</ele><time>2026-04-20T07:15:23.317Z</time></trkpt><trkpt lat="42.0223017" lon="12.902635"><ele>357.0</ele><time>2026-04-20T07:15:24.317Z</time></trkpt><trkpt lat="42.02249" lon="12.9026217"><ele>354.0</ele><time>2026-04-20T07:15:25.316Z</time></trkpt><trkpt lat="42.0226867" lon="12.9026167"><ele>351.0</ele><time>2026-04-20T07:15:26.317Z</time></trkpt><trkpt lat="42.0228817" lon="12.9026117"><ele>348.0</ele><time>2026-04-20T07:15:27.316Z</time></trkpt><trkpt lat="42.0230833" lon="12.9026067"><ele>348.0</ele><time>2026-04-20T07:15:28.317Z</time></trkpt><trkpt lat="42.0232817" lon="12.9025967"><ele>348.0</ele><time>2026-04-20T07:15:29.316Z</time></trkpt><trkpt lat="42.02348" lon="12.9026067"><ele>348.0</ele><time>2026-04-20T07:15:30.317Z</time></trkpt><trkpt lat="42.023675" lon="12.902635"><ele>345.6666666666667</ele><time>2026-04-20T07:15:31.316Z</time></trkpt><trkpt lat="42.023865" lon="12.902695"><ele>343.33333333333337</ele><time>2026-04-20T07:15:32.317Z</time></trkpt><trkpt lat="42.0240533" lon="12.902785"><ele>341.0</ele><time>2026-04-20T07:15:33.318Z</time></trkpt><trkpt lat="42.024235" lon="12.9028983"><ele>340.6666666666667</ele><time>2026-04-20T07:15:34.315Z</time></trkpt><trkpt lat="42.024415" lon="12.9030317"><ele>340.3333333333333</ele><time>2026-04-20T07:15:35.318Z</time></trkpt><trkpt lat="42.0245917" lon="12.9031617"><ele>340.0</ele><time>2026-04-20T07:15:36.317Z</time></trkpt><trkpt lat="42.024765" lon="12.903285"><ele>340.0</ele><time>2026-04-20T07:15:37.32Z</time></trkpt><trkpt lat="42.0249333" lon="12.9033983"><ele>340.0</ele><time>2026-04-20T07:15:38.317Z</time></trkpt><trkpt lat="42.0250967" lon="12.9035133"><ele>340.0</ele><time>2026-04-20T07:15:39.32Z</time></trkpt><trkpt lat="42.025255" lon="12.90363"><ele>338.66666666666663</ele><time>2026-04-20T07:15:40.319Z</time></trkpt><trkpt lat="42.0254117" lon="12.9037383"><ele>337.3333333333333</ele><time>2026-04-20T07:15:41.318Z</time></trkpt><trkpt lat="42.02557" lon="12.9038433"><ele>336.0</ele><time>2026-04-20T07:15:42.319Z</time></trkpt><trkpt lat="42.0257367" lon="12.9039383"><ele>337.0</ele><time>2026-04-20T07:15:43.319Z</time></trkpt><trkpt lat="42.0259067" lon="12.9040117"><ele>338.0</ele><time>2026-04-20T07:15:44.319Z</time></trkpt><trkpt lat="42.0260817" lon="12.9040583"><ele>339.0</ele><time>2026-04-20T07:15:45.32Z</time></trkpt><trkpt lat="42.026265" lon="12.904095"><ele>339.0</ele><time>2026-04-20T07:15:46.32Z</time></trkpt><trkpt lat="42.0264483" lon="12.904105"><ele>339.0</ele><time>2026-04-20T07:15:47.319Z</time></trkpt><trkpt lat="42.0266367" lon="12.9040883"><ele>339.0</ele><time>2026-04-20T07:15:48.317Z</time></trkpt><trkpt lat="42.02683" lon="12.9040517"><ele>339.0</ele><time>2026-04-20T07:15:49.318Z</time></trkpt><trkpt lat="42.0270317" lon="12.9039983"><ele>339.0</ele><time>2026-04-20T07:15:50.316Z</time></trkpt><trkpt lat="42.0272367" lon="12.9039433"><ele>339.0</ele><time>2026-04-20T07:15:51.317Z</time></trkpt><trkpt lat="42.0274417" lon="12.9038833"><ele>337.6666666666667</ele><time>2026-04-20T07:15:52.317Z</time></trkpt><trkpt lat="42.0276517" lon="12.903835"><ele>336.33333333333337</ele><time>2026-04-20T07:15:53.316Z</time></trkpt><trkpt lat="42.027865" lon="12.90379"><ele>335.0</ele><time>2026-04-20T07:15:54.318Z</time></trkpt><trkpt lat="42.0280783" lon="12.9037467"><ele>335.0</ele><time>2026-04-20T07:15:55.317Z</time></trkpt><trkpt lat="42.0283" lon="12.9037117"><ele>335.0</ele><time>2026-04-20T07:15:56.317Z</time></trkpt><trkpt lat="42.028525" lon="12.90368"><ele>335.0</ele><time>2026-04-20T07:15:57.317Z</time></trkpt><trkpt lat="42.0287617" lon="12.9036567"><ele>333.5</ele><time>2026-04-20T07:15:58.317Z</time></trkpt><trkpt lat="42.0290083" lon="12.9036267"><ele>332.0</ele><time>2026-04-20T07:15:59.317Z</time></trkpt><trkpt lat="42.02926" lon="12.9035983"><ele>332.0</ele><time>2026-04-20T07:16:00.318Z</time></trkpt><trkpt lat="42.0295167" lon="12.903565"><ele>332.0</ele><time>2026-04-20T07:16:01.317Z</time></trkpt><trkpt lat="42.0297717" lon="12.90353"><ele>332.5</ele><time>2026-04-20T07:16:02.32Z</time></trkpt><trkpt lat="42.030025" lon="12.9035"><ele>333.0</ele><time>2026-04-20T07:16:03.318Z</time></trkpt><trkpt lat="42.030275" lon="12.903475"><ele>333.0</ele><time>2026-04-20T07:16:04.319Z</time></trkpt><trkpt lat="42.0305283" lon="12.903465"><ele>333.0</ele><time>2026-04-20T07:16:05.319Z</time></trkpt><trkpt lat="42.030775" lon="12.9034633"><ele>332.5</ele><time>2026-04-20T07:16:06.318Z</time></trkpt><trkpt lat="42.0310283" lon="12.90349"><ele>332.0</ele><time>2026-04-20T07:16:07.315Z</time></trkpt><trkpt lat="42.03128" lon="12.9035367"><ele>332.0</ele><time>2026-04-20T07:16:08.32Z</time></trkpt><trkpt lat="42.031535" lon="12.9036"><ele>332.0</ele><time>2026-04-20T07:16:09.319Z</time></trkpt><trkpt lat="42.0317867" lon="12.90366"><ele>334.0</ele><time>2026-04-20T07:16:10.316Z</time></trkpt><trkpt lat="42.0320367" lon="12.9037167"><ele>336.0</ele><time>2026-04-20T07:16:11.32Z</time></trkpt><trkpt lat="42.03228" lon="12.9037717"><ele>338.0</ele><time>2026-04-20T07:16:12.319Z</time></trkpt><trkpt lat="42.03252" lon="12.9038267"><ele>340.0</ele><time>2026-04-20T07:16:13.319Z</time></trkpt><trkpt lat="42.03275" lon="12.90387"><ele>340.0</ele><time>2026-04-20T07:16:14.319Z</time></trkpt><trkpt lat="42.032975" lon="12.9039067"><ele>340.0</ele><time>2026-04-20T07:16:15.32Z</time></trkpt><trkpt lat="42.0331983" lon="12.9039267"><ele>341.0</ele><time>2026-04-20T07:16:16.318Z</time></trkpt><trkpt lat="42.03342" lon="12.9039283"><ele>342.0</ele><time>2026-04-20T07:16:17.318Z</time></trkpt><trkpt lat="42.0336433" lon="12.9039083"><ele>343.0</ele><time>2026-04-20T07:16:18.319Z</time></trkpt><trkpt lat="42.0338717" lon="12.903865"><ele>343.0</ele><time>2026-04-20T07:16:19.315Z</time></trkpt><trkpt lat="42.034105" lon="12.9038033"><ele>343.0</ele><time>2026-04-20T07:16:20.316Z</time></trkpt><trkpt lat="42.0343483" lon="12.9037267"><ele>344.5</ele><time>2026-04-20T07:16:21.317Z</time></trkpt><trkpt lat="42.03459" lon="12.903645"><ele>346.0</ele><time>2026-04-20T07:16:22.316Z</time></trkpt><trkpt lat="42.03483" lon="12.9035667"><ele>344.5</ele><time>2026-04-20T07:16:23.317Z</time></trkpt><trkpt lat="42.0350733" lon="12.9034983"><ele>343.0</ele><time>2026-04-20T07:16:24.317Z</time></trkpt><trkpt lat="42.0353233" lon="12.9034517"><ele>343.0</ele><time>2026-04-20T07:16:25.317Z</time></trkpt><trkpt lat="42.03558" lon="12.90342"><ele>343.0</ele><time>2026-04-20T07:16:26.317Z</time></trkpt><trkpt lat="42.0358317" lon="12.9033967"><ele>342.0</ele><time>2026-04-20T07:16:27.316Z</time></trkpt><trkpt lat="42.0360767" lon="12.9033967"><ele>341.0</ele><time>2026-04-20T07:16:28.316Z</time></trkpt><trkpt lat="42.0363117" lon="12.9034317"><ele>341.0</ele><time>2026-04-20T07:16:29.317Z</time></trkpt><trkpt lat="42.036545" lon="12.9034983"><ele>341.0</ele><time>2026-04-20T07:16:30.318Z</time></trkpt><trkpt lat="42.0367817" lon="12.9035783"><ele>342.5</ele><time>2026-04-20T07:16:31.319Z</time></trkpt><trkpt lat="42.0370183" lon="12.9036467"><ele>344.0</ele><time>2026-04-20T07:16:32.317Z</time></trkpt><trkpt lat="42.0372417" lon="12.9036783"><ele>344.0</ele><time>2026-04-20T07:16:33.319Z</time></trkpt><trkpt lat="42.03746" lon="12.9036833"><ele>344.0</ele><time>2026-04-20T07:16:34.318Z</time></trkpt><trkpt lat="42.0376767" lon="12.90365"><ele>344.0</ele><time>2026-04-20T07:16:35.32Z</time></trkpt><trkpt lat="42.037895" lon="12.9035867"><ele>345.5</ele><time>2026-04-20T07:16:36.319Z</time></trkpt><trkpt lat="42.03811" lon="12.9034833"><ele>347.0</ele><time>2026-04-20T07:16:37.319Z</time></trkpt><trkpt lat="42.0383267" lon="12.90337"><ele>352.5</ele><time>2026-04-20T07:16:38.321Z</time></trkpt><trkpt lat="42.0385483" lon="12.903275"><ele>358.0</ele><time>2026-04-20T07:16:39.318Z</time></trkpt><trkpt lat="42.0387667" lon="12.9032167"><ele>358.0</ele><time>2026-04-20T07:16:40.318Z</time></trkpt><trkpt lat="42.038985" lon="12.9031917"><ele>358.0</ele><time>2026-04-20T07:16:41.318Z</time></trkpt><trkpt lat="42.039205" lon="12.9032033"><ele>358.0</ele><time>2026-04-20T07:16:42.318Z</time></trkpt><trkpt lat="42.039425" lon="12.9032517"><ele>358.0</ele><time>2026-04-20T07:16:43.318Z</time></trkpt><trkpt lat="42.0396517" lon="12.9033283"><ele>358.0</ele><time>2026-04-20T07:16:44.318Z</time></trkpt><trkpt lat="42.0398817" lon="12.90341"><ele>360.5</ele><time>2026-04-20T07:16:45.32Z</time></trkpt><trkpt lat="42.040115" lon="12.9034767"><ele>363.0</ele><time>2026-04-20T07:16:46.319Z</time></trkpt><trkpt lat="42.0403533" lon="12.9035233"><ele>363.0</ele><time>2026-04-20T07:16:47.319Z</time></trkpt><trkpt lat="42.040595" lon="12.90355"><ele>363.0</ele><time>2026-04-20T07:16:48.316Z</time></trkpt><trkpt lat="42.0408383" lon="12.9035583"><ele>368.5</ele><time>2026-04-20T07:16:49.316Z</time></trkpt><trkpt lat="42.0410917" lon="12.9035767"><ele>374.0</ele><time>2026-04-20T07:16:50.316Z</time></trkpt><trkpt lat="42.0413467" lon="12.9036033"><ele>374.0</ele><time>2026-04-20T07:16:51.317Z</time></trkpt><trkpt lat="42.0415983" lon="12.9036383"><ele>374.0</ele><time>2026-04-20T07:16:52.316Z</time></trkpt><trkpt lat="42.0418433" lon="12.9036717"><ele>374.0</ele><time>2026-04-20T07:16:53.316Z</time></trkpt><trkpt lat="42.0420767" lon="12.9037033"><ele>374.0</ele><time>2026-04-20T07:16:54.316Z</time></trkpt><trkpt lat="42.0423" lon="12.9037433"><ele>374.33333333333337</ele><time>2026-04-20T07:16:55.316Z</time></trkpt><trkpt lat="42.0425117" lon="12.90378"><ele>374.6666666666667</ele><time>2026-04-20T07:16:56.317Z</time></trkpt><trkpt lat="42.0427017" lon="12.90381"><ele>375.0</ele><time>2026-04-20T07:16:57.316Z</time></trkpt><trkpt lat="42.042875" lon="12.9038383"><ele>375.0</ele><time>2026-04-20T07:16:58.315Z</time></trkpt><trkpt lat="42.0430367" lon="12.9038617"><ele>375.0</ele><time>2026-04-20T07:16:59.315Z</time></trkpt><trkpt lat="42.04319" lon="12.9038817"><ele>375.0</ele><time>2026-04-20T07:17:00.316Z</time></trkpt><trkpt lat="42.0433367" lon="12.9039033"><ele>375.25</ele><time>2026-04-20T07:17:01.316Z</time></trkpt><trkpt lat="42.0434767" lon="12.903925"><ele>375.5</ele><time>2026-04-20T07:17:02.317Z</time></trkpt><trkpt lat="42.0436233" lon="12.9039517"><ele>375.75</ele><time>2026-04-20T07:17:03.319Z</time></trkpt><trkpt lat="42.04378" lon="12.903995"><ele>376.0</ele><time>2026-04-20T07:17:04.317Z</time></trkpt><trkpt lat="42.0439383" lon="12.90406"><ele>376.0</ele><time>2026-04-20T07:17:05.318Z</time></trkpt><trkpt lat="42.0440967" lon="12.9041583"><ele>376.0</ele><time>2026-04-20T07:17:06.319Z</time></trkpt><trkpt lat="42.0442583" lon="12.9042833"><ele>376.0</ele><time>2026-04-20T07:17:07.319Z</time></trkpt><trkpt lat="42.044425" lon="12.9044083"><ele>373.66666666666663</ele><time>2026-04-20T07:17:08.318Z</time></trkpt><trkpt lat="42.0445983" lon="12.9045433"><ele>371.3333333333333</ele><time>2026-04-20T07:17:09.32Z</time></trkpt><trkpt lat="42.0447733" lon="12.90468"><ele>369.0</ele><time>2026-04-20T07:17:10.32Z</time></trkpt><trkpt lat="42.0449433" lon="12.9048117"><ele>367.3333333333333</ele><time>2026-04-20T07:17:11.319Z</time></trkpt><trkpt lat="42.0451033" lon="12.90493"><ele>365.66666666666663</ele><time>2026-04-20T07:17:12.319Z</time></trkpt><trkpt lat="42.0452567" lon="12.9050333"><ele>364.0</ele><time>2026-04-20T07:17:13.318Z</time></trkpt><trkpt lat="42.0454067" lon="12.9051067"><ele>364.0</ele><time>2026-04-20T07:17:14.319Z</time></trkpt><trkpt lat="42.0455633" lon="12.9051367"><ele>364.0</ele><time>2026-04-20T07:17:15.319Z</time></trkpt><trkpt lat="42.04573" lon="12.9051367"><ele>364.0</ele><time>2026-04-20T07:17:16.319Z</time></trkpt><trkpt lat="42.0458883" lon="12.9051183"><ele>365.0</ele><time>2026-04-20T07:17:17.319Z</time></trkpt><trkpt lat="42.0460483" lon="12.9050967"><ele>366.0</ele><time>2026-04-20T07:17:18.317Z</time></trkpt><trkpt lat="42.04621" lon="12.9050817"><ele>367.0</ele><time>2026-04-20T07:17:19.315Z</time></trkpt><trkpt lat="42.0463883" lon="12.9050833"><ele>367.0</ele><time>2026-04-20T07:17:20.315Z</time></trkpt><trkpt lat="42.0465817" lon="12.9051083"><ele>367.0</ele><time>2026-04-20T07:17:21.317Z</time></trkpt><trkpt lat="42.0467983" lon="12.90515"><ele>367.0</ele><time>2026-04-20T07:17:22.316Z</time></trkpt><trkpt lat="42.0470283" lon="12.905195"><ele>368.5</ele><time>2026-04-20T07:17:23.315Z</time></trkpt><trkpt lat="42.0472617" lon="12.9052467"><ele>370.0</ele><time>2026-04-20T07:17:24.318Z</time></trkpt><trkpt lat="42.0475083" lon="12.90529"><ele>370.0</ele><time>2026-04-20T07:17:25.319Z</time></trkpt><trkpt lat="42.047765" lon="12.90533"><ele>370.0</ele><time>2026-04-20T07:17:26.319Z</time></trkpt><trkpt lat="42.0480333" lon="12.9053717"><ele>370.0</ele><time>2026-04-20T07:17:27.319Z</time></trkpt><trkpt lat="42.0483083" lon="12.9054233"><ele>370.0</ele><time>2026-04-20T07:17:28.318Z</time></trkpt><trkpt lat="42.04858" lon="12.9055033"><ele>370.0</ele><time>2026-04-20T07:17:29.319Z</time></trkpt><trkpt lat="42.0488583" lon="12.9055983"><ele>370.0</ele><time>2026-04-20T07:17:30.318Z</time></trkpt><trkpt lat="42.0491367" lon="12.9056967"><ele>373.5</ele><time>2026-04-20T07:17:31.32Z</time></trkpt><trkpt lat="42.0494217" lon="12.9057983"><ele>377.0</ele><time>2026-04-20T07:17:32.318Z</time></trkpt><trkpt lat="42.0497033" lon="12.9058933"><ele>373.0</ele><time>2026-04-20T07:17:33.317Z</time></trkpt><trkpt lat="42.0499767" lon="12.9059717"><ele>369.0</ele><time>2026-04-20T07:17:34.316Z</time></trkpt><trkpt lat="42.0502383" lon="12.9060417"><ele>369.0</ele><time>2026-04-20T07:17:35.319Z</time></trkpt><trkpt lat="42.0504767" lon="12.906125"><ele>369.0</ele><time>2026-04-20T07:17:36.319Z</time></trkpt><trkpt lat="42.0506933" lon="12.9062317"><ele>369.5</ele><time>2026-04-20T07:17:37.319Z</time></trkpt><trkpt lat="42.05091" lon="12.9063333"><ele>370.0</ele><time>2026-04-20T07:17:38.318Z</time></trkpt><trkpt lat="42.05113" lon="12.906415"><ele>370.0</ele><time>2026-04-20T07:17:39.319Z</time></trkpt><trkpt lat="42.0513367" lon="12.9064717"><ele>370.0</ele><time>2026-04-20T07:17:40.318Z</time></trkpt><trkpt lat="42.0515367" lon="12.9064967"><ele>370.0</ele><time>2026-04-20T07:17:41.32Z</time></trkpt><trkpt lat="42.0517483" lon="12.9064733"><ele>371.66666666666663</ele><time>2026-04-20T07:17:42.319Z</time></trkpt><trkpt lat="42.0519617" lon="12.9064283"><ele>373.3333333333333</ele><time>2026-04-20T07:17:43.32Z</time></trkpt><trkpt lat="42.0521683" lon="12.90642"><ele>375.0</ele><time>2026-04-20T07:17:44.319Z</time></trkpt><trkpt lat="42.0523733" lon="12.9064617"><ele>375.0</ele><time>2026-04-20T07:17:45.319Z</time></trkpt><trkpt lat="42.0525917" lon="12.9065267"><ele>375.0</ele><time>2026-04-20T07:17:46.319Z</time></trkpt><trkpt lat="42.0528283" lon="12.906565"><ele>375.0</ele><time>2026-04-20T07:17:47.319Z</time></trkpt><trkpt lat="42.05306" lon="12.9065583"><ele>375.0</ele><time>2026-04-20T07:17:48.316Z</time></trkpt><trkpt lat="42.05329" lon="12.9065033"><ele>378.0</ele><time>2026-04-20T07:17:49.317Z</time></trkpt><trkpt lat="42.0535167" lon="12.9064267"><ele>381.0</ele><time>2026-04-20T07:17:50.319Z</time></trkpt><trkpt lat="42.0537517" lon="12.9063333"><ele>381.0</ele><time>2026-04-20T07:17:51.317Z</time></trkpt><trkpt lat="42.0539983" lon="12.9062417"><ele>381.0</ele><time>2026-04-20T07:17:52.317Z</time></trkpt><trkpt lat="42.05425" lon="12.9061417"><ele>376.5</ele><time>2026-04-20T07:17:53.316Z</time></trkpt><trkpt lat="42.0545" lon="12.9060483"><ele>372.0</ele><time>2026-04-20T07:17:54.316Z</time></trkpt><trkpt lat="42.0547333" lon="12.9059867"><ele>372.5</ele><time>2026-04-20T07:17:55.32Z</time></trkpt><trkpt lat="42.0549683" lon="12.905955"><ele>373.0</ele><time>2026-04-20T07:17:56.319Z</time></trkpt><trkpt lat="42.0552267" lon="12.9059567"><ele>373.0</ele><time>2026-04-20T07:17:57.32Z</time></trkpt><trkpt lat="42.0555017" lon="12.90597"><ele>373.0</ele><time>2026-04-20T07:17:58.319Z</time></trkpt><trkpt lat="42.055785" lon="12.905985"><ele>375.0</ele><time>2026-04-20T07:17:59.319Z</time></trkpt><trkpt lat="42.0560683" lon="12.90601"><ele>377.0</ele><time>2026-04-20T07:18:00.318Z</time></trkpt><trkpt lat="42.0563583" lon="12.9060333"><ele>377.0</ele><time>2026-04-20T07:18:01.319Z</time></trkpt><trkpt lat="42.05666" lon="12.9060533"><ele>377.0</ele><time>2026-04-20T07:18:02.319Z</time></trkpt><trkpt lat="42.0569683" lon="12.90607"><ele>377.0</ele><time>2026-04-20T07:18:03.319Z</time></trkpt><trkpt lat="42.05727" lon="12.9060883"><ele>377.0</ele><time>2026-04-20T07:18:04.318Z</time></trkpt><trkpt lat="42.0575667" lon="12.9061117"><ele>377.0</ele><time>2026-04-20T07:18:05.318Z</time></trkpt><trkpt lat="42.05784" lon="12.9061367"><ele>377.0</ele><time>2026-04-20T07:18:06.319Z</time></trkpt><trkpt lat="42.0580733" lon="12.90616"><ele>379.0</ele><time>2026-04-20T07:18:07.316Z</time></trkpt><trkpt lat="42.0582967" lon="12.9061717"><ele>381.0</ele><time>2026-04-20T07:18:08.316Z</time></trkpt><trkpt lat="42.0585317" lon="12.9061617"><ele>381.0</ele><time>2026-04-20T07:18:09.32Z</time></trkpt><trkpt lat="42.0587783" lon="12.90613"><ele>381.0</ele><time>2026-04-20T07:18:10.317Z</time></trkpt><trkpt lat="42.0590433" lon="12.9060933"><ele>380.0</ele><time>2026-04-20T07:18:11.319Z</time></trkpt><trkpt lat="42.0593183" lon="12.906055"><ele>379.0</ele><time>2026-04-20T07:18:12.32Z</time></trkpt><trkpt lat="42.0595983" lon="12.9060183"><ele>379.0</ele><time>2026-04-20T07:18:13.319Z</time></trkpt><trkpt lat="42.0598767" lon="12.905985"><ele>379.0</ele><time>2026-04-20T07:18:14.32Z</time></trkpt><trkpt lat="42.0601383" lon="12.905955"><ele>379.5</ele><time>2026-04-20T07:18:15.319Z</time></trkpt><trkpt lat="42.06038" lon="12.905925"><ele>380.0</ele><time>2026-04-20T07:18:16.32Z</time></trkpt><trkpt lat="42.0605933" lon="12.9058833"><ele>383.0</ele><time>2026-04-20T07:18:17.319Z</time></trkpt><trkpt lat="42.060785" lon="12.90582"><ele>386.0</ele><time>2026-04-20T07:18:18.319Z</time></trkpt><trkpt lat="42.0609617" lon="12.9057117"><ele>389.0</ele><time>2026-04-20T07:18:19.319Z</time></trkpt><trkpt lat="42.0611333" lon="12.9055517"><ele>389.0</ele><time>2026-04-20T07:18:20.32Z</time></trkpt><trkpt lat="42.0612983" lon="12.9053617"><ele>389.0</ele><time>2026-04-20T07:18:21.32Z</time></trkpt><trkpt lat="42.0614567" lon="12.9051917"><ele>389.0</ele><time>2026-04-20T07:18:22.32Z</time></trkpt><trkpt lat="42.0616117" lon="12.9050567"><ele>389.3333333333333</ele><time>2026-04-20T07:18:23.32Z</time></trkpt><trkpt lat="42.0617867" lon="12.90497"><ele>389.66666666666663</ele><time>2026-04-20T07:18:24.319Z</time></trkpt><trkpt lat="42.0619833" lon="12.9049233"><ele>390.0</ele><time>2026-04-20T07:18:25.319Z</time></trkpt><trkpt lat="42.0622083" lon="12.9049017"><ele>390.0</ele><time>2026-04-20T07:18:26.319Z</time></trkpt><trkpt lat="42.0624283" lon="12.9048767"><ele>390.0</ele><time>2026-04-20T07:18:27.32Z</time></trkpt><trkpt lat="42.062625" lon="12.9048617"><ele>390.0</ele><time>2026-04-20T07:18:28.321Z</time></trkpt><trkpt lat="42.0628017" lon="12.904875"><ele>389.66666666666663</ele><time>2026-04-20T07:18:29.32Z</time></trkpt><trkpt lat="42.0629583" lon="12.9049367"><ele>389.3333333333333</ele><time>2026-04-20T07:18:30.32Z</time></trkpt><trkpt lat="42.06311" lon="12.9050433"><ele>389.0</ele><time>2026-04-20T07:18:31.319Z</time></trkpt><trkpt lat="42.0632433" lon="12.9051583"><ele>388.5</ele><time>2026-04-20T07:18:32.319Z</time></trkpt><trkpt lat="42.0633567" lon="12.905245"><ele>388.0</ele><time>2026-04-20T07:18:33.319Z</time></trkpt><trkpt lat="42.0634667" lon="12.9052967"><ele>387.5</ele><time>2026-04-20T07:18:34.316Z</time></trkpt><trkpt lat="42.0635867" lon="12.9053033"><ele>387.0</ele><time>2026-04-20T07:18:35.32Z</time></trkpt><trkpt lat="42.0637167" lon="12.90527"><ele>387.0</ele><time>2026-04-20T07:18:36.32Z</time></trkpt><trkpt lat="42.0638667" lon="12.9051783"><ele>387.0</ele><time>2026-04-20T07:18:37.319Z</time></trkpt><trkpt lat="42.0640383" lon="12.9050533"><ele>387.0</ele><time>2026-04-20T07:18:38.319Z</time></trkpt><trkpt lat="42.0642333" lon="12.9049267"><ele>391.0</ele><time>2026-04-20T07:18:39.32Z</time></trkpt><trkpt lat="42.06444" lon="12.904795"><ele>395.0</ele><time>2026-04-20T07:18:40.319Z</time></trkpt><trkpt lat="42.0646583" lon="12.9046583"><ele>395.0</ele><time>2026-04-20T07:18:41.319Z</time></trkpt><trkpt lat="42.0648867" lon="12.9045267"><ele>395.0</ele><time>2026-04-20T07:18:42.32Z</time></trkpt><trkpt lat="42.0651167" lon="12.9043917"><ele>393.0</ele><time>2026-04-20T07:18:43.32Z</time></trkpt><trkpt lat="42.0653533" lon="12.9042483"><ele>391.0</ele><time>2026-04-20T07:18:44.319Z</time></trkpt><trkpt lat="42.0656" lon="12.9040967"><ele>396.0</ele><time>2026-04-20T07:18:45.319Z</time></trkpt><trkpt lat="42.0658367" lon="12.9039483"><ele>401.0</ele><time>2026-04-20T07:18:46.32Z</time></trkpt><trkpt lat="42.0660567" lon="12.9038167"><ele>401.0</ele><time>2026-04-20T07:18:47.319Z</time></trkpt><trkpt lat="42.06625" lon="12.90369"><ele>401.0</ele><time>2026-04-20T07:18:48.32Z</time></trkpt><trkpt lat="42.0664283" lon="12.9035333"><ele>401.0</ele><time>2026-04-20T07:18:49.32Z</time></trkpt><trkpt lat="42.0665817" lon="12.903355"><ele>403.66666666666663</ele><time>2026-04-20T07:18:50.32Z</time></trkpt><trkpt lat="42.0667183" lon="12.9031383"><ele>406.33333333333337</ele><time>2026-04-20T07:18:51.32Z</time></trkpt><trkpt lat="42.066825" lon="12.9028733"><ele>409.0</ele><time>2026-04-20T07:18:52.32Z</time></trkpt><trkpt lat="42.0669367" lon="12.9025917"><ele>414.0</ele><time>2026-04-20T07:18:53.32Z</time></trkpt><trkpt lat="42.067055" lon="12.90232"><ele>419.0</ele><time>2026-04-20T07:18:54.319Z</time></trkpt><trkpt lat="42.0671883" lon="12.90207"><ele>419.0</ele><time>2026-04-20T07:18:55.32Z</time></trkpt><trkpt lat="42.0673467" lon="12.9018433"><ele>419.0</ele><time>2026-04-20T07:18:56.32Z</time></trkpt><trkpt lat="42.0675367" lon="12.90164"><ele>410.5</ele><time>2026-04-20T07:18:57.319Z</time></trkpt><trkpt lat="42.0677367" lon="12.9014567"><ele>402.0</ele><time>2026-04-20T07:18:58.32Z</time></trkpt><trkpt lat="42.0679217" lon="12.9012933"><ele>402.0</ele><time>2026-04-20T07:18:59.32Z</time></trkpt><trkpt lat="42.0680717" lon="12.90114"><ele>402.0</ele><time>2026-04-20T07:19:00.319Z</time></trkpt><trkpt lat="42.068185" lon="12.9009783"><ele>402.0</ele><time>2026-04-20T07:19:01.32Z</time></trkpt><trkpt lat="42.0682683" lon="12.9007883"><ele>402.66666666666663</ele><time>2026-04-20T07:19:02.319Z</time></trkpt><trkpt lat="42.0683283" lon="12.900555"><ele>403.3333333333333</ele><time>2026-04-20T07:19:03.321Z</time></trkpt><trkpt lat="42.0683833" lon="12.9002983"><ele>404.0</ele><time>2026-04-20T07:19:04.32Z</time></trkpt><trkpt lat="42.0684433" lon="12.9000283"><ele>408.5</ele><time>2026-04-20T07:19:05.319Z</time></trkpt><trkpt lat="42.0685233" lon="12.8997433"><ele>413.0</ele><time>2026-04-20T07:19:06.32Z</time></trkpt><trkpt lat="42.06861" lon="12.89945"><ele>417.0</ele><time>2026-04-20T07:19:07.319Z</time></trkpt><trkpt lat="42.0687" lon="12.8991417"><ele>421.0</ele><time>2026-04-20T07:19:08.319Z</time></trkpt><trkpt lat="42.0687817" lon="12.89883"><ele>421.0</ele><time>2026-04-20T07:19:09.321Z</time></trkpt><trkpt lat="42.0688533" lon="12.8985117"><ele>421.0</ele><time>2026-04-20T07:19:10.319Z</time></trkpt><trkpt lat="42.0689167" lon="12.898195"><ele>421.6666666666667</ele><time>2026-04-20T07:19:11.319Z</time></trkpt><trkpt lat="42.0689717" lon="12.8979133"><ele>422.33333333333337</ele><time>2026-04-20T07:19:12.32Z</time></trkpt><trkpt lat="42.0690183" lon="12.8976683"><ele>423.0</ele><time>2026-04-20T07:19:13.319Z</time></trkpt><trkpt lat="42.06906" lon="12.89746"><ele>421.25</ele><time>2026-04-20T07:19:14.319Z</time></trkpt><trkpt lat="42.06911" lon="12.8972767"><ele>419.5</ele><time>2026-04-20T07:19:15.319Z</time></trkpt><trkpt lat="42.06918" lon="12.8971183"><ele>417.75</ele><time>2026-04-20T07:19:16.319Z</time></trkpt><trkpt lat="42.0692733" lon="12.896985"><ele>416.0</ele><time>2026-04-20T07:19:17.32Z</time></trkpt><trkpt lat="42.0694033" lon="12.8968867"><ele>416.0</ele><time>2026-04-20T07:19:18.32Z</time></trkpt><trkpt lat="42.0695533" lon="12.8968083"><ele>416.0</ele><time>2026-04-20T07:19:19.322Z</time></trkpt><trkpt lat="42.0697283" lon="12.89674"><ele>416.0</ele><time>2026-04-20T07:19:20.32Z</time></trkpt><trkpt lat="42.069915" lon="12.89667"><ele>417.3333333333333</ele><time>2026-04-20T07:19:21.32Z</time></trkpt><trkpt lat="42.0701033" lon="12.89659"><ele>418.66666666666663</ele><time>2026-04-20T07:19:22.32Z</time></trkpt><trkpt lat="42.0702883" lon="12.896495"><ele>420.0</ele><time>2026-04-20T07:19:23.32Z</time></trkpt><trkpt lat="42.0704717" lon="12.8963817"><ele>420.0</ele><time>2026-04-20T07:19:24.319Z</time></trkpt><trkpt lat="42.0706517" lon="12.8962433"><ele>420.0</ele><time>2026-04-20T07:19:25.318Z</time></trkpt><trkpt lat="42.0708217" lon="12.896075"><ele>420.0</ele><time>2026-04-20T07:19:26.319Z</time></trkpt><trkpt lat="42.0709933" lon="12.895885"><ele>424.0</ele><time>2026-04-20T07:19:27.319Z</time></trkpt><trkpt lat="42.0711667" lon="12.895685"><ele>428.0</ele><time>2026-04-20T07:19:28.318Z</time></trkpt><trkpt lat="42.07134" lon="12.89548"><ele>428.0</ele><time>2026-04-20T07:19:29.319Z</time></trkpt><trkpt lat="42.0715117" lon="12.8952867"><ele>428.0</ele><time>2026-04-20T07:19:30.32Z</time></trkpt><trkpt lat="42.071685" lon="12.895115"><ele>428.0</ele><time>2026-04-20T07:19:31.319Z</time></trkpt><trkpt lat="42.0718667" lon="12.8949617"><ele>431.5</ele><time>2026-04-20T07:19:32.318Z</time></trkpt><trkpt lat="42.072065" lon="12.8948183"><ele>435.0</ele><time>2026-04-20T07:19:33.32Z</time></trkpt><trkpt lat="42.0722767" lon="12.8946917"><ele>431.5</ele><time>2026-04-20T07:19:34.316Z</time></trkpt><trkpt lat="42.0724933" lon="12.894565"><ele>428.0</ele><time>2026-04-20T07:19:35.32Z</time></trkpt><trkpt lat="42.0727133" lon="12.8944467"><ele>428.0</ele><time>2026-04-20T07:19:36.319Z</time></trkpt><trkpt lat="42.072935" lon="12.894345"><ele>428.0</ele><time>2026-04-20T07:19:37.319Z</time></trkpt><trkpt lat="42.0731617" lon="12.8942633"><ele>431.5</ele><time>2026-04-20T07:19:38.319Z</time></trkpt><trkpt lat="42.0733967" lon="12.8942"><ele>435.0</ele><time>2026-04-20T07:19:39.32Z</time></trkpt><trkpt lat="42.0736367" lon="12.8941433"><ele>435.0</ele><time>2026-04-20T07:19:40.32Z</time></trkpt><trkpt lat="42.0738817" lon="12.8940867"><ele>435.0</ele><time>2026-04-20T07:19:41.32Z</time></trkpt><trkpt lat="42.0741183" lon="12.8940233"><ele>436.0</ele><time>2026-04-20T07:19:42.321Z</time></trkpt><trkpt lat="42.0743483" lon="12.8939533"><ele>437.0</ele><time>2026-04-20T07:19:43.32Z</time></trkpt><trkpt lat="42.0745633" lon="12.893885"><ele>437.0</ele><time>2026-04-20T07:19:44.32Z</time></trkpt><trkpt lat="42.07476" lon="12.8938233"><ele>437.0</ele><time>2026-04-20T07:19:45.32Z</time></trkpt><trkpt lat="42.0749383" lon="12.8937667"><ele>437.0</ele><time>2026-04-20T07:19:46.32Z</time></trkpt><trkpt lat="42.0751" lon="12.8937183"><ele>437.5</ele><time>2026-04-20T07:19:47.319Z</time></trkpt><trkpt lat="42.0752433" lon="12.8936683"><ele>438.0</ele><time>2026-04-20T07:19:48.319Z</time></trkpt><trkpt lat="42.0753667" lon="12.8936233"><ele>438.5</ele><time>2026-04-20T07:19:49.32Z</time></trkpt><trkpt lat="42.075475" lon="12.8935983"><ele>439.0</ele><time>2026-04-20T07:19:50.319Z</time></trkpt><trkpt lat="42.075565" lon="12.893605"><ele>439.0</ele><time>2026-04-20T07:19:51.317Z</time></trkpt><trkpt lat="42.0756417" lon="12.8936433"><ele>439.0</ele><time>2026-04-20T07:19:52.316Z</time></trkpt><trkpt lat="42.0757117" lon="12.8937083"><ele>439.0</ele><time>2026-04-20T07:19:53.32Z</time></trkpt><trkpt lat="42.0757617" lon="12.8938317"><ele>439.0</ele><time>2026-04-20T07:19:54.32Z</time></trkpt><trkpt lat="42.075775" lon="12.8940267"><ele>439.0</ele><time>2026-04-20T07:19:55.319Z</time></trkpt><trkpt lat="42.075775" lon="12.8942183"><ele>439.0</ele><time>2026-04-20T07:19:56.317Z</time></trkpt><trkpt lat="42.0757283" lon="12.89445"><ele>439.0</ele><time>2026-04-20T07:19:57.319Z</time></trkpt><trkpt lat="42.0756733" lon="12.8946433"><ele>439.0</ele><time>2026-04-20T07:19:58.319Z</time></trkpt><trkpt lat="42.075565" lon="12.894835"><ele>439.0</ele><time>2026-04-20T07:19:59.316Z</time></trkpt><trkpt lat="42.0754217" lon="12.895"><ele>439.0</ele><time>2026-04-20T07:20:00.317Z</time></trkpt><trkpt lat="42.0752333" lon="12.8951433"><ele>439.0</ele><time>2026-04-20T07:20:01.317Z</time></trkpt><trkpt lat="42.0750333" lon="12.89529"><ele>441.5</ele><time>2026-04-20T07:20:02.318Z</time></trkpt><trkpt lat="42.07484" lon="12.8954533"><ele>444.0</ele><time>2026-04-20T07:20:03.321Z</time></trkpt><trkpt lat="42.0746467" lon="12.8956217"><ele>444.0</ele><time>2026-04-20T07:20:04.319Z</time></trkpt><trkpt lat="42.0744567" lon="12.8957917"><ele>444.0</ele><time>2026-04-20T07:20:05.32Z</time></trkpt><trkpt lat="42.0742783" lon="12.8959567"><ele>444.0</ele><time>2026-04-20T07:20:06.319Z</time></trkpt><trkpt lat="42.0741117" lon="12.8961083"><ele>443.0</ele><time>2026-04-20T07:20:07.32Z</time></trkpt><trkpt lat="42.07396" lon="12.8962483"><ele>442.0</ele><time>2026-04-20T07:20:08.319Z</time></trkpt><trkpt lat="42.0738317" lon="12.8963933"><ele>441.0</ele><time>2026-04-20T07:20:09.319Z</time></trkpt><trkpt lat="42.0737217" lon="12.8965567"><ele>444.0</ele><time>2026-04-20T07:20:10.318Z</time></trkpt><trkpt lat="42.0736417" lon="12.896755"><ele>447.0</ele><time>2026-04-20T07:20:11.319Z</time></trkpt><trkpt lat="42.0735933" lon="12.8969883"><ele>450.0</ele><time>2026-04-20T07:20:12.319Z</time></trkpt><trkpt lat="42.0735683" lon="12.89725"><ele>450.0</ele><time>2026-04-20T07:20:13.32Z</time></trkpt><trkpt lat="42.073555" lon="12.8975133"><ele>450.0</ele><time>2026-04-20T07:20:14.32Z</time></trkpt><trkpt lat="42.07355" lon="12.89776"><ele>450.0</ele><time>2026-04-20T07:20:15.319Z</time></trkpt><trkpt lat="42.073545" lon="12.8979817"><ele>452.5</ele><time>2026-04-20T07:20:16.319Z</time></trkpt><trkpt lat="42.0735383" lon="12.89817"><ele>455.0</ele><time>2026-04-20T07:20:17.32Z</time></trkpt><trkpt lat="42.073525" lon="12.8983467"><ele>457.5</ele><time>2026-04-20T07:20:18.319Z</time></trkpt><trkpt lat="42.0735083" lon="12.8985083"><ele>460.0</ele><time>2026-04-20T07:20:19.32Z</time></trkpt><trkpt lat="42.0734883" lon="12.89866"><ele>460.8</ele><time>2026-04-20T07:20:20.32Z</time></trkpt><trkpt lat="42.073465" lon="12.8988067"><ele>461.6</ele><time>2026-04-20T07:20:21.32Z</time></trkpt><trkpt lat="42.0734467" lon="12.8989517"><ele>462.4</ele><time>2026-04-20T07:20:22.32Z</time></trkpt><trkpt lat="42.073435" lon="12.8990967"><ele>463.2</ele><time>2026-04-20T07:20:23.321Z</time></trkpt><trkpt lat="42.07344" lon="12.8992317"><ele>464.0</ele><time>2026-04-20T07:20:24.32Z</time></trkpt><trkpt lat="42.073465" lon="12.8993633"><ele>464.4</ele><time>2026-04-20T07:20:25.321Z</time></trkpt><trkpt lat="42.07352" lon="12.8994817"><ele>464.79999999999995</ele><time>2026-04-20T07:20:26.32Z</time></trkpt><trkpt lat="42.0735883" lon="12.8996"><ele>465.20000000000005</ele><time>2026-04-20T07:20:27.32Z</time></trkpt><trkpt lat="42.0736633" lon="12.89971"><ele>465.6</ele><time>2026-04-20T07:20:28.32Z</time></trkpt><trkpt lat="42.0737467" lon="12.8998117"><ele>466.0</ele><time>2026-04-20T07:20:29.321Z</time></trkpt><trkpt lat="42.0738317" lon="12.8999033"><ele>466.0</ele><time>2026-04-20T07:20:30.319Z</time></trkpt><trkpt lat="42.07392" lon="12.8999783"><ele>466.0</ele><time>2026-04-20T07:20:31.32Z</time></trkpt><trkpt lat="42.07402" lon="12.9000283"><ele>466.0</ele><time>2026-04-20T07:20:32.32Z</time></trkpt><trkpt lat="42.0741233" lon="12.90007"><ele>466.0</ele><time>2026-04-20T07:20:33.316Z</time></trkpt><trkpt lat="42.0742333" lon="12.9000983"><ele>466.0</ele><time>2026-04-20T07:20:34.32Z</time></trkpt><trkpt lat="42.0743317" lon="12.900145"><ele>468.6</ele><time>2026-04-20T07:20:35.32Z</time></trkpt><trkpt lat="42.0744167" lon="12.9002183"><ele>471.20000000000005</ele><time>2026-04-20T07:20:36.316Z</time></trkpt><trkpt lat="42.074475" lon="12.90032"><ele>473.79999999999995</ele><time>2026-04-20T07:20:37.317Z</time></trkpt><trkpt lat="42.0745083" lon="12.9004583"><ele>476.4</ele><time>2026-04-20T07:20:38.316Z</time></trkpt><trkpt lat="42.0745167" lon="12.9006067"><ele>479.0</ele><time>2026-04-20T07:20:39.319Z</time></trkpt><trkpt lat="42.0744967" lon="12.900745"><ele>479.0</ele><time>2026-04-20T07:20:40.316Z</time></trkpt><trkpt lat="42.0744567" lon="12.90088"><ele>479.0</ele><time>2026-04-20T07:20:41.319Z</time></trkpt><trkpt lat="42.074375" lon="12.9009733"><ele>479.0</ele><time>2026-04-20T07:20:42.316Z</time></trkpt><trkpt lat="42.0742783" lon="12.9010317"><ele>479.0</ele><time>2026-04-20T07:20:43.32Z</time></trkpt><trkpt lat="42.074205" lon="12.901085"><ele>479.0</ele><time>2026-04-20T07:20:44.319Z</time></trkpt><trkpt lat="42.074135" lon="12.9011283"><ele>479.6</ele><time>2026-04-20T07:20:45.318Z</time></trkpt><trkpt lat="42.074085" lon="12.901195"><ele>480.2</ele><time>2026-04-20T07:20:46.319Z</time></trkpt><trkpt lat="42.0740383" lon="12.90134"><ele>480.80000000000007</ele><time>2026-04-20T07:20:48.319Z</time></trkpt><trkpt lat="42.0741" lon="12.9015133"><ele>481.40000000000003</ele><time>2026-04-20T07:20:50.318Z</time></trkpt><trkpt lat="42.0741883" lon="12.90159"><ele>482.0</ele><time>2026-04-20T07:20:51.317Z</time></trkpt><trkpt lat="42.074265" lon="12.9016733"><ele>477.8333333333333</ele><time>2026-04-20T07:20:52.316Z</time></trkpt><trkpt lat="42.0743367" lon="12.901755"><ele>473.66666666666663</ele><time>2026-04-20T07:20:53.32Z</time></trkpt><trkpt lat="42.0744017" lon="12.90183"><ele>469.5</ele><time>2026-04-20T07:20:54.32Z</time></trkpt><trkpt lat="42.0744617" lon="12.9019017"><ele>465.33333333333337</ele><time>2026-04-20T07:20:55.32Z</time></trkpt><trkpt lat="42.0745233" lon="12.901965"><ele>461.1666666666667</ele><time>2026-04-20T07:20:56.32Z</time></trkpt><trkpt lat="42.0745883" lon="12.9020333"><ele>457.0</ele><time>2026-04-20T07:20:57.32Z</time></trkpt><trkpt lat="42.0746617" lon="12.902085"><ele>457.0</ele><time>2026-04-20T07:20:58.319Z</time></trkpt><trkpt lat="42.0747517" lon="12.9021133"><ele>457.00000000000006</ele><time>2026-04-20T07:20:59.318Z</time></trkpt><trkpt lat="42.074855" lon="12.9021217"><ele>457.00000000000006</ele><time>2026-04-20T07:21:00.317Z</time></trkpt><trkpt lat="42.0749633" lon="12.902105"><ele>457.0</ele><time>2026-04-20T07:21:01.32Z</time></trkpt><trkpt lat="42.0750733" lon="12.902055"><ele>457.0</ele><time>2026-04-20T07:21:02.32Z</time></trkpt><trkpt lat="42.07519" lon="12.9019933"><ele>460.75</ele><time>2026-04-20T07:21:03.319Z</time></trkpt><trkpt lat="42.0753167" lon="12.9019417"><ele>464.5</ele><time>2026-04-20T07:21:04.318Z</time></trkpt><trkpt lat="42.0754533" lon="12.9019067"><ele>468.25</ele><time>2026-04-20T07:21:05.32Z</time></trkpt><trkpt lat="42.075595" lon="12.9019033"><ele>472.0</ele><time>2026-04-20T07:21:06.32Z</time></trkpt><trkpt lat="42.0757383" lon="12.9019167"><ele>471.75</ele><time>2026-04-20T07:21:07.32Z</time></trkpt><trkpt lat="42.0758733" lon="12.90194"><ele>471.5</ele><time>2026-04-20T07:21:08.319Z</time></trkpt><trkpt lat="42.076" lon="12.90196"><ele>471.25</ele><time>2026-04-20T07:21:09.317Z</time></trkpt><trkpt lat="42.076125" lon="12.9019767"><ele>471.0</ele><time>2026-04-20T07:21:10.316Z</time></trkpt><trkpt lat="42.0762533" lon="12.9019817"><ele>471.0</ele><time>2026-04-20T07:21:11.32Z</time></trkpt><trkpt lat="42.07638" lon="12.9019667"><ele>471.0</ele><time>2026-04-20T07:21:12.32Z</time></trkpt><trkpt lat="42.0764983" lon="12.9019267"><ele>471.0</ele><time>2026-04-20T07:21:13.32Z</time></trkpt><trkpt lat="42.0766" lon="12.9018517"><ele>471.0</ele><time>2026-04-20T07:21:14.319Z</time></trkpt><trkpt lat="42.0766833" lon="12.901745"><ele>476.0</ele><time>2026-04-20T07:21:15.32Z</time></trkpt><trkpt lat="42.0767483" lon="12.9016167"><ele>481.0</ele><time>2026-04-20T07:21:16.319Z</time></trkpt><trkpt lat="42.076785" lon="12.9014633"><ele>486.0</ele><time>2026-04-20T07:21:17.32Z</time></trkpt><trkpt lat="42.07682" lon="12.9012883"><ele>491.0</ele><time>2026-04-20T07:21:18.32Z</time></trkpt><trkpt lat="42.0768033" lon="12.90106"><ele>495.3333333333333</ele><time>2026-04-20T07:21:19.32Z</time></trkpt><trkpt lat="42.07681" lon="12.9008317"><ele>499.66666666666663</ele><time>2026-04-20T07:21:20.32Z</time></trkpt><trkpt lat="42.076845" lon="12.900615"><ele>504.0</ele><time>2026-04-20T07:21:21.319Z</time></trkpt><trkpt lat="42.07692" lon="12.90043"><ele>504.0</ele><time>2026-04-20T07:21:22.319Z</time></trkpt><trkpt lat="42.077015" lon="12.9002783"><ele>504.0</ele><time>2026-04-20T07:21:23.32Z</time></trkpt><trkpt lat="42.0771267" lon="12.9001883"><ele>504.0</ele><time>2026-04-20T07:21:24.319Z</time></trkpt><trkpt lat="42.0772483" lon="12.90015"><ele>504.0</ele><time>2026-04-20T07:21:25.319Z</time></trkpt><trkpt lat="42.0773683" lon="12.90018"><ele>500.33333333333337</ele><time>2026-04-20T07:21:26.32Z</time></trkpt><trkpt lat="42.0774867" lon="12.900275"><ele>496.6666666666667</ele><time>2026-04-20T07:21:27.32Z</time></trkpt><trkpt lat="42.0775967" lon="12.9004183"><ele>493.0</ele><time>2026-04-20T07:21:28.32Z</time></trkpt><trkpt lat="42.0777" lon="12.9005917"><ele>493.0</ele><time>2026-04-20T07:21:29.32Z</time></trkpt><trkpt lat="42.077805" lon="12.9007483"><ele>493.0</ele><time>2026-04-20T07:21:30.317Z</time></trkpt><trkpt lat="42.0779133" lon="12.9008567"><ele>493.0</ele><time>2026-04-20T07:21:31.317Z</time></trkpt><trkpt lat="42.07804" lon="12.9009083"><ele>493.0</ele><time>2026-04-20T07:21:32.32Z</time></trkpt><trkpt lat="42.0781917" lon="12.9009117"><ele>495.6666666666667</ele><time>2026-04-20T07:21:33.32Z</time></trkpt><trkpt lat="42.0783683" lon="12.9008833"><ele>498.33333333333337</ele><time>2026-04-20T07:21:34.317Z</time></trkpt><trkpt lat="42.07856" lon="12.900855"><ele>501.0</ele><time>2026-04-20T07:21:35.32Z</time></trkpt><trkpt lat="42.0787633" lon="12.9008467"><ele>501.0</ele><time>2026-04-20T07:21:36.32Z</time></trkpt><trkpt lat="42.0789667" lon="12.9008367"><ele>501.0</ele><time>2026-04-20T07:21:37.316Z</time></trkpt><trkpt lat="42.07916" lon="12.9008117"><ele>501.0</ele><time>2026-04-20T07:21:38.317Z</time></trkpt><trkpt lat="42.0793417" lon="12.90079"><ele>500.75</ele><time>2026-04-20T07:21:39.317Z</time></trkpt><trkpt lat="42.0795033" lon="12.900785"><ele>500.5</ele><time>2026-04-20T07:21:40.319Z</time></trkpt><trkpt lat="42.0796367" lon="12.9008117"><ele>500.25</ele><time>2026-04-20T07:21:41.32Z</time></trkpt><trkpt lat="42.0797417" lon="12.9008833"><ele>500.0</ele><time>2026-04-20T07:21:42.319Z</time></trkpt><trkpt lat="42.07984" lon="12.9010083"><ele>497.0</ele><time>2026-04-20T07:21:43.32Z</time></trkpt><trkpt lat="42.079945" lon="12.9011733"><ele>494.0</ele><time>2026-04-20T07:21:44.32Z</time></trkpt><trkpt lat="42.080075" lon="12.90135"><ele>491.0</ele><time>2026-04-20T07:21:45.32Z</time></trkpt><trkpt lat="42.0802167" lon="12.901525"><ele>491.0</ele><time>2026-04-20T07:21:46.32Z</time></trkpt><trkpt lat="42.0803667" lon="12.9016983"><ele>491.0</ele><time>2026-04-20T07:21:47.318Z</time></trkpt><trkpt lat="42.080515" lon="12.9018683"><ele>491.0</ele><time>2026-04-20T07:21:48.317Z</time></trkpt><trkpt lat="42.0806467" lon="12.90202"><ele>489.6</ele><time>2026-04-20T07:21:49.317Z</time></trkpt><trkpt lat="42.0807583" lon="12.902145"><ele>488.20000000000005</ele><time>2026-04-20T07:21:50.316Z</time></trkpt><trkpt lat="42.0808583" lon="12.9022167"><ele>486.79999999999995</ele><time>2026-04-20T07:21:51.317Z</time></trkpt><trkpt lat="42.0809467" lon="12.9022283"><ele>485.4</ele><time>2026-04-20T07:21:52.317Z</time></trkpt><trkpt lat="42.0810283" lon="12.9022167"><ele>484.0</ele><time>2026-04-20T07:21:53.316Z</time></trkpt><trkpt lat="42.0811067" lon="12.9021733"><ele>484.0</ele><time>2026-04-20T07:21:54.317Z</time></trkpt><trkpt lat="42.081175" lon="12.9020167"><ele>484.0</ele><time>2026-04-20T07:21:55.32Z</time></trkpt><trkpt lat="42.0812433" lon="12.9017867"><ele>484.0</ele><time>2026-04-20T07:21:56.319Z</time></trkpt><trkpt lat="42.08132" lon="12.90161"><ele>489.25</ele><time>2026-04-20T07:21:57.318Z</time></trkpt><trkpt lat="42.0814117" lon="12.90148"><ele>494.5</ele><time>2026-04-20T07:21:58.32Z</time></trkpt><trkpt lat="42.0815217" lon="12.9014233"><ele>499.75</ele><time>2026-04-20T07:21:59.32Z</time></trkpt><trkpt lat="42.0816467" lon="12.9014267"><ele>505.0</ele><time>2026-04-20T07:22:00.319Z</time></trkpt><trkpt lat="42.0817867" lon="12.901465"><ele>505.0</ele><time>2026-04-20T07:22:01.319Z</time></trkpt><trkpt lat="42.08192" lon="12.9014983"><ele>505.0</ele><time>2026-04-20T07:22:02.319Z</time></trkpt><trkpt lat="42.0820533" lon="12.9015017"><ele>505.0</ele><time>2026-04-20T07:22:03.32Z</time></trkpt><trkpt lat="42.0821917" lon="12.9014683"><ele>505.0</ele><time>2026-04-20T07:22:04.32Z</time></trkpt><trkpt lat="42.0823417" lon="12.9014017"><ele>504.33333333333337</ele><time>2026-04-20T07:22:05.319Z</time></trkpt><trkpt lat="42.0825033" lon="12.9013267"><ele>503.66666666666663</ele><time>2026-04-20T07:22:06.317Z</time></trkpt><trkpt lat="42.082655" lon="12.9012533"><ele>503.0</ele><time>2026-04-20T07:22:07.317Z</time></trkpt><trkpt lat="42.0827817" lon="12.9011717"><ele>503.0</ele><time>2026-04-20T07:22:08.319Z</time></trkpt><trkpt lat="42.0828917" lon="12.9010683"><ele>503.0</ele><time>2026-04-20T07:22:09.319Z</time></trkpt><trkpt lat="42.0829783" lon="12.9009333"><ele>503.0</ele><time>2026-04-20T07:22:10.32Z</time></trkpt><trkpt lat="42.0830567" lon="12.9007983"><ele>503.0</ele><time>2026-04-20T07:22:11.32Z</time></trkpt><trkpt lat="42.0831533" lon="12.9006833"><ele>504.5</ele><time>2026-04-20T07:22:12.319Z</time></trkpt><trkpt lat="42.0832833" lon="12.9006017"><ele>506.0</ele><time>2026-04-20T07:22:13.32Z</time></trkpt><trkpt lat="42.0834217" lon="12.900535"><ele>507.5</ele><time>2026-04-20T07:22:14.319Z</time></trkpt><trkpt lat="42.08357" lon="12.900475"><ele>509.0</ele><time>2026-04-20T07:22:15.32Z</time></trkpt><trkpt lat="42.0837333" lon="12.9004333"><ele>509.0</ele><time>2026-04-20T07:22:16.319Z</time></trkpt><trkpt lat="42.0839133" lon="12.90043"><ele>509.0</ele><time>2026-04-20T07:22:17.321Z</time></trkpt><trkpt lat="42.08409" lon="12.9004483"><ele>509.0</ele><time>2026-04-20T07:22:18.317Z</time></trkpt><trkpt lat="42.0842617" lon="12.9004917"><ele>508.25</ele><time>2026-04-20T07:22:19.317Z</time></trkpt><trkpt lat="42.0844133" lon="12.9005617"><ele>507.5</ele><time>2026-04-20T07:22:20.317Z</time></trkpt><trkpt lat="42.084545" lon="12.9006433"><ele>506.75</ele><time>2026-04-20T07:22:21.32Z</time></trkpt><trkpt lat="42.0846567" lon="12.9007067"><ele>506.0</ele><time>2026-04-20T07:22:22.316Z</time></trkpt><trkpt lat="42.0847617" lon="12.9007417"><ele>506.0</ele><time>2026-04-20T07:22:23.317Z</time></trkpt><trkpt lat="42.0848667" lon="12.9007317"><ele>506.0</ele><time>2026-04-20T07:22:24.317Z</time></trkpt><trkpt lat="42.0849633" lon="12.90069"><ele>506.0</ele><time>2026-04-20T07:22:25.317Z</time></trkpt><trkpt lat="42.0850617" lon="12.9006017"><ele>506.0</ele><time>2026-04-20T07:22:26.319Z</time></trkpt><trkpt lat="42.0851567" lon="12.90047"><ele>506.5</ele><time>2026-04-20T07:22:27.32Z</time></trkpt><trkpt lat="42.0852383" lon="12.9003267"><ele>507.0</ele><time>2026-04-20T07:22:28.318Z</time></trkpt><trkpt lat="42.0853167" lon="12.900215"><ele>507.5</ele><time>2026-04-20T07:22:29.319Z</time></trkpt><trkpt lat="42.0853967" lon="12.90015"><ele>508.0</ele><time>2026-04-20T07:22:30.32Z</time></trkpt><trkpt lat="42.0855117" lon="12.9001433"><ele>508.0</ele><time>2026-04-20T07:22:31.32Z</time></trkpt><trkpt lat="42.0856483" lon="12.9001733"><ele>508.0</ele><time>2026-04-20T07:22:32.319Z</time></trkpt><trkpt lat="42.0857983" lon="12.9002083"><ele>508.0</ele><time>2026-04-20T07:22:33.318Z</time></trkpt><trkpt lat="42.085955" lon="12.90024"><ele>508.0</ele><time>2026-04-20T07:22:34.317Z</time></trkpt><trkpt lat="42.086105" lon="12.9002717"><ele>506.75</ele><time>2026-04-20T07:22:35.317Z</time></trkpt><trkpt lat="42.0862367" lon="12.9002983"><ele>505.5</ele><time>2026-04-20T07:22:36.319Z</time></trkpt><trkpt lat="42.08635" lon="12.900335"><ele>504.25</ele><time>2026-04-20T07:22:37.318Z</time></trkpt><trkpt lat="42.0864417" lon="12.9004017"><ele>503.0</ele><time>2026-04-20T07:22:38.317Z</time></trkpt><trkpt lat="42.08651" lon="12.9005017"><ele>503.0</ele><time>2026-04-20T07:22:39.318Z</time></trkpt><trkpt lat="42.0865467" lon="12.90063"><ele>503.0</ele><time>2026-04-20T07:22:40.317Z</time></trkpt><trkpt lat="42.0865417" lon="12.90079"><ele>503.0</ele><time>2026-04-20T07:22:41.318Z</time></trkpt><trkpt lat="42.0865417" lon="12.9009583"><ele>503.0</ele><time>2026-04-20T07:22:42.321Z</time></trkpt><trkpt lat="42.0865517" lon="12.901125"><ele>504.0</ele><time>2026-04-20T07:22:43.32Z</time></trkpt><trkpt lat="42.0865867" lon="12.9012983"><ele>505.0</ele><time>2026-04-20T07:22:44.32Z</time></trkpt><trkpt lat="42.08664" lon="12.9014683"><ele>506.0</ele><time>2026-04-20T07:22:45.316Z</time></trkpt><trkpt lat="42.0867283" lon="12.901615"><ele>507.0</ele><time>2026-04-20T07:22:46.317Z</time></trkpt><trkpt lat="42.0868433" lon="12.9017617"><ele>507.0</ele><time>2026-04-20T07:22:47.321Z</time></trkpt><trkpt lat="42.08697" lon="12.9019083"><ele>507.0</ele><time>2026-04-20T07:22:48.317Z</time></trkpt><trkpt lat="42.0870983" lon="12.90205"><ele>507.0</ele><time>2026-04-20T07:22:49.317Z</time></trkpt><trkpt lat="42.087235" lon="12.9021817"><ele>507.0</ele><time>2026-04-20T07:22:50.318Z</time></trkpt><trkpt lat="42.0873867" lon="12.9022983"><ele>507.0</ele><time>2026-04-20T07:22:51.317Z</time></trkpt><trkpt lat="42.087545" lon="12.9023967"><ele>507.0</ele><time>2026-04-20T07:22:52.317Z</time></trkpt><trkpt lat="42.087695" lon="12.9025033"><ele>510.66666666666663</ele><time>2026-04-20T07:22:53.317Z</time></trkpt><trkpt lat="42.0878367" lon="12.9026267"><ele>514.3333333333333</ele><time>2026-04-20T07:22:54.316Z</time></trkpt><trkpt lat="42.0879667" lon="12.9027567"><ele>518.0</ele><time>2026-04-20T07:22:55.318Z</time></trkpt><trkpt lat="42.08809" lon="12.9028817"><ele>518.0</ele><time>2026-04-20T07:22:56.316Z</time></trkpt><trkpt lat="42.0882067" lon="12.9029967"><ele>518.0</ele><time>2026-04-20T07:22:57.318Z</time></trkpt><trkpt lat="42.088315" lon="12.9030933"><ele>518.0</ele><time>2026-04-20T07:22:58.316Z</time></trkpt><trkpt lat="42.0884183" lon="12.903165"><ele>518.0</ele><time>2026-04-20T07:22:59.317Z</time></trkpt><trkpt lat="42.0885267" lon="12.9032033"><ele>518.25</ele><time>2026-04-20T07:23:00.316Z</time></trkpt><trkpt lat="42.0886533" lon="12.9031867"><ele>518.5</ele><time>2026-04-20T07:23:01.318Z</time></trkpt><trkpt lat="42.0887917" lon="12.9031267"><ele>518.75</ele><time>2026-04-20T07:23:02.316Z</time></trkpt><trkpt lat="42.0889433" lon="12.9030483"><ele>519.0</ele><time>2026-04-20T07:23:03.318Z</time></trkpt><trkpt lat="42.0891" lon="12.9029833"><ele>519.0</ele><time>2026-04-20T07:23:04.317Z</time></trkpt><trkpt lat="42.0892567" lon="12.9029467"><ele>519.0</ele><time>2026-04-20T07:23:05.316Z</time></trkpt><trkpt lat="42.0894267" lon="12.902935"><ele>519.0</ele><time>2026-04-20T07:23:06.317Z</time></trkpt><trkpt lat="42.0896083" lon="12.9029467"><ele>519.0</ele><time>2026-04-20T07:23:07.318Z</time></trkpt><trkpt lat="42.089805" lon="12.9029817"><ele>519.0</ele><time>2026-04-20T07:23:08.318Z</time></trkpt><trkpt lat="42.0900183" lon="12.903025"><ele>519.0</ele><time>2026-04-20T07:23:09.318Z</time></trkpt><trkpt lat="42.0902267" lon="12.9030683"><ele>518.3333333333334</ele><time>2026-04-20T07:23:10.316Z</time></trkpt><trkpt lat="42.0904233" lon="12.9031067"><ele>517.6666666666667</ele><time>2026-04-20T07:23:11.317Z</time></trkpt><trkpt lat="42.0906083" lon="12.9031383"><ele>517.0</ele><time>2026-04-20T07:23:12.318Z</time></trkpt><trkpt lat="42.0907917" lon="12.9031667"><ele>520.3333333333334</ele><time>2026-04-20T07:23:13.318Z</time></trkpt><trkpt lat="42.0909717" lon="12.903205"><ele>523.6666666666666</ele><time>2026-04-20T07:23:14.316Z</time></trkpt><trkpt lat="42.09115" lon="12.9032633"><ele>527.0</ele><time>2026-04-20T07:23:15.317Z</time></trkpt><trkpt lat="42.091325" lon="12.9033467"><ele>523.6666666666666</ele><time>2026-04-20T07:23:16.316Z</time></trkpt><trkpt lat="42.0915017" lon="12.9034483"><ele>520.3333333333334</ele><time>2026-04-20T07:23:17.318Z</time></trkpt><trkpt lat="42.0916717" lon="12.9035583"><ele>517.0</ele><time>2026-04-20T07:23:18.318Z</time></trkpt><trkpt lat="42.0918267" lon="12.9036767"><ele>517.0</ele><time>2026-04-20T07:23:19.316Z</time></trkpt><trkpt lat="42.0919767" lon="12.9038117"><ele>517.0</ele><time>2026-04-20T07:23:20.317Z</time></trkpt><trkpt lat="42.0921117" lon="12.90397"><ele>517.0</ele><time>2026-04-20T07:23:21.318Z</time></trkpt><trkpt lat="42.0922333" lon="12.9041517"><ele>516.0</ele><time>2026-04-20T07:23:22.316Z</time></trkpt><trkpt lat="42.092355" lon="12.904335"><ele>515.0</ele><time>2026-04-20T07:23:23.316Z</time></trkpt><trkpt lat="42.0924883" lon="12.9045067"><ele>514.0</ele><time>2026-04-20T07:23:24.318Z</time></trkpt><trkpt lat="42.09263" lon="12.9046617"><ele>517.6666666666667</ele><time>2026-04-20T07:23:25.319Z</time></trkpt><trkpt lat="42.0927867" lon="12.9047933"><ele>521.3333333333334</ele><time>2026-04-20T07:23:26.32Z</time></trkpt><trkpt lat="42.09296" lon="12.90491"><ele>525.0</ele><time>2026-04-20T07:23:27.319Z</time></trkpt><trkpt lat="42.0931467" lon="12.905015"><ele>525.0</ele><time>2026-04-20T07:23:28.318Z</time></trkpt><trkpt lat="42.0933417" lon="12.9051167"><ele>525.0</ele><time>2026-04-20T07:23:29.319Z</time></trkpt><trkpt lat="42.0935283" lon="12.9052183"><ele>525.0</ele><time>2026-04-20T07:23:30.319Z</time></trkpt><trkpt lat="42.0937217" lon="12.9053233"><ele>525.0</ele><time>2026-04-20T07:23:31.318Z</time></trkpt><trkpt lat="42.0939067" lon="12.9054283"><ele>525.0</ele><time>2026-04-20T07:23:32.318Z</time></trkpt><trkpt lat="42.0940833" lon="12.905525"><ele>525.0</ele><time>2026-04-20T07:23:33.32Z</time></trkpt><trkpt lat="42.094255" lon="12.90562"><ele>526.6666666666666</ele><time>2026-04-20T07:23:34.32Z</time></trkpt><trkpt lat="42.0944067" lon="12.9057133"><ele>528.3333333333333</ele><time>2026-04-20T07:23:35.32Z</time></trkpt><trkpt lat="42.0945583" lon="12.9057967"><ele>530.0</ele><time>2026-04-20T07:23:36.318Z</time></trkpt><trkpt lat="42.094705" lon="12.905875"><ele>528.75</ele><time>2026-04-20T07:23:37.319Z</time></trkpt><trkpt lat="42.0948467" lon="12.9059517"><ele>527.5</ele><time>2026-04-20T07:23:38.32Z</time></trkpt><trkpt lat="42.0949833" lon="12.9060283"><ele>526.25</ele><time>2026-04-20T07:23:39.319Z</time></trkpt><trkpt lat="42.09511" lon="12.9061083"><ele>525.0</ele><time>2026-04-20T07:23:40.32Z</time></trkpt><trkpt lat="42.0952233" lon="12.9062017"><ele>525.0</ele><time>2026-04-20T07:23:41.318Z</time></trkpt><trkpt lat="42.0953183" lon="12.9063167"><ele>525.0</ele><time>2026-04-20T07:23:42.32Z</time></trkpt><trkpt lat="42.0953933" lon="12.90647"><ele>525.0</ele><time>2026-04-20T07:23:43.32Z</time></trkpt><trkpt lat="42.0954567" lon="12.906655"><ele>525.0</ele><time>2026-04-20T07:23:44.319Z</time></trkpt><trkpt lat="42.095515" lon="12.906855"><ele>529.0</ele><time>2026-04-20T07:23:45.319Z</time></trkpt><trkpt lat="42.0955667" lon="12.9070617"><ele>533.0</ele><time>2026-04-20T07:23:46.318Z</time></trkpt><trkpt lat="42.0956233" lon="12.9072767"><ele>537.0</ele><time>2026-04-20T07:23:47.319Z</time></trkpt><trkpt lat="42.0956817" lon="12.9074983"><ele>541.0</ele><time>2026-04-20T07:23:48.317Z</time></trkpt><trkpt lat="42.09574" lon="12.9077183"><ele>545.0</ele><time>2026-04-20T07:23:49.317Z</time></trkpt><trkpt lat="42.0957967" lon="12.9079267"><ele>549.0</ele><time>2026-04-20T07:23:50.317Z</time></trkpt><trkpt lat="42.0958417" lon="12.9081217"><ele>549.0</ele><time>2026-04-20T07:23:51.319Z</time></trkpt><trkpt lat="42.0958617" lon="12.9083033"><ele>549.0</ele><time>2026-04-20T07:23:52.318Z</time></trkpt><trkpt lat="42.09586" lon="12.90849"><ele>549.0</ele><time>2026-04-20T07:23:53.319Z</time></trkpt><trkpt lat="42.0958317" lon="12.9086767"><ele>549.0</ele><time>2026-04-20T07:23:54.319Z</time></trkpt><trkpt lat="42.09578" lon="12.9088667"><ele>558.0</ele><time>2026-04-20T07:23:55.318Z</time></trkpt><trkpt lat="42.0957133" lon="12.9090617"><ele>567.0</ele><time>2026-04-20T07:23:56.318Z</time></trkpt><trkpt lat="42.0956383" lon="12.9092633"><ele>576.0</ele><time>2026-04-20T07:23:57.319Z</time></trkpt><trkpt lat="42.0955617" lon="12.909465"><ele>576.0</ele><time>2026-04-20T07:23:58.319Z</time></trkpt><trkpt lat="42.095495" lon="12.9096517"><ele>576.0</ele><time>2026-04-20T07:23:59.319Z</time></trkpt><trkpt lat="42.095445" lon="12.9098167"><ele>576.0</ele><time>2026-04-20T07:24:00.316Z</time></trkpt><trkpt lat="42.0954083" lon="12.9099633"><ele>576.0</ele><time>2026-04-20T07:24:01.32Z</time></trkpt><trkpt lat="42.0953917" lon="12.9101067"><ele>577.25</ele><time>2026-04-20T07:24:02.318Z</time></trkpt><trkpt lat="42.0954017" lon="12.91026"><ele>578.5</ele><time>2026-04-20T07:24:03.319Z</time></trkpt><trkpt lat="42.09544" lon="12.9104183"><ele>579.75</ele><time>2026-04-20T07:24:04.319Z</time></trkpt><trkpt lat="42.0954967" lon="12.9105833"><ele>581.0</ele><time>2026-04-20T07:24:05.319Z</time></trkpt><trkpt lat="42.0955583" lon="12.91076"><ele>582.6666666666666</ele><time>2026-04-20T07:24:06.317Z</time></trkpt><trkpt lat="42.095625" lon="12.9109517"><ele>584.3333333333334</ele><time>2026-04-20T07:24:07.319Z</time></trkpt><trkpt lat="42.0956967" lon="12.9111483"><ele>586.0</ele><time>2026-04-20T07:24:08.319Z</time></trkpt><trkpt lat="42.0957617" lon="12.911335"><ele>581.25</ele><time>2026-04-20T07:24:09.319Z</time></trkpt><trkpt lat="42.095815" lon="12.91151"><ele>576.5</ele><time>2026-04-20T07:24:10.316Z</time></trkpt><trkpt lat="42.09585" lon="12.9116933"><ele>571.75</ele><time>2026-04-20T07:24:11.318Z</time></trkpt><trkpt lat="42.0958667" lon="12.9118967"><ele>567.0</ele><time>2026-04-20T07:24:12.319Z</time></trkpt><trkpt lat="42.0958733" lon="12.9121"><ele>567.0</ele><time>2026-04-20T07:24:13.318Z</time></trkpt><trkpt lat="42.095885" lon="12.9122917"><ele>567.0</ele><time>2026-04-20T07:24:14.318Z</time></trkpt><trkpt lat="42.0959017" lon="12.912485"><ele>567.0</ele><time>2026-04-20T07:24:15.319Z</time></trkpt><trkpt lat="42.0959283" lon="12.91267"><ele>567.0</ele><time>2026-04-20T07:24:16.316Z</time></trkpt><trkpt lat="42.09598" lon="12.9128467"><ele>570.75</ele><time>2026-04-20T07:24:17.319Z</time></trkpt><trkpt lat="42.0960567" lon="12.9129983"><ele>574.5</ele><time>2026-04-20T07:24:18.318Z</time></trkpt><trkpt lat="42.0961433" lon="12.913135"><ele>578.25</ele><time>2026-04-20T07:24:19.318Z</time></trkpt><trkpt lat="42.096215" lon="12.9132733"><ele>582.0</ele><time>2026-04-20T07:24:20.318Z</time></trkpt><trkpt lat="42.09626" lon="12.91344"><ele>584.75</ele><time>2026-04-20T07:24:21.319Z</time></trkpt><trkpt lat="42.0962783" lon="12.9136167"><ele>587.5</ele><time>2026-04-20T07:24:22.319Z</time></trkpt><trkpt lat="42.0962817" lon="12.9137933"><ele>590.25</ele><time>2026-04-20T07:24:23.32Z</time></trkpt><trkpt lat="42.0962667" lon="12.9139733"><ele>593.0</ele><time>2026-04-20T07:24:24.319Z</time></trkpt><trkpt lat="42.096235" lon="12.914155"><ele>589.6666666666666</ele><time>2026-04-20T07:24:25.318Z</time></trkpt><trkpt lat="42.0961883" lon="12.91434"><ele>586.3333333333334</ele><time>2026-04-20T07:24:26.319Z</time></trkpt><trkpt lat="42.096135" lon="12.9145267"><ele>583.0</ele><time>2026-04-20T07:24:27.32Z</time></trkpt><trkpt lat="42.096075" lon="12.9147217"><ele>583.0</ele><time>2026-04-20T07:24:28.318Z</time></trkpt><trkpt lat="42.09602" lon="12.9149133"><ele>583.0</ele><time>2026-04-20T07:24:29.319Z</time></trkpt><trkpt lat="42.0959667" lon="12.91509"><ele>583.0</ele><time>2026-04-20T07:24:30.319Z</time></trkpt><trkpt lat="42.095925" lon="12.9152617"><ele>583.0</ele><time>2026-04-20T07:24:31.319Z</time></trkpt><trkpt lat="42.095885" lon="12.915435"><ele>579.6666666666667</ele><time>2026-04-20T07:24:32.318Z</time></trkpt><trkpt lat="42.0958333" lon="12.91561"><ele>576.3333333333334</ele><time>2026-04-20T07:24:33.318Z</time></trkpt><trkpt lat="42.095765" lon="12.9157933"><ele>573.0</ele><time>2026-04-20T07:24:34.32Z</time></trkpt><trkpt lat="42.0956817" lon="12.9159883"><ele>582.3333333333334</ele><time>2026-04-20T07:24:35.319Z</time></trkpt><trkpt lat="42.0956" lon="12.9161783"><ele>591.6666666666667</ele><time>2026-04-20T07:24:36.318Z</time></trkpt><trkpt lat="42.0955217" lon="12.916355"><ele>601.0</ele><time>2026-04-20T07:24:37.319Z</time></trkpt><trkpt lat="42.09544" lon="12.916525"><ele>601.0</ele><time>2026-04-20T07:24:38.321Z</time></trkpt><trkpt lat="42.0953583" lon="12.91669"><ele>601.0</ele><time>2026-04-20T07:24:39.318Z</time></trkpt><trkpt lat="42.0952717" lon="12.916835"><ele>601.0</ele><time>2026-04-20T07:24:40.318Z</time></trkpt><trkpt lat="42.0951983" lon="12.9169633"><ele>601.0</ele><time>2026-04-20T07:24:41.319Z</time></trkpt><trkpt lat="42.0951417" lon="12.917075"><ele>600.3333333333334</ele><time>2026-04-20T07:24:42.317Z</time></trkpt><trkpt lat="42.095095" lon="12.9171767"><ele>599.6666666666667</ele><time>2026-04-20T07:24:43.319Z</time></trkpt><trkpt lat="42.0950683" lon="12.9172767"><ele>599.0</ele><time>2026-04-20T07:24:44.318Z</time></trkpt><trkpt lat="42.0950617" lon="12.9173767"><ele>598.3333333333334</ele><time>2026-04-20T07:24:45.319Z</time></trkpt><trkpt lat="42.0950933" lon="12.91748"><ele>597.6666666666666</ele><time>2026-04-20T07:24:46.315Z</time></trkpt><trkpt lat="42.0951567" lon="12.9175683"><ele>597.0</ele><time>2026-04-20T07:24:47.319Z</time></trkpt><trkpt lat="42.095235" lon="12.9176517"><ele>597.0</ele><time>2026-04-20T07:24:48.316Z</time></trkpt><trkpt lat="42.095315" lon="12.9177233"><ele>597.0</ele><time>2026-04-20T07:24:49.319Z</time></trkpt><trkpt lat="42.09541" lon="12.91774"><ele>597.0</ele><time>2026-04-20T07:24:50.317Z</time></trkpt><trkpt lat="42.095525" lon="12.9177033"><ele>597.0</ele><time>2026-04-20T07:24:51.319Z</time></trkpt><trkpt lat="42.0956433" lon="12.9176467"><ele>597.0</ele><time>2026-04-20T07:24:52.319Z</time></trkpt><trkpt lat="42.0957483" lon="12.917615"><ele>597.8000000000001</ele><time>2026-04-20T07:24:53.319Z</time></trkpt><trkpt lat="42.0958367" lon="12.917625"><ele>598.6</ele><time>2026-04-20T07:24:54.319Z</time></trkpt><trkpt lat="42.0959267" lon="12.9176817"><ele>599.4000000000001</ele><time>2026-04-20T07:24:55.319Z</time></trkpt><trkpt lat="42.0960117" lon="12.917775"><ele>600.2</ele><time>2026-04-20T07:24:56.319Z</time></trkpt><trkpt lat="42.0961" lon="12.9178883"><ele>601.0</ele><time>2026-04-20T07:24:57.318Z</time></trkpt><trkpt lat="42.0961917" lon="12.9179917"><ele>601.0</ele><time>2026-04-20T07:24:58.315Z</time></trkpt><trkpt lat="42.0962883" lon="12.9180733"><ele>601.0</ele><time>2026-04-20T07:24:59.318Z</time></trkpt><trkpt lat="42.0963917" lon="12.9181267"><ele>601.0</ele><time>2026-04-20T07:25:00.318Z</time></trkpt><trkpt lat="42.096495" lon="12.9181417"><ele>601.0</ele><time>2026-04-20T07:25:01.319Z</time></trkpt><trkpt lat="42.0965933" lon="12.9181117"><ele>601.0</ele><time>2026-04-20T07:25:02.318Z</time></trkpt><trkpt lat="42.09669" lon="12.918065"><ele>599.0</ele><time>2026-04-20T07:25:03.32Z</time></trkpt><trkpt lat="42.096795" lon="12.9180233"><ele>597.0</ele><time>2026-04-20T07:25:04.316Z</time></trkpt><trkpt lat="42.096905" lon="12.9180167"><ele>595.0</ele><time>2026-04-20T07:25:05.32Z</time></trkpt><trkpt lat="42.0970233" lon="12.9180483"><ele>593.0</ele><time>2026-04-20T07:25:06.319Z</time></trkpt><trkpt lat="42.0971317" lon="12.9180767"><ele>593.0</ele><time>2026-04-20T07:25:07.319Z</time></trkpt><trkpt lat="42.097215" lon="12.9180833"><ele>593.0</ele><time>2026-04-20T07:25:08.317Z</time></trkpt><trkpt lat="42.0972883" lon="12.9180617"><ele>593.0</ele><time>2026-04-20T07:25:09.318Z</time></trkpt><trkpt lat="42.0973567" lon="12.9180183"><ele>593.0</ele><time>2026-04-20T07:25:10.317Z</time></trkpt><trkpt lat="42.097405" lon="12.9179417"><ele>593.0</ele><time>2026-04-20T07:25:11.316Z</time></trkpt><trkpt lat="42.0974167" lon="12.9178383"><ele>593.0</ele><time>2026-04-20T07:25:12.317Z</time></trkpt><trkpt lat="42.097425" lon="12.917735"><ele>589.75</ele><time>2026-04-20T07:25:13.316Z</time></trkpt><trkpt lat="42.0974217" lon="12.9176"><ele>586.5</ele><time>2026-04-20T07:25:14.32Z</time></trkpt><trkpt lat="42.097405" lon="12.9174217"><ele>583.25</ele><time>2026-04-20T07:25:15.319Z</time></trkpt><trkpt lat="42.0974067" lon="12.91725"><ele>580.0</ele><time>2026-04-20T07:25:16.318Z</time></trkpt><trkpt lat="42.0974067" lon="12.91707"><ele>583.75</ele><time>2026-04-20T07:25:17.317Z</time></trkpt><trkpt lat="42.097425" lon="12.9169067"><ele>587.5</ele><time>2026-04-20T07:25:18.316Z</time></trkpt><trkpt lat="42.0974633" lon="12.916745"><ele>591.25</ele><time>2026-04-20T07:25:19.316Z</time></trkpt><trkpt lat="42.0975117" lon="12.9165933"><ele>595.0</ele><time>2026-04-20T07:25:20.317Z</time></trkpt><trkpt lat="42.0975433" lon="12.9164433"><ele>595.0</ele><time>2026-04-20T07:25:21.318Z</time></trkpt><trkpt lat="42.0975483" lon="12.916285"><ele>595.0</ele><time>2026-04-20T07:25:22.315Z</time></trkpt><trkpt lat="42.0975283" lon="12.9161183"><ele>595.0</ele><time>2026-04-20T07:25:23.316Z</time></trkpt><trkpt lat="42.0975033" lon="12.9159517"><ele>595.0</ele><time>2026-04-20T07:25:24.316Z</time></trkpt><trkpt lat="42.0974967" lon="12.9157967"><ele>594.6</ele><time>2026-04-20T07:25:25.319Z</time></trkpt><trkpt lat="42.0974967" lon="12.915655"><ele>594.2</ele><time>2026-04-20T07:25:26.32Z</time></trkpt><trkpt lat="42.0975367" lon="12.91553"><ele>593.8</ele><time>2026-04-20T07:25:27.317Z</time></trkpt><trkpt lat="42.0975967" lon="12.9154433"><ele>593.4</ele><time>2026-04-20T07:25:28.319Z</time></trkpt><trkpt lat="42.0976617" lon="12.91539"><ele>593.0</ele><time>2026-04-20T07:25:29.318Z</time></trkpt><trkpt lat="42.097745" lon="12.9153867"><ele>593.0</ele><time>2026-04-20T07:25:30.316Z</time></trkpt><trkpt lat="42.0978367" lon="12.915395"><ele>593.0</ele><time>2026-04-20T07:25:31.317Z</time></trkpt><trkpt lat="42.0979317" lon="12.9154083"><ele>593.0</ele><time>2026-04-20T07:25:32.316Z</time></trkpt><trkpt lat="42.0980217" lon="12.9154233"><ele>593.0</ele><time>2026-04-20T07:25:33.317Z</time></trkpt><trkpt lat="42.0981133" lon="12.91545"><ele>593.0</ele><time>2026-04-20T07:25:34.318Z</time></trkpt><trkpt lat="42.098195" lon="12.915485"><ele>595.5</ele><time>2026-04-20T07:25:35.319Z</time></trkpt><trkpt lat="42.09827" lon="12.915535"><ele>598.0</ele><time>2026-04-20T07:25:36.319Z</time></trkpt><trkpt lat="42.09834" lon="12.9155933"><ele>600.5</ele><time>2026-04-20T07:25:37.319Z</time></trkpt><trkpt lat="42.09841" lon="12.9156567"><ele>603.0</ele><time>2026-04-20T07:25:38.319Z</time></trkpt><trkpt lat="42.0984817" lon="12.915715"><ele>605.5</ele><time>2026-04-20T07:25:39.32Z</time></trkpt><trkpt lat="42.0985583" lon="12.9157567"><ele>608.0</ele><time>2026-04-20T07:25:40.319Z</time></trkpt><trkpt lat="42.0986417" lon="12.9157883"><ele>608.0</ele><time>2026-04-20T07:25:41.317Z</time></trkpt><trkpt lat="42.098735" lon="12.9158267"><ele>608.0</ele><time>2026-04-20T07:25:42.318Z</time></trkpt><trkpt lat="42.09884" lon="12.9158833"><ele>608.0</ele><time>2026-04-20T07:25:43.319Z</time></trkpt><trkpt lat="42.098955" lon="12.91593"><ele>608.0</ele><time>2026-04-20T07:25:44.317Z</time></trkpt><trkpt lat="42.0990733" lon="12.91596"><ele>612.6</ele><time>2026-04-20T07:25:45.318Z</time></trkpt><trkpt lat="42.0991883" lon="12.9160067"><ele>617.1999999999999</ele><time>2026-04-20T07:25:46.316Z</time></trkpt><trkpt lat="42.0992917" lon="12.9160817"><ele>621.8</ele><time>2026-04-20T07:25:47.317Z</time></trkpt><trkpt lat="42.09938" lon="12.9161667"><ele>626.4</ele><time>2026-04-20T07:25:48.318Z</time></trkpt><trkpt lat="42.0994583" lon="12.91625"><ele>631.0</ele><time>2026-04-20T07:25:49.316Z</time></trkpt><trkpt lat="42.09953" lon="12.9163183"><ele>631.0</ele><time>2026-04-20T07:25:50.317Z</time></trkpt><trkpt lat="42.0996" lon="12.916355"><ele>631.0</ele><time>2026-04-20T07:25:51.316Z</time></trkpt><trkpt lat="42.0996683" lon="12.9163833"><ele>631.0</ele><time>2026-04-20T07:25:52.316Z</time></trkpt><trkpt lat="42.0997333" lon="12.91639"><ele>631.0</ele><time>2026-04-20T07:25:53.317Z</time></trkpt><trkpt lat="42.0997983" lon="12.9163717"><ele>631.0</ele><time>2026-04-20T07:25:54.317Z</time></trkpt><trkpt lat="42.0998233" lon="12.9161917"><ele>631.0</ele><time>2026-04-20T07:25:56.317Z</time></trkpt><trkpt lat="42.0997583" lon="12.9159233"><ele>624.6666666666667</ele><time>2026-04-20T07:25:57.317Z</time></trkpt><trkpt lat="42.0996567" lon="12.9157233"><ele>618.3333333333334</ele><time>2026-04-20T07:25:58.316Z</time></trkpt><trkpt lat="42.09955" lon="12.9155233"><ele>612.0</ele><time>2026-04-20T07:25:59.316Z</time></trkpt><trkpt lat="42.099455" lon="12.9153133"><ele>612.0</ele><time>2026-04-20T07:26:00.319Z</time></trkpt><trkpt lat="42.0993633" lon="12.9151167"><ele>612.0</ele><time>2026-04-20T07:26:01.316Z</time></trkpt><trkpt lat="42.0993217" lon="12.9149083"><ele>612.0</ele><time>2026-04-20T07:26:02.319Z</time></trkpt><trkpt lat="42.0993183" lon="12.9147"><ele>612.3333333333334</ele><time>2026-04-20T07:26:03.318Z</time></trkpt><trkpt lat="42.0993367" lon="12.9144983"><ele>612.6666666666667</ele><time>2026-04-20T07:26:04.319Z</time></trkpt><trkpt lat="42.0993583" lon="12.9142867"><ele>613.0</ele><time>2026-04-20T07:26:05.318Z</time></trkpt><trkpt lat="42.0993617" lon="12.9140833"><ele>613.0</ele><time>2026-04-20T07:26:06.32Z</time></trkpt><trkpt lat="42.099355" lon="12.9138967"><ele>613.0</ele><time>2026-04-20T07:26:07.319Z</time></trkpt><trkpt lat="42.099365" lon="12.9137267"><ele>613.0</ele><time>2026-04-20T07:26:08.319Z</time></trkpt><trkpt lat="42.0993967" lon="12.91357"><ele>613.0</ele><time>2026-04-20T07:26:09.319Z</time></trkpt><trkpt lat="42.0994583" lon="12.9134367"><ele>612.75</ele><time>2026-04-20T07:26:10.319Z</time></trkpt><trkpt lat="42.099545" lon="12.913325"><ele>612.5</ele><time>2026-04-20T07:26:11.319Z</time></trkpt><trkpt lat="42.0996583" lon="12.9132283"><ele>612.25</ele><time>2026-04-20T07:26:12.318Z</time></trkpt><trkpt lat="42.0997883" lon="12.9131333"><ele>612.0</ele><time>2026-04-20T07:26:13.319Z</time></trkpt><trkpt lat="42.0999367" lon="12.91304"><ele>618.6666666666666</ele><time>2026-04-20T07:26:14.318Z</time></trkpt><trkpt lat="42.100095" lon="12.9129517"><ele>625.3333333333333</ele><time>2026-04-20T07:26:15.318Z</time></trkpt><trkpt lat="42.1002567" lon="12.9128783"><ele>632.0</ele><time>2026-04-20T07:26:16.315Z</time></trkpt><trkpt lat="42.100415" lon="12.91282"><ele>632.0</ele><time>2026-04-20T07:26:17.319Z</time></trkpt><trkpt lat="42.1005733" lon="12.9127917"><ele>632.0</ele><time>2026-04-20T07:26:18.319Z</time></trkpt><trkpt lat="42.1007367" lon="12.9127883"><ele>632.0</ele><time>2026-04-20T07:26:19.319Z</time></trkpt><trkpt lat="42.1009117" lon="12.9127933"><ele>636.3333333333333</ele><time>2026-04-20T07:26:20.317Z</time></trkpt><trkpt lat="42.10109" lon="12.912805"><ele>640.6666666666666</ele><time>2026-04-20T07:26:21.318Z</time></trkpt><trkpt lat="42.10126" lon="12.9128367"><ele>645.0</ele><time>2026-04-20T07:26:22.32Z</time></trkpt><trkpt lat="42.10143" lon="12.9128967"><ele>645.0</ele><time>2026-04-20T07:26:23.319Z</time></trkpt><trkpt lat="42.10161" lon="12.9129817"><ele>645.0</ele><time>2026-04-20T07:26:24.319Z</time></trkpt><trkpt lat="42.1018017" lon="12.9130733"><ele>645.0</ele><time>2026-04-20T07:26:25.318Z</time></trkpt><trkpt lat="42.1019967" lon="12.9131517"><ele>645.0</ele><time>2026-04-20T07:26:26.319Z</time></trkpt><trkpt lat="42.102195" lon="12.9132283"><ele>645.0</ele><time>2026-04-20T07:26:27.318Z</time></trkpt><trkpt lat="42.10238" lon="12.9132983"><ele>645.0</ele><time>2026-04-20T07:26:28.318Z</time></trkpt><trkpt lat="42.1025367" lon="12.9133633"><ele>649.5</ele><time>2026-04-20T07:26:29.318Z</time></trkpt><trkpt lat="42.102665" lon="12.9134383"><ele>654.0</ele><time>2026-04-20T07:26:30.319Z</time></trkpt><trkpt lat="42.1027717" lon="12.9135317"><ele>658.5</ele><time>2026-04-20T07:26:31.318Z</time></trkpt><trkpt lat="42.1028667" lon="12.9136533"><ele>663.0</ele><time>2026-04-20T07:26:32.319Z</time></trkpt><trkpt lat="42.1029467" lon="12.9137817"><ele>663.0</ele><time>2026-04-20T07:26:33.319Z</time></trkpt><trkpt lat="42.1030167" lon="12.913885"><ele>663.0</ele><time>2026-04-20T07:26:34.318Z</time></trkpt><trkpt lat="42.1030817" lon="12.9139467"><ele>663.0</ele><time>2026-04-20T07:26:35.318Z</time></trkpt><trkpt lat="42.1031517" lon="12.9139917"><ele>663.0</ele><time>2026-04-20T07:26:36.318Z</time></trkpt><trkpt lat="42.1032367" lon="12.9140067"><ele>663.0</ele><time>2026-04-20T07:26:37.318Z</time></trkpt><trkpt lat="42.1033367" lon="12.914015"><ele>663.0</ele><time>2026-04-20T07:26:38.319Z</time></trkpt><trkpt lat="42.1034267" lon="12.9140117"><ele>662.5</ele><time>2026-04-20T07:26:39.32Z</time></trkpt><trkpt lat="42.103505" lon="12.91399"><ele>662.0</ele><time>2026-04-20T07:26:40.317Z</time></trkpt><trkpt lat="42.103565" lon="12.913945"><ele>661.5</ele><time>2026-04-20T07:26:41.318Z</time></trkpt><trkpt lat="42.1036183" lon="12.9138"><ele>661.0</ele><time>2026-04-20T07:26:43.317Z</time></trkpt><trkpt lat="42.1036117" lon="12.913705"><ele>660.5</ele><time>2026-04-20T07:26:44.319Z</time></trkpt><trkpt lat="42.1035567" lon="12.913605"><ele>660.0</ele><time>2026-04-20T07:26:45.32Z</time></trkpt><trkpt lat="42.1034633" lon="12.913535"><ele>660.0</ele><time>2026-04-20T07:26:46.32Z</time></trkpt><trkpt lat="42.10337" lon="12.913455"><ele>660.0</ele><time>2026-04-20T07:26:47.32Z</time></trkpt><trkpt lat="42.1032867" lon="12.9133567"><ele>660.0</ele><time>2026-04-20T07:26:48.319Z</time></trkpt><trkpt lat="42.10323" lon="12.9132333"><ele>660.0</ele><time>2026-04-20T07:26:49.32Z</time></trkpt><trkpt lat="42.1031817" lon="12.9130817"><ele>655.25</ele><time>2026-04-20T07:26:50.318Z</time></trkpt><trkpt lat="42.1031217" lon="12.9129183"><ele>650.5</ele><time>2026-04-20T07:26:51.319Z</time></trkpt><trkpt lat="42.1030433" lon="12.91275"><ele>645.75</ele><time>2026-04-20T07:26:52.318Z</time></trkpt><trkpt lat="42.1029533" lon="12.9125617"><ele>641.0</ele><time>2026-04-20T07:26:53.321Z</time></trkpt><trkpt lat="42.1028717" lon="12.9123717"><ele>640.8</ele><time>2026-04-20T07:26:54.319Z</time></trkpt><trkpt lat="42.102805" lon="12.9122017"><ele>640.5999999999999</ele><time>2026-04-20T07:26:55.317Z</time></trkpt><trkpt lat="42.10275" lon="12.9120617"><ele>640.4</ele><time>2026-04-20T07:26:56.321Z</time></trkpt><trkpt lat="42.1027133" lon="12.9119417"><ele>640.2</ele><time>2026-04-20T07:26:57.318Z</time></trkpt><trkpt lat="42.102695" lon="12.9118317"><ele>640.0</ele><time>2026-04-20T07:26:58.32Z</time></trkpt><trkpt lat="42.1026867" lon="12.911735"><ele>642.0</ele><time>2026-04-20T07:26:59.317Z</time></trkpt><trkpt lat="42.1027017" lon="12.9116383"><ele>644.0</ele><time>2026-04-20T07:27:00.317Z</time></trkpt><trkpt lat="42.1027383" lon="12.9115317"><ele>646.0</ele><time>2026-04-20T07:27:01.316Z</time></trkpt><trkpt lat="42.1027783" lon="12.9114117"><ele>648.0</ele><time>2026-04-20T07:27:02.318Z</time></trkpt><trkpt lat="42.1028017" lon="12.91128"><ele>650.0</ele><time>2026-04-20T07:27:03.318Z</time></trkpt><trkpt lat="42.1028" lon="12.9111467"><ele>650.0</ele><time>2026-04-20T07:27:04.316Z</time></trkpt><trkpt lat="42.1027733" lon="12.9110433"><ele>650.0</ele><time>2026-04-20T07:27:05.318Z</time></trkpt><trkpt lat="42.1027233" lon="12.9109567"><ele>650.0</ele><time>2026-04-20T07:27:06.318Z</time></trkpt><trkpt lat="42.1026467" lon="12.9109"><ele>650.0</ele><time>2026-04-20T07:27:07.317Z</time></trkpt><trkpt lat="42.1025267" lon="12.910865"><ele>650.0</ele><time>2026-04-20T07:27:08.317Z</time></trkpt><trkpt lat="42.1023633" lon="12.91081"><ele>650.5</ele><time>2026-04-20T07:27:09.318Z</time></trkpt><trkpt lat="42.1022183" lon="12.9107617"><ele>651.0</ele><time>2026-04-20T07:27:10.316Z</time></trkpt><trkpt lat="42.1020883" lon="12.9106983"><ele>651.5</ele><time>2026-04-20T07:27:11.317Z</time></trkpt><trkpt lat="42.10197" lon="12.91061"><ele>652.0</ele><time>2026-04-20T07:27:12.318Z</time></trkpt><trkpt lat="42.10185" lon="12.9104933"><ele>652.0</ele><time>2026-04-20T07:27:13.317Z</time></trkpt><trkpt lat="42.10173" lon="12.9103517"><ele>652.0</ele><time>2026-04-20T07:27:14.318Z</time></trkpt><trkpt lat="42.1016067" lon="12.9102"><ele>652.0</ele><time>2026-04-20T07:27:15.318Z</time></trkpt><trkpt lat="42.1014733" lon="12.9100383"><ele>653.3333333333334</ele><time>2026-04-20T07:27:16.321Z</time></trkpt><trkpt lat="42.1013317" lon="12.90986"><ele>654.6666666666666</ele><time>2026-04-20T07:27:17.319Z</time></trkpt><trkpt lat="42.101195" lon="12.9096817"><ele>656.0</ele><time>2026-04-20T07:27:18.32Z</time></trkpt><trkpt lat="42.101065" lon="12.909515"><ele>656.0</ele><time>2026-04-20T07:27:19.316Z</time></trkpt><trkpt lat="42.100935" lon="12.909365"><ele>656.0</ele><time>2026-04-20T07:27:20.317Z</time></trkpt><trkpt lat="42.1008" lon="12.9092417"><ele>656.0</ele><time>2026-04-20T07:27:21.317Z</time></trkpt><trkpt lat="42.10065" lon="12.9091533"><ele>659.6666666666666</ele><time>2026-04-20T07:27:22.317Z</time></trkpt><trkpt lat="42.1004833" lon="12.90909"><ele>663.3333333333334</ele><time>2026-04-20T07:27:23.317Z</time></trkpt><trkpt lat="42.10031" lon="12.909035"><ele>667.0</ele><time>2026-04-20T07:27:24.317Z</time></trkpt><trkpt lat="42.1001417" lon="12.9089633"><ele>667.0</ele><time>2026-04-20T07:27:25.317Z</time></trkpt><trkpt lat="42.0999817" lon="12.90887"><ele>667.0</ele><time>2026-04-20T07:27:26.319Z</time></trkpt><trkpt lat="42.0998333" lon="12.9087617"><ele>667.0</ele><time>2026-04-20T07:27:27.318Z</time></trkpt><trkpt lat="42.0997017" lon="12.90864"><ele>666.0</ele><time>2026-04-20T07:27:28.316Z</time></trkpt><trkpt lat="42.0995883" lon="12.9084983"><ele>665.0</ele><time>2026-04-20T07:27:29.316Z</time></trkpt><trkpt lat="42.0994983" lon="12.9083433"><ele>664.0</ele><time>2026-04-20T07:27:30.317Z</time></trkpt><trkpt lat="42.0994333" lon="12.9081933"><ele>663.0</ele><time>2026-04-20T07:27:31.316Z</time></trkpt><trkpt lat="42.0994033" lon="12.9080483"><ele>663.0</ele><time>2026-04-20T07:27:32.319Z</time></trkpt><trkpt lat="42.0994033" lon="12.9079167"><ele>663.0</ele><time>2026-04-20T07:27:33.32Z</time></trkpt><trkpt lat="42.0994233" lon="12.9077983"><ele>663.0</ele><time>2026-04-20T07:27:34.319Z</time></trkpt><trkpt lat="42.0994783" lon="12.907685"><ele>663.0</ele><time>2026-04-20T07:27:35.319Z</time></trkpt><trkpt lat="42.099575" lon="12.9075917"><ele>663.0</ele><time>2026-04-20T07:27:36.32Z</time></trkpt><trkpt lat="42.0997" lon="12.9075233"><ele>662.3333333333334</ele><time>2026-04-20T07:27:37.32Z</time></trkpt><trkpt lat="42.0998517" lon="12.9074883"><ele>661.6666666666667</ele><time>2026-04-20T07:27:38.32Z</time></trkpt><trkpt lat="42.0999983" lon="12.907465"><ele>661.0</ele><time>2026-04-20T07:27:39.32Z</time></trkpt><trkpt lat="42.1001617" lon="12.90746"><ele>667.6666666666667</ele><time>2026-04-20T07:27:40.32Z</time></trkpt><trkpt lat="42.1003367" lon="12.9074667"><ele>674.3333333333334</ele><time>2026-04-20T07:27:41.317Z</time></trkpt><trkpt lat="42.1005233" lon="12.90747"><ele>681.0</ele><time>2026-04-20T07:27:42.317Z</time></trkpt><trkpt lat="42.10071" lon="12.9074683"><ele>684.6666666666666</ele><time>2026-04-20T07:27:43.317Z</time></trkpt><trkpt lat="42.1008817" lon="12.9074633"><ele>688.3333333333333</ele><time>2026-04-20T07:27:44.317Z</time></trkpt><trkpt lat="42.1010367" lon="12.9074483"><ele>692.0</ele><time>2026-04-20T07:27:45.317Z</time></trkpt><trkpt lat="42.101185" lon="12.907405"><ele>692.0</ele><time>2026-04-20T07:27:46.318Z</time></trkpt><trkpt lat="42.1013317" lon="12.9073183"><ele>692.0</ele><time>2026-04-20T07:27:47.317Z</time></trkpt><trkpt lat="42.10148" lon="12.9072167"><ele>692.0</ele><time>2026-04-20T07:27:48.318Z</time></trkpt><trkpt lat="42.101635" lon="12.9071217"><ele>698.6666666666666</ele><time>2026-04-20T07:27:49.317Z</time></trkpt><trkpt lat="42.1017983" lon="12.9070417"><ele>705.3333333333334</ele><time>2026-04-20T07:27:50.316Z</time></trkpt><trkpt lat="42.10198" lon="12.9069767"><ele>712.0</ele><time>2026-04-20T07:27:51.318Z</time></trkpt><trkpt lat="42.1021667" lon="12.9069083"><ele>712.0</ele><time>2026-04-20T07:27:52.317Z</time></trkpt><trkpt lat="42.1023483" lon="12.9068483"><ele>712.0</ele><time>2026-04-20T07:27:53.317Z</time></trkpt><trkpt lat="42.1025217" lon="12.9068067"><ele>712.0</ele><time>2026-04-20T07:27:54.318Z</time></trkpt><trkpt lat="42.102695" lon="12.9067817"><ele>719.6666666666667</ele><time>2026-04-20T07:27:55.317Z</time></trkpt><trkpt lat="42.1028717" lon="12.9067833"><ele>727.3333333333334</ele><time>2026-04-20T07:27:56.318Z</time></trkpt><trkpt lat="42.1030317" lon="12.9067833"><ele>735.0</ele><time>2026-04-20T07:27:57.318Z</time></trkpt><trkpt lat="42.1031583" lon="12.9067583"><ele>729.0</ele><time>2026-04-20T07:27:58.316Z</time></trkpt><trkpt lat="42.1032617" lon="12.9067067"><ele>723.0</ele><time>2026-04-20T07:27:59.317Z</time></trkpt><trkpt lat="42.10335" lon="12.90662"><ele>717.0</ele><time>2026-04-20T07:28:00.317Z</time></trkpt><trkpt lat="42.1034283" lon="12.9065"><ele>711.0</ele><time>2026-04-20T07:28:01.318Z</time></trkpt><trkpt lat="42.1035067" lon="12.906355"><ele>711.0</ele><time>2026-04-20T07:28:02.317Z</time></trkpt><trkpt lat="42.103595" lon="12.9061983"><ele>711.0</ele><time>2026-04-20T07:28:03.318Z</time></trkpt><trkpt lat="42.10369" lon="12.9060567"><ele>711.0</ele><time>2026-04-20T07:28:04.317Z</time></trkpt><trkpt lat="42.1037933" lon="12.905945"><ele>711.0</ele><time>2026-04-20T07:28:05.317Z</time></trkpt><trkpt lat="42.1039167" lon="12.905865"><ele>710.5</ele><time>2026-04-20T07:28:06.317Z</time></trkpt><trkpt lat="42.104045" lon="12.9058133"><ele>710.0</ele><time>2026-04-20T07:28:07.316Z</time></trkpt><trkpt lat="42.10419" lon="12.9057833"><ele>709.5</ele><time>2026-04-20T07:28:08.318Z</time></trkpt><trkpt lat="42.10435" lon="12.9057683"><ele>709.0</ele><time>2026-04-20T07:28:09.317Z</time></trkpt><trkpt lat="42.1045217" lon="12.9057617"><ele>709.0</ele><time>2026-04-20T07:28:10.318Z</time></trkpt><trkpt lat="42.104695" lon="12.9057567"><ele>709.0</ele><time>2026-04-20T07:28:11.317Z</time></trkpt><trkpt lat="42.104885" lon="12.9057783"><ele>709.0</ele><time>2026-04-20T07:28:12.318Z</time></trkpt><trkpt lat="42.1050817" lon="12.9058133"><ele>711.0</ele><time>2026-04-20T07:28:13.317Z</time></trkpt><trkpt lat="42.10528" lon="12.9058667"><ele>713.0</ele><time>2026-04-20T07:28:14.316Z</time></trkpt><trkpt lat="42.1054633" lon="12.9059117"><ele>715.0</ele><time>2026-04-20T07:28:15.317Z</time></trkpt><trkpt lat="42.105635" lon="12.9059383"><ele>715.0</ele><time>2026-04-20T07:28:16.317Z</time></trkpt><trkpt lat="42.1058" lon="12.905945"><ele>715.0</ele><time>2026-04-20T07:28:17.316Z</time></trkpt><trkpt lat="42.105955" lon="12.9059283"><ele>715.0</ele><time>2026-04-20T07:28:18.317Z</time></trkpt><trkpt lat="42.1061" lon="12.90588"><ele>715.0</ele><time>2026-04-20T07:28:19.317Z</time></trkpt><trkpt lat="42.1062583" lon="12.9058067"><ele>715.0</ele><time>2026-04-20T07:28:20.317Z</time></trkpt><trkpt lat="42.1064317" lon="12.90573"><ele>715.0</ele><time>2026-04-20T07:28:21.317Z</time></trkpt><trkpt lat="42.1066" lon="12.9056667"><ele>717.5</ele><time>2026-04-20T07:28:22.316Z</time></trkpt><trkpt lat="42.1067467" lon="12.9056217"><ele>720.0</ele><time>2026-04-20T07:28:23.317Z</time></trkpt><trkpt lat="42.10688" lon="12.9056083"><ele>722.5</ele><time>2026-04-20T07:28:24.316Z</time></trkpt><trkpt lat="42.107" lon="12.9056267"><ele>725.0</ele><time>2026-04-20T07:28:25.316Z</time></trkpt><trkpt lat="42.1071217" lon="12.9056767"><ele>725.0</ele><time>2026-04-20T07:28:26.317Z</time></trkpt><trkpt lat="42.107245" lon="12.9057567"><ele>725.0</ele><time>2026-04-20T07:28:27.318Z</time></trkpt><trkpt lat="42.1073683" lon="12.905845"><ele>725.0</ele><time>2026-04-20T07:28:28.317Z</time></trkpt><trkpt lat="42.1074783" lon="12.9059133"><ele>725.0</ele><time>2026-04-20T07:28:29.318Z</time></trkpt><trkpt lat="42.10757" lon="12.9059367"><ele>724.4</ele><time>2026-04-20T07:28:30.318Z</time></trkpt><trkpt lat="42.1076517" lon="12.905925"><ele>723.8</ele><time>2026-04-20T07:28:31.316Z</time></trkpt><trkpt lat="42.10772" lon="12.90589"><ele>723.2</ele><time>2026-04-20T07:28:32.317Z</time></trkpt><trkpt lat="42.1078" lon="12.9058333"><ele>722.6</ele><time>2026-04-20T07:28:33.318Z</time></trkpt><trkpt lat="42.1078933" lon="12.9057617"><ele>722.0</ele><time>2026-04-20T07:28:34.317Z</time></trkpt><trkpt lat="42.1079967" lon="12.9057017"><ele>722.0</ele><time>2026-04-20T07:28:35.316Z</time></trkpt><trkpt lat="42.10811" lon="12.9056767"><ele>722.0</ele><time>2026-04-20T07:28:36.318Z</time></trkpt><trkpt lat="42.1082317" lon="12.90569"><ele>722.0</ele><time>2026-04-20T07:28:37.317Z</time></trkpt><trkpt lat="42.1083533" lon="12.9057367"><ele>722.0</ele><time>2026-04-20T07:28:38.316Z</time></trkpt><trkpt lat="42.108485" lon="12.90581"><ele>723.5</ele><time>2026-04-20T07:28:39.318Z</time></trkpt><trkpt lat="42.1086217" lon="12.90588"><ele>725.0</ele><time>2026-04-20T07:28:40.317Z</time></trkpt><trkpt lat="42.1087617" lon="12.9059317"><ele>726.5</ele><time>2026-04-20T07:28:41.316Z</time></trkpt><trkpt lat="42.1089033" lon="12.9059867"><ele>728.0</ele><time>2026-04-20T07:28:42.317Z</time></trkpt><trkpt lat="42.1090417" lon="12.906055"><ele>733.5</ele><time>2026-04-20T07:28:43.316Z</time></trkpt><trkpt lat="42.1091633" lon="12.9061517"><ele>739.0</ele><time>2026-04-20T07:28:44.319Z</time></trkpt><trkpt lat="42.1092733" lon="12.9062683"><ele>744.5</ele><time>2026-04-20T07:28:45.317Z</time></trkpt><trkpt lat="42.1093717" lon="12.9064017"><ele>750.0</ele><time>2026-04-20T07:28:46.316Z</time></trkpt><trkpt lat="42.1094683" lon="12.90658"><ele>756.3333333333333</ele><time>2026-04-20T07:28:47.32Z</time></trkpt><trkpt lat="42.1095783" lon="12.9067667"><ele>762.6666666666666</ele><time>2026-04-20T07:28:48.319Z</time></trkpt><trkpt lat="42.1097083" lon="12.9069467"><ele>769.0</ele><time>2026-04-20T07:28:49.317Z</time></trkpt><trkpt lat="42.1098417" lon="12.9071367"><ele>769.6666666666666</ele><time>2026-04-20T07:28:50.318Z</time></trkpt><trkpt lat="42.1099633" lon="12.9073283"><ele>770.3333333333333</ele><time>2026-04-20T07:28:51.318Z</time></trkpt><trkpt lat="42.1100683" lon="12.907505"><ele>771.0</ele><time>2026-04-20T07:28:52.316Z</time></trkpt><trkpt lat="42.1101567" lon="12.907635"><ele>771.0</ele><time>2026-04-20T07:28:53.317Z</time></trkpt><trkpt lat="42.1102533" lon="12.9077283"><ele>771.0</ele><time>2026-04-20T07:28:54.317Z</time></trkpt><trkpt lat="42.11037" lon="12.9077983"><ele>771.0</ele><time>2026-04-20T07:28:55.317Z</time></trkpt><trkpt lat="42.1104967" lon="12.9078617"><ele>771.0</ele><time>2026-04-20T07:28:56.319Z</time></trkpt><trkpt lat="42.1106267" lon="12.907945"><ele>763.3333333333334</ele><time>2026-04-20T07:28:57.319Z</time></trkpt><trkpt lat="42.1107583" lon="12.9080717"><ele>755.6666666666667</ele><time>2026-04-20T07:28:58.317Z</time></trkpt><trkpt lat="42.1108967" lon="12.9082117"><ele>748.0</ele><time>2026-04-20T07:28:59.318Z</time></trkpt><trkpt lat="42.1110267" lon="12.9083417"><ele>754.5</ele><time>2026-04-20T07:29:00.319Z</time></trkpt><trkpt lat="42.1111467" lon="12.9084567"><ele>761.0</ele><time>2026-04-20T07:29:01.317Z</time></trkpt><trkpt lat="42.1112567" lon="12.9085683"><ele>767.5</ele><time>2026-04-20T07:29:02.318Z</time></trkpt><trkpt lat="42.1113567" lon="12.9086667"><ele>774.0</ele><time>2026-04-20T07:29:03.317Z</time></trkpt><trkpt lat="42.1114383" lon="12.9087483"><ele>774.0</ele><time>2026-04-20T07:29:04.318Z</time></trkpt><trkpt lat="42.1115" lon="12.90881"><ele>774.0</ele><time>2026-04-20T07:29:05.317Z</time></trkpt><trkpt lat="42.1115783" lon="12.9088817"><ele>774.0</ele><time>2026-04-20T07:29:07.318Z</time></trkpt><trkpt lat="42.1116617" lon="12.9089167"><ele>774.0</ele><time>2026-04-20T07:29:23.317Z</time></trkpt><trkpt lat="42.1117317" lon="12.9089533"><ele>774.0</ele><time>2026-04-20T07:29:24.318Z</time></trkpt><trkpt lat="42.1118067" lon="12.9090017"><ele>774.0</ele><time>2026-04-20T07:29:25.318Z</time></trkpt><trkpt lat="42.111885" lon="12.90907"><ele>773.75</ele><time>2026-04-20T07:29:26.317Z</time></trkpt><trkpt lat="42.111955" lon="12.9091617"><ele>773.5</ele><time>2026-04-20T07:29:27.318Z</time></trkpt><trkpt lat="42.112025" lon="12.9092767"><ele>773.25</ele><time>2026-04-20T07:29:28.32Z</time></trkpt><trkpt lat="42.1120967" lon="12.90941"><ele>773.0</ele><time>2026-04-20T07:29:29.32Z</time></trkpt><trkpt lat="42.112165" lon="12.9095583"><ele>773.0</ele><time>2026-04-20T07:29:30.32Z</time></trkpt><trkpt lat="42.11223" lon="12.9097183"><ele>773.0</ele><time>2026-04-20T07:29:31.319Z</time></trkpt><trkpt lat="42.1122733" lon="12.9098767"><ele>773.0</ele><time>2026-04-20T07:29:32.32Z</time></trkpt><trkpt lat="42.1122967" lon="12.9100233"><ele>773.0</ele><time>2026-04-20T07:29:33.321Z</time></trkpt><trkpt lat="42.1123217" lon="12.9101617"><ele>771.8</ele><time>2026-04-20T07:29:34.317Z</time></trkpt><trkpt lat="42.1123483" lon="12.9102967"><ele>770.5999999999999</ele><time>2026-04-20T07:29:35.319Z</time></trkpt><trkpt lat="42.112395" lon="12.9103983"><ele>769.4000000000001</ele><time>2026-04-20T07:29:36.319Z</time></trkpt><trkpt lat="42.1124767" lon="12.9104633"><ele>768.2</ele><time>2026-04-20T07:29:37.317Z</time></trkpt><trkpt lat="42.1125583" lon="12.9105333"><ele>767.0</ele><time>2026-04-20T07:29:38.317Z</time></trkpt><trkpt lat="42.1126833" lon="12.9105167"><ele>767.0</ele><time>2026-04-20T07:29:39.322Z</time></trkpt><trkpt lat="42.1128033" lon="12.910525"><ele>767.0</ele><time>2026-04-20T07:29:40.316Z</time></trkpt><trkpt lat="42.1128933" lon="12.910585"><ele>767.0</ele><time>2026-04-20T07:29:41.316Z</time></trkpt><trkpt lat="42.112965" lon="12.91066"><ele>767.0</ele><time>2026-04-20T07:29:42.317Z</time></trkpt><trkpt lat="42.1130067" lon="12.9107517"><ele>767.0</ele><time>2026-04-20T07:29:43.317Z</time></trkpt><trkpt lat="42.11302" lon="12.91087"><ele>769.8</ele><time>2026-04-20T07:29:44.317Z</time></trkpt><trkpt lat="42.11302" lon="12.91099"><ele>772.6</ele><time>2026-04-20T07:29:45.317Z</time></trkpt><trkpt lat="42.1129767" lon="12.911135"><ele>775.4</ele><time>2026-04-20T07:29:46.317Z</time></trkpt><trkpt lat="42.1129333" lon="12.9112983"><ele>778.1999999999999</ele><time>2026-04-20T07:29:47.317Z</time></trkpt><trkpt lat="42.1129183" lon="12.91145"><ele>781.0</ele><time>2026-04-20T07:29:48.318Z</time></trkpt><trkpt lat="42.1129283" lon="12.9116017"><ele>781.0</ele><time>2026-04-20T07:29:49.317Z</time></trkpt><trkpt lat="42.1129667" lon="12.91173"><ele>781.0</ele><time>2026-04-20T07:29:50.318Z</time></trkpt><trkpt lat="42.113025" lon="12.9118333"><ele>781.0</ele><time>2026-04-20T07:29:51.318Z</time></trkpt><trkpt lat="42.1131083" lon="12.91191"><ele>781.0</ele><time>2026-04-20T07:29:52.316Z</time></trkpt><trkpt lat="42.113205" lon="12.9119817"><ele>781.0</ele><time>2026-04-20T07:29:53.318Z</time></trkpt><trkpt lat="42.1133" lon="12.9120583"><ele>782.0</ele><time>2026-04-20T07:29:54.317Z</time></trkpt><trkpt lat="42.113385" lon="12.91217"><ele>783.0</ele><time>2026-04-20T07:29:55.317Z</time></trkpt><trkpt lat="42.11346" lon="12.9123083"><ele>784.0</ele><time>2026-04-20T07:29:56.317Z</time></trkpt><trkpt lat="42.113525" lon="12.9124667"><ele>785.0</ele><time>2026-04-20T07:29:57.317Z</time></trkpt><trkpt lat="42.1135717" lon="12.912645"><ele>785.0</ele><time>2026-04-20T07:29:58.317Z</time></trkpt><trkpt lat="42.1136017" lon="12.9128483"><ele>785.0</ele><time>2026-04-20T07:29:59.316Z</time></trkpt><trkpt lat="42.1136333" lon="12.91305"><ele>785.0</ele><time>2026-04-20T07:30:00.317Z</time></trkpt><trkpt lat="42.1136867" lon="12.913245"><ele>790.0</ele><time>2026-04-20T07:30:01.317Z</time></trkpt><trkpt lat="42.1137517" lon="12.91344"><ele>795.0</ele><time>2026-04-20T07:30:02.316Z</time></trkpt><trkpt lat="42.113805" lon="12.9136383"><ele>800.0</ele><time>2026-04-20T07:30:03.317Z</time></trkpt><trkpt lat="42.1138433" lon="12.91384"><ele>800.0</ele><time>2026-04-20T07:30:04.317Z</time></trkpt><trkpt lat="42.1138617" lon="12.9140567"><ele>800.0</ele><time>2026-04-20T07:30:05.318Z</time></trkpt><trkpt lat="42.1138817" lon="12.91426"><ele>800.0</ele><time>2026-04-20T07:30:06.319Z</time></trkpt><trkpt lat="42.113895" lon="12.9144333"><ele>800.0</ele><time>2026-04-20T07:30:07.316Z</time></trkpt><trkpt lat="42.1139117" lon="12.914565"><ele>801.6666666666667</ele><time>2026-04-20T07:30:08.316Z</time></trkpt><trkpt lat="42.1139417" lon="12.9146633"><ele>803.3333333333334</ele><time>2026-04-20T07:30:09.318Z</time></trkpt><trkpt lat="42.113985" lon="12.9147433"><ele>805.0</ele><time>2026-04-20T07:30:10.317Z</time></trkpt><trkpt lat="42.114035" lon="12.9148"><ele>806.6666666666667</ele><time>2026-04-20T07:30:11.317Z</time></trkpt><trkpt lat="42.1141017" lon="12.9148017"><ele>808.3333333333334</ele><time>2026-04-20T07:30:12.32Z</time></trkpt><trkpt lat="42.114215" lon="12.914705"><ele>810.0</ele><time>2026-04-20T07:30:14.321Z</time></trkpt><trkpt lat="42.1142817" lon="12.9146"><ele>802.0</ele><time>2026-04-20T07:30:16.317Z</time></trkpt><trkpt lat="42.1143133" lon="12.91451"><ele>794.0</ele><time>2026-04-20T07:30:18.319Z</time></trkpt><trkpt lat="42.11436" lon="12.9144233"><ele>786.0</ele><time>2026-04-20T07:30:21.316Z</time></trkpt><trkpt lat="42.11467" lon="12.914335"><ele>786.0</ele><time>2026-04-20T07:30:44.633Z</time></trkpt><trkpt lat="42.1144767" lon="12.914425"><ele>786.0</ele><time>2026-04-20T07:30:46.32Z</time></trkpt><trkpt lat="42.1144667" lon="12.91433"><ele>786.0</ele><time>2026-04-20T07:30:48.316Z</time></trkpt><trkpt lat="42.114495" lon="12.9142517"><ele>786.0</ele><time>2026-04-20T07:30:49.317Z</time></trkpt><trkpt lat="42.11453" lon="12.914165"><ele>786.0</ele><time>2026-04-20T07:30:50.317Z</time></trkpt><trkpt lat="42.1145633" lon="12.9140733"><ele>783.1666666666666</ele><time>2026-04-20T07:30:51.316Z</time></trkpt><trkpt lat="42.11461" lon="12.913975"><ele>780.3333333333333</ele><time>2026-04-20T07:30:52.317Z</time></trkpt><trkpt lat="42.11466" lon="12.9138783"><ele>777.5</ele><time>2026-04-20T07:30:53.316Z</time></trkpt><trkpt lat="42.1147133" lon="12.91378"><ele>774.6666666666666</ele><time>2026-04-20T07:30:54.316Z</time></trkpt><trkpt lat="42.1147683" lon="12.91368"><ele>771.8333333333333</ele><time>2026-04-20T07:30:55.317Z</time></trkpt><trkpt lat="42.1148233" lon="12.913585"><ele>769.0</ele><time>2026-04-20T07:30:56.318Z</time></trkpt><trkpt lat="42.1148767" lon="12.9134967"><ele>769.3333333333333</ele><time>2026-04-20T07:30:57.317Z</time></trkpt><trkpt lat="42.11493" lon="12.9134133"><ele>769.6666666666666</ele><time>2026-04-20T07:30:58.316Z</time></trkpt><trkpt lat="42.1149867" lon="12.91334"><ele>770.0</ele><time>2026-04-20T07:30:59.316Z</time></trkpt><trkpt lat="42.1150383" lon="12.9132717"><ele>770.3333333333333</ele><time>2026-04-20T07:31:00.317Z</time></trkpt><trkpt lat="42.1150967" lon="12.913215"><ele>770.6666666666666</ele><time>2026-04-20T07:31:01.316Z</time></trkpt><trkpt lat="42.115195" lon="12.91312"><ele>771.0</ele><time>2026-04-20T07:31:03.317Z</time></trkpt><trkpt lat="42.11529" lon="12.9130183"><ele>771.0</ele><time>2026-04-20T07:31:05.316Z</time></trkpt><trkpt lat="42.115395" lon="12.9129417"><ele>771.0</ele><time>2026-04-20T07:31:07.315Z</time></trkpt><trkpt lat="42.1154617" lon="12.9129267"><ele>771.0</ele><time>2026-04-20T07:31:08.317Z</time></trkpt><trkpt lat="42.1155317" lon="12.9129333"><ele>771.0</ele><time>2026-04-20T07:31:09.317Z</time></trkpt><trkpt lat="42.1156067" lon="12.9129633"><ele>771.0</ele><time>2026-04-20T07:31:10.317Z</time></trkpt><trkpt lat="42.1156867" lon="12.91301"><ele>771.0</ele><time>2026-04-20T07:31:11.317Z</time></trkpt><trkpt lat="42.11577" lon="12.9130633"><ele>773.5999999999999</ele><time>2026-04-20T07:31:12.316Z</time></trkpt><trkpt lat="42.1158633" lon="12.9131217"><ele>776.2</ele><time>2026-04-20T07:31:13.316Z</time></trkpt><trkpt lat="42.1159617" lon="12.9131767"><ele>778.8</ele><time>2026-04-20T07:31:14.316Z</time></trkpt><trkpt lat="42.116065" lon="12.913235"><ele>781.4000000000001</ele><time>2026-04-20T07:31:15.316Z</time></trkpt><trkpt lat="42.1161733" lon="12.9132983"><ele>784.0</ele><time>2026-04-20T07:31:16.316Z</time></trkpt><trkpt lat="42.11628" lon="12.9133783"><ele>784.5</ele><time>2026-04-20T07:31:17.317Z</time></trkpt><trkpt lat="42.116385" lon="12.9134833"><ele>785.0</ele><time>2026-04-20T07:31:18.317Z</time></trkpt><trkpt lat="42.1164817" lon="12.91362"><ele>785.5</ele><time>2026-04-20T07:31:19.315Z</time></trkpt><trkpt lat="42.1165783" lon="12.913765"><ele>786.0</ele><time>2026-04-20T07:31:20.317Z</time></trkpt><trkpt lat="42.1166717" lon="12.913935"><ele>786.0</ele><time>2026-04-20T07:31:21.317Z</time></trkpt><trkpt lat="42.1167517" lon="12.9141217"><ele>786.0</ele><time>2026-04-20T07:31:22.316Z</time></trkpt><trkpt lat="42.1168267" lon="12.91433"><ele>786.0</ele><time>2026-04-20T07:31:23.317Z</time></trkpt><trkpt lat="42.1168967" lon="12.914545"><ele>790.6666666666667</ele><time>2026-04-20T07:31:24.316Z</time></trkpt><trkpt lat="42.1169633" lon="12.9147517"><ele>795.3333333333334</ele><time>2026-04-20T07:31:25.317Z</time></trkpt><trkpt lat="42.1170317" lon="12.9149567"><ele>800.0</ele><time>2026-04-20T07:31:26.317Z</time></trkpt><trkpt lat="42.117095" lon="12.9151533"><ele>804.0</ele><time>2026-04-20T07:31:27.318Z</time></trkpt><trkpt lat="42.1171583" lon="12.91533"><ele>808.0</ele><time>2026-04-20T07:31:28.316Z</time></trkpt><trkpt lat="42.117215" lon="12.9155067"><ele>812.0</ele><time>2026-04-20T07:31:29.315Z</time></trkpt><trkpt lat="42.117275" lon="12.915675"><ele>816.0</ele><time>2026-04-20T07:31:30.317Z</time></trkpt><trkpt lat="42.1173367" lon="12.9158367"><ele>818.75</ele><time>2026-04-20T07:31:31.317Z</time></trkpt><trkpt lat="42.1173933" lon="12.9159983"><ele>821.5</ele><time>2026-04-20T07:31:32.317Z</time></trkpt><trkpt lat="42.117455" lon="12.916155"><ele>824.25</ele><time>2026-04-20T07:31:33.318Z</time></trkpt><trkpt lat="42.117515" lon="12.916315"><ele>827.0</ele><time>2026-04-20T07:31:34.316Z</time></trkpt><trkpt lat="42.11758" lon="12.9164683"><ele>823.75</ele><time>2026-04-20T07:31:35.318Z</time></trkpt><trkpt lat="42.1176467" lon="12.9166217"><ele>820.5</ele><time>2026-04-20T07:31:36.317Z</time></trkpt><trkpt lat="42.117715" lon="12.9167767"><ele>817.25</ele><time>2026-04-20T07:31:37.316Z</time></trkpt><trkpt lat="42.117785" lon="12.9169367"><ele>814.0</ele><time>2026-04-20T07:31:38.317Z</time></trkpt><trkpt lat="42.1178533" lon="12.9170983"><ele>814.0</ele><time>2026-04-20T07:31:39.317Z</time></trkpt><trkpt lat="42.1179183" lon="12.917265"><ele>814.0</ele><time>2026-04-20T07:31:40.315Z</time></trkpt><trkpt lat="42.1179833" lon="12.9174333"><ele>814.0</ele><time>2026-04-20T07:31:41.316Z</time></trkpt><trkpt lat="42.1180517" lon="12.9176"><ele>814.0</ele><time>2026-04-20T07:31:42.316Z</time></trkpt><trkpt lat="42.1181183" lon="12.9177567"><ele>813.4000000000001</ele><time>2026-04-20T07:31:43.317Z</time></trkpt><trkpt lat="42.11819" lon="12.917885"><ele>812.8</ele><time>2026-04-20T07:31:44.316Z</time></trkpt><trkpt lat="42.1182717" lon="12.9179733"><ele>812.2</ele><time>2026-04-20T07:31:45.316Z</time></trkpt><trkpt lat="42.1183567" lon="12.9180217"><ele>811.5999999999999</ele><time>2026-04-20T07:31:46.315Z</time></trkpt><trkpt lat="42.118445" lon="12.9180367"><ele>811.0</ele><time>2026-04-20T07:31:47.317Z</time></trkpt><trkpt lat="42.1185467" lon="12.9180117"><ele>811.0</ele><time>2026-04-20T07:31:48.319Z</time></trkpt><trkpt lat="42.1186433" lon="12.9179767"><ele>811.0</ele><time>2026-04-20T07:31:49.319Z</time></trkpt><trkpt lat="42.1187267" lon="12.917915"><ele>811.0</ele><time>2026-04-20T07:31:50.318Z</time></trkpt><trkpt lat="42.1187867" lon="12.9178417"><ele>811.0</ele><time>2026-04-20T07:31:51.318Z</time></trkpt><trkpt lat="42.1188267" lon="12.91774"><ele>811.0</ele><time>2026-04-20T07:31:52.318Z</time></trkpt><trkpt lat="42.11885" lon="12.9175933"><ele>807.5</ele><time>2026-04-20T07:31:53.319Z</time></trkpt><trkpt lat="42.118865" lon="12.91739"><ele>804.0</ele><time>2026-04-20T07:31:54.318Z</time></trkpt><trkpt lat="42.1188817" lon="12.9171967"><ele>800.5</ele><time>2026-04-20T07:31:55.315Z</time></trkpt><trkpt lat="42.1188983" lon="12.9170167"><ele>797.0</ele><time>2026-04-20T07:31:56.319Z</time></trkpt><trkpt lat="42.1189367" lon="12.9168633"><ele>795.0</ele><time>2026-04-20T07:31:57.319Z</time></trkpt><trkpt lat="42.1190033" lon="12.9167217"><ele>793.0</ele><time>2026-04-20T07:31:58.319Z</time></trkpt><trkpt lat="42.1190883" lon="12.9166083"><ele>791.0</ele><time>2026-04-20T07:31:59.317Z</time></trkpt><trkpt lat="42.1191883" lon="12.91654"><ele>789.0</ele><time>2026-04-20T07:32:00.316Z</time></trkpt><trkpt lat="42.1193017" lon="12.9165133"><ele>793.5</ele><time>2026-04-20T07:32:01.315Z</time></trkpt><trkpt lat="42.11943" lon="12.9165367"><ele>798.0</ele><time>2026-04-20T07:32:02.316Z</time></trkpt><trkpt lat="42.119575" lon="12.9165767"><ele>802.5</ele><time>2026-04-20T07:32:03.317Z</time></trkpt><trkpt lat="42.1197317" lon="12.916615"><ele>807.0</ele><time>2026-04-20T07:32:04.315Z</time></trkpt><trkpt lat="42.1198867" lon="12.9166483"><ele>808.3333333333333</ele><time>2026-04-20T07:32:05.316Z</time></trkpt><trkpt lat="42.120035" lon="12.9166833"><ele>809.6666666666666</ele><time>2026-04-20T07:32:06.316Z</time></trkpt><trkpt lat="42.120185" lon="12.91673"><ele>811.0</ele><time>2026-04-20T07:32:07.316Z</time></trkpt><trkpt lat="42.1203283" lon="12.9167967"><ele>813.5</ele><time>2026-04-20T07:32:08.316Z</time></trkpt><trkpt lat="42.12046" lon="12.916895"><ele>816.0</ele><time>2026-04-20T07:32:09.317Z</time></trkpt><trkpt lat="42.1205817" lon="12.917015"><ele>818.5</ele><time>2026-04-20T07:32:10.316Z</time></trkpt><trkpt lat="42.1207" lon="12.9171333"><ele>821.0</ele><time>2026-04-20T07:32:11.317Z</time></trkpt><trkpt lat="42.1208183" lon="12.9172367"><ele>821.0</ele><time>2026-04-20T07:32:12.32Z</time></trkpt><trkpt lat="42.1210117" lon="12.91724"><ele>821.0</ele><time>2026-04-20T07:32:13.421Z</time></trkpt><trkpt lat="42.1211783" lon="12.9172317"><ele>821.0</ele><time>2026-04-20T07:32:14.817Z</time></trkpt><trkpt lat="42.121375" lon="12.91724"><ele>821.0</ele><time>2026-04-20T07:32:16.317Z</time></trkpt><trkpt lat="42.1215133" lon="12.9172267"><ele>821.0</ele><time>2026-04-20T07:32:17.316Z</time></trkpt><trkpt lat="42.1216567" lon="12.9172"><ele>821.0</ele><time>2026-04-20T07:32:18.318Z</time></trkpt><trkpt lat="42.1217933" lon="12.91718"><ele>821.0</ele><time>2026-04-20T07:32:19.315Z</time></trkpt><trkpt lat="42.1219217" lon="12.9171817"><ele>821.75</ele><time>2026-04-20T07:32:20.316Z</time></trkpt><trkpt lat="42.122035" lon="12.91721"><ele>822.5</ele><time>2026-04-20T07:32:21.318Z</time></trkpt><trkpt lat="42.1221417" lon="12.917265"><ele>823.25</ele><time>2026-04-20T07:32:22.317Z</time></trkpt><trkpt lat="42.122245" lon="12.917335"><ele>824.0</ele><time>2026-04-20T07:32:23.317Z</time></trkpt><trkpt lat="42.1222933" lon="12.917475"><ele>825.5</ele><time>2026-04-20T07:32:24.317Z</time></trkpt><trkpt lat="42.1223117" lon="12.9176317"><ele>827.0</ele><time>2026-04-20T07:32:25.316Z</time></trkpt><trkpt lat="42.1223" lon="12.9177967"><ele>828.5</ele><time>2026-04-20T07:32:26.316Z</time></trkpt><trkpt lat="42.1222617" lon="12.9179633"><ele>830.0</ele><time>2026-04-20T07:32:27.317Z</time></trkpt><trkpt lat="42.1222017" lon="12.9181467"><ele>830.0</ele><time>2026-04-20T07:32:28.317Z</time></trkpt><trkpt lat="42.1221283" lon="12.9183417"><ele>830.0</ele><time>2026-04-20T07:32:29.317Z</time></trkpt><trkpt lat="42.1220483" lon="12.9185417"><ele>830.0</ele><time>2026-04-20T07:32:30.316Z</time></trkpt><trkpt lat="42.12197" lon="12.9187383"><ele>829.6666666666667</ele><time>2026-04-20T07:32:31.316Z</time></trkpt><trkpt lat="42.1218917" lon="12.918935"><ele>829.3333333333333</ele><time>2026-04-20T07:32:32.316Z</time></trkpt><trkpt lat="42.1218117" lon="12.919135"><ele>829.0</ele><time>2026-04-20T07:32:33.317Z</time></trkpt><trkpt lat="42.1217317" lon="12.9193367"><ele>827.0</ele><time>2026-04-20T07:32:34.315Z</time></trkpt><trkpt lat="42.1216533" lon="12.91953"><ele>825.0</ele><time>2026-04-20T07:32:35.316Z</time></trkpt><trkpt lat="42.1215667" lon="12.9197083"><ele>823.0</ele><time>2026-04-20T07:32:36.316Z</time></trkpt><trkpt lat="42.12147" lon="12.91986"><ele>828.5</ele><time>2026-04-20T07:32:37.316Z</time></trkpt><trkpt lat="42.121375" lon="12.91999"><ele>834.0</ele><time>2026-04-20T07:32:38.317Z</time></trkpt><trkpt lat="42.12129" lon="12.92011"><ele>839.5</ele><time>2026-04-20T07:32:39.316Z</time></trkpt><trkpt lat="42.1212383" lon="12.9202383"><ele>845.0</ele><time>2026-04-20T07:32:40.317Z</time></trkpt><trkpt lat="42.1212267" lon="12.920375"><ele>846.0</ele><time>2026-04-20T07:32:41.317Z</time></trkpt><trkpt lat="42.1212517" lon="12.9205167"><ele>847.0</ele><time>2026-04-20T07:32:42.316Z</time></trkpt><trkpt lat="42.1213067" lon="12.9206517"><ele>848.0</ele><time>2026-04-20T07:32:43.315Z</time></trkpt><trkpt lat="42.1213833" lon="12.92079"><ele>849.0</ele><time>2026-04-20T07:32:44.316Z</time></trkpt><trkpt lat="42.1214717" lon="12.92094"><ele>845.0</ele><time>2026-04-20T07:32:45.316Z</time></trkpt><trkpt lat="42.12157" lon="12.9210983"><ele>841.0</ele><time>2026-04-20T07:32:46.316Z</time></trkpt><trkpt lat="42.1216617" lon="12.9212583"><ele>837.0</ele><time>2026-04-20T07:32:47.316Z</time></trkpt><trkpt lat="42.1217317" lon="12.9214167"><ele>833.0</ele><time>2026-04-20T07:32:48.316Z</time></trkpt><trkpt lat="42.121775" lon="12.92158"><ele>833.0</ele><time>2026-04-20T07:32:49.316Z</time></trkpt><trkpt lat="42.1217867" lon="12.9217533"><ele>833.0</ele><time>2026-04-20T07:32:50.316Z</time></trkpt><trkpt lat="42.121775" lon="12.921945"><ele>833.0</ele><time>2026-04-20T07:32:51.317Z</time></trkpt><trkpt lat="42.1217483" lon="12.92215"><ele>833.0</ele><time>2026-04-20T07:32:52.316Z</time></trkpt><trkpt lat="42.121715" lon="12.9223633"><ele>833.0</ele><time>2026-04-20T07:32:53.317Z</time></trkpt><trkpt lat="42.1216817" lon="12.9225633"><ele>833.0</ele><time>2026-04-20T07:32:54.315Z</time></trkpt><trkpt lat="42.1216383" lon="12.9227467"><ele>833.0</ele><time>2026-04-20T07:32:55.318Z</time></trkpt><trkpt lat="42.12157" lon="12.9229133"><ele>833.0</ele><time>2026-04-20T07:32:56.316Z</time></trkpt><trkpt lat="42.1214833" lon="12.923075"><ele>839.0</ele><time>2026-04-20T07:32:57.317Z</time></trkpt><trkpt lat="42.1213983" lon="12.9232233"><ele>845.0</ele><time>2026-04-20T07:32:58.316Z</time></trkpt><trkpt lat="42.1213383" lon="12.92337"><ele>851.0</ele><time>2026-04-20T07:32:59.315Z</time></trkpt><trkpt lat="42.1213017" lon="12.9235233"><ele>857.0</ele><time>2026-04-20T07:33:00.317Z</time></trkpt><trkpt lat="42.1213" lon="12.9236683"><ele>858.0</ele><time>2026-04-20T07:33:01.316Z</time></trkpt><trkpt lat="42.12133" lon="12.923805"><ele>859.0</ele><time>2026-04-20T07:33:02.316Z</time></trkpt><trkpt lat="42.12139" lon="12.9239233"><ele>860.0</ele><time>2026-04-20T07:33:03.316Z</time></trkpt><trkpt lat="42.1214683" lon="12.9240233"><ele>861.0</ele><time>2026-04-20T07:33:04.316Z</time></trkpt><trkpt lat="42.1215733" lon="12.924095"><ele>862.0</ele><time>2026-04-20T07:33:05.315Z</time></trkpt><trkpt lat="42.1216933" lon="12.92415"><ele>860.75</ele><time>2026-04-20T07:33:06.315Z</time></trkpt><trkpt lat="42.121825" lon="12.924205"><ele>859.5</ele><time>2026-04-20T07:33:07.315Z</time></trkpt><trkpt lat="42.1219533" lon="12.9242717"><ele>858.25</ele><time>2026-04-20T07:33:08.317Z</time></trkpt><trkpt lat="42.12206" lon="12.924345"><ele>857.0</ele><time>2026-04-20T07:33:09.316Z</time></trkpt><trkpt lat="42.1221433" lon="12.92444"><ele>857.0</ele><time>2026-04-20T07:33:10.316Z</time></trkpt><trkpt lat="42.1221917" lon="12.924565"><ele>857.0</ele><time>2026-04-20T07:33:11.316Z</time></trkpt><trkpt lat="42.1222067" lon="12.9247117"><ele>857.0</ele><time>2026-04-20T07:33:12.317Z</time></trkpt><trkpt lat="42.122205" lon="12.9248767"><ele>857.0</ele><time>2026-04-20T07:33:13.316Z</time></trkpt><trkpt lat="42.12221" lon="12.9250367"><ele>856.0</ele><time>2026-04-20T07:33:14.317Z</time></trkpt><trkpt lat="42.1222367" lon="12.92518"><ele>855.0</ele><time>2026-04-20T07:33:15.316Z</time></trkpt><trkpt lat="42.122295" lon="12.9253083"><ele>854.0</ele><time>2026-04-20T07:33:16.319Z</time></trkpt><trkpt lat="42.1223717" lon="12.9254083"><ele>853.0</ele><time>2026-04-20T07:33:17.319Z</time></trkpt><trkpt lat="42.1224733" lon="12.9254817"><ele>852.0</ele><time>2026-04-20T07:33:18.319Z</time></trkpt><trkpt lat="42.1225983" lon="12.9255133"><ele>852.0</ele><time>2026-04-20T07:33:19.318Z</time></trkpt><trkpt lat="42.122735" lon="12.9255417"><ele>852.0</ele><time>2026-04-20T07:33:20.318Z</time></trkpt><trkpt lat="42.12288" lon="12.9255633"><ele>852.0</ele><time>2026-04-20T07:33:21.318Z</time></trkpt><trkpt lat="42.123015" lon="12.925595"><ele>852.0</ele><time>2026-04-20T07:33:22.319Z</time></trkpt><trkpt lat="42.1231183" lon="12.9256483"><ele>852.0</ele><time>2026-04-20T07:33:23.319Z</time></trkpt><trkpt lat="42.1231917" lon="12.9257283"><ele>852.0</ele><time>2026-04-20T07:33:24.318Z</time></trkpt><trkpt lat="42.1232417" lon="12.9258333"><ele>852.0</ele><time>2026-04-20T07:33:25.319Z</time></trkpt><trkpt lat="42.1232733" lon="12.925945"><ele>852.0</ele><time>2026-04-20T07:33:26.318Z</time></trkpt><trkpt lat="42.12328" lon="12.9260617"><ele>852.0</ele><time>2026-04-20T07:33:27.32Z</time></trkpt><trkpt lat="42.1232583" lon="12.9261833"><ele>851.0</ele><time>2026-04-20T07:33:28.318Z</time></trkpt><trkpt lat="42.1232117" lon="12.9263017"><ele>850.0</ele><time>2026-04-20T07:33:29.317Z</time></trkpt><trkpt lat="42.1231" lon="12.926405"><ele>849.0</ele><time>2026-04-20T07:33:30.317Z</time></trkpt><trkpt lat="42.1229983" lon="12.9265167"><ele>848.0</ele><time>2026-04-20T07:33:31.317Z</time></trkpt><trkpt lat="42.1228933" lon="12.9266333"><ele>847.5</ele><time>2026-04-20T07:33:32.317Z</time></trkpt><trkpt lat="42.12279" lon="12.9267517"><ele>847.0</ele><time>2026-04-20T07:33:33.317Z</time></trkpt><trkpt lat="42.1226967" lon="12.9268667"><ele>846.5</ele><time>2026-04-20T07:33:34.316Z</time></trkpt><trkpt lat="42.1226167" lon="12.9269867"><ele>846.0</ele><time>2026-04-20T07:33:35.316Z</time></trkpt><trkpt lat="42.1225667" lon="12.9271183"><ele>846.0</ele><time>2026-04-20T07:33:36.317Z</time></trkpt><trkpt lat="42.1225483" lon="12.9272567"><ele>846.0</ele><time>2026-04-20T07:33:37.315Z</time></trkpt><trkpt lat="42.1225633" lon="12.927395"><ele>846.0</ele><time>2026-04-20T07:33:38.316Z</time></trkpt><trkpt lat="42.12261" lon="12.9275167"><ele>846.0</ele><time>2026-04-20T07:33:39.317Z</time></trkpt><trkpt lat="42.1226883" lon="12.927615"><ele>846.0</ele><time>2026-04-20T07:33:40.315Z</time></trkpt><trkpt lat="42.12279" lon="12.9276883"><ele>844.75</ele><time>2026-04-20T07:33:41.316Z</time></trkpt><trkpt lat="42.122905" lon="12.9277467"><ele>843.5</ele><time>2026-04-20T07:33:42.319Z</time></trkpt><trkpt lat="42.1230333" lon="12.9278033"><ele>842.25</ele><time>2026-04-20T07:33:43.318Z</time></trkpt><trkpt lat="42.1231733" lon="12.927875"><ele>841.0</ele><time>2026-04-20T07:33:44.316Z</time></trkpt><trkpt lat="42.1233183" lon="12.9279517"><ele>841.0</ele><time>2026-04-20T07:33:45.316Z</time></trkpt><trkpt lat="42.1234633" lon="12.9280317"><ele>841.0</ele><time>2026-04-20T07:33:46.316Z</time></trkpt><trkpt lat="42.1236117" lon="12.928105"><ele>841.0</ele><time>2026-04-20T07:33:47.317Z</time></trkpt><trkpt lat="42.1237683" lon="12.9281767"><ele>841.0</ele><time>2026-04-20T07:33:48.316Z</time></trkpt><trkpt lat="42.12393" lon="12.92826"><ele>841.0</ele><time>2026-04-20T07:33:49.317Z</time></trkpt><trkpt lat="42.1241" lon="12.928345"><ele>841.0</ele><time>2026-04-20T07:33:50.317Z</time></trkpt><trkpt lat="42.1242733" lon="12.9284183"><ele>835.6666666666666</ele><time>2026-04-20T07:33:51.317Z</time></trkpt><trkpt lat="42.1244417" lon="12.9284867"><ele>830.3333333333333</ele><time>2026-04-20T07:33:52.317Z</time></trkpt><trkpt lat="42.1246" lon="12.928555"><ele>825.0</ele><time>2026-04-20T07:33:53.317Z</time></trkpt><trkpt lat="42.1247533" lon="12.928625"><ele>825.0</ele><time>2026-04-20T07:33:54.317Z</time></trkpt><trkpt lat="42.1249033" lon="12.9286933"><ele>825.0</ele><time>2026-04-20T07:33:55.317Z</time></trkpt><trkpt lat="42.12506" lon="12.9287517"><ele>825.0</ele><time>2026-04-20T07:33:56.316Z</time></trkpt><trkpt lat="42.1252233" lon="12.9287933"><ele>825.0</ele><time>2026-04-20T07:33:57.316Z</time></trkpt><trkpt lat="42.1253883" lon="12.928825"><ele>825.0</ele><time>2026-04-20T07:33:58.316Z</time></trkpt><trkpt lat="42.12554" lon="12.9288617"><ele>825.0</ele><time>2026-04-20T07:33:59.316Z</time></trkpt><trkpt lat="42.1256733" lon="12.9289183"><ele>826.5</ele><time>2026-04-20T07:34:00.315Z</time></trkpt><trkpt lat="42.125785" lon="12.9290033"><ele>828.0</ele><time>2026-04-20T07:34:01.317Z</time></trkpt><trkpt lat="42.1258767" lon="12.9291267"><ele>829.5</ele><time>2026-04-20T07:34:02.316Z</time></trkpt><trkpt lat="42.12595" lon="12.9292733"><ele>831.0</ele><time>2026-04-20T07:34:03.317Z</time></trkpt><trkpt lat="42.1260167" lon="12.9294217"><ele>827.5</ele><time>2026-04-20T07:34:04.317Z</time></trkpt><trkpt lat="42.1260817" lon="12.9295517"><ele>824.0</ele><time>2026-04-20T07:34:05.317Z</time></trkpt><trkpt lat="42.126165" lon="12.9296583"><ele>820.5</ele><time>2026-04-20T07:34:06.317Z</time></trkpt><trkpt lat="42.1262667" lon="12.92975"><ele>817.0</ele><time>2026-04-20T07:34:07.317Z</time></trkpt><trkpt lat="42.12639" lon="12.929815"><ele>817.0</ele><time>2026-04-20T07:34:08.316Z</time></trkpt><trkpt lat="42.126525" lon="12.92986"><ele>817.0</ele><time>2026-04-20T07:34:09.318Z</time></trkpt><trkpt lat="42.1266633" lon="12.9298983"><ele>817.0</ele><time>2026-04-20T07:34:10.318Z</time></trkpt><trkpt lat="42.12679" lon="12.9299467"><ele>817.0</ele><time>2026-04-20T07:34:11.319Z</time></trkpt><trkpt lat="42.1268917" lon="12.93002"><ele>817.2</ele><time>2026-04-20T07:34:12.318Z</time></trkpt><trkpt lat="42.1269683" lon="12.9301267"><ele>817.4000000000001</ele><time>2026-04-20T07:34:13.318Z</time></trkpt><trkpt lat="42.1270217" lon="12.93025"><ele>817.5999999999999</ele><time>2026-04-20T07:34:14.321Z</time></trkpt><trkpt lat="42.12704" lon="12.9303717"><ele>817.8</ele><time>2026-04-20T07:34:15.319Z</time></trkpt><trkpt lat="42.1270133" lon="12.93053"><ele>818.0</ele><time>2026-04-20T07:34:16.319Z</time></trkpt><trkpt lat="42.1269683" lon="12.930695"><ele>818.0</ele><time>2026-04-20T07:34:17.319Z</time></trkpt><trkpt lat="42.126925" lon="12.93088"><ele>818.0</ele><time>2026-04-20T07:34:18.318Z</time></trkpt><trkpt lat="42.1268767" lon="12.93107"><ele>818.0</ele><time>2026-04-20T07:34:19.319Z</time></trkpt><trkpt lat="42.1268267" lon="12.9312583"><ele>818.0</ele><time>2026-04-20T07:34:20.319Z</time></trkpt><trkpt lat="42.1267833" lon="12.93144"><ele>818.75</ele><time>2026-04-20T07:34:21.319Z</time></trkpt><trkpt lat="42.1267433" lon="12.931615"><ele>819.5</ele><time>2026-04-20T07:34:22.319Z</time></trkpt><trkpt lat="42.1267117" lon="12.9317867"><ele>820.25</ele><time>2026-04-20T07:34:23.325Z</time></trkpt><trkpt lat="42.1267" lon="12.9319567"><ele>821.0</ele><time>2026-04-20T07:34:24.318Z</time></trkpt><trkpt lat="42.12671" lon="12.93214"><ele>820.75</ele><time>2026-04-20T07:34:25.319Z</time></trkpt><trkpt lat="42.1267167" lon="12.9323317"><ele>820.5</ele><time>2026-04-20T07:34:26.317Z</time></trkpt><trkpt lat="42.126695" lon="12.9325217"><ele>820.25</ele><time>2026-04-20T07:34:27.318Z</time></trkpt><trkpt lat="42.1266633" lon="12.9326983"><ele>820.0</ele><time>2026-04-20T07:34:28.317Z</time></trkpt><trkpt lat="42.1266317" lon="12.9328583"><ele>820.0</ele><time>2026-04-20T07:34:29.318Z</time></trkpt><trkpt lat="42.1266317" lon="12.9330033"><ele>820.0</ele><time>2026-04-20T07:34:30.32Z</time></trkpt><trkpt lat="42.1266533" lon="12.933125"><ele>820.0</ele><time>2026-04-20T07:34:31.317Z</time></trkpt><trkpt lat="42.1267133" lon="12.93323"><ele>820.0</ele><time>2026-04-20T07:34:32.317Z</time></trkpt><trkpt lat="42.1267983" lon="12.9333233"><ele>820.0</ele><time>2026-04-20T07:34:33.318Z</time></trkpt><trkpt lat="42.126895" lon="12.93342"><ele>817.0</ele><time>2026-04-20T07:34:34.315Z</time></trkpt><trkpt lat="42.1269817" lon="12.93354"><ele>814.0</ele><time>2026-04-20T07:34:35.318Z</time></trkpt><trkpt lat="42.1270383" lon="12.9336867"><ele>811.0</ele><time>2026-04-20T07:34:36.318Z</time></trkpt><trkpt lat="42.1270683" lon="12.9338583"><ele>808.0</ele><time>2026-04-20T07:34:37.317Z</time></trkpt><trkpt lat="42.127075" lon="12.93405"><ele>806.0</ele><time>2026-04-20T07:34:38.317Z</time></trkpt><trkpt lat="42.1270933" lon="12.9342433"><ele>804.0</ele><time>2026-04-20T07:34:39.32Z</time></trkpt><trkpt lat="42.1271267" lon="12.9344233"><ele>802.0</ele><time>2026-04-20T07:34:40.317Z</time></trkpt><trkpt lat="42.1271933" lon="12.9345817"><ele>800.0</ele><time>2026-04-20T07:34:41.318Z</time></trkpt><trkpt lat="42.12728" lon="12.9347117"><ele>800.0</ele><time>2026-04-20T07:34:42.318Z</time></trkpt><trkpt lat="42.1273717" lon="12.9348183"><ele>800.0</ele><time>2026-04-20T07:34:43.319Z</time></trkpt><trkpt lat="42.1274817" lon="12.934875"><ele>800.0</ele><time>2026-04-20T07:34:44.32Z</time></trkpt><trkpt lat="42.1275983" lon="12.934895"><ele>800.0</ele><time>2026-04-20T07:34:45.319Z</time></trkpt><trkpt lat="42.1277317" lon="12.9348917"><ele>803.5</ele><time>2026-04-20T07:34:46.318Z</time></trkpt><trkpt lat="42.127865" lon="12.9348917"><ele>807.0</ele><time>2026-04-20T07:34:47.319Z</time></trkpt><trkpt lat="42.1279983" lon="12.9348967"><ele>810.5</ele><time>2026-04-20T07:34:48.318Z</time></trkpt><trkpt lat="42.1281217" lon="12.934905"><ele>814.0</ele><time>2026-04-20T07:34:49.319Z</time></trkpt><trkpt lat="42.1282517" lon="12.9349167"><ele>815.0</ele><time>2026-04-20T07:34:50.318Z</time></trkpt><trkpt lat="42.1283733" lon="12.93494"><ele>816.0</ele><time>2026-04-20T07:34:51.319Z</time></trkpt><trkpt lat="42.128485" lon="12.9349783"><ele>817.0</ele><time>2026-04-20T07:34:52.319Z</time></trkpt><trkpt lat="42.1285733" lon="12.935045"><ele>818.0</ele><time>2026-04-20T07:34:53.317Z</time></trkpt><trkpt lat="42.1286433" lon="12.93515"><ele>819.0</ele><time>2026-04-20T07:34:54.319Z</time></trkpt><trkpt lat="42.1286833" lon="12.9352883"><ele>815.0</ele><time>2026-04-20T07:34:55.319Z</time></trkpt><trkpt lat="42.128715" lon="12.935445"><ele>811.0</ele><time>2026-04-20T07:34:56.32Z</time></trkpt><trkpt lat="42.128755" lon="12.9356033"><ele>807.0</ele><time>2026-04-20T07:34:57.319Z</time></trkpt><trkpt lat="42.12881" lon="12.9357483"><ele>803.0</ele><time>2026-04-20T07:34:58.316Z</time></trkpt><trkpt lat="42.128865" lon="12.935885"><ele>804.5000000000001</ele><time>2026-04-20T07:34:59.319Z</time></trkpt><trkpt lat="42.1289133" lon="12.9360017"><ele>806.0</ele><time>2026-04-20T07:35:00.318Z</time></trkpt><trkpt lat="42.12896" lon="12.9361"><ele>807.5</ele><time>2026-04-20T07:35:01.318Z</time></trkpt><trkpt lat="42.129" lon="12.9361967"><ele>809.0</ele><time>2026-04-20T07:35:02.318Z</time></trkpt><trkpt lat="42.129045" lon="12.93628"><ele>810.5000000000001</ele><time>2026-04-20T07:35:03.318Z</time></trkpt><trkpt lat="42.1290967" lon="12.9363633"><ele>812.0</ele><time>2026-04-20T07:35:04.317Z</time></trkpt><trkpt lat="42.1291533" lon="12.9364617"><ele>812.0</ele><time>2026-04-20T07:35:05.318Z</time></trkpt><trkpt lat="42.1292167" lon="12.936565"><ele>812.0</ele><time>2026-04-20T07:35:06.317Z</time></trkpt><trkpt lat="42.129285" lon="12.936685"><ele>812.0</ele><time>2026-04-20T07:35:07.318Z</time></trkpt><trkpt lat="42.12936" lon="12.936795"><ele>812.0</ele><time>2026-04-20T07:35:08.318Z</time></trkpt><trkpt lat="42.129445" lon="12.9368983"><ele>812.0</ele><time>2026-04-20T07:35:09.318Z</time></trkpt><trkpt lat="42.129535" lon="12.9369833"><ele>812.4000000000001</ele><time>2026-04-20T07:35:10.317Z</time></trkpt><trkpt lat="42.129625" lon="12.9370583"><ele>812.8000000000001</ele><time>2026-04-20T07:35:11.318Z</time></trkpt><trkpt lat="42.1297167" lon="12.93713"><ele>813.2</ele><time>2026-04-20T07:35:12.317Z</time></trkpt><trkpt lat="42.129805" lon="12.93719"><ele>813.6</ele><time>2026-04-20T07:35:13.318Z</time></trkpt><trkpt lat="42.129895" lon="12.9372533"><ele>814.0</ele><time>2026-04-20T07:35:14.32Z</time></trkpt><trkpt lat="42.1299767" lon="12.9373117"><ele>814.0</ele><time>2026-04-20T07:35:15.318Z</time></trkpt><trkpt lat="42.1300633" lon="12.9373683"><ele>814.0</ele><time>2026-04-20T07:35:16.316Z</time></trkpt><trkpt lat="42.1301483" lon="12.9374267"><ele>814.0</ele><time>2026-04-20T07:35:17.319Z</time></trkpt><trkpt lat="42.130235" lon="12.937485"><ele>814.0</ele><time>2026-04-20T07:35:18.319Z</time></trkpt><trkpt lat="42.1303233" lon="12.9375417"><ele>814.0</ele><time>2026-04-20T07:35:19.317Z</time></trkpt><trkpt lat="42.1304183" lon="12.9375883"><ele>811.4000000000001</ele><time>2026-04-20T07:35:20.318Z</time></trkpt><trkpt lat="42.1305167" lon="12.9376267"><ele>808.8</ele><time>2026-04-20T07:35:21.318Z</time></trkpt><trkpt lat="42.1306183" lon="12.9376567"><ele>806.2</ele><time>2026-04-20T07:35:22.316Z</time></trkpt><trkpt lat="42.1307233" lon="12.937675"><ele>803.5999999999999</ele><time>2026-04-20T07:35:23.318Z</time></trkpt><trkpt lat="42.1308283" lon="12.9376783"><ele>801.0</ele><time>2026-04-20T07:35:24.316Z</time></trkpt><trkpt lat="42.1309317" lon="12.93768"><ele>801.0</ele><time>2026-04-20T07:35:25.317Z</time></trkpt><trkpt lat="42.1310317" lon="12.9376767"><ele>801.0</ele><time>2026-04-20T07:35:26.32Z</time></trkpt><trkpt lat="42.1311283" lon="12.93767"><ele>801.0</ele><time>2026-04-20T07:35:27.321Z</time></trkpt><trkpt lat="42.13121" lon="12.9376633"><ele>801.0</ele><time>2026-04-20T07:35:28.32Z</time></trkpt><trkpt lat="42.131295" lon="12.9376483"><ele>801.0</ele><time>2026-04-20T07:35:29.316Z</time></trkpt><trkpt lat="42.1313733" lon="12.937645"><ele>801.0</ele><time>2026-04-20T07:35:30.317Z</time></trkpt><trkpt lat="42.1314533" lon="12.9376417"><ele>801.0</ele><time>2026-04-20T07:35:31.318Z</time></trkpt><trkpt lat="42.1315267" lon="12.9376467"><ele>801.0</ele><time>2026-04-20T07:35:32.319Z</time></trkpt><trkpt lat="42.1315983" lon="12.93766"><ele>801.0</ele><time>2026-04-20T07:35:33.317Z</time></trkpt><trkpt lat="42.1316683" lon="12.9376967"><ele>801.0</ele><time>2026-04-20T07:35:34.317Z</time></trkpt><trkpt lat="42.1317383" lon="12.9377433"><ele>801.0</ele><time>2026-04-20T07:35:35.317Z</time></trkpt><trkpt lat="42.1318083" lon="12.9377983"><ele>801.0</ele><time>2026-04-20T07:35:36.318Z</time></trkpt><trkpt lat="42.1318783" lon="12.93786"><ele>803.0</ele><time>2026-04-20T07:35:37.317Z</time></trkpt><trkpt lat="42.1319483" lon="12.9379133"><ele>805.0</ele><time>2026-04-20T07:35:38.317Z</time></trkpt><trkpt lat="42.132025" lon="12.9379533"><ele>807.0</ele><time>2026-04-20T07:35:39.318Z</time></trkpt><trkpt lat="42.1321" lon="12.937975"><ele>809.0</ele><time>2026-04-20T07:35:40.317Z</time></trkpt><trkpt lat="42.1321767" lon="12.93799"><ele>811.0</ele><time>2026-04-20T07:35:41.318Z</time></trkpt><trkpt lat="42.1322633" lon="12.9380067"><ele>813.0</ele><time>2026-04-20T07:35:42.319Z</time></trkpt><trkpt lat="42.13236" lon="12.938015"><ele>811.4</ele><time>2026-04-20T07:35:43.32Z</time></trkpt><trkpt lat="42.132465" lon="12.9380217"><ele>809.8</ele><time>2026-04-20T07:35:44.318Z</time></trkpt><trkpt lat="42.132565" lon="12.9380317"><ele>808.2</ele><time>2026-04-20T07:35:45.317Z</time></trkpt><trkpt lat="42.1326683" lon="12.9380433"><ele>806.6</ele><time>2026-04-20T07:35:46.319Z</time></trkpt><trkpt lat="42.132765" lon="12.9380517"><ele>805.0</ele><time>2026-04-20T07:35:47.32Z</time></trkpt><trkpt lat="42.1328617" lon="12.9380567"><ele>805.0</ele><time>2026-04-20T07:35:48.32Z</time></trkpt><trkpt lat="42.1329583" lon="12.9380667"><ele>805.0</ele><time>2026-04-20T07:35:49.32Z</time></trkpt><trkpt lat="42.133055" lon="12.938075"><ele>805.0</ele><time>2026-04-20T07:35:50.318Z</time></trkpt><trkpt lat="42.1331633" lon="12.938085"><ele>805.0</ele><time>2026-04-20T07:35:51.318Z</time></trkpt><trkpt lat="42.1332633" lon="12.9380933"><ele>805.0</ele><time>2026-04-20T07:35:52.32Z</time></trkpt><trkpt lat="42.13336" lon="12.9380917"><ele>802.8</ele><time>2026-04-20T07:35:53.318Z</time></trkpt><trkpt lat="42.133455" lon="12.9380967"><ele>800.6</ele><time>2026-04-20T07:35:54.32Z</time></trkpt><trkpt lat="42.1335483" lon="12.9380917"><ele>798.4000000000001</ele><time>2026-04-20T07:35:55.319Z</time></trkpt><trkpt lat="42.1336383" lon="12.9380883"><ele>796.2</ele><time>2026-04-20T07:35:56.316Z</time></trkpt><trkpt lat="42.1337267" lon="12.9380783"><ele>794.0</ele><time>2026-04-20T07:35:57.318Z</time></trkpt><trkpt lat="42.13381" lon="12.93804"><ele>794.0</ele><time>2026-04-20T07:35:58.317Z</time></trkpt><trkpt lat="42.133885" lon="12.9379833"><ele>794.0</ele><time>2026-04-20T07:35:59.317Z</time></trkpt><trkpt lat="42.13395" lon="12.9378867"><ele>794.0</ele><time>2026-04-20T07:36:00.321Z</time></trkpt><trkpt lat="42.134005" lon="12.93776"><ele>794.0</ele><time>2026-04-20T07:36:01.316Z</time></trkpt><trkpt lat="42.13405" lon="12.9376167"><ele>794.0</ele><time>2026-04-20T07:36:02.319Z</time></trkpt><trkpt lat="42.1340867" lon="12.9374667"><ele>794.25</ele><time>2026-04-20T07:36:03.319Z</time></trkpt><trkpt lat="42.1341033" lon="12.9373083"><ele>794.5</ele><time>2026-04-20T07:36:04.317Z</time></trkpt><trkpt lat="42.1340983" lon="12.9371367"><ele>794.75</ele><time>2026-04-20T07:36:05.318Z</time></trkpt><trkpt lat="42.1340833" lon="12.9369667"><ele>795.0</ele><time>2026-04-20T07:36:06.319Z</time></trkpt><trkpt lat="42.1340717" lon="12.9368067"><ele>794.75</ele><time>2026-04-20T07:36:07.318Z</time></trkpt><trkpt lat="42.1340783" lon="12.93664"><ele>794.5</ele><time>2026-04-20T07:36:08.319Z</time></trkpt><trkpt lat="42.1341067" lon="12.9364683"><ele>794.25</ele><time>2026-04-20T07:36:09.32Z</time></trkpt><trkpt lat="42.13415" lon="12.9363"><ele>794.0</ele><time>2026-04-20T07:36:10.318Z</time></trkpt><trkpt lat="42.1342" lon="12.93614"><ele>794.0</ele><time>2026-04-20T07:36:11.319Z</time></trkpt><trkpt lat="42.1342667" lon="12.9360067"><ele>794.0</ele><time>2026-04-20T07:36:12.319Z</time></trkpt><trkpt lat="42.1343517" lon="12.935895"><ele>794.0</ele><time>2026-04-20T07:36:13.32Z</time></trkpt><trkpt lat="42.1344517" lon="12.9358017"><ele>794.0</ele><time>2026-04-20T07:36:14.319Z</time></trkpt><trkpt lat="42.1345683" lon="12.9357217"><ele>795.5</ele><time>2026-04-20T07:36:15.32Z</time></trkpt><trkpt lat="42.1346867" lon="12.9356433"><ele>797.0</ele><time>2026-04-20T07:36:16.319Z</time></trkpt><trkpt lat="42.1348067" lon="12.9355633"><ele>798.5</ele><time>2026-04-20T07:36:17.319Z</time></trkpt><trkpt lat="42.1349283" lon="12.9354817"><ele>800.0</ele><time>2026-04-20T07:36:18.317Z</time></trkpt><trkpt lat="42.1350567" lon="12.9353883"><ele>799.0</ele><time>2026-04-20T07:36:19.32Z</time></trkpt><trkpt lat="42.135185" lon="12.935285"><ele>798.0</ele><time>2026-04-20T07:36:20.317Z</time></trkpt><trkpt lat="42.13531" lon="12.9351733"><ele>797.0</ele><time>2026-04-20T07:36:21.319Z</time></trkpt><trkpt lat="42.1354133" lon="12.9350517"><ele>796.0</ele><time>2026-04-20T07:36:22.318Z</time></trkpt><trkpt lat="42.1355083" lon="12.9349233"><ele>796.0</ele><time>2026-04-20T07:36:23.32Z</time></trkpt><trkpt lat="42.1355917" lon="12.9347917"><ele>796.0</ele><time>2026-04-20T07:36:24.32Z</time></trkpt><trkpt lat="42.135665" lon="12.9346417"><ele>796.0</ele><time>2026-04-20T07:36:25.319Z</time></trkpt><trkpt lat="42.135735" lon="12.9344683"><ele>796.0</ele><time>2026-04-20T07:36:26.319Z</time></trkpt><trkpt lat="42.1358117" lon="12.934275"><ele>790.6666666666666</ele><time>2026-04-20T07:36:27.32Z</time></trkpt><trkpt lat="42.13589" lon="12.9340733"><ele>785.3333333333333</ele><time>2026-04-20T07:36:28.317Z</time></trkpt><trkpt lat="42.1359633" lon="12.9338783"><ele>780.0</ele><time>2026-04-20T07:36:29.318Z</time></trkpt><trkpt lat="42.1360317" lon="12.9337033"><ele>780.0</ele><time>2026-04-20T07:36:30.319Z</time></trkpt><trkpt lat="42.136085" lon="12.9335383"><ele>780.0</ele><time>2026-04-20T07:36:31.32Z</time></trkpt><trkpt lat="42.1361217" lon="12.93338"><ele>780.0</ele><time>2026-04-20T07:36:32.317Z</time></trkpt><trkpt lat="42.1361267" lon="12.933215"><ele>780.0</ele><time>2026-04-20T07:36:33.317Z</time></trkpt><trkpt lat="42.1361033" lon="12.9330433"><ele>779.75</ele><time>2026-04-20T07:36:34.317Z</time></trkpt><trkpt lat="42.136055" lon="12.9328667"><ele>779.5</ele><time>2026-04-20T07:36:35.317Z</time></trkpt><trkpt lat="42.135995" lon="12.9326967"><ele>779.25</ele><time>2026-04-20T07:36:36.317Z</time></trkpt><trkpt lat="42.135955" lon="12.9325467"><ele>779.0</ele><time>2026-04-20T07:36:37.32Z</time></trkpt><trkpt lat="42.1359383" lon="12.932415"><ele>779.0000000000001</ele><time>2026-04-20T07:36:38.32Z</time></trkpt><trkpt lat="42.1359383" lon="12.9323067"><ele>779.0</ele><time>2026-04-20T07:36:39.32Z</time></trkpt><trkpt lat="42.1359667" lon="12.93221"><ele>779.0</ele><time>2026-04-20T07:36:40.316Z</time></trkpt><trkpt lat="42.1360167" lon="12.9321317"><ele>779.0</ele><time>2026-04-20T07:36:41.317Z</time></trkpt><trkpt lat="42.1360883" lon="12.9320817"><ele>779.0000000000001</ele><time>2026-04-20T07:36:42.32Z</time></trkpt><trkpt lat="42.1361833" lon="12.9320717"><ele>779.0</ele><time>2026-04-20T07:36:43.319Z</time></trkpt><trkpt lat="42.1362883" lon="12.93209"><ele>779.0</ele><time>2026-04-20T07:36:44.32Z</time></trkpt><trkpt lat="42.13641" lon="12.932155"><ele>779.0</ele><time>2026-04-20T07:36:45.32Z</time></trkpt><trkpt lat="42.13654" lon="12.9322483"><ele>779.0</ele><time>2026-04-20T07:36:46.32Z</time></trkpt><trkpt lat="42.136675" lon="12.9323533"><ele>779.0</ele><time>2026-04-20T07:36:47.32Z</time></trkpt><trkpt lat="42.136805" lon="12.932445"><ele>776.25</ele><time>2026-04-20T07:36:48.32Z</time></trkpt><trkpt lat="42.1369383" lon="12.9325183"><ele>773.5</ele><time>2026-04-20T07:36:49.32Z</time></trkpt><trkpt lat="42.1370767" lon="12.9325733"><ele>770.75</ele><time>2026-04-20T07:36:50.319Z</time></trkpt><trkpt lat="42.137225" lon="12.9326083"><ele>768.0</ele><time>2026-04-20T07:36:51.319Z</time></trkpt><trkpt lat="42.13738" lon="12.9326167"><ele>768.0</ele><time>2026-04-20T07:36:52.319Z</time></trkpt><trkpt lat="42.1375383" lon="12.9326067"><ele>768.0</ele><time>2026-04-20T07:36:53.32Z</time></trkpt><trkpt lat="42.1376867" lon="12.9325867"><ele>768.0</ele><time>2026-04-20T07:36:54.316Z</time></trkpt><trkpt lat="42.13782" lon="12.9325567"><ele>768.0</ele><time>2026-04-20T07:36:55.32Z</time></trkpt><trkpt lat="42.137935" lon="12.9325083"><ele>768.0</ele><time>2026-04-20T07:36:56.32Z</time></trkpt><trkpt lat="42.1380383" lon="12.932435"><ele>768.0</ele><time>2026-04-20T07:36:57.317Z</time></trkpt><trkpt lat="42.1381317" lon="12.9323317"><ele>768.0</ele><time>2026-04-20T07:36:58.317Z</time></trkpt><trkpt lat="42.1382167" lon="12.9321967"><ele>768.0</ele><time>2026-04-20T07:36:59.319Z</time></trkpt><trkpt lat="42.1382917" lon="12.9320233"><ele>767.3333333333334</ele><time>2026-04-20T07:37:00.32Z</time></trkpt><trkpt lat="42.138365" lon="12.931825"><ele>766.6666666666667</ele><time>2026-04-20T07:37:01.318Z</time></trkpt><trkpt lat="42.1384283" lon="12.9316267"><ele>766.0</ele><time>2026-04-20T07:37:02.318Z</time></trkpt><trkpt lat="42.1384867" lon="12.931445"><ele>766.0</ele><time>2026-04-20T07:37:03.316Z</time></trkpt><trkpt lat="42.1385367" lon="12.931295"><ele>766.0</ele><time>2026-04-20T07:37:04.317Z</time></trkpt><trkpt lat="42.1385933" lon="12.931185"><ele>766.0</ele><time>2026-04-20T07:37:05.317Z</time></trkpt><trkpt lat="42.1386483" lon="12.9311083"><ele>766.0</ele><time>2026-04-20T07:37:06.318Z</time></trkpt><trkpt lat="42.1387017" lon="12.9310533"><ele>766.0</ele><time>2026-04-20T07:37:07.32Z</time></trkpt><trkpt lat="42.1387667" lon="12.9310433"><ele>766.0</ele><time>2026-04-20T07:37:08.318Z</time></trkpt><trkpt lat="42.13885" lon="12.9310633"><ele>766.0</ele><time>2026-04-20T07:37:09.318Z</time></trkpt><trkpt lat="42.138955" lon="12.93111"><ele>766.0</ele><time>2026-04-20T07:37:10.316Z</time></trkpt><trkpt lat="42.1390467" lon="12.93115"><ele>766.0</ele><time>2026-04-20T07:37:11.318Z</time></trkpt><trkpt lat="42.1391333" lon="12.93121"><ele>766.0</ele><time>2026-04-20T07:37:12.317Z</time></trkpt><trkpt lat="42.1392117" lon="12.9313017"><ele>766.0</ele><time>2026-04-20T07:37:13.317Z</time></trkpt><trkpt lat="42.1392733" lon="12.93142"><ele>762.25</ele><time>2026-04-20T07:37:14.32Z</time></trkpt><trkpt lat="42.1393233" lon="12.9315683"><ele>758.5</ele><time>2026-04-20T07:37:15.319Z</time></trkpt><trkpt lat="42.1393633" lon="12.93173"><ele>754.75</ele><time>2026-04-20T07:37:16.319Z</time></trkpt><trkpt lat="42.1393983" lon="12.9319033"><ele>751.0</ele><time>2026-04-20T07:37:17.32Z</time></trkpt><trkpt lat="42.1394383" lon="12.9320917"><ele>749.0</ele><time>2026-04-20T07:37:18.316Z</time></trkpt><trkpt lat="42.13948" lon="12.9322967"><ele>747.0</ele><time>2026-04-20T07:37:19.316Z</time></trkpt><trkpt lat="42.1395167" lon="12.932505"><ele>745.0</ele><time>2026-04-20T07:37:20.316Z</time></trkpt><trkpt lat="42.1395517" lon="12.932695"><ele>745.0</ele><time>2026-04-20T07:37:21.317Z</time></trkpt><trkpt lat="42.1395717" lon="12.93287"><ele>745.0</ele><time>2026-04-20T07:37:22.316Z</time></trkpt><trkpt lat="42.1395683" lon="12.9330317"><ele>745.0</ele><time>2026-04-20T07:37:23.317Z</time></trkpt><trkpt lat="42.1395383" lon="12.9331883"><ele>745.0</ele><time>2026-04-20T07:37:24.316Z</time></trkpt><trkpt lat="42.1394817" lon="12.9333483"><ele>747.25</ele><time>2026-04-20T07:37:25.32Z</time></trkpt><trkpt lat="42.1394033" lon="12.9335133"><ele>749.5</ele><time>2026-04-20T07:37:26.319Z</time></trkpt><trkpt lat="42.1393167" lon="12.9336667"><ele>751.75</ele><time>2026-04-20T07:37:27.32Z</time></trkpt><trkpt lat="42.1392517" lon="12.933815"><ele>754.0</ele><time>2026-04-20T07:37:28.319Z</time></trkpt><trkpt lat="42.1392117" lon="12.9339617"><ele>754.0</ele><time>2026-04-20T07:37:29.317Z</time></trkpt><trkpt lat="42.139195" lon="12.9341133"><ele>754.0</ele><time>2026-04-20T07:37:30.318Z</time></trkpt><trkpt lat="42.1392183" lon="12.9342633"><ele>754.0</ele><time>2026-04-20T07:37:31.316Z</time></trkpt><trkpt lat="42.1392767" lon="12.9344167"><ele>754.0</ele><time>2026-04-20T07:37:32.317Z</time></trkpt><trkpt lat="42.13936" lon="12.9345783"><ele>752.3333333333334</ele><time>2026-04-20T07:37:33.317Z</time></trkpt><trkpt lat="42.139455" lon="12.9347567"><ele>750.6666666666666</ele><time>2026-04-20T07:37:34.319Z</time></trkpt><trkpt lat="42.139565" lon="12.934945"><ele>749.0</ele><time>2026-04-20T07:37:35.319Z</time></trkpt><trkpt lat="42.13968" lon="12.93515"><ele>747.3333333333333</ele><time>2026-04-20T07:37:36.319Z</time></trkpt><trkpt lat="42.1397917" lon="12.9353667"><ele>745.6666666666666</ele><time>2026-04-20T07:37:37.317Z</time></trkpt><trkpt lat="42.1399083" lon="12.9355867"><ele>744.0</ele><time>2026-04-20T07:37:38.317Z</time></trkpt><trkpt lat="42.140035" lon="12.9358167"><ele>746.0</ele><time>2026-04-20T07:37:39.318Z</time></trkpt><trkpt lat="42.1401683" lon="12.9360717"><ele>748.0</ele><time>2026-04-20T07:37:40.318Z</time></trkpt><trkpt lat="42.1403167" lon="12.9363383"><ele>748.0</ele><time>2026-04-20T07:37:41.318Z</time></trkpt><trkpt lat="42.14047" lon="12.9366233"><ele>748.0</ele><time>2026-04-20T07:37:42.319Z</time></trkpt><trkpt lat="42.1406233" lon="12.93691"><ele>755.0</ele><time>2026-04-20T07:37:43.318Z</time></trkpt><trkpt lat="42.1407783" lon="12.9371983"><ele>762.0</ele><time>2026-04-20T07:37:44.319Z</time></trkpt><trkpt lat="42.1409417" lon="12.9374967"><ele>757.5</ele><time>2026-04-20T07:37:45.319Z</time></trkpt><trkpt lat="42.1411117" lon="12.9378067"><ele>753.0</ele><time>2026-04-20T07:37:46.319Z</time></trkpt><trkpt lat="42.1412867" lon="12.9381267"><ele>757.0</ele><time>2026-04-20T07:37:47.318Z</time></trkpt><trkpt lat="42.1414683" lon="12.9384567"><ele>761.0</ele><time>2026-04-20T07:37:48.318Z</time></trkpt><trkpt lat="42.14165" lon="12.938795"><ele>761.0</ele><time>2026-04-20T07:37:49.319Z</time></trkpt><trkpt lat="42.141825" lon="12.9391217"><ele>761.0</ele><time>2026-04-20T07:37:50.32Z</time></trkpt><trkpt lat="42.1419883" lon="12.93943"><ele>763.0</ele><time>2026-04-20T07:37:51.319Z</time></trkpt><trkpt lat="42.1421433" lon="12.9397183"><ele>765.0</ele><time>2026-04-20T07:37:52.319Z</time></trkpt><trkpt lat="42.1422867" lon="12.9399867"><ele>765.6666666666666</ele><time>2026-04-20T07:37:53.32Z</time></trkpt><trkpt lat="42.1424183" lon="12.9402333"><ele>766.3333333333333</ele><time>2026-04-20T07:37:54.32Z</time></trkpt><trkpt lat="42.1425433" lon="12.94046"><ele>767.0</ele><time>2026-04-20T07:37:55.319Z</time></trkpt><trkpt lat="42.1426633" lon="12.9406667"><ele>767.0</ele><time>2026-04-20T07:37:56.319Z</time></trkpt><trkpt lat="42.1427883" lon="12.94085"><ele>767.0</ele><time>2026-04-20T07:37:57.32Z</time></trkpt><trkpt lat="42.1429283" lon="12.941"><ele>767.0</ele><time>2026-04-20T07:37:58.319Z</time></trkpt><trkpt lat="42.14308" lon="12.941135"><ele>764.6666666666666</ele><time>2026-04-20T07:37:59.316Z</time></trkpt><trkpt lat="42.1432433" lon="12.9412667"><ele>762.3333333333334</ele><time>2026-04-20T07:38:00.317Z</time></trkpt><trkpt lat="42.1434267" lon="12.9413933"><ele>760.0</ele><time>2026-04-20T07:38:01.318Z</time></trkpt><trkpt lat="42.143625" lon="12.9415183"><ele>760.0</ele><time>2026-04-20T07:38:02.317Z</time></trkpt><trkpt lat="42.14384" lon="12.941655"><ele>760.0</ele><time>2026-04-20T07:38:03.318Z</time></trkpt><trkpt lat="42.1440683" lon="12.9418"><ele>757.5</ele><time>2026-04-20T07:38:04.317Z</time></trkpt><trkpt lat="42.1443083" lon="12.9419417"><ele>755.0</ele><time>2026-04-20T07:38:05.319Z</time></trkpt><trkpt lat="42.14455" lon="12.9420833"><ele>755.0</ele><time>2026-04-20T07:38:06.321Z</time></trkpt><trkpt lat="42.1447983" lon="12.9422283"><ele>755.0</ele><time>2026-04-20T07:38:07.318Z</time></trkpt><trkpt lat="42.145055" lon="12.9423767"><ele>758.0</ele><time>2026-04-20T07:38:08.318Z</time></trkpt><trkpt lat="42.1453183" lon="12.94253"><ele>761.0</ele><time>2026-04-20T07:38:09.321Z</time></trkpt><trkpt lat="42.1455867" lon="12.9426883"><ele>759.5</ele><time>2026-04-20T07:38:10.315Z</time></trkpt><trkpt lat="42.1458517" lon="12.94284"><ele>758.0</ele><time>2026-04-20T07:38:11.317Z</time></trkpt><trkpt lat="42.1461017" lon="12.9429833"><ele>758.0</ele><time>2026-04-20T07:38:12.316Z</time></trkpt><trkpt lat="42.1463383" lon="12.9431217"><ele>758.0</ele><time>2026-04-20T07:38:13.321Z</time></trkpt><trkpt lat="42.1465667" lon="12.9432567"><ele>759.0</ele><time>2026-04-20T07:38:14.319Z</time></trkpt><trkpt lat="42.14679" lon="12.94339"><ele>760.0</ele><time>2026-04-20T07:38:15.317Z</time></trkpt><trkpt lat="42.1470083" lon="12.94352"><ele>760.0</ele><time>2026-04-20T07:38:16.316Z</time></trkpt><trkpt lat="42.14722" lon="12.9436483"><ele>760.0</ele><time>2026-04-20T07:38:17.317Z</time></trkpt><trkpt lat="42.14743" lon="12.943775"><ele>763.5</ele><time>2026-04-20T07:38:18.317Z</time></trkpt><trkpt lat="42.1476383" lon="12.9438983"><ele>767.0</ele><time>2026-04-20T07:38:19.317Z</time></trkpt><trkpt lat="42.1478433" lon="12.9440183"><ele>767.0</ele><time>2026-04-20T07:38:20.319Z</time></trkpt><trkpt lat="42.1480433" lon="12.9441417"><ele>767.0</ele><time>2026-04-20T07:38:21.319Z</time></trkpt><trkpt lat="42.1482517" lon="12.9442617"><ele>767.0</ele><time>2026-04-20T07:38:22.32Z</time></trkpt><trkpt lat="42.148475" lon="12.9443817"><ele>762.5</ele><time>2026-04-20T07:38:23.319Z</time></trkpt><trkpt lat="42.14871" lon="12.9445117"><ele>758.0</ele><time>2026-04-20T07:38:24.319Z</time></trkpt><trkpt lat="42.14895" lon="12.9446533"><ele>764.0</ele><time>2026-04-20T07:38:25.319Z</time></trkpt><trkpt lat="42.1491833" lon="12.9448033"><ele>770.0</ele><time>2026-04-20T07:38:26.319Z</time></trkpt><trkpt lat="42.1494017" lon="12.94494"><ele>768.3333333333334</ele><time>2026-04-20T07:38:27.318Z</time></trkpt><trkpt lat="42.1496083" lon="12.945065"><ele>766.6666666666667</ele><time>2026-04-20T07:38:28.32Z</time></trkpt><trkpt lat="42.1497983" lon="12.9451817"><ele>765.0</ele><time>2026-04-20T07:38:29.317Z</time></trkpt><trkpt lat="42.14997" lon="12.9452817"><ele>765.0</ele><time>2026-04-20T07:38:30.319Z</time></trkpt><trkpt lat="42.150125" lon="12.945375"><ele>765.0</ele><time>2026-04-20T07:38:31.318Z</time></trkpt><trkpt lat="42.1502717" lon="12.945465"><ele>765.0</ele><time>2026-04-20T07:38:32.32Z</time></trkpt><trkpt lat="42.1504117" lon="12.9455433"><ele>765.0</ele><time>2026-04-20T07:38:33.318Z</time></trkpt><trkpt lat="42.1505467" lon="12.9456"><ele>765.0</ele><time>2026-04-20T07:38:34.32Z</time></trkpt><trkpt lat="42.1506717" lon="12.9456217"><ele>765.0</ele><time>2026-04-20T07:38:35.319Z</time></trkpt><trkpt lat="42.150795" lon="12.9456067"><ele>765.0</ele><time>2026-04-20T07:38:36.318Z</time></trkpt><trkpt lat="42.150925" lon="12.94554"><ele>765.6666666666666</ele><time>2026-04-20T07:38:37.316Z</time></trkpt><trkpt lat="42.15106" lon="12.9454367"><ele>766.3333333333333</ele><time>2026-04-20T07:38:38.318Z</time></trkpt><trkpt lat="42.1512083" lon="12.9453067"><ele>767.0</ele><time>2026-04-20T07:38:39.319Z</time></trkpt><trkpt lat="42.15137" lon="12.945165"><ele>767.6666666666666</ele><time>2026-04-20T07:38:40.32Z</time></trkpt><trkpt lat="42.1515383" lon="12.9450183"><ele>768.3333333333333</ele><time>2026-04-20T07:38:41.317Z</time></trkpt><trkpt lat="42.1517083" lon="12.9448733"><ele>769.0</ele><time>2026-04-20T07:38:42.318Z</time></trkpt><trkpt lat="42.1518783" lon="12.9447283"><ele>769.0</ele><time>2026-04-20T07:38:43.32Z</time></trkpt><trkpt lat="42.1520533" lon="12.9445833"><ele>769.0</ele><time>2026-04-20T07:38:44.319Z</time></trkpt><trkpt lat="42.1522233" lon="12.944445"><ele>769.0</ele><time>2026-04-20T07:38:45.32Z</time></trkpt><trkpt lat="42.1524" lon="12.9443133"><ele>768.3333333333333</ele><time>2026-04-20T07:38:46.317Z</time></trkpt><trkpt lat="42.1525717" lon="12.94419"><ele>767.6666666666666</ele><time>2026-04-20T07:38:47.32Z</time></trkpt><trkpt lat="42.1527417" lon="12.9440783"><ele>767.0</ele><time>2026-04-20T07:38:48.319Z</time></trkpt><trkpt lat="42.1529183" lon="12.943975"><ele>767.0</ele><time>2026-04-20T07:38:49.32Z</time></trkpt><trkpt lat="42.1530917" lon="12.9438767"><ele>767.0</ele><time>2026-04-20T07:38:50.319Z</time></trkpt><trkpt lat="42.153265" lon="12.943785"><ele>767.0</ele><time>2026-04-20T07:38:51.319Z</time></trkpt><trkpt lat="42.1534367" lon="12.943705"><ele>766.6666666666666</ele><time>2026-04-20T07:38:52.317Z</time></trkpt><trkpt lat="42.1536117" lon="12.9436367"><ele>766.3333333333334</ele><time>2026-04-20T07:38:53.316Z</time></trkpt><trkpt lat="42.1537867" lon="12.9435783"><ele>766.0</ele><time>2026-04-20T07:38:54.316Z</time></trkpt><trkpt lat="42.153965" lon="12.943525"><ele>767.3333333333334</ele><time>2026-04-20T07:38:55.316Z</time></trkpt><trkpt lat="42.15415" lon="12.9434817"><ele>768.6666666666667</ele><time>2026-04-20T07:38:56.318Z</time></trkpt><trkpt lat="42.1543383" lon="12.9434517"><ele>770.0</ele><time>2026-04-20T07:38:57.319Z</time></trkpt><trkpt lat="42.1545267" lon="12.9434283"><ele>770.0</ele><time>2026-04-20T07:38:58.319Z</time></trkpt><trkpt lat="42.154715" lon="12.9434167"><ele>770.0</ele><time>2026-04-20T07:38:59.319Z</time></trkpt><trkpt lat="42.1549033" lon="12.9434033"><ele>770.0</ele><time>2026-04-20T07:39:00.318Z</time></trkpt><trkpt lat="42.15509" lon="12.9434"><ele>771.0</ele><time>2026-04-20T07:39:01.319Z</time></trkpt><trkpt lat="42.155275" lon="12.9433967"><ele>772.0</ele><time>2026-04-20T07:39:02.317Z</time></trkpt><trkpt lat="42.155455" lon="12.94339"><ele>773.0</ele><time>2026-04-20T07:39:03.319Z</time></trkpt><trkpt lat="42.1556283" lon="12.9433883"><ele>771.0</ele><time>2026-04-20T07:39:04.317Z</time></trkpt><trkpt lat="42.1557933" lon="12.9433883"><ele>769.0</ele><time>2026-04-20T07:39:05.318Z</time></trkpt><trkpt lat="42.15595" lon="12.9433817"><ele>767.0</ele><time>2026-04-20T07:39:06.318Z</time></trkpt><trkpt lat="42.1561017" lon="12.943365"><ele>763.3333333333333</ele><time>2026-04-20T07:39:07.317Z</time></trkpt><trkpt lat="42.1562467" lon="12.9433333"><ele>759.6666666666666</ele><time>2026-04-20T07:39:08.318Z</time></trkpt><trkpt lat="42.1563883" lon="12.9432717"><ele>756.0</ele><time>2026-04-20T07:39:09.32Z</time></trkpt><trkpt lat="42.1565267" lon="12.9431783"><ele>754.6666666666666</ele><time>2026-04-20T07:39:10.318Z</time></trkpt><trkpt lat="42.1566717" lon="12.943055"><ele>753.3333333333333</ele><time>2026-04-20T07:39:11.318Z</time></trkpt><trkpt lat="42.1568317" lon="12.942905"><ele>752.0</ele><time>2026-04-20T07:39:12.319Z</time></trkpt><trkpt lat="42.1570083" lon="12.9427367"><ele>752.0</ele><time>2026-04-20T07:39:13.32Z</time></trkpt><trkpt lat="42.1572117" lon="12.9425533"><ele>752.0</ele><time>2026-04-20T07:39:14.32Z</time></trkpt><trkpt lat="42.157425" lon="12.9423617"><ele>751.5</ele><time>2026-04-20T07:39:15.319Z</time></trkpt><trkpt lat="42.157645" lon="12.94217"><ele>751.0</ele><time>2026-04-20T07:39:16.317Z</time></trkpt><trkpt lat="42.1578733" lon="12.9419717"><ele>751.0</ele><time>2026-04-20T07:39:17.32Z</time></trkpt><trkpt lat="42.1580983" lon="12.9417783"><ele>751.0</ele><time>2026-04-20T07:39:18.319Z</time></trkpt><trkpt lat="42.15831" lon="12.9415983"><ele>750.3333333333334</ele><time>2026-04-20T07:39:19.317Z</time></trkpt><trkpt lat="42.1585017" lon="12.94143"><ele>749.6666666666666</ele><time>2026-04-20T07:39:20.318Z</time></trkpt><trkpt lat="42.1586717" lon="12.9412767"><ele>749.0</ele><time>2026-04-20T07:39:21.317Z</time></trkpt><trkpt lat="42.1588217" lon="12.9411183"><ele>749.0</ele><time>2026-04-20T07:39:22.316Z</time></trkpt><trkpt lat="42.1589483" lon="12.9409533"><ele>749.0</ele><time>2026-04-20T07:39:23.317Z</time></trkpt><trkpt lat="42.159055" lon="12.940755"><ele>749.0</ele><time>2026-04-20T07:39:24.317Z</time></trkpt><trkpt lat="42.1591383" lon="12.9405267"><ele>748.6666666666666</ele><time>2026-04-20T07:39:25.317Z</time></trkpt><trkpt lat="42.1592033" lon="12.9402633"><ele>748.3333333333334</ele><time>2026-04-20T07:39:26.316Z</time></trkpt><trkpt lat="42.15927" lon="12.93998"><ele>748.0</ele><time>2026-04-20T07:39:27.317Z</time></trkpt><trkpt lat="42.1593383" lon="12.93969"><ele>748.0</ele><time>2026-04-20T07:39:28.317Z</time></trkpt><trkpt lat="42.1594067" lon="12.9393933"><ele>748.0</ele><time>2026-04-20T07:39:29.318Z</time></trkpt><trkpt lat="42.15948" lon="12.9390867"><ele>746.5</ele><time>2026-04-20T07:39:30.318Z</time></trkpt><trkpt lat="42.1595533" lon="12.9387683"><ele>745.0</ele><time>2026-04-20T07:39:31.317Z</time></trkpt><trkpt lat="42.1596333" lon="12.9384317"><ele>744.0</ele><time>2026-04-20T07:39:32.316Z</time></trkpt><trkpt lat="42.1597167" lon="12.938085"><ele>743.0</ele><time>2026-04-20T07:39:33.317Z</time></trkpt><trkpt lat="42.1598" lon="12.937735"><ele>742.0</ele><time>2026-04-20T07:39:34.318Z</time></trkpt><trkpt lat="42.1598867" lon="12.937375"><ele>741.0</ele><time>2026-04-20T07:39:35.316Z</time></trkpt><trkpt lat="42.1599783" lon="12.93699"><ele>739.5</ele><time>2026-04-20T07:39:36.316Z</time></trkpt><trkpt lat="42.1600717" lon="12.9365767"><ele>738.0</ele><time>2026-04-20T07:39:37.317Z</time></trkpt><trkpt lat="42.16017" lon="12.9361533"><ele>736.5</ele><time>2026-04-20T07:39:38.317Z</time></trkpt><trkpt lat="42.1602667" lon="12.9357467"><ele>735.0</ele><time>2026-04-20T07:39:39.317Z</time></trkpt><trkpt lat="42.1603617" lon="12.93536"><ele>733.5</ele><time>2026-04-20T07:39:40.317Z</time></trkpt><trkpt lat="42.160455" lon="12.9349833"><ele>732.0</ele><time>2026-04-20T07:39:41.317Z</time></trkpt><trkpt lat="42.160545" lon="12.9346117"><ele>732.0</ele><time>2026-04-20T07:39:42.316Z</time></trkpt><trkpt lat="42.1606333" lon="12.93425"><ele>732.0</ele><time>2026-04-20T07:39:43.317Z</time></trkpt><trkpt lat="42.1607167" lon="12.9339017"><ele>733.0</ele><time>2026-04-20T07:39:44.316Z</time></trkpt><trkpt lat="42.1608" lon="12.933555"><ele>734.0</ele><time>2026-04-20T07:39:45.317Z</time></trkpt><trkpt lat="42.1608817" lon="12.9331983"><ele>734.0</ele><time>2026-04-20T07:39:46.318Z</time></trkpt><trkpt lat="42.16096" lon="12.932845"><ele>734.0</ele><time>2026-04-20T07:39:47.318Z</time></trkpt><trkpt lat="42.1610367" lon="12.9325083"><ele>733.0</ele><time>2026-04-20T07:39:48.318Z</time></trkpt><trkpt lat="42.1611117" lon="12.932185"><ele>732.0</ele><time>2026-04-20T07:39:49.317Z</time></trkpt><trkpt lat="42.161185" lon="12.9318767"><ele>731.0</ele><time>2026-04-20T07:39:50.317Z</time></trkpt><trkpt lat="42.1612517" lon="12.931595"><ele>730.0</ele><time>2026-04-20T07:39:51.318Z</time></trkpt><trkpt lat="42.1613117" lon="12.9313417"><ele>729.0</ele><time>2026-04-20T07:39:52.316Z</time></trkpt><trkpt lat="42.1613683" lon="12.9311217"><ele>729.0</ele><time>2026-04-20T07:39:53.317Z</time></trkpt><trkpt lat="42.161435" lon="12.9309333"><ele>729.0</ele><time>2026-04-20T07:39:54.32Z</time></trkpt><trkpt lat="42.1615217" lon="12.93077"><ele>729.0</ele><time>2026-04-20T07:39:55.317Z</time></trkpt><trkpt lat="42.16164" lon="12.930635"><ele>730.0</ele><time>2026-04-20T07:39:56.318Z</time></trkpt><trkpt lat="42.1617783" lon="12.9305083"><ele>731.0</ele><time>2026-04-20T07:39:57.318Z</time></trkpt><trkpt lat="42.1619367" lon="12.93037"><ele>732.0</ele><time>2026-04-20T07:39:58.316Z</time></trkpt><trkpt lat="42.1621067" lon="12.930225"><ele>732.0</ele><time>2026-04-20T07:39:59.317Z</time></trkpt><trkpt lat="42.1622867" lon="12.93006"><ele>732.0</ele><time>2026-04-20T07:40:00.318Z</time></trkpt><trkpt lat="42.1624767" lon="12.9298867"><ele>732.0</ele><time>2026-04-20T07:40:01.318Z</time></trkpt><trkpt lat="42.162675" lon="12.92972"><ele>733.6666666666666</ele><time>2026-04-20T07:40:02.317Z</time></trkpt><trkpt lat="42.1628667" lon="12.9295633"><ele>735.3333333333333</ele><time>2026-04-20T07:40:03.318Z</time></trkpt><trkpt lat="42.1630483" lon="12.9294067"><ele>737.0</ele><time>2026-04-20T07:40:04.319Z</time></trkpt><trkpt lat="42.1632183" lon="12.9292667"><ele>733.6666666666666</ele><time>2026-04-20T07:40:05.317Z</time></trkpt><trkpt lat="42.1633683" lon="12.929145"><ele>730.3333333333334</ele><time>2026-04-20T07:40:06.317Z</time></trkpt><trkpt lat="42.1635" lon="12.9290467"><ele>727.0</ele><time>2026-04-20T07:40:07.316Z</time></trkpt><trkpt lat="42.16362" lon="12.9289733"><ele>727.0</ele><time>2026-04-20T07:40:08.319Z</time></trkpt><trkpt lat="42.16374" lon="12.9289417"><ele>727.0</ele><time>2026-04-20T07:40:09.32Z</time></trkpt><trkpt lat="42.1638667" lon="12.92893"><ele>727.0</ele><time>2026-04-20T07:40:10.319Z</time></trkpt><trkpt lat="42.16402" lon="12.9289583"><ele>727.0</ele><time>2026-04-20T07:40:11.318Z</time></trkpt><trkpt lat="42.1641867" lon="12.9289867"><ele>729.6666666666667</ele><time>2026-04-20T07:40:12.318Z</time></trkpt><trkpt lat="42.1643633" lon="12.9290067"><ele>732.3333333333334</ele><time>2026-04-20T07:40:13.32Z</time></trkpt><trkpt lat="42.16454" lon="12.929"><ele>735.0</ele><time>2026-04-20T07:40:14.318Z</time></trkpt><trkpt lat="42.1647283" lon="12.928965"><ele>736.3333333333334</ele><time>2026-04-20T07:40:15.319Z</time></trkpt><trkpt lat="42.164925" lon="12.9289033"><ele>737.6666666666667</ele><time>2026-04-20T07:40:16.316Z</time></trkpt><trkpt lat="42.16513" lon="12.9288183"><ele>739.0</ele><time>2026-04-20T07:40:17.316Z</time></trkpt><trkpt lat="42.1653433" lon="12.9287167"><ele>739.0</ele><time>2026-04-20T07:40:18.319Z</time></trkpt><trkpt lat="42.1655717" lon="12.9286167"><ele>739.0</ele><time>2026-04-20T07:40:19.316Z</time></trkpt><trkpt lat="42.1658" lon="12.928515"><ele>742.5</ele><time>2026-04-20T07:40:20.316Z</time></trkpt><trkpt lat="42.1660283" lon="12.92841"><ele>746.0</ele><time>2026-04-20T07:40:21.318Z</time></trkpt><trkpt lat="42.16625" lon="12.9283117"><ele>738.6666666666666</ele><time>2026-04-20T07:40:22.315Z</time></trkpt><trkpt lat="42.1664567" lon="12.9282233"><ele>731.3333333333334</ele><time>2026-04-20T07:40:23.317Z</time></trkpt><trkpt lat="42.1666583" lon="12.9281617"><ele>724.0</ele><time>2026-04-20T07:40:24.316Z</time></trkpt><trkpt lat="42.166865" lon="12.92812"><ele>724.0</ele><time>2026-04-20T07:40:25.316Z</time></trkpt><trkpt lat="42.1670867" lon="12.9280967"><ele>724.0</ele><time>2026-04-20T07:40:26.317Z</time></trkpt><trkpt lat="42.1673233" lon="12.9280833"><ele>726.0</ele><time>2026-04-20T07:40:27.316Z</time></trkpt><trkpt lat="42.1675667" lon="12.9280683"><ele>728.0</ele><time>2026-04-20T07:40:28.315Z</time></trkpt><trkpt lat="42.1678117" lon="12.9280467"><ele>728.0</ele><time>2026-04-20T07:40:29.317Z</time></trkpt><trkpt lat="42.16805" lon="12.9280217"><ele>728.0</ele><time>2026-04-20T07:40:30.318Z</time></trkpt><trkpt lat="42.16827" lon="12.9280033"><ele>728.3333333333333</ele><time>2026-04-20T07:40:31.319Z</time></trkpt><trkpt lat="42.1684767" lon="12.9279867"><ele>728.6666666666666</ele><time>2026-04-20T07:40:32.32Z</time></trkpt><trkpt lat="42.1686667" lon="12.92797"><ele>729.0</ele><time>2026-04-20T07:40:33.32Z</time></trkpt><trkpt lat="42.168845" lon="12.9279583"><ele>729.0</ele><time>2026-04-20T07:40:34.319Z</time></trkpt><trkpt lat="42.1689983" lon="12.9279333"><ele>729.0</ele><time>2026-04-20T07:40:35.318Z</time></trkpt><trkpt lat="42.1691433" lon="12.9278867"><ele>729.0</ele><time>2026-04-20T07:40:36.318Z</time></trkpt><trkpt lat="42.1692833" lon="12.9278"><ele>726.3333333333334</ele><time>2026-04-20T07:40:37.315Z</time></trkpt><trkpt lat="42.1694267" lon="12.9276867"><ele>723.6666666666667</ele><time>2026-04-20T07:40:38.316Z</time></trkpt><trkpt lat="42.1695767" lon="12.9275783"><ele>721.0</ele><time>2026-04-20T07:40:39.316Z</time></trkpt><trkpt lat="42.16972" lon="12.927495"><ele>718.5</ele><time>2026-04-20T07:40:40.315Z</time></trkpt><trkpt lat="42.1698567" lon="12.9274583"><ele>716.0</ele><time>2026-04-20T07:40:41.317Z</time></trkpt><trkpt lat="42.169995" lon="12.9274633"><ele>713.5</ele><time>2026-04-20T07:40:42.319Z</time></trkpt><trkpt lat="42.1701467" lon="12.927495"><ele>711.0</ele><time>2026-04-20T07:40:43.318Z</time></trkpt><trkpt lat="42.1702967" lon="12.92752"><ele>711.0</ele><time>2026-04-20T07:40:44.318Z</time></trkpt><trkpt lat="42.17043" lon="12.9275217"><ele>711.0</ele><time>2026-04-20T07:40:45.32Z</time></trkpt><trkpt lat="42.1705533" lon="12.9274917"><ele>711.0</ele><time>2026-04-20T07:40:46.319Z</time></trkpt><trkpt lat="42.170675" lon="12.927425"><ele>711.0</ele><time>2026-04-20T07:40:47.319Z</time></trkpt><trkpt lat="42.1707883" lon="12.9273183"><ele>714.0</ele><time>2026-04-20T07:40:48.317Z</time></trkpt><trkpt lat="42.1709117" lon="12.9271833"><ele>717.0</ele><time>2026-04-20T07:40:49.316Z</time></trkpt><trkpt lat="42.1710467" lon="12.9270333"><ele>720.0</ele><time>2026-04-20T07:40:50.317Z</time></trkpt><trkpt lat="42.1711867" lon="12.9268883"><ele>720.0</ele><time>2026-04-20T07:40:51.316Z</time></trkpt><trkpt lat="42.1713233" lon="12.92676"><ele>720.0</ele><time>2026-04-20T07:40:52.317Z</time></trkpt><trkpt lat="42.171465" lon="12.9266633"><ele>720.0</ele><time>2026-04-20T07:40:53.317Z</time></trkpt><trkpt lat="42.1716167" lon="12.926595"><ele>716.3333333333334</ele><time>2026-04-20T07:40:54.317Z</time></trkpt><trkpt lat="42.1717817" lon="12.926545"><ele>712.6666666666667</ele><time>2026-04-20T07:40:55.316Z</time></trkpt><trkpt lat="42.1719567" lon="12.9265167"><ele>709.0</ele><time>2026-04-20T07:40:56.317Z</time></trkpt><trkpt lat="42.17214" lon="12.9265017"><ele>709.0</ele><time>2026-04-20T07:40:57.316Z</time></trkpt><trkpt lat="42.1723283" lon="12.92649"><ele>709.0</ele><time>2026-04-20T07:40:58.316Z</time></trkpt><trkpt lat="42.1725133" lon="12.9264783"><ele>709.0</ele><time>2026-04-20T07:40:59.317Z</time></trkpt><trkpt lat="42.172685" lon="12.92647"><ele>709.25</ele><time>2026-04-20T07:41:00.319Z</time></trkpt><trkpt lat="42.17283" lon="12.9264617"><ele>709.5</ele><time>2026-04-20T07:41:01.318Z</time></trkpt><trkpt lat="42.172945" lon="12.9264433"><ele>709.75</ele><time>2026-04-20T07:41:02.319Z</time></trkpt><trkpt lat="42.1730417" lon="12.9264133"><ele>710.0</ele><time>2026-04-20T07:41:03.315Z</time></trkpt><trkpt lat="42.173125" lon="12.9263583"><ele>709.0</ele><time>2026-04-20T07:41:04.315Z</time></trkpt><trkpt lat="42.1731933" lon="12.9262633"><ele>708.0</ele><time>2026-04-20T07:41:05.318Z</time></trkpt><trkpt lat="42.1732333" lon="12.9261333"><ele>707.0</ele><time>2026-04-20T07:41:06.318Z</time></trkpt><trkpt lat="42.1732467" lon="12.92598"><ele>706.0</ele><time>2026-04-20T07:41:07.318Z</time></trkpt><trkpt lat="42.1732433" lon="12.9258033"><ele>705.0</ele><time>2026-04-20T07:41:08.318Z</time></trkpt><trkpt lat="42.1732417" lon="12.925635"><ele>704.0</ele><time>2026-04-20T07:41:09.318Z</time></trkpt><trkpt lat="42.1732633" lon="12.9254867"><ele>703.0</ele><time>2026-04-20T07:41:10.318Z</time></trkpt><trkpt lat="42.1733083" lon="12.9253683"><ele>702.0</ele><time>2026-04-20T07:41:11.317Z</time></trkpt><trkpt lat="42.1733717" lon="12.9252817"><ele>701.0</ele><time>2026-04-20T07:41:12.318Z</time></trkpt><trkpt lat="42.1734583" lon="12.9252267"><ele>700.0</ele><time>2026-04-20T07:41:13.317Z</time></trkpt><trkpt lat="42.17359" lon="12.9252333"><ele>700.0</ele><time>2026-04-20T07:41:14.319Z</time></trkpt><trkpt lat="42.1737333" lon="12.9252583"><ele>700.0</ele><time>2026-04-20T07:41:15.32Z</time></trkpt><trkpt lat="42.173875" lon="12.92526"><ele>700.0</ele><time>2026-04-20T07:41:16.318Z</time></trkpt><trkpt lat="42.1740083" lon="12.9252267"><ele>700.0</ele><time>2026-04-20T07:41:17.318Z</time></trkpt><trkpt lat="42.17414" lon="12.9251483"><ele>699.0</ele><time>2026-04-20T07:41:18.318Z</time></trkpt><trkpt lat="42.1742667" lon="12.9250317"><ele>698.0</ele><time>2026-04-20T07:41:19.317Z</time></trkpt><trkpt lat="42.17439" lon="12.9249017"><ele>697.0</ele><time>2026-04-20T07:41:20.318Z</time></trkpt><trkpt lat="42.1745033" lon="12.9247933"><ele>696.0</ele><time>2026-04-20T07:41:21.317Z</time></trkpt><trkpt lat="42.1746267" lon="12.9247183"><ele>696.0</ele><time>2026-04-20T07:41:22.316Z</time></trkpt><trkpt lat="42.17477" lon="12.9246633"><ele>696.0</ele><time>2026-04-20T07:41:23.317Z</time></trkpt><trkpt lat="42.1749283" lon="12.92461"><ele>696.0</ele><time>2026-04-20T07:41:24.317Z</time></trkpt><trkpt lat="42.175085" lon="12.92455"><ele>694.0</ele><time>2026-04-20T07:41:25.32Z</time></trkpt><trkpt lat="42.17523" lon="12.924485"><ele>692.0</ele><time>2026-04-20T07:41:26.319Z</time></trkpt><trkpt lat="42.1753467" lon="12.9244083"><ele>690.0</ele><time>2026-04-20T07:41:27.32Z</time></trkpt><trkpt lat="42.1754517" lon="12.9243167"><ele>688.0</ele><time>2026-04-20T07:41:28.315Z</time></trkpt><trkpt lat="42.1755417" lon="12.9241867"><ele>688.0</ele><time>2026-04-20T07:41:29.318Z</time></trkpt><trkpt lat="42.1756233" lon="12.9240133"><ele>688.0</ele><time>2026-04-20T07:41:30.319Z</time></trkpt><trkpt lat="42.1757067" lon="12.9238133"><ele>688.0</ele><time>2026-04-20T07:41:31.319Z</time></trkpt><trkpt lat="42.1757917" lon="12.9236"><ele>689.5</ele><time>2026-04-20T07:41:32.319Z</time></trkpt><trkpt lat="42.1758717" lon="12.9233983"><ele>691.0</ele><time>2026-04-20T07:41:33.318Z</time></trkpt><trkpt lat="42.1759283" lon="12.92322"><ele>692.5</ele><time>2026-04-20T07:41:34.318Z</time></trkpt><trkpt lat="42.1759567" lon="12.923055"><ele>694.0</ele><time>2026-04-20T07:41:35.318Z</time></trkpt><trkpt lat="42.1759683" lon="12.92289"><ele>694.0</ele><time>2026-04-20T07:41:36.319Z</time></trkpt><trkpt lat="42.1759567" lon="12.9227117"><ele>694.0</ele><time>2026-04-20T07:41:37.319Z</time></trkpt><trkpt lat="42.1759333" lon="12.9225267"><ele>694.0</ele><time>2026-04-20T07:41:38.316Z</time></trkpt><trkpt lat="42.1759183" lon="12.9223583"><ele>694.0</ele><time>2026-04-20T07:41:39.319Z</time></trkpt><trkpt lat="42.1759233" lon="12.92223"><ele>692.5</ele><time>2026-04-20T07:41:40.319Z</time></trkpt><trkpt lat="42.175955" lon="12.9221183"><ele>691.0</ele><time>2026-04-20T07:41:41.319Z</time></trkpt><trkpt lat="42.176025" lon="12.922035"><ele>689.5</ele><time>2026-04-20T07:41:42.319Z</time></trkpt><trkpt lat="42.1761317" lon="12.92196"><ele>688.0</ele><time>2026-04-20T07:41:43.32Z</time></trkpt><trkpt lat="42.1762717" lon="12.9218917"><ele>688.0</ele><time>2026-04-20T07:41:44.318Z</time></trkpt><trkpt lat="42.1764283" lon="12.9218283"><ele>688.0</ele><time>2026-04-20T07:41:45.318Z</time></trkpt><trkpt lat="42.1765883" lon="12.9217667"><ele>688.0</ele><time>2026-04-20T07:41:46.318Z</time></trkpt><trkpt lat="42.1767367" lon="12.9217117"><ele>689.6666666666667</ele><time>2026-04-20T07:41:47.316Z</time></trkpt><trkpt lat="42.17687" lon="12.92163"><ele>691.3333333333334</ele><time>2026-04-20T07:41:48.317Z</time></trkpt><trkpt lat="42.1769933" lon="12.9215067"><ele>693.0</ele><time>2026-04-20T07:41:49.315Z</time></trkpt><trkpt lat="42.177105" lon="12.92135"><ele>693.0</ele><time>2026-04-20T07:41:50.315Z</time></trkpt><trkpt lat="42.177195" lon="12.9211967"><ele>693.0</ele><time>2026-04-20T07:41:51.317Z</time></trkpt><trkpt lat="42.177275" lon="12.9210617"><ele>693.0</ele><time>2026-04-20T07:41:52.316Z</time></trkpt><trkpt lat="42.17735" lon="12.9209667"><ele>693.0</ele><time>2026-04-20T07:41:53.316Z</time></trkpt><trkpt lat="42.177425" lon="12.9209267"><ele>694.75</ele><time>2026-04-20T07:41:54.315Z</time></trkpt><trkpt lat="42.177535" lon="12.9209533"><ele>696.5</ele><time>2026-04-20T07:41:56.318Z</time></trkpt><trkpt lat="42.1776" lon="12.9210567"><ele>698.25</ele><time>2026-04-20T07:41:57.318Z</time></trkpt><trkpt lat="42.1776767" lon="12.9212283"><ele>700.0</ele><time>2026-04-20T07:41:58.319Z</time></trkpt><trkpt lat="42.17776" lon="12.9213717"><ele>700.0</ele><time>2026-04-20T07:41:59.317Z</time></trkpt><trkpt lat="42.1778517" lon="12.9215117"><ele>700.0</ele><time>2026-04-20T07:42:00.316Z</time></trkpt><trkpt lat="42.1779483" lon="12.921595"><ele>700.0</ele><time>2026-04-20T07:42:01.316Z</time></trkpt><trkpt lat="42.178055" lon="12.9216483"><ele>700.0</ele><time>2026-04-20T07:42:02.318Z</time></trkpt><trkpt lat="42.1781733" lon="12.9216767"><ele>701.75</ele><time>2026-04-20T07:42:03.32Z</time></trkpt><trkpt lat="42.1782883" lon="12.9216617"><ele>703.5</ele><time>2026-04-20T07:42:04.317Z</time></trkpt><trkpt lat="42.1784233" lon="12.921585"><ele>705.25</ele><time>2026-04-20T07:42:05.317Z</time></trkpt><trkpt lat="42.178535" lon="12.921485"><ele>707.0</ele><time>2026-04-20T07:42:06.317Z</time></trkpt><trkpt lat="42.1786267" lon="12.9213633"><ele>707.0</ele><time>2026-04-20T07:42:07.318Z</time></trkpt><trkpt lat="42.1787133" lon="12.9212033"><ele>707.0</ele><time>2026-04-20T07:42:08.319Z</time></trkpt><trkpt lat="42.1787783" lon="12.92103"><ele>707.0</ele><time>2026-04-20T07:42:09.319Z</time></trkpt><trkpt lat="42.1788367" lon="12.9208533"><ele>707.0</ele><time>2026-04-20T07:42:10.319Z</time></trkpt><trkpt lat="42.178895" lon="12.9207017"><ele>704.0</ele><time>2026-04-20T07:42:11.319Z</time></trkpt><trkpt lat="42.178975" lon="12.92057"><ele>701.0</ele><time>2026-04-20T07:42:12.32Z</time></trkpt><trkpt lat="42.1790833" lon="12.9204433"><ele>698.0</ele><time>2026-04-20T07:42:13.32Z</time></trkpt><trkpt lat="42.1791917" lon="12.92032"><ele>695.0</ele><time>2026-04-20T07:42:14.32Z</time></trkpt><trkpt lat="42.1792883" lon="12.9202333"><ele>695.0</ele><time>2026-04-20T07:42:15.32Z</time></trkpt><trkpt lat="42.1793817" lon="12.9201833"><ele>695.0</ele><time>2026-04-20T07:42:16.319Z</time></trkpt><trkpt lat="42.1794667" lon="12.9201667"><ele>695.0</ele><time>2026-04-20T07:42:17.319Z</time></trkpt><trkpt lat="42.17955" lon="12.9201917"><ele>695.0</ele><time>2026-04-20T07:42:18.319Z</time></trkpt><trkpt lat="42.179635" lon="12.9202667"><ele>695.0</ele><time>2026-04-20T07:42:19.32Z</time></trkpt><trkpt lat="42.1797133" lon="12.92037"><ele>695.0</ele><time>2026-04-20T07:42:20.319Z</time></trkpt><trkpt lat="42.1798" lon="12.9204517"><ele>695.0</ele><time>2026-04-20T07:42:21.32Z</time></trkpt><trkpt lat="42.1799" lon="12.9204917"><ele>695.0</ele><time>2026-04-20T07:42:22.319Z</time></trkpt><trkpt lat="42.1800133" lon="12.9204983"><ele>695.0</ele><time>2026-04-20T07:42:23.32Z</time></trkpt><trkpt lat="42.1801317" lon="12.9204833"><ele>695.0</ele><time>2026-04-20T07:42:24.32Z</time></trkpt><trkpt lat="42.1802417" lon="12.9204033"><ele>698.25</ele><time>2026-04-20T07:42:25.32Z</time></trkpt><trkpt lat="42.180335" lon="12.9202717"><ele>701.5</ele><time>2026-04-20T07:42:26.32Z</time></trkpt><trkpt lat="42.1804017" lon="12.9201183"><ele>704.75</ele><time>2026-04-20T07:42:27.321Z</time></trkpt><trkpt lat="42.1804417" lon="12.9199433"><ele>708.0</ele><time>2026-04-20T07:42:28.319Z</time></trkpt><trkpt lat="42.1804717" lon="12.9197517"><ele>699.75</ele><time>2026-04-20T07:42:29.318Z</time></trkpt><trkpt lat="42.1805133" lon="12.9195883"><ele>691.5</ele><time>2026-04-20T07:42:30.321Z</time></trkpt><trkpt lat="42.1805533" lon="12.919445"><ele>683.25</ele><time>2026-04-20T07:42:31.32Z</time></trkpt><trkpt lat="42.180615" lon="12.9193233"><ele>675.0</ele><time>2026-04-20T07:42:32.32Z</time></trkpt><trkpt lat="42.180695" lon="12.9192133"><ele>675.0</ele><time>2026-04-20T07:42:33.319Z</time></trkpt><trkpt lat="42.1807983" lon="12.9191133"><ele>675.0</ele><time>2026-04-20T07:42:34.32Z</time></trkpt><trkpt lat="42.18092" lon="12.9190117"><ele>675.0</ele><time>2026-04-20T07:42:35.319Z</time></trkpt><trkpt lat="42.1810417" lon="12.9189133"><ele>675.0</ele><time>2026-04-20T07:42:36.32Z</time></trkpt><trkpt lat="42.1811483" lon="12.9188233"><ele>675.0</ele><time>2026-04-20T07:42:37.316Z</time></trkpt><trkpt lat="42.1812483" lon="12.9187583"><ele>675.0</ele><time>2026-04-20T07:42:38.316Z</time></trkpt><trkpt lat="42.181345" lon="12.9187283"><ele>675.0</ele><time>2026-04-20T07:42:39.317Z</time></trkpt><trkpt lat="42.1814317" lon="12.9187533"><ele>675.0</ele><time>2026-04-20T07:42:40.315Z</time></trkpt><trkpt lat="42.1815117" lon="12.9187783"><ele>675.0</ele><time>2026-04-20T07:42:41.316Z</time></trkpt><trkpt lat="42.1815883" lon="12.9188767"><ele>675.6</ele><time>2026-04-20T07:42:42.32Z</time></trkpt><trkpt lat="42.1816633" lon="12.9189517"><ele>676.2</ele><time>2026-04-20T07:42:43.321Z</time></trkpt><trkpt lat="42.1817033" lon="12.9191433"><ele>676.8</ele><time>2026-04-20T07:42:45.127Z</time></trkpt><trkpt lat="42.1817483" lon="12.91925"><ele>677.4</ele><time>2026-04-20T07:42:47.317Z</time></trkpt><trkpt lat="42.181765" lon="12.9193433"><ele>678.0</ele><time>2026-04-20T07:42:52.316Z</time></trkpt><trkpt lat="42.1818183" lon="12.9194517"><ele>678.0</ele><time>2026-04-20T07:43:20.317Z</time></trkpt><trkpt lat="42.181885" lon="12.9194967"><ele>678.0</ele><time>2026-04-20T07:43:21.316Z</time></trkpt><trkpt lat="42.1819633" lon="12.919545"><ele>678.0</ele><time>2026-04-20T07:43:22.317Z</time></trkpt><trkpt lat="42.1820383" lon="12.9195983"><ele>678.0</ele><time>2026-04-20T07:43:23.317Z</time></trkpt><trkpt lat="42.1821167" lon="12.9196567"><ele>678.0</ele><time>2026-04-20T07:43:24.317Z</time></trkpt><trkpt lat="42.182195" lon="12.919715"><ele>678.0</ele><time>2026-04-20T07:43:25.317Z</time></trkpt><trkpt lat="42.1822683" lon="12.9197583"><ele>678.0</ele><time>2026-04-20T07:43:26.318Z</time></trkpt><trkpt lat="42.1823367" lon="12.91976"><ele>678.0</ele><time>2026-04-20T07:43:27.318Z</time></trkpt><trkpt lat="42.182405" lon="12.9197367"><ele>678.0</ele><time>2026-04-20T07:43:28.317Z</time></trkpt><trkpt lat="42.1824767" lon="12.91966"><ele>678.0</ele><time>2026-04-20T07:43:29.316Z</time></trkpt><trkpt lat="42.18256" lon="12.9195483"><ele>678.0</ele><time>2026-04-20T07:43:30.317Z</time></trkpt><trkpt lat="42.1826583" lon="12.919405"><ele>678.75</ele><time>2026-04-20T07:43:31.316Z</time></trkpt><trkpt lat="42.182755" lon="12.9192567"><ele>679.5</ele><time>2026-04-20T07:43:32.316Z</time></trkpt><trkpt lat="42.1828583" lon="12.9190967"><ele>680.25</ele><time>2026-04-20T07:43:33.317Z</time></trkpt><trkpt lat="42.1829533" lon="12.9189483"><ele>681.0</ele><time>2026-04-20T07:43:34.317Z</time></trkpt><trkpt lat="42.1830533" lon="12.918825"><ele>681.25</ele><time>2026-04-20T07:43:35.317Z</time></trkpt><trkpt lat="42.1831667" lon="12.9187283"><ele>681.5</ele><time>2026-04-20T07:43:36.318Z</time></trkpt><trkpt lat="42.1832933" lon="12.9186517"><ele>681.75</ele><time>2026-04-20T07:43:37.317Z</time></trkpt><trkpt lat="42.183455" lon="12.918615"><ele>682.0</ele><time>2026-04-20T07:43:38.318Z</time></trkpt><trkpt lat="42.1836417" lon="12.9185917"><ele>682.0</ele><time>2026-04-20T07:43:39.317Z</time></trkpt><trkpt lat="42.1838367" lon="12.9185833"><ele>682.0</ele><time>2026-04-20T07:43:40.317Z</time></trkpt><trkpt lat="42.184015" lon="12.9185783"><ele>682.0</ele><time>2026-04-20T07:43:41.318Z</time></trkpt><trkpt lat="42.18417" lon="12.9185717"><ele>682.25</ele><time>2026-04-20T07:43:42.316Z</time></trkpt><trkpt lat="42.1843033" lon="12.9185567"><ele>682.5</ele><time>2026-04-20T07:43:43.317Z</time></trkpt><trkpt lat="42.1844133" lon="12.91852"><ele>682.75</ele><time>2026-04-20T07:43:44.319Z</time></trkpt><trkpt lat="42.1845133" lon="12.9184533"><ele>683.0</ele><time>2026-04-20T07:43:45.317Z</time></trkpt><trkpt lat="42.1846183" lon="12.918345"><ele>680.0</ele><time>2026-04-20T07:43:46.32Z</time></trkpt><trkpt lat="42.184735" lon="12.9182017"><ele>677.0</ele><time>2026-04-20T07:43:47.319Z</time></trkpt><trkpt lat="42.1848683" lon="12.91806"><ele>674.0</ele><time>2026-04-20T07:43:48.32Z</time></trkpt><trkpt lat="42.1850317" lon="12.9179283"><ele>674.0</ele><time>2026-04-20T07:43:49.319Z</time></trkpt><trkpt lat="42.1852183" lon="12.9177967"><ele>674.0</ele><time>2026-04-20T07:43:50.32Z</time></trkpt><trkpt lat="42.1853983" lon="12.91766"><ele>674.0</ele><time>2026-04-20T07:43:51.319Z</time></trkpt><trkpt lat="42.1855733" lon="12.9175317"><ele>673.0</ele><time>2026-04-20T07:43:52.322Z</time></trkpt><trkpt lat="42.1857467" lon="12.917395"><ele>672.0</ele><time>2026-04-20T07:43:53.32Z</time></trkpt><trkpt lat="42.185915" lon="12.9172267"><ele>671.0</ele><time>2026-04-20T07:43:54.319Z</time></trkpt><trkpt lat="42.1860833" lon="12.9170217"><ele>671.0</ele><time>2026-04-20T07:43:55.319Z</time></trkpt><trkpt lat="42.186255" lon="12.9167817"><ele>671.0</ele><time>2026-04-20T07:43:56.32Z</time></trkpt><trkpt lat="42.1864217" lon="12.916525"><ele>670.5</ele><time>2026-04-20T07:43:57.319Z</time></trkpt><trkpt lat="42.1865833" lon="12.9162783"><ele>670.0</ele><time>2026-04-20T07:43:58.32Z</time></trkpt><trkpt lat="42.1867283" lon="12.916045"><ele>664.6666666666667</ele><time>2026-04-20T07:43:59.32Z</time></trkpt><trkpt lat="42.1868667" lon="12.915825"><ele>659.3333333333334</ele><time>2026-04-20T07:44:00.318Z</time></trkpt><trkpt lat="42.1870017" lon="12.915625"><ele>654.0</ele><time>2026-04-20T07:44:01.319Z</time></trkpt><trkpt lat="42.1871367" lon="12.915435"><ele>654.0</ele><time>2026-04-20T07:44:02.32Z</time></trkpt><trkpt lat="42.1872767" lon="12.915275"><ele>654.0</ele><time>2026-04-20T07:44:03.318Z</time></trkpt><trkpt lat="42.1874183" lon="12.9151467"><ele>654.0</ele><time>2026-04-20T07:44:04.317Z</time></trkpt><trkpt lat="42.1875733" lon="12.9150333"><ele>656.3333333333334</ele><time>2026-04-20T07:44:05.316Z</time></trkpt><trkpt lat="42.1877567" lon="12.91493"><ele>658.6666666666667</ele><time>2026-04-20T07:44:06.318Z</time></trkpt><trkpt lat="42.187945" lon="12.914815"><ele>661.0</ele><time>2026-04-20T07:44:07.316Z</time></trkpt><trkpt lat="42.188135" lon="12.9146783"><ele>671.0</ele><time>2026-04-20T07:44:08.319Z</time></trkpt><trkpt lat="42.1883333" lon="12.9145217"><ele>681.0</ele><time>2026-04-20T07:44:09.32Z</time></trkpt><trkpt lat="42.1885117" lon="12.914345"><ele>669.6666666666666</ele><time>2026-04-20T07:44:10.317Z</time></trkpt><trkpt lat="42.1886767" lon="12.914185"><ele>658.3333333333333</ele><time>2026-04-20T07:44:11.318Z</time></trkpt><trkpt lat="42.188825" lon="12.9140467"><ele>647.0</ele><time>2026-04-20T07:44:12.319Z</time></trkpt><trkpt lat="42.18896" lon="12.9139433"><ele>647.25</ele><time>2026-04-20T07:44:13.319Z</time></trkpt><trkpt lat="42.1890833" lon="12.9138567"><ele>647.5</ele><time>2026-04-20T07:44:14.32Z</time></trkpt><trkpt lat="42.1891933" lon="12.9137533"><ele>647.75</ele><time>2026-04-20T07:44:15.32Z</time></trkpt><trkpt lat="42.1892883" lon="12.9136033"><ele>648.0</ele><time>2026-04-20T07:44:16.318Z</time></trkpt><trkpt lat="42.18937" lon="12.9134033"><ele>648.0</ele><time>2026-04-20T07:44:17.32Z</time></trkpt><trkpt lat="42.1894533" lon="12.91318"><ele>648.0</ele><time>2026-04-20T07:44:18.319Z</time></trkpt><trkpt lat="42.1895367" lon="12.9129567"><ele>648.0</ele><time>2026-04-20T07:44:19.319Z</time></trkpt><trkpt lat="42.1896183" lon="12.9127517"><ele>648.0</ele><time>2026-04-20T07:44:20.319Z</time></trkpt><trkpt lat="42.189705" lon="12.9125833"><ele>648.0</ele><time>2026-04-20T07:44:21.32Z</time></trkpt><trkpt lat="42.1898133" lon="12.912425"><ele>648.0</ele><time>2026-04-20T07:44:22.319Z</time></trkpt><trkpt lat="42.1899533" lon="12.9122683"><ele>652.3333333333334</ele><time>2026-04-20T07:44:23.32Z</time></trkpt><trkpt lat="42.1901067" lon="12.9121133"><ele>656.6666666666667</ele><time>2026-04-20T07:44:24.319Z</time></trkpt><trkpt lat="42.1902517" lon="12.9119483"><ele>661.0</ele><time>2026-04-20T07:44:25.319Z</time></trkpt><trkpt lat="42.19037" lon="12.911785"><ele>651.6666666666667</ele><time>2026-04-20T07:44:26.319Z</time></trkpt><trkpt lat="42.1904583" lon="12.9116133"><ele>642.3333333333334</ele><time>2026-04-20T07:44:27.32Z</time></trkpt><trkpt lat="42.1905217" lon="12.91141"><ele>633.0</ele><time>2026-04-20T07:44:28.32Z</time></trkpt><trkpt lat="42.190565" lon="12.91119"><ele>633.0</ele><time>2026-04-20T07:44:29.315Z</time></trkpt><trkpt lat="42.190605" lon="12.91098"><ele>633.0</ele><time>2026-04-20T07:44:30.319Z</time></trkpt><trkpt lat="42.190635" lon="12.9108"><ele>633.0</ele><time>2026-04-20T07:44:31.319Z</time></trkpt><trkpt lat="42.1906767" lon="12.9106633"><ele>633.0</ele><time>2026-04-20T07:44:32.319Z</time></trkpt><trkpt lat="42.1907317" lon="12.910565"><ele>635.0</ele><time>2026-04-20T07:44:33.319Z</time></trkpt><trkpt lat="42.1907967" lon="12.9104933"><ele>637.0</ele><time>2026-04-20T07:44:34.316Z</time></trkpt><trkpt lat="42.19089" lon="12.910455"><ele>639.0</ele><time>2026-04-20T07:44:35.317Z</time></trkpt><trkpt lat="42.191" lon="12.9104533"><ele>641.0</ele><time>2026-04-20T07:44:36.32Z</time></trkpt><trkpt lat="42.1911383" lon="12.9104933"><ele>643.0</ele><time>2026-04-20T07:44:37.316Z</time></trkpt><trkpt lat="42.1912767" lon="12.91054"><ele>643.0</ele><time>2026-04-20T07:44:38.318Z</time></trkpt><trkpt lat="42.1914083" lon="12.9105733"><ele>643.0</ele><time>2026-04-20T07:44:39.318Z</time></trkpt><trkpt lat="42.191535" lon="12.9105767"><ele>643.0</ele><time>2026-04-20T07:44:40.319Z</time></trkpt><trkpt lat="42.1916583" lon="12.91054"><ele>643.0</ele><time>2026-04-20T07:44:41.316Z</time></trkpt><trkpt lat="42.1917817" lon="12.910445"><ele>646.3333333333334</ele><time>2026-04-20T07:44:42.319Z</time></trkpt><trkpt lat="42.191905" lon="12.9103033"><ele>649.6666666666666</ele><time>2026-04-20T07:44:43.318Z</time></trkpt><trkpt lat="42.1920267" lon="12.910135"><ele>653.0</ele><time>2026-04-20T07:44:44.32Z</time></trkpt><trkpt lat="42.192155" lon="12.9099583"><ele>652.3333333333333</ele><time>2026-04-20T07:44:45.319Z</time></trkpt><trkpt lat="42.1922783" lon="12.909795"><ele>651.6666666666666</ele><time>2026-04-20T07:44:46.32Z</time></trkpt><trkpt lat="42.1923883" lon="12.9096533"><ele>651.0</ele><time>2026-04-20T07:44:47.319Z</time></trkpt><trkpt lat="42.1925033" lon="12.909555"><ele>651.0</ele><time>2026-04-20T07:44:48.318Z</time></trkpt><trkpt lat="42.1926433" lon="12.90948"><ele>651.0</ele><time>2026-04-20T07:44:49.32Z</time></trkpt><trkpt lat="42.192805" lon="12.9094117"><ele>651.0</ele><time>2026-04-20T07:44:50.319Z</time></trkpt><trkpt lat="42.1929833" lon="12.90934"><ele>651.0</ele><time>2026-04-20T07:44:51.319Z</time></trkpt><trkpt lat="42.193155" lon="12.9092667"><ele>651.0</ele><time>2026-04-20T07:44:52.32Z</time></trkpt><trkpt lat="42.193325" lon="12.9091967"><ele>651.0</ele><time>2026-04-20T07:44:53.319Z</time></trkpt><trkpt lat="42.1934733" lon="12.90909"><ele>645.6666666666666</ele><time>2026-04-20T07:44:54.317Z</time></trkpt><trkpt lat="42.1936067" lon="12.908935"><ele>640.3333333333333</ele><time>2026-04-20T07:44:55.316Z</time></trkpt><trkpt lat="42.1937383" lon="12.90874"><ele>635.0</ele><time>2026-04-20T07:44:56.318Z</time></trkpt><trkpt lat="42.1938667" lon="12.908515"><ele>634.0</ele><time>2026-04-20T07:44:57.32Z</time></trkpt><trkpt lat="42.193985" lon="12.908295"><ele>633.0</ele><time>2026-04-20T07:44:58.32Z</time></trkpt><trkpt lat="42.1940967" lon="12.908095"><ele>632.0</ele><time>2026-04-20T07:44:59.317Z</time></trkpt><trkpt lat="42.1941933" lon="12.9079217"><ele>632.0</ele><time>2026-04-20T07:45:00.32Z</time></trkpt><trkpt lat="42.19429" lon="12.9077867"><ele>632.0</ele><time>2026-04-20T07:45:01.317Z</time></trkpt><trkpt lat="42.19439" lon="12.9076917"><ele>632.0</ele><time>2026-04-20T07:45:02.317Z</time></trkpt><trkpt lat="42.1945033" lon="12.9076367"><ele>632.0</ele><time>2026-04-20T07:45:03.319Z</time></trkpt><trkpt lat="42.19463" lon="12.9076283"><ele>632.0</ele><time>2026-04-20T07:45:04.318Z</time></trkpt><trkpt lat="42.194785" lon="12.9076667"><ele>632.0</ele><time>2026-04-20T07:45:05.316Z</time></trkpt><trkpt lat="42.19494" lon="12.9077067"><ele>632.0</ele><time>2026-04-20T07:45:06.318Z</time></trkpt><trkpt lat="42.1950867" lon="12.9077133"><ele>633.5</ele><time>2026-04-20T07:45:07.316Z</time></trkpt><trkpt lat="42.1952117" lon="12.9076733"><ele>635.0</ele><time>2026-04-20T07:45:08.317Z</time></trkpt><trkpt lat="42.1953317" lon="12.9075917"><ele>636.5</ele><time>2026-04-20T07:45:09.317Z</time></trkpt><trkpt lat="42.1954567" lon="12.9074767"><ele>638.0</ele><time>2026-04-20T07:45:10.316Z</time></trkpt><trkpt lat="42.1955933" lon="12.90736"><ele>633.75</ele><time>2026-04-20T07:45:11.316Z</time></trkpt><trkpt lat="42.1957233" lon="12.90727"><ele>629.5</ele><time>2026-04-20T07:45:12.318Z</time></trkpt><trkpt lat="42.1958417" lon="12.9072233"><ele>625.25</ele><time>2026-04-20T07:45:13.318Z</time></trkpt><trkpt lat="42.1959533" lon="12.9072283"><ele>621.0</ele><time>2026-04-20T07:45:14.32Z</time></trkpt><trkpt lat="42.1960583" lon="12.90729"><ele>621.0</ele><time>2026-04-20T07:45:15.32Z</time></trkpt><trkpt lat="42.196165" lon="12.9074083"><ele>621.0</ele><time>2026-04-20T07:45:16.32Z</time></trkpt><trkpt lat="42.1962767" lon="12.9075567"><ele>621.0</ele><time>2026-04-20T07:45:17.317Z</time></trkpt><trkpt lat="42.196395" lon="12.9076967"><ele>625.8</ele><time>2026-04-20T07:45:18.319Z</time></trkpt><trkpt lat="42.1965" lon="12.9078117"><ele>630.6</ele><time>2026-04-20T07:45:19.316Z</time></trkpt><trkpt lat="42.1965967" lon="12.907885"><ele>635.4</ele><time>2026-04-20T07:45:20.319Z</time></trkpt><trkpt lat="42.1966833" lon="12.907925"><ele>640.2</ele><time>2026-04-20T07:45:21.319Z</time></trkpt><trkpt lat="42.1967733" lon="12.9079383"><ele>645.0</ele><time>2026-04-20T07:45:22.319Z</time></trkpt><trkpt lat="42.19685" lon="12.9078967"><ele>645.0</ele><time>2026-04-20T07:45:23.318Z</time></trkpt><trkpt lat="42.1969067" lon="12.9078117"><ele>645.0</ele><time>2026-04-20T07:45:24.321Z</time></trkpt><trkpt lat="42.1969517" lon="12.9076533"><ele>645.0</ele><time>2026-04-20T07:45:25.317Z</time></trkpt><trkpt lat="42.1969633" lon="12.9074633"><ele>645.0</ele><time>2026-04-20T07:45:26.319Z</time></trkpt><trkpt lat="42.19699" lon="12.907315"><ele>634.6666666666666</ele><time>2026-04-20T07:45:27.318Z</time></trkpt><trkpt lat="42.1969367" lon="12.9070867"><ele>624.3333333333333</ele><time>2026-04-20T07:45:28.318Z</time></trkpt><trkpt lat="42.1968583" lon="12.9067817"><ele>614.0</ele><time>2026-04-20T07:45:29.319Z</time></trkpt><trkpt lat="42.1967933" lon="12.9064917"><ele>609.3333333333333</ele><time>2026-04-20T07:45:30.319Z</time></trkpt><trkpt lat="42.19673" lon="12.9062117"><ele>604.6666666666666</ele><time>2026-04-20T07:45:31.317Z</time></trkpt><trkpt lat="42.1966867" lon="12.9059633"><ele>600.0</ele><time>2026-04-20T07:45:32.318Z</time></trkpt><trkpt lat="42.1966667" lon="12.9057217"><ele>598.6666666666666</ele><time>2026-04-20T07:45:33.318Z</time></trkpt><trkpt lat="42.1966633" lon="12.9054767"><ele>597.3333333333333</ele><time>2026-04-20T07:45:34.317Z</time></trkpt><trkpt lat="42.1966667" lon="12.9052117"><ele>596.0</ele><time>2026-04-20T07:45:35.32Z</time></trkpt><trkpt lat="42.1966733" lon="12.904965"><ele>595.0</ele><time>2026-04-20T07:45:36.317Z</time></trkpt><trkpt lat="42.1966883" lon="12.9047333"><ele>594.0</ele><time>2026-04-20T07:45:37.317Z</time></trkpt><trkpt lat="42.19671" lon="12.9045167"><ele>593.0</ele><time>2026-04-20T07:45:38.318Z</time></trkpt><trkpt lat="42.196745" lon="12.9043133"><ele>592.0</ele><time>2026-04-20T07:45:39.32Z</time></trkpt><trkpt lat="42.1967917" lon="12.9041483"><ele>591.0</ele><time>2026-04-20T07:45:40.319Z</time></trkpt><trkpt lat="42.1968633" lon="12.90401"><ele>590.0</ele><time>2026-04-20T07:45:41.318Z</time></trkpt><trkpt lat="42.1969567" lon="12.903905"><ele>589.0</ele><time>2026-04-20T07:45:42.32Z</time></trkpt><trkpt lat="42.19707" lon="12.9038333"><ele>589.0</ele><time>2026-04-20T07:45:43.318Z</time></trkpt><trkpt lat="42.1972017" lon="12.9037783"><ele>589.0</ele><time>2026-04-20T07:45:44.319Z</time></trkpt><trkpt lat="42.19734" lon="12.9037333"><ele>589.0</ele><time>2026-04-20T07:45:45.318Z</time></trkpt><trkpt lat="42.1974817" lon="12.9036867"><ele>589.0</ele><time>2026-04-20T07:45:46.318Z</time></trkpt><trkpt lat="42.1976283" lon="12.903645"><ele>591.6666666666667</ele><time>2026-04-20T07:45:47.318Z</time></trkpt><trkpt lat="42.19778" lon="12.9036033"><ele>594.3333333333334</ele><time>2026-04-20T07:45:48.318Z</time></trkpt><trkpt lat="42.1979317" lon="12.9035617"><ele>597.0</ele><time>2026-04-20T07:45:49.316Z</time></trkpt><trkpt lat="42.198085" lon="12.903515"><ele>599.0</ele><time>2026-04-20T07:45:50.319Z</time></trkpt><trkpt lat="42.19825" lon="12.9034717"><ele>601.0</ele><time>2026-04-20T07:45:51.318Z</time></trkpt><trkpt lat="42.1984183" lon="12.9034217"><ele>603.0</ele><time>2026-04-20T07:45:52.317Z</time></trkpt><trkpt lat="42.198595" lon="12.9033683"><ele>598.6666666666666</ele><time>2026-04-20T07:45:53.319Z</time></trkpt><trkpt lat="42.1987733" lon="12.9033117"><ele>594.3333333333333</ele><time>2026-04-20T07:45:54.318Z</time></trkpt><trkpt lat="42.19895" lon="12.9032517"><ele>590.0</ele><time>2026-04-20T07:45:55.32Z</time></trkpt><trkpt lat="42.1991317" lon="12.9031983"><ele>590.0</ele><time>2026-04-20T07:45:56.318Z</time></trkpt><trkpt lat="42.199295" lon="12.9031533"><ele>590.0</ele><time>2026-04-20T07:45:57.319Z</time></trkpt><trkpt lat="42.1994533" lon="12.90311"><ele>590.0</ele><time>2026-04-20T07:45:58.316Z</time></trkpt><trkpt lat="42.1995967" lon="12.90307"><ele>590.0</ele><time>2026-04-20T07:45:59.319Z</time></trkpt><trkpt lat="42.19972" lon="12.90301"><ele>590.0</ele><time>2026-04-20T07:46:00.318Z</time></trkpt><trkpt lat="42.1998433" lon="12.9029117"><ele>590.0</ele><time>2026-04-20T07:46:01.319Z</time></trkpt><trkpt lat="42.1999567" lon="12.9027617"><ele>590.0</ele><time>2026-04-20T07:46:02.317Z</time></trkpt><trkpt lat="42.2000617" lon="12.90256"><ele>588.0</ele><time>2026-04-20T07:46:03.319Z</time></trkpt><trkpt lat="42.20017" lon="12.9023367"><ele>586.0</ele><time>2026-04-20T07:46:04.319Z</time></trkpt><trkpt lat="42.20028" lon="12.902105"><ele>584.0</ele><time>2026-04-20T07:46:05.319Z</time></trkpt><trkpt lat="42.2003917" lon="12.9018667"><ele>585.0</ele><time>2026-04-20T07:46:06.316Z</time></trkpt><trkpt lat="42.200505" lon="12.9016317"><ele>586.0</ele><time>2026-04-20T07:46:07.316Z</time></trkpt><trkpt lat="42.200615" lon="12.9014017"><ele>587.0</ele><time>2026-04-20T07:46:08.319Z</time></trkpt><trkpt lat="42.2007183" lon="12.90118"><ele>587.0</ele><time>2026-04-20T07:46:09.32Z</time></trkpt><trkpt lat="42.2008183" lon="12.9009617"><ele>587.0</ele><time>2026-04-20T07:46:10.319Z</time></trkpt><trkpt lat="42.2009217" lon="12.9007517"><ele>587.0</ele><time>2026-04-20T07:46:11.319Z</time></trkpt><trkpt lat="42.2010233" lon="12.90054"><ele>584.6666666666666</ele><time>2026-04-20T07:46:12.32Z</time></trkpt><trkpt lat="42.20112" lon="12.9003383"><ele>582.3333333333334</ele><time>2026-04-20T07:46:13.319Z</time></trkpt><trkpt lat="42.2012117" lon="12.90015"><ele>580.0</ele><time>2026-04-20T07:46:14.32Z</time></trkpt><trkpt lat="42.2012967" lon="12.8999733"><ele>577.75</ele><time>2026-04-20T07:46:15.318Z</time></trkpt><trkpt lat="42.2013717" lon="12.899805"><ele>575.5</ele><time>2026-04-20T07:46:16.318Z</time></trkpt><trkpt lat="42.2014283" lon="12.899635"><ele>573.25</ele><time>2026-04-20T07:46:17.319Z</time></trkpt><trkpt lat="42.2014533" lon="12.8994383"><ele>571.0</ele><time>2026-04-20T07:46:18.317Z</time></trkpt><trkpt lat="42.2014467" lon="12.899215"><ele>569.6666666666667</ele><time>2026-04-20T07:46:19.316Z</time></trkpt><trkpt lat="42.20142" lon="12.8989767"><ele>568.3333333333334</ele><time>2026-04-20T07:46:20.316Z</time></trkpt><trkpt lat="42.2013833" lon="12.8987367"><ele>567.0</ele><time>2026-04-20T07:46:21.319Z</time></trkpt><trkpt lat="42.2013483" lon="12.8984983"><ele>567.3333333333334</ele><time>2026-04-20T07:46:22.316Z</time></trkpt><trkpt lat="42.20131" lon="12.8982467"><ele>567.6666666666667</ele><time>2026-04-20T07:46:23.317Z</time></trkpt><trkpt lat="42.2012683" lon="12.8979817"><ele>568.0</ele><time>2026-04-20T07:46:24.317Z</time></trkpt><trkpt lat="42.20123" lon="12.8977067"><ele>566.6666666666667</ele><time>2026-04-20T07:46:25.32Z</time></trkpt><trkpt lat="42.2011933" lon="12.897435"><ele>565.3333333333334</ele><time>2026-04-20T07:46:26.32Z</time></trkpt><trkpt lat="42.2011583" lon="12.8971717"><ele>564.0</ele><time>2026-04-20T07:46:27.321Z</time></trkpt><trkpt lat="42.2011233" lon="12.8969083"><ele>563.3333333333334</ele><time>2026-04-20T07:46:28.319Z</time></trkpt><trkpt lat="42.20109" lon="12.89665"><ele>562.6666666666667</ele><time>2026-04-20T07:46:29.319Z</time></trkpt><trkpt lat="42.20106" lon="12.8963983"><ele>562.0</ele><time>2026-04-20T07:46:30.319Z</time></trkpt><trkpt lat="42.2010267" lon="12.8961517"><ele>562.0</ele><time>2026-04-20T07:46:31.32Z</time></trkpt><trkpt lat="42.2009917" lon="12.8959133"><ele>562.0</ele><time>2026-04-20T07:46:32.319Z</time></trkpt><trkpt lat="42.2009583" lon="12.89569"><ele>562.0</ele><time>2026-04-20T07:46:33.32Z</time></trkpt><trkpt lat="42.2009267" lon="12.8954767"><ele>562.0</ele><time>2026-04-20T07:46:34.319Z</time></trkpt><trkpt lat="42.2009083" lon="12.8952867"><ele>562.0</ele><time>2026-04-20T07:46:35.318Z</time></trkpt><trkpt lat="42.2009083" lon="12.89512"><ele>562.0</ele><time>2026-04-20T07:46:36.319Z</time></trkpt><trkpt lat="42.2009333" lon="12.8949733"><ele>562.0</ele><time>2026-04-20T07:46:37.319Z</time></trkpt><trkpt lat="42.200985" lon="12.8948367"><ele>562.0</ele><time>2026-04-20T07:46:38.32Z</time></trkpt><trkpt lat="42.201065" lon="12.8947117"><ele>562.0</ele><time>2026-04-20T07:46:39.32Z</time></trkpt><trkpt lat="42.20118" lon="12.8945983"><ele>562.0</ele><time>2026-04-20T07:46:40.32Z</time></trkpt><trkpt lat="42.201305" lon="12.8944683"><ele>562.0</ele><time>2026-04-20T07:46:41.319Z</time></trkpt><trkpt lat="42.2014183" lon="12.8943283"><ele>562.0</ele><time>2026-04-20T07:46:42.316Z</time></trkpt><trkpt lat="42.2014967" lon="12.8941533"><ele>562.0</ele><time>2026-04-20T07:46:43.319Z</time></trkpt><trkpt lat="42.2015617" lon="12.893935"><ele>562.0</ele><time>2026-04-20T07:46:44.318Z</time></trkpt><trkpt lat="42.2016117" lon="12.8936767"><ele>559.6666666666667</ele><time>2026-04-20T07:46:45.319Z</time></trkpt><trkpt lat="42.20166" lon="12.8934183"><ele>557.3333333333334</ele><time>2026-04-20T07:46:46.319Z</time></trkpt><trkpt lat="42.2016983" lon="12.893185"><ele>555.0</ele><time>2026-04-20T07:46:47.32Z</time></trkpt><trkpt lat="42.2017167" lon="12.8929683"><ele>555.0</ele><time>2026-04-20T07:46:48.317Z</time></trkpt><trkpt lat="42.2016983" lon="12.8927533"><ele>555.0</ele><time>2026-04-20T07:46:49.318Z</time></trkpt><trkpt lat="42.2016367" lon="12.892545"><ele>555.0</ele><time>2026-04-20T07:46:50.319Z</time></trkpt><trkpt lat="42.2015483" lon="12.8923333"><ele>546.0</ele><time>2026-04-20T07:46:51.317Z</time></trkpt><trkpt lat="42.20145" lon="12.89213"><ele>537.0</ele><time>2026-04-20T07:46:52.318Z</time></trkpt><trkpt lat="42.20138" lon="12.8919467"><ele>528.0</ele><time>2026-04-20T07:46:53.319Z</time></trkpt><trkpt lat="42.2013483" lon="12.8917633"><ele>528.6666666666666</ele><time>2026-04-20T07:46:54.319Z</time></trkpt><trkpt lat="42.2013483" lon="12.8915683"><ele>529.3333333333333</ele><time>2026-04-20T07:46:55.318Z</time></trkpt><trkpt lat="42.2013783" lon="12.8913383"><ele>530.0</ele><time>2026-04-20T07:46:56.32Z</time></trkpt><trkpt lat="42.201425" lon="12.8910767"><ele>528.3333333333333</ele><time>2026-04-20T07:46:57.319Z</time></trkpt><trkpt lat="42.2014717" lon="12.8908083"><ele>526.6666666666666</ele><time>2026-04-20T07:46:58.319Z</time></trkpt><trkpt lat="42.2015283" lon="12.89055"><ele>525.0</ele><time>2026-04-20T07:46:59.319Z</time></trkpt><trkpt lat="42.20159" lon="12.8903"><ele>530.6666666666666</ele><time>2026-04-20T07:47:00.32Z</time></trkpt><trkpt lat="42.201655" lon="12.8900417"><ele>536.3333333333333</ele><time>2026-04-20T07:47:01.32Z</time></trkpt><trkpt lat="42.201715" lon="12.8897733"><ele>542.0</ele><time>2026-04-20T07:47:02.319Z</time></trkpt><trkpt lat="42.201765" lon="12.8895233"><ele>542.0</ele><time>2026-04-20T07:47:03.319Z</time></trkpt><trkpt lat="42.20181" lon="12.8893083"><ele>542.0</ele><time>2026-04-20T07:47:04.319Z</time></trkpt><trkpt lat="42.201845" lon="12.88912"><ele>542.0</ele><time>2026-04-20T07:47:05.32Z</time></trkpt><trkpt lat="42.201885" lon="12.8889433"><ele>542.0</ele><time>2026-04-20T07:47:06.319Z</time></trkpt><trkpt lat="42.201945" lon="12.888785"><ele>540.6666666666666</ele><time>2026-04-20T07:47:07.319Z</time></trkpt><trkpt lat="42.2020367" lon="12.8886417"><ele>539.3333333333334</ele><time>2026-04-20T07:47:08.319Z</time></trkpt><trkpt lat="42.2021617" lon="12.8884967"><ele>538.0</ele><time>2026-04-20T07:47:09.32Z</time></trkpt><trkpt lat="42.2023067" lon="12.8883533"><ele>539.0</ele><time>2026-04-20T07:47:10.32Z</time></trkpt><trkpt lat="42.2024567" lon="12.8882133"><ele>540.0</ele><time>2026-04-20T07:47:11.316Z</time></trkpt><trkpt lat="42.2025967" lon="12.8880783"><ele>541.0</ele><time>2026-04-20T07:47:12.32Z</time></trkpt><trkpt lat="42.20273" lon="12.88795"><ele>541.0</ele><time>2026-04-20T07:47:13.317Z</time></trkpt><trkpt lat="42.2028367" lon="12.8878283"><ele>541.0</ele><time>2026-04-20T07:47:14.321Z</time></trkpt><trkpt lat="42.202915" lon="12.88769"><ele>541.0</ele><time>2026-04-20T07:47:15.319Z</time></trkpt><trkpt lat="42.2029683" lon="12.8875083"><ele>541.0</ele><time>2026-04-20T07:47:16.319Z</time></trkpt><trkpt lat="42.2029833" lon="12.887295"><ele>537.75</ele><time>2026-04-20T07:47:17.32Z</time></trkpt><trkpt lat="42.2029733" lon="12.8871017"><ele>534.5</ele><time>2026-04-20T07:47:18.317Z</time></trkpt><trkpt lat="42.20294" lon="12.8869233"><ele>531.25</ele><time>2026-04-20T07:47:19.317Z</time></trkpt><trkpt lat="42.202865" lon="12.8867533"><ele>528.0</ele><time>2026-04-20T07:47:20.319Z</time></trkpt><trkpt lat="42.2027567" lon="12.8866017"><ele>528.0</ele><time>2026-04-20T07:47:21.317Z</time></trkpt><trkpt lat="42.2026517" lon="12.886445"><ele>528.0</ele><time>2026-04-20T07:47:22.317Z</time></trkpt><trkpt lat="42.20258" lon="12.8862767"><ele>528.0</ele><time>2026-04-20T07:47:23.318Z</time></trkpt><trkpt lat="42.2025417" lon="12.8860817"><ele>529.6666666666666</ele><time>2026-04-20T07:47:24.317Z</time></trkpt><trkpt lat="42.2025283" lon="12.8858567"><ele>531.3333333333333</ele><time>2026-04-20T07:47:25.32Z</time></trkpt><trkpt lat="42.2025233" lon="12.885605"><ele>533.0</ele><time>2026-04-20T07:47:26.32Z</time></trkpt><trkpt lat="42.2025183" lon="12.8853533"><ele>533.0</ele><time>2026-04-20T07:47:27.319Z</time></trkpt><trkpt lat="42.2025133" lon="12.8851117"><ele>533.0</ele><time>2026-04-20T07:47:28.319Z</time></trkpt><trkpt lat="42.2025083" lon="12.88489"><ele>533.0</ele><time>2026-04-20T07:47:29.32Z</time></trkpt><trkpt lat="42.2025033" lon="12.8846933"><ele>532.25</ele><time>2026-04-20T07:47:30.32Z</time></trkpt><trkpt lat="42.202495" lon="12.8845133"><ele>531.5</ele><time>2026-04-20T07:47:31.32Z</time></trkpt><trkpt lat="42.2024733" lon="12.8843433"><ele>530.75</ele><time>2026-04-20T07:47:32.318Z</time></trkpt><trkpt lat="42.202435" lon="12.8841783"><ele>530.0</ele><time>2026-04-20T07:47:33.321Z</time></trkpt><trkpt lat="42.2023567" lon="12.8840033"><ele>520.0</ele><time>2026-04-20T07:47:34.32Z</time></trkpt><trkpt lat="42.20225" lon="12.8838267"><ele>510.0</ele><time>2026-04-20T07:47:35.32Z</time></trkpt><trkpt lat="42.2021317" lon="12.8836417"><ele>500.0</ele><time>2026-04-20T07:47:36.319Z</time></trkpt><trkpt lat="42.202" lon="12.8834533"><ele>504.3333333333333</ele><time>2026-04-20T07:47:37.32Z</time></trkpt><trkpt lat="42.2018667" lon="12.88326"><ele>508.66666666666663</ele><time>2026-04-20T07:47:38.318Z</time></trkpt><trkpt lat="42.2017417" lon="12.8830717"><ele>513.0</ele><time>2026-04-20T07:47:39.319Z</time></trkpt><trkpt lat="42.20163" lon="12.882905"><ele>513.0</ele><time>2026-04-20T07:47:40.32Z</time></trkpt><trkpt lat="42.20154" lon="12.8827517"><ele>513.0</ele><time>2026-04-20T07:47:41.319Z</time></trkpt><trkpt lat="42.201475" lon="12.882605"><ele>513.0</ele><time>2026-04-20T07:47:42.32Z</time></trkpt><trkpt lat="42.2014383" lon="12.8824633"><ele>513.0</ele><time>2026-04-20T07:47:43.319Z</time></trkpt><trkpt lat="42.20144" lon="12.8823033"><ele>513.75</ele><time>2026-04-20T07:47:44.319Z</time></trkpt><trkpt lat="42.2014783" lon="12.8821233"><ele>514.5</ele><time>2026-04-20T07:47:45.319Z</time></trkpt><trkpt lat="42.2015333" lon="12.8819433"><ele>515.25</ele><time>2026-04-20T07:47:46.32Z</time></trkpt><trkpt lat="42.2015883" lon="12.8817633"><ele>516.0</ele><time>2026-04-20T07:47:47.32Z</time></trkpt><trkpt lat="42.201635" lon="12.8815883"><ele>516.0</ele><time>2026-04-20T07:47:48.319Z</time></trkpt><trkpt lat="42.2016683" lon="12.8814167"><ele>516.0</ele><time>2026-04-20T07:47:49.319Z</time></trkpt><trkpt lat="42.201685" lon="12.88124"><ele>516.0</ele><time>2026-04-20T07:47:50.318Z</time></trkpt><trkpt lat="42.2016967" lon="12.88105"><ele>516.0</ele><time>2026-04-20T07:47:51.319Z</time></trkpt><trkpt lat="42.2017083" lon="12.8808567"><ele>515.5</ele><time>2026-04-20T07:47:52.319Z</time></trkpt><trkpt lat="42.201715" lon="12.8806617"><ele>515.0</ele><time>2026-04-20T07:47:53.319Z</time></trkpt><trkpt lat="42.2017217" lon="12.8804633"><ele>514.5</ele><time>2026-04-20T07:47:54.32Z</time></trkpt><trkpt lat="42.2017233" lon="12.8802767"><ele>514.0</ele><time>2026-04-20T07:47:55.319Z</time></trkpt><trkpt lat="42.2017233" lon="12.8800967"><ele>512.75</ele><time>2026-04-20T07:47:56.32Z</time></trkpt><trkpt lat="42.201725" lon="12.8799233"><ele>511.5</ele><time>2026-04-20T07:47:57.32Z</time></trkpt><trkpt lat="42.201725" lon="12.8797467"><ele>510.25</ele><time>2026-04-20T07:47:58.318Z</time></trkpt><trkpt lat="42.201725" lon="12.8795683"><ele>509.0</ele><time>2026-04-20T07:47:59.319Z</time></trkpt><trkpt lat="42.2017317" lon="12.8793917"><ele>509.0</ele><time>2026-04-20T07:48:00.317Z</time></trkpt><trkpt lat="42.20173" lon="12.87921"><ele>509.0</ele><time>2026-04-20T07:48:01.319Z</time></trkpt><trkpt lat="42.2017333" lon="12.8790333"><ele>509.0</ele><time>2026-04-20T07:48:02.318Z</time></trkpt><trkpt lat="42.2017517" lon="12.8788767"><ele>509.0</ele><time>2026-04-20T07:48:03.319Z</time></trkpt><trkpt lat="42.201765" lon="12.8787333"><ele>509.0</ele><time>2026-04-20T07:48:04.318Z</time></trkpt><trkpt lat="42.2017917" lon="12.8785967"><ele>509.0</ele><time>2026-04-20T07:48:05.319Z</time></trkpt><trkpt lat="42.2018383" lon="12.8784833"><ele>509.0</ele><time>2026-04-20T07:48:06.32Z</time></trkpt><trkpt lat="42.201905" lon="12.878405"><ele>509.0</ele><time>2026-04-20T07:48:07.316Z</time></trkpt><trkpt lat="42.2019783" lon="12.8783483"><ele>509.0</ele><time>2026-04-20T07:48:08.317Z</time></trkpt><trkpt lat="42.2020533" lon="12.87832"><ele>509.0</ele><time>2026-04-20T07:48:09.316Z</time></trkpt><trkpt lat="42.20217" lon="12.8783283"><ele>509.0</ele><time>2026-04-20T07:48:11.319Z</time></trkpt><trkpt lat="42.2022367" lon="12.878445"><ele>509.0</ele><time>2026-04-20T07:48:18.318Z</time></trkpt><trkpt lat="42.2022833" lon="12.8786233"><ele>509.0</ele><time>2026-04-20T07:48:20.32Z</time></trkpt><trkpt lat="42.202335" lon="12.8787783"><ele>512.0</ele><time>2026-04-20T07:48:21.319Z</time></trkpt><trkpt lat="42.2023817" lon="12.8789417"><ele>515.0</ele><time>2026-04-20T07:48:22.315Z</time></trkpt><trkpt lat="42.202425" lon="12.8791267"><ele>518.0</ele><time>2026-04-20T07:48:23.32Z</time></trkpt><trkpt lat="42.202465" lon="12.8793283"><ele>521.0</ele><time>2026-04-20T07:48:24.317Z</time></trkpt><trkpt lat="42.2025" lon="12.8795267"><ele>523.3333333333333</ele><time>2026-04-20T07:48:25.32Z</time></trkpt><trkpt lat="42.2025383" lon="12.87973"><ele>525.6666666666666</ele><time>2026-04-20T07:48:26.318Z</time></trkpt><trkpt lat="42.2025817" lon="12.87996"><ele>528.0</ele><time>2026-04-20T07:48:27.32Z</time></trkpt><trkpt lat="42.202625" lon="12.8801883"><ele>530.0</ele><time>2026-04-20T07:48:28.32Z</time></trkpt><trkpt lat="42.2026717" lon="12.8804"><ele>532.0</ele><time>2026-04-20T07:48:29.318Z</time></trkpt><trkpt lat="42.202715" lon="12.8805867"><ele>534.0</ele><time>2026-04-20T07:48:30.319Z</time></trkpt><trkpt lat="42.2027767" lon="12.8807583"><ele>534.25</ele><time>2026-04-20T07:48:31.319Z</time></trkpt><trkpt lat="42.2028433" lon="12.880935"><ele>534.5</ele><time>2026-04-20T07:48:32.319Z</time></trkpt><trkpt lat="42.202915" lon="12.8811133"><ele>534.75</ele><time>2026-04-20T07:48:33.32Z</time></trkpt><trkpt lat="42.20298" lon="12.8812983"><ele>535.0</ele><time>2026-04-20T07:48:34.319Z</time></trkpt><trkpt lat="42.2030483" lon="12.8814783"><ele>535.0</ele><time>2026-04-20T07:48:35.318Z</time></trkpt><trkpt lat="42.2031183" lon="12.8816583"><ele>535.0</ele><time>2026-04-20T07:48:36.319Z</time></trkpt><trkpt lat="42.2031917" lon="12.8818317"><ele>535.0</ele><time>2026-04-20T07:48:37.319Z</time></trkpt><trkpt lat="42.2032667" lon="12.8819933"><ele>535.0</ele><time>2026-04-20T07:48:38.319Z</time></trkpt><trkpt lat="42.2033383" lon="12.8821467"><ele>536.25</ele><time>2026-04-20T07:48:39.32Z</time></trkpt><trkpt lat="42.2034117" lon="12.8822983"><ele>537.5</ele><time>2026-04-20T07:48:40.319Z</time></trkpt><trkpt lat="42.203485" lon="12.8824517"><ele>538.75</ele><time>2026-04-20T07:48:41.319Z</time></trkpt><trkpt lat="42.2035567" lon="12.88261"><ele>540.0</ele><time>2026-04-20T07:48:42.319Z</time></trkpt><trkpt lat="42.2036283" lon="12.88277"><ele>540.25</ele><time>2026-04-20T07:48:43.319Z</time></trkpt><trkpt lat="42.2037033" lon="12.8829317"><ele>540.5</ele><time>2026-04-20T07:48:44.318Z</time></trkpt><trkpt lat="42.2037833" lon="12.8831017"><ele>540.75</ele><time>2026-04-20T07:48:45.318Z</time></trkpt><trkpt lat="42.20386" lon="12.8832783"><ele>541.0</ele><time>2026-04-20T07:48:46.319Z</time></trkpt><trkpt lat="42.203935" lon="12.8834567"><ele>542.3333333333334</ele><time>2026-04-20T07:48:47.319Z</time></trkpt><trkpt lat="42.2040067" lon="12.8836367"><ele>543.6666666666666</ele><time>2026-04-20T07:48:48.319Z</time></trkpt><trkpt lat="42.20408" lon="12.8838117"><ele>545.0</ele><time>2026-04-20T07:48:49.318Z</time></trkpt><trkpt lat="42.2041567" lon="12.8839867"><ele>545.0</ele><time>2026-04-20T07:48:50.319Z</time></trkpt><trkpt lat="42.2042333" lon="12.884155"><ele>545.0</ele><time>2026-04-20T07:48:51.319Z</time></trkpt><trkpt lat="42.2043067" lon="12.8843083"><ele>545.0</ele><time>2026-04-20T07:48:52.318Z</time></trkpt><trkpt lat="42.2043717" lon="12.8844483"><ele>545.0</ele><time>2026-04-20T07:48:53.316Z</time></trkpt><trkpt lat="42.20443" lon="12.88458"><ele>545.6666666666666</ele><time>2026-04-20T07:48:54.318Z</time></trkpt><trkpt lat="42.204485" lon="12.884705"><ele>546.3333333333333</ele><time>2026-04-20T07:48:55.316Z</time></trkpt><trkpt lat="42.20453" lon="12.88482"><ele>547.0</ele><time>2026-04-20T07:48:56.319Z</time></trkpt><trkpt lat="42.204575" lon="12.8849267"><ele>547.6666666666666</ele><time>2026-04-20T07:48:57.318Z</time></trkpt><trkpt lat="42.2046183" lon="12.8850183"><ele>548.3333333333334</ele><time>2026-04-20T07:48:58.316Z</time></trkpt><trkpt lat="42.20466" lon="12.8851"><ele>549.0</ele><time>2026-04-20T07:48:59.319Z</time></trkpt><trkpt lat="42.2046883" lon="12.8851783"><ele>549.1666666666666</ele><time>2026-04-20T07:49:00.319Z</time></trkpt><trkpt lat="42.2047217" lon="12.8853033"><ele>549.3333333333334</ele><time>2026-04-20T07:49:02.319Z</time></trkpt><trkpt lat="42.2047167" lon="12.8854"><ele>549.5</ele><time>2026-04-20T07:49:04.316Z</time></trkpt><trkpt lat="42.2046883" lon="12.8855"><ele>549.6666666666667</ele><time>2026-04-20T07:49:06.318Z</time></trkpt><trkpt lat="42.204645" lon="12.8855667"><ele>549.8333333333334</ele><time>2026-04-20T07:49:07.319Z</time></trkpt><trkpt lat="42.2045833" lon="12.885645"><ele>550.0</ele><time>2026-04-20T07:49:08.319Z</time></trkpt><trkpt lat="42.20451" lon="12.8857433"><ele>550.0</ele><time>2026-04-20T07:49:09.319Z</time></trkpt><trkpt lat="42.2044267" lon="12.8858633"><ele>550.0</ele><time>2026-04-20T07:49:10.318Z</time></trkpt><trkpt lat="42.2043383" lon="12.885995"><ele>550.0</ele><time>2026-04-20T07:49:11.318Z</time></trkpt><trkpt lat="42.204255" lon="12.88614"><ele>550.0</ele><time>2026-04-20T07:49:12.318Z</time></trkpt><trkpt lat="42.2041783" lon="12.8862933"><ele>550.25</ele><time>2026-04-20T07:49:13.319Z</time></trkpt><trkpt lat="42.2041217" lon="12.8864483"><ele>550.5</ele><time>2026-04-20T07:49:14.318Z</time></trkpt><trkpt lat="42.2040883" lon="12.886605"><ele>550.75</ele><time>2026-04-20T07:49:15.318Z</time></trkpt><trkpt lat="42.2040683" lon="12.8867783"><ele>551.0</ele><time>2026-04-20T07:49:16.319Z</time></trkpt><trkpt lat="42.20405" lon="12.8869667"><ele>550.75</ele><time>2026-04-20T07:49:17.319Z</time></trkpt><trkpt lat="42.20403" lon="12.8871617"><ele>550.5</ele><time>2026-04-20T07:49:18.317Z</time></trkpt><trkpt lat="42.2040117" lon="12.88734"><ele>550.25</ele><time>2026-04-20T07:49:19.316Z</time></trkpt><trkpt lat="42.2039967" lon="12.887485"><ele>550.0</ele><time>2026-04-20T07:49:20.315Z</time></trkpt><trkpt lat="42.203985" lon="12.8876233"><ele>550.0</ele><time>2026-04-20T07:49:21.316Z</time></trkpt><trkpt lat="42.20397" lon="12.8877633"><ele>550.0</ele><time>2026-04-20T07:49:22.315Z</time></trkpt><trkpt lat="42.203955" lon="12.8879167"><ele>550.0</ele><time>2026-04-20T07:49:23.317Z</time></trkpt><trkpt lat="42.2039383" lon="12.88808"><ele>550.0</ele><time>2026-04-20T07:49:24.318Z</time></trkpt><trkpt lat="42.2039117" lon="12.8882633"><ele>552.25</ele><time>2026-04-20T07:49:25.318Z</time></trkpt><trkpt lat="42.2038767" lon="12.8884567"><ele>554.5</ele><time>2026-04-20T07:49:26.319Z</time></trkpt><trkpt lat="42.2038483" lon="12.8886383"><ele>556.75</ele><time>2026-04-20T07:49:27.319Z</time></trkpt><trkpt lat="42.2038183" lon="12.8888217"><ele>559.0</ele><time>2026-04-20T07:49:28.319Z</time></trkpt><trkpt lat="42.2037983" lon="12.889015"><ele>559.0</ele><time>2026-04-20T07:49:29.319Z</time></trkpt><trkpt lat="42.2037733" lon="12.8892133"><ele>559.0</ele><time>2026-04-20T07:49:30.319Z</time></trkpt><trkpt lat="42.20373" lon="12.8894233"><ele>559.0</ele><time>2026-04-20T07:49:31.319Z</time></trkpt><trkpt lat="42.20368" lon="12.8896317"><ele>562.3333333333334</ele><time>2026-04-20T07:49:32.318Z</time></trkpt><trkpt lat="42.2036283" lon="12.8898233"><ele>565.6666666666666</ele><time>2026-04-20T07:49:33.319Z</time></trkpt><trkpt lat="42.2035733" lon="12.8900183"><ele>569.0</ele><time>2026-04-20T07:49:34.321Z</time></trkpt><trkpt lat="42.2035283" lon="12.89024"><ele>570.3333333333333</ele><time>2026-04-20T07:49:35.319Z</time></trkpt><trkpt lat="42.2034767" lon="12.890465"><ele>571.6666666666666</ele><time>2026-04-20T07:49:36.319Z</time></trkpt><trkpt lat="42.2034183" lon="12.8906867"><ele>573.0</ele><time>2026-04-20T07:49:37.319Z</time></trkpt><trkpt lat="42.203365" lon="12.890915"><ele>573.0</ele><time>2026-04-20T07:49:38.319Z</time></trkpt><trkpt lat="42.2033167" lon="12.89115"><ele>573.0</ele><time>2026-04-20T07:49:39.318Z</time></trkpt><trkpt lat="42.2032717" lon="12.8913883"><ele>573.0</ele><time>2026-04-20T07:49:40.319Z</time></trkpt><trkpt lat="42.2032283" lon="12.89162"><ele>573.25</ele><time>2026-04-20T07:49:41.318Z</time></trkpt><trkpt lat="42.2031833" lon="12.891825"><ele>573.5</ele><time>2026-04-20T07:49:42.318Z</time></trkpt><trkpt lat="42.2031417" lon="12.8920067"><ele>573.75</ele><time>2026-04-20T07:49:43.319Z</time></trkpt><trkpt lat="42.20311" lon="12.89217"><ele>574.0</ele><time>2026-04-20T07:49:44.319Z</time></trkpt><trkpt lat="42.20309" lon="12.8923333"><ele>573.5</ele><time>2026-04-20T07:49:45.319Z</time></trkpt><trkpt lat="42.20309" lon="12.892515"><ele>573.0</ele><time>2026-04-20T07:49:46.319Z</time></trkpt><trkpt lat="42.203095" lon="12.8927217"><ele>572.5</ele><time>2026-04-20T07:49:47.319Z</time></trkpt><trkpt lat="42.2031017" lon="12.892935"><ele>572.0</ele><time>2026-04-20T07:49:48.318Z</time></trkpt><trkpt lat="42.2031033" lon="12.8931433"><ele>572.0</ele><time>2026-04-20T07:49:49.318Z</time></trkpt><trkpt lat="42.2031017" lon="12.8933533"><ele>572.0</ele><time>2026-04-20T07:49:50.319Z</time></trkpt><trkpt lat="42.2031017" lon="12.8935717"><ele>572.0</ele><time>2026-04-20T07:49:51.319Z</time></trkpt><trkpt lat="42.2031033" lon="12.8937883"><ele>573.25</ele><time>2026-04-20T07:49:52.319Z</time></trkpt><trkpt lat="42.2031133" lon="12.8939867"><ele>574.5</ele><time>2026-04-20T07:49:53.318Z</time></trkpt><trkpt lat="42.203125" lon="12.8941583"><ele>575.75</ele><time>2026-04-20T07:49:54.316Z</time></trkpt><trkpt lat="42.2031317" lon="12.894295"><ele>577.0</ele><time>2026-04-20T07:49:55.315Z</time></trkpt><trkpt lat="42.2031333" lon="12.8943983"><ele>577.5</ele><time>2026-04-20T07:49:56.319Z</time></trkpt><trkpt lat="42.2031283" lon="12.8944883"><ele>578.0</ele><time>2026-04-20T07:49:57.32Z</time></trkpt><trkpt lat="42.203125" lon="12.8945833"><ele>578.5</ele><time>2026-04-20T07:49:58.318Z</time></trkpt><trkpt lat="42.20313" lon="12.8946933"><ele>579.0</ele><time>2026-04-20T07:49:59.319Z</time></trkpt><trkpt lat="42.2031417" lon="12.89482"><ele>579.5</ele><time>2026-04-20T07:50:00.319Z</time></trkpt><trkpt lat="42.2031617" lon="12.89496"><ele>580.0</ele><time>2026-04-20T07:50:01.316Z</time></trkpt><trkpt lat="42.2031867" lon="12.8951033"><ele>583.4</ele><time>2026-04-20T07:50:02.319Z</time></trkpt><trkpt lat="42.2032167" lon="12.8952367"><ele>586.8</ele><time>2026-04-20T07:50:03.319Z</time></trkpt><trkpt lat="42.2032717" lon="12.89535"><ele>590.2</ele><time>2026-04-20T07:50:04.316Z</time></trkpt><trkpt lat="42.203355" lon="12.8954533"><ele>593.6</ele><time>2026-04-20T07:50:05.319Z</time></trkpt><trkpt lat="42.20345" lon="12.8955333"><ele>597.0</ele><time>2026-04-20T07:50:06.318Z</time></trkpt><trkpt lat="42.2035567" lon="12.8955867"><ele>597.0</ele><time>2026-04-20T07:50:07.319Z</time></trkpt><trkpt lat="42.2036733" lon="12.89562"><ele>597.0</ele><time>2026-04-20T07:50:08.319Z</time></trkpt><trkpt lat="42.2037933" lon="12.895635"><ele>597.0</ele><time>2026-04-20T07:50:09.318Z</time></trkpt><trkpt lat="42.203905" lon="12.8956133"><ele>597.0</ele><time>2026-04-20T07:50:10.319Z</time></trkpt><trkpt lat="42.2040133" lon="12.895545"><ele>598.0</ele><time>2026-04-20T07:50:11.319Z</time></trkpt><trkpt lat="42.204115" lon="12.8954383"><ele>599.0</ele><time>2026-04-20T07:50:12.319Z</time></trkpt><trkpt lat="42.204215" lon="12.8952917"><ele>600.0</ele><time>2026-04-20T07:50:13.318Z</time></trkpt><trkpt lat="42.2043317" lon="12.8951283"><ele>601.0</ele><time>2026-04-20T07:50:14.318Z</time></trkpt><trkpt lat="42.20446" lon="12.8949833"><ele>604.0</ele><time>2026-04-20T07:50:15.319Z</time></trkpt><trkpt lat="42.204605" lon="12.8948583"><ele>607.0</ele><time>2026-04-20T07:50:16.318Z</time></trkpt><trkpt lat="42.2047683" lon="12.8947417"><ele>610.0</ele><time>2026-04-20T07:50:17.32Z</time></trkpt><trkpt lat="42.2049283" lon="12.8946333"><ele>610.0</ele><time>2026-04-20T07:50:18.318Z</time></trkpt><trkpt lat="42.2050783" lon="12.8945333"><ele>610.0</ele><time>2026-04-20T07:50:19.319Z</time></trkpt><trkpt lat="42.20522" lon="12.89441"><ele>610.0</ele><time>2026-04-20T07:50:20.319Z</time></trkpt><trkpt lat="42.2053417" lon="12.8942567"><ele>606.3333333333334</ele><time>2026-04-20T07:50:21.319Z</time></trkpt><trkpt lat="42.2054583" lon="12.8940633"><ele>602.6666666666666</ele><time>2026-04-20T07:50:22.319Z</time></trkpt><trkpt lat="42.205565" lon="12.8938617"><ele>599.0</ele><time>2026-04-20T07:50:23.319Z</time></trkpt><trkpt lat="42.2056633" lon="12.8936833"><ele>603.3333333333333</ele><time>2026-04-20T07:50:24.319Z</time></trkpt><trkpt lat="42.2057783" lon="12.8935317"><ele>607.6666666666666</ele><time>2026-04-20T07:50:25.319Z</time></trkpt><trkpt lat="42.2059117" lon="12.8933967"><ele>612.0</ele><time>2026-04-20T07:50:26.319Z</time></trkpt><trkpt lat="42.20606" lon="12.8932717"><ele>612.0</ele><time>2026-04-20T07:50:27.318Z</time></trkpt><trkpt lat="42.2062133" lon="12.8931667"><ele>612.0</ele><time>2026-04-20T07:50:28.319Z</time></trkpt><trkpt lat="42.2063633" lon="12.89309"><ele>612.0</ele><time>2026-04-20T07:50:29.32Z</time></trkpt><trkpt lat="42.2065167" lon="12.893035"><ele>617.0</ele><time>2026-04-20T07:50:30.318Z</time></trkpt><trkpt lat="42.2066833" lon="12.8930117"><ele>622.0</ele><time>2026-04-20T07:50:31.319Z</time></trkpt><trkpt lat="42.2068483" lon="12.8930183"><ele>627.0</ele><time>2026-04-20T07:50:32.319Z</time></trkpt><trkpt lat="42.2070117" lon="12.8930417"><ele>627.0</ele><time>2026-04-20T07:50:33.315Z</time></trkpt><trkpt lat="42.207185" lon="12.8931133"><ele>627.0</ele><time>2026-04-20T07:50:34.316Z</time></trkpt><trkpt lat="42.2073617" lon="12.8931967"><ele>627.0</ele><time>2026-04-20T07:50:35.318Z</time></trkpt><trkpt lat="42.207525" lon="12.8932617"><ele>628.25</ele><time>2026-04-20T07:50:36.316Z</time></trkpt><trkpt lat="42.2076533" lon="12.8933283"><ele>629.5</ele><time>2026-04-20T07:50:37.32Z</time></trkpt><trkpt lat="42.2077533" lon="12.89341"><ele>630.75</ele><time>2026-04-20T07:50:38.317Z</time></trkpt><trkpt lat="42.2078433" lon="12.893515"><ele>632.0</ele><time>2026-04-20T07:50:39.319Z</time></trkpt><trkpt lat="42.2079083" lon="12.8936633"><ele>635.5</ele><time>2026-04-20T07:50:40.319Z</time></trkpt><trkpt lat="42.207955" lon="12.8938333"><ele>639.0</ele><time>2026-04-20T07:50:41.319Z</time></trkpt><trkpt lat="42.2079717" lon="12.89402"><ele>642.5</ele><time>2026-04-20T07:50:42.32Z</time></trkpt><trkpt lat="42.2079567" lon="12.8941967"><ele>646.0</ele><time>2026-04-20T07:50:43.319Z</time></trkpt><trkpt lat="42.2079133" lon="12.8943667"><ele>648.0</ele><time>2026-04-20T07:50:44.319Z</time></trkpt><trkpt lat="42.2078417" lon="12.8945433"><ele>650.0</ele><time>2026-04-20T07:50:45.32Z</time></trkpt><trkpt lat="42.2077617" lon="12.8947233"><ele>652.0</ele><time>2026-04-20T07:50:46.32Z</time></trkpt><trkpt lat="42.2077017" lon="12.894885"><ele>654.0</ele><time>2026-04-20T07:50:47.32Z</time></trkpt><trkpt lat="42.20767" lon="12.89503"><ele>656.4000000000001</ele><time>2026-04-20T07:50:48.32Z</time></trkpt><trkpt lat="42.2076617" lon="12.89516"><ele>658.8</ele><time>2026-04-20T07:50:49.32Z</time></trkpt><trkpt lat="42.2076833" lon="12.8952767"><ele>661.2</ele><time>2026-04-20T07:50:50.32Z</time></trkpt><trkpt lat="42.2077267" lon="12.8953867"><ele>663.5999999999999</ele><time>2026-04-20T07:50:51.318Z</time></trkpt><trkpt lat="42.2078017" lon="12.8954917"><ele>666.0</ele><time>2026-04-20T07:50:52.32Z</time></trkpt><trkpt lat="42.2078883" lon="12.8956133"><ele>666.0</ele><time>2026-04-20T07:50:53.32Z</time></trkpt><trkpt lat="42.2079767" lon="12.8957533"><ele>666.0</ele><time>2026-04-20T07:50:54.32Z</time></trkpt><trkpt lat="42.2080533" lon="12.8958917"><ele>666.0</ele><time>2026-04-20T07:50:55.317Z</time></trkpt><trkpt lat="42.2081083" lon="12.8960467"><ele>666.0</ele><time>2026-04-20T07:50:56.32Z</time></trkpt><trkpt lat="42.2081467" lon="12.8962233"><ele>665.0</ele><time>2026-04-20T07:50:57.317Z</time></trkpt><trkpt lat="42.2081717" lon="12.8964233"><ele>664.0</ele><time>2026-04-20T07:50:58.321Z</time></trkpt><trkpt lat="42.2081933" lon="12.89664"><ele>663.0</ele><time>2026-04-20T07:50:59.32Z</time></trkpt><trkpt lat="42.2082133" lon="12.8968533"><ele>664.5</ele><time>2026-04-20T07:51:00.319Z</time></trkpt><trkpt lat="42.2082183" lon="12.897035"><ele>666.0</ele><time>2026-04-20T07:51:01.32Z</time></trkpt><trkpt lat="42.2082017" lon="12.8971917"><ele>667.5</ele><time>2026-04-20T07:51:02.321Z</time></trkpt><trkpt lat="42.208165" lon="12.8973433"><ele>669.0</ele><time>2026-04-20T07:51:03.32Z</time></trkpt><trkpt lat="42.2081017" lon="12.89749"><ele>673.25</ele><time>2026-04-20T07:51:04.32Z</time></trkpt><trkpt lat="42.208015" lon="12.8976317"><ele>677.5</ele><time>2026-04-20T07:51:05.32Z</time></trkpt><trkpt lat="42.207905" lon="12.8977717"><ele>681.75</ele><time>2026-04-20T07:51:06.32Z</time></trkpt><trkpt lat="42.207785" lon="12.8979183"><ele>686.0</ele><time>2026-04-20T07:51:07.32Z</time></trkpt><trkpt lat="42.2076717" lon="12.8980583"><ele>686.0</ele><time>2026-04-20T07:51:08.32Z</time></trkpt><trkpt lat="42.207575" lon="12.89819"><ele>686.0</ele><time>2026-04-20T07:51:09.32Z</time></trkpt><trkpt lat="42.2074883" lon="12.89833"><ele>686.0</ele><time>2026-04-20T07:51:10.32Z</time></trkpt><trkpt lat="42.2074167" lon="12.8984817"><ele>686.0</ele><time>2026-04-20T07:51:11.32Z</time></trkpt><trkpt lat="42.20736" lon="12.8986467"><ele>685.75</ele><time>2026-04-20T07:51:12.319Z</time></trkpt><trkpt lat="42.20732" lon="12.8988267"><ele>685.5</ele><time>2026-04-20T07:51:13.32Z</time></trkpt><trkpt lat="42.2072983" lon="12.899025"><ele>685.25</ele><time>2026-04-20T07:51:14.321Z</time></trkpt><trkpt lat="42.2072867" lon="12.8992267"><ele>685.0</ele><time>2026-04-20T07:51:15.32Z</time></trkpt><trkpt lat="42.2072767" lon="12.8994267"><ele>683.6666666666667</ele><time>2026-04-20T07:51:16.316Z</time></trkpt><trkpt lat="42.2072767" lon="12.8996267"><ele>682.3333333333334</ele><time>2026-04-20T07:51:17.32Z</time></trkpt><trkpt lat="42.20728" lon="12.8998333"><ele>681.0</ele><time>2026-04-20T07:51:18.417Z</time></trkpt><trkpt lat="42.2072683" lon="12.9000367"><ele>683.25</ele><time>2026-04-20T07:51:19.317Z</time></trkpt><trkpt lat="42.2072333" lon="12.9002333"><ele>685.5</ele><time>2026-04-20T07:51:20.317Z</time></trkpt><trkpt lat="42.2071783" lon="12.90042"><ele>687.75</ele><time>2026-04-20T07:51:21.317Z</time></trkpt><trkpt lat="42.20711" lon="12.9006"><ele>690.0</ele><time>2026-04-20T07:51:22.317Z</time></trkpt><trkpt lat="42.20704" lon="12.900775"><ele>692.75</ele><time>2026-04-20T07:51:23.318Z</time></trkpt><trkpt lat="42.206965" lon="12.9009433"><ele>695.5</ele><time>2026-04-20T07:51:24.316Z</time></trkpt><trkpt lat="42.2068933" lon="12.9011133"><ele>698.25</ele><time>2026-04-20T07:51:25.317Z</time></trkpt><trkpt lat="42.20683" lon="12.901285"><ele>701.0</ele><time>2026-04-20T07:51:26.318Z</time></trkpt><trkpt lat="42.2067783" lon="12.9014683"><ele>701.0</ele><time>2026-04-20T07:51:27.318Z</time></trkpt><trkpt lat="42.20674" lon="12.90166"><ele>701.0</ele><time>2026-04-20T07:51:28.316Z</time></trkpt><trkpt lat="42.20672" lon="12.9018567"><ele>701.0</ele><time>2026-04-20T07:51:29.317Z</time></trkpt><trkpt lat="42.2067167" lon="12.9020617"><ele>701.0</ele><time>2026-04-20T07:51:30.32Z</time></trkpt><trkpt lat="42.20672" lon="12.902275"><ele>705.3333333333333</ele><time>2026-04-20T07:51:31.32Z</time></trkpt><trkpt lat="42.20672" lon="12.9024883"><ele>709.6666666666666</ele><time>2026-04-20T07:51:32.319Z</time></trkpt><trkpt lat="42.2067133" lon="12.9027017"><ele>714.0</ele><time>2026-04-20T07:51:33.319Z</time></trkpt><trkpt lat="42.206695" lon="12.902925"><ele>716.3333333333334</ele><time>2026-04-20T07:51:34.32Z</time></trkpt><trkpt lat="42.2066733" lon="12.9031583"><ele>718.6666666666667</ele><time>2026-04-20T07:51:35.32Z</time></trkpt><trkpt lat="42.2066467" lon="12.90339"><ele>721.0</ele><time>2026-04-20T07:51:36.319Z</time></trkpt><trkpt lat="42.206625" lon="12.9036"><ele>722.25</ele><time>2026-04-20T07:51:37.319Z</time></trkpt><trkpt lat="42.2066117" lon="12.903785"><ele>723.5</ele><time>2026-04-20T07:51:38.32Z</time></trkpt><trkpt lat="42.206615" lon="12.9039517"><ele>724.75</ele><time>2026-04-20T07:51:39.32Z</time></trkpt><trkpt lat="42.206645" lon="12.9041183"><ele>726.0</ele><time>2026-04-20T07:51:40.319Z</time></trkpt><trkpt lat="42.2066967" lon="12.904285"><ele>726.25</ele><time>2026-04-20T07:51:41.319Z</time></trkpt><trkpt lat="42.2067733" lon="12.9044317"><ele>726.5</ele><time>2026-04-20T07:51:42.32Z</time></trkpt><trkpt lat="42.20687" lon="12.9045533"><ele>726.75</ele><time>2026-04-20T07:51:43.32Z</time></trkpt><trkpt lat="42.20699" lon="12.90465"><ele>727.0</ele><time>2026-04-20T07:51:44.32Z</time></trkpt><trkpt lat="42.2071283" lon="12.9047233"><ele>727.0</ele><time>2026-04-20T07:51:45.319Z</time></trkpt><trkpt lat="42.2072667" lon="12.90478"><ele>727.0</ele><time>2026-04-20T07:51:46.319Z</time></trkpt><trkpt lat="42.2073933" lon="12.9048283"><ele>727.0</ele><time>2026-04-20T07:51:47.321Z</time></trkpt><trkpt lat="42.2075067" lon="12.9048867"><ele>727.0</ele><time>2026-04-20T07:51:48.32Z</time></trkpt><trkpt lat="42.20759" lon="12.904965"><ele>729.8</ele><time>2026-04-20T07:51:49.318Z</time></trkpt><trkpt lat="42.2076533" lon="12.9050617"><ele>732.6</ele><time>2026-04-20T07:51:50.317Z</time></trkpt><trkpt lat="42.20768" lon="12.9051833"><ele>735.4</ele><time>2026-04-20T07:51:51.318Z</time></trkpt><trkpt lat="42.207685" lon="12.9053267"><ele>738.1999999999999</ele><time>2026-04-20T07:51:52.318Z</time></trkpt><trkpt lat="42.2076717" lon="12.90547"><ele>741.0</ele><time>2026-04-20T07:51:53.317Z</time></trkpt><trkpt lat="42.207655" lon="12.9056"><ele>741.4</ele><time>2026-04-20T07:51:54.318Z</time></trkpt><trkpt lat="42.2076567" lon="12.9057233"><ele>741.8</ele><time>2026-04-20T07:51:55.318Z</time></trkpt><trkpt lat="42.2076833" lon="12.9058333"><ele>742.1999999999999</ele><time>2026-04-20T07:51:56.318Z</time></trkpt><trkpt lat="42.2077383" lon="12.9059333"><ele>742.5999999999999</ele><time>2026-04-20T07:51:57.318Z</time></trkpt><trkpt lat="42.207815" lon="12.9060167"><ele>743.0</ele><time>2026-04-20T07:51:58.318Z</time></trkpt><trkpt lat="42.2078983" lon="12.9060933"><ele>746.25</ele><time>2026-04-20T07:51:59.319Z</time></trkpt><trkpt lat="42.2079767" lon="12.9061817"><ele>749.5</ele><time>2026-04-20T07:52:00.317Z</time></trkpt><trkpt lat="42.2080533" lon="12.906295"><ele>752.75</ele><time>2026-04-20T07:52:01.316Z</time></trkpt><trkpt lat="42.2081233" lon="12.90642"><ele>756.0</ele><time>2026-04-20T07:52:02.317Z</time></trkpt><trkpt lat="42.2081917" lon="12.906565"><ele>757.75</ele><time>2026-04-20T07:52:03.318Z</time></trkpt><trkpt lat="42.2082583" lon="12.9067117"><ele>759.5</ele><time>2026-04-20T07:52:04.318Z</time></trkpt><trkpt lat="42.2083217" lon="12.9068483"><ele>761.25</ele><time>2026-04-20T07:52:05.318Z</time></trkpt><trkpt lat="42.2083883" lon="12.907005"><ele>763.0</ele><time>2026-04-20T07:52:06.317Z</time></trkpt><trkpt lat="42.2084517" lon="12.9071683"><ele>764.25</ele><time>2026-04-20T07:52:07.318Z</time></trkpt><trkpt lat="42.2085183" lon="12.90733"><ele>765.5</ele><time>2026-04-20T07:52:08.317Z</time></trkpt><trkpt lat="42.2085967" lon="12.9074833"><ele>766.75</ele><time>2026-04-20T07:52:09.317Z</time></trkpt><trkpt lat="42.2086817" lon="12.9076433"><ele>768.0</ele><time>2026-04-20T07:52:10.318Z</time></trkpt><trkpt lat="42.2087783" lon="12.907785"><ele>769.25</ele><time>2026-04-20T07:52:11.318Z</time></trkpt><trkpt lat="42.20889" lon="12.9079033"><ele>770.5</ele><time>2026-04-20T07:52:12.318Z</time></trkpt><trkpt lat="42.2090117" lon="12.908"><ele>771.75</ele><time>2026-04-20T07:52:13.317Z</time></trkpt><trkpt lat="42.20915" lon="12.9080933"><ele>773.0</ele><time>2026-04-20T07:52:14.318Z</time></trkpt><trkpt lat="42.2092967" lon="12.9081983"><ele>773.0</ele><time>2026-04-20T07:52:15.318Z</time></trkpt><trkpt lat="42.20946" lon="12.908305"><ele>773.0</ele><time>2026-04-20T07:52:16.318Z</time></trkpt><trkpt lat="42.2096383" lon="12.9084033"><ele>773.0</ele><time>2026-04-20T07:52:17.319Z</time></trkpt><trkpt lat="42.20981" lon="12.9084933"><ele>777.0</ele><time>2026-04-20T07:52:18.32Z</time></trkpt><trkpt lat="42.20996" lon="12.9085783"><ele>781.0</ele><time>2026-04-20T07:52:19.316Z</time></trkpt><trkpt lat="42.2100933" lon="12.9086717"><ele>785.0</ele><time>2026-04-20T07:52:20.319Z</time></trkpt><trkpt lat="42.21022" lon="12.908785"><ele>785.0</ele><time>2026-04-20T07:52:21.317Z</time></trkpt><trkpt lat="42.21033" lon="12.9089233"><ele>785.0</ele><time>2026-04-20T07:52:22.317Z</time></trkpt><trkpt lat="42.21043" lon="12.9090783"><ele>785.0</ele><time>2026-04-20T07:52:23.317Z</time></trkpt><trkpt lat="42.2105367" lon="12.9092483"><ele>789.3333333333334</ele><time>2026-04-20T07:52:24.318Z</time></trkpt><trkpt lat="42.210655" lon="12.909425"><ele>793.6666666666667</ele><time>2026-04-20T07:52:25.316Z</time></trkpt><trkpt lat="42.21079" lon="12.90961"><ele>798.0</ele><time>2026-04-20T07:52:26.317Z</time></trkpt><trkpt lat="42.2109383" lon="12.9097867"><ele>798.0</ele><time>2026-04-20T07:52:27.318Z</time></trkpt><trkpt lat="42.21107" lon="12.9099383"><ele>798.0</ele><time>2026-04-20T07:52:28.318Z</time></trkpt><trkpt lat="42.2111833" lon="12.9100633"><ele>798.0</ele><time>2026-04-20T07:52:29.316Z</time></trkpt><trkpt lat="42.211285" lon="12.910175"><ele>799.8</ele><time>2026-04-20T07:52:30.319Z</time></trkpt><trkpt lat="42.211385" lon="12.910245"><ele>801.5999999999999</ele><time>2026-04-20T07:52:31.319Z</time></trkpt><trkpt lat="42.21148" lon="12.9102967"><ele>803.4000000000001</ele><time>2026-04-20T07:52:32.317Z</time></trkpt><trkpt lat="42.2115833" lon="12.9103317"><ele>805.2</ele><time>2026-04-20T07:52:33.32Z</time></trkpt><trkpt lat="42.2116783" lon="12.9103383"><ele>807.0</ele><time>2026-04-20T07:52:34.32Z</time></trkpt><trkpt lat="42.2117667" lon="12.9103017"><ele>807.0</ele><time>2026-04-20T07:52:35.317Z</time></trkpt><trkpt lat="42.2118567" lon="12.9102417"><ele>807.0</ele><time>2026-04-20T07:52:36.32Z</time></trkpt><trkpt lat="42.211935" lon="12.9101383"><ele>807.0</ele><time>2026-04-20T07:52:37.317Z</time></trkpt><trkpt lat="42.21201" lon="12.90999"><ele>807.0</ele><time>2026-04-20T07:52:38.318Z</time></trkpt><trkpt lat="42.2120983" lon="12.9098167"><ele>805.6666666666667</ele><time>2026-04-20T07:52:39.319Z</time></trkpt><trkpt lat="42.2122" lon="12.9096233"><ele>804.3333333333334</ele><time>2026-04-20T07:52:40.319Z</time></trkpt><trkpt lat="42.2123067" lon="12.9094133"><ele>803.0</ele><time>2026-04-20T07:52:41.32Z</time></trkpt><trkpt lat="42.2124067" lon="12.909195"><ele>803.0</ele><time>2026-04-20T07:52:42.319Z</time></trkpt><trkpt lat="42.2125133" lon="12.9090133"><ele>803.0</ele><time>2026-04-20T07:52:43.32Z</time></trkpt><trkpt lat="42.2126133" lon="12.908895"><ele>803.0</ele><time>2026-04-20T07:52:44.32Z</time></trkpt><trkpt lat="42.21272" lon="12.9088283"><ele>803.0</ele><time>2026-04-20T07:52:45.319Z</time></trkpt><trkpt lat="42.2128267" lon="12.9087817"><ele>803.0</ele><time>2026-04-20T07:52:46.32Z</time></trkpt><trkpt lat="42.2129283" lon="12.9087433"><ele>803.0</ele><time>2026-04-20T07:52:47.319Z</time></trkpt><trkpt lat="42.2130067" lon="12.908675"><ele>803.0</ele><time>2026-04-20T07:52:48.316Z</time></trkpt><trkpt lat="42.2130683" lon="12.9085683"><ele>803.0</ele><time>2026-04-20T07:52:49.316Z</time></trkpt><trkpt lat="42.2131167" lon="12.90843"><ele>803.0</ele><time>2026-04-20T07:52:50.318Z</time></trkpt><trkpt lat="42.2131417" lon="12.9082483"><ele>807.0</ele><time>2026-04-20T07:52:51.317Z</time></trkpt><trkpt lat="42.21318" lon="12.9080633"><ele>811.0</ele><time>2026-04-20T07:52:52.317Z</time></trkpt><trkpt lat="42.21322" lon="12.90789"><ele>815.0</ele><time>2026-04-20T07:52:53.317Z</time></trkpt><trkpt lat="42.2132867" lon="12.907745"><ele>819.0</ele><time>2026-04-20T07:52:54.317Z</time></trkpt><trkpt lat="42.21337" lon="12.9076333"><ele>816.25</ele><time>2026-04-20T07:52:55.317Z</time></trkpt><trkpt lat="42.2134767" lon="12.9075567"><ele>813.5</ele><time>2026-04-20T07:52:56.317Z</time></trkpt><trkpt lat="42.2136117" lon="12.907505"><ele>810.75</ele><time>2026-04-20T07:52:57.317Z</time></trkpt><trkpt lat="42.21377" lon="12.90746"><ele>808.0</ele><time>2026-04-20T07:52:58.317Z</time></trkpt><trkpt lat="42.2139367" lon="12.907395"><ele>815.0</ele><time>2026-04-20T07:52:59.317Z</time></trkpt><trkpt lat="42.2140983" lon="12.9073133"><ele>822.0</ele><time>2026-04-20T07:53:00.318Z</time></trkpt><trkpt lat="42.2142767" lon="12.9072283"><ele>829.0</ele><time>2026-04-20T07:53:01.32Z</time></trkpt><trkpt lat="42.2144633" lon="12.90715"><ele>829.0</ele><time>2026-04-20T07:53:02.319Z</time></trkpt><trkpt lat="42.214665" lon="12.9070883"><ele>829.0</ele><time>2026-04-20T07:53:03.32Z</time></trkpt><trkpt lat="42.2148733" lon="12.9070467"><ele>829.0</ele><time>2026-04-20T07:53:04.32Z</time></trkpt><trkpt lat="42.215075" lon="12.9070133"><ele>832.6666666666666</ele><time>2026-04-20T07:53:05.319Z</time></trkpt><trkpt lat="42.2152767" lon="12.9069667"><ele>836.3333333333333</ele><time>2026-04-20T07:53:06.317Z</time></trkpt><trkpt lat="42.2154683" lon="12.9069317"><ele>840.0</ele><time>2026-04-20T07:53:07.319Z</time></trkpt><trkpt lat="42.215635" lon="12.90691"><ele>842.0</ele><time>2026-04-20T07:53:08.319Z</time></trkpt><trkpt lat="42.21579" lon="12.90693"><ele>844.0</ele><time>2026-04-20T07:53:09.32Z</time></trkpt><trkpt lat="42.215935" lon="12.9069833"><ele>846.0</ele><time>2026-04-20T07:53:10.318Z</time></trkpt><trkpt lat="42.2160667" lon="12.90703"><ele>848.0</ele><time>2026-04-20T07:53:11.318Z</time></trkpt><trkpt lat="42.2161983" lon="12.90705"><ele>848.0</ele><time>2026-04-20T07:53:12.316Z</time></trkpt><trkpt lat="42.21633" lon="12.90703"><ele>848.0</ele><time>2026-04-20T07:53:13.32Z</time></trkpt><trkpt lat="42.2164783" lon="12.9069533"><ele>848.0</ele><time>2026-04-20T07:53:14.32Z</time></trkpt><trkpt lat="42.2166117" lon="12.9068767"><ele>848.0</ele><time>2026-04-20T07:53:15.32Z</time></trkpt><trkpt lat="42.2167283" lon="12.9068333"><ele>848.2</ele><time>2026-04-20T07:53:16.32Z</time></trkpt><trkpt lat="42.2168383" lon="12.9068433"><ele>848.4</ele><time>2026-04-20T07:53:17.319Z</time></trkpt><trkpt lat="42.2169333" lon="12.9068867"><ele>848.6</ele><time>2026-04-20T07:53:18.317Z</time></trkpt><trkpt lat="42.2170117" lon="12.90697"><ele>848.8000000000001</ele><time>2026-04-20T07:53:19.317Z</time></trkpt><trkpt lat="42.2170783" lon="12.9070817"><ele>849.0</ele><time>2026-04-20T07:53:20.317Z</time></trkpt><trkpt lat="42.2171383" lon="12.9072117"><ele>849.0</ele><time>2026-04-20T07:53:21.317Z</time></trkpt><trkpt lat="42.2172" lon="12.90735"><ele>849.0</ele><time>2026-04-20T07:53:22.32Z</time></trkpt><trkpt lat="42.217285" lon="12.907485"><ele>849.0</ele><time>2026-04-20T07:53:23.319Z</time></trkpt><trkpt lat="42.2173917" lon="12.90763"><ele>849.0</ele><time>2026-04-20T07:53:24.32Z</time></trkpt><trkpt lat="42.217515" lon="12.90778"><ele>852.75</ele><time>2026-04-20T07:53:25.316Z</time></trkpt><trkpt lat="42.2176367" lon="12.90791"><ele>856.5</ele><time>2026-04-20T07:53:26.316Z</time></trkpt><trkpt lat="42.2177567" lon="12.9080017"><ele>860.25</ele><time>2026-04-20T07:53:27.318Z</time></trkpt><trkpt lat="42.2178817" lon="12.9080617"><ele>864.0</ele><time>2026-04-20T07:53:28.315Z</time></trkpt><trkpt lat="42.21802" lon="12.9080983"><ele>862.5</ele><time>2026-04-20T07:53:29.318Z</time></trkpt><trkpt lat="42.2181717" lon="12.9081067"><ele>861.0</ele><time>2026-04-20T07:53:30.319Z</time></trkpt><trkpt lat="42.2183217" lon="12.9081167"><ele>859.5</ele><time>2026-04-20T07:53:31.32Z</time></trkpt><trkpt lat="42.2184517" lon="12.9081617"><ele>858.0</ele><time>2026-04-20T07:53:32.32Z</time></trkpt><trkpt lat="42.2185633" lon="12.9082533"><ele>858.0</ele><time>2026-04-20T07:53:33.317Z</time></trkpt><trkpt lat="42.2186683" lon="12.9083817"><ele>858.0</ele><time>2026-04-20T07:53:34.317Z</time></trkpt><trkpt lat="42.2187717" lon="12.9085483"><ele>858.0</ele><time>2026-04-20T07:53:35.32Z</time></trkpt><trkpt lat="42.2188883" lon="12.9087433"><ele>861.0</ele><time>2026-04-20T07:53:36.318Z</time></trkpt><trkpt lat="42.2190283" lon="12.9089433"><ele>864.0</ele><time>2026-04-20T07:53:37.315Z</time></trkpt><trkpt lat="42.2191783" lon="12.9091383"><ele>867.0</ele><time>2026-04-20T07:53:38.317Z</time></trkpt><trkpt lat="42.219315" lon="12.9093283"><ele>870.0</ele><time>2026-04-20T07:53:39.317Z</time></trkpt><trkpt lat="42.21943" lon="12.909515"><ele>873.0</ele><time>2026-04-20T07:53:40.316Z</time></trkpt><trkpt lat="42.2195067" lon="12.9097033"><ele>876.0</ele><time>2026-04-20T07:53:41.317Z</time></trkpt><trkpt lat="42.21956" lon="12.90989"><ele>877.6666666666667</ele><time>2026-04-20T07:53:42.317Z</time></trkpt><trkpt lat="42.21959" lon="12.910085"><ele>879.3333333333334</ele><time>2026-04-20T07:53:43.319Z</time></trkpt><trkpt lat="42.2196" lon="12.9103133"><ele>881.0</ele><time>2026-04-20T07:53:44.319Z</time></trkpt><trkpt lat="42.2196267" lon="12.9105483"><ele>881.0</ele><time>2026-04-20T07:53:45.32Z</time></trkpt><trkpt lat="42.2196583" lon="12.9107967"><ele>881.0</ele><time>2026-04-20T07:53:46.316Z</time></trkpt><trkpt lat="42.21968" lon="12.9110467"><ele>881.0</ele><time>2026-04-20T07:53:47.317Z</time></trkpt><trkpt lat="42.2197017" lon="12.9112833"><ele>880.6666666666667</ele><time>2026-04-20T07:53:48.318Z</time></trkpt><trkpt lat="42.2197317" lon="12.9114967"><ele>880.3333333333333</ele><time>2026-04-20T07:53:49.317Z</time></trkpt><trkpt lat="42.2197733" lon="12.9116967"><ele>880.0</ele><time>2026-04-20T07:53:50.317Z</time></trkpt><trkpt lat="42.2198417" lon="12.911895"><ele>880.0</ele><time>2026-04-20T07:53:51.319Z</time></trkpt><trkpt lat="42.219935" lon="12.9121133"><ele>880.0</ele><time>2026-04-20T07:53:52.317Z</time></trkpt><trkpt lat="42.220045" lon="12.912345"><ele>880.0</ele><time>2026-04-20T07:53:53.317Z</time></trkpt><trkpt lat="42.2201533" lon="12.9125767"><ele>885.6666666666666</ele><time>2026-04-20T07:53:54.318Z</time></trkpt><trkpt lat="42.2202567" lon="12.9127917"><ele>891.3333333333333</ele><time>2026-04-20T07:53:55.317Z</time></trkpt><trkpt lat="42.2203533" lon="12.9129767"><ele>897.0</ele><time>2026-04-20T07:53:56.316Z</time></trkpt><trkpt lat="42.220435" lon="12.91314"><ele>897.0</ele><time>2026-04-20T07:53:57.318Z</time></trkpt><trkpt lat="42.22051" lon="12.9132783"><ele>897.0</ele><time>2026-04-20T07:53:58.317Z</time></trkpt><trkpt lat="42.2205817" lon="12.913395"><ele>897.0</ele><time>2026-04-20T07:53:59.319Z</time></trkpt><trkpt lat="42.2206617" lon="12.9134717"><ele>897.0</ele><time>2026-04-20T07:54:00.317Z</time></trkpt><trkpt lat="42.2207467" lon="12.913515"><ele>897.0</ele><time>2026-04-20T07:54:01.32Z</time></trkpt><trkpt lat="42.2208483" lon="12.9135183"><ele>898.0</ele><time>2026-04-20T07:54:02.319Z</time></trkpt><trkpt lat="42.2209883" lon="12.9134733"><ele>899.0</ele><time>2026-04-20T07:54:03.32Z</time></trkpt><trkpt lat="42.2211317" lon="12.9134467"><ele>900.0</ele><time>2026-04-20T07:54:04.319Z</time></trkpt><trkpt lat="42.221275" lon="12.91345"><ele>901.0</ele><time>2026-04-20T07:54:05.318Z</time></trkpt><trkpt lat="42.2214367" lon="12.91349"><ele>902.6666666666666</ele><time>2026-04-20T07:54:06.32Z</time></trkpt><trkpt lat="42.2215983" lon="12.913525"><ele>904.3333333333333</ele><time>2026-04-20T07:54:07.32Z</time></trkpt><trkpt lat="42.2217783" lon="12.91354"><ele>906.0</ele><time>2026-04-20T07:54:08.32Z</time></trkpt><trkpt lat="42.221965" lon="12.9135267"><ele>906.0</ele><time>2026-04-20T07:54:09.32Z</time></trkpt><trkpt lat="42.2221667" lon="12.913505"><ele>906.0</ele><time>2026-04-20T07:54:10.32Z</time></trkpt><trkpt lat="42.2223767" lon="12.9134967"><ele>906.0</ele><time>2026-04-20T07:54:11.32Z</time></trkpt><trkpt lat="42.2225683" lon="12.91349"><ele>905.0</ele><time>2026-04-20T07:54:12.32Z</time></trkpt><trkpt lat="42.2227333" lon="12.91346"><ele>904.0</ele><time>2026-04-20T07:54:13.32Z</time></trkpt><trkpt lat="42.2228817" lon="12.91339"><ele>903.0</ele><time>2026-04-20T07:54:14.319Z</time></trkpt><trkpt lat="42.2230067" lon="12.9132867"><ele>901.5999999999999</ele><time>2026-04-20T07:54:15.317Z</time></trkpt><trkpt lat="42.2231017" lon="12.9131667"><ele>900.1999999999999</ele><time>2026-04-20T07:54:16.316Z</time></trkpt><trkpt lat="42.22318" lon="12.9130817"><ele>898.8</ele><time>2026-04-20T07:54:17.317Z</time></trkpt><trkpt lat="42.2232417" lon="12.9130333"><ele>897.4</ele><time>2026-04-20T07:54:18.318Z</time></trkpt><trkpt lat="42.2233117" lon="12.9130167"><ele>896.0</ele><time>2026-04-20T07:54:19.319Z</time></trkpt><trkpt lat="42.2234217" lon="12.913135"><ele>896.0</ele><time>2026-04-20T07:54:21.319Z</time></trkpt><trkpt lat="42.2234683" lon="12.91331"><ele>896.0</ele><time>2026-04-20T07:54:22.318Z</time></trkpt><trkpt lat="42.22351" lon="12.9135017"><ele>896.0</ele><time>2026-04-20T07:54:23.319Z</time></trkpt><trkpt lat="42.2235783" lon="12.9136883"><ele>896.0</ele><time>2026-04-20T07:54:24.319Z</time></trkpt><trkpt lat="42.2236683" lon="12.9138717"><ele>897.6666666666667</ele><time>2026-04-20T07:54:25.32Z</time></trkpt><trkpt lat="42.2237767" lon="12.91408"><ele>899.3333333333333</ele><time>2026-04-20T07:54:26.32Z</time></trkpt><trkpt lat="42.22389" lon="12.91429"><ele>901.0</ele><time>2026-04-20T07:54:27.318Z</time></trkpt><trkpt lat="42.2240033" lon="12.9145183"><ele>901.0</ele><time>2026-04-20T07:54:28.317Z</time></trkpt><trkpt lat="42.2241067" lon="12.91475"><ele>901.0</ele><time>2026-04-20T07:54:29.317Z</time></trkpt><trkpt lat="42.2241933" lon="12.9149717"><ele>901.0</ele><time>2026-04-20T07:54:30.317Z</time></trkpt><trkpt lat="42.2242667" lon="12.915175"><ele>900.0</ele><time>2026-04-20T07:54:31.317Z</time></trkpt><trkpt lat="42.2243217" lon="12.9153833"><ele>899.0</ele><time>2026-04-20T07:54:32.321Z</time></trkpt><trkpt lat="42.224335" lon="12.9155933"><ele>898.0</ele><time>2026-04-20T07:54:33.321Z</time></trkpt><trkpt lat="42.22434" lon="12.91577"><ele>898.5999999999999</ele><time>2026-04-20T07:54:34.32Z</time></trkpt><trkpt lat="42.2243383" lon="12.9159383"><ele>899.1999999999999</ele><time>2026-04-20T07:54:35.32Z</time></trkpt><trkpt lat="42.224355" lon="12.91608"><ele>899.8</ele><time>2026-04-20T07:54:36.319Z</time></trkpt><trkpt lat="42.2244017" lon="12.9161967"><ele>900.4</ele><time>2026-04-20T07:54:37.32Z</time></trkpt><trkpt lat="42.2244733" lon="12.9162883"><ele>901.0</ele><time>2026-04-20T07:54:38.319Z</time></trkpt><trkpt lat="42.2245617" lon="12.9163417"><ele>901.0</ele><time>2026-04-20T07:54:39.32Z</time></trkpt><trkpt lat="42.2246817" lon="12.916365"><ele>901.0</ele><time>2026-04-20T07:54:40.318Z</time></trkpt><trkpt lat="42.2248317" lon="12.9163967"><ele>901.0</ele><time>2026-04-20T07:54:41.319Z</time></trkpt><trkpt lat="42.2250067" lon="12.91644"><ele>896.3333333333333</ele><time>2026-04-20T07:54:42.319Z</time></trkpt><trkpt lat="42.2251733" lon="12.9164767"><ele>891.6666666666667</ele><time>2026-04-20T07:54:43.318Z</time></trkpt><trkpt lat="42.2253217" lon="12.91653"><ele>887.0</ele><time>2026-04-20T07:54:44.32Z</time></trkpt><trkpt lat="42.2254583" lon="12.9166"><ele>887.0</ele><time>2026-04-20T07:54:45.316Z</time></trkpt><trkpt lat="42.2255883" lon="12.9166867"><ele>887.0</ele><time>2026-04-20T07:54:46.318Z</time></trkpt><trkpt lat="42.225705" lon="12.9167717"><ele>887.0</ele><time>2026-04-20T07:54:47.32Z</time></trkpt><trkpt lat="42.2258017" lon="12.9168817"><ele>887.0</ele><time>2026-04-20T07:54:48.317Z</time></trkpt><trkpt lat="42.2258817" lon="12.91704"><ele>882.0</ele><time>2026-04-20T07:54:49.32Z</time></trkpt><trkpt lat="42.2259517" lon="12.9172317"><ele>877.0</ele><time>2026-04-20T07:54:50.32Z</time></trkpt><trkpt lat="42.2260233" lon="12.91744"><ele>872.0</ele><time>2026-04-20T07:54:51.32Z</time></trkpt><trkpt lat="42.2261067" lon="12.91764"><ele>871.0</ele><time>2026-04-20T07:54:52.318Z</time></trkpt><trkpt lat="42.226205" lon="12.917805"><ele>870.0</ele><time>2026-04-20T07:54:53.318Z</time></trkpt><trkpt lat="42.2263117" lon="12.91794"><ele>869.0</ele><time>2026-04-20T07:54:54.317Z</time></trkpt><trkpt lat="42.22642" lon="12.9180533"><ele>868.0</ele><time>2026-04-20T07:54:55.316Z</time></trkpt><trkpt lat="42.2265117" lon="12.91814"><ele>866.6666666666666</ele><time>2026-04-20T07:54:56.319Z</time></trkpt><trkpt lat="42.2265817" lon="12.9182133"><ele>865.3333333333333</ele><time>2026-04-20T07:54:57.318Z</time></trkpt><trkpt lat="42.2266267" lon="12.91828"><ele>864.0</ele><time>2026-04-20T07:54:58.318Z</time></trkpt><trkpt lat="42.2266417" lon="12.9184217"><ele>862.6666666666667</ele><time>2026-04-20T07:55:00.317Z</time></trkpt><trkpt lat="42.226595" lon="12.9184817"><ele>861.3333333333334</ele><time>2026-04-20T07:55:01.32Z</time></trkpt><trkpt lat="42.2265017" lon="12.9185333"><ele>860.0</ele><time>2026-04-20T07:55:02.319Z</time></trkpt><trkpt lat="42.2264" lon="12.918585"><ele>860.0</ele><time>2026-04-20T07:55:03.32Z</time></trkpt><trkpt lat="42.2263017" lon="12.9186533"><ele>860.0</ele><time>2026-04-20T07:55:04.32Z</time></trkpt><trkpt lat="42.2262017" lon="12.9187533"><ele>860.0</ele><time>2026-04-20T07:55:05.32Z</time></trkpt><trkpt lat="42.2261233" lon="12.918895"><ele>860.0</ele><time>2026-04-20T07:55:06.32Z</time></trkpt><trkpt lat="42.2260583" lon="12.9190667"><ele>855.3333333333334</ele><time>2026-04-20T07:55:07.32Z</time></trkpt><trkpt lat="42.22598" lon="12.91925"><ele>850.6666666666667</ele><time>2026-04-20T07:55:08.319Z</time></trkpt><trkpt lat="42.225895" lon="12.9194283"><ele>846.0</ele><time>2026-04-20T07:55:09.32Z</time></trkpt><trkpt lat="42.2258017" lon="12.91958"><ele>846.0</ele><time>2026-04-20T07:55:10.319Z</time></trkpt><trkpt lat="42.225695" lon="12.9197033"><ele>846.0</ele><time>2026-04-20T07:55:11.32Z</time></trkpt><trkpt lat="42.225575" lon="12.9198117"><ele>846.0</ele><time>2026-04-20T07:55:12.319Z</time></trkpt><trkpt lat="42.2254517" lon="12.919905"><ele>846.0</ele><time>2026-04-20T07:55:13.319Z</time></trkpt><trkpt lat="42.22533" lon="12.9199833"><ele>844.75</ele><time>2026-04-20T07:55:14.32Z</time></trkpt><trkpt lat="42.225235" lon="12.92007"><ele>843.5</ele><time>2026-04-20T07:55:15.32Z</time></trkpt><trkpt lat="42.2251617" lon="12.920185"><ele>842.25</ele><time>2026-04-20T07:55:16.319Z</time></trkpt><trkpt lat="42.2251067" lon="12.920345"><ele>841.0</ele><time>2026-04-20T07:55:17.319Z</time></trkpt><trkpt lat="42.225055" lon="12.9205333"><ele>841.0</ele><time>2026-04-20T07:55:18.32Z</time></trkpt><trkpt lat="42.2249983" lon="12.920715"><ele>841.0</ele><time>2026-04-20T07:55:19.319Z</time></trkpt><trkpt lat="42.2249433" lon="12.9208767"><ele>841.0</ele><time>2026-04-20T07:55:20.32Z</time></trkpt><trkpt lat="42.2248883" lon="12.92103"><ele>841.0</ele><time>2026-04-20T07:55:21.319Z</time></trkpt><trkpt lat="42.2248383" lon="12.9211783"><ele>839.25</ele><time>2026-04-20T07:55:22.319Z</time></trkpt><trkpt lat="42.2247917" lon="12.921325"><ele>837.5</ele><time>2026-04-20T07:55:23.319Z</time></trkpt><trkpt lat="42.2247483" lon="12.9214683"><ele>835.75</ele><time>2026-04-20T07:55:24.32Z</time></trkpt><trkpt lat="42.2247083" lon="12.92161"><ele>834.0</ele><time>2026-04-20T07:55:25.32Z</time></trkpt><trkpt lat="42.22466" lon="12.9217533"><ele>834.0</ele><time>2026-04-20T07:55:26.32Z</time></trkpt><trkpt lat="42.22459" lon="12.9218933"><ele>834.0</ele><time>2026-04-20T07:55:27.32Z</time></trkpt><trkpt lat="42.224495" lon="12.9220217"><ele>834.0</ele><time>2026-04-20T07:55:28.315Z</time></trkpt><trkpt lat="42.2243983" lon="12.9221517"><ele>834.0</ele><time>2026-04-20T07:55:29.319Z</time></trkpt><trkpt lat="42.2243133" lon="12.9222817"><ele>834.0</ele><time>2026-04-20T07:55:30.319Z</time></trkpt><trkpt lat="42.2242533" lon="12.9224233"><ele>834.0</ele><time>2026-04-20T07:55:31.32Z</time></trkpt><trkpt lat="42.2242217" lon="12.92258"><ele>834.0</ele><time>2026-04-20T07:55:32.319Z</time></trkpt><trkpt lat="42.2242017" lon="12.9227533"><ele>834.0</ele><time>2026-04-20T07:55:33.32Z</time></trkpt><trkpt lat="42.224175" lon="12.92294"><ele>829.75</ele><time>2026-04-20T07:55:34.319Z</time></trkpt><trkpt lat="42.224125" lon="12.9231283"><ele>825.5</ele><time>2026-04-20T07:55:35.32Z</time></trkpt><trkpt lat="42.2240567" lon="12.9232933"><ele>821.25</ele><time>2026-04-20T07:55:36.319Z</time></trkpt><trkpt lat="42.223995" lon="12.9234283"><ele>817.0</ele><time>2026-04-20T07:55:37.32Z</time></trkpt><trkpt lat="42.2239433" lon="12.923545"><ele>816.9999999999999</ele><time>2026-04-20T07:55:38.318Z</time></trkpt><trkpt lat="42.2239117" lon="12.9236567"><ele>817.0</ele><time>2026-04-20T07:55:39.32Z</time></trkpt><trkpt lat="42.2238983" lon="12.9237633"><ele>817.0</ele><time>2026-04-20T07:55:40.32Z</time></trkpt><trkpt lat="42.2239133" lon="12.9238583"><ele>817.0</ele><time>2026-04-20T07:55:41.316Z</time></trkpt><trkpt lat="42.2239467" lon="12.9239367"><ele>816.9999999999999</ele><time>2026-04-20T07:55:42.317Z</time></trkpt><trkpt lat="42.2240767" lon="12.9239233"><ele>817.0</ele><time>2026-04-20T07:55:44.32Z</time></trkpt><trkpt lat="42.22418" lon="12.9238233"><ele>816.3333333333333</ele><time>2026-04-20T07:55:45.322Z</time></trkpt><trkpt lat="42.22429" lon="12.923675"><ele>815.6666666666667</ele><time>2026-04-20T07:55:46.319Z</time></trkpt><trkpt lat="42.2243917" lon="12.9235"><ele>815.0</ele><time>2026-04-20T07:55:47.319Z</time></trkpt><trkpt lat="42.2244767" lon="12.9233033"><ele>815.0</ele><time>2026-04-20T07:55:48.319Z</time></trkpt><trkpt lat="42.2245417" lon="12.92313"><ele>815.0</ele><time>2026-04-20T07:55:49.319Z</time></trkpt><trkpt lat="42.2246" lon="12.923005"><ele>815.0</ele><time>2026-04-20T07:55:50.32Z</time></trkpt><trkpt lat="42.22466" lon="12.9229267"><ele>815.0</ele><time>2026-04-20T07:55:51.319Z</time></trkpt><trkpt lat="42.2247167" lon="12.9228767"><ele>815.0</ele><time>2026-04-20T07:55:52.32Z</time></trkpt><trkpt lat="42.2248083" lon="12.9229417"><ele>815.0</ele><time>2026-04-20T07:55:54.319Z</time></trkpt><trkpt lat="42.2248433" lon="12.9231083"><ele>815.0</ele><time>2026-04-20T07:55:56.32Z</time></trkpt><trkpt lat="42.2247767" lon="12.923285"><ele>815.0</ele><time>2026-04-20T07:55:57.318Z</time></trkpt><trkpt lat="42.224715" lon="12.9234683"><ele>815.0</ele><time>2026-04-20T07:55:58.32Z</time></trkpt><trkpt lat="42.2246583" lon="12.923685"><ele>810.3333333333334</ele><time>2026-04-20T07:55:59.317Z</time></trkpt><trkpt lat="42.2246117" lon="12.9239233"><ele>805.6666666666667</ele><time>2026-04-20T07:56:00.319Z</time></trkpt><trkpt lat="42.2245633" lon="12.9241617"><ele>801.0</ele><time>2026-04-20T07:56:01.32Z</time></trkpt><trkpt lat="42.2245167" lon="12.924385"><ele>797.6666666666667</ele><time>2026-04-20T07:56:02.32Z</time></trkpt><trkpt lat="42.2244517" lon="12.9245917"><ele>794.3333333333334</ele><time>2026-04-20T07:56:03.319Z</time></trkpt><trkpt lat="42.22436" lon="12.9247867"><ele>791.0</ele><time>2026-04-20T07:56:04.318Z</time></trkpt><trkpt lat="42.2242567" lon="12.9249733"><ele>789.5</ele><time>2026-04-20T07:56:05.319Z</time></trkpt><trkpt lat="42.2241617" lon="12.9251417"><ele>788.0</ele><time>2026-04-20T07:56:06.32Z</time></trkpt><trkpt lat="42.224075" lon="12.9252733"><ele>786.5</ele><time>2026-04-20T07:56:07.316Z</time></trkpt><trkpt lat="42.22397" lon="12.925375"><ele>785.0</ele><time>2026-04-20T07:56:08.317Z</time></trkpt><trkpt lat="42.2238633" lon="12.9254683"><ele>785.0</ele><time>2026-04-20T07:56:09.321Z</time></trkpt><trkpt lat="42.223765" lon="12.9255633"><ele>785.0</ele><time>2026-04-20T07:56:10.316Z</time></trkpt><trkpt lat="42.2236867" lon="12.9257"><ele>785.0</ele><time>2026-04-20T07:56:11.32Z</time></trkpt><trkpt lat="42.223615" lon="12.9258533"><ele>785.0</ele><time>2026-04-20T07:56:12.318Z</time></trkpt><trkpt lat="42.2235383" lon="12.925995"><ele>785.75</ele><time>2026-04-20T07:56:13.316Z</time></trkpt><trkpt lat="42.2234417" lon="12.92612"><ele>786.5</ele><time>2026-04-20T07:56:14.317Z</time></trkpt><trkpt lat="42.223315" lon="12.92624"><ele>787.25</ele><time>2026-04-20T07:56:15.32Z</time></trkpt><trkpt lat="42.2231817" lon="12.9263567"><ele>788.0</ele><time>2026-04-20T07:56:16.315Z</time></trkpt><trkpt lat="42.2230567" lon="12.926485"><ele>788.0</ele><time>2026-04-20T07:56:17.317Z</time></trkpt><trkpt lat="42.2229533" lon="12.9266483"><ele>788.0</ele><time>2026-04-20T07:56:18.317Z</time></trkpt><trkpt lat="42.222865" lon="12.9268533"><ele>788.0</ele><time>2026-04-20T07:56:19.319Z</time></trkpt><trkpt lat="42.2227733" lon="12.92709"><ele>783.3333333333334</ele><time>2026-04-20T07:56:20.317Z</time></trkpt><trkpt lat="42.2226867" lon="12.92732"><ele>778.6666666666667</ele><time>2026-04-20T07:56:21.318Z</time></trkpt><trkpt lat="42.2226083" lon="12.92753"><ele>774.0</ele><time>2026-04-20T07:56:22.316Z</time></trkpt><trkpt lat="42.2225467" lon="12.92772"><ele>772.0</ele><time>2026-04-20T07:56:23.317Z</time></trkpt><trkpt lat="42.2225067" lon="12.9278917"><ele>770.0</ele><time>2026-04-20T07:56:24.317Z</time></trkpt><trkpt lat="42.2224917" lon="12.9280567"><ele>768.0</ele><time>2026-04-20T07:56:25.317Z</time></trkpt><trkpt lat="42.2225167" lon="12.928235"><ele>766.0</ele><time>2026-04-20T07:56:26.318Z</time></trkpt><trkpt lat="42.2225683" lon="12.9284283"><ele>764.0</ele><time>2026-04-20T07:56:27.318Z</time></trkpt><trkpt lat="42.222625" lon="12.92863"><ele>762.0</ele><time>2026-04-20T07:56:28.316Z</time></trkpt><trkpt lat="42.22267" lon="12.928835"><ele>760.0</ele><time>2026-04-20T07:56:29.317Z</time></trkpt><trkpt lat="42.2226933" lon="12.92903"><ele>757.25</ele><time>2026-04-20T07:56:30.32Z</time></trkpt><trkpt lat="42.2226933" lon="12.92923"><ele>754.5</ele><time>2026-04-20T07:56:31.319Z</time></trkpt><trkpt lat="42.2226733" lon="12.9294217"><ele>751.75</ele><time>2026-04-20T07:56:32.318Z</time></trkpt><trkpt lat="42.2226417" lon="12.9295883"><ele>749.0</ele><time>2026-04-20T07:56:33.319Z</time></trkpt><trkpt lat="42.2225967" lon="12.9297317"><ele>749.0</ele><time>2026-04-20T07:56:34.318Z</time></trkpt><trkpt lat="42.2225433" lon="12.929845"><ele>749.0</ele><time>2026-04-20T07:56:35.32Z</time></trkpt><trkpt lat="42.2224717" lon="12.9299183"><ele>749.0</ele><time>2026-04-20T07:56:36.319Z</time></trkpt><trkpt lat="42.22239" lon="12.9299683"><ele>749.0</ele><time>2026-04-20T07:56:37.318Z</time></trkpt><trkpt lat="42.2222917" lon="12.9299917"><ele>749.0</ele><time>2026-04-20T07:56:38.319Z</time></trkpt><trkpt lat="42.2221583" lon="12.9299883"><ele>749.3333333333333</ele><time>2026-04-20T07:56:39.32Z</time></trkpt><trkpt lat="42.22199" lon="12.9299967"><ele>749.6666666666666</ele><time>2026-04-20T07:56:40.318Z</time></trkpt><trkpt lat="42.2218283" lon="12.93002"><ele>750.0</ele><time>2026-04-20T07:56:41.318Z</time></trkpt><trkpt lat="42.2216883" lon="12.9300483"><ele>751.2</ele><time>2026-04-20T07:56:42.318Z</time></trkpt><trkpt lat="42.22157" lon="12.9300583"><ele>752.4</ele><time>2026-04-20T07:56:43.318Z</time></trkpt><trkpt lat="42.221465" lon="12.9300383"><ele>753.5999999999999</ele><time>2026-04-20T07:56:44.318Z</time></trkpt><trkpt lat="42.2213767" lon="12.9300033"><ele>754.8</ele><time>2026-04-20T07:56:45.318Z</time></trkpt><trkpt lat="42.2213017" lon="12.929995"><ele>756.0</ele><time>2026-04-20T07:56:46.319Z</time></trkpt><trkpt lat="42.221235" lon="12.9300033"><ele>754.5999999999999</ele><time>2026-04-20T07:56:47.32Z</time></trkpt><trkpt lat="42.2211833" lon="12.930135"><ele>753.2</ele><time>2026-04-20T07:56:49.316Z</time></trkpt><trkpt lat="42.2212033" lon="12.9302217"><ele>751.8</ele><time>2026-04-20T07:56:50.318Z</time></trkpt><trkpt lat="42.221245" lon="12.9303317"><ele>750.4000000000001</ele><time>2026-04-20T07:56:51.318Z</time></trkpt><trkpt lat="42.2212883" lon="12.9304467"><ele>749.0</ele><time>2026-04-20T07:56:52.319Z</time></trkpt><trkpt lat="42.22134" lon="12.9305717"><ele>749.0</ele><time>2026-04-20T07:56:53.317Z</time></trkpt><trkpt lat="42.2213783" lon="12.9306817"><ele>749.0</ele><time>2026-04-20T07:56:54.317Z</time></trkpt><trkpt lat="42.2214033" lon="12.9307883"><ele>749.0</ele><time>2026-04-20T07:56:55.319Z</time></trkpt><trkpt lat="42.2214017" lon="12.9308983"><ele>749.0</ele><time>2026-04-20T07:56:56.319Z</time></trkpt><trkpt lat="42.2213817" lon="12.931"><ele>749.0</ele><time>2026-04-20T07:56:57.317Z</time></trkpt><trkpt lat="42.22135" lon="12.9310967"><ele>749.0</ele><time>2026-04-20T07:56:58.318Z</time></trkpt><trkpt lat="42.221325" lon="12.931205"><ele>745.6666666666666</ele><time>2026-04-20T07:56:59.316Z</time></trkpt><trkpt lat="42.2213067" lon="12.9313183"><ele>742.3333333333333</ele><time>2026-04-20T07:57:00.316Z</time></trkpt><trkpt lat="42.2213067" lon="12.9314283"><ele>739.0</ele><time>2026-04-20T07:57:01.317Z</time></trkpt><trkpt lat="42.2213217" lon="12.931525"><ele>735.6666666666666</ele><time>2026-04-20T07:57:02.319Z</time></trkpt><trkpt lat="42.2213467" lon="12.9316067"><ele>732.3333333333334</ele><time>2026-04-20T07:57:03.317Z</time></trkpt><trkpt lat="42.221415" lon="12.9317333"><ele>729.0</ele><time>2026-04-20T07:57:05.316Z</time></trkpt><trkpt lat="42.2214933" lon="12.9318467"><ele>728.8000000000001</ele><time>2026-04-20T07:57:07.316Z</time></trkpt><trkpt lat="42.221575" lon="12.9319667"><ele>728.6</ele><time>2026-04-20T07:57:09.317Z</time></trkpt><trkpt lat="42.221645" lon="12.9320917"><ele>728.4</ele><time>2026-04-20T07:57:11.318Z</time></trkpt><trkpt lat="42.2216967" lon="12.93222"><ele>728.2</ele><time>2026-04-20T07:57:13.317Z</time></trkpt><trkpt lat="42.2217483" lon="12.9323317"><ele>728.0</ele><time>2026-04-20T07:57:15.317Z</time></trkpt><trkpt lat="42.22181" lon="12.9323883"><ele>728.0</ele><time>2026-04-20T07:57:18.318Z</time></trkpt><trkpt lat="42.2218767" lon="12.9324617"><ele>728.0</ele><time>2026-04-20T08:40:09.271Z</time></trkpt><trkpt lat="42.2218167" lon="12.932415"><ele>728.0</ele><time>2026-04-20T08:40:14.316Z</time></trkpt><trkpt lat="42.221805" lon="12.932315"><ele>728.0</ele><time>2026-04-20T08:40:26.315Z</time></trkpt><trkpt lat="42.2218" lon="12.9322283"><ele>728.0</ele><time>2026-04-20T08:40:30.316Z</time></trkpt><trkpt lat="42.2217317" lon="12.932205"><ele>728.0</ele><time>2026-04-20T08:40:34.316Z</time></trkpt><trkpt lat="42.2217683" lon="12.9322867"><ele>728.0</ele><time>2026-04-20T08:40:40.315Z</time></trkpt><trkpt lat="42.2218633" lon="12.9323433"><ele>728.0</ele><time>2026-04-20T08:41:01.316Z</time></trkpt><trkpt lat="42.22193" lon="12.9323783"><ele>728.0</ele><time>2026-04-20T08:41:03.317Z</time></trkpt><trkpt lat="42.2220117" lon="12.9324383"><ele>728.0</ele><time>2026-04-20T08:41:05.316Z</time></trkpt><trkpt lat="42.2220667" lon="12.93248"><ele>728.0</ele><time>2026-04-20T08:41:06.316Z</time></trkpt><trkpt lat="42.2221217" lon="12.932525"><ele>728.0</ele><time>2026-04-20T08:41:07.317Z</time></trkpt><trkpt lat="42.22218" lon="12.9325767"><ele>728.0</ele><time>2026-04-20T08:41:08.316Z</time></trkpt><trkpt lat="42.2222283" lon="12.9326383"><ele>728.0</ele><time>2026-04-20T08:41:09.317Z</time></trkpt><trkpt lat="42.222265" lon="12.9327117"><ele>724.25</ele><time>2026-04-20T08:41:10.316Z</time></trkpt><trkpt lat="42.222285" lon="12.9328633"><ele>720.5</ele><time>2026-04-20T08:41:12.316Z</time></trkpt><trkpt lat="42.2222267" lon="12.9329617"><ele>716.75</ele><time>2026-04-20T08:41:14.317Z</time></trkpt><trkpt lat="42.2220567" lon="12.9329183"><ele>713.0</ele><time>2026-04-20T08:41:16.316Z</time></trkpt><trkpt lat="42.2219283" lon="12.932845"><ele>713.0</ele><time>2026-04-20T08:41:17.316Z</time></trkpt><trkpt lat="42.22182" lon="12.9327767"><ele>713.0</ele><time>2026-04-20T08:41:18.316Z</time></trkpt><trkpt lat="42.2217133" lon="12.9327017"><ele>713.0</ele><time>2026-04-20T08:41:19.316Z</time></trkpt><trkpt lat="42.2216117" lon="12.9326267"><ele>713.0</ele><time>2026-04-20T08:41:20.317Z</time></trkpt><trkpt lat="42.221515" lon="12.9325517"><ele>712.75</ele><time>2026-04-20T08:41:21.316Z</time></trkpt><trkpt lat="42.2214217" lon="12.9324717"><ele>712.5</ele><time>2026-04-20T08:41:22.316Z</time></trkpt><trkpt lat="42.2213267" lon="12.93239"><ele>712.25</ele><time>2026-04-20T08:41:23.317Z</time></trkpt><trkpt lat="42.2212317" lon="12.9323067"><ele>712.0</ele><time>2026-04-20T08:41:24.317Z</time></trkpt><trkpt lat="42.22113" lon="12.9322267"><ele>712.0</ele><time>2026-04-20T08:41:25.319Z</time></trkpt><trkpt lat="42.22102" lon="12.9321533"><ele>712.0</ele><time>2026-04-20T08:41:26.318Z</time></trkpt><trkpt lat="42.2208967" lon="12.9320983"><ele>712.0</ele><time>2026-04-20T08:41:27.318Z</time></trkpt><trkpt lat="42.2207667" lon="12.9320633"><ele>712.0</ele><time>2026-04-20T08:41:28.318Z</time></trkpt><trkpt lat="42.2206417" lon="12.9320417"><ele>710.0</ele><time>2026-04-20T08:41:29.318Z</time></trkpt><trkpt lat="42.22052" lon="12.9320217"><ele>708.0</ele><time>2026-04-20T08:41:30.319Z</time></trkpt><trkpt lat="42.2203967" lon="12.9319917"><ele>706.0</ele><time>2026-04-20T08:41:31.32Z</time></trkpt><trkpt lat="42.2202817" lon="12.9319483"><ele>704.0</ele><time>2026-04-20T08:41:32.319Z</time></trkpt><trkpt lat="42.2201767" lon="12.9319083"><ele>704.0</ele><time>2026-04-20T08:41:33.319Z</time></trkpt><trkpt lat="42.2200783" lon="12.9318917"><ele>704.0</ele><time>2026-04-20T08:41:34.318Z</time></trkpt><trkpt lat="42.2199867" lon="12.9319"><ele>704.0</ele><time>2026-04-20T08:41:35.319Z</time></trkpt><trkpt lat="42.2199117" lon="12.9319483"><ele>704.0</ele><time>2026-04-20T08:41:36.318Z</time></trkpt><trkpt lat="42.2198417" lon="12.9320367"><ele>704.0</ele><time>2026-04-20T08:41:37.319Z</time></trkpt><trkpt lat="42.219765" lon="12.9321467"><ele>705.0</ele><time>2026-04-20T08:41:38.32Z</time></trkpt><trkpt lat="42.2196717" lon="12.93226"><ele>706.0</ele><time>2026-04-20T08:41:39.319Z</time></trkpt><trkpt lat="42.2195617" lon="12.932375"><ele>707.0</ele><time>2026-04-20T08:41:40.319Z</time></trkpt><trkpt lat="42.2194417" lon="12.9324783"><ele>708.0</ele><time>2026-04-20T08:41:41.32Z</time></trkpt><trkpt lat="42.2193117" lon="12.9325667"><ele>703.75</ele><time>2026-04-20T08:41:42.319Z</time></trkpt><trkpt lat="42.2191817" lon="12.93263"><ele>699.5</ele><time>2026-04-20T08:41:43.319Z</time></trkpt><trkpt lat="42.2190367" lon="12.932685"><ele>695.25</ele><time>2026-04-20T08:41:44.318Z</time></trkpt><trkpt lat="42.218885" lon="12.9327483"><ele>691.0</ele><time>2026-04-20T08:41:45.318Z</time></trkpt><trkpt lat="42.2187333" lon="12.932825"><ele>691.0</ele><time>2026-04-20T08:41:46.319Z</time></trkpt><trkpt lat="42.2185917" lon="12.9329217"><ele>691.0</ele><time>2026-04-20T08:41:47.319Z</time></trkpt><trkpt lat="42.21847" lon="12.93303"><ele>691.0</ele><time>2026-04-20T08:41:48.316Z</time></trkpt><trkpt lat="42.2183617" lon="12.9331467"><ele>691.0</ele><time>2026-04-20T08:41:49.317Z</time></trkpt><trkpt lat="42.2182617" lon="12.9332583"><ele>691.0</ele><time>2026-04-20T08:41:50.317Z</time></trkpt><trkpt lat="42.21816" lon="12.9333533"><ele>691.0</ele><time>2026-04-20T08:41:51.317Z</time></trkpt><trkpt lat="42.21805" lon="12.933425"><ele>691.0</ele><time>2026-04-20T08:41:52.315Z</time></trkpt><trkpt lat="42.2179333" lon="12.93347"><ele>691.0</ele><time>2026-04-20T08:41:53.317Z</time></trkpt><trkpt lat="42.2178067" lon="12.9334933"><ele>684.3333333333334</ele><time>2026-04-20T08:41:54.317Z</time></trkpt><trkpt lat="42.217665" lon="12.9334917"><ele>677.6666666666666</ele><time>2026-04-20T08:41:55.32Z</time></trkpt><trkpt lat="42.21751" lon="12.9334733"><ele>671.0</ele><time>2026-04-20T08:41:56.319Z</time></trkpt><trkpt lat="42.2173433" lon="12.9334433"><ele>669.5</ele><time>2026-04-20T08:41:57.319Z</time></trkpt><trkpt lat="42.2171933" lon="12.9334"><ele>668.0</ele><time>2026-04-20T08:41:58.319Z</time></trkpt><trkpt lat="42.2170667" lon="12.9333433"><ele>666.5</ele><time>2026-04-20T08:41:59.316Z</time></trkpt><trkpt lat="42.21696" lon="12.9332883"><ele>665.0</ele><time>2026-04-20T08:42:00.316Z</time></trkpt><trkpt lat="42.21687" lon="12.933255"><ele>665.0</ele><time>2026-04-20T08:42:01.316Z</time></trkpt><trkpt lat="42.21679" lon="12.9332483"><ele>665.0</ele><time>2026-04-20T08:42:02.317Z</time></trkpt><trkpt lat="42.2167233" lon="12.9332733"><ele>665.0</ele><time>2026-04-20T08:42:03.317Z</time></trkpt><trkpt lat="42.2166717" lon="12.93334"><ele>665.0</ele><time>2026-04-20T08:42:04.316Z</time></trkpt><trkpt lat="42.2166617" lon="12.933425"><ele>665.0</ele><time>2026-04-20T08:42:05.317Z</time></trkpt><trkpt lat="42.2167133" lon="12.933565"><ele>665.0</ele><time>2026-04-20T08:42:07.315Z</time></trkpt><trkpt lat="42.216775" lon="12.9336183"><ele>665.0</ele><time>2026-04-20T08:42:08.316Z</time></trkpt><trkpt lat="42.2169183" lon="12.9336683"><ele>665.0</ele><time>2026-04-20T08:42:09.318Z</time></trkpt><trkpt lat="42.21704" lon="12.93373"><ele>665.0</ele><time>2026-04-20T08:42:10.316Z</time></trkpt><trkpt lat="42.2171617" lon="12.9338117"><ele>665.0</ele><time>2026-04-20T08:42:11.317Z</time></trkpt><trkpt lat="42.21727" lon="12.9339117"><ele>666.5</ele><time>2026-04-20T08:42:12.317Z</time></trkpt><trkpt lat="42.217385" lon="12.934035"><ele>668.0</ele><time>2026-04-20T08:42:13.316Z</time></trkpt><trkpt lat="42.2174767" lon="12.9341767"><ele>669.5</ele><time>2026-04-20T08:42:14.317Z</time></trkpt><trkpt lat="42.2175517" lon="12.93433"><ele>671.0</ele><time>2026-04-20T08:42:15.317Z</time></trkpt><trkpt lat="42.2176267" lon="12.934475"><ele>667.0</ele><time>2026-04-20T08:42:16.318Z</time></trkpt><trkpt lat="42.217715" lon="12.9346"><ele>663.0</ele><time>2026-04-20T08:42:17.318Z</time></trkpt><trkpt lat="42.2178283" lon="12.9347"><ele>659.0</ele><time>2026-04-20T08:42:18.318Z</time></trkpt><trkpt lat="42.2179633" lon="12.9347833"><ele>655.0</ele><time>2026-04-20T08:42:19.32Z</time></trkpt><trkpt lat="42.2181033" lon="12.9348667"><ele>655.25</ele><time>2026-04-20T08:42:20.319Z</time></trkpt><trkpt lat="42.218235" lon="12.9349483"><ele>655.5</ele><time>2026-04-20T08:42:21.319Z</time></trkpt><trkpt lat="42.2183533" lon="12.9350283"><ele>655.75</ele><time>2026-04-20T08:42:22.318Z</time></trkpt><trkpt lat="42.21846" lon="12.93511"><ele>656.0</ele><time>2026-04-20T08:42:23.318Z</time></trkpt><trkpt lat="42.2185533" lon="12.935205"><ele>656.0</ele><time>2026-04-20T08:42:24.321Z</time></trkpt><trkpt lat="42.2186233" lon="12.93531"><ele>656.0</ele><time>2026-04-20T08:42:25.319Z</time></trkpt><trkpt lat="42.2186733" lon="12.9354317"><ele>656.0</ele><time>2026-04-20T08:42:26.32Z</time></trkpt><trkpt lat="42.2187" lon="12.935555"><ele>656.0</ele><time>2026-04-20T08:42:27.318Z</time></trkpt><trkpt lat="42.2187133" lon="12.93569"><ele>656.0</ele><time>2026-04-20T08:42:28.319Z</time></trkpt><trkpt lat="42.2187167" lon="12.9358483"><ele>655.0</ele><time>2026-04-20T08:42:29.32Z</time></trkpt><trkpt lat="42.2187183" lon="12.9360217"><ele>654.0</ele><time>2026-04-20T08:42:30.319Z</time></trkpt><trkpt lat="42.2187217" lon="12.93619"><ele>653.0</ele><time>2026-04-20T08:42:31.318Z</time></trkpt><trkpt lat="42.21873" lon="12.93634"><ele>652.0</ele><time>2026-04-20T08:42:32.32Z</time></trkpt><trkpt lat="42.218755" lon="12.936475"><ele>652.0</ele><time>2026-04-20T08:42:33.317Z</time></trkpt><trkpt lat="42.2188" lon="12.936595"><ele>652.0</ele><time>2026-04-20T08:42:34.318Z</time></trkpt><trkpt lat="42.2188633" lon="12.936695"><ele>652.0</ele><time>2026-04-20T08:42:35.319Z</time></trkpt><trkpt lat="42.21895" lon="12.93677"><ele>652.0</ele><time>2026-04-20T08:42:36.32Z</time></trkpt><trkpt lat="42.2190533" lon="12.9368283"><ele>652.0</ele><time>2026-04-20T08:42:37.319Z</time></trkpt><trkpt lat="42.2191683" lon="12.9368783"><ele>651.0</ele><time>2026-04-20T08:42:38.316Z</time></trkpt><trkpt lat="42.21929" lon="12.936925"><ele>650.0</ele><time>2026-04-20T08:42:39.318Z</time></trkpt><trkpt lat="42.21942" lon="12.9369667"><ele>649.0</ele><time>2026-04-20T08:42:40.319Z</time></trkpt><trkpt lat="42.2195483" lon="12.9370067"><ele>648.0</ele><time>2026-04-20T08:42:41.319Z</time></trkpt><trkpt lat="42.2196667" lon="12.9370383"><ele>648.0</ele><time>2026-04-20T08:42:42.319Z</time></trkpt><trkpt lat="42.219775" lon="12.9370517"><ele>648.0</ele><time>2026-04-20T08:42:43.319Z</time></trkpt><trkpt lat="42.2198733" lon="12.9370433"><ele>648.0</ele><time>2026-04-20T08:42:44.318Z</time></trkpt><trkpt lat="42.2199583" lon="12.937"><ele>648.0</ele><time>2026-04-20T08:42:45.319Z</time></trkpt><trkpt lat="42.2200317" lon="12.9369417"><ele>648.0</ele><time>2026-04-20T08:42:46.318Z</time></trkpt><trkpt lat="42.220085" lon="12.9368583"><ele>647.8</ele><time>2026-04-20T08:42:47.319Z</time></trkpt><trkpt lat="42.2201083" lon="12.9367433"><ele>647.5999999999999</ele><time>2026-04-20T08:42:48.319Z</time></trkpt><trkpt lat="42.2201067" lon="12.936615"><ele>647.4000000000001</ele><time>2026-04-20T08:42:49.319Z</time></trkpt><trkpt lat="42.2200783" lon="12.9364983"><ele>647.2</ele><time>2026-04-20T08:42:50.318Z</time></trkpt><trkpt lat="42.22003" lon="12.9363733"><ele>647.0</ele><time>2026-04-20T08:42:51.318Z</time></trkpt><trkpt lat="42.219955" lon="12.93625"><ele>648.75</ele><time>2026-04-20T08:42:52.319Z</time></trkpt><trkpt lat="42.219875" lon="12.9361283"><ele>650.5</ele><time>2026-04-20T08:42:53.319Z</time></trkpt><trkpt lat="42.2197867" lon="12.9360217"><ele>652.25</ele><time>2026-04-20T08:42:54.319Z</time></trkpt><trkpt lat="42.2196967" lon="12.9359233"><ele>654.0</ele><time>2026-04-20T08:42:55.32Z</time></trkpt><trkpt lat="42.2196267" lon="12.93583"><ele>654.6</ele><time>2026-04-20T08:42:56.319Z</time></trkpt><trkpt lat="42.2195817" lon="12.9357383"><ele>655.2</ele><time>2026-04-20T08:42:57.319Z</time></trkpt><trkpt lat="42.2195617" lon="12.9356567"><ele>655.8000000000001</ele><time>2026-04-20T08:42:58.32Z</time></trkpt><trkpt lat="42.219605" lon="12.9355217"><ele>656.4000000000001</ele><time>2026-04-20T08:43:00.32Z</time></trkpt><trkpt lat="42.2197117" lon="12.9355583"><ele>657.0</ele><time>2026-04-20T08:43:02.317Z</time></trkpt><trkpt lat="42.2197967" lon="12.9356417"><ele>656.25</ele><time>2026-04-20T08:43:03.316Z</time></trkpt><trkpt lat="42.2198933" lon="12.93576"><ele>655.5</ele><time>2026-04-20T08:43:04.316Z</time></trkpt><trkpt lat="42.2200033" lon="12.9358983"><ele>654.75</ele><time>2026-04-20T08:43:05.317Z</time></trkpt><trkpt lat="42.2201117" lon="12.9360317"><ele>654.0</ele><time>2026-04-20T08:43:06.318Z</time></trkpt><trkpt lat="42.2202267" lon="12.9361567"><ele>654.0</ele><time>2026-04-20T08:43:07.319Z</time></trkpt><trkpt lat="42.2203517" lon="12.9362867"><ele>654.0</ele><time>2026-04-20T08:43:08.318Z</time></trkpt><trkpt lat="42.22048" lon="12.9364183"><ele>654.0</ele><time>2026-04-20T08:43:09.32Z</time></trkpt><trkpt lat="42.2206033" lon="12.9365583"><ele>649.75</ele><time>2026-04-20T08:43:10.32Z</time></trkpt><trkpt lat="42.2207117" lon="12.9366967"><ele>645.5</ele><time>2026-04-20T08:43:11.318Z</time></trkpt><trkpt lat="42.220795" lon="12.9368367"><ele>641.25</ele><time>2026-04-20T08:43:12.319Z</time></trkpt><trkpt lat="42.220855" lon="12.93698"><ele>637.0</ele><time>2026-04-20T08:43:13.317Z</time></trkpt><trkpt lat="42.2208883" lon="12.9371317"><ele>636.4</ele><time>2026-04-20T08:43:14.318Z</time></trkpt><trkpt lat="42.2209" lon="12.9372817"><ele>635.8000000000001</ele><time>2026-04-20T08:43:15.318Z</time></trkpt><trkpt lat="42.2208917" lon="12.9374167"><ele>635.2</ele><time>2026-04-20T08:43:16.316Z</time></trkpt><trkpt lat="42.2208583" lon="12.937545"><ele>634.6</ele><time>2026-04-20T08:43:17.318Z</time></trkpt><trkpt lat="42.2207983" lon="12.9376783"><ele>634.0</ele><time>2026-04-20T08:43:18.317Z</time></trkpt><trkpt lat="42.220725" lon="12.9378233"><ele>633.75</ele><time>2026-04-20T08:43:19.316Z</time></trkpt><trkpt lat="42.2206583" lon="12.93799"><ele>633.5</ele><time>2026-04-20T08:43:20.316Z</time></trkpt><trkpt lat="42.2206033" lon="12.93816"><ele>633.25</ele><time>2026-04-20T08:43:21.318Z</time></trkpt><trkpt lat="42.2205533" lon="12.9383217"><ele>633.0</ele><time>2026-04-20T08:43:22.316Z</time></trkpt><trkpt lat="42.2204917" lon="12.9384683"><ele>629.1999999999999</ele><time>2026-04-20T08:43:23.319Z</time></trkpt><trkpt lat="42.2204167" lon="12.9385817"><ele>625.4</ele><time>2026-04-20T08:43:24.318Z</time></trkpt><trkpt lat="42.22034" lon="12.9386767"><ele>621.5999999999999</ele><time>2026-04-20T08:43:25.319Z</time></trkpt><trkpt lat="42.2202683" lon="12.93876"><ele>617.8</ele><time>2026-04-20T08:43:26.32Z</time></trkpt><trkpt lat="42.2202167" lon="12.9388483"><ele>614.0</ele><time>2026-04-20T08:43:27.32Z</time></trkpt><trkpt lat="42.22019" lon="12.9389417"><ele>614.0</ele><time>2026-04-20T08:43:28.318Z</time></trkpt><trkpt lat="42.220195" lon="12.939035"><ele>614.0</ele><time>2026-04-20T08:43:29.319Z</time></trkpt><trkpt lat="42.2202417" lon="12.93911"><ele>614.0</ele><time>2026-04-20T08:43:30.319Z</time></trkpt><trkpt lat="42.2203283" lon="12.9391567"><ele>614.0</ele><time>2026-04-20T08:43:31.318Z</time></trkpt><trkpt lat="42.2204333" lon="12.9391967"><ele>614.0</ele><time>2026-04-20T08:43:32.318Z</time></trkpt><trkpt lat="42.2205617" lon="12.9392233"><ele>613.75</ele><time>2026-04-20T08:43:33.32Z</time></trkpt><trkpt lat="42.2206917" lon="12.9392367"><ele>613.5</ele><time>2026-04-20T08:43:34.319Z</time></trkpt><trkpt lat="42.220805" lon="12.9392233"><ele>613.25</ele><time>2026-04-20T08:43:35.318Z</time></trkpt><trkpt lat="42.220905" lon="12.93918"><ele>613.0</ele><time>2026-04-20T08:43:36.319Z</time></trkpt><trkpt lat="42.2209867" lon="12.9391"><ele>613.0</ele><time>2026-04-20T08:43:37.319Z</time></trkpt><trkpt lat="42.2210483" lon="12.9389867"><ele>613.0</ele><time>2026-04-20T08:43:38.318Z</time></trkpt><trkpt lat="42.2210833" lon="12.93884"><ele>613.0</ele><time>2026-04-20T08:43:39.32Z</time></trkpt><trkpt lat="42.22111" lon="12.9387217"><ele>613.0</ele><time>2026-04-20T08:43:40.319Z</time></trkpt><trkpt lat="42.2211317" lon="12.93863"><ele>613.0</ele><time>2026-04-20T08:43:41.32Z</time></trkpt><trkpt lat="42.2212017" lon="12.9385217"><ele>613.0</ele><time>2026-04-20T08:43:43.318Z</time></trkpt><trkpt lat="42.2212917" lon="12.9385167"><ele>613.0</ele><time>2026-04-20T08:43:46.319Z</time></trkpt><trkpt lat="42.2213833" lon="12.9385333"><ele>613.0</ele><time>2026-04-20T08:43:49.319Z</time></trkpt><trkpt lat="42.2214767" lon="12.938495"><ele>613.0</ele><time>2026-04-20T08:43:51.319Z</time></trkpt><trkpt lat="42.22153" lon="12.938435"><ele>613.0</ele><time>2026-04-20T08:43:52.32Z</time></trkpt><trkpt lat="42.221575" lon="12.9383467"><ele>613.0</ele><time>2026-04-20T08:43:53.318Z</time></trkpt><trkpt lat="42.22161" lon="12.938245"><ele>611.8</ele><time>2026-04-20T08:43:54.318Z</time></trkpt><trkpt lat="42.2216367" lon="12.9381233"><ele>610.5999999999999</ele><time>2026-04-20T08:43:55.319Z</time></trkpt><trkpt lat="42.2216417" lon="12.93797"><ele>609.4000000000001</ele><time>2026-04-20T08:43:56.319Z</time></trkpt><trkpt lat="42.2216417" lon="12.937825"><ele>608.2</ele><time>2026-04-20T08:43:57.32Z</time></trkpt><trkpt lat="42.2216467" lon="12.9377017"><ele>607.0</ele><time>2026-04-20T08:43:58.32Z</time></trkpt><trkpt lat="42.22166" lon="12.9376017"><ele>607.0</ele><time>2026-04-20T08:43:59.318Z</time></trkpt><trkpt lat="42.2216967" lon="12.9375217"><ele>607.0</ele><time>2026-04-20T08:44:00.319Z</time></trkpt><trkpt lat="42.22177" lon="12.9374717"><ele>607.0</ele><time>2026-04-20T08:44:01.319Z</time></trkpt><trkpt lat="42.22186" lon="12.937455"><ele>607.0</ele><time>2026-04-20T08:44:02.319Z</time></trkpt><trkpt lat="42.2219633" lon="12.9375067"><ele>607.0</ele><time>2026-04-20T08:44:03.319Z</time></trkpt><trkpt lat="42.2220617" lon="12.9375683"><ele>607.0</ele><time>2026-04-20T08:44:04.319Z</time></trkpt><trkpt lat="42.222165" lon="12.9376933"><ele>607.0</ele><time>2026-04-20T08:44:05.319Z</time></trkpt><trkpt lat="42.2222733" lon="12.937765"><ele>607.0</ele><time>2026-04-20T08:44:06.32Z</time></trkpt><trkpt lat="42.2223917" lon="12.93779"><ele>607.0</ele><time>2026-04-20T08:44:07.318Z</time></trkpt><trkpt lat="42.2225067" lon="12.9377567"><ele>605.6666666666667</ele><time>2026-04-20T08:44:08.318Z</time></trkpt><trkpt lat="42.2226067" lon="12.9376867"><ele>604.3333333333334</ele><time>2026-04-20T08:44:09.32Z</time></trkpt><trkpt lat="42.2226867" lon="12.9376117"><ele>603.0</ele><time>2026-04-20T08:44:10.318Z</time></trkpt><trkpt lat="42.22276" lon="12.9375583"><ele>601.6666666666666</ele><time>2026-04-20T08:44:11.32Z</time></trkpt><trkpt lat="42.2228317" lon="12.9375333"><ele>600.3333333333333</ele><time>2026-04-20T08:44:12.32Z</time></trkpt><trkpt lat="42.2228983" lon="12.93755"><ele>599.0</ele><time>2026-04-20T08:44:13.319Z</time></trkpt><trkpt lat="42.2229617" lon="12.9376083"><ele>599.0</ele><time>2026-04-20T08:44:14.32Z</time></trkpt><trkpt lat="42.2230083" lon="12.9376867"><ele>599.0</ele><time>2026-04-20T08:44:15.318Z</time></trkpt><trkpt lat="42.22304" lon="12.9377783"><ele>599.0</ele><time>2026-04-20T08:44:16.319Z</time></trkpt><trkpt lat="42.223005" lon="12.9380083"><ele>599.0</ele><time>2026-04-20T08:44:17.32Z</time></trkpt><trkpt lat="42.222995" lon="12.9382167"><ele>598.5</ele><time>2026-04-20T08:44:18.32Z</time></trkpt><trkpt lat="42.2229967" lon="12.9384117"><ele>598.0</ele><time>2026-04-20T08:44:19.318Z</time></trkpt><trkpt lat="42.2230217" lon="12.9385833"><ele>597.5</ele><time>2026-04-20T08:44:20.318Z</time></trkpt><trkpt lat="42.2230833" lon="12.9387383"><ele>597.0</ele><time>2026-04-20T08:44:21.318Z</time></trkpt><trkpt lat="42.22318" lon="12.9388733"><ele>595.6666666666666</ele><time>2026-04-20T08:44:22.318Z</time></trkpt><trkpt lat="42.22331" lon="12.9389867"><ele>594.3333333333333</ele><time>2026-04-20T08:44:23.318Z</time></trkpt><trkpt lat="42.2234633" lon="12.9390867"><ele>593.0</ele><time>2026-04-20T08:44:24.32Z</time></trkpt><trkpt lat="42.2236317" lon="12.9391733"><ele>591.6666666666666</ele><time>2026-04-20T08:44:25.318Z</time></trkpt><trkpt lat="42.22381" lon="12.939255"><ele>590.3333333333334</ele><time>2026-04-20T08:44:26.318Z</time></trkpt><trkpt lat="42.2239917" lon="12.9393383"><ele>589.0</ele><time>2026-04-20T08:44:27.319Z</time></trkpt><trkpt lat="42.2241467" lon="12.9394467"><ele>584.6666666666667</ele><time>2026-04-20T08:44:28.319Z</time></trkpt><trkpt lat="42.224295" lon="12.9395517"><ele>580.3333333333334</ele><time>2026-04-20T08:44:29.32Z</time></trkpt><trkpt lat="42.2244617" lon="12.9396333"><ele>576.0</ele><time>2026-04-20T08:44:30.318Z</time></trkpt><trkpt lat="42.22465" lon="12.9397017"><ele>578.3333333333334</ele><time>2026-04-20T08:44:31.32Z</time></trkpt><trkpt lat="42.224835" lon="12.9397683"><ele>580.6666666666667</ele><time>2026-04-20T08:44:32.319Z</time></trkpt><trkpt lat="42.2249933" lon="12.9398283"><ele>583.0</ele><time>2026-04-20T08:44:33.322Z</time></trkpt><trkpt lat="42.2251283" lon="12.93987"><ele>583.0</ele><time>2026-04-20T08:44:34.319Z</time></trkpt><trkpt lat="42.22524" lon="12.9399217"><ele>583.0</ele><time>2026-04-20T08:44:35.32Z</time></trkpt><trkpt lat="42.2253417" lon="12.9400117"><ele>583.0</ele><time>2026-04-20T08:44:36.318Z</time></trkpt><trkpt lat="42.2254467" lon="12.9401417"><ele>583.0</ele><time>2026-04-20T08:44:37.319Z</time></trkpt><trkpt lat="42.225565" lon="12.94029"><ele>580.0</ele><time>2026-04-20T08:44:38.32Z</time></trkpt><trkpt lat="42.22569" lon="12.9404383"><ele>577.0</ele><time>2026-04-20T08:44:39.319Z</time></trkpt><trkpt lat="42.2258" lon="12.9405867"><ele>574.0</ele><time>2026-04-20T08:44:40.319Z</time></trkpt><trkpt lat="42.2259133" lon="12.9407267"><ele>574.0</ele><time>2026-04-20T08:44:41.32Z</time></trkpt><trkpt lat="42.2260383" lon="12.9408483"><ele>574.0</ele><time>2026-04-20T08:44:42.32Z</time></trkpt><trkpt lat="42.226175" lon="12.9409533"><ele>574.0</ele><time>2026-04-20T08:44:43.317Z</time></trkpt><trkpt lat="42.2263233" lon="12.9410417"><ele>569.6666666666667</ele><time>2026-04-20T08:44:44.317Z</time></trkpt><trkpt lat="42.2264917" lon="12.9411133"><ele>565.3333333333334</ele><time>2026-04-20T08:44:45.319Z</time></trkpt><trkpt lat="42.2266733" lon="12.9411717"><ele>561.0</ele><time>2026-04-20T08:44:46.317Z</time></trkpt><trkpt lat="42.2268567" lon="12.9412233"><ele>561.0</ele><time>2026-04-20T08:44:47.318Z</time></trkpt><trkpt lat="42.2270233" lon="12.9412733"><ele>561.0</ele><time>2026-04-20T08:44:48.318Z</time></trkpt><trkpt lat="42.2271667" lon="12.94131"><ele>561.0</ele><time>2026-04-20T08:44:49.318Z</time></trkpt><trkpt lat="42.22729" lon="12.941325"><ele>561.0</ele><time>2026-04-20T08:44:50.318Z</time></trkpt><trkpt lat="42.2274067" lon="12.9413"><ele>559.25</ele><time>2026-04-20T08:44:51.318Z</time></trkpt><trkpt lat="42.2275333" lon="12.9412317"><ele>557.5</ele><time>2026-04-20T08:44:52.317Z</time></trkpt><trkpt lat="42.2276667" lon="12.9411283"><ele>555.75</ele><time>2026-04-20T08:44:53.319Z</time></trkpt><trkpt lat="42.2277883" lon="12.9409967"><ele>554.0</ele><time>2026-04-20T08:44:54.319Z</time></trkpt><trkpt lat="42.22789" lon="12.9408733"><ele>555.0</ele><time>2026-04-20T08:44:55.32Z</time></trkpt><trkpt lat="42.2279733" lon="12.9407667"><ele>556.0</ele><time>2026-04-20T08:44:56.32Z</time></trkpt><trkpt lat="42.2280517" lon="12.9407083"><ele>557.0</ele><time>2026-04-20T08:44:57.32Z</time></trkpt><trkpt lat="42.2281333" lon="12.9406833"><ele>558.0</ele><time>2026-04-20T08:44:58.32Z</time></trkpt><trkpt lat="42.2282317" lon="12.9407067"><ele>559.0</ele><time>2026-04-20T08:44:59.32Z</time></trkpt><trkpt lat="42.2283433" lon="12.9407683"><ele>559.0</ele><time>2026-04-20T08:45:00.32Z</time></trkpt><trkpt lat="42.2284567" lon="12.9407983"><ele>559.0</ele><time>2026-04-20T08:45:01.319Z</time></trkpt><trkpt lat="42.228565" lon="12.940785"><ele>559.0</ele><time>2026-04-20T08:45:02.319Z</time></trkpt><trkpt lat="42.22866" lon="12.9407283"><ele>559.0</ele><time>2026-04-20T08:45:03.32Z</time></trkpt><trkpt lat="42.228725" lon="12.9406267"><ele>559.0</ele><time>2026-04-20T08:45:04.32Z</time></trkpt><trkpt lat="42.2287633" lon="12.9404833"><ele>559.0</ele><time>2026-04-20T08:45:05.32Z</time></trkpt><trkpt lat="42.228795" lon="12.9403183"><ele>559.0</ele><time>2026-04-20T08:45:06.319Z</time></trkpt><trkpt lat="42.228835" lon="12.9401783"><ele>559.0</ele><time>2026-04-20T08:45:07.319Z</time></trkpt><trkpt lat="42.2288867" lon="12.94008"><ele>559.0</ele><time>2026-04-20T08:45:08.318Z</time></trkpt><trkpt lat="42.228965" lon="12.9400133"><ele>559.0</ele><time>2026-04-20T08:45:09.32Z</time></trkpt><trkpt lat="42.2290433" lon="12.9399667"><ele>557.4</ele><time>2026-04-20T08:45:10.318Z</time></trkpt><trkpt lat="42.2291233" lon="12.9399567"><ele>555.8</ele><time>2026-04-20T08:45:11.32Z</time></trkpt><trkpt lat="42.2291983" lon="12.9399983"><ele>554.2</ele><time>2026-04-20T08:45:12.32Z</time></trkpt><trkpt lat="42.229275" lon="12.9401667"><ele>552.6</ele><time>2026-04-20T08:45:13.32Z</time></trkpt><trkpt lat="42.2293183" lon="12.9403267"><ele>551.0</ele><time>2026-04-20T08:45:14.316Z</time></trkpt><trkpt lat="42.2293617" lon="12.94057"><ele>551.0</ele><time>2026-04-20T08:45:15.32Z</time></trkpt><trkpt lat="42.22941" lon="12.9408017"><ele>551.0</ele><time>2026-04-20T08:45:16.318Z</time></trkpt><trkpt lat="42.2294717" lon="12.94101"><ele>551.0</ele><time>2026-04-20T08:45:17.319Z</time></trkpt><trkpt lat="42.2295367" lon="12.9412"><ele>551.3333333333333</ele><time>2026-04-20T08:45:18.317Z</time></trkpt><trkpt lat="42.2296133" lon="12.9413767"><ele>551.6666666666666</ele><time>2026-04-20T08:45:19.319Z</time></trkpt><trkpt lat="42.229715" lon="12.9415267"><ele>552.0</ele><time>2026-04-20T08:45:20.319Z</time></trkpt><trkpt lat="42.2298417" lon="12.94165"><ele>547.3333333333334</ele><time>2026-04-20T08:45:21.319Z</time></trkpt><trkpt lat="42.22999" lon="12.941745"><ele>542.6666666666667</ele><time>2026-04-20T08:45:22.318Z</time></trkpt><trkpt lat="42.23015" lon="12.941805"><ele>538.0</ele><time>2026-04-20T08:45:23.317Z</time></trkpt><trkpt lat="42.2303067" lon="12.9418267"><ele>538.0</ele><time>2026-04-20T08:45:24.317Z</time></trkpt><trkpt lat="42.2304467" lon="12.94183"><ele>538.0</ele><time>2026-04-20T08:45:25.317Z</time></trkpt><trkpt lat="42.230575" lon="12.9417833"><ele>538.0</ele><time>2026-04-20T08:45:26.318Z</time></trkpt><trkpt lat="42.2306883" lon="12.94167"><ele>538.0</ele><time>2026-04-20T08:45:27.32Z</time></trkpt><trkpt lat="42.2307883" lon="12.9415083"><ele>542.3333333333334</ele><time>2026-04-20T08:45:28.32Z</time></trkpt><trkpt lat="42.2308767" lon="12.9413183"><ele>546.6666666666666</ele><time>2026-04-20T08:45:29.32Z</time></trkpt><trkpt lat="42.2309683" lon="12.9411117"><ele>551.0</ele><time>2026-04-20T08:45:30.321Z</time></trkpt><trkpt lat="42.23108" lon="12.9409517"><ele>559.0</ele><time>2026-04-20T08:45:31.32Z</time></trkpt><trkpt lat="42.2312067" lon="12.9408"><ele>567.0</ele><time>2026-04-20T08:45:32.318Z</time></trkpt><trkpt lat="42.23131" lon="12.9406283"><ele>575.0</ele><time>2026-04-20T08:45:33.319Z</time></trkpt><trkpt lat="42.2314033" lon="12.9404467"><ele>568.6</ele><time>2026-04-20T08:45:34.319Z</time></trkpt><trkpt lat="42.231485" lon="12.9403"><ele>562.2</ele><time>2026-04-20T08:45:35.319Z</time></trkpt><trkpt lat="42.23156" lon="12.9401933"><ele>555.8</ele><time>2026-04-20T08:45:36.319Z</time></trkpt><trkpt lat="42.2316283" lon="12.9401317"><ele>549.4</ele><time>2026-04-20T08:45:37.317Z</time></trkpt><trkpt lat="42.2316983" lon="12.940105"><ele>543.0</ele><time>2026-04-20T08:45:38.318Z</time></trkpt><trkpt lat="42.2317633" lon="12.9400983"><ele>543.0</ele><time>2026-04-20T08:45:39.319Z</time></trkpt><trkpt lat="42.2318517" lon="12.94013"><ele>543.0</ele><time>2026-04-20T08:45:41.316Z</time></trkpt><trkpt lat="42.2318833" lon="12.940215"><ele>543.0</ele><time>2026-04-20T08:45:43.318Z</time></trkpt><trkpt lat="42.2319083" lon="12.9403817"><ele>543.0</ele><time>2026-04-20T08:45:45.32Z</time></trkpt><trkpt lat="42.2319267" lon="12.9404717"><ele>543.0</ele><time>2026-04-20T08:45:46.32Z</time></trkpt><trkpt lat="42.23196" lon="12.94058"><ele>543.0</ele><time>2026-04-20T08:45:47.32Z</time></trkpt><trkpt lat="42.2319967" lon="12.9406867"><ele>543.0</ele><time>2026-04-20T08:45:48.318Z</time></trkpt><trkpt lat="42.232035" lon="12.94079"><ele>543.0</ele><time>2026-04-20T08:45:49.316Z</time></trkpt><trkpt lat="42.2320767" lon="12.9408983"><ele>543.0</ele><time>2026-04-20T08:45:50.317Z</time></trkpt><trkpt lat="42.232125" lon="12.9410067"><ele>543.0</ele><time>2026-04-20T08:45:51.317Z</time></trkpt><trkpt lat="42.2321767" lon="12.9411183"><ele>543.0</ele><time>2026-04-20T08:45:52.318Z</time></trkpt><trkpt lat="42.23224" lon="12.941225"><ele>542.6</ele><time>2026-04-20T08:45:53.319Z</time></trkpt><trkpt lat="42.232305" lon="12.9413267"><ele>542.1999999999999</ele><time>2026-04-20T08:45:54.317Z</time></trkpt><trkpt lat="42.23237" lon="12.9414283"><ele>541.8</ele><time>2026-04-20T08:45:55.318Z</time></trkpt><trkpt lat="42.2324383" lon="12.9415233"><ele>541.4</ele><time>2026-04-20T08:45:56.32Z</time></trkpt><trkpt lat="42.2325117" lon="12.9416167"><ele>541.0</ele><time>2026-04-20T08:45:57.319Z</time></trkpt><trkpt lat="42.2325933" lon="12.9417067"><ele>540.5</ele><time>2026-04-20T08:45:58.32Z</time></trkpt><trkpt lat="42.2326817" lon="12.9417983"><ele>540.0</ele><time>2026-04-20T08:45:59.32Z</time></trkpt><trkpt lat="42.23278" lon="12.9418867"><ele>539.5</ele><time>2026-04-20T08:46:00.319Z</time></trkpt><trkpt lat="42.2328867" lon="12.941975"><ele>539.0</ele><time>2026-04-20T08:46:01.319Z</time></trkpt><trkpt lat="42.233005" lon="12.94206"><ele>539.0</ele><time>2026-04-20T08:46:02.319Z</time></trkpt><trkpt lat="42.2331217" lon="12.942135"><ele>539.0</ele><time>2026-04-20T08:46:03.319Z</time></trkpt><trkpt lat="42.2332333" lon="12.9421933"><ele>539.0</ele><time>2026-04-20T08:46:04.318Z</time></trkpt><trkpt lat="42.2333333" lon="12.9422567"><ele>539.0</ele><time>2026-04-20T08:46:05.32Z</time></trkpt><trkpt lat="42.2334083" lon="12.9423317"><ele>539.0</ele><time>2026-04-20T08:46:06.32Z</time></trkpt><trkpt lat="42.2334633" lon="12.9424067"><ele>539.0</ele><time>2026-04-20T08:46:07.32Z</time></trkpt><trkpt lat="42.2335417" lon="12.9425117"><ele>539.0</ele><time>2026-04-20T08:46:09.32Z</time></trkpt><trkpt lat="42.2336017" lon="12.9425933"><ele>539.0</ele><time>2026-04-20T08:46:12.32Z</time></trkpt><trkpt lat="42.2336617" lon="12.9426317"><ele>539.0</ele><time>2026-04-20T08:46:15.319Z</time></trkpt><trkpt lat="42.233595" lon="12.9425817"><ele>539.0</ele><time>2026-04-20T08:46:23.316Z</time></trkpt><trkpt lat="42.2335367" lon="12.9425267"><ele>539.0</ele><time>2026-04-20T08:46:25.32Z</time></trkpt><trkpt lat="42.2334283" lon="12.94242"><ele>539.0</ele><time>2026-04-20T08:46:27.32Z</time></trkpt><trkpt lat="42.2333667" lon="12.9423617"><ele>539.0</ele><time>2026-04-20T08:46:28.32Z</time></trkpt><trkpt lat="42.2333067" lon="12.9422983"><ele>539.0</ele><time>2026-04-20T08:46:29.32Z</time></trkpt><trkpt lat="42.23324" lon="12.9422483"><ele>539.0</ele><time>2026-04-20T08:46:30.32Z</time></trkpt><trkpt lat="42.2331783" lon="12.942215"><ele>539.0</ele><time>2026-04-20T08:46:31.319Z</time></trkpt><trkpt lat="42.233115" lon="12.94218"><ele>539.0</ele><time>2026-04-20T08:46:32.316Z</time></trkpt><trkpt lat="42.2330533" lon="12.9421417"><ele>539.0</ele><time>2026-04-20T08:46:33.32Z</time></trkpt><trkpt lat="42.2329933" lon="12.9421017"><ele>539.0</ele><time>2026-04-20T08:46:34.32Z</time></trkpt><trkpt lat="42.2329283" lon="12.9420567"><ele>539.0</ele><time>2026-04-20T08:46:35.32Z</time></trkpt><trkpt lat="42.232865" lon="12.9420067"><ele>539.0</ele><time>2026-04-20T08:46:36.319Z</time></trkpt><trkpt lat="42.23281" lon="12.94196"><ele>539.0</ele><time>2026-04-20T08:46:37.319Z</time></trkpt><trkpt lat="42.2327233" lon="12.941875"><ele>539.0</ele><time>2026-04-20T08:46:39.32Z</time></trkpt><trkpt lat="42.232675" lon="12.94182"><ele>539.0</ele><time>2026-04-20T08:46:41.32Z</time></trkpt><trkpt lat="42.23264" lon="12.941725"><ele>539.0</ele><time>2026-04-20T08:57:44.321Z</time></trkpt><trkpt lat="42.232615" lon="12.941915"><ele>539.0</ele><time>2026-04-20T08:58:20.132Z</time></trkpt><trkpt lat="42.2326283" lon="12.94183"><ele>539.0</ele><time>2026-04-20T08:58:25.316Z</time></trkpt><trkpt lat="42.23264" lon="12.941745"><ele>539.0</ele><time>2026-04-20T08:59:03.315Z</time></trkpt><trkpt lat="42.2325483" lon="12.941635"><ele>539.4</ele><time>2026-04-20T08:59:06.815Z</time></trkpt><trkpt lat="42.23248" lon="12.9415667"><ele>539.8</ele><time>2026-04-20T08:59:08.314Z</time></trkpt><trkpt lat="42.2324267" lon="12.9415067"><ele>540.2</ele><time>2026-04-20T08:59:09.314Z</time></trkpt><trkpt lat="42.2323683" lon="12.9414367"><ele>540.6</ele><time>2026-04-20T08:59:10.317Z</time></trkpt><trkpt lat="42.23229" lon="12.941315"><ele>541.0</ele><time>2026-04-20T08:59:12.317Z</time></trkpt><trkpt lat="42.2322233" lon="12.9411933"><ele>541.0</ele><time>2026-04-20T08:59:14.316Z</time></trkpt><trkpt lat="42.2321583" lon="12.94104"><ele>541.0</ele><time>2026-04-20T08:59:16.315Z</time></trkpt><trkpt lat="42.2321167" lon="12.9409633"><ele>541.0</ele><time>2026-04-20T08:59:17.317Z</time></trkpt><trkpt lat="42.2320767" lon="12.94089"><ele>541.0</ele><time>2026-04-20T08:59:18.317Z</time></trkpt><trkpt lat="42.232035" lon="12.940815"><ele>541.0</ele><time>2026-04-20T08:59:19.315Z</time></trkpt><trkpt lat="42.231995" lon="12.940725"><ele>541.0</ele><time>2026-04-20T08:59:20.316Z</time></trkpt><trkpt lat="42.2319583" lon="12.940625"><ele>541.3333333333334</ele><time>2026-04-20T08:59:21.316Z</time></trkpt><trkpt lat="42.2319333" lon="12.9405233"><ele>541.6666666666667</ele><time>2026-04-20T08:59:22.316Z</time></trkpt><trkpt lat="42.2319133" lon="12.9404267"><ele>542.0</ele><time>2026-04-20T08:59:23.316Z</time></trkpt><trkpt lat="42.2318967" lon="12.9403417"><ele>542.3333333333334</ele><time>2026-04-20T08:59:24.316Z</time></trkpt><trkpt lat="42.2318617" lon="12.9402017"><ele>542.6666666666666</ele><time>2026-04-20T08:59:26.319Z</time></trkpt><trkpt lat="42.23183" lon="12.9400917"><ele>543.0</ele><time>2026-04-20T08:59:28.317Z</time></trkpt><trkpt lat="42.2317683" lon="12.940055"><ele>543.0</ele><time>2026-04-20T08:59:30.317Z</time></trkpt><trkpt lat="42.23165" lon="12.9400817"><ele>543.0</ele><time>2026-04-20T08:59:32.317Z</time></trkpt><trkpt lat="42.2315817" lon="12.9401167"><ele>543.0</ele><time>2026-04-20T08:59:33.317Z</time></trkpt><trkpt lat="42.231515" lon="12.940165"><ele>543.0</ele><time>2026-04-20T08:59:34.316Z</time></trkpt><trkpt lat="42.23146" lon="12.9402367"><ele>543.0</ele><time>2026-04-20T08:59:35.317Z</time></trkpt><trkpt lat="42.2314133" lon="12.9403317"><ele>543.0</ele><time>2026-04-20T08:59:36.317Z</time></trkpt><trkpt lat="42.2313533" lon="12.940455"><ele>544.6</ele><time>2026-04-20T08:59:37.316Z</time></trkpt><trkpt lat="42.2312933" lon="12.9405767"><ele>546.1999999999999</ele><time>2026-04-20T08:59:38.317Z</time></trkpt><trkpt lat="42.2312267" lon="12.9406883"><ele>547.8</ele><time>2026-04-20T08:59:39.317Z</time></trkpt><trkpt lat="42.2311517" lon="12.940795"><ele>549.4</ele><time>2026-04-20T08:59:40.317Z</time></trkpt><trkpt lat="42.2310683" lon="12.9409017"><ele>551.0</ele><time>2026-04-20T08:59:41.318Z</time></trkpt><trkpt lat="42.2309883" lon="12.9410167"><ele>551.0</ele><time>2026-04-20T08:59:42.317Z</time></trkpt><trkpt lat="42.2309183" lon="12.9411533"><ele>551.0</ele><time>2026-04-20T08:59:43.316Z</time></trkpt><trkpt lat="42.23085" lon="12.9413067"><ele>551.0</ele><time>2026-04-20T08:59:44.316Z</time></trkpt><trkpt lat="42.2307667" lon="12.9414483"><ele>551.0</ele><time>2026-04-20T08:59:45.316Z</time></trkpt><trkpt lat="42.2306783" lon="12.9415717"><ele>551.25</ele><time>2026-04-20T08:59:46.317Z</time></trkpt><trkpt lat="42.230585" lon="12.9416717"><ele>551.5</ele><time>2026-04-20T08:59:47.317Z</time></trkpt><trkpt lat="42.2304867" lon="12.9417467"><ele>551.75</ele><time>2026-04-20T08:59:48.317Z</time></trkpt><trkpt lat="42.230375" lon="12.9417867"><ele>552.0</ele><time>2026-04-20T08:59:49.316Z</time></trkpt><trkpt lat="42.2302433" lon="12.94178"><ele>552.0</ele><time>2026-04-20T08:59:50.317Z</time></trkpt><trkpt lat="42.2301167" lon="12.9417533"><ele>552.0</ele><time>2026-04-20T08:59:51.316Z</time></trkpt><trkpt lat="42.2299833" lon="12.9416933"><ele>552.0</ele><time>2026-04-20T08:59:52.316Z</time></trkpt><trkpt lat="42.229855" lon="12.941605"><ele>552.0</ele><time>2026-04-20T08:59:53.316Z</time></trkpt><trkpt lat="42.2297367" lon="12.9414917"><ele>551.75</ele><time>2026-04-20T08:59:54.317Z</time></trkpt><trkpt lat="42.2296467" lon="12.9413717"><ele>551.5</ele><time>2026-04-20T08:59:55.316Z</time></trkpt><trkpt lat="42.2295767" lon="12.94123"><ele>551.25</ele><time>2026-04-20T08:59:56.317Z</time></trkpt><trkpt lat="42.2295167" lon="12.9410633"><ele>551.0</ele><time>2026-04-20T08:59:57.318Z</time></trkpt><trkpt lat="42.229465" lon="12.940875"><ele>551.0</ele><time>2026-04-20T08:59:58.317Z</time></trkpt><trkpt lat="42.2294183" lon="12.9406783"><ele>551.0</ele><time>2026-04-20T08:59:59.317Z</time></trkpt><trkpt lat="42.2293817" lon="12.94049"><ele>551.0</ele><time>2026-04-20T09:00:00.317Z</time></trkpt><trkpt lat="42.2293433" lon="12.94032"><ele>551.0</ele><time>2026-04-20T09:00:01.316Z</time></trkpt><trkpt lat="42.22929" lon="12.9401733"><ele>551.0</ele><time>2026-04-20T09:00:02.316Z</time></trkpt><trkpt lat="42.229225" lon="12.9400583"><ele>551.0</ele><time>2026-04-20T09:00:03.317Z</time></trkpt><trkpt lat="42.2291567" lon="12.9399817"><ele>551.0</ele><time>2026-04-20T09:00:04.315Z</time></trkpt><trkpt lat="42.2290783" lon="12.9399333"><ele>551.0</ele><time>2026-04-20T09:00:05.315Z</time></trkpt><trkpt lat="42.2289817" lon="12.9399267"><ele>551.0</ele><time>2026-04-20T09:00:06.316Z</time></trkpt><trkpt lat="42.2288967" lon="12.939965"><ele>553.0</ele><time>2026-04-20T09:00:07.317Z</time></trkpt><trkpt lat="42.228815" lon="12.9400567"><ele>555.0</ele><time>2026-04-20T09:00:08.317Z</time></trkpt><trkpt lat="42.2287467" lon="12.9402067"><ele>557.0</ele><time>2026-04-20T09:00:09.317Z</time></trkpt><trkpt lat="42.2286983" lon="12.9403917"><ele>559.0</ele><time>2026-04-20T09:00:10.316Z</time></trkpt><trkpt lat="42.22865" lon="12.9405467"><ele>559.0</ele><time>2026-04-20T09:00:11.316Z</time></trkpt><trkpt lat="42.2285917" lon="12.9406633"><ele>559.0</ele><time>2026-04-20T09:00:12.316Z</time></trkpt><trkpt lat="42.2285283" lon="12.9407383"><ele>559.0</ele><time>2026-04-20T09:00:13.32Z</time></trkpt><trkpt lat="42.2284617" lon="12.9407883"><ele>559.0</ele><time>2026-04-20T09:00:14.318Z</time></trkpt><trkpt lat="42.2283833" lon="12.9408167"><ele>559.0</ele><time>2026-04-20T09:00:15.318Z</time></trkpt><trkpt lat="42.228305" lon="12.9408117"><ele>559.0</ele><time>2026-04-20T09:00:16.318Z</time></trkpt><trkpt lat="42.2282083" lon="12.9407617"><ele>558.0</ele><time>2026-04-20T09:00:17.319Z</time></trkpt><trkpt lat="42.2281167" lon="12.9407433"><ele>557.0</ele><time>2026-04-20T09:00:18.317Z</time></trkpt><trkpt lat="42.2280217" lon="12.9407467"><ele>556.0</ele><time>2026-04-20T09:00:19.315Z</time></trkpt><trkpt lat="42.227935" lon="12.940765"><ele>555.0</ele><time>2026-04-20T09:00:20.317Z</time></trkpt><trkpt lat="42.2278433" lon="12.9408483"><ele>554.0</ele><time>2026-04-20T09:00:21.317Z</time></trkpt><trkpt lat="42.22773" lon="12.940955"><ele>554.0</ele><time>2026-04-20T09:00:22.316Z</time></trkpt><trkpt lat="42.2276183" lon="12.9410633"><ele>554.0</ele><time>2026-04-20T09:00:23.316Z</time></trkpt><trkpt lat="42.2274983" lon="12.9411533"><ele>554.0</ele><time>2026-04-20T09:00:24.316Z</time></trkpt><trkpt lat="42.2273817" lon="12.9412233"><ele>554.0</ele><time>2026-04-20T09:00:25.32Z</time></trkpt><trkpt lat="42.2272667" lon="12.9412433"><ele>555.75</ele><time>2026-04-20T09:00:26.319Z</time></trkpt><trkpt lat="42.227145" lon="12.9412167"><ele>557.5</ele><time>2026-04-20T09:00:27.318Z</time></trkpt><trkpt lat="42.2270117" lon="12.9411667"><ele>559.25</ele><time>2026-04-20T09:00:28.319Z</time></trkpt><trkpt lat="42.2268667" lon="12.94112"><ele>561.0</ele><time>2026-04-20T09:00:29.317Z</time></trkpt><trkpt lat="42.22671" lon="12.9410917"><ele>561.0</ele><time>2026-04-20T09:00:30.318Z</time></trkpt><trkpt lat="42.226545" lon="12.9410617"><ele>561.0</ele><time>2026-04-20T09:00:31.317Z</time></trkpt><trkpt lat="42.2263867" lon="12.9410083"><ele>561.0</ele><time>2026-04-20T09:00:32.32Z</time></trkpt><trkpt lat="42.226235" lon="12.9409317"><ele>565.3333333333334</ele><time>2026-04-20T09:00:33.32Z</time></trkpt><trkpt lat="42.2260933" lon="12.9408383"><ele>569.6666666666667</ele><time>2026-04-20T09:00:34.319Z</time></trkpt><trkpt lat="42.2259633" lon="12.9407267"><ele>574.0</ele><time>2026-04-20T09:00:35.316Z</time></trkpt><trkpt lat="42.2258467" lon="12.9406033"><ele>574.0</ele><time>2026-04-20T09:00:36.319Z</time></trkpt><trkpt lat="42.2257317" lon="12.94046"><ele>574.0</ele><time>2026-04-20T09:00:37.318Z</time></trkpt><trkpt lat="42.22562" lon="12.9403067"><ele>574.0</ele><time>2026-04-20T09:00:38.319Z</time></trkpt><trkpt lat="42.2255067" lon="12.9401767"><ele>576.25</ele><time>2026-04-20T09:00:39.32Z</time></trkpt><trkpt lat="42.2254" lon="12.940035"><ele>578.5</ele><time>2026-04-20T09:00:40.319Z</time></trkpt><trkpt lat="42.225295" lon="12.9399317"><ele>580.75</ele><time>2026-04-20T09:00:41.319Z</time></trkpt><trkpt lat="42.225175" lon="12.9398617"><ele>583.0</ele><time>2026-04-20T09:00:42.32Z</time></trkpt><trkpt lat="42.2250367" lon="12.9398133"><ele>583.0</ele><time>2026-04-20T09:00:43.32Z</time></trkpt><trkpt lat="42.2248833" lon="12.9397617"><ele>583.0</ele><time>2026-04-20T09:00:44.32Z</time></trkpt><trkpt lat="42.22472" lon="12.9397033"><ele>583.0</ele><time>2026-04-20T09:00:45.317Z</time></trkpt><trkpt lat="42.224555" lon="12.9396683"><ele>580.6666666666667</ele><time>2026-04-20T09:00:46.32Z</time></trkpt><trkpt lat="42.2243983" lon="12.9396117"><ele>578.3333333333334</ele><time>2026-04-20T09:00:47.32Z</time></trkpt><trkpt lat="42.2242433" lon="12.93952"><ele>576.0</ele><time>2026-04-20T09:00:48.318Z</time></trkpt><trkpt lat="42.224085" lon="12.9394167"><ele>580.3333333333334</ele><time>2026-04-20T09:00:49.316Z</time></trkpt><trkpt lat="42.2239117" lon="12.9393183"><ele>584.6666666666667</ele><time>2026-04-20T09:00:50.317Z</time></trkpt><trkpt lat="42.2237333" lon="12.9392383"><ele>589.0</ele><time>2026-04-20T09:00:51.318Z</time></trkpt><trkpt lat="42.2235633" lon="12.9391533"><ele>590.3333333333334</ele><time>2026-04-20T09:00:52.316Z</time></trkpt><trkpt lat="42.2234067" lon="12.9390617"><ele>591.6666666666666</ele><time>2026-04-20T09:00:53.316Z</time></trkpt><trkpt lat="42.223265" lon="12.938965"><ele>593.0</ele><time>2026-04-20T09:00:54.317Z</time></trkpt><trkpt lat="42.2231483" lon="12.9388567"><ele>594.0</ele><time>2026-04-20T09:00:55.32Z</time></trkpt><trkpt lat="42.2230617" lon="12.938725"><ele>595.0</ele><time>2026-04-20T09:00:56.318Z</time></trkpt><trkpt lat="42.223005" lon="12.9385833"><ele>596.0</ele><time>2026-04-20T09:00:57.32Z</time></trkpt><trkpt lat="42.2229883" lon="12.9384133"><ele>597.0</ele><time>2026-04-20T09:00:58.319Z</time></trkpt><trkpt lat="42.22299" lon="12.9382233"><ele>597.5</ele><time>2026-04-20T09:00:59.318Z</time></trkpt><trkpt lat="42.2229933" lon="12.9380317"><ele>598.0</ele><time>2026-04-20T09:01:00.316Z</time></trkpt><trkpt lat="42.222995" lon="12.9378583"><ele>598.5</ele><time>2026-04-20T09:01:01.316Z</time></trkpt><trkpt lat="42.2229767" lon="12.9377217"><ele>599.0</ele><time>2026-04-20T09:01:02.32Z</time></trkpt><trkpt lat="42.2229317" lon="12.9376217"><ele>599.0</ele><time>2026-04-20T09:01:03.319Z</time></trkpt><trkpt lat="42.222865" lon="12.937555"><ele>599.0</ele><time>2026-04-20T09:01:04.316Z</time></trkpt><trkpt lat="42.2227867" lon="12.93752"><ele>599.0</ele><time>2026-04-20T09:01:05.318Z</time></trkpt><trkpt lat="42.2226983" lon="12.93754"><ele>599.0</ele><time>2026-04-20T09:01:06.318Z</time></trkpt><trkpt lat="42.2226017" lon="12.937625"><ele>599.0</ele><time>2026-04-20T09:01:07.317Z</time></trkpt><trkpt lat="42.2224967" lon="12.937735"><ele>599.0</ele><time>2026-04-20T09:01:08.319Z</time></trkpt><trkpt lat="42.2223833" lon="12.937785"><ele>599.0</ele><time>2026-04-20T09:01:09.318Z</time></trkpt><trkpt lat="42.222265" lon="12.9377783"><ele>599.0</ele><time>2026-04-20T09:01:10.318Z</time></trkpt><trkpt lat="42.2221433" lon="12.9377133"><ele>599.0</ele><time>2026-04-20T09:01:11.316Z</time></trkpt><trkpt lat="42.2220367" lon="12.9376167"><ele>600.6</ele><time>2026-04-20T09:01:12.316Z</time></trkpt><trkpt lat="42.2219433" lon="12.9375283"><ele>602.2</ele><time>2026-04-20T09:01:13.32Z</time></trkpt><trkpt lat="42.2218517" lon="12.9374767"><ele>603.8000000000001</ele><time>2026-04-20T09:01:14.319Z</time></trkpt><trkpt lat="42.2217583" lon="12.9374633"><ele>605.4</ele><time>2026-04-20T09:01:15.319Z</time></trkpt><trkpt lat="42.2216767" lon="12.93751"><ele>607.0</ele><time>2026-04-20T09:01:16.319Z</time></trkpt><trkpt lat="42.2216083" lon="12.9375783"><ele>607.0</ele><time>2026-04-20T09:01:17.32Z</time></trkpt><trkpt lat="42.2215833" lon="12.9376933"><ele>607.0</ele><time>2026-04-20T09:01:18.318Z</time></trkpt><trkpt lat="42.2215867" lon="12.9378383"><ele>607.0</ele><time>2026-04-20T09:01:19.316Z</time></trkpt><trkpt lat="42.22161" lon="12.938015"><ele>607.0</ele><time>2026-04-20T09:01:20.319Z</time></trkpt><trkpt lat="42.2215917" lon="12.9381733"><ele>607.0</ele><time>2026-04-20T09:01:21.317Z</time></trkpt><trkpt lat="42.2215417" lon="12.93832"><ele>608.5</ele><time>2026-04-20T09:01:22.316Z</time></trkpt><trkpt lat="42.2214667" lon="12.9384667"><ele>610.0</ele><time>2026-04-20T09:01:23.316Z</time></trkpt><trkpt lat="42.221385" lon="12.9386217"><ele>611.5</ele><time>2026-04-20T09:01:24.316Z</time></trkpt><trkpt lat="42.2213017" lon="12.9387867"><ele>613.0</ele><time>2026-04-20T09:01:25.319Z</time></trkpt><trkpt lat="42.2212183" lon="12.93896"><ele>613.0</ele><time>2026-04-20T09:01:26.32Z</time></trkpt><trkpt lat="42.22113" lon="12.93912"><ele>613.0</ele><time>2026-04-20T09:01:27.319Z</time></trkpt><trkpt lat="42.2210333" lon="12.939255"><ele>613.0</ele><time>2026-04-20T09:01:28.319Z</time></trkpt><trkpt lat="42.220925" lon="12.9393517"><ele>613.0</ele><time>2026-04-20T09:01:29.318Z</time></trkpt><trkpt lat="42.2208" lon="12.9394117"><ele>612.0</ele><time>2026-04-20T09:01:30.318Z</time></trkpt><trkpt lat="42.2206567" lon="12.939455"><ele>611.0</ele><time>2026-04-20T09:01:31.316Z</time></trkpt><trkpt lat="42.2205" lon="12.9394917"><ele>610.0</ele><time>2026-04-20T09:01:32.317Z</time></trkpt><trkpt lat="42.2203383" lon="12.93952"><ele>605.3333333333334</ele><time>2026-04-20T09:01:33.317Z</time></trkpt><trkpt lat="42.2201683" lon="12.9395417"><ele>600.6666666666666</ele><time>2026-04-20T09:01:34.315Z</time></trkpt><trkpt lat="42.21999" lon="12.9395667"><ele>596.0</ele><time>2026-04-20T09:01:35.316Z</time></trkpt><trkpt lat="42.219815" lon="12.93961"><ele>596.0</ele><time>2026-04-20T09:01:36.316Z</time></trkpt><trkpt lat="42.2196467" lon="12.93968"><ele>596.0</ele><time>2026-04-20T09:01:37.317Z</time></trkpt><trkpt lat="42.21949" lon="12.939755"><ele>596.0</ele><time>2026-04-20T09:01:38.317Z</time></trkpt><trkpt lat="42.2193367" lon="12.939825"><ele>596.0</ele><time>2026-04-20T09:01:39.317Z</time></trkpt><trkpt lat="42.2192" lon="12.9398817"><ele>596.0</ele><time>2026-04-20T09:01:40.315Z</time></trkpt><trkpt lat="42.21906" lon="12.9399067"><ele>596.0</ele><time>2026-04-20T09:01:41.315Z</time></trkpt><trkpt lat="42.2188783" lon="12.9398683"><ele>591.0</ele><time>2026-04-20T09:01:42.491Z</time></trkpt><trkpt lat="42.2186533" lon="12.9398517"><ele>586.0</ele><time>2026-04-20T09:01:43.815Z</time></trkpt><trkpt lat="42.2184167" lon="12.9397983"><ele>586.0</ele><time>2026-04-20T09:01:45.315Z</time></trkpt><trkpt lat="42.2182483" lon="12.939775"><ele>586.0</ele><time>2026-04-20T09:01:46.338Z</time></trkpt><trkpt lat="42.2180833" lon="12.9397517"><ele>586.0</ele><time>2026-04-20T09:01:47.32Z</time></trkpt><trkpt lat="42.2179133" lon="12.9397467"><ele>585.75</ele><time>2026-04-20T09:01:48.318Z</time></trkpt><trkpt lat="42.2177567" lon="12.9397517"><ele>585.5</ele><time>2026-04-20T09:01:49.316Z</time></trkpt><trkpt lat="42.21761" lon="12.9397667"><ele>585.25</ele><time>2026-04-20T09:01:50.316Z</time></trkpt><trkpt lat="42.2174683" lon="12.9397667"><ele>585.0</ele><time>2026-04-20T09:01:51.316Z</time></trkpt><trkpt lat="42.2173283" lon="12.9397367"><ele>580.0</ele><time>2026-04-20T09:01:52.316Z</time></trkpt><trkpt lat="42.2171917" lon="12.93966"><ele>575.0</ele><time>2026-04-20T09:01:53.315Z</time></trkpt><trkpt lat="42.2170533" lon="12.9395583"><ele>570.0</ele><time>2026-04-20T09:01:54.316Z</time></trkpt><trkpt lat="42.2169083" lon="12.93945"><ele>570.0</ele><time>2026-04-20T09:01:55.315Z</time></trkpt><trkpt lat="42.2167567" lon="12.9393467"><ele>570.0</ele><time>2026-04-20T09:01:56.316Z</time></trkpt><trkpt lat="42.2166083" lon="12.93924"><ele>570.0</ele><time>2026-04-20T09:01:57.316Z</time></trkpt><trkpt lat="42.21647" lon="12.9391267"><ele>567.3333333333334</ele><time>2026-04-20T09:01:58.317Z</time></trkpt><trkpt lat="42.2163417" lon="12.9389967"><ele>564.6666666666667</ele><time>2026-04-20T09:01:59.316Z</time></trkpt><trkpt lat="42.216225" lon="12.93886"><ele>562.0</ele><time>2026-04-20T09:02:00.317Z</time></trkpt><trkpt lat="42.2161133" lon="12.9387217"><ele>562.0</ele><time>2026-04-20T09:02:01.316Z</time></trkpt><trkpt lat="42.216015" lon="12.9385683"><ele>562.0</ele><time>2026-04-20T09:02:02.317Z</time></trkpt><trkpt lat="42.2159483" lon="12.9383983"><ele>562.0</ele><time>2026-04-20T09:02:03.316Z</time></trkpt><trkpt lat="42.2159183" lon="12.9382083"><ele>562.0</ele><time>2026-04-20T09:02:04.317Z</time></trkpt><trkpt lat="42.2159033" lon="12.9380167"><ele>565.75</ele><time>2026-04-20T09:02:05.318Z</time></trkpt><trkpt lat="42.215875" lon="12.9378217"><ele>569.5</ele><time>2026-04-20T09:02:06.318Z</time></trkpt><trkpt lat="42.2158317" lon="12.9376333"><ele>573.25</ele><time>2026-04-20T09:02:07.317Z</time></trkpt><trkpt lat="42.2157867" lon="12.9374617"><ele>577.0</ele><time>2026-04-20T09:02:08.316Z</time></trkpt><trkpt lat="42.2157417" lon="12.9373117"><ele>578.6</ele><time>2026-04-20T09:02:09.317Z</time></trkpt><trkpt lat="42.2156733" lon="12.9372"><ele>580.2</ele><time>2026-04-20T09:02:10.318Z</time></trkpt><trkpt lat="42.2156" lon="12.93713"><ele>581.8</ele><time>2026-04-20T09:02:11.318Z</time></trkpt><trkpt lat="42.2155233" lon="12.9371217"><ele>583.4</ele><time>2026-04-20T09:02:12.317Z</time></trkpt><trkpt lat="42.2154417" lon="12.9371567"><ele>585.0</ele><time>2026-04-20T09:02:13.316Z</time></trkpt><trkpt lat="42.2153683" lon="12.9372433"><ele>585.0</ele><time>2026-04-20T09:02:14.318Z</time></trkpt><trkpt lat="42.2152967" lon="12.937375"><ele>585.0</ele><time>2026-04-20T09:02:15.318Z</time></trkpt><trkpt lat="42.2151983" lon="12.93749"><ele>585.0</ele><time>2026-04-20T09:02:16.319Z</time></trkpt><trkpt lat="42.21509" lon="12.937595"><ele>585.0</ele><time>2026-04-20T09:02:17.318Z</time></trkpt><trkpt lat="42.2149617" lon="12.93767"><ele>578.0</ele><time>2026-04-20T09:02:18.318Z</time></trkpt><trkpt lat="42.2148117" lon="12.9377183"><ele>571.0</ele><time>2026-04-20T09:02:19.318Z</time></trkpt><trkpt lat="42.2146467" lon="12.9377467"><ele>564.0</ele><time>2026-04-20T09:02:20.318Z</time></trkpt><trkpt lat="42.21448" lon="12.9377733"><ele>564.0</ele><time>2026-04-20T09:02:21.316Z</time></trkpt><trkpt lat="42.2143" lon="12.9378"><ele>564.0</ele><time>2026-04-20T09:02:22.317Z</time></trkpt><trkpt lat="42.21411" lon="12.9378133"><ele>564.0</ele><time>2026-04-20T09:02:23.318Z</time></trkpt><trkpt lat="42.2139217" lon="12.9378117"><ele>566.3333333333334</ele><time>2026-04-20T09:02:24.319Z</time></trkpt><trkpt lat="42.2137383" lon="12.9378017"><ele>568.6666666666667</ele><time>2026-04-20T09:02:25.319Z</time></trkpt><trkpt lat="42.21357" lon="12.93779"><ele>571.0</ele><time>2026-04-20T09:02:26.317Z</time></trkpt><trkpt lat="42.21342" lon="12.9377833"><ele>571.0</ele><time>2026-04-20T09:02:27.317Z</time></trkpt><trkpt lat="42.2132883" lon="12.937785"><ele>571.0</ele><time>2026-04-20T09:02:28.318Z</time></trkpt><trkpt lat="42.213165" lon="12.9377933"><ele>571.0</ele><time>2026-04-20T09:02:29.316Z</time></trkpt><trkpt lat="42.2130533" lon="12.9378333"><ele>571.0</ele><time>2026-04-20T09:02:30.318Z</time></trkpt><trkpt lat="42.2129717" lon="12.93791"><ele>575.75</ele><time>2026-04-20T09:02:31.317Z</time></trkpt><trkpt lat="42.2129283" lon="12.9380267"><ele>580.5</ele><time>2026-04-20T09:02:32.317Z</time></trkpt><trkpt lat="42.2129217" lon="12.9381667"><ele>585.25</ele><time>2026-04-20T09:02:33.317Z</time></trkpt><trkpt lat="42.2129517" lon="12.9383167"><ele>590.0</ele><time>2026-04-20T09:02:34.318Z</time></trkpt><trkpt lat="42.2130167" lon="12.9384833"><ele>589.5</ele><time>2026-04-20T09:02:35.316Z</time></trkpt><trkpt lat="42.2130933" lon="12.938645"><ele>589.0</ele><time>2026-04-20T09:02:36.318Z</time></trkpt><trkpt lat="42.2131883" lon="12.9387717"><ele>588.5</ele><time>2026-04-20T09:02:37.317Z</time></trkpt><trkpt lat="42.2133117" lon="12.9388583"><ele>588.0</ele><time>2026-04-20T09:02:38.318Z</time></trkpt><trkpt lat="42.2134667" lon="12.93891"><ele>588.0</ele><time>2026-04-20T09:02:39.316Z</time></trkpt><trkpt lat="42.213625" lon="12.938955"><ele>588.0</ele><time>2026-04-20T09:02:40.318Z</time></trkpt><trkpt lat="42.2137633" lon="12.9390033"><ele>588.0</ele><time>2026-04-20T09:02:41.316Z</time></trkpt><trkpt lat="42.21389" lon="12.9390767"><ele>588.0</ele><time>2026-04-20T09:02:42.317Z</time></trkpt><trkpt lat="42.21401" lon="12.939175"><ele>588.6666666666666</ele><time>2026-04-20T09:02:43.318Z</time></trkpt><trkpt lat="42.21414" lon="12.9393017"><ele>589.3333333333333</ele><time>2026-04-20T09:02:44.318Z</time></trkpt><trkpt lat="42.2142717" lon="12.93944"><ele>590.0</ele><time>2026-04-20T09:02:45.32Z</time></trkpt><trkpt lat="42.2143867" lon="12.9395767"><ele>590.0</ele><time>2026-04-20T09:02:46.319Z</time></trkpt><trkpt lat="42.21448" lon="12.93973"><ele>590.0</ele><time>2026-04-20T09:02:47.319Z</time></trkpt><trkpt lat="42.21454" lon="12.9398933"><ele>590.0</ele><time>2026-04-20T09:02:48.317Z</time></trkpt><trkpt lat="42.2145833" lon="12.9400867"><ele>590.0</ele><time>2026-04-20T09:02:49.32Z</time></trkpt><trkpt lat="42.21461" lon="12.940305"><ele>590.0</ele><time>2026-04-20T09:02:50.319Z</time></trkpt><trkpt lat="42.2146283" lon="12.9405233"><ele>590.0</ele><time>2026-04-20T09:02:51.318Z</time></trkpt><trkpt lat="42.2146517" lon="12.9407417"><ele>590.0</ele><time>2026-04-20T09:02:52.32Z</time></trkpt><trkpt lat="42.2147083" lon="12.9409483"><ele>585.5</ele><time>2026-04-20T09:02:53.319Z</time></trkpt><trkpt lat="42.214765" lon="12.9411333"><ele>581.0</ele><time>2026-04-20T09:02:54.32Z</time></trkpt><trkpt lat="42.21479" lon="12.9413333"><ele>576.5</ele><time>2026-04-20T09:02:55.32Z</time></trkpt><trkpt lat="42.2147867" lon="12.9415267"><ele>572.0</ele><time>2026-04-20T09:02:56.32Z</time></trkpt><trkpt lat="42.2147383" lon="12.9417017"><ele>566.25</ele><time>2026-04-20T09:02:57.318Z</time></trkpt><trkpt lat="42.2146617" lon="12.9418367"><ele>560.5</ele><time>2026-04-20T09:02:58.319Z</time></trkpt><trkpt lat="42.2145667" lon="12.94193"><ele>554.75</ele><time>2026-04-20T09:02:59.317Z</time></trkpt><trkpt lat="42.2144483" lon="12.9419817"><ele>549.0</ele><time>2026-04-20T09:03:00.318Z</time></trkpt><trkpt lat="42.2143083" lon="12.9420033"><ele>549.0</ele><time>2026-04-20T09:03:01.318Z</time></trkpt><trkpt lat="42.2141533" lon="12.9420333"><ele>549.0</ele><time>2026-04-20T09:03:02.319Z</time></trkpt><trkpt lat="42.213985" lon="12.94209"><ele>549.0</ele><time>2026-04-20T09:03:03.319Z</time></trkpt><trkpt lat="42.2138117" lon="12.942175"><ele>550.6666666666666</ele><time>2026-04-20T09:03:04.316Z</time></trkpt><trkpt lat="42.2136433" lon="12.9422483"><ele>552.3333333333333</ele><time>2026-04-20T09:03:05.317Z</time></trkpt><trkpt lat="42.2134833" lon="12.9422867"><ele>554.0</ele><time>2026-04-20T09:03:06.318Z</time></trkpt><trkpt lat="42.2133317" lon="12.94228"><ele>554.0</ele><time>2026-04-20T09:03:07.316Z</time></trkpt><trkpt lat="42.2131867" lon="12.9422167"><ele>554.0</ele><time>2026-04-20T09:03:08.317Z</time></trkpt><trkpt lat="42.213045" lon="12.9421217"><ele>554.0</ele><time>2026-04-20T09:03:09.317Z</time></trkpt><trkpt lat="42.2128967" lon="12.941995"><ele>551.6666666666666</ele><time>2026-04-20T09:03:10.315Z</time></trkpt><trkpt lat="42.2127317" lon="12.9418567"><ele>549.3333333333334</ele><time>2026-04-20T09:03:11.316Z</time></trkpt><trkpt lat="42.212565" lon="12.9417283"><ele>547.0</ele><time>2026-04-20T09:03:12.319Z</time></trkpt><trkpt lat="42.21241" lon="12.94163"><ele>548.0</ele><time>2026-04-20T09:03:13.32Z</time></trkpt><trkpt lat="42.2122667" lon="12.941575"><ele>549.0</ele><time>2026-04-20T09:03:14.319Z</time></trkpt><trkpt lat="42.212125" lon="12.9415683"><ele>550.0</ele><time>2026-04-20T09:03:15.32Z</time></trkpt><trkpt lat="42.2119933" lon="12.9416317"><ele>551.0</ele><time>2026-04-20T09:03:16.318Z</time></trkpt><trkpt lat="42.2118683" lon="12.9417533"><ele>551.0</ele><time>2026-04-20T09:03:17.319Z</time></trkpt><trkpt lat="42.21176" lon="12.9419117"><ele>551.0</ele><time>2026-04-20T09:03:18.32Z</time></trkpt><trkpt lat="42.2116517" lon="12.9420517"><ele>551.0</ele><time>2026-04-20T09:03:19.316Z</time></trkpt><trkpt lat="42.2115233" lon="12.9421567"><ele>552.3333333333333</ele><time>2026-04-20T09:03:20.316Z</time></trkpt><trkpt lat="42.2113717" lon="12.942225"><ele>553.6666666666666</ele><time>2026-04-20T09:03:21.317Z</time></trkpt><trkpt lat="42.2111933" lon="12.942265"><ele>555.0</ele><time>2026-04-20T09:03:22.316Z</time></trkpt><trkpt lat="42.2110067" lon="12.9422833"><ele>555.0</ele><time>2026-04-20T09:03:23.316Z</time></trkpt><trkpt lat="42.2108283" lon="12.9423"><ele>555.0</ele><time>2026-04-20T09:03:24.317Z</time></trkpt><trkpt lat="42.2106717" lon="12.9423267"><ele>555.0</ele><time>2026-04-20T09:03:25.316Z</time></trkpt><trkpt lat="42.2105367" lon="12.942385"><ele>556.6666666666666</ele><time>2026-04-20T09:03:26.317Z</time></trkpt><trkpt lat="42.210425" lon="12.9425083"><ele>558.3333333333333</ele><time>2026-04-20T09:03:27.317Z</time></trkpt><trkpt lat="42.210325" lon="12.94267"><ele>560.0</ele><time>2026-04-20T09:03:28.317Z</time></trkpt><trkpt lat="42.2102383" lon="12.94287"><ele>560.0</ele><time>2026-04-20T09:03:29.317Z</time></trkpt><trkpt lat="42.2101583" lon="12.9430483"><ele>560.0</ele><time>2026-04-20T09:03:30.316Z</time></trkpt><trkpt lat="42.21008" lon="12.9431833"><ele>560.0</ele><time>2026-04-20T09:03:31.316Z</time></trkpt><trkpt lat="42.2099833" lon="12.943265"><ele>560.0</ele><time>2026-04-20T09:03:32.316Z</time></trkpt><trkpt lat="42.2098567" lon="12.9433017"><ele>560.0</ele><time>2026-04-20T09:03:33.316Z</time></trkpt><trkpt lat="42.2097217" lon="12.9433217"><ele>560.0</ele><time>2026-04-20T09:03:34.316Z</time></trkpt><trkpt lat="42.2095967" lon="12.9433717"><ele>560.0</ele><time>2026-04-20T09:03:35.317Z</time></trkpt><trkpt lat="42.2094883" lon="12.9434733"><ele>560.0</ele><time>2026-04-20T09:03:36.317Z</time></trkpt><trkpt lat="42.2093967" lon="12.9436367"><ele>560.0</ele><time>2026-04-20T09:03:37.316Z</time></trkpt><trkpt lat="42.2093133" lon="12.9438283"><ele>560.0</ele><time>2026-04-20T09:03:38.317Z</time></trkpt><trkpt lat="42.2092367" lon="12.9440217"><ele>560.0</ele><time>2026-04-20T09:03:39.317Z</time></trkpt><trkpt lat="42.20917" lon="12.94423"><ele>558.5</ele><time>2026-04-20T09:03:40.315Z</time></trkpt><trkpt lat="42.2091133" lon="12.94444"><ele>557.0</ele><time>2026-04-20T09:03:41.317Z</time></trkpt><trkpt lat="42.2090633" lon="12.9446317"><ele>555.5</ele><time>2026-04-20T09:03:42.32Z</time></trkpt><trkpt lat="42.2090167" lon="12.9447817"><ele>554.0</ele><time>2026-04-20T09:03:43.32Z</time></trkpt><trkpt lat="42.2089567" lon="12.9448867"><ele>554.0</ele><time>2026-04-20T09:03:44.319Z</time></trkpt><trkpt lat="42.2088817" lon="12.944955"><ele>554.0</ele><time>2026-04-20T09:03:45.32Z</time></trkpt><trkpt lat="42.20879" lon="12.94499"><ele>554.0</ele><time>2026-04-20T09:03:46.32Z</time></trkpt><trkpt lat="42.208685" lon="12.9449733"><ele>554.0</ele><time>2026-04-20T09:03:47.32Z</time></trkpt><trkpt lat="42.2085683" lon="12.94492"><ele>554.0</ele><time>2026-04-20T09:03:48.32Z</time></trkpt><trkpt lat="42.208435" lon="12.9448583"><ele>554.0</ele><time>2026-04-20T09:03:49.316Z</time></trkpt><trkpt lat="42.2082833" lon="12.9448267"><ele>554.0</ele><time>2026-04-20T09:03:50.318Z</time></trkpt><trkpt lat="42.2081217" lon="12.9448333"><ele>554.0</ele><time>2026-04-20T09:03:51.318Z</time></trkpt><trkpt lat="42.20796" lon="12.94488"><ele>555.0</ele><time>2026-04-20T09:03:52.317Z</time></trkpt><trkpt lat="42.2077983" lon="12.9449767"><ele>556.0</ele><time>2026-04-20T09:03:53.318Z</time></trkpt><trkpt lat="42.20764" lon="12.9450917"><ele>557.0</ele><time>2026-04-20T09:03:54.318Z</time></trkpt><trkpt lat="42.2075" lon="12.9452117"><ele>557.0</ele><time>2026-04-20T09:03:55.317Z</time></trkpt><trkpt lat="42.207385" lon="12.9453217"><ele>557.0</ele><time>2026-04-20T09:03:56.316Z</time></trkpt><trkpt lat="42.2072983" lon="12.9454333"><ele>557.0</ele><time>2026-04-20T09:03:57.317Z</time></trkpt><trkpt lat="42.2072367" lon="12.9455533"><ele>557.0</ele><time>2026-04-20T09:03:58.317Z</time></trkpt><trkpt lat="42.2071983" lon="12.9456783"><ele>558.25</ele><time>2026-04-20T09:03:59.317Z</time></trkpt><trkpt lat="42.2072083" lon="12.9458083"><ele>559.5</ele><time>2026-04-20T09:04:00.318Z</time></trkpt><trkpt lat="42.2072583" lon="12.9459333"><ele>560.75</ele><time>2026-04-20T09:04:01.317Z</time></trkpt><trkpt lat="42.2073583" lon="12.9460533"><ele>562.0</ele><time>2026-04-20T09:04:02.319Z</time></trkpt><trkpt lat="42.2074883" lon="12.9461683"><ele>562.0</ele><time>2026-04-20T09:04:03.318Z</time></trkpt><trkpt lat="42.20761" lon="12.9462883"><ele>562.0</ele><time>2026-04-20T09:04:04.318Z</time></trkpt><trkpt lat="42.20774" lon="12.94641"><ele>562.0</ele><time>2026-04-20T09:04:05.316Z</time></trkpt><trkpt lat="42.20785" lon="12.9465433"><ele>562.0</ele><time>2026-04-20T09:04:06.317Z</time></trkpt><trkpt lat="42.2079283" lon="12.946695"><ele>562.0</ele><time>2026-04-20T09:04:07.317Z</time></trkpt><trkpt lat="42.2079767" lon="12.9468633"><ele>562.0</ele><time>2026-04-20T09:04:08.318Z</time></trkpt><trkpt lat="42.20801" lon="12.947035"><ele>562.0</ele><time>2026-04-20T09:04:09.317Z</time></trkpt><trkpt lat="42.2080417" lon="12.9472083"><ele>562.25</ele><time>2026-04-20T09:04:10.318Z</time></trkpt><trkpt lat="42.20808" lon="12.94739"><ele>562.5</ele><time>2026-04-20T09:04:11.317Z</time></trkpt><trkpt lat="42.2081167" lon="12.947575"><ele>562.75</ele><time>2026-04-20T09:04:12.32Z</time></trkpt><trkpt lat="42.2081483" lon="12.9477533"><ele>563.0</ele><time>2026-04-20T09:04:13.318Z</time></trkpt><trkpt lat="42.2081767" lon="12.9479317"><ele>563.25</ele><time>2026-04-20T09:04:14.321Z</time></trkpt><trkpt lat="42.2081983" lon="12.9481083"><ele>563.5</ele><time>2026-04-20T09:04:15.32Z</time></trkpt><trkpt lat="42.2082033" lon="12.948295"><ele>563.75</ele><time>2026-04-20T09:04:16.319Z</time></trkpt><trkpt lat="42.2081833" lon="12.9484833"><ele>564.0</ele><time>2026-04-20T09:04:17.32Z</time></trkpt><trkpt lat="42.2081533" lon="12.9486767"><ele>564.0</ele><time>2026-04-20T09:04:18.318Z</time></trkpt><trkpt lat="42.20813" lon="12.9488817"><ele>564.0</ele><time>2026-04-20T09:04:19.317Z</time></trkpt><trkpt lat="42.2081117" lon="12.9490883"><ele>564.0</ele><time>2026-04-20T09:04:20.317Z</time></trkpt><trkpt lat="42.208095" lon="12.949285"><ele>561.75</ele><time>2026-04-20T09:04:21.318Z</time></trkpt><trkpt lat="42.20808" lon="12.9494683"><ele>559.5</ele><time>2026-04-20T09:04:22.316Z</time></trkpt><trkpt lat="42.20806" lon="12.9496433"><ele>557.25</ele><time>2026-04-20T09:04:23.317Z</time></trkpt><trkpt lat="42.2080317" lon="12.949805"><ele>555.0</ele><time>2026-04-20T09:04:24.318Z</time></trkpt><trkpt lat="42.2079867" lon="12.9499483"><ele>552.0</ele><time>2026-04-20T09:04:25.316Z</time></trkpt><trkpt lat="42.20792" lon="12.95007"><ele>549.0</ele><time>2026-04-20T09:04:26.318Z</time></trkpt><trkpt lat="42.2078317" lon="12.9501617"><ele>546.0</ele><time>2026-04-20T09:04:27.319Z</time></trkpt><trkpt lat="42.2077217" lon="12.9502283"><ele>543.0</ele><time>2026-04-20T09:04:28.315Z</time></trkpt><trkpt lat="42.2075833" lon="12.9502517"><ele>543.0</ele><time>2026-04-20T09:04:29.318Z</time></trkpt><trkpt lat="42.207425" lon="12.9502317"><ele>543.0</ele><time>2026-04-20T09:04:30.319Z</time></trkpt><trkpt lat="42.207255" lon="12.9501867"><ele>543.0</ele><time>2026-04-20T09:04:31.317Z</time></trkpt><trkpt lat="42.2070917" lon="12.9501333"><ele>543.0</ele><time>2026-04-20T09:04:32.316Z</time></trkpt><trkpt lat="42.20695" lon="12.950085"><ele>543.0</ele><time>2026-04-20T09:04:33.317Z</time></trkpt><trkpt lat="42.2068333" lon="12.9500383"><ele>543.0</ele><time>2026-04-20T09:04:34.316Z</time></trkpt><trkpt lat="42.2067417" lon="12.95"><ele>543.0</ele><time>2026-04-20T09:04:35.319Z</time></trkpt><trkpt lat="42.2066667" lon="12.9499667"><ele>543.0</ele><time>2026-04-20T09:04:36.318Z</time></trkpt><trkpt lat="42.2066033" lon="12.9499367"><ele>544.8333333333334</ele><time>2026-04-20T09:04:37.32Z</time></trkpt><trkpt lat="42.2065033" lon="12.949885"><ele>546.6666666666666</ele><time>2026-04-20T09:04:39.318Z</time></trkpt><trkpt lat="42.206435" lon="12.9498517"><ele>548.5</ele><time>2026-04-20T09:04:41.319Z</time></trkpt><trkpt lat="42.2063617" lon="12.949835"><ele>550.3333333333333</ele><time>2026-04-20T09:04:44.317Z</time></trkpt><trkpt lat="42.2062983" lon="12.949805"><ele>552.1666666666666</ele><time>2026-04-20T09:04:47.317Z</time></trkpt><trkpt lat="42.2062217" lon="12.9497833"><ele>554.0</ele><time>2026-04-20T09:04:49.316Z</time></trkpt><trkpt lat="42.2061067" lon="12.94979"><ele>554.0</ele><time>2026-04-20T09:04:51.318Z</time></trkpt><trkpt lat="42.2060367" lon="12.949815"><ele>554.0</ele><time>2026-04-20T09:04:52.318Z</time></trkpt><trkpt lat="42.2059767" lon="12.949865"><ele>554.0</ele><time>2026-04-20T09:04:53.317Z</time></trkpt><trkpt lat="42.20593" lon="12.94993"><ele>554.0</ele><time>2026-04-20T09:04:54.317Z</time></trkpt><trkpt lat="42.2059067" lon="12.950035"><ele>554.0</ele><time>2026-04-20T09:04:55.317Z</time></trkpt><trkpt lat="42.2059117" lon="12.95018"><ele>554.0</ele><time>2026-04-20T09:04:56.316Z</time></trkpt><trkpt lat="42.205955" lon="12.9503383"><ele>556.0</ele><time>2026-04-20T09:04:57.317Z</time></trkpt><trkpt lat="42.206025" lon="12.950485"><ele>558.0</ele><time>2026-04-20T09:04:58.318Z</time></trkpt><trkpt lat="42.2061283" lon="12.9506183"><ele>560.0</ele><time>2026-04-20T09:04:59.316Z</time></trkpt><trkpt lat="42.2062233" lon="12.9507583"><ele>562.0</ele><time>2026-04-20T09:05:00.317Z</time></trkpt><trkpt lat="42.2063033" lon="12.9509033"><ele>563.5</ele><time>2026-04-20T09:05:01.317Z</time></trkpt><trkpt lat="42.2063667" lon="12.9510567"><ele>565.0</ele><time>2026-04-20T09:05:02.318Z</time></trkpt><trkpt lat="42.20639" lon="12.9512367"><ele>566.5</ele><time>2026-04-20T09:05:03.318Z</time></trkpt><trkpt lat="42.2063833" lon="12.9514383"><ele>568.0</ele><time>2026-04-20T09:05:04.317Z</time></trkpt><trkpt lat="42.2063633" lon="12.951665"><ele>566.0</ele><time>2026-04-20T09:05:05.319Z</time></trkpt><trkpt lat="42.2063417" lon="12.9518933"><ele>564.0</ele><time>2026-04-20T09:05:06.32Z</time></trkpt><trkpt lat="42.2063267" lon="12.9521183"><ele>562.0</ele><time>2026-04-20T09:05:07.317Z</time></trkpt><trkpt lat="42.2063283" lon="12.952325"><ele>562.0</ele><time>2026-04-20T09:05:08.317Z</time></trkpt><trkpt lat="42.2063483" lon="12.95251"><ele>562.0</ele><time>2026-04-20T09:05:09.317Z</time></trkpt><trkpt lat="42.2063717" lon="12.9526783"><ele>562.0</ele><time>2026-04-20T09:05:10.318Z</time></trkpt><trkpt lat="42.206365" lon="12.9528267"><ele>562.0</ele><time>2026-04-20T09:05:11.317Z</time></trkpt><trkpt lat="42.2063283" lon="12.9529533"><ele>557.5</ele><time>2026-04-20T09:05:12.319Z</time></trkpt><trkpt lat="42.20625" lon="12.9530583"><ele>553.0</ele><time>2026-04-20T09:05:13.32Z</time></trkpt><trkpt lat="42.206145" lon="12.95314"><ele>548.5</ele><time>2026-04-20T09:05:14.32Z</time></trkpt><trkpt lat="42.2060167" lon="12.9531667"><ele>544.0</ele><time>2026-04-20T09:05:15.32Z</time></trkpt><trkpt lat="42.2058633" lon="12.9531583"><ele>544.0</ele><time>2026-04-20T09:05:16.32Z</time></trkpt><trkpt lat="42.205695" lon="12.95315"><ele>544.0</ele><time>2026-04-20T09:05:17.319Z</time></trkpt><trkpt lat="42.205505" lon="12.9531467"><ele>544.0</ele><time>2026-04-20T09:05:18.317Z</time></trkpt><trkpt lat="42.205315" lon="12.9531333"><ele>544.6666666666667</ele><time>2026-04-20T09:05:19.317Z</time></trkpt><trkpt lat="42.2051367" lon="12.9531217"><ele>545.3333333333334</ele><time>2026-04-20T09:05:20.317Z</time></trkpt><trkpt lat="42.2049733" lon="12.9531267"><ele>546.0</ele><time>2026-04-20T09:05:21.317Z</time></trkpt><trkpt lat="42.204815" lon="12.9531567"><ele>544.0</ele><time>2026-04-20T09:05:22.319Z</time></trkpt><trkpt lat="42.2046467" lon="12.9532267"><ele>542.0</ele><time>2026-04-20T09:05:23.318Z</time></trkpt><trkpt lat="42.2044683" lon="12.9533283"><ele>540.0</ele><time>2026-04-20T09:05:24.317Z</time></trkpt><trkpt lat="42.2042817" lon="12.9534417"><ele>540.0</ele><time>2026-04-20T09:05:25.319Z</time></trkpt><trkpt lat="42.204095" lon="12.9535583"><ele>540.0</ele><time>2026-04-20T09:05:26.319Z</time></trkpt><trkpt lat="42.2039067" lon="12.9536633"><ele>540.0</ele><time>2026-04-20T09:05:27.32Z</time></trkpt><trkpt lat="42.2037267" lon="12.9537483"><ele>541.6666666666666</ele><time>2026-04-20T09:05:28.32Z</time></trkpt><trkpt lat="42.2035567" lon="12.9538233"><ele>543.3333333333333</ele><time>2026-04-20T09:05:29.317Z</time></trkpt><trkpt lat="42.2034017" lon="12.9538983"><ele>545.0</ele><time>2026-04-20T09:05:30.317Z</time></trkpt><trkpt lat="42.20326" lon="12.9539833"><ele>547.25</ele><time>2026-04-20T09:05:31.321Z</time></trkpt><trkpt lat="42.203145" lon="12.9541"><ele>549.5</ele><time>2026-04-20T09:05:32.318Z</time></trkpt><trkpt lat="42.20305" lon="12.9542417"><ele>551.75</ele><time>2026-04-20T09:05:33.319Z</time></trkpt><trkpt lat="42.20298" lon="12.9544067"><ele>554.0</ele><time>2026-04-20T09:05:34.316Z</time></trkpt><trkpt lat="42.202935" lon="12.954595"><ele>554.0</ele><time>2026-04-20T09:05:35.318Z</time></trkpt><trkpt lat="42.2028883" lon="12.9547833"><ele>554.0</ele><time>2026-04-20T09:05:36.318Z</time></trkpt><trkpt lat="42.2028067" lon="12.954955"><ele>554.0</ele><time>2026-04-20T09:05:37.317Z</time></trkpt><trkpt lat="42.2027" lon="12.955115"><ele>552.75</ele><time>2026-04-20T09:05:38.317Z</time></trkpt><trkpt lat="42.202595" lon="12.9552683"><ele>551.5</ele><time>2026-04-20T09:05:39.32Z</time></trkpt><trkpt lat="42.20252" lon="12.95542"><ele>550.25</ele><time>2026-04-20T09:05:40.318Z</time></trkpt><trkpt lat="42.2024833" lon="12.9555733"><ele>549.0</ele><time>2026-04-20T09:05:41.317Z</time></trkpt><trkpt lat="42.2024933" lon="12.9557267"><ele>549.0</ele><time>2026-04-20T09:05:42.32Z</time></trkpt><trkpt lat="42.202535" lon="12.9558617"><ele>549.0</ele><time>2026-04-20T09:05:43.319Z</time></trkpt><trkpt lat="42.20261" lon="12.955975"><ele>549.0</ele><time>2026-04-20T09:05:44.319Z</time></trkpt><trkpt lat="42.2026983" lon="12.95606"><ele>549.0</ele><time>2026-04-20T09:05:45.319Z</time></trkpt><trkpt lat="42.2028233" lon="12.9561333"><ele>550.3333333333334</ele><time>2026-04-20T09:05:46.32Z</time></trkpt><trkpt lat="42.2030083" lon="12.9562117"><ele>551.6666666666667</ele><time>2026-04-20T09:05:47.32Z</time></trkpt><trkpt lat="42.2031733" lon="12.956295"><ele>553.0</ele><time>2026-04-20T09:05:48.317Z</time></trkpt><trkpt lat="42.2033383" lon="12.956385"><ele>553.0</ele><time>2026-04-20T09:05:49.318Z</time></trkpt><trkpt lat="42.2034967" lon="12.9564517"><ele>553.0</ele><time>2026-04-20T09:05:50.317Z</time></trkpt><trkpt lat="42.2036683" lon="12.9564833"><ele>553.0</ele><time>2026-04-20T09:05:51.319Z</time></trkpt><trkpt lat="42.2038583" lon="12.9564617"><ele>554.3333333333334</ele><time>2026-04-20T09:05:52.318Z</time></trkpt><trkpt lat="42.2040567" lon="12.9564133"><ele>555.6666666666666</ele><time>2026-04-20T09:05:53.318Z</time></trkpt><trkpt lat="42.2042517" lon="12.9563733"><ele>557.0</ele><time>2026-04-20T09:05:54.318Z</time></trkpt><trkpt lat="42.2044367" lon="12.95637"><ele>557.0</ele><time>2026-04-20T09:05:55.32Z</time></trkpt><trkpt lat="42.2046167" lon="12.956405"><ele>557.0</ele><time>2026-04-20T09:05:56.319Z</time></trkpt><trkpt lat="42.2048033" lon="12.95646"><ele>557.0</ele><time>2026-04-20T09:05:57.319Z</time></trkpt><trkpt lat="42.205005" lon="12.9565417"><ele>556.0</ele><time>2026-04-20T09:05:58.318Z</time></trkpt><trkpt lat="42.205205" lon="12.95662"><ele>555.0</ele><time>2026-04-20T09:05:59.318Z</time></trkpt><trkpt lat="42.205405" lon="12.9566917"><ele>554.0</ele><time>2026-04-20T09:06:00.317Z</time></trkpt><trkpt lat="42.2056017" lon="12.9567633"><ele>555.3333333333333</ele><time>2026-04-20T09:06:01.323Z</time></trkpt><trkpt lat="42.2057917" lon="12.956825"><ele>556.6666666666666</ele><time>2026-04-20T09:06:02.316Z</time></trkpt><trkpt lat="42.2059767" lon="12.9568733"><ele>558.0</ele><time>2026-04-20T09:06:03.319Z</time></trkpt><trkpt lat="42.2061633" lon="12.9568933"><ele>558.0</ele><time>2026-04-20T09:06:04.316Z</time></trkpt><trkpt lat="42.20635" lon="12.9568667"><ele>558.0</ele><time>2026-04-20T09:06:05.316Z</time></trkpt><trkpt lat="42.2065367" lon="12.95681"><ele>558.0</ele><time>2026-04-20T09:06:06.317Z</time></trkpt><trkpt lat="42.206715" lon="12.9567517"><ele>557.25</ele><time>2026-04-20T09:06:07.317Z</time></trkpt><trkpt lat="42.2068767" lon="12.956705"><ele>556.5</ele><time>2026-04-20T09:06:08.32Z</time></trkpt><trkpt lat="42.2070167" lon="12.9566933"><ele>555.75</ele><time>2026-04-20T09:06:09.32Z</time></trkpt><trkpt lat="42.207125" lon="12.9567233"><ele>555.0</ele><time>2026-04-20T09:06:10.322Z</time></trkpt><trkpt lat="42.2072117" lon="12.9567833"><ele>555.0</ele><time>2026-04-20T09:06:11.316Z</time></trkpt><trkpt lat="42.2072667" lon="12.956885"><ele>555.0</ele><time>2026-04-20T09:06:12.319Z</time></trkpt><trkpt lat="42.207265" lon="12.95702"><ele>555.0</ele><time>2026-04-20T09:06:13.319Z</time></trkpt><trkpt lat="42.2072433" lon="12.957165"><ele>555.0</ele><time>2026-04-20T09:06:14.319Z</time></trkpt><trkpt lat="42.2072383" lon="12.95732"><ele>555.0</ele><time>2026-04-20T09:06:15.32Z</time></trkpt><trkpt lat="42.20727" lon="12.9574733"><ele>556.75</ele><time>2026-04-20T09:06:16.319Z</time></trkpt><trkpt lat="42.207335" lon="12.9576033"><ele>558.5</ele><time>2026-04-20T09:06:17.318Z</time></trkpt><trkpt lat="42.20743" lon="12.957705"><ele>560.25</ele><time>2026-04-20T09:06:18.318Z</time></trkpt><trkpt lat="42.2075567" lon="12.9577583"><ele>562.0</ele><time>2026-04-20T09:06:19.317Z</time></trkpt><trkpt lat="42.207695" lon="12.9577967"><ele>562.0</ele><time>2026-04-20T09:06:20.319Z</time></trkpt><trkpt lat="42.2078433" lon="12.9578317"><ele>562.0</ele><time>2026-04-20T09:06:21.32Z</time></trkpt><trkpt lat="42.2080017" lon="12.9578683"><ele>562.0</ele><time>2026-04-20T09:06:22.317Z</time></trkpt><trkpt lat="42.2081617" lon="12.9579067"><ele>560.5</ele><time>2026-04-20T09:06:23.319Z</time></trkpt><trkpt lat="42.2083083" lon="12.9579417"><ele>559.0</ele><time>2026-04-20T09:06:24.319Z</time></trkpt><trkpt lat="42.2084283" lon="12.9579817"><ele>557.5</ele><time>2026-04-20T09:06:25.319Z</time></trkpt><trkpt lat="42.208525" lon="12.9580433"><ele>556.0</ele><time>2026-04-20T09:06:26.319Z</time></trkpt><trkpt lat="42.20861" lon="12.958145"><ele>556.0</ele><time>2026-04-20T09:06:27.32Z</time></trkpt><trkpt lat="42.2086917" lon="12.9582767"><ele>556.0</ele><time>2026-04-20T09:06:28.319Z</time></trkpt><trkpt lat="42.208785" lon="12.9583933"><ele>556.0</ele><time>2026-04-20T09:06:29.317Z</time></trkpt><trkpt lat="42.2088917" lon="12.9584683"><ele>556.0</ele><time>2026-04-20T09:06:30.32Z</time></trkpt><trkpt lat="42.20901" lon="12.9585"><ele>556.0</ele><time>2026-04-20T09:06:31.321Z</time></trkpt><trkpt lat="42.2091217" lon="12.9585367"><ele>556.0</ele><time>2026-04-20T09:06:32.321Z</time></trkpt><trkpt lat="42.2092133" lon="12.9586167"><ele>556.0</ele><time>2026-04-20T09:06:33.319Z</time></trkpt><trkpt lat="42.2092717" lon="12.95872"><ele>556.0</ele><time>2026-04-20T09:06:34.319Z</time></trkpt><trkpt lat="42.2093033" lon="12.9588683"><ele>556.0</ele><time>2026-04-20T09:06:35.319Z</time></trkpt><trkpt lat="42.2093167" lon="12.9590367"><ele>560.25</ele><time>2026-04-20T09:06:36.32Z</time></trkpt><trkpt lat="42.209345" lon="12.9592067"><ele>564.5</ele><time>2026-04-20T09:06:37.319Z</time></trkpt><trkpt lat="42.2093983" lon="12.9593483"><ele>568.75</ele><time>2026-04-20T09:06:38.32Z</time></trkpt><trkpt lat="42.2094867" lon="12.959445"><ele>573.0</ele><time>2026-04-20T09:06:39.319Z</time></trkpt><trkpt lat="42.2096033" lon="12.9595067"><ele>573.0</ele><time>2026-04-20T09:06:40.32Z</time></trkpt><trkpt lat="42.209725" lon="12.9595567"><ele>573.0</ele><time>2026-04-20T09:06:41.318Z</time></trkpt><trkpt lat="42.20985" lon="12.95962"><ele>573.0</ele><time>2026-04-20T09:06:42.319Z</time></trkpt><trkpt lat="42.2099633" lon="12.9597233"><ele>573.0</ele><time>2026-04-20T09:06:43.319Z</time></trkpt><trkpt lat="42.210045" lon="12.95986"><ele>569.75</ele><time>2026-04-20T09:06:44.32Z</time></trkpt><trkpt lat="42.2100933" lon="12.9600283"><ele>566.5</ele><time>2026-04-20T09:06:45.319Z</time></trkpt><trkpt lat="42.2101117" lon="12.9602133"><ele>563.25</ele><time>2026-04-20T09:06:46.319Z</time></trkpt><trkpt lat="42.210135" lon="12.9603783"><ele>560.0</ele><time>2026-04-20T09:06:47.32Z</time></trkpt><trkpt lat="42.2101917" lon="12.9605183"><ele>560.0</ele><time>2026-04-20T09:06:48.32Z</time></trkpt><trkpt lat="42.21029" lon="12.9606383"><ele>560.0</ele><time>2026-04-20T09:06:49.32Z</time></trkpt><trkpt lat="42.2104183" lon="12.9607417"><ele>560.0</ele><time>2026-04-20T09:06:50.319Z</time></trkpt><trkpt lat="42.2105533" lon="12.9608417"><ele>560.0</ele><time>2026-04-20T09:06:51.319Z</time></trkpt><trkpt lat="42.2107067" lon="12.96094"><ele>553.6666666666666</ele><time>2026-04-20T09:06:52.32Z</time></trkpt><trkpt lat="42.2108617" lon="12.9610317"><ele>547.3333333333334</ele><time>2026-04-20T09:06:53.319Z</time></trkpt><trkpt lat="42.2110133" lon="12.9611"><ele>541.0</ele><time>2026-04-20T09:06:54.319Z</time></trkpt><trkpt lat="42.2111533" lon="12.9611683"><ele>541.0</ele><time>2026-04-20T09:06:55.319Z</time></trkpt><trkpt lat="42.211275" lon="12.96125"><ele>541.0</ele><time>2026-04-20T09:06:56.316Z</time></trkpt><trkpt lat="42.211385" lon="12.9613367"><ele>541.0</ele><time>2026-04-20T09:06:57.318Z</time></trkpt><trkpt lat="42.2114867" lon="12.961415"><ele>541.0</ele><time>2026-04-20T09:06:58.32Z</time></trkpt><trkpt lat="42.2115883" lon="12.961495"><ele>540.25</ele><time>2026-04-20T09:06:59.317Z</time></trkpt><trkpt lat="42.211685" lon="12.9615733"><ele>539.5</ele><time>2026-04-20T09:07:00.317Z</time></trkpt><trkpt lat="42.2117817" lon="12.9616533"><ele>538.75</ele><time>2026-04-20T09:07:01.317Z</time></trkpt><trkpt lat="42.2118817" lon="12.9617317"><ele>538.0</ele><time>2026-04-20T09:07:02.318Z</time></trkpt><trkpt lat="42.2119867" lon="12.9618117"><ele>538.0</ele><time>2026-04-20T09:07:03.319Z</time></trkpt><trkpt lat="42.2120933" lon="12.96189"><ele>538.0</ele><time>2026-04-20T09:07:04.318Z</time></trkpt><trkpt lat="42.2122017" lon="12.96197"><ele>538.0</ele><time>2026-04-20T09:07:05.317Z</time></trkpt><trkpt lat="42.2123083" lon="12.962055"><ele>538.0</ele><time>2026-04-20T09:07:06.317Z</time></trkpt><trkpt lat="42.21241" lon="12.9621417"><ele>538.0</ele><time>2026-04-20T09:07:07.319Z</time></trkpt><trkpt lat="42.2125033" lon="12.9622183"><ele>538.0</ele><time>2026-04-20T09:07:08.318Z</time></trkpt><trkpt lat="42.2125917" lon="12.9622917"><ele>538.0</ele><time>2026-04-20T09:07:09.318Z</time></trkpt><trkpt lat="42.2126817" lon="12.9623617"><ele>538.0</ele><time>2026-04-20T09:07:10.316Z</time></trkpt><trkpt lat="42.2127717" lon="12.96243"><ele>538.0</ele><time>2026-04-20T09:07:11.318Z</time></trkpt><trkpt lat="42.2128617" lon="12.9625017"><ele>538.0</ele><time>2026-04-20T09:07:12.318Z</time></trkpt><trkpt lat="42.2129567" lon="12.96258"><ele>538.0</ele><time>2026-04-20T09:07:13.318Z</time></trkpt><trkpt lat="42.2130533" lon="12.9626567"><ele>538.0</ele><time>2026-04-20T09:07:14.319Z</time></trkpt><trkpt lat="42.213155" lon="12.9627333"><ele>538.0</ele><time>2026-04-20T09:07:15.318Z</time></trkpt><trkpt lat="42.213255" lon="12.9628133"><ele>541.5</ele><time>2026-04-20T09:07:16.318Z</time></trkpt><trkpt lat="42.2133483" lon="12.962905"><ele>545.0</ele><time>2026-04-20T09:07:17.319Z</time></trkpt><trkpt lat="42.2134233" lon="12.96302"><ele>548.5</ele><time>2026-04-20T09:07:18.318Z</time></trkpt><trkpt lat="42.21348" lon="12.9631567"><ele>552.0</ele><time>2026-04-20T09:07:19.317Z</time></trkpt><trkpt lat="42.2135283" lon="12.96331"><ele>551.25</ele><time>2026-04-20T09:07:20.317Z</time></trkpt><trkpt lat="42.213585" lon="12.96346"><ele>550.5</ele><time>2026-04-20T09:07:21.32Z</time></trkpt><trkpt lat="42.2136517" lon="12.9636033"><ele>549.75</ele><time>2026-04-20T09:07:22.32Z</time></trkpt><trkpt lat="42.2137233" lon="12.9637433"><ele>549.0</ele><time>2026-04-20T09:07:23.32Z</time></trkpt><trkpt lat="42.213795" lon="12.9638833"><ele>549.0</ele><time>2026-04-20T09:07:24.321Z</time></trkpt><trkpt lat="42.2138683" lon="12.9640233"><ele>549.0</ele><time>2026-04-20T09:07:25.318Z</time></trkpt><trkpt lat="42.213945" lon="12.96416"><ele>549.0</ele><time>2026-04-20T09:07:26.319Z</time></trkpt><trkpt lat="42.2140083" lon="12.964295"><ele>549.0</ele><time>2026-04-20T09:07:27.32Z</time></trkpt><trkpt lat="42.21405" lon="12.964435"><ele>550.0</ele><time>2026-04-20T09:07:28.319Z</time></trkpt><trkpt lat="42.214065" lon="12.964585"><ele>551.0</ele><time>2026-04-20T09:07:29.317Z</time></trkpt><trkpt lat="42.2140567" lon="12.9647383"><ele>552.0</ele><time>2026-04-20T09:07:30.318Z</time></trkpt><trkpt lat="42.21402" lon="12.9648833"><ele>553.0</ele><time>2026-04-20T09:07:31.319Z</time></trkpt><trkpt lat="42.21395" lon="12.9650233"><ele>550.25</ele><time>2026-04-20T09:07:32.316Z</time></trkpt><trkpt lat="42.213855" lon="12.96514"><ele>547.5</ele><time>2026-04-20T09:07:33.319Z</time></trkpt><trkpt lat="42.2137517" lon="12.9652383"><ele>544.75</ele><time>2026-04-20T09:07:34.319Z</time></trkpt><trkpt lat="42.2136533" lon="12.9653417"><ele>542.0</ele><time>2026-04-20T09:07:35.32Z</time></trkpt><trkpt lat="42.213575" lon="12.9654667"><ele>542.0</ele><time>2026-04-20T09:07:36.319Z</time></trkpt><trkpt lat="42.2135217" lon="12.9656233"><ele>542.0</ele><time>2026-04-20T09:07:37.318Z</time></trkpt><trkpt lat="42.2135033" lon="12.9657983"><ele>542.0</ele><time>2026-04-20T09:07:38.318Z</time></trkpt><trkpt lat="42.2135133" lon="12.965985"><ele>542.0</ele><time>2026-04-20T09:07:39.32Z</time></trkpt><trkpt lat="42.2135367" lon="12.9661883"><ele>541.6666666666666</ele><time>2026-04-20T09:07:40.32Z</time></trkpt><trkpt lat="42.2135733" lon="12.9663917"><ele>541.3333333333334</ele><time>2026-04-20T09:07:41.32Z</time></trkpt><trkpt lat="42.21362" lon="12.9665917"><ele>541.0</ele><time>2026-04-20T09:07:42.32Z</time></trkpt><trkpt lat="42.2136933" lon="12.9667833"><ele>541.0</ele><time>2026-04-20T09:07:43.319Z</time></trkpt><trkpt lat="42.2137867" lon="12.9669617"><ele>541.0</ele><time>2026-04-20T09:07:44.32Z</time></trkpt><trkpt lat="42.2138833" lon="12.9671333"><ele>541.0</ele><time>2026-04-20T09:07:45.32Z</time></trkpt><trkpt lat="42.21397" lon="12.9673"><ele>542.0</ele><time>2026-04-20T09:07:46.32Z</time></trkpt><trkpt lat="42.2140483" lon="12.9674583"><ele>543.0</ele><time>2026-04-20T09:07:47.319Z</time></trkpt><trkpt lat="42.214115" lon="12.9676133"><ele>544.0</ele><time>2026-04-20T09:07:48.318Z</time></trkpt><trkpt lat="42.2141767" lon="12.9677617"><ele>545.0</ele><time>2026-04-20T09:07:49.319Z</time></trkpt><trkpt lat="42.2142133" lon="12.9679067"><ele>545.0</ele><time>2026-04-20T09:07:50.319Z</time></trkpt><trkpt lat="42.2142167" lon="12.9680367"><ele>545.0</ele><time>2026-04-20T09:07:51.32Z</time></trkpt><trkpt lat="42.2142017" lon="12.9681433"><ele>545.0</ele><time>2026-04-20T09:07:52.318Z</time></trkpt><trkpt lat="42.2141767" lon="12.9682383"><ele>545.0</ele><time>2026-04-20T09:07:53.318Z</time></trkpt><trkpt lat="42.2141267" lon="12.9683667"><ele>545.0</ele><time>2026-04-20T09:07:55.32Z</time></trkpt><trkpt lat="42.214065" lon="12.9684767"><ele>544.6</ele><time>2026-04-20T09:07:57.319Z</time></trkpt><trkpt lat="42.2140183" lon="12.968535"><ele>544.2</ele><time>2026-04-20T09:07:58.318Z</time></trkpt><trkpt lat="42.21396" lon="12.9686133"><ele>543.8</ele><time>2026-04-20T09:07:59.319Z</time></trkpt><trkpt lat="42.213895" lon="12.968715"><ele>543.4</ele><time>2026-04-20T09:08:00.32Z</time></trkpt><trkpt lat="42.2138433" lon="12.9688383"><ele>543.0</ele><time>2026-04-20T09:08:01.319Z</time></trkpt><trkpt lat="42.2138133" lon="12.968975"><ele>543.0</ele><time>2026-04-20T09:08:02.319Z</time></trkpt><trkpt lat="42.2138" lon="12.9691267"><ele>543.0</ele><time>2026-04-20T09:08:03.32Z</time></trkpt><trkpt lat="42.2138" lon="12.96929"><ele>543.0</ele><time>2026-04-20T09:08:04.318Z</time></trkpt><trkpt lat="42.2138033" lon="12.9694683"><ele>543.0</ele><time>2026-04-20T09:08:05.319Z</time></trkpt><trkpt lat="42.2138083" lon="12.9696567"><ele>542.25</ele><time>2026-04-20T09:08:06.319Z</time></trkpt><trkpt lat="42.2138133" lon="12.9698567"><ele>541.5</ele><time>2026-04-20T09:08:07.319Z</time></trkpt><trkpt lat="42.2138183" lon="12.9700533"><ele>540.75</ele><time>2026-04-20T09:08:08.321Z</time></trkpt><trkpt lat="42.2138217" lon="12.9702583"><ele>540.0</ele><time>2026-04-20T09:08:09.319Z</time></trkpt><trkpt lat="42.2138283" lon="12.9704767"><ele>540.0</ele><time>2026-04-20T09:08:10.318Z</time></trkpt><trkpt lat="42.2138417" lon="12.9707017"><ele>540.0</ele><time>2026-04-20T09:08:11.319Z</time></trkpt><trkpt lat="42.2138567" lon="12.97092"><ele>540.0</ele><time>2026-04-20T09:08:12.32Z</time></trkpt><trkpt lat="42.2138767" lon="12.9711217"><ele>540.0</ele><time>2026-04-20T09:08:13.319Z</time></trkpt><trkpt lat="42.21389" lon="12.9713167"><ele>540.0</ele><time>2026-04-20T09:08:14.319Z</time></trkpt><trkpt lat="42.2139017" lon="12.97151"><ele>540.0</ele><time>2026-04-20T09:08:15.319Z</time></trkpt><trkpt lat="42.213915" lon="12.9717"><ele>540.0</ele><time>2026-04-20T09:08:16.32Z</time></trkpt><trkpt lat="42.21392" lon="12.9718917"><ele>540.0</ele><time>2026-04-20T09:08:17.32Z</time></trkpt><trkpt lat="42.2139317" lon="12.9720817"><ele>540.0</ele><time>2026-04-20T09:08:18.318Z</time></trkpt><trkpt lat="42.2139417" lon="12.9722717"><ele>540.0</ele><time>2026-04-20T09:08:19.32Z</time></trkpt><trkpt lat="42.2139567" lon="12.9724617"><ele>540.0</ele><time>2026-04-20T09:08:20.32Z</time></trkpt><trkpt lat="42.2139717" lon="12.9726517"><ele>540.0</ele><time>2026-04-20T09:08:21.32Z</time></trkpt><trkpt lat="42.21398" lon="12.9728417"><ele>540.0</ele><time>2026-04-20T09:08:22.32Z</time></trkpt><trkpt lat="42.2139767" lon="12.9730267"><ele>540.0</ele><time>2026-04-20T09:08:23.32Z</time></trkpt><trkpt lat="42.21396" lon="12.9732067"><ele>540.0</ele><time>2026-04-20T09:08:24.318Z</time></trkpt><trkpt lat="42.2139317" lon="12.9733767"><ele>540.25</ele><time>2026-04-20T09:08:25.319Z</time></trkpt><trkpt lat="42.2138983" lon="12.9735417"><ele>540.5</ele><time>2026-04-20T09:08:26.319Z</time></trkpt><trkpt lat="42.2138667" lon="12.9737033"><ele>540.75</ele><time>2026-04-20T09:08:27.32Z</time></trkpt><trkpt lat="42.213835" lon="12.9738617"><ele>541.0</ele><time>2026-04-20T09:08:28.319Z</time></trkpt><trkpt lat="42.2138" lon="12.97402"><ele>541.0</ele><time>2026-04-20T09:08:29.318Z</time></trkpt><trkpt lat="42.2137617" lon="12.9741783"><ele>541.0</ele><time>2026-04-20T09:08:30.32Z</time></trkpt><trkpt lat="42.2137233" lon="12.97434"><ele>541.0</ele><time>2026-04-20T09:08:31.32Z</time></trkpt><trkpt lat="42.2136883" lon="12.9745017"><ele>541.0</ele><time>2026-04-20T09:08:32.32Z</time></trkpt><trkpt lat="42.2136517" lon="12.9746683"><ele>541.0</ele><time>2026-04-20T09:08:33.319Z</time></trkpt><trkpt lat="42.213615" lon="12.974835"><ele>541.0</ele><time>2026-04-20T09:08:34.318Z</time></trkpt><trkpt lat="42.2135817" lon="12.9750067"><ele>541.0</ele><time>2026-04-20T09:08:35.319Z</time></trkpt><trkpt lat="42.21355" lon="12.9751833"><ele>541.0</ele><time>2026-04-20T09:08:36.318Z</time></trkpt><trkpt lat="42.2135133" lon="12.9753633"><ele>541.5</ele><time>2026-04-20T09:08:37.319Z</time></trkpt><trkpt lat="42.2134817" lon="12.9755517"><ele>542.0</ele><time>2026-04-20T09:08:38.318Z</time></trkpt><trkpt lat="42.2134517" lon="12.9757467"><ele>542.5</ele><time>2026-04-20T09:08:39.32Z</time></trkpt><trkpt lat="42.2134317" lon="12.9759483"><ele>543.0</ele><time>2026-04-20T09:08:40.32Z</time></trkpt><trkpt lat="42.2134283" lon="12.9761517"><ele>543.75</ele><time>2026-04-20T09:08:41.319Z</time></trkpt><trkpt lat="42.2134417" lon="12.97636"><ele>544.5</ele><time>2026-04-20T09:08:42.319Z</time></trkpt><trkpt lat="42.21346" lon="12.97656"><ele>545.25</ele><time>2026-04-20T09:08:43.318Z</time></trkpt><trkpt lat="42.213475" lon="12.9767433"><ele>546.0</ele><time>2026-04-20T09:08:44.319Z</time></trkpt><trkpt lat="42.2134717" lon="12.9769033"><ele>548.0</ele><time>2026-04-20T09:08:45.317Z</time></trkpt><trkpt lat="42.2134433" lon="12.977055"><ele>550.0</ele><time>2026-04-20T09:08:46.319Z</time></trkpt><trkpt lat="42.21338" lon="12.9772117"><ele>552.0</ele><time>2026-04-20T09:08:47.318Z</time></trkpt><trkpt lat="42.2132967" lon="12.9773517"><ele>554.0</ele><time>2026-04-20T09:08:48.319Z</time></trkpt><trkpt lat="42.21321" lon="12.97748"><ele>551.0</ele><time>2026-04-20T09:08:49.32Z</time></trkpt><trkpt lat="42.2131283" lon="12.9776033"><ele>548.0</ele><time>2026-04-20T09:08:50.32Z</time></trkpt><trkpt lat="42.2130567" lon="12.977725"><ele>545.0</ele><time>2026-04-20T09:08:51.319Z</time></trkpt><trkpt lat="42.213" lon="12.9778533"><ele>542.0</ele><time>2026-04-20T09:08:52.319Z</time></trkpt><trkpt lat="42.21296" lon="12.9779967"><ele>542.0</ele><time>2026-04-20T09:08:53.32Z</time></trkpt><trkpt lat="42.21293" lon="12.9781517"><ele>542.0</ele><time>2026-04-20T09:08:54.318Z</time></trkpt><trkpt lat="42.2129067" lon="12.9782933"><ele>542.0</ele><time>2026-04-20T09:08:55.319Z</time></trkpt><trkpt lat="42.2128917" lon="12.9784333"><ele>542.0</ele><time>2026-04-20T09:08:56.316Z</time></trkpt><trkpt lat="42.2128767" lon="12.97856"><ele>542.0</ele><time>2026-04-20T09:08:57.32Z</time></trkpt><trkpt lat="42.212865" lon="12.9786833"><ele>542.75</ele><time>2026-04-20T09:08:58.319Z</time></trkpt><trkpt lat="42.21285" lon="12.9788267"><ele>543.5</ele><time>2026-04-20T09:08:59.319Z</time></trkpt><trkpt lat="42.21284" lon="12.978995"><ele>544.25</ele><time>2026-04-20T09:09:00.316Z</time></trkpt><trkpt lat="42.2128217" lon="12.9791683"><ele>545.0</ele><time>2026-04-20T09:09:01.32Z</time></trkpt><trkpt lat="42.2127967" lon="12.979355"><ele>548.5</ele><time>2026-04-20T09:09:02.319Z</time></trkpt><trkpt lat="42.2127467" lon="12.9795217"><ele>552.0</ele><time>2026-04-20T09:09:03.319Z</time></trkpt><trkpt lat="42.21268" lon="12.979655"><ele>555.5</ele><time>2026-04-20T09:09:04.317Z</time></trkpt><trkpt lat="42.21259" lon="12.9797567"><ele>559.0</ele><time>2026-04-20T09:09:05.32Z</time></trkpt><trkpt lat="42.21248" lon="12.9798183"><ele>559.0</ele><time>2026-04-20T09:09:06.318Z</time></trkpt><trkpt lat="42.2123533" lon="12.9798533"><ele>559.0</ele><time>2026-04-20T09:09:07.318Z</time></trkpt><trkpt lat="42.21223" lon="12.9799167"><ele>559.0</ele><time>2026-04-20T09:09:08.318Z</time></trkpt><trkpt lat="42.2120983" lon="12.9800133"><ele>559.0</ele><time>2026-04-20T09:09:09.32Z</time></trkpt><trkpt lat="42.21198" lon="12.9801533"><ele>554.6666666666667</ele><time>2026-04-20T09:09:10.32Z</time></trkpt><trkpt lat="42.211875" lon="12.980325"><ele>550.3333333333334</ele><time>2026-04-20T09:09:11.318Z</time></trkpt><trkpt lat="42.21177" lon="12.9805083"><ele>546.0</ele><time>2026-04-20T09:09:12.319Z</time></trkpt><trkpt lat="42.211665" lon="12.9807017"><ele>544.3333333333334</ele><time>2026-04-20T09:09:13.32Z</time></trkpt><trkpt lat="42.2115633" lon="12.9809017"><ele>542.6666666666667</ele><time>2026-04-20T09:09:14.319Z</time></trkpt><trkpt lat="42.21146" lon="12.9811117"><ele>541.0</ele><time>2026-04-20T09:09:15.319Z</time></trkpt><trkpt lat="42.2113533" lon="12.98133"><ele>541.0</ele><time>2026-04-20T09:09:16.319Z</time></trkpt><trkpt lat="42.2112483" lon="12.98155"><ele>541.0</ele><time>2026-04-20T09:09:17.319Z</time></trkpt><trkpt lat="42.2111383" lon="12.98177"><ele>541.0</ele><time>2026-04-20T09:09:18.319Z</time></trkpt><trkpt lat="42.2110267" lon="12.981995"><ele>544.0</ele><time>2026-04-20T09:09:19.319Z</time></trkpt><trkpt lat="42.210915" lon="12.9822233"><ele>547.0</ele><time>2026-04-20T09:09:20.32Z</time></trkpt><trkpt lat="42.2108017" lon="12.9824317"><ele>550.0</ele><time>2026-04-20T09:09:21.32Z</time></trkpt><trkpt lat="42.2106817" lon="12.982615"><ele>548.3333333333334</ele><time>2026-04-20T09:09:22.318Z</time></trkpt><trkpt lat="42.2105483" lon="12.9827667"><ele>546.6666666666666</ele><time>2026-04-20T09:09:23.319Z</time></trkpt><trkpt lat="42.2104183" lon="12.982905"><ele>545.0</ele><time>2026-04-20T09:09:24.319Z</time></trkpt><trkpt lat="42.210295" lon="12.9830533"><ele>545.0</ele><time>2026-04-20T09:09:25.318Z</time></trkpt><trkpt lat="42.2101867" lon="12.9832233"><ele>545.0</ele><time>2026-04-20T09:09:26.32Z</time></trkpt><trkpt lat="42.210105" lon="12.98342"><ele>545.0</ele><time>2026-04-20T09:09:27.319Z</time></trkpt><trkpt lat="42.21004" lon="12.983635"><ele>548.0</ele><time>2026-04-20T09:09:28.316Z</time></trkpt><trkpt lat="42.2099983" lon="12.9838767"><ele>551.0</ele><time>2026-04-20T09:09:29.32Z</time></trkpt><trkpt lat="42.2099667" lon="12.9841167"><ele>554.0</ele><time>2026-04-20T09:09:30.319Z</time></trkpt><trkpt lat="42.2099383" lon="12.98433"><ele>554.25</ele><time>2026-04-20T09:09:31.317Z</time></trkpt><trkpt lat="42.209895" lon="12.9845083"><ele>554.5</ele><time>2026-04-20T09:09:32.318Z</time></trkpt><trkpt lat="42.2098383" lon="12.9846567"><ele>554.75</ele><time>2026-04-20T09:09:33.319Z</time></trkpt><trkpt lat="42.20976" lon="12.98476"><ele>555.0</ele><time>2026-04-20T09:09:34.317Z</time></trkpt><trkpt lat="42.2096517" lon="12.9848283"><ele>555.5</ele><time>2026-04-20T09:09:35.319Z</time></trkpt><trkpt lat="42.209525" lon="12.984855"><ele>556.0</ele><time>2026-04-20T09:09:36.32Z</time></trkpt><trkpt lat="42.2093967" lon="12.9848367"><ele>556.5</ele><time>2026-04-20T09:09:37.319Z</time></trkpt><trkpt lat="42.2092833" lon="12.9847717"><ele>557.0</ele><time>2026-04-20T09:09:38.319Z</time></trkpt><trkpt lat="42.20917" lon="12.9846567"><ele>557.0</ele><time>2026-04-20T09:09:39.319Z</time></trkpt><trkpt lat="42.2090367" lon="12.98453"><ele>557.0</ele><time>2026-04-20T09:09:40.32Z</time></trkpt><trkpt lat="42.2088817" lon="12.984415"><ele>557.0</ele><time>2026-04-20T09:09:41.319Z</time></trkpt><trkpt lat="42.2087167" lon="12.9843217"><ele>560.6666666666666</ele><time>2026-04-20T09:09:42.32Z</time></trkpt><trkpt lat="42.2085533" lon="12.9842633"><ele>564.3333333333334</ele><time>2026-04-20T09:09:43.32Z</time></trkpt><trkpt lat="42.2083917" lon="12.9842483"><ele>568.0</ele><time>2026-04-20T09:09:44.319Z</time></trkpt><trkpt lat="42.20823" lon="12.9842833"><ele>571.0</ele><time>2026-04-20T09:09:45.321Z</time></trkpt><trkpt lat="42.2080767" lon="12.9843283"><ele>574.0</ele><time>2026-04-20T09:09:46.32Z</time></trkpt><trkpt lat="42.20795" lon="12.984355"><ele>577.0</ele><time>2026-04-20T09:09:47.32Z</time></trkpt><trkpt lat="42.20785" lon="12.9843417"><ele>580.0</ele><time>2026-04-20T09:09:48.319Z</time></trkpt><trkpt lat="42.2077683" lon="12.9842833"><ele>574.5</ele><time>2026-04-20T09:09:49.318Z</time></trkpt><trkpt lat="42.2076967" lon="12.98417"><ele>569.0</ele><time>2026-04-20T09:09:50.317Z</time></trkpt><trkpt lat="42.207635" lon="12.984015"><ele>563.5</ele><time>2026-04-20T09:09:51.317Z</time></trkpt><trkpt lat="42.2075583" lon="12.9838617"><ele>558.0</ele><time>2026-04-20T09:09:52.318Z</time></trkpt><trkpt lat="42.207455" lon="12.9837117"><ele>556.3333333333334</ele><time>2026-04-20T09:09:53.319Z</time></trkpt><trkpt lat="42.2073233" lon="12.9835583"><ele>554.6666666666667</ele><time>2026-04-20T09:09:54.318Z</time></trkpt><trkpt lat="42.20718" lon="12.9833933"><ele>553.0</ele><time>2026-04-20T09:09:55.321Z</time></trkpt><trkpt lat="42.2070217" lon="12.9832317"><ele>553.0</ele><time>2026-04-20T09:09:56.319Z</time></trkpt><trkpt lat="42.206875" lon="12.9830817"><ele>553.0</ele><time>2026-04-20T09:09:57.318Z</time></trkpt><trkpt lat="42.2067467" lon="12.98297"><ele>553.0</ele><time>2026-04-20T09:09:58.318Z</time></trkpt><trkpt lat="42.2066167" lon="12.982895"><ele>550.3333333333334</ele><time>2026-04-20T09:09:59.318Z</time></trkpt><trkpt lat="42.2064683" lon="12.9828567"><ele>547.6666666666666</ele><time>2026-04-20T09:10:00.319Z</time></trkpt><trkpt lat="42.2063117" lon="12.982845"><ele>545.0</ele><time>2026-04-20T09:10:01.318Z</time></trkpt><trkpt lat="42.20616" lon="12.982865"><ele>545.0</ele><time>2026-04-20T09:10:02.319Z</time></trkpt><trkpt lat="42.2060217" lon="12.9829333"><ele>545.0</ele><time>2026-04-20T09:10:03.319Z</time></trkpt><trkpt lat="42.205905" lon="12.9830567"><ele>545.0</ele><time>2026-04-20T09:10:04.319Z</time></trkpt><trkpt lat="42.2058083" lon="12.9832467"><ele>543.3333333333333</ele><time>2026-04-20T09:10:05.319Z</time></trkpt><trkpt lat="42.205725" lon="12.983475"><ele>541.6666666666666</ele><time>2026-04-20T09:10:06.319Z</time></trkpt><trkpt lat="42.2056383" lon="12.9837383"><ele>540.0</ele><time>2026-04-20T09:10:07.319Z</time></trkpt><trkpt lat="42.205545" lon="12.9840183"><ele>542.3333333333334</ele><time>2026-04-20T09:10:08.319Z</time></trkpt><trkpt lat="42.2054567" lon="12.9842883"><ele>544.6666666666667</ele><time>2026-04-20T09:10:09.319Z</time></trkpt><trkpt lat="42.20537" lon="12.984525"><ele>547.0</ele><time>2026-04-20T09:10:10.318Z</time></trkpt><trkpt lat="42.20528" lon="12.9847233"><ele>547.0</ele><time>2026-04-20T09:10:11.318Z</time></trkpt><trkpt lat="42.20517" lon="12.98489"><ele>547.0</ele><time>2026-04-20T09:10:12.315Z</time></trkpt><trkpt lat="42.2050317" lon="12.985045"><ele>547.0</ele><time>2026-04-20T09:10:13.317Z</time></trkpt><trkpt lat="42.2048683" lon="12.98519"><ele>545.6666666666667</ele><time>2026-04-20T09:10:14.319Z</time></trkpt><trkpt lat="42.2047017" lon="12.98537"><ele>544.3333333333334</ele><time>2026-04-20T09:10:15.319Z</time></trkpt><trkpt lat="42.2045417" lon="12.9855817"><ele>543.0</ele><time>2026-04-20T09:10:16.319Z</time></trkpt><trkpt lat="42.204395" lon="12.9857933"><ele>544.3333333333334</ele><time>2026-04-20T09:10:17.319Z</time></trkpt><trkpt lat="42.2042483" lon="12.9859833"><ele>545.6666666666667</ele><time>2026-04-20T09:10:18.318Z</time></trkpt><trkpt lat="42.2040883" lon="12.986145"><ele>547.0</ele><time>2026-04-20T09:10:19.319Z</time></trkpt><trkpt lat="42.2039083" lon="12.986285"><ele>547.0</ele><time>2026-04-20T09:10:20.317Z</time></trkpt><trkpt lat="42.2037033" lon="12.9864083"><ele>547.0</ele><time>2026-04-20T09:10:21.318Z</time></trkpt><trkpt lat="42.203485" lon="12.9865317"><ele>547.0</ele><time>2026-04-20T09:10:22.317Z</time></trkpt><trkpt lat="42.2032467" lon="12.9866617"><ele>547.0</ele><time>2026-04-20T09:10:23.318Z</time></trkpt><trkpt lat="42.2030067" lon="12.986795"><ele>551.0</ele><time>2026-04-20T09:10:24.319Z</time></trkpt><trkpt lat="42.2027867" lon="12.9869183"><ele>555.0</ele><time>2026-04-20T09:10:25.321Z</time></trkpt><trkpt lat="42.2025883" lon="12.9870267"><ele>555.0</ele><time>2026-04-20T09:10:26.318Z</time></trkpt><trkpt lat="42.202415" lon="12.9871117"><ele>555.0</ele><time>2026-04-20T09:10:27.321Z</time></trkpt><trkpt lat="42.2022583" lon="12.9871667"><ele>555.0</ele><time>2026-04-20T09:10:28.318Z</time></trkpt><trkpt lat="42.2021" lon="12.9871817"><ele>557.3333333333334</ele><time>2026-04-20T09:10:29.319Z</time></trkpt><trkpt lat="42.2019333" lon="12.9871533"><ele>559.6666666666667</ele><time>2026-04-20T09:10:30.319Z</time></trkpt><trkpt lat="42.20175" lon="12.9870933"><ele>562.0</ele><time>2026-04-20T09:10:31.319Z</time></trkpt><trkpt lat="42.20155" lon="12.987055"><ele>562.5</ele><time>2026-04-20T09:10:32.319Z</time></trkpt><trkpt lat="42.20133" lon="12.9870517"><ele>563.0</ele><time>2026-04-20T09:10:33.32Z</time></trkpt><trkpt lat="42.2010967" lon="12.987065"><ele>563.0</ele><time>2026-04-20T09:10:34.319Z</time></trkpt><trkpt lat="42.2008617" lon="12.9870833"><ele>563.0</ele><time>2026-04-20T09:10:35.318Z</time></trkpt><trkpt lat="42.2006167" lon="12.9870967"><ele>564.5</ele><time>2026-04-20T09:10:36.319Z</time></trkpt><trkpt lat="42.2003633" lon="12.9871133"><ele>566.0</ele><time>2026-04-20T09:10:37.319Z</time></trkpt><trkpt lat="42.2001217" lon="12.9871283"><ele>566.0</ele><time>2026-04-20T09:10:38.319Z</time></trkpt><trkpt lat="42.1999083" lon="12.9871517"><ele>566.0</ele><time>2026-04-20T09:10:39.318Z</time></trkpt><trkpt lat="42.1997183" lon="12.98716"><ele>566.0</ele><time>2026-04-20T09:10:40.317Z</time></trkpt><trkpt lat="42.19956" lon="12.987145"><ele>565.75</ele><time>2026-04-20T09:10:41.319Z</time></trkpt><trkpt lat="42.1994267" lon="12.9870967"><ele>565.5</ele><time>2026-04-20T09:10:42.319Z</time></trkpt><trkpt lat="42.1993167" lon="12.987005"><ele>565.25</ele><time>2026-04-20T09:10:43.319Z</time></trkpt><trkpt lat="42.1992317" lon="12.9868767"><ele>565.0</ele><time>2026-04-20T09:10:44.319Z</time></trkpt><trkpt lat="42.1991567" lon="12.9867217"><ele>563.0</ele><time>2026-04-20T09:10:45.32Z</time></trkpt><trkpt lat="42.1990983" lon="12.9865483"><ele>561.0</ele><time>2026-04-20T09:10:46.318Z</time></trkpt><trkpt lat="42.1990333" lon="12.9863967"><ele>559.0</ele><time>2026-04-20T09:10:47.318Z</time></trkpt><trkpt lat="42.1989517" lon="12.9862783"><ele>557.0</ele><time>2026-04-20T09:10:48.317Z</time></trkpt><trkpt lat="42.1988483" lon="12.9862033"><ele>557.0</ele><time>2026-04-20T09:10:49.319Z</time></trkpt><trkpt lat="42.1987333" lon="12.986185"><ele>557.0</ele><time>2026-04-20T09:10:50.318Z</time></trkpt><trkpt lat="42.1986083" lon="12.9862233"><ele>557.0</ele><time>2026-04-20T09:10:51.317Z</time></trkpt><trkpt lat="42.1984633" lon="12.98631"><ele>557.0</ele><time>2026-04-20T09:10:52.318Z</time></trkpt><trkpt lat="42.1983033" lon="12.986405"><ele>555.3333333333333</ele><time>2026-04-20T09:10:53.317Z</time></trkpt><trkpt lat="42.1981283" lon="12.9864883"><ele>553.6666666666666</ele><time>2026-04-20T09:10:54.315Z</time></trkpt><trkpt lat="42.197945" lon="12.9865533"><ele>552.0</ele><time>2026-04-20T09:10:55.32Z</time></trkpt><trkpt lat="42.1977533" lon="12.9865933"><ele>552.0</ele><time>2026-04-20T09:10:56.318Z</time></trkpt><trkpt lat="42.19755" lon="12.98661"><ele>552.0</ele><time>2026-04-20T09:10:57.32Z</time></trkpt><trkpt lat="42.1973367" lon="12.9865933"><ele>552.0</ele><time>2026-04-20T09:10:58.319Z</time></trkpt><trkpt lat="42.19713" lon="12.9865633"><ele>551.3333333333334</ele><time>2026-04-20T09:10:59.318Z</time></trkpt><trkpt lat="42.1969433" lon="12.9865383"><ele>550.6666666666667</ele><time>2026-04-20T09:11:00.318Z</time></trkpt><trkpt lat="42.1967733" lon="12.986535"><ele>550.0</ele><time>2026-04-20T09:11:01.318Z</time></trkpt><trkpt lat="42.1966217" lon="12.986565"><ele>550.0</ele><time>2026-04-20T09:11:02.318Z</time></trkpt><trkpt lat="42.1964783" lon="12.9866483"><ele>550.0</ele><time>2026-04-20T09:11:03.319Z</time></trkpt><trkpt lat="42.1963333" lon="12.9867633"><ele>550.0</ele><time>2026-04-20T09:11:04.318Z</time></trkpt><trkpt lat="42.1961783" lon="12.9868967"><ele>550.0</ele><time>2026-04-20T09:11:05.318Z</time></trkpt><trkpt lat="42.1960317" lon="12.987025"><ele>550.0</ele><time>2026-04-20T09:11:06.318Z</time></trkpt><trkpt lat="42.1959117" lon="12.9871517"><ele>550.0</ele><time>2026-04-20T09:11:07.32Z</time></trkpt><trkpt lat="42.19583" lon="12.9872967"><ele>550.0</ele><time>2026-04-20T09:11:08.318Z</time></trkpt><trkpt lat="42.19578" lon="12.98747"><ele>550.0</ele><time>2026-04-20T09:11:09.318Z</time></trkpt><trkpt lat="42.19576" lon="12.9876667"><ele>550.0</ele><time>2026-04-20T09:11:10.319Z</time></trkpt><trkpt lat="42.1957783" lon="12.98789"><ele>551.0</ele><time>2026-04-20T09:11:11.319Z</time></trkpt><trkpt lat="42.195815" lon="12.9881433"><ele>552.0</ele><time>2026-04-20T09:11:12.319Z</time></trkpt><trkpt lat="42.1958517" lon="12.988415"><ele>553.0</ele><time>2026-04-20T09:11:13.318Z</time></trkpt><trkpt lat="42.195885" lon="12.9886883"><ele>553.0</ele><time>2026-04-20T09:11:14.319Z</time></trkpt><trkpt lat="42.1959133" lon="12.988945"><ele>553.0</ele><time>2026-04-20T09:11:15.32Z</time></trkpt><trkpt lat="42.19593" lon="12.9891633"><ele>553.0</ele><time>2026-04-20T09:11:16.32Z</time></trkpt><trkpt lat="42.195925" lon="12.989335"><ele>555.0</ele><time>2026-04-20T09:11:17.319Z</time></trkpt><trkpt lat="42.1958817" lon="12.9894783"><ele>557.0</ele><time>2026-04-20T09:11:18.318Z</time></trkpt><trkpt lat="42.1958067" lon="12.98963"><ele>559.0</ele><time>2026-04-20T09:11:19.317Z</time></trkpt><trkpt lat="42.1957117" lon="12.989795"><ele>561.0</ele><time>2026-04-20T09:11:20.318Z</time></trkpt><trkpt lat="42.1956" lon="12.98998"><ele>557.3333333333334</ele><time>2026-04-20T09:11:21.319Z</time></trkpt><trkpt lat="42.19548" lon="12.9901783"><ele>553.6666666666667</ele><time>2026-04-20T09:11:22.318Z</time></trkpt><trkpt lat="42.19536" lon="12.99038"><ele>550.0</ele><time>2026-04-20T09:11:23.318Z</time></trkpt><trkpt lat="42.1952433" lon="12.9905883"><ele>550.0</ele><time>2026-04-20T09:11:24.317Z</time></trkpt><trkpt lat="42.1951333" lon="12.990785"><ele>550.0</ele><time>2026-04-20T09:11:25.319Z</time></trkpt><trkpt lat="42.1950167" lon="12.990965"><ele>550.0</ele><time>2026-04-20T09:11:26.319Z</time></trkpt><trkpt lat="42.1948767" lon="12.9911167"><ele>546.6666666666667</ele><time>2026-04-20T09:11:27.319Z</time></trkpt><trkpt lat="42.1947283" lon="12.9912367"><ele>543.3333333333334</ele><time>2026-04-20T09:11:28.318Z</time></trkpt><trkpt lat="42.1945967" lon="12.99134"><ele>540.0</ele><time>2026-04-20T09:11:29.318Z</time></trkpt><trkpt lat="42.19449" lon="12.9914517"><ele>540.0</ele><time>2026-04-20T09:11:30.32Z</time></trkpt><trkpt lat="42.1944117" lon="12.9915933"><ele>540.0</ele><time>2026-04-20T09:11:31.319Z</time></trkpt><trkpt lat="42.194375" lon="12.9917633"><ele>540.0</ele><time>2026-04-20T09:11:32.316Z</time></trkpt><trkpt lat="42.1943933" lon="12.9919583"><ele>540.0</ele><time>2026-04-20T09:11:33.32Z</time></trkpt><trkpt lat="42.1944517" lon="12.9921833"><ele>541.0</ele><time>2026-04-20T09:11:34.317Z</time></trkpt><trkpt lat="42.19451" lon="12.9924033"><ele>542.0</ele><time>2026-04-20T09:11:35.316Z</time></trkpt><trkpt lat="42.1945533" lon="12.9926"><ele>543.0</ele><time>2026-04-20T09:11:36.32Z</time></trkpt><trkpt lat="42.194575" lon="12.9927733"><ele>543.0</ele><time>2026-04-20T09:11:37.318Z</time></trkpt><trkpt lat="42.19457" lon="12.992925"><ele>543.0</ele><time>2026-04-20T09:11:38.319Z</time></trkpt><trkpt lat="42.19452" lon="12.99306"><ele>543.0</ele><time>2026-04-20T09:11:39.32Z</time></trkpt><trkpt lat="42.1944333" lon="12.99317"><ele>543.0</ele><time>2026-04-20T09:11:40.318Z</time></trkpt><trkpt lat="42.194325" lon="12.9932317"><ele>543.0</ele><time>2026-04-20T09:11:41.32Z</time></trkpt><trkpt lat="42.1941917" lon="12.993235"><ele>543.0</ele><time>2026-04-20T09:11:42.32Z</time></trkpt><trkpt lat="42.1940333" lon="12.9931983"><ele>543.0</ele><time>2026-04-20T09:11:43.319Z</time></trkpt><trkpt lat="42.19386" lon="12.9931567"><ele>545.3333333333334</ele><time>2026-04-20T09:11:44.316Z</time></trkpt><trkpt lat="42.1936633" lon="12.99311"><ele>547.6666666666667</ele><time>2026-04-20T09:11:45.32Z</time></trkpt><trkpt lat="42.1934617" lon="12.9930767"><ele>550.0</ele><time>2026-04-20T09:11:46.318Z</time></trkpt><trkpt lat="42.1932517" lon="12.9930333"><ele>555.0</ele><time>2026-04-20T09:11:47.32Z</time></trkpt><trkpt lat="42.1930317" lon="12.9929833"><ele>560.0</ele><time>2026-04-20T09:11:48.319Z</time></trkpt><trkpt lat="42.1928" lon="12.9929317"><ele>560.0</ele><time>2026-04-20T09:11:49.318Z</time></trkpt><trkpt lat="42.1925567" lon="12.9928817"><ele>560.0</ele><time>2026-04-20T09:11:50.319Z</time></trkpt><trkpt lat="42.1923117" lon="12.9928367"><ele>563.0</ele><time>2026-04-20T09:11:51.318Z</time></trkpt><trkpt lat="42.1920633" lon="12.992795"><ele>566.0</ele><time>2026-04-20T09:11:52.315Z</time></trkpt><trkpt lat="42.1918083" lon="12.992755"><ele>566.0</ele><time>2026-04-20T09:11:53.319Z</time></trkpt><trkpt lat="42.1915467" lon="12.9927133"><ele>566.0</ele><time>2026-04-20T09:11:54.319Z</time></trkpt><trkpt lat="42.1912833" lon="12.99267"><ele>571.0</ele><time>2026-04-20T09:11:55.319Z</time></trkpt><trkpt lat="42.1910217" lon="12.9926217"><ele>576.0</ele><time>2026-04-20T09:11:56.319Z</time></trkpt><trkpt lat="42.1907783" lon="12.9925733"><ele>576.3333333333334</ele><time>2026-04-20T09:11:57.319Z</time></trkpt><trkpt lat="42.190555" lon="12.992525"><ele>576.6666666666667</ele><time>2026-04-20T09:11:58.319Z</time></trkpt><trkpt lat="42.19035" lon="12.9924717"><ele>577.0</ele><time>2026-04-20T09:11:59.318Z</time></trkpt><trkpt lat="42.1901667" lon="12.9924367"><ele>576.75</ele><time>2026-04-20T09:12:00.319Z</time></trkpt><trkpt lat="42.1900067" lon="12.9924233"><ele>576.5</ele><time>2026-04-20T09:12:01.319Z</time></trkpt><trkpt lat="42.18987" lon="12.9924383"><ele>576.25</ele><time>2026-04-20T09:12:02.32Z</time></trkpt><trkpt lat="42.18974" lon="12.992495"><ele>576.0</ele><time>2026-04-20T09:12:03.317Z</time></trkpt><trkpt lat="42.1896067" lon="12.9925967"><ele>576.0</ele><time>2026-04-20T09:12:04.319Z</time></trkpt><trkpt lat="42.1894633" lon="12.9927117"><ele>576.0</ele><time>2026-04-20T09:12:05.32Z</time></trkpt><trkpt lat="42.1893117" lon="12.9927967"><ele>576.0</ele><time>2026-04-20T09:12:06.32Z</time></trkpt><trkpt lat="42.1891483" lon="12.992835"><ele>573.3333333333334</ele><time>2026-04-20T09:12:07.32Z</time></trkpt><trkpt lat="42.188975" lon="12.9928433"><ele>570.6666666666667</ele><time>2026-04-20T09:12:08.321Z</time></trkpt><trkpt lat="42.1888" lon="12.9928767"><ele>568.0</ele><time>2026-04-20T09:12:09.319Z</time></trkpt><trkpt lat="42.1886183" lon="12.9929383"><ele>568.0</ele><time>2026-04-20T09:12:10.321Z</time></trkpt><trkpt lat="42.18844" lon="12.9930433"><ele>568.0</ele><time>2026-04-20T09:12:11.319Z</time></trkpt><trkpt lat="42.1882617" lon="12.9931683"><ele>568.0</ele><time>2026-04-20T09:12:12.321Z</time></trkpt><trkpt lat="42.1880833" lon="12.9932983"><ele>572.3333333333334</ele><time>2026-04-20T09:12:13.32Z</time></trkpt><trkpt lat="42.1878983" lon="12.993405"><ele>576.6666666666666</ele><time>2026-04-20T09:12:14.32Z</time></trkpt><trkpt lat="42.1877033" lon="12.9934967"><ele>581.0</ele><time>2026-04-20T09:12:15.322Z</time></trkpt><trkpt lat="42.18751" lon="12.993585"><ele>576.3333333333333</ele><time>2026-04-20T09:12:16.319Z</time></trkpt><trkpt lat="42.1873367" lon="12.9936867"><ele>571.6666666666666</ele><time>2026-04-20T09:12:17.32Z</time></trkpt><trkpt lat="42.1871833" lon="12.9937983"><ele>567.0</ele><time>2026-04-20T09:12:18.317Z</time></trkpt><trkpt lat="42.18704" lon="12.993945"><ele>567.0</ele><time>2026-04-20T09:12:19.318Z</time></trkpt><trkpt lat="42.1869083" lon="12.9941033"><ele>567.0</ele><time>2026-04-20T09:12:20.321Z</time></trkpt><trkpt lat="42.1867867" lon="12.9942517"><ele>567.0</ele><time>2026-04-20T09:12:21.318Z</time></trkpt><trkpt lat="42.18667" lon="12.9943717"><ele>569.25</ele><time>2026-04-20T09:12:22.318Z</time></trkpt><trkpt lat="42.1865567" lon="12.9944467"><ele>571.5</ele><time>2026-04-20T09:12:23.319Z</time></trkpt><trkpt lat="42.18644" lon="12.9944917"><ele>573.75</ele><time>2026-04-20T09:12:24.318Z</time></trkpt><trkpt lat="42.1863217" lon="12.9945267"><ele>576.0</ele><time>2026-04-20T09:12:25.319Z</time></trkpt><trkpt lat="42.1862033" lon="12.9945717"><ele>576.0</ele><time>2026-04-20T09:12:26.32Z</time></trkpt><trkpt lat="42.186075" lon="12.9946283"><ele>576.0</ele><time>2026-04-20T09:12:27.321Z</time></trkpt><trkpt lat="42.1859317" lon="12.9946933"><ele>576.0</ele><time>2026-04-20T09:12:28.32Z</time></trkpt><trkpt lat="42.185775" lon="12.99476"><ele>574.6666666666666</ele><time>2026-04-20T09:12:29.32Z</time></trkpt><trkpt lat="42.1856" lon="12.9948267"><ele>573.3333333333333</ele><time>2026-04-20T09:12:30.32Z</time></trkpt><trkpt lat="42.1854083" lon="12.9948933"><ele>572.0</ele><time>2026-04-20T09:12:31.32Z</time></trkpt><trkpt lat="42.1852117" lon="12.9949583"><ele>580.0</ele><time>2026-04-20T09:12:32.32Z</time></trkpt><trkpt lat="42.1850133" lon="12.99503"><ele>588.0</ele><time>2026-04-20T09:12:33.322Z</time></trkpt><trkpt lat="42.18481" lon="12.9951083"><ele>596.0</ele><time>2026-04-20T09:12:34.32Z</time></trkpt><trkpt lat="42.1846033" lon="12.9952"><ele>596.0</ele><time>2026-04-20T09:12:35.32Z</time></trkpt><trkpt lat="42.184385" lon="12.9952883"><ele>596.0</ele><time>2026-04-20T09:12:36.32Z</time></trkpt><trkpt lat="42.1841583" lon="12.9953733"><ele>589.0</ele><time>2026-04-20T09:12:37.318Z</time></trkpt><trkpt lat="42.1839217" lon="12.9954583"><ele>582.0</ele><time>2026-04-20T09:12:38.318Z</time></trkpt><trkpt lat="42.1836817" lon="12.995535"><ele>582.0</ele><time>2026-04-20T09:12:39.322Z</time></trkpt><trkpt lat="42.1834383" lon="12.9956133"><ele>582.0</ele><time>2026-04-20T09:12:40.32Z</time></trkpt><trkpt lat="42.1831833" lon="12.9956867"><ele>574.0</ele><time>2026-04-20T09:12:41.32Z</time></trkpt><trkpt lat="42.182925" lon="12.9957767"><ele>566.0</ele><time>2026-04-20T09:12:42.321Z</time></trkpt><trkpt lat="42.1826633" lon="12.9958667"><ele>576.0</ele><time>2026-04-20T09:12:43.321Z</time></trkpt><trkpt lat="42.182415" lon="12.9959583"><ele>586.0</ele><time>2026-04-20T09:12:44.321Z</time></trkpt><trkpt lat="42.1821783" lon="12.9960417"><ele>586.0</ele><time>2026-04-20T09:12:45.321Z</time></trkpt><trkpt lat="42.1819533" lon="12.996115"><ele>586.0</ele><time>2026-04-20T09:12:46.32Z</time></trkpt><trkpt lat="42.1817417" lon="12.996185"><ele>586.0</ele><time>2026-04-20T09:12:47.319Z</time></trkpt><trkpt lat="42.1815517" lon="12.9962467"><ele>578.5</ele><time>2026-04-20T09:12:48.317Z</time></trkpt><trkpt lat="42.1813883" lon="12.996305"><ele>571.0</ele><time>2026-04-20T09:12:49.319Z</time></trkpt><trkpt lat="42.1812533" lon="12.9963717"><ele>563.5</ele><time>2026-04-20T09:12:50.319Z</time></trkpt><trkpt lat="42.18115" lon="12.9964567"><ele>556.0</ele><time>2026-04-20T09:12:51.318Z</time></trkpt><trkpt lat="42.1810733" lon="12.9965833"><ele>561.0</ele><time>2026-04-20T09:12:52.317Z</time></trkpt><trkpt lat="42.181015" lon="12.9967683"><ele>566.0</ele><time>2026-04-20T09:12:53.318Z</time></trkpt><trkpt lat="42.1809433" lon="12.9969667"><ele>571.0</ele><time>2026-04-20T09:12:54.318Z</time></trkpt><trkpt lat="42.180865" lon="12.99719"><ele>571.0</ele><time>2026-04-20T09:12:55.322Z</time></trkpt><trkpt lat="42.1807867" lon="12.9974233"><ele>571.0</ele><time>2026-04-20T09:12:56.319Z</time></trkpt><trkpt lat="42.1807017" lon="12.9976383"><ele>571.0</ele><time>2026-04-20T09:12:57.32Z</time></trkpt><trkpt lat="42.1806033" lon="12.9978433"><ele>574.3333333333334</ele><time>2026-04-20T09:12:58.319Z</time></trkpt><trkpt lat="42.1804783" lon="12.9980317"><ele>577.6666666666666</ele><time>2026-04-20T09:12:59.321Z</time></trkpt><trkpt lat="42.1803267" lon="12.9982083"><ele>581.0</ele><time>2026-04-20T09:13:00.32Z</time></trkpt><trkpt lat="42.1801583" lon="12.9983783"><ele>581.0</ele><time>2026-04-20T09:13:01.32Z</time></trkpt><trkpt lat="42.1799883" lon="12.9985517"><ele>581.0</ele><time>2026-04-20T09:13:02.319Z</time></trkpt><trkpt lat="42.179815" lon="12.9987333"><ele>581.0</ele><time>2026-04-20T09:13:03.321Z</time></trkpt><trkpt lat="42.1796417" lon="12.9989183"><ele>581.3333333333333</ele><time>2026-04-20T09:13:04.319Z</time></trkpt><trkpt lat="42.179475" lon="12.9990833"><ele>581.6666666666666</ele><time>2026-04-20T09:13:05.319Z</time></trkpt><trkpt lat="42.179315" lon="12.9992167"><ele>582.0</ele><time>2026-04-20T09:13:06.319Z</time></trkpt><trkpt lat="42.1791533" lon="12.9993167"><ele>579.0</ele><time>2026-04-20T09:13:07.32Z</time></trkpt><trkpt lat="42.17897" lon="12.9993917"><ele>576.0</ele><time>2026-04-20T09:13:08.319Z</time></trkpt><trkpt lat="42.17878" lon="12.9994683"><ele>573.0</ele><time>2026-04-20T09:13:09.32Z</time></trkpt><trkpt lat="42.178585" lon="12.999565"><ele>573.0</ele><time>2026-04-20T09:13:10.32Z</time></trkpt><trkpt lat="42.1783933" lon="12.9997033"><ele>573.0</ele><time>2026-04-20T09:13:11.32Z</time></trkpt><trkpt lat="42.178205" lon="12.999855"><ele>573.0</ele><time>2026-04-20T09:13:12.32Z</time></trkpt><trkpt lat="42.17802" lon="13.0000117"><ele>567.0</ele><time>2026-04-20T09:13:13.32Z</time></trkpt><trkpt lat="42.1778317" lon="13.0001717"><ele>561.0</ele><time>2026-04-20T09:13:14.32Z</time></trkpt><trkpt lat="42.17764" lon="13.0003317"><ele>555.0</ele><time>2026-04-20T09:13:15.32Z</time></trkpt><trkpt lat="42.1774433" lon="13.0004983"><ele>554.5</ele><time>2026-04-20T09:13:16.32Z</time></trkpt><trkpt lat="42.1772417" lon="13.0006733"><ele>554.0</ele><time>2026-04-20T09:13:17.321Z</time></trkpt><trkpt lat="42.17704" lon="13.0008533"><ele>554.0</ele><time>2026-04-20T09:13:18.317Z</time></trkpt><trkpt lat="42.1768367" lon="13.0010383"><ele>554.0</ele><time>2026-04-20T09:13:19.317Z</time></trkpt><trkpt lat="42.17663" lon="13.0012267"><ele>546.5</ele><time>2026-04-20T09:13:20.318Z</time></trkpt><trkpt lat="42.17642" lon="13.001415"><ele>539.0</ele><time>2026-04-20T09:13:21.317Z</time></trkpt><trkpt lat="42.176205" lon="13.0016"><ele>547.5</ele><time>2026-04-20T09:13:22.318Z</time></trkpt><trkpt lat="42.1759967" lon="13.00178"><ele>556.0</ele><time>2026-04-20T09:13:23.317Z</time></trkpt><trkpt lat="42.1757917" lon="13.0019483"><ele>552.0</ele><time>2026-04-20T09:13:24.318Z</time></trkpt><trkpt lat="42.1756" lon="13.0021017"><ele>548.0</ele><time>2026-04-20T09:13:25.321Z</time></trkpt><trkpt lat="42.17541" lon="13.00223"><ele>544.0</ele><time>2026-04-20T09:13:26.32Z</time></trkpt><trkpt lat="42.1752117" lon="13.00233"><ele>544.0</ele><time>2026-04-20T09:13:27.32Z</time></trkpt><trkpt lat="42.1749967" lon="13.0024067"><ele>544.0</ele><time>2026-04-20T09:13:28.32Z</time></trkpt><trkpt lat="42.1747683" lon="13.002465"><ele>554.0</ele><time>2026-04-20T09:13:29.32Z</time></trkpt><trkpt lat="42.1745367" lon="13.0025217"><ele>564.0</ele><time>2026-04-20T09:13:30.319Z</time></trkpt><trkpt lat="42.174295" lon="13.0025767"><ele>564.0</ele><time>2026-04-20T09:13:31.32Z</time></trkpt><trkpt lat="42.1740533" lon="13.0026317"><ele>564.0</ele><time>2026-04-20T09:13:32.32Z</time></trkpt><trkpt lat="42.173815" lon="13.0027033"><ele>561.3333333333334</ele><time>2026-04-20T09:13:33.321Z</time></trkpt><trkpt lat="42.1736017" lon="13.0028067"><ele>558.6666666666667</ele><time>2026-04-20T09:13:34.319Z</time></trkpt><trkpt lat="42.1734017" lon="13.002915"><ele>556.0</ele><time>2026-04-20T09:13:35.32Z</time></trkpt><trkpt lat="42.1732133" lon="13.0030017"><ele>552.0</ele><time>2026-04-20T09:13:36.32Z</time></trkpt><trkpt lat="42.1730317" lon="13.0030533"><ele>548.0</ele><time>2026-04-20T09:13:37.319Z</time></trkpt><trkpt lat="42.17287" lon="13.0030683"><ele>544.0</ele><time>2026-04-20T09:13:38.319Z</time></trkpt><trkpt lat="42.1727167" lon="13.00309"><ele>544.0</ele><time>2026-04-20T09:13:39.321Z</time></trkpt><trkpt lat="42.1725783" lon="13.0031383"><ele>544.0</ele><time>2026-04-20T09:13:40.319Z</time></trkpt><trkpt lat="42.1724633" lon="13.0032367"><ele>544.0</ele><time>2026-04-20T09:13:41.32Z</time></trkpt><trkpt lat="42.1723617" lon="13.0033867"><ele>544.0</ele><time>2026-04-20T09:13:42.319Z</time></trkpt><trkpt lat="42.1722617" lon="13.0035717"><ele>543.3333333333334</ele><time>2026-04-20T09:13:43.32Z</time></trkpt><trkpt lat="42.17215" lon="13.0037683"><ele>542.6666666666666</ele><time>2026-04-20T09:13:44.321Z</time></trkpt><trkpt lat="42.172025" lon="13.0039633"><ele>542.0</ele><time>2026-04-20T09:13:45.319Z</time></trkpt><trkpt lat="42.171895" lon="13.004135"><ele>544.6666666666666</ele><time>2026-04-20T09:13:46.32Z</time></trkpt><trkpt lat="42.1717517" lon="13.004285"><ele>547.3333333333334</ele><time>2026-04-20T09:13:47.319Z</time></trkpt><trkpt lat="42.171585" lon="13.00442"><ele>550.0</ele><time>2026-04-20T09:13:48.32Z</time></trkpt><trkpt lat="42.171405" lon="13.0045617"><ele>550.0</ele><time>2026-04-20T09:13:49.32Z</time></trkpt><trkpt lat="42.1712233" lon="13.004695"><ele>550.0</ele><time>2026-04-20T09:13:50.32Z</time></trkpt><trkpt lat="42.171055" lon="13.0048117"><ele>550.0</ele><time>2026-04-20T09:13:51.318Z</time></trkpt><trkpt lat="42.1708917" lon="13.004905"><ele>550.0</ele><time>2026-04-20T09:13:52.32Z</time></trkpt><trkpt lat="42.1707233" lon="13.004965"><ele>550.0</ele><time>2026-04-20T09:13:53.32Z</time></trkpt><trkpt lat="42.170535" lon="13.0049733"><ele>550.0</ele><time>2026-04-20T09:13:54.319Z</time></trkpt><trkpt lat="42.1703433" lon="13.00496"><ele>549.6666666666667</ele><time>2026-04-20T09:13:55.321Z</time></trkpt><trkpt lat="42.170165" lon="13.0049533"><ele>549.3333333333334</ele><time>2026-04-20T09:13:56.32Z</time></trkpt><trkpt lat="42.1700133" lon="13.0049333"><ele>549.0</ele><time>2026-04-20T09:13:57.322Z</time></trkpt><trkpt lat="42.1698817" lon="13.004885"><ele>550.5</ele><time>2026-04-20T09:13:58.319Z</time></trkpt><trkpt lat="42.169765" lon="13.0048"><ele>552.0</ele><time>2026-04-20T09:13:59.318Z</time></trkpt><trkpt lat="42.169645" lon="13.0046967"><ele>553.5</ele><time>2026-04-20T09:14:00.319Z</time></trkpt><trkpt lat="42.1695083" lon="13.0046133"><ele>555.0</ele><time>2026-04-20T09:14:01.32Z</time></trkpt><trkpt lat="42.1693567" lon="13.0045567"><ele>555.0</ele><time>2026-04-20T09:14:02.32Z</time></trkpt><trkpt lat="42.1691967" lon="13.00454"><ele>555.0</ele><time>2026-04-20T09:14:03.32Z</time></trkpt><trkpt lat="42.1690317" lon="13.004575"><ele>555.0</ele><time>2026-04-20T09:14:04.319Z</time></trkpt><trkpt lat="42.1688617" lon="13.0046433"><ele>552.6666666666666</ele><time>2026-04-20T09:14:05.32Z</time></trkpt><trkpt lat="42.16869" lon="13.0047483"><ele>550.3333333333333</ele><time>2026-04-20T09:14:06.32Z</time></trkpt><trkpt lat="42.1685217" lon="13.0048633"><ele>548.0</ele><time>2026-04-20T09:14:07.32Z</time></trkpt><trkpt lat="42.168355" lon="13.005005"><ele>550.0</ele><time>2026-04-20T09:14:08.32Z</time></trkpt><trkpt lat="42.16819" lon="13.005175"><ele>552.0</ele><time>2026-04-20T09:14:09.32Z</time></trkpt><trkpt lat="42.1680317" lon="13.0053667"><ele>554.0</ele><time>2026-04-20T09:14:10.319Z</time></trkpt><trkpt lat="42.167875" lon="13.005565"><ele>554.0</ele><time>2026-04-20T09:14:11.32Z</time></trkpt><trkpt lat="42.1677233" lon="13.0057417"><ele>554.0</ele><time>2026-04-20T09:14:12.32Z</time></trkpt><trkpt lat="42.1675583" lon="13.0059"><ele>554.0</ele><time>2026-04-20T09:14:13.319Z</time></trkpt><trkpt lat="42.16738" lon="13.00603"><ele>554.6666666666666</ele><time>2026-04-20T09:14:14.319Z</time></trkpt><trkpt lat="42.167195" lon="13.006145"><ele>555.3333333333334</ele><time>2026-04-20T09:14:15.319Z</time></trkpt><trkpt lat="42.16703" lon="13.0062467"><ele>556.0</ele><time>2026-04-20T09:14:16.32Z</time></trkpt><trkpt lat="42.166875" lon="13.0063183"><ele>556.0</ele><time>2026-04-20T09:14:17.319Z</time></trkpt><trkpt lat="42.166715" lon="13.00635"><ele>556.0</ele><time>2026-04-20T09:14:18.32Z</time></trkpt><trkpt lat="42.1665383" lon="13.0063433"><ele>556.0</ele><time>2026-04-20T09:14:19.32Z</time></trkpt><trkpt lat="42.1663483" lon="13.0063167"><ele>556.3333333333334</ele><time>2026-04-20T09:14:20.32Z</time></trkpt><trkpt lat="42.166165" lon="13.0062933"><ele>556.6666666666666</ele><time>2026-04-20T09:14:21.318Z</time></trkpt><trkpt lat="42.166" lon="13.0063033"><ele>557.0</ele><time>2026-04-20T09:14:22.32Z</time></trkpt><trkpt lat="42.16584" lon="13.0063483"><ele>555.3333333333333</ele><time>2026-04-20T09:14:23.319Z</time></trkpt><trkpt lat="42.1656717" lon="13.0064333"><ele>553.6666666666666</ele><time>2026-04-20T09:14:24.319Z</time></trkpt><trkpt lat="42.1654967" lon="13.00655"><ele>552.0</ele><time>2026-04-20T09:14:25.32Z</time></trkpt><trkpt lat="42.16531" lon="13.0066733"><ele>555.0</ele><time>2026-04-20T09:14:26.32Z</time></trkpt><trkpt lat="42.165125" lon="13.0068017"><ele>558.0</ele><time>2026-04-20T09:14:27.32Z</time></trkpt><trkpt lat="42.164945" lon="13.00692"><ele>561.0</ele><time>2026-04-20T09:14:28.319Z</time></trkpt><trkpt lat="42.164785" lon="13.00702"><ele>561.0</ele><time>2026-04-20T09:14:29.319Z</time></trkpt><trkpt lat="42.1646267" lon="13.00709"><ele>561.0</ele><time>2026-04-20T09:14:30.319Z</time></trkpt><trkpt lat="42.1644667" lon="13.0071217"><ele>561.0</ele><time>2026-04-20T09:14:31.32Z</time></trkpt><trkpt lat="42.164285" lon="13.0071233"><ele>561.0</ele><time>2026-04-20T09:14:32.32Z</time></trkpt><trkpt lat="42.16409" lon="13.007105"><ele>561.0</ele><time>2026-04-20T09:14:33.319Z</time></trkpt><trkpt lat="42.1638867" lon="13.007085"><ele>561.0</ele><time>2026-04-20T09:14:34.321Z</time></trkpt><trkpt lat="42.163675" lon="13.0070667"><ele>560.6666666666666</ele><time>2026-04-20T09:14:35.32Z</time></trkpt><trkpt lat="42.1634567" lon="13.0070533"><ele>560.3333333333333</ele><time>2026-04-20T09:14:36.32Z</time></trkpt><trkpt lat="42.1632333" lon="13.007055"><ele>560.0</ele><time>2026-04-20T09:14:37.319Z</time></trkpt><trkpt lat="42.163" lon="13.0070867"><ele>558.5</ele><time>2026-04-20T09:14:38.32Z</time></trkpt><trkpt lat="42.1627583" lon="13.0071367"><ele>557.0</ele><time>2026-04-20T09:14:39.322Z</time></trkpt><trkpt lat="42.1625067" lon="13.007185"><ele>554.0</ele><time>2026-04-20T09:14:40.32Z</time></trkpt><trkpt lat="42.162265" lon="13.0072267"><ele>551.0</ele><time>2026-04-20T09:14:41.32Z</time></trkpt><trkpt lat="42.1620417" lon="13.007265"><ele>551.0</ele><time>2026-04-20T09:14:42.32Z</time></trkpt><trkpt lat="42.16184" lon="13.007305"><ele>551.0</ele><time>2026-04-20T09:14:43.32Z</time></trkpt><trkpt lat="42.16166" lon="13.0073517"><ele>551.0</ele><time>2026-04-20T09:14:44.319Z</time></trkpt><trkpt lat="42.1614783" lon="13.0074283"><ele>553.6666666666666</ele><time>2026-04-20T09:14:45.321Z</time></trkpt><trkpt lat="42.16129" lon="13.00753"><ele>556.3333333333334</ele><time>2026-04-20T09:14:46.319Z</time></trkpt><trkpt lat="42.1610933" lon="13.00765"><ele>559.0</ele><time>2026-04-20T09:14:47.32Z</time></trkpt><trkpt lat="42.1608817" lon="13.0077783"><ele>553.5</ele><time>2026-04-20T09:14:48.319Z</time></trkpt><trkpt lat="42.1606633" lon="13.0079"><ele>548.0</ele><time>2026-04-20T09:14:49.319Z</time></trkpt><trkpt lat="42.1604483" lon="13.008025"><ele>548.0</ele><time>2026-04-20T09:14:50.32Z</time></trkpt><trkpt lat="42.1602283" lon="13.008155"><ele>548.0</ele><time>2026-04-20T09:14:51.321Z</time></trkpt><trkpt lat="42.1600067" lon="13.008295"><ele>553.5</ele><time>2026-04-20T09:14:52.32Z</time></trkpt><trkpt lat="42.1597767" lon="13.0084233"><ele>559.0</ele><time>2026-04-20T09:14:53.32Z</time></trkpt><trkpt lat="42.15954" lon="13.0085583"><ele>559.0</ele><time>2026-04-20T09:14:54.319Z</time></trkpt><trkpt lat="42.1593083" lon="13.008695"><ele>559.0</ele><time>2026-04-20T09:14:55.32Z</time></trkpt><trkpt lat="42.1590883" lon="13.0088233"><ele>560.0</ele><time>2026-04-20T09:14:56.32Z</time></trkpt><trkpt lat="42.15888" lon="13.0089467"><ele>561.0</ele><time>2026-04-20T09:14:57.32Z</time></trkpt><trkpt lat="42.1586867" lon="13.00906"><ele>562.0</ele><time>2026-04-20T09:14:58.319Z</time></trkpt><trkpt lat="42.1585317" lon="13.0091717"><ele>562.0</ele><time>2026-04-20T09:14:59.32Z</time></trkpt><trkpt lat="42.1583867" lon="13.0093017"><ele>562.0</ele><time>2026-04-20T09:15:00.32Z</time></trkpt><trkpt lat="42.1582567" lon="13.009455"><ele>562.0</ele><time>2026-04-20T09:15:01.319Z</time></trkpt><trkpt lat="42.1581383" lon="13.0095933"><ele>561.5</ele><time>2026-04-20T09:15:02.319Z</time></trkpt><trkpt lat="42.1580333" lon="13.0096917"><ele>561.0</ele><time>2026-04-20T09:15:03.32Z</time></trkpt><trkpt lat="42.1579233" lon="13.0097267"><ele>560.5</ele><time>2026-04-20T09:15:04.32Z</time></trkpt><trkpt lat="42.157805" lon="13.0097017"><ele>560.0</ele><time>2026-04-20T09:15:05.32Z</time></trkpt><trkpt lat="42.1576867" lon="13.0096383"><ele>560.0</ele><time>2026-04-20T09:15:06.32Z</time></trkpt><trkpt lat="42.1575883" lon="13.0095617"><ele>560.0</ele><time>2026-04-20T09:15:07.32Z</time></trkpt><trkpt lat="42.1574883" lon="13.009505"><ele>560.0</ele><time>2026-04-20T09:15:08.319Z</time></trkpt><trkpt lat="42.1573917" lon="13.009475"><ele>560.0</ele><time>2026-04-20T09:15:09.321Z</time></trkpt><trkpt lat="42.1572917" lon="13.0094783"><ele>560.0</ele><time>2026-04-20T09:15:10.319Z</time></trkpt><trkpt lat="42.1571917" lon="13.0095067"><ele>559.5</ele><time>2026-04-20T09:15:11.319Z</time></trkpt><trkpt lat="42.15709" lon="13.00957"><ele>559.0</ele><time>2026-04-20T09:15:12.32Z</time></trkpt><trkpt lat="42.157" lon="13.0096633"><ele>558.5</ele><time>2026-04-20T09:15:13.32Z</time></trkpt><trkpt lat="42.1569167" lon="13.00978"><ele>558.0</ele><time>2026-04-20T09:15:14.321Z</time></trkpt><trkpt lat="42.1568317" lon="13.0099033"><ele>557.0</ele><time>2026-04-20T09:15:15.32Z</time></trkpt><trkpt lat="42.1567417" lon="13.0100267"><ele>556.0</ele><time>2026-04-20T09:15:16.327Z</time></trkpt><trkpt lat="42.1566383" lon="13.0101567"><ele>555.0</ele><time>2026-04-20T09:15:17.266Z</time></trkpt><trkpt lat="42.1565767" lon="13.01025"><ele>554.0</ele><time>2026-04-20T09:15:18.316Z</time></trkpt><trkpt lat="42.1565217" lon="13.0104083"><ele>554.0</ele><time>2026-04-20T09:15:19.472Z</time></trkpt><trkpt lat="42.1563433" lon="13.0106233"><ele>554.0</ele><time>2026-04-20T09:15:21.321Z</time></trkpt><trkpt lat="42.15625" lon="13.0107467"><ele>554.0</ele><time>2026-04-20T09:15:22.316Z</time></trkpt><trkpt lat="42.156185" lon="13.010895"><ele>556.3333333333333</ele><time>2026-04-20T09:15:23.52Z</time></trkpt><trkpt lat="42.1559717" lon="13.0111233"><ele>558.6666666666666</ele><time>2026-04-20T09:15:25.316Z</time></trkpt><trkpt lat="42.1558767" lon="13.0112533"><ele>561.0</ele><time>2026-04-20T09:15:26.319Z</time></trkpt><trkpt lat="42.15577" lon="13.0113983"><ele>561.25</ele><time>2026-04-20T09:15:27.317Z</time></trkpt><trkpt lat="42.155665" lon="13.0115367"><ele>561.5</ele><time>2026-04-20T09:15:28.32Z</time></trkpt><trkpt lat="42.15557" lon="13.0116583"><ele>561.75</ele><time>2026-04-20T09:15:29.317Z</time></trkpt><trkpt lat="42.1554917" lon="13.0117633"><ele>562.0</ele><time>2026-04-20T09:15:30.32Z</time></trkpt><trkpt lat="42.1554133" lon="13.011865"><ele>562.0</ele><time>2026-04-20T09:15:31.317Z</time></trkpt><trkpt lat="42.1552433" lon="13.01189"><ele>562.0</ele><time>2026-04-20T09:15:32.945Z</time></trkpt><trkpt lat="42.155145" lon="13.011805"><ele>562.0</ele><time>2026-04-20T09:15:34.196Z</time></trkpt><trkpt lat="42.1551117" lon="13.01191"><ele>562.0</ele><time>2026-04-20T09:15:35.318Z</time></trkpt><trkpt lat="42.15504" lon="13.0120417"><ele>562.0</ele><time>2026-04-20T09:15:36.318Z</time></trkpt><trkpt lat="42.1549467" lon="13.0120783"><ele>562.0</ele><time>2026-04-20T09:15:37.318Z</time></trkpt><trkpt lat="42.1548333" lon="13.0121317"><ele>562.0</ele><time>2026-04-20T09:15:38.317Z</time></trkpt><trkpt lat="42.154725" lon="13.012145"><ele>562.0</ele><time>2026-04-20T09:15:39.319Z</time></trkpt><trkpt lat="42.154675" lon="13.0120767"><ele>562.0</ele><time>2026-04-20T09:15:40.438Z</time></trkpt><trkpt lat="42.1544817" lon="13.01209"><ele>559.0</ele><time>2026-04-20T09:15:41.818Z</time></trkpt><trkpt lat="42.154275" lon="13.01213"><ele>556.0</ele><time>2026-04-20T09:15:43.318Z</time></trkpt><trkpt lat="42.1541317" lon="13.012145"><ele>553.0</ele><time>2026-04-20T09:15:44.32Z</time></trkpt><trkpt lat="42.153995" lon="13.0121567"><ele>552.5</ele><time>2026-04-20T09:15:45.32Z</time></trkpt><trkpt lat="42.1538517" lon="13.0121717"><ele>552.0</ele><time>2026-04-20T09:15:46.319Z</time></trkpt><trkpt lat="42.1537067" lon="13.0121883"><ele>551.5</ele><time>2026-04-20T09:15:47.319Z</time></trkpt><trkpt lat="42.15356" lon="13.01221"><ele>551.0</ele><time>2026-04-20T09:15:48.319Z</time></trkpt><trkpt lat="42.153415" lon="13.0122267"><ele>551.0</ele><time>2026-04-20T09:15:49.319Z</time></trkpt><trkpt lat="42.1532767" lon="13.01225"><ele>551.0</ele><time>2026-04-20T09:15:50.32Z</time></trkpt><trkpt lat="42.153135" lon="13.0122833"><ele>551.0</ele><time>2026-04-20T09:15:51.32Z</time></trkpt><trkpt lat="42.1529917" lon="13.0123217"><ele>551.0</ele><time>2026-04-20T09:15:52.319Z</time></trkpt><trkpt lat="42.1528583" lon="13.012375"><ele>550.75</ele><time>2026-04-20T09:15:53.319Z</time></trkpt><trkpt lat="42.1527283" lon="13.0124383"><ele>550.5</ele><time>2026-04-20T09:15:54.318Z</time></trkpt><trkpt lat="42.1526133" lon="13.0124983"><ele>550.25</ele><time>2026-04-20T09:15:55.318Z</time></trkpt><trkpt lat="42.1525067" lon="13.0125533"><ele>550.0</ele><time>2026-04-20T09:15:56.319Z</time></trkpt><trkpt lat="42.1523967" lon="13.0126083"><ele>550.75</ele><time>2026-04-20T09:15:57.32Z</time></trkpt><trkpt lat="42.1522867" lon="13.0126733"><ele>551.5</ele><time>2026-04-20T09:15:58.318Z</time></trkpt><trkpt lat="42.15217" lon="13.012755"><ele>552.25</ele><time>2026-04-20T09:15:59.32Z</time></trkpt><trkpt lat="42.1520517" lon="13.012855"><ele>553.0</ele><time>2026-04-20T09:16:00.318Z</time></trkpt><trkpt lat="42.1519367" lon="13.0129717"><ele>553.0</ele><time>2026-04-20T09:16:01.318Z</time></trkpt><trkpt lat="42.1518333" lon="13.01311"><ele>553.0</ele><time>2026-04-20T09:16:02.319Z</time></trkpt><trkpt lat="42.15173" lon="13.0132483"><ele>553.0</ele><time>2026-04-20T09:16:03.319Z</time></trkpt><trkpt lat="42.15163" lon="13.0133883"><ele>553.0</ele><time>2026-04-20T09:16:04.319Z</time></trkpt><trkpt lat="42.1515133" lon="13.01351"><ele>552.3333333333334</ele><time>2026-04-20T09:16:05.32Z</time></trkpt><trkpt lat="42.1513867" lon="13.01363"><ele>551.6666666666666</ele><time>2026-04-20T09:16:06.317Z</time></trkpt><trkpt lat="42.15125" lon="13.01374"><ele>551.0</ele><time>2026-04-20T09:16:07.317Z</time></trkpt><trkpt lat="42.1511067" lon="13.0138433"><ele>551.0</ele><time>2026-04-20T09:16:08.317Z</time></trkpt><trkpt lat="42.1509467" lon="13.01394"><ele>551.0</ele><time>2026-04-20T09:16:09.319Z</time></trkpt><trkpt lat="42.1507867" lon="13.0140283"><ele>551.0</ele><time>2026-04-20T09:16:10.319Z</time></trkpt><trkpt lat="42.1506367" lon="13.0140983"><ele>553.25</ele><time>2026-04-20T09:16:11.319Z</time></trkpt><trkpt lat="42.1504983" lon="13.01416"><ele>555.5</ele><time>2026-04-20T09:16:12.318Z</time></trkpt><trkpt lat="42.150375" lon="13.0142183"><ele>557.75</ele><time>2026-04-20T09:16:13.318Z</time></trkpt><trkpt lat="42.1502683" lon="13.01429"><ele>560.0</ele><time>2026-04-20T09:16:14.32Z</time></trkpt><trkpt lat="42.1501783" lon="13.0143767"><ele>560.0</ele><time>2026-04-20T09:16:15.317Z</time></trkpt><trkpt lat="42.1501083" lon="13.0144867"><ele>560.0</ele><time>2026-04-20T09:16:16.317Z</time></trkpt><trkpt lat="42.1500517" lon="13.0146317"><ele>560.0</ele><time>2026-04-20T09:16:17.318Z</time></trkpt><trkpt lat="42.1500067" lon="13.0148067"><ele>560.0</ele><time>2026-04-20T09:16:18.318Z</time></trkpt><trkpt lat="42.1499683" lon="13.0150133"><ele>558.3333333333333</ele><time>2026-04-20T09:16:19.318Z</time></trkpt><trkpt lat="42.1499283" lon="13.0152333"><ele>556.6666666666666</ele><time>2026-04-20T09:16:20.318Z</time></trkpt><trkpt lat="42.1498867" lon="13.0154567"><ele>555.0</ele><time>2026-04-20T09:16:21.317Z</time></trkpt><trkpt lat="42.1498433" lon="13.0156883"><ele>555.0</ele><time>2026-04-20T09:16:22.317Z</time></trkpt><trkpt lat="42.1497983" lon="13.01594"><ele>555.0</ele><time>2026-04-20T09:16:23.316Z</time></trkpt><trkpt lat="42.14976" lon="13.0161833"><ele>555.0</ele><time>2026-04-20T09:16:24.318Z</time></trkpt><trkpt lat="42.1497183" lon="13.0164217"><ele>555.0</ele><time>2026-04-20T09:16:25.317Z</time></trkpt><trkpt lat="42.1496867" lon="13.0166383"><ele>555.0</ele><time>2026-04-20T09:16:26.318Z</time></trkpt><trkpt lat="42.1496717" lon="13.01685"><ele>555.0</ele><time>2026-04-20T09:16:27.318Z</time></trkpt><trkpt lat="42.1496767" lon="13.01705"><ele>555.0</ele><time>2026-04-20T09:16:28.317Z</time></trkpt><trkpt lat="42.1497033" lon="13.01724"><ele>555.0</ele><time>2026-04-20T09:16:29.317Z</time></trkpt><trkpt lat="42.1497317" lon="13.017415"><ele>555.0</ele><time>2026-04-20T09:16:30.317Z</time></trkpt><trkpt lat="42.1497417" lon="13.017565"><ele>555.0</ele><time>2026-04-20T09:16:31.316Z</time></trkpt><trkpt lat="42.1497283" lon="13.0177067"><ele>555.0</ele><time>2026-04-20T09:16:32.317Z</time></trkpt><trkpt lat="42.149685" lon="13.017835"><ele>555.0</ele><time>2026-04-20T09:16:33.318Z</time></trkpt><trkpt lat="42.14961" lon="13.017965"><ele>555.0</ele><time>2026-04-20T09:16:34.317Z</time></trkpt><trkpt lat="42.1495167" lon="13.0180933"><ele>555.0</ele><time>2026-04-20T09:16:35.317Z</time></trkpt><trkpt lat="42.1494133" lon="13.0182183"><ele>556.25</ele><time>2026-04-20T09:16:36.316Z</time></trkpt><trkpt lat="42.1492983" lon="13.018325"><ele>557.5</ele><time>2026-04-20T09:16:37.317Z</time></trkpt><trkpt lat="42.1491733" lon="13.0184033"><ele>558.75</ele><time>2026-04-20T09:16:38.316Z</time></trkpt><trkpt lat="42.14904" lon="13.01844"><ele>560.0</ele><time>2026-04-20T09:16:39.317Z</time></trkpt><trkpt lat="42.1489" lon="13.01843"><ele>558.6666666666666</ele><time>2026-04-20T09:16:40.317Z</time></trkpt><trkpt lat="42.148755" lon="13.0183717"><ele>557.3333333333334</ele><time>2026-04-20T09:16:41.317Z</time></trkpt><trkpt lat="42.1486167" lon="13.018285"><ele>556.0</ele><time>2026-04-20T09:16:42.318Z</time></trkpt><trkpt lat="42.1484883" lon="13.0181733"><ele>556.0</ele><time>2026-04-20T09:16:43.317Z</time></trkpt><trkpt lat="42.14836" lon="13.0180433"><ele>556.0</ele><time>2026-04-20T09:16:44.318Z</time></trkpt><trkpt lat="42.1482333" lon="13.0179117"><ele>556.0</ele><time>2026-04-20T09:16:45.317Z</time></trkpt><trkpt lat="42.148105" lon="13.0177983"><ele>558.3333333333334</ele><time>2026-04-20T09:16:46.318Z</time></trkpt><trkpt lat="42.1479683" lon="13.0177067"><ele>560.6666666666666</ele><time>2026-04-20T09:16:47.316Z</time></trkpt><trkpt lat="42.1478133" lon="13.017645"><ele>563.0</ele><time>2026-04-20T09:16:48.317Z</time></trkpt><trkpt lat="42.1476483" lon="13.01761"><ele>563.0</ele><time>2026-04-20T09:16:49.317Z</time></trkpt><trkpt lat="42.1474733" lon="13.0175867"><ele>563.0</ele><time>2026-04-20T09:16:50.317Z</time></trkpt><trkpt lat="42.1473" lon="13.0175783"><ele>563.0</ele><time>2026-04-20T09:16:51.318Z</time></trkpt><trkpt lat="42.1471417" lon="13.0175767"><ele>563.75</ele><time>2026-04-20T09:16:52.317Z</time></trkpt><trkpt lat="42.147" lon="13.01759"><ele>564.5</ele><time>2026-04-20T09:16:53.316Z</time></trkpt><trkpt lat="42.1468667" lon="13.0176333"><ele>565.25</ele><time>2026-04-20T09:16:54.317Z</time></trkpt><trkpt lat="42.1467367" lon="13.0177233"><ele>566.0</ele><time>2026-04-20T09:16:55.318Z</time></trkpt><trkpt lat="42.146625" lon="13.0178617"><ele>566.6666666666666</ele><time>2026-04-20T09:16:56.317Z</time></trkpt><trkpt lat="42.146535" lon="13.0180383"><ele>567.3333333333334</ele><time>2026-04-20T09:16:57.317Z</time></trkpt><trkpt lat="42.1464467" lon="13.0182317"><ele>568.0</ele><time>2026-04-20T09:16:58.317Z</time></trkpt><trkpt lat="42.146345" lon="13.0184167"><ele>570.3333333333334</ele><time>2026-04-20T09:16:59.317Z</time></trkpt><trkpt lat="42.14623" lon="13.0185967"><ele>572.6666666666666</ele><time>2026-04-20T09:17:00.317Z</time></trkpt><trkpt lat="42.1461017" lon="13.0187733"><ele>575.0</ele><time>2026-04-20T09:17:01.318Z</time></trkpt><trkpt lat="42.145965" lon="13.0189517"><ele>575.0</ele><time>2026-04-20T09:17:02.316Z</time></trkpt><trkpt lat="42.1458217" lon="13.0191367"><ele>575.0</ele><time>2026-04-20T09:17:03.317Z</time></trkpt><trkpt lat="42.145675" lon="13.01933"><ele>575.0</ele><time>2026-04-20T09:17:04.316Z</time></trkpt><trkpt lat="42.145535" lon="13.019525"><ele>576.3333333333333</ele><time>2026-04-20T09:17:05.317Z</time></trkpt><trkpt lat="42.14539" lon="13.0197217"><ele>577.6666666666666</ele><time>2026-04-20T09:17:06.317Z</time></trkpt><trkpt lat="42.1452383" lon="13.0199167"><ele>579.0</ele><time>2026-04-20T09:17:07.316Z</time></trkpt><trkpt lat="42.1450917" lon="13.0201117"><ele>579.0</ele><time>2026-04-20T09:17:08.318Z</time></trkpt><trkpt lat="42.1449483" lon="13.0203"><ele>579.0</ele><time>2026-04-20T09:17:09.318Z</time></trkpt><trkpt lat="42.1447983" lon="13.020485"><ele>579.0</ele><time>2026-04-20T09:17:10.318Z</time></trkpt><trkpt lat="42.1446317" lon="13.0206583"><ele>579.3333333333334</ele><time>2026-04-20T09:17:11.316Z</time></trkpt><trkpt lat="42.144455" lon="13.0208217"><ele>579.6666666666667</ele><time>2026-04-20T09:17:12.317Z</time></trkpt><trkpt lat="42.1442733" lon="13.0209883"><ele>580.0</ele><time>2026-04-20T09:17:13.317Z</time></trkpt><trkpt lat="42.1440933" lon="13.0211617"><ele>581.0</ele><time>2026-04-20T09:17:14.317Z</time></trkpt><trkpt lat="42.143915" lon="13.02133"><ele>582.0</ele><time>2026-04-20T09:17:15.318Z</time></trkpt><trkpt lat="42.1437417" lon="13.0214967"><ele>583.0</ele><time>2026-04-20T09:17:16.317Z</time></trkpt><trkpt lat="42.143565" lon="13.0216667"><ele>583.0</ele><time>2026-04-20T09:17:17.317Z</time></trkpt><trkpt lat="42.14338" lon="13.0218367"><ele>583.0</ele><time>2026-04-20T09:17:18.317Z</time></trkpt><trkpt lat="42.1431983" lon="13.0220017"><ele>583.0</ele><time>2026-04-20T09:17:19.318Z</time></trkpt><trkpt lat="42.1430267" lon="13.02216"><ele>582.3333333333334</ele><time>2026-04-20T09:17:20.317Z</time></trkpt><trkpt lat="42.1428617" lon="13.022305"><ele>581.6666666666666</ele><time>2026-04-20T09:17:21.318Z</time></trkpt><trkpt lat="42.1427067" lon="13.0224533"><ele>581.0</ele><time>2026-04-20T09:17:22.316Z</time></trkpt><trkpt lat="42.142575" lon="13.022605"><ele>582.25</ele><time>2026-04-20T09:17:23.317Z</time></trkpt><trkpt lat="42.1424617" lon="13.0227583"><ele>583.5</ele><time>2026-04-20T09:17:24.318Z</time></trkpt><trkpt lat="42.1423733" lon="13.0229067"><ele>584.75</ele><time>2026-04-20T09:17:25.316Z</time></trkpt><trkpt lat="42.1423017" lon="13.0230317"><ele>586.0</ele><time>2026-04-20T09:17:26.317Z</time></trkpt><trkpt lat="42.1422383" lon="13.02314"><ele>584.1666666666667</ele><time>2026-04-20T09:17:27.318Z</time></trkpt><trkpt lat="42.1421867" lon="13.0232067"><ele>582.3333333333334</ele><time>2026-04-20T09:17:28.318Z</time></trkpt><trkpt lat="42.14213" lon="13.02328"><ele>580.5</ele><time>2026-04-20T09:17:30.318Z</time></trkpt><trkpt lat="42.142125" lon="13.0234117"><ele>578.6666666666666</ele><time>2026-04-20T09:17:53.317Z</time></trkpt><trkpt lat="42.14209" lon="13.0234883"><ele>576.8333333333333</ele><time>2026-04-20T09:17:54.318Z</time></trkpt><trkpt lat="42.1420283" lon="13.023585"><ele>575.0</ele><time>2026-04-20T09:17:55.317Z</time></trkpt><trkpt lat="42.141955" lon="13.02368"><ele>575.0</ele><time>2026-04-20T09:17:56.317Z</time></trkpt><trkpt lat="42.1418417" lon="13.0237933"><ele>575.0</ele><time>2026-04-20T09:17:57.318Z</time></trkpt><trkpt lat="42.141725" lon="13.023905"><ele>575.0</ele><time>2026-04-20T09:17:58.318Z</time></trkpt><trkpt lat="42.1415933" lon="13.024015"><ele>575.0</ele><time>2026-04-20T09:17:59.319Z</time></trkpt><trkpt lat="42.14145" lon="13.02413"><ele>574.6666666666666</ele><time>2026-04-20T09:18:00.318Z</time></trkpt><trkpt lat="42.141295" lon="13.0242517"><ele>574.3333333333334</ele><time>2026-04-20T09:18:01.318Z</time></trkpt><trkpt lat="42.14113" lon="13.0243817"><ele>574.0</ele><time>2026-04-20T09:18:02.316Z</time></trkpt><trkpt lat="42.1409483" lon="13.0245183"><ele>574.0</ele><time>2026-04-20T09:18:03.317Z</time></trkpt><trkpt lat="42.1407683" lon="13.024655"><ele>574.0</ele><time>2026-04-20T09:18:04.318Z</time></trkpt><trkpt lat="42.140585" lon="13.02479"><ele>574.0</ele><time>2026-04-20T09:18:05.318Z</time></trkpt><trkpt lat="42.1403983" lon="13.0249283"><ele>573.6666666666667</ele><time>2026-04-20T09:18:06.316Z</time></trkpt><trkpt lat="42.1402083" lon="13.0250667"><ele>573.3333333333334</ele><time>2026-04-20T09:18:07.317Z</time></trkpt><trkpt lat="42.1400267" lon="13.025215"><ele>573.0</ele><time>2026-04-20T09:18:08.318Z</time></trkpt><trkpt lat="42.139855" lon="13.02537"><ele>572.6666666666666</ele><time>2026-04-20T09:18:09.318Z</time></trkpt><trkpt lat="42.1396883" lon="13.0255233"><ele>572.3333333333333</ele><time>2026-04-20T09:18:10.319Z</time></trkpt><trkpt lat="42.13952" lon="13.0256833"><ele>572.0</ele><time>2026-04-20T09:18:11.317Z</time></trkpt><trkpt lat="42.1393467" lon="13.02585"><ele>572.0</ele><time>2026-04-20T09:18:12.317Z</time></trkpt><trkpt lat="42.1391683" lon="13.0260183"><ele>572.0</ele><time>2026-04-20T09:18:13.317Z</time></trkpt><trkpt lat="42.138995" lon="13.0261883"><ele>572.0</ele><time>2026-04-20T09:18:14.317Z</time></trkpt><trkpt lat="42.1388267" lon="13.0263483"><ele>570.6666666666666</ele><time>2026-04-20T09:18:15.319Z</time></trkpt><trkpt lat="42.1386667" lon="13.0264967"><ele>569.3333333333334</ele><time>2026-04-20T09:18:16.317Z</time></trkpt><trkpt lat="42.1385033" lon="13.0266233"><ele>568.0</ele><time>2026-04-20T09:18:17.317Z</time></trkpt><trkpt lat="42.1383367" lon="13.0267233"><ele>567.0</ele><time>2026-04-20T09:18:18.316Z</time></trkpt><trkpt lat="42.1381517" lon="13.0267883"><ele>566.0</ele><time>2026-04-20T09:18:19.318Z</time></trkpt><trkpt lat="42.1379533" lon="13.0268233"><ele>565.0</ele><time>2026-04-20T09:18:20.316Z</time></trkpt><trkpt lat="42.1377433" lon="13.0268317"><ele>565.0</ele><time>2026-04-20T09:18:21.318Z</time></trkpt><trkpt lat="42.1375183" lon="13.0268283"><ele>565.0</ele><time>2026-04-20T09:18:22.317Z</time></trkpt><trkpt lat="42.13728" lon="13.0268267"><ele>564.5</ele><time>2026-04-20T09:18:23.317Z</time></trkpt><trkpt lat="42.1370367" lon="13.026825"><ele>564.0</ele><time>2026-04-20T09:18:24.316Z</time></trkpt><trkpt lat="42.1367933" lon="13.0268267"><ele>561.5</ele><time>2026-04-20T09:18:25.317Z</time></trkpt><trkpt lat="42.136545" lon="13.02683"><ele>559.0</ele><time>2026-04-20T09:18:26.318Z</time></trkpt><trkpt lat="42.1362933" lon="13.02683"><ele>559.0</ele><time>2026-04-20T09:18:27.318Z</time></trkpt><trkpt lat="42.1360467" lon="13.0268317"><ele>559.0</ele><time>2026-04-20T09:18:28.317Z</time></trkpt><trkpt lat="42.1358067" lon="13.0268333"><ele>560.0</ele><time>2026-04-20T09:18:29.316Z</time></trkpt><trkpt lat="42.1355717" lon="13.0268333"><ele>561.0</ele><time>2026-04-20T09:18:30.316Z</time></trkpt><trkpt lat="42.1353383" lon="13.0268317"><ele>561.0</ele><time>2026-04-20T09:18:31.317Z</time></trkpt><trkpt lat="42.1351033" lon="13.0268317"><ele>561.0</ele><time>2026-04-20T09:18:32.317Z</time></trkpt><trkpt lat="42.1348683" lon="13.0268333"><ele>561.5</ele><time>2026-04-20T09:18:33.318Z</time></trkpt><trkpt lat="42.13463" lon="13.0268333"><ele>562.0</ele><time>2026-04-20T09:18:34.316Z</time></trkpt><trkpt lat="42.13439" lon="13.0268317"><ele>562.0</ele><time>2026-04-20T09:18:35.318Z</time></trkpt><trkpt lat="42.13415" lon="13.0268333"><ele>562.0</ele><time>2026-04-20T09:18:36.317Z</time></trkpt><trkpt lat="42.1339133" lon="13.0268317"><ele>561.3333333333334</ele><time>2026-04-20T09:18:37.317Z</time></trkpt><trkpt lat="42.1336917" lon="13.0268267"><ele>560.6666666666666</ele><time>2026-04-20T09:18:38.316Z</time></trkpt><trkpt lat="42.1334867" lon="13.026825"><ele>560.0</ele><time>2026-04-20T09:18:39.318Z</time></trkpt><trkpt lat="42.1332917" lon="13.0268333"><ele>560.3333333333333</ele><time>2026-04-20T09:18:40.317Z</time></trkpt><trkpt lat="42.1330983" lon="13.0268683"><ele>560.6666666666666</ele><time>2026-04-20T09:18:41.316Z</time></trkpt><trkpt lat="42.1329033" lon="13.0269417"><ele>561.0</ele><time>2026-04-20T09:18:42.316Z</time></trkpt><trkpt lat="42.1327067" lon="13.0270467"><ele>561.0</ele><time>2026-04-20T09:18:43.316Z</time></trkpt><trkpt lat="42.132505" lon="13.02717"><ele>561.0</ele><time>2026-04-20T09:18:44.318Z</time></trkpt><trkpt lat="42.1322983" lon="13.0273"><ele>561.5</ele><time>2026-04-20T09:18:45.318Z</time></trkpt><trkpt lat="42.1320833" lon="13.0274333"><ele>562.0</ele><time>2026-04-20T09:18:46.316Z</time></trkpt><trkpt lat="42.1318583" lon="13.0275683"><ele>562.0</ele><time>2026-04-20T09:18:47.317Z</time></trkpt><trkpt lat="42.131625" lon="13.0277017"><ele>562.0</ele><time>2026-04-20T09:18:48.316Z</time></trkpt><trkpt lat="42.13139" lon="13.0278433"><ele>560.0</ele><time>2026-04-20T09:18:49.316Z</time></trkpt><trkpt lat="42.1311617" lon="13.027985"><ele>558.0</ele><time>2026-04-20T09:18:50.317Z</time></trkpt><trkpt lat="42.1309433" lon="13.0281183"><ele>558.0</ele><time>2026-04-20T09:18:51.318Z</time></trkpt><trkpt lat="42.1307267" lon="13.0282583"><ele>558.0</ele><time>2026-04-20T09:18:52.317Z</time></trkpt><trkpt lat="42.13052" lon="13.02842"><ele>556.5</ele><time>2026-04-20T09:18:53.316Z</time></trkpt><trkpt lat="42.1303267" lon="13.0286017"><ele>555.0</ele><time>2026-04-20T09:18:54.316Z</time></trkpt><trkpt lat="42.1301433" lon="13.0288033"><ele>555.0</ele><time>2026-04-20T09:18:55.317Z</time></trkpt><trkpt lat="42.1299683" lon="13.029025"><ele>555.0</ele><time>2026-04-20T09:18:56.316Z</time></trkpt><trkpt lat="42.1298033" lon="13.029255"><ele>555.6666666666666</ele><time>2026-04-20T09:18:57.318Z</time></trkpt><trkpt lat="42.12966" lon="13.02948"><ele>556.3333333333333</ele><time>2026-04-20T09:18:58.317Z</time></trkpt><trkpt lat="42.1295383" lon="13.0296933"><ele>557.0</ele><time>2026-04-20T09:18:59.317Z</time></trkpt><trkpt lat="42.129435" lon="13.0299083"><ele>558.0</ele><time>2026-04-20T09:19:00.317Z</time></trkpt><trkpt lat="42.1293583" lon="13.0301467"><ele>559.0</ele><time>2026-04-20T09:19:01.317Z</time></trkpt><trkpt lat="42.1293" lon="13.0304017"><ele>560.0</ele><time>2026-04-20T09:19:02.316Z</time></trkpt><trkpt lat="42.1292317" lon="13.03065"><ele>559.3333333333333</ele><time>2026-04-20T09:19:03.318Z</time></trkpt><trkpt lat="42.1291333" lon="13.0308733"><ele>558.6666666666666</ele><time>2026-04-20T09:19:04.316Z</time></trkpt><trkpt lat="42.1290033" lon="13.0310817"><ele>558.0</ele><time>2026-04-20T09:19:05.317Z</time></trkpt><trkpt lat="42.128855" lon="13.0312933"><ele>558.0</ele><time>2026-04-20T09:19:06.317Z</time></trkpt><trkpt lat="42.128685" lon="13.03152"><ele>558.0</ele><time>2026-04-20T09:19:07.319Z</time></trkpt><trkpt lat="42.1285" lon="13.0317533"><ele>558.0</ele><time>2026-04-20T09:19:08.316Z</time></trkpt><trkpt lat="42.1283083" lon="13.03199"><ele>558.0</ele><time>2026-04-20T09:19:09.318Z</time></trkpt><trkpt lat="42.1281233" lon="13.0322167"><ele>558.0</ele><time>2026-04-20T09:19:10.317Z</time></trkpt><trkpt lat="42.127945" lon="13.0324317"><ele>558.0</ele><time>2026-04-20T09:19:11.316Z</time></trkpt><trkpt lat="42.1277767" lon="13.0326333"><ele>558.3333333333334</ele><time>2026-04-20T09:19:12.317Z</time></trkpt><trkpt lat="42.1276083" lon="13.0328317"><ele>558.6666666666667</ele><time>2026-04-20T09:19:13.317Z</time></trkpt><trkpt lat="42.1274583" lon="13.03301"><ele>559.0</ele><time>2026-04-20T09:19:14.316Z</time></trkpt><trkpt lat="42.1273183" lon="13.0331583"><ele>559.0</ele><time>2026-04-20T09:19:15.318Z</time></trkpt><trkpt lat="42.127175" lon="13.0332783"><ele>559.0</ele><time>2026-04-20T09:19:16.317Z</time></trkpt><trkpt lat="42.1270083" lon="13.0333733"><ele>559.0</ele><time>2026-04-20T09:19:17.317Z</time></trkpt><trkpt lat="42.12683" lon="13.0334333"><ele>559.3333333333334</ele><time>2026-04-20T09:19:18.317Z</time></trkpt><trkpt lat="42.1266417" lon="13.0334533"><ele>559.6666666666666</ele><time>2026-04-20T09:19:19.318Z</time></trkpt><trkpt lat="42.1264367" lon="13.03344"><ele>560.0</ele><time>2026-04-20T09:19:20.317Z</time></trkpt><trkpt lat="42.1262183" lon="13.0334"><ele>560.0</ele><time>2026-04-20T09:19:21.317Z</time></trkpt><trkpt lat="42.125995" lon="13.033355"><ele>560.0</ele><time>2026-04-20T09:19:22.316Z</time></trkpt><trkpt lat="42.12576" lon="13.0333017"><ele>561.5</ele><time>2026-04-20T09:19:23.316Z</time></trkpt><trkpt lat="42.12552" lon="13.03325"><ele>563.0</ele><time>2026-04-20T09:19:24.316Z</time></trkpt><trkpt lat="42.1252833" lon="13.0331983"><ele>563.0</ele><time>2026-04-20T09:19:25.317Z</time></trkpt><trkpt lat="42.1250483" lon="13.03315"><ele>563.0</ele><time>2026-04-20T09:19:26.317Z</time></trkpt><trkpt lat="42.1248117" lon="13.0331067"><ele>562.5</ele><time>2026-04-20T09:19:27.318Z</time></trkpt><trkpt lat="42.1245733" lon="13.0330617"><ele>562.0</ele><time>2026-04-20T09:19:28.317Z</time></trkpt><trkpt lat="42.1243367" lon="13.033015"><ele>562.0</ele><time>2026-04-20T09:19:29.317Z</time></trkpt><trkpt lat="42.1240967" lon="13.0329633"><ele>562.0</ele><time>2026-04-20T09:19:30.317Z</time></trkpt><trkpt lat="42.1238483" lon="13.0329133"><ele>561.0</ele><time>2026-04-20T09:19:31.317Z</time></trkpt><trkpt lat="42.1235967" lon="13.0328683"><ele>560.0</ele><time>2026-04-20T09:19:32.316Z</time></trkpt><trkpt lat="42.1233517" lon="13.032825"><ele>560.0</ele><time>2026-04-20T09:19:33.318Z</time></trkpt><trkpt lat="42.1231167" lon="13.0327867"><ele>560.0</ele><time>2026-04-20T09:19:34.317Z</time></trkpt><trkpt lat="42.1228967" lon="13.0327417"><ele>560.0</ele><time>2026-04-20T09:19:35.316Z</time></trkpt><trkpt lat="42.1226867" lon="13.0326633"><ele>560.0</ele><time>2026-04-20T09:19:36.318Z</time></trkpt><trkpt lat="42.1224767" lon="13.0325483"><ele>560.0</ele><time>2026-04-20T09:19:37.316Z</time></trkpt><trkpt lat="42.122265" lon="13.0324067"><ele>560.0</ele><time>2026-04-20T09:19:38.316Z</time></trkpt><trkpt lat="42.12205" lon="13.0322533"><ele>560.0</ele><time>2026-04-20T09:19:39.316Z</time></trkpt><trkpt lat="42.12183" lon="13.032095"><ele>560.0</ele><time>2026-04-20T09:19:40.317Z</time></trkpt><trkpt lat="42.1216067" lon="13.031935"><ele>560.0</ele><time>2026-04-20T09:19:41.317Z</time></trkpt><trkpt lat="42.121385" lon="13.031775"><ele>561.5</ele><time>2026-04-20T09:19:42.317Z</time></trkpt><trkpt lat="42.121165" lon="13.031615"><ele>563.0</ele><time>2026-04-20T09:19:43.316Z</time></trkpt><trkpt lat="42.1209583" lon="13.03147"><ele>563.0</ele><time>2026-04-20T09:19:44.316Z</time></trkpt><trkpt lat="42.1207717" lon="13.0313383"><ele>563.0</ele><time>2026-04-20T09:19:45.317Z</time></trkpt><trkpt lat="42.120605" lon="13.031225"><ele>563.0</ele><time>2026-04-20T09:19:46.317Z</time></trkpt><trkpt lat="42.120465" lon="13.0311183"><ele>563.0</ele><time>2026-04-20T09:19:47.316Z</time></trkpt><trkpt lat="42.1203617" lon="13.0309983"><ele>563.0</ele><time>2026-04-20T09:19:48.317Z</time></trkpt><trkpt lat="42.1202767" lon="13.0308583"><ele>563.0</ele><time>2026-04-20T09:19:49.317Z</time></trkpt><trkpt lat="42.1202067" lon="13.030695"><ele>563.0</ele><time>2026-04-20T09:19:50.317Z</time></trkpt><trkpt lat="42.1201467" lon="13.0305133"><ele>563.3333333333333</ele><time>2026-04-20T09:19:51.318Z</time></trkpt><trkpt lat="42.1200917" lon="13.0303217"><ele>563.6666666666666</ele><time>2026-04-20T09:19:52.317Z</time></trkpt><trkpt lat="42.1200317" lon="13.0301233"><ele>564.0</ele><time>2026-04-20T09:19:53.317Z</time></trkpt><trkpt lat="42.1199567" lon="13.0299183"><ele>563.3333333333334</ele><time>2026-04-20T09:19:54.316Z</time></trkpt><trkpt lat="42.1198683" lon="13.029715"><ele>562.6666666666667</ele><time>2026-04-20T09:19:55.317Z</time></trkpt><trkpt lat="42.1197533" lon="13.0295233"><ele>562.0</ele><time>2026-04-20T09:19:56.317Z</time></trkpt><trkpt lat="42.1196183" lon="13.0293567"><ele>562.0</ele><time>2026-04-20T09:19:57.318Z</time></trkpt><trkpt lat="42.1194583" lon="13.0292333"><ele>562.0</ele><time>2026-04-20T09:19:58.317Z</time></trkpt><trkpt lat="42.1192733" lon="13.0291417"><ele>562.0</ele><time>2026-04-20T09:19:59.317Z</time></trkpt><trkpt lat="42.1190783" lon="13.0290767"><ele>563.3333333333334</ele><time>2026-04-20T09:20:00.317Z</time></trkpt><trkpt lat="42.1188717" lon="13.0290467"><ele>564.6666666666666</ele><time>2026-04-20T09:20:01.318Z</time></trkpt><trkpt lat="42.11865" lon="13.0290517"><ele>566.0</ele><time>2026-04-20T09:20:02.316Z</time></trkpt><trkpt lat="42.118425" lon="13.029065"><ele>567.0</ele><time>2026-04-20T09:20:03.317Z</time></trkpt><trkpt lat="42.1181917" lon="13.0290867"><ele>568.0</ele><time>2026-04-20T09:20:04.317Z</time></trkpt><trkpt lat="42.1179617" lon="13.0291117"><ele>568.0</ele><time>2026-04-20T09:20:05.317Z</time></trkpt><trkpt lat="42.11774" lon="13.029135"><ele>568.0</ele><time>2026-04-20T09:20:06.316Z</time></trkpt><trkpt lat="42.1175267" lon="13.0291533"><ele>568.0</ele><time>2026-04-20T09:20:07.317Z</time></trkpt><trkpt lat="42.1173183" lon="13.0291717"><ele>567.0</ele><time>2026-04-20T09:20:08.317Z</time></trkpt><trkpt lat="42.1171067" lon="13.0291883"><ele>566.0</ele><time>2026-04-20T09:20:09.317Z</time></trkpt><trkpt lat="42.11689" lon="13.0292083"><ele>565.0</ele><time>2026-04-20T09:20:10.317Z</time></trkpt><trkpt lat="42.1166617" lon="13.02923"><ele>565.0</ele><time>2026-04-20T09:20:11.317Z</time></trkpt><trkpt lat="42.1164233" lon="13.0292533"><ele>565.0</ele><time>2026-04-20T09:20:12.317Z</time></trkpt><trkpt lat="42.116175" lon="13.0292817"><ele>565.0</ele><time>2026-04-20T09:20:13.317Z</time></trkpt><trkpt lat="42.1159167" lon="13.0293167"><ele>565.0</ele><time>2026-04-20T09:20:14.316Z</time></trkpt><trkpt lat="42.1156583" lon="13.0293483"><ele>565.5</ele><time>2026-04-20T09:20:15.316Z</time></trkpt><trkpt lat="42.1153917" lon="13.0293733"><ele>566.0</ele><time>2026-04-20T09:20:16.316Z</time></trkpt><trkpt lat="42.115125" lon="13.0293917"><ele>566.5</ele><time>2026-04-20T09:20:17.316Z</time></trkpt><trkpt lat="42.1148583" lon="13.0294"><ele>567.0</ele><time>2026-04-20T09:20:18.317Z</time></trkpt><trkpt lat="42.1145933" lon="13.0294133"><ele>567.0</ele><time>2026-04-20T09:20:19.316Z</time></trkpt><trkpt lat="42.1143317" lon="13.0294267"><ele>567.0</ele><time>2026-04-20T09:20:20.315Z</time></trkpt><trkpt lat="42.1140733" lon="13.0294467"><ele>566.0</ele><time>2026-04-20T09:20:21.317Z</time></trkpt><trkpt lat="42.1138217" lon="13.0294733"><ele>565.0</ele><time>2026-04-20T09:20:22.316Z</time></trkpt><trkpt lat="42.1135783" lon="13.0295017"><ele>565.0</ele><time>2026-04-20T09:20:23.317Z</time></trkpt><trkpt lat="42.1133383" lon="13.0295267"><ele>565.0</ele><time>2026-04-20T09:20:24.317Z</time></trkpt><trkpt lat="42.1130983" lon="13.0295417"><ele>565.6666666666667</ele><time>2026-04-20T09:20:25.317Z</time></trkpt><trkpt lat="42.112865" lon="13.0295517"><ele>566.3333333333334</ele><time>2026-04-20T09:20:26.317Z</time></trkpt><trkpt lat="42.112655" lon="13.0295667"><ele>567.0</ele><time>2026-04-20T09:20:27.316Z</time></trkpt><trkpt lat="42.11246" lon="13.0295767"><ele>568.3333333333334</ele><time>2026-04-20T09:20:28.316Z</time></trkpt><trkpt lat="42.1122733" lon="13.0295867"><ele>569.6666666666667</ele><time>2026-04-20T09:20:29.316Z</time></trkpt><trkpt lat="42.1120983" lon="13.0295983"><ele>571.0</ele><time>2026-04-20T09:20:30.317Z</time></trkpt><trkpt lat="42.1119317" lon="13.0296133"><ele>571.0</ele><time>2026-04-20T09:20:31.316Z</time></trkpt><trkpt lat="42.1117733" lon="13.0296333"><ele>571.0</ele><time>2026-04-20T09:20:32.317Z</time></trkpt><trkpt lat="42.111625" lon="13.029665"><ele>571.0</ele><time>2026-04-20T09:20:33.317Z</time></trkpt><trkpt lat="42.1114917" lon="13.0297133"><ele>571.0</ele><time>2026-04-20T09:20:34.317Z</time></trkpt><trkpt lat="42.1113717" lon="13.02977"><ele>571.75</ele><time>2026-04-20T09:20:35.316Z</time></trkpt><trkpt lat="42.11126" lon="13.0298183"><ele>572.5</ele><time>2026-04-20T09:20:36.317Z</time></trkpt><trkpt lat="42.1111517" lon="13.0298333"><ele>573.25</ele><time>2026-04-20T09:20:37.317Z</time></trkpt><trkpt lat="42.11104" lon="13.02981"><ele>574.0</ele><time>2026-04-20T09:20:38.316Z</time></trkpt><trkpt lat="42.1109167" lon="13.0297483"><ele>574.0</ele><time>2026-04-20T09:20:39.317Z</time></trkpt><trkpt lat="42.11077" lon="13.029655"><ele>574.0</ele><time>2026-04-20T09:20:40.317Z</time></trkpt><trkpt lat="42.11061" lon="13.0295533"><ele>574.0</ele><time>2026-04-20T09:20:41.317Z</time></trkpt><trkpt lat="42.1104433" lon="13.0294517"><ele>573.3333333333334</ele><time>2026-04-20T09:20:42.317Z</time></trkpt><trkpt lat="42.1102667" lon="13.0293483"><ele>572.6666666666666</ele><time>2026-04-20T09:20:43.317Z</time></trkpt><trkpt lat="42.11008" lon="13.0292367"><ele>572.0</ele><time>2026-04-20T09:20:44.317Z</time></trkpt><trkpt lat="42.10989" lon="13.0291167"><ele>573.3333333333333</ele><time>2026-04-20T09:20:45.318Z</time></trkpt><trkpt lat="42.1096933" lon="13.0289983"><ele>574.6666666666666</ele><time>2026-04-20T09:20:46.317Z</time></trkpt><trkpt lat="42.1094917" lon="13.0288767"><ele>576.0</ele><time>2026-04-20T09:20:47.316Z</time></trkpt><trkpt lat="42.1092783" lon="13.0287533"><ele>574.0</ele><time>2026-04-20T09:20:48.317Z</time></trkpt><trkpt lat="42.1090567" lon="13.028625"><ele>572.0</ele><time>2026-04-20T09:20:49.318Z</time></trkpt><trkpt lat="42.1088267" lon="13.0284867"><ele>572.0</ele><time>2026-04-20T09:20:50.317Z</time></trkpt><trkpt lat="42.10859" lon="13.028345"><ele>572.0</ele><time>2026-04-20T09:20:51.317Z</time></trkpt><trkpt lat="42.1083517" lon="13.0282033"><ele>575.0</ele><time>2026-04-20T09:20:52.317Z</time></trkpt><trkpt lat="42.1081067" lon="13.028055"><ele>578.0</ele><time>2026-04-20T09:20:53.317Z</time></trkpt><trkpt lat="42.107855" lon="13.0279017"><ele>578.0</ele><time>2026-04-20T09:20:54.316Z</time></trkpt><trkpt lat="42.1075967" lon="13.0277483"><ele>578.0</ele><time>2026-04-20T09:20:55.316Z</time></trkpt><trkpt lat="42.1073433" lon="13.02759"><ele>581.5</ele><time>2026-04-20T09:20:56.316Z</time></trkpt><trkpt lat="42.107095" lon="13.027435"><ele>585.0</ele><time>2026-04-20T09:20:57.317Z</time></trkpt><trkpt lat="42.1068533" lon="13.0272867"><ele>585.0</ele><time>2026-04-20T09:20:58.317Z</time></trkpt><trkpt lat="42.1066183" lon="13.0271417"><ele>585.0</ele><time>2026-04-20T09:20:59.315Z</time></trkpt><trkpt lat="42.106385" lon="13.027005"><ele>579.5</ele><time>2026-04-20T09:21:00.318Z</time></trkpt><trkpt lat="42.10616" lon="13.0268717"><ele>574.0</ele><time>2026-04-20T09:21:01.316Z</time></trkpt><trkpt lat="42.105945" lon="13.0267317"><ele>573.0</ele><time>2026-04-20T09:21:02.317Z</time></trkpt><trkpt lat="42.1057333" lon="13.0265867"><ele>572.0</ele><time>2026-04-20T09:21:03.318Z</time></trkpt><trkpt lat="42.1055183" lon="13.0264183"><ele>572.0</ele><time>2026-04-20T09:21:04.317Z</time></trkpt><trkpt lat="42.105305" lon="13.02624"><ele>572.0</ele><time>2026-04-20T09:21:05.316Z</time></trkpt><trkpt lat="42.1050933" lon="13.02606"><ele>570.5</ele><time>2026-04-20T09:21:06.317Z</time></trkpt><trkpt lat="42.1048867" lon="13.02588"><ele>569.0</ele><time>2026-04-20T09:21:07.318Z</time></trkpt><trkpt lat="42.1046767" lon="13.0257017"><ele>572.0</ele><time>2026-04-20T09:21:08.316Z</time></trkpt><trkpt lat="42.104465" lon="13.0255233"><ele>575.0</ele><time>2026-04-20T09:21:09.317Z</time></trkpt><trkpt lat="42.104245" lon="13.0253583"><ele>572.5</ele><time>2026-04-20T09:21:10.317Z</time></trkpt><trkpt lat="42.10402" lon="13.0252083"><ele>570.0</ele><time>2026-04-20T09:21:11.317Z</time></trkpt><trkpt lat="42.1037883" lon="13.0250767"><ele>573.5</ele><time>2026-04-20T09:21:12.316Z</time></trkpt><trkpt lat="42.1035467" lon="13.0249583"><ele>577.0</ele><time>2026-04-20T09:21:13.317Z</time></trkpt><trkpt lat="42.1032967" lon="13.0248583"><ele>577.0</ele><time>2026-04-20T09:21:14.317Z</time></trkpt><trkpt lat="42.103045" lon="13.02477"><ele>577.0</ele><time>2026-04-20T09:21:15.316Z</time></trkpt><trkpt lat="42.1027833" lon="13.0246917"><ele>577.0</ele><time>2026-04-20T09:21:16.318Z</time></trkpt><trkpt lat="42.1025267" lon="13.0246167"><ele>577.0</ele><time>2026-04-20T09:21:17.317Z</time></trkpt><trkpt lat="42.1022783" lon="13.0245417"><ele>575.0</ele><time>2026-04-20T09:21:18.317Z</time></trkpt><trkpt lat="42.1020383" lon="13.0244583"><ele>573.0</ele><time>2026-04-20T09:21:19.317Z</time></trkpt><trkpt lat="42.10182" lon="13.02436"><ele>573.0</ele><time>2026-04-20T09:21:20.317Z</time></trkpt><trkpt lat="42.10163" lon="13.024245"><ele>573.0</ele><time>2026-04-20T09:21:21.316Z</time></trkpt><trkpt lat="42.10146" lon="13.0241"><ele>573.0</ele><time>2026-04-20T09:21:22.318Z</time></trkpt><trkpt lat="42.101295" lon="13.0239283"><ele>573.0</ele><time>2026-04-20T09:21:23.316Z</time></trkpt><trkpt lat="42.1011367" lon="13.02374"><ele>573.0</ele><time>2026-04-20T09:21:24.317Z</time></trkpt><trkpt lat="42.10099" lon="13.0235533"><ele>573.0</ele><time>2026-04-20T09:21:25.317Z</time></trkpt><trkpt lat="42.1008517" lon="13.02337"><ele>573.75</ele><time>2026-04-20T09:21:26.316Z</time></trkpt><trkpt lat="42.1007317" lon="13.0232"><ele>574.5</ele><time>2026-04-20T09:21:27.317Z</time></trkpt><trkpt lat="42.1006383" lon="13.0230417"><ele>575.25</ele><time>2026-04-20T09:21:28.316Z</time></trkpt><trkpt lat="42.100575" lon="13.0228983"><ele>576.0</ele><time>2026-04-20T09:21:29.317Z</time></trkpt><trkpt lat="42.1005367" lon="13.0227767"><ele>576.0</ele><time>2026-04-20T09:21:30.317Z</time></trkpt><trkpt lat="42.1005067" lon="13.02268"><ele>576.0</ele><time>2026-04-20T09:21:31.318Z</time></trkpt><trkpt lat="42.1004317" lon="13.02258"><ele>576.0</ele><time>2026-04-20T09:21:33.317Z</time></trkpt><trkpt lat="42.10037" lon="13.0226017"><ele>576.0</ele><time>2026-04-20T09:21:34.315Z</time></trkpt><trkpt lat="42.1003083" lon="13.0226283"><ele>576.0</ele><time>2026-04-20T09:21:35.317Z</time></trkpt><trkpt lat="42.1002167" lon="13.0226833"><ele>576.0</ele><time>2026-04-20T09:21:36.316Z</time></trkpt><trkpt lat="42.1000917" lon="13.022765"><ele>575.3333333333334</ele><time>2026-04-20T09:21:37.317Z</time></trkpt><trkpt lat="42.0999117" lon="13.0228683"><ele>574.6666666666667</ele><time>2026-04-20T09:21:38.317Z</time></trkpt><trkpt lat="42.0997267" lon="13.02296"><ele>574.0</ele><time>2026-04-20T09:21:39.317Z</time></trkpt><trkpt lat="42.0995533" lon="13.023045"><ele>574.0</ele><time>2026-04-20T09:21:40.316Z</time></trkpt><trkpt lat="42.0993667" lon="13.0231317"><ele>574.0</ele><time>2026-04-20T09:21:41.317Z</time></trkpt><trkpt lat="42.099175" lon="13.0232183"><ele>574.0</ele><time>2026-04-20T09:21:42.317Z</time></trkpt><trkpt lat="42.09898" lon="13.0233"><ele>573.6666666666667</ele><time>2026-04-20T09:21:43.317Z</time></trkpt><trkpt lat="42.0987883" lon="13.02337"><ele>573.3333333333334</ele><time>2026-04-20T09:21:44.316Z</time></trkpt><trkpt lat="42.0986" lon="13.0234183"><ele>573.0</ele><time>2026-04-20T09:21:45.317Z</time></trkpt><trkpt lat="42.0984067" lon="13.0234433"><ele>573.6666666666666</ele><time>2026-04-20T09:21:46.315Z</time></trkpt><trkpt lat="42.09821" lon="13.0234483"><ele>574.3333333333333</ele><time>2026-04-20T09:21:47.321Z</time></trkpt><trkpt lat="42.0980083" lon="13.0234317"><ele>575.0</ele><time>2026-04-20T09:21:48.318Z</time></trkpt><trkpt lat="42.0978033" lon="13.023395"><ele>575.0</ele><time>2026-04-20T09:21:49.317Z</time></trkpt><trkpt lat="42.097595" lon="13.0233533"><ele>575.0</ele><time>2026-04-20T09:21:50.317Z</time></trkpt><trkpt lat="42.0973867" lon="13.0233267"><ele>575.0</ele><time>2026-04-20T09:21:51.318Z</time></trkpt><trkpt lat="42.0971733" lon="13.0233217"><ele>576.0</ele><time>2026-04-20T09:21:52.316Z</time></trkpt><trkpt lat="42.0969483" lon="13.0233283"><ele>577.0</ele><time>2026-04-20T09:21:53.317Z</time></trkpt><trkpt lat="42.0967233" lon="13.0233283"><ele>578.3333333333334</ele><time>2026-04-20T09:21:54.316Z</time></trkpt><trkpt lat="42.0965033" lon="13.0233183"><ele>579.6666666666666</ele><time>2026-04-20T09:21:55.317Z</time></trkpt><trkpt lat="42.096285" lon="13.023315"><ele>581.0</ele><time>2026-04-20T09:21:56.317Z</time></trkpt><trkpt lat="42.0960683" lon="13.0233267"><ele>581.0</ele><time>2026-04-20T09:21:57.317Z</time></trkpt><trkpt lat="42.09586" lon="13.02336"><ele>581.0</ele><time>2026-04-20T09:21:58.316Z</time></trkpt><trkpt lat="42.0956667" lon="13.0234067"><ele>581.0</ele><time>2026-04-20T09:21:59.317Z</time></trkpt><trkpt lat="42.0954867" lon="13.02345"><ele>581.0</ele><time>2026-04-20T09:22:00.316Z</time></trkpt><trkpt lat="42.0953117" lon="13.0234733"><ele>581.0</ele><time>2026-04-20T09:22:01.317Z</time></trkpt><trkpt lat="42.09513" lon="13.023475"><ele>581.0</ele><time>2026-04-20T09:22:02.317Z</time></trkpt><trkpt lat="42.09494" lon="13.0234533"><ele>580.3333333333333</ele><time>2026-04-20T09:22:03.316Z</time></trkpt><trkpt lat="42.09474" lon="13.023415"><ele>579.6666666666666</ele><time>2026-04-20T09:22:04.317Z</time></trkpt><trkpt lat="42.09455" lon="13.02338"><ele>579.0</ele><time>2026-04-20T09:22:05.316Z</time></trkpt><trkpt lat="42.094375" lon="13.02333"><ele>579.3333333333334</ele><time>2026-04-20T09:22:06.317Z</time></trkpt><trkpt lat="42.0942033" lon="13.0232417"><ele>579.6666666666667</ele><time>2026-04-20T09:22:07.317Z</time></trkpt><trkpt lat="42.09403" lon="13.0231183"><ele>580.0</ele><time>2026-04-20T09:22:08.316Z</time></trkpt><trkpt lat="42.093855" lon="13.0229817"><ele>579.3333333333334</ele><time>2026-04-20T09:22:09.317Z</time></trkpt><trkpt lat="42.093675" lon="13.0228567"><ele>578.6666666666666</ele><time>2026-04-20T09:22:10.317Z</time></trkpt><trkpt lat="42.0934983" lon="13.0227567"><ele>578.0</ele><time>2026-04-20T09:22:11.317Z</time></trkpt><trkpt lat="42.093335" lon="13.022675"><ele>577.6666666666666</ele><time>2026-04-20T09:22:12.317Z</time></trkpt><trkpt lat="42.093185" lon="13.0225933"><ele>577.3333333333334</ele><time>2026-04-20T09:22:13.316Z</time></trkpt><trkpt lat="42.0930467" lon="13.022525"><ele>577.0</ele><time>2026-04-20T09:22:14.316Z</time></trkpt><trkpt lat="42.0929" lon="13.0224667"><ele>577.0</ele><time>2026-04-20T09:22:15.317Z</time></trkpt><trkpt lat="42.092735" lon="13.0224317"><ele>577.0</ele><time>2026-04-20T09:22:16.317Z</time></trkpt><trkpt lat="42.09255" lon="13.0224283"><ele>577.0</ele><time>2026-04-20T09:22:17.318Z</time></trkpt><trkpt lat="42.0923583" lon="13.0224333"><ele>579.0</ele><time>2026-04-20T09:22:18.317Z</time></trkpt><trkpt lat="42.0921617" lon="13.0224217"><ele>581.0</ele><time>2026-04-20T09:22:19.318Z</time></trkpt><trkpt lat="42.0919617" lon="13.02237"><ele>583.0</ele><time>2026-04-20T09:22:20.317Z</time></trkpt><trkpt lat="42.091755" lon="13.0222933"><ele>581.6666666666667</ele><time>2026-04-20T09:22:21.317Z</time></trkpt><trkpt lat="42.0915567" lon="13.0222033"><ele>580.3333333333334</ele><time>2026-04-20T09:22:22.317Z</time></trkpt><trkpt lat="42.0913683" lon="13.0220983"><ele>579.0</ele><time>2026-04-20T09:22:23.315Z</time></trkpt><trkpt lat="42.091185" lon="13.0219917"><ele>579.0</ele><time>2026-04-20T09:22:24.317Z</time></trkpt><trkpt lat="42.09101" lon="13.0219033"><ele>579.0</ele><time>2026-04-20T09:22:25.317Z</time></trkpt><trkpt lat="42.0908283" lon="13.0218367"><ele>579.0</ele><time>2026-04-20T09:22:26.317Z</time></trkpt><trkpt lat="42.0906467" lon="13.0218033"><ele>579.0</ele><time>2026-04-20T09:22:27.316Z</time></trkpt><trkpt lat="42.0904733" lon="13.0217783"><ele>579.0</ele><time>2026-04-20T09:22:28.316Z</time></trkpt><trkpt lat="42.090315" lon="13.021725"><ele>579.0</ele><time>2026-04-20T09:22:29.317Z</time></trkpt><trkpt lat="42.090155" lon="13.02164"><ele>579.6666666666666</ele><time>2026-04-20T09:22:30.318Z</time></trkpt><trkpt lat="42.0899917" lon="13.0215317"><ele>580.3333333333333</ele><time>2026-04-20T09:22:31.317Z</time></trkpt><trkpt lat="42.0898117" lon="13.0214083"><ele>581.0</ele><time>2026-04-20T09:22:32.317Z</time></trkpt><trkpt lat="42.08963" lon="13.0212883"><ele>581.0</ele><time>2026-04-20T09:22:33.318Z</time></trkpt><trkpt lat="42.0894383" lon="13.0211683"><ele>581.0</ele><time>2026-04-20T09:22:34.317Z</time></trkpt><trkpt lat="42.089245" lon="13.0210433"><ele>581.0</ele><time>2026-04-20T09:22:35.316Z</time></trkpt><trkpt lat="42.089055" lon="13.0209283"><ele>581.0</ele><time>2026-04-20T09:22:36.317Z</time></trkpt><trkpt lat="42.0888717" lon="13.0208283"><ele>581.0</ele><time>2026-04-20T09:22:37.317Z</time></trkpt><trkpt lat="42.08868" lon="13.020755"><ele>581.0</ele><time>2026-04-20T09:22:38.316Z</time></trkpt><trkpt lat="42.0884833" lon="13.0206983"><ele>581.0</ele><time>2026-04-20T09:22:39.316Z</time></trkpt><trkpt lat="42.0882767" lon="13.02065"><ele>581.0</ele><time>2026-04-20T09:22:40.317Z</time></trkpt><trkpt lat="42.0880517" lon="13.020615"><ele>581.0</ele><time>2026-04-20T09:22:41.316Z</time></trkpt><trkpt lat="42.0878183" lon="13.02058"><ele>579.5</ele><time>2026-04-20T09:22:42.317Z</time></trkpt><trkpt lat="42.0875783" lon="13.0205483"><ele>578.0</ele><time>2026-04-20T09:22:43.317Z</time></trkpt><trkpt lat="42.0873333" lon="13.0205183"><ele>577.5</ele><time>2026-04-20T09:22:44.316Z</time></trkpt><trkpt lat="42.08709" lon="13.02048"><ele>577.0</ele><time>2026-04-20T09:22:45.317Z</time></trkpt><trkpt lat="42.086855" lon="13.0204417"><ele>577.0</ele><time>2026-04-20T09:22:46.318Z</time></trkpt><trkpt lat="42.086625" lon="13.0204033"><ele>577.0</ele><time>2026-04-20T09:22:47.317Z</time></trkpt><trkpt lat="42.08639" lon="13.0203717"><ele>576.3333333333334</ele><time>2026-04-20T09:22:48.317Z</time></trkpt><trkpt lat="42.086165" lon="13.02035"><ele>575.6666666666666</ele><time>2026-04-20T09:22:49.317Z</time></trkpt><trkpt lat="42.0859533" lon="13.0203333"><ele>575.0</ele><time>2026-04-20T09:22:50.316Z</time></trkpt><trkpt lat="42.0857433" lon="13.0203183"><ele>576.3333333333333</ele><time>2026-04-20T09:22:51.317Z</time></trkpt><trkpt lat="42.08554" lon="13.0203067"><ele>577.6666666666666</ele><time>2026-04-20T09:22:52.317Z</time></trkpt><trkpt lat="42.085355" lon="13.02029"><ele>579.0</ele><time>2026-04-20T09:22:53.316Z</time></trkpt><trkpt lat="42.085175" lon="13.0202683"><ele>579.0</ele><time>2026-04-20T09:22:54.317Z</time></trkpt><trkpt lat="42.0849933" lon="13.0202283"><ele>579.0</ele><time>2026-04-20T09:22:55.317Z</time></trkpt><trkpt lat="42.0848133" lon="13.0201783"><ele>579.0</ele><time>2026-04-20T09:22:56.318Z</time></trkpt><trkpt lat="42.0846283" lon="13.02015"><ele>581.3333333333334</ele><time>2026-04-20T09:22:57.318Z</time></trkpt><trkpt lat="42.084435" lon="13.020165"><ele>583.6666666666667</ele><time>2026-04-20T09:22:58.317Z</time></trkpt><trkpt lat="42.0842317" lon="13.0202167"><ele>586.0</ele><time>2026-04-20T09:22:59.317Z</time></trkpt><trkpt lat="42.0840283" lon="13.0202883"><ele>586.0</ele><time>2026-04-20T09:23:00.318Z</time></trkpt><trkpt lat="42.083825" lon="13.0203533"><ele>586.0</ele><time>2026-04-20T09:23:01.317Z</time></trkpt><trkpt lat="42.08362" lon="13.0204033"><ele>586.0</ele><time>2026-04-20T09:23:02.318Z</time></trkpt><trkpt lat="42.083425" lon="13.020435"><ele>584.0</ele><time>2026-04-20T09:23:03.318Z</time></trkpt><trkpt lat="42.0832517" lon="13.020445"><ele>582.0</ele><time>2026-04-20T09:23:04.318Z</time></trkpt><trkpt lat="42.0831067" lon="13.020425"><ele>580.0</ele><time>2026-04-20T09:23:05.318Z</time></trkpt><trkpt lat="42.0829717" lon="13.0203617"><ele>580.0</ele><time>2026-04-20T09:23:06.317Z</time></trkpt><trkpt lat="42.0828333" lon="13.020255"><ele>580.0</ele><time>2026-04-20T09:23:07.317Z</time></trkpt><trkpt lat="42.08269" lon="13.0201167"><ele>580.0</ele><time>2026-04-20T09:23:08.319Z</time></trkpt><trkpt lat="42.0825383" lon="13.0199733"><ele>580.0</ele><time>2026-04-20T09:23:09.318Z</time></trkpt><trkpt lat="42.0823733" lon="13.019825"><ele>580.0</ele><time>2026-04-20T09:23:10.319Z</time></trkpt><trkpt lat="42.0821867" lon="13.0196867"><ele>580.0</ele><time>2026-04-20T09:23:11.317Z</time></trkpt><trkpt lat="42.0819933" lon="13.0195433"><ele>580.0</ele><time>2026-04-20T09:23:12.318Z</time></trkpt><trkpt lat="42.0817967" lon="13.01937"><ele>580.0</ele><time>2026-04-20T09:23:13.317Z</time></trkpt><trkpt lat="42.0815933" lon="13.0191733"><ele>581.3333333333334</ele><time>2026-04-20T09:23:14.317Z</time></trkpt><trkpt lat="42.0814067" lon="13.0189783"><ele>582.6666666666666</ele><time>2026-04-20T09:23:15.318Z</time></trkpt><trkpt lat="42.0812483" lon="13.0187883"><ele>584.0</ele><time>2026-04-20T09:23:16.317Z</time></trkpt><trkpt lat="42.0811183" lon="13.0186117"><ele>584.0</ele><time>2026-04-20T09:23:17.317Z</time></trkpt><trkpt lat="42.0810033" lon="13.0184733"><ele>584.0</ele><time>2026-04-20T09:23:18.317Z</time></trkpt><trkpt lat="42.0808867" lon="13.0183833"><ele>584.0</ele><time>2026-04-20T09:23:19.318Z</time></trkpt><trkpt lat="42.0807517" lon="13.0183383"><ele>584.0</ele><time>2026-04-20T09:23:20.316Z</time></trkpt><trkpt lat="42.0805933" lon="13.0183067"><ele>585.3333333333333</ele><time>2026-04-20T09:23:21.317Z</time></trkpt><trkpt lat="42.0804167" lon="13.01826"><ele>586.6666666666666</ele><time>2026-04-20T09:23:22.318Z</time></trkpt><trkpt lat="42.08023" lon="13.0181967"><ele>588.0</ele><time>2026-04-20T09:23:23.316Z</time></trkpt><trkpt lat="42.0800567" lon="13.01812"><ele>586.3333333333334</ele><time>2026-04-20T09:23:24.318Z</time></trkpt><trkpt lat="42.07989" lon="13.0180617"><ele>584.6666666666667</ele><time>2026-04-20T09:23:25.317Z</time></trkpt><trkpt lat="42.07972" lon="13.0180517"><ele>583.0</ele><time>2026-04-20T09:23:26.318Z</time></trkpt><trkpt lat="42.0795317" lon="13.0180783"><ele>583.0</ele><time>2026-04-20T09:23:27.318Z</time></trkpt><trkpt lat="42.07933" lon="13.0181183"><ele>583.0</ele><time>2026-04-20T09:23:28.317Z</time></trkpt><trkpt lat="42.0791317" lon="13.0181567"><ele>583.0</ele><time>2026-04-20T09:23:29.318Z</time></trkpt><trkpt lat="42.078945" lon="13.0181783"><ele>582.75</ele><time>2026-04-20T09:23:30.318Z</time></trkpt><trkpt lat="42.0787933" lon="13.01817"><ele>582.5</ele><time>2026-04-20T09:23:31.318Z</time></trkpt><trkpt lat="42.0786567" lon="13.0181267"><ele>582.25</ele><time>2026-04-20T09:23:32.317Z</time></trkpt><trkpt lat="42.07853" lon="13.018035"><ele>582.0</ele><time>2026-04-20T09:23:33.317Z</time></trkpt><trkpt lat="42.0784017" lon="13.0179"><ele>581.3333333333334</ele><time>2026-04-20T09:23:34.318Z</time></trkpt><trkpt lat="42.0782583" lon="13.0177583"><ele>580.6666666666667</ele><time>2026-04-20T09:23:35.318Z</time></trkpt><trkpt lat="42.078105" lon="13.0176217"><ele>580.0</ele><time>2026-04-20T09:23:36.318Z</time></trkpt><trkpt lat="42.0779517" lon="13.0174867"><ele>581.0</ele><time>2026-04-20T09:23:37.317Z</time></trkpt><trkpt lat="42.0778167" lon="13.017325"><ele>582.0</ele><time>2026-04-20T09:23:38.318Z</time></trkpt><trkpt lat="42.07769" lon="13.0171267"><ele>583.0</ele><time>2026-04-20T09:23:39.319Z</time></trkpt><trkpt lat="42.07756" lon="13.01691"><ele>583.0</ele><time>2026-04-20T09:23:40.318Z</time></trkpt><trkpt lat="42.0774433" lon="13.016705"><ele>583.0</ele><time>2026-04-20T09:23:41.317Z</time></trkpt><trkpt lat="42.0773333" lon="13.0165467"><ele>583.0</ele><time>2026-04-20T09:23:42.316Z</time></trkpt><trkpt lat="42.0772233" lon="13.016445"><ele>583.75</ele><time>2026-04-20T09:23:43.318Z</time></trkpt><trkpt lat="42.0771067" lon="13.0163817"><ele>584.5</ele><time>2026-04-20T09:23:44.316Z</time></trkpt><trkpt lat="42.076975" lon="13.0163817"><ele>585.25</ele><time>2026-04-20T09:23:45.318Z</time></trkpt><trkpt lat="42.0768383" lon="13.0164367"><ele>586.0</ele><time>2026-04-20T09:23:46.317Z</time></trkpt><trkpt lat="42.0766917" lon="13.0165383"><ele>586.0</ele><time>2026-04-20T09:23:47.318Z</time></trkpt><trkpt lat="42.076545" lon="13.01664"><ele>586.0</ele><time>2026-04-20T09:23:48.317Z</time></trkpt><trkpt lat="42.0764033" lon="13.016715"><ele>586.0</ele><time>2026-04-20T09:23:49.318Z</time></trkpt><trkpt lat="42.0762517" lon="13.0167367"><ele>586.0</ele><time>2026-04-20T09:23:50.317Z</time></trkpt><trkpt lat="42.07608" lon="13.0167133"><ele>586.0</ele><time>2026-04-20T09:23:51.318Z</time></trkpt><trkpt lat="42.0759067" lon="13.0166917"><ele>586.0</ele><time>2026-04-20T09:23:52.317Z</time></trkpt><trkpt lat="42.0757367" lon="13.0166867"><ele>587.0</ele><time>2026-04-20T09:23:53.318Z</time></trkpt><trkpt lat="42.0755817" lon="13.0167117"><ele>588.0</ele><time>2026-04-20T09:23:54.318Z</time></trkpt><trkpt lat="42.0754483" lon="13.0167683"><ele>589.0</ele><time>2026-04-20T09:23:55.317Z</time></trkpt><trkpt lat="42.075335" lon="13.0168617"><ele>590.0</ele><time>2026-04-20T09:23:56.317Z</time></trkpt><trkpt lat="42.075245" lon="13.0169867"><ele>590.0</ele><time>2026-04-20T09:23:57.318Z</time></trkpt><trkpt lat="42.0751667" lon="13.0171583"><ele>590.0</ele><time>2026-04-20T09:23:58.318Z</time></trkpt><trkpt lat="42.07508" lon="13.0173583"><ele>590.0</ele><time>2026-04-20T09:23:59.317Z</time></trkpt><trkpt lat="42.07498" lon="13.01757"><ele>593.0</ele><time>2026-04-20T09:24:00.318Z</time></trkpt><trkpt lat="42.0748583" lon="13.0177783"><ele>596.0</ele><time>2026-04-20T09:24:01.317Z</time></trkpt><trkpt lat="42.0747317" lon="13.017965"><ele>599.0</ele><time>2026-04-20T09:24:02.318Z</time></trkpt><trkpt lat="42.0745933" lon="13.0181167"><ele>599.0</ele><time>2026-04-20T09:24:03.317Z</time></trkpt><trkpt lat="42.0744417" lon="13.018245"><ele>599.0</ele><time>2026-04-20T09:24:04.318Z</time></trkpt><trkpt lat="42.0742683" lon="13.0183317"><ele>599.0</ele><time>2026-04-20T09:24:05.318Z</time></trkpt><trkpt lat="42.07408" lon="13.0183783"><ele>594.3333333333333</ele><time>2026-04-20T09:24:06.317Z</time></trkpt><trkpt lat="42.0738883" lon="13.01839"><ele>589.6666666666666</ele><time>2026-04-20T09:24:07.317Z</time></trkpt><trkpt lat="42.0736967" lon="13.0183733"><ele>585.0</ele><time>2026-04-20T09:24:08.318Z</time></trkpt><trkpt lat="42.0735167" lon="13.0183383"><ele>587.0</ele><time>2026-04-20T09:24:09.317Z</time></trkpt><trkpt lat="42.0733633" lon="13.0183167"><ele>589.0</ele><time>2026-04-20T09:24:10.317Z</time></trkpt><trkpt lat="42.0732267" lon="13.0183333"><ele>591.0</ele><time>2026-04-20T09:24:11.317Z</time></trkpt><trkpt lat="42.073105" lon="13.01841"><ele>593.0</ele><time>2026-04-20T09:24:12.318Z</time></trkpt><trkpt lat="42.0729983" lon="13.0185417"><ele>597.0</ele><time>2026-04-20T09:24:13.317Z</time></trkpt><trkpt lat="42.0729067" lon="13.018715"><ele>601.0</ele><time>2026-04-20T09:24:14.318Z</time></trkpt><trkpt lat="42.0728" lon="13.0189067"><ele>605.0</ele><time>2026-04-20T09:24:15.318Z</time></trkpt><trkpt lat="42.0726683" lon="13.019085"><ele>604.3333333333333</ele><time>2026-04-20T09:24:16.317Z</time></trkpt><trkpt lat="42.07251" lon="13.019255"><ele>603.6666666666666</ele><time>2026-04-20T09:24:17.317Z</time></trkpt><trkpt lat="42.0723417" lon="13.0194333"><ele>603.0</ele><time>2026-04-20T09:24:18.317Z</time></trkpt><trkpt lat="42.0721633" lon="13.0196"><ele>603.0</ele><time>2026-04-20T09:24:19.317Z</time></trkpt><trkpt lat="42.0719767" lon="13.01974"><ele>603.0</ele><time>2026-04-20T09:24:20.318Z</time></trkpt><trkpt lat="42.0717983" lon="13.0198533"><ele>603.0</ele><time>2026-04-20T09:24:21.318Z</time></trkpt><trkpt lat="42.07163" lon="13.0199217"><ele>601.0</ele><time>2026-04-20T09:24:22.319Z</time></trkpt><trkpt lat="42.07147" lon="13.0199367"><ele>599.0</ele><time>2026-04-20T09:24:23.316Z</time></trkpt><trkpt lat="42.0712933" lon="13.0199"><ele>597.0</ele><time>2026-04-20T09:24:24.318Z</time></trkpt><trkpt lat="42.071095" lon="13.0198333"><ele>597.0</ele><time>2026-04-20T09:24:25.317Z</time></trkpt><trkpt lat="42.0709033" lon="13.0197567"><ele>597.0</ele><time>2026-04-20T09:24:26.317Z</time></trkpt><trkpt lat="42.0707333" lon="13.0196733"><ele>597.0</ele><time>2026-04-20T09:24:27.318Z</time></trkpt><trkpt lat="42.07057" lon="13.0195667"><ele>596.0</ele><time>2026-04-20T09:24:28.316Z</time></trkpt><trkpt lat="42.0704167" lon="13.019425"><ele>595.0</ele><time>2026-04-20T09:24:29.317Z</time></trkpt><trkpt lat="42.07027" lon="13.0192467"><ele>594.0</ele><time>2026-04-20T09:24:30.318Z</time></trkpt><trkpt lat="42.07013" lon="13.0190333"><ele>594.0</ele><time>2026-04-20T09:24:31.318Z</time></trkpt><trkpt lat="42.06998" lon="13.0187967"><ele>594.0</ele><time>2026-04-20T09:24:32.317Z</time></trkpt><trkpt lat="42.06983" lon="13.018545"><ele>592.6666666666666</ele><time>2026-04-20T09:24:33.318Z</time></trkpt><trkpt lat="42.0696883" lon="13.0183017"><ele>591.3333333333333</ele><time>2026-04-20T09:24:34.317Z</time></trkpt><trkpt lat="42.0695583" lon="13.0180717"><ele>590.0</ele><time>2026-04-20T09:24:35.317Z</time></trkpt><trkpt lat="42.06944" lon="13.017855"><ele>590.0</ele><time>2026-04-20T09:24:36.317Z</time></trkpt><trkpt lat="42.0693283" lon="13.017655"><ele>590.0</ele><time>2026-04-20T09:24:37.317Z</time></trkpt><trkpt lat="42.0692117" lon="13.0174767"><ele>590.0</ele><time>2026-04-20T09:24:38.318Z</time></trkpt><trkpt lat="42.0690767" lon="13.0173267"><ele>591.3333333333333</ele><time>2026-04-20T09:24:39.318Z</time></trkpt><trkpt lat="42.0689267" lon="13.0171933"><ele>592.6666666666666</ele><time>2026-04-20T09:24:40.318Z</time></trkpt><trkpt lat="42.0687483" lon="13.0170867"><ele>594.0</ele><time>2026-04-20T09:24:41.317Z</time></trkpt><trkpt lat="42.0685433" lon="13.017005"><ele>594.0</ele><time>2026-04-20T09:24:42.318Z</time></trkpt><trkpt lat="42.06832" lon="13.0169483"><ele>594.0</ele><time>2026-04-20T09:24:43.318Z</time></trkpt><trkpt lat="42.0681033" lon="13.0168933"><ele>594.0</ele><time>2026-04-20T09:24:44.318Z</time></trkpt><trkpt lat="42.067895" lon="13.0168183"><ele>594.6666666666666</ele><time>2026-04-20T09:24:45.319Z</time></trkpt><trkpt lat="42.0676917" lon="13.0167233"><ele>595.3333333333333</ele><time>2026-04-20T09:24:46.317Z</time></trkpt><trkpt lat="42.0675017" lon="13.01662"><ele>596.0</ele><time>2026-04-20T09:24:47.316Z</time></trkpt><trkpt lat="42.0673133" lon="13.016535"><ele>599.0</ele><time>2026-04-20T09:24:48.317Z</time></trkpt><trkpt lat="42.06711" lon="13.016475"><ele>602.0</ele><time>2026-04-20T09:24:49.316Z</time></trkpt><trkpt lat="42.06689" lon="13.0164417"><ele>605.0</ele><time>2026-04-20T09:24:50.318Z</time></trkpt><trkpt lat="42.0666567" lon="13.0164267"><ele>607.5</ele><time>2026-04-20T09:24:51.318Z</time></trkpt><trkpt lat="42.0664233" lon="13.0164183"><ele>610.0</ele><time>2026-04-20T09:24:52.316Z</time></trkpt><trkpt lat="42.0661933" lon="13.0164083"><ele>610.0</ele><time>2026-04-20T09:24:53.318Z</time></trkpt><trkpt lat="42.06598" lon="13.0164"><ele>610.0</ele><time>2026-04-20T09:24:54.318Z</time></trkpt><trkpt lat="42.06578" lon="13.0163933"><ele>610.0</ele><time>2026-04-20T09:24:55.318Z</time></trkpt><trkpt lat="42.06559" lon="13.016395"><ele>613.3333333333334</ele><time>2026-04-20T09:24:56.316Z</time></trkpt><trkpt lat="42.0654033" lon="13.0164167"><ele>616.6666666666666</ele><time>2026-04-20T09:24:57.317Z</time></trkpt><trkpt lat="42.065235" lon="13.016445"><ele>620.0</ele><time>2026-04-20T09:24:58.318Z</time></trkpt><trkpt lat="42.06508" lon="13.0164467"><ele>617.3333333333333</ele><time>2026-04-20T09:24:59.317Z</time></trkpt><trkpt lat="42.064935" lon="13.0164133"><ele>614.6666666666666</ele><time>2026-04-20T09:25:00.317Z</time></trkpt><trkpt lat="42.064785" lon="13.016355"><ele>612.0</ele><time>2026-04-20T09:25:01.317Z</time></trkpt><trkpt lat="42.064625" lon="13.0162783"><ele>612.0</ele><time>2026-04-20T09:25:02.318Z</time></trkpt><trkpt lat="42.0644533" lon="13.016185"><ele>612.0</ele><time>2026-04-20T09:25:03.318Z</time></trkpt><trkpt lat="42.0642683" lon="13.016085"><ele>612.0</ele><time>2026-04-20T09:25:04.318Z</time></trkpt><trkpt lat="42.06407" lon="13.015985"><ele>610.3333333333334</ele><time>2026-04-20T09:25:05.317Z</time></trkpt><trkpt lat="42.06387" lon="13.0158917"><ele>608.6666666666667</ele><time>2026-04-20T09:25:06.318Z</time></trkpt><trkpt lat="42.0636767" lon="13.01581"><ele>607.0</ele><time>2026-04-20T09:25:07.319Z</time></trkpt><trkpt lat="42.0634883" lon="13.0157383"><ele>608.3333333333334</ele><time>2026-04-20T09:25:08.318Z</time></trkpt><trkpt lat="42.063305" lon="13.0156733"><ele>609.6666666666666</ele><time>2026-04-20T09:25:09.318Z</time></trkpt><trkpt lat="42.0631367" lon="13.0155983"><ele>611.0</ele><time>2026-04-20T09:25:10.317Z</time></trkpt><trkpt lat="42.0629817" lon="13.0154967"><ele>611.0</ele><time>2026-04-20T09:25:11.317Z</time></trkpt><trkpt lat="42.06283" lon="13.0153467"><ele>611.0</ele><time>2026-04-20T09:25:12.318Z</time></trkpt><trkpt lat="42.0626783" lon="13.0151717"><ele>611.0</ele><time>2026-04-20T09:25:13.316Z</time></trkpt><trkpt lat="42.0625417" lon="13.0150133"><ele>612.5</ele><time>2026-04-20T09:25:14.318Z</time></trkpt><trkpt lat="42.06242" lon="13.0148917"><ele>614.0</ele><time>2026-04-20T09:25:15.318Z</time></trkpt><trkpt lat="42.06231" lon="13.01482"><ele>615.5</ele><time>2026-04-20T09:25:16.316Z</time></trkpt><trkpt lat="42.062205" lon="13.0148033"><ele>617.0</ele><time>2026-04-20T09:25:17.318Z</time></trkpt><trkpt lat="42.0621083" lon="13.01485"><ele>617.0</ele><time>2026-04-20T09:25:18.317Z</time></trkpt><trkpt lat="42.0620167" lon="13.0149517"><ele>617.0</ele><time>2026-04-20T09:25:19.317Z</time></trkpt><trkpt lat="42.0619117" lon="13.015075"><ele>617.0</ele><time>2026-04-20T09:25:20.317Z</time></trkpt><trkpt lat="42.0617967" lon="13.0152033"><ele>617.0</ele><time>2026-04-20T09:25:21.318Z</time></trkpt><trkpt lat="42.0616867" lon="13.015325"><ele>614.2</ele><time>2026-04-20T09:25:22.319Z</time></trkpt><trkpt lat="42.0615917" lon="13.0154283"><ele>611.4000000000001</ele><time>2026-04-20T09:25:23.318Z</time></trkpt><trkpt lat="42.061505" lon="13.0155117"><ele>608.5999999999999</ele><time>2026-04-20T09:25:24.317Z</time></trkpt><trkpt lat="42.0614233" lon="13.015565"><ele>605.8</ele><time>2026-04-20T09:25:25.317Z</time></trkpt><trkpt lat="42.0613383" lon="13.015585"><ele>603.0</ele><time>2026-04-20T09:25:26.318Z</time></trkpt><trkpt lat="42.06125" lon="13.0155733"><ele>603.0</ele><time>2026-04-20T09:25:27.317Z</time></trkpt><trkpt lat="42.06116" lon="13.015505"><ele>603.0</ele><time>2026-04-20T09:25:28.318Z</time></trkpt><trkpt lat="42.06108" lon="13.015395"><ele>603.0</ele><time>2026-04-20T09:25:29.317Z</time></trkpt><trkpt lat="42.06101" lon="13.0152933"><ele>603.0</ele><time>2026-04-20T09:25:30.317Z</time></trkpt><trkpt lat="42.06095" lon="13.01521"><ele>603.0</ele><time>2026-04-20T09:25:31.317Z</time></trkpt><trkpt lat="42.0608917" lon="13.015155"><ele>603.0</ele><time>2026-04-20T09:25:32.318Z</time></trkpt><trkpt lat="42.0608017" lon="13.015105"><ele>603.0</ele><time>2026-04-20T09:25:34.317Z</time></trkpt><trkpt lat="42.0607233" lon="13.0151133"><ele>603.0</ele><time>2026-04-20T09:25:37.318Z</time></trkpt><trkpt lat="42.0606667" lon="13.0152283"><ele>603.0</ele><time>2026-04-20T09:25:39.317Z</time></trkpt><trkpt lat="42.06064" lon="13.01534"><ele>603.0</ele><time>2026-04-20T09:25:40.316Z</time></trkpt><trkpt lat="42.060615" lon="13.0154667"><ele>601.8</ele><time>2026-04-20T09:25:41.316Z</time></trkpt><trkpt lat="42.060585" lon="13.0156033"><ele>600.5999999999999</ele><time>2026-04-20T09:25:42.317Z</time></trkpt><trkpt lat="42.06055" lon="13.01575"><ele>599.4000000000001</ele><time>2026-04-20T09:25:43.316Z</time></trkpt><trkpt lat="42.06051" lon="13.015895"><ele>598.2</ele><time>2026-04-20T09:25:44.317Z</time></trkpt><trkpt lat="42.0604567" lon="13.0160283"><ele>597.0</ele><time>2026-04-20T09:25:45.316Z</time></trkpt><trkpt lat="42.0603883" lon="13.0161283"><ele>597.0</ele><time>2026-04-20T09:25:46.317Z</time></trkpt><trkpt lat="42.0603083" lon="13.0161833"><ele>597.0</ele><time>2026-04-20T09:25:47.317Z</time></trkpt><trkpt lat="42.0602183" lon="13.0161983"><ele>597.0</ele><time>2026-04-20T09:25:48.318Z</time></trkpt><trkpt lat="42.0601267" lon="13.01616"><ele>597.0</ele><time>2026-04-20T09:25:49.317Z</time></trkpt><trkpt lat="42.060045" lon="13.0160617"><ele>597.0</ele><time>2026-04-20T09:25:50.317Z</time></trkpt><trkpt lat="42.060015" lon="13.0159117"><ele>596.3333333333334</ele><time>2026-04-20T09:25:51.318Z</time></trkpt><trkpt lat="42.0600317" lon="13.0156617"><ele>595.6666666666667</ele><time>2026-04-20T09:25:52.316Z</time></trkpt><trkpt lat="42.0600333" lon="13.0154317"><ele>595.0</ele><time>2026-04-20T09:25:53.316Z</time></trkpt><trkpt lat="42.06003" lon="13.0152"><ele>595.0</ele><time>2026-04-20T09:25:54.317Z</time></trkpt><trkpt lat="42.0599983" lon="13.0149917"><ele>595.0</ele><time>2026-04-20T09:25:55.316Z</time></trkpt><trkpt lat="42.0599283" lon="13.0148117"><ele>595.0</ele><time>2026-04-20T09:25:56.317Z</time></trkpt><trkpt lat="42.0598167" lon="13.0146867"><ele>595.0</ele><time>2026-04-20T09:25:57.318Z</time></trkpt><trkpt lat="42.0596717" lon="13.0146033"><ele>595.0</ele><time>2026-04-20T09:25:58.316Z</time></trkpt><trkpt lat="42.0595" lon="13.0145483"><ele>595.0</ele><time>2026-04-20T09:25:59.317Z</time></trkpt><trkpt lat="42.05931" lon="13.0145217"><ele>594.3333333333334</ele><time>2026-04-20T09:26:00.317Z</time></trkpt><trkpt lat="42.0591017" lon="13.0145233"><ele>593.6666666666666</ele><time>2026-04-20T09:26:01.317Z</time></trkpt><trkpt lat="42.0588883" lon="13.014545"><ele>593.0</ele><time>2026-04-20T09:26:02.318Z</time></trkpt><trkpt lat="42.0586833" lon="13.014565"><ele>593.0</ele><time>2026-04-20T09:26:03.318Z</time></trkpt><trkpt lat="42.0584867" lon="13.014565"><ele>593.0</ele><time>2026-04-20T09:26:04.316Z</time></trkpt><trkpt lat="42.0582933" lon="13.0145433"><ele>593.0</ele><time>2026-04-20T09:26:05.318Z</time></trkpt><trkpt lat="42.05811" lon="13.0144983"><ele>589.6666666666666</ele><time>2026-04-20T09:26:06.318Z</time></trkpt><trkpt lat="42.0579417" lon="13.0144333"><ele>586.3333333333334</ele><time>2026-04-20T09:26:07.317Z</time></trkpt><trkpt lat="42.05779" lon="13.0143683"><ele>583.0</ele><time>2026-04-20T09:26:08.318Z</time></trkpt><trkpt lat="42.0576567" lon="13.014325"><ele>583.0</ele><time>2026-04-20T09:26:09.319Z</time></trkpt><trkpt lat="42.0575283" lon="13.0143317"><ele>583.0</ele><time>2026-04-20T09:26:10.317Z</time></trkpt><trkpt lat="42.057405" lon="13.014385"><ele>583.0</ele><time>2026-04-20T09:26:11.317Z</time></trkpt><trkpt lat="42.0572867" lon="13.0144917"><ele>583.0</ele><time>2026-04-20T09:26:12.317Z</time></trkpt><trkpt lat="42.0571983" lon="13.0146383"><ele>581.4</ele><time>2026-04-20T09:26:13.318Z</time></trkpt><trkpt lat="42.0571367" lon="13.0147783"><ele>579.8</ele><time>2026-04-20T09:26:14.317Z</time></trkpt><trkpt lat="42.0570883" lon="13.0148967"><ele>578.2</ele><time>2026-04-20T09:26:15.317Z</time></trkpt><trkpt lat="42.0570417" lon="13.0149983"><ele>576.6</ele><time>2026-04-20T09:26:16.317Z</time></trkpt><trkpt lat="42.0569917" lon="13.015095"><ele>575.0</ele><time>2026-04-20T09:26:17.317Z</time></trkpt><trkpt lat="42.0569333" lon="13.0151833"><ele>575.0</ele><time>2026-04-20T09:26:18.317Z</time></trkpt><trkpt lat="42.0568583" lon="13.0152617"><ele>575.0</ele><time>2026-04-20T09:26:19.317Z</time></trkpt><trkpt lat="42.0567717" lon="13.0153267"><ele>575.0</ele><time>2026-04-20T09:26:20.317Z</time></trkpt><trkpt lat="42.0566683" lon="13.0153783"><ele>575.0</ele><time>2026-04-20T09:26:21.316Z</time></trkpt><trkpt lat="42.05654" lon="13.0154117"><ele>575.0</ele><time>2026-04-20T09:26:22.317Z</time></trkpt><trkpt lat="42.0563983" lon="13.0154283"><ele>573.6666666666666</ele><time>2026-04-20T09:26:23.318Z</time></trkpt><trkpt lat="42.0562417" lon="13.0154483"><ele>572.3333333333334</ele><time>2026-04-20T09:26:24.318Z</time></trkpt><trkpt lat="42.0560683" lon="13.015475"><ele>571.0</ele><time>2026-04-20T09:26:25.317Z</time></trkpt><trkpt lat="42.05588" lon="13.0155"><ele>570.6666666666667</ele><time>2026-04-20T09:26:26.317Z</time></trkpt><trkpt lat="42.055675" lon="13.0155217"><ele>570.3333333333334</ele><time>2026-04-20T09:26:27.317Z</time></trkpt><trkpt lat="42.05546" lon="13.015525"><ele>570.0</ele><time>2026-04-20T09:26:28.317Z</time></trkpt><trkpt lat="42.0552417" lon="13.0155083"><ele>570.0</ele><time>2026-04-20T09:26:29.317Z</time></trkpt><trkpt lat="42.0550117" lon="13.0154683"><ele>570.0</ele><time>2026-04-20T09:26:30.317Z</time></trkpt><trkpt lat="42.0547733" lon="13.0154"><ele>570.5</ele><time>2026-04-20T09:26:31.316Z</time></trkpt><trkpt lat="42.054535" lon="13.01531"><ele>571.0</ele><time>2026-04-20T09:26:32.316Z</time></trkpt><trkpt lat="42.0542967" lon="13.0152083"><ele>570.0</ele><time>2026-04-20T09:26:33.316Z</time></trkpt><trkpt lat="42.054055" lon="13.01509"><ele>569.0</ele><time>2026-04-20T09:26:34.316Z</time></trkpt><trkpt lat="42.05381" lon="13.01496"><ele>569.0</ele><time>2026-04-20T09:26:35.317Z</time></trkpt><trkpt lat="42.05356" lon="13.0148267"><ele>569.0</ele><time>2026-04-20T09:26:36.318Z</time></trkpt><trkpt lat="42.0533083" lon="13.0146917"><ele>567.5</ele><time>2026-04-20T09:26:37.317Z</time></trkpt><trkpt lat="42.05306" lon="13.01456"><ele>566.0</ele><time>2026-04-20T09:26:38.317Z</time></trkpt><trkpt lat="42.0528183" lon="13.0144333"><ele>566.0</ele><time>2026-04-20T09:26:39.317Z</time></trkpt><trkpt lat="42.0525833" lon="13.0143083"><ele>566.0</ele><time>2026-04-20T09:26:40.316Z</time></trkpt><trkpt lat="42.0523583" lon="13.0141867"><ele>569.6666666666666</ele><time>2026-04-20T09:26:41.317Z</time></trkpt><trkpt lat="42.05215" lon="13.0140683"><ele>573.3333333333334</ele><time>2026-04-20T09:26:42.316Z</time></trkpt><trkpt lat="42.051965" lon="13.0139383"><ele>577.0</ele><time>2026-04-20T09:26:43.318Z</time></trkpt><trkpt lat="42.051795" lon="13.01377"><ele>577.0</ele><time>2026-04-20T09:26:44.316Z</time></trkpt><trkpt lat="42.0516433" lon="13.0135717"><ele>577.0</ele><time>2026-04-20T09:26:45.316Z</time></trkpt><trkpt lat="42.0514983" lon="13.0133733"><ele>577.0</ele><time>2026-04-20T09:26:46.317Z</time></trkpt><trkpt lat="42.0513467" lon="13.0131917"><ele>580.0</ele><time>2026-04-20T09:26:47.317Z</time></trkpt><trkpt lat="42.0511933" lon="13.013045"><ele>583.0</ele><time>2026-04-20T09:26:48.317Z</time></trkpt><trkpt lat="42.0510417" lon="13.0129283"><ele>586.0</ele><time>2026-04-20T09:26:49.317Z</time></trkpt><trkpt lat="42.0508833" lon="13.012855"><ele>584.0</ele><time>2026-04-20T09:26:50.317Z</time></trkpt><trkpt lat="42.05072" lon="13.0127967"><ele>582.0</ele><time>2026-04-20T09:26:51.317Z</time></trkpt><trkpt lat="42.05056" lon="13.0127233"><ele>580.0</ele><time>2026-04-20T09:26:52.316Z</time></trkpt><trkpt lat="42.0504033" lon="13.01265"><ele>580.0</ele><time>2026-04-20T09:26:53.316Z</time></trkpt><trkpt lat="42.050235" lon="13.0126033"><ele>580.0</ele><time>2026-04-20T09:26:54.318Z</time></trkpt><trkpt lat="42.0500617" lon="13.012585"><ele>580.0</ele><time>2026-04-20T09:26:55.317Z</time></trkpt><trkpt lat="42.0499017" lon="13.0125683"><ele>580.25</ele><time>2026-04-20T09:26:56.317Z</time></trkpt><trkpt lat="42.04976" lon="13.0125567"><ele>580.5</ele><time>2026-04-20T09:26:57.317Z</time></trkpt><trkpt lat="42.04962" lon="13.012575"><ele>580.75</ele><time>2026-04-20T09:26:58.317Z</time></trkpt><trkpt lat="42.0494933" lon="13.0126183"><ele>581.0</ele><time>2026-04-20T09:26:59.317Z</time></trkpt><trkpt lat="42.0493783" lon="13.0126833"><ele>581.0</ele><time>2026-04-20T09:27:00.316Z</time></trkpt><trkpt lat="42.0492817" lon="13.0127483"><ele>581.0</ele><time>2026-04-20T09:27:01.317Z</time></trkpt><trkpt lat="42.0492" lon="13.01282"><ele>581.0</ele><time>2026-04-20T09:27:02.317Z</time></trkpt><trkpt lat="42.0491183" lon="13.0128967"><ele>581.0</ele><time>2026-04-20T09:27:03.318Z</time></trkpt><trkpt lat="42.049035" lon="13.012975"><ele>581.0</ele><time>2026-04-20T09:27:04.316Z</time></trkpt><trkpt lat="42.0489467" lon="13.0130517"><ele>581.6</ele><time>2026-04-20T09:27:05.316Z</time></trkpt><trkpt lat="42.0488567" lon="13.0131217"><ele>582.2</ele><time>2026-04-20T09:27:06.317Z</time></trkpt><trkpt lat="42.0487683" lon="13.013175"><ele>582.8</ele><time>2026-04-20T09:27:07.317Z</time></trkpt><trkpt lat="42.0486767" lon="13.01321"><ele>583.4</ele><time>2026-04-20T09:27:08.318Z</time></trkpt><trkpt lat="42.048585" lon="13.0132367"><ele>584.0</ele><time>2026-04-20T09:27:09.316Z</time></trkpt><trkpt lat="42.04849" lon="13.0132667"><ele>584.0</ele><time>2026-04-20T09:27:10.316Z</time></trkpt><trkpt lat="42.0483933" lon="13.0133017"><ele>584.0</ele><time>2026-04-20T09:27:11.317Z</time></trkpt><trkpt lat="42.048295" lon="13.01334"><ele>584.0</ele><time>2026-04-20T09:27:12.317Z</time></trkpt><trkpt lat="42.0482017" lon="13.0133833"><ele>584.0</ele><time>2026-04-20T09:27:13.316Z</time></trkpt><trkpt lat="42.04811" lon="13.013435"><ele>584.0</ele><time>2026-04-20T09:27:14.317Z</time></trkpt><trkpt lat="42.0480167" lon="13.0135"><ele>578.4</ele><time>2026-04-20T09:27:15.318Z</time></trkpt><trkpt lat="42.0479267" lon="13.0135883"><ele>572.8</ele><time>2026-04-20T09:27:16.316Z</time></trkpt><trkpt lat="42.0478433" lon="13.013695"><ele>567.2</ele><time>2026-04-20T09:27:17.316Z</time></trkpt><trkpt lat="42.0477667" lon="13.0138033"><ele>561.6</ele><time>2026-04-20T09:27:18.316Z</time></trkpt><trkpt lat="42.0476967" lon="13.0139017"><ele>556.0</ele><time>2026-04-20T09:27:19.316Z</time></trkpt><trkpt lat="42.0476317" lon="13.01399"><ele>556.0</ele><time>2026-04-20T09:27:20.317Z</time></trkpt><trkpt lat="42.0475717" lon="13.014075"><ele>556.0</ele><time>2026-04-20T09:27:21.317Z</time></trkpt><trkpt lat="42.0475167" lon="13.01416"><ele>556.0</ele><time>2026-04-20T09:27:22.316Z</time></trkpt><trkpt lat="42.0474633" lon="13.014245"><ele>556.0</ele><time>2026-04-20T09:27:23.317Z</time></trkpt><trkpt lat="42.04741" lon="13.0143233"><ele>556.0</ele><time>2026-04-20T09:27:24.317Z</time></trkpt><trkpt lat="42.047355" lon="13.014385"><ele>556.0</ele><time>2026-04-20T09:27:25.317Z</time></trkpt><trkpt lat="42.047255" lon="13.0144317"><ele>554.6</ele><time>2026-04-20T09:27:27.318Z</time></trkpt><trkpt lat="42.04716" lon="13.014395"><ele>553.2</ele><time>2026-04-20T09:27:29.317Z</time></trkpt><trkpt lat="42.04711" lon="13.0143433"><ele>551.8</ele><time>2026-04-20T09:27:30.317Z</time></trkpt><trkpt lat="42.0470567" lon="13.014275"><ele>550.4</ele><time>2026-04-20T09:27:31.317Z</time></trkpt><trkpt lat="42.0469917" lon="13.0141717"><ele>549.0</ele><time>2026-04-20T09:27:32.316Z</time></trkpt><trkpt lat="42.04693" lon="13.0140133"><ele>549.0</ele><time>2026-04-20T09:27:33.317Z</time></trkpt><trkpt lat="42.0468567" lon="13.0138617"><ele>549.0</ele><time>2026-04-20T09:27:34.315Z</time></trkpt><trkpt lat="42.0467733" lon="13.0137283"><ele>549.0</ele><time>2026-04-20T09:27:35.316Z</time></trkpt><trkpt lat="42.04668" lon="13.01362"><ele>549.0</ele><time>2026-04-20T09:27:36.318Z</time></trkpt><trkpt lat="42.0465783" lon="13.0135517"><ele>549.0</ele><time>2026-04-20T09:27:37.316Z</time></trkpt><trkpt lat="42.0464733" lon="13.0135383"><ele>549.0</ele><time>2026-04-20T09:27:38.322Z</time></trkpt><trkpt lat="42.04637" lon="13.0135767"><ele>549.0</ele><time>2026-04-20T09:27:39.317Z</time></trkpt><trkpt lat="42.046275" lon="13.0136567"><ele>549.0</ele><time>2026-04-20T09:27:40.317Z</time></trkpt><trkpt lat="42.0462017" lon="13.0137933"><ele>549.0</ele><time>2026-04-20T09:27:41.317Z</time></trkpt><trkpt lat="42.0461317" lon="13.0139533"><ele>549.0</ele><time>2026-04-20T09:27:42.317Z</time></trkpt><trkpt lat="42.0460733" lon="13.0141017"><ele>549.0</ele><time>2026-04-20T09:27:43.317Z</time></trkpt><trkpt lat="42.04602" lon="13.01423"><ele>549.0</ele><time>2026-04-20T09:27:44.318Z</time></trkpt><trkpt lat="42.0459783" lon="13.0143517"><ele>547.2</ele><time>2026-04-20T09:27:45.318Z</time></trkpt><trkpt lat="42.04594" lon="13.0144833"><ele>545.4</ele><time>2026-04-20T09:27:46.317Z</time></trkpt><trkpt lat="42.0459167" lon="13.014615"><ele>543.6</ele><time>2026-04-20T09:27:47.317Z</time></trkpt><trkpt lat="42.0458983" lon="13.014745"><ele>541.8</ele><time>2026-04-20T09:27:48.317Z</time></trkpt><trkpt lat="42.0458767" lon="13.0148633"><ele>540.0</ele><time>2026-04-20T09:27:49.317Z</time></trkpt><trkpt lat="42.04584" lon="13.014975"><ele>537.6</ele><time>2026-04-20T09:27:50.318Z</time></trkpt><trkpt lat="42.0457883" lon="13.01505"><ele>535.2</ele><time>2026-04-20T09:27:51.318Z</time></trkpt><trkpt lat="42.04573" lon="13.0151133"><ele>532.8</ele><time>2026-04-20T09:27:52.316Z</time></trkpt><trkpt lat="42.04563" lon="13.0151033"><ele>530.4</ele><time>2026-04-20T09:27:53.317Z</time></trkpt><trkpt lat="42.0455317" lon="13.015085"><ele>528.0</ele><time>2026-04-20T09:27:54.318Z</time></trkpt><trkpt lat="42.04543" lon="13.0150633"><ele>528.0</ele><time>2026-04-20T09:27:55.316Z</time></trkpt><trkpt lat="42.0453283" lon="13.0150417"><ele>528.0</ele><time>2026-04-20T09:27:56.318Z</time></trkpt><trkpt lat="42.0452283" lon="13.0149983"><ele>528.0</ele><time>2026-04-20T09:27:57.317Z</time></trkpt><trkpt lat="42.045135" lon="13.01493"><ele>528.0</ele><time>2026-04-20T09:27:58.315Z</time></trkpt><trkpt lat="42.0450433" lon="13.01486"><ele>528.0</ele><time>2026-04-20T09:27:59.317Z</time></trkpt><trkpt lat="42.0449517" lon="13.0148033"><ele>528.1999999999999</ele><time>2026-04-20T09:28:00.317Z</time></trkpt><trkpt lat="42.0448483" lon="13.0147717"><ele>528.4</ele><time>2026-04-20T09:28:01.316Z</time></trkpt><trkpt lat="42.0447367" lon="13.0147583"><ele>528.5999999999999</ele><time>2026-04-20T09:28:02.316Z</time></trkpt><trkpt lat="42.0446217" lon="13.01476"><ele>528.8</ele><time>2026-04-20T09:28:03.318Z</time></trkpt><trkpt lat="42.0445067" lon="13.0147683"><ele>529.0</ele><time>2026-04-20T09:28:04.316Z</time></trkpt><trkpt lat="42.0444" lon="13.0147767"><ele>529.0</ele><time>2026-04-20T09:28:05.317Z</time></trkpt><trkpt lat="42.0442967" lon="13.014785"><ele>529.0</ele><time>2026-04-20T09:28:06.317Z</time></trkpt><trkpt lat="42.0442" lon="13.0147917"><ele>529.0</ele><time>2026-04-20T09:28:07.316Z</time></trkpt><trkpt lat="42.0441067" lon="13.0147867"><ele>529.0</ele><time>2026-04-20T09:28:08.318Z</time></trkpt><trkpt lat="42.0440183" lon="13.0147583"><ele>529.0</ele><time>2026-04-20T09:28:09.317Z</time></trkpt><trkpt lat="42.0439317" lon="13.014705"><ele>528.2</ele><time>2026-04-20T09:28:10.316Z</time></trkpt><trkpt lat="42.0438467" lon="13.0146317"><ele>527.4</ele><time>2026-04-20T09:28:11.316Z</time></trkpt><trkpt lat="42.0437633" lon="13.0145517"><ele>526.6</ele><time>2026-04-20T09:28:12.316Z</time></trkpt><trkpt lat="42.0436783" lon="13.0144767"><ele>525.8</ele><time>2026-04-20T09:28:13.316Z</time></trkpt><trkpt lat="42.0435917" lon="13.014415"><ele>525.0</ele><time>2026-04-20T09:28:14.316Z</time></trkpt><trkpt lat="42.043505" lon="13.0143683"><ele>525.0</ele><time>2026-04-20T09:28:15.317Z</time></trkpt><trkpt lat="42.0434133" lon="13.0143367"><ele>525.0</ele><time>2026-04-20T09:28:16.317Z</time></trkpt><trkpt lat="42.0433117" lon="13.0143117"><ele>525.0</ele><time>2026-04-20T09:28:17.316Z</time></trkpt><trkpt lat="42.043205" lon="13.0142883"><ele>525.0</ele><time>2026-04-20T09:28:18.318Z</time></trkpt><trkpt lat="42.0430917" lon="13.0142683"><ele>525.0</ele><time>2026-04-20T09:28:19.316Z</time></trkpt><trkpt lat="42.0429767" lon="13.014265"><ele>524.0</ele><time>2026-04-20T09:28:20.317Z</time></trkpt><trkpt lat="42.042865" lon="13.0142817"><ele>523.0</ele><time>2026-04-20T09:28:21.316Z</time></trkpt><trkpt lat="42.04276" lon="13.0143117"><ele>522.0</ele><time>2026-04-20T09:28:22.316Z</time></trkpt><trkpt lat="42.0426567" lon="13.0143367"><ele>521.0</ele><time>2026-04-20T09:28:23.317Z</time></trkpt><trkpt lat="42.0425533" lon="13.0143483"><ele>520.0</ele><time>2026-04-20T09:28:24.316Z</time></trkpt><trkpt lat="42.042445" lon="13.0143367"><ele>519.8</ele><time>2026-04-20T09:28:25.317Z</time></trkpt><trkpt lat="42.04234" lon="13.0143017"><ele>519.6</ele><time>2026-04-20T09:28:26.317Z</time></trkpt><trkpt lat="42.0422433" lon="13.01426"><ele>519.4</ele><time>2026-04-20T09:28:27.318Z</time></trkpt><trkpt lat="42.0421433" lon="13.014225"><ele>519.2</ele><time>2026-04-20T09:28:28.317Z</time></trkpt><trkpt lat="42.0420383" lon="13.0142133"><ele>519.0</ele><time>2026-04-20T09:28:29.316Z</time></trkpt><trkpt lat="42.0419367" lon="13.01422"><ele>519.0</ele><time>2026-04-20T09:28:30.316Z</time></trkpt><trkpt lat="42.041835" lon="13.014235"><ele>519.0</ele><time>2026-04-20T09:28:31.316Z</time></trkpt><trkpt lat="42.041735" lon="13.0142533"><ele>519.0</ele><time>2026-04-20T09:28:32.317Z</time></trkpt><trkpt lat="42.0416317" lon="13.01427"><ele>519.0</ele><time>2026-04-20T09:28:33.317Z</time></trkpt><trkpt lat="42.0415333" lon="13.0142983"><ele>519.0</ele><time>2026-04-20T09:28:34.316Z</time></trkpt><trkpt lat="42.04144" lon="13.014335"><ele>521.0</ele><time>2026-04-20T09:28:35.317Z</time></trkpt><trkpt lat="42.0413567" lon="13.0143833"><ele>523.0</ele><time>2026-04-20T09:28:36.316Z</time></trkpt><trkpt lat="42.0412817" lon="13.01444"><ele>525.0</ele><time>2026-04-20T09:28:37.316Z</time></trkpt><trkpt lat="42.0412117" lon="13.014515"><ele>527.0</ele><time>2026-04-20T09:28:38.317Z</time></trkpt><trkpt lat="42.0411517" lon="13.0145933"><ele>529.0</ele><time>2026-04-20T09:28:39.318Z</time></trkpt><trkpt lat="42.0410883" lon="13.01467"><ele>531.0</ele><time>2026-04-20T09:28:40.317Z</time></trkpt><trkpt lat="42.0410233" lon="13.0147467"><ele>531.0</ele><time>2026-04-20T09:28:41.317Z</time></trkpt><trkpt lat="42.040955" lon="13.0148183"><ele>531.0</ele><time>2026-04-20T09:28:42.315Z</time></trkpt><trkpt lat="42.0408833" lon="13.014885"><ele>531.0</ele><time>2026-04-20T09:28:43.316Z</time></trkpt><trkpt lat="42.040805" lon="13.01495"><ele>531.0</ele><time>2026-04-20T09:28:44.316Z</time></trkpt><trkpt lat="42.04072" lon="13.0150067"><ele>531.0</ele><time>2026-04-20T09:28:45.316Z</time></trkpt><trkpt lat="42.0406267" lon="13.015045"><ele>526.8</ele><time>2026-04-20T09:28:46.316Z</time></trkpt><trkpt lat="42.0405317" lon="13.015075"><ele>522.6</ele><time>2026-04-20T09:28:47.315Z</time></trkpt><trkpt lat="42.0404383" lon="13.0151033"><ele>518.4</ele><time>2026-04-20T09:28:48.317Z</time></trkpt><trkpt lat="42.0403517" lon="13.015135"><ele>514.2</ele><time>2026-04-20T09:28:49.317Z</time></trkpt><trkpt lat="42.0402683" lon="13.015175"><ele>510.0</ele><time>2026-04-20T09:28:50.316Z</time></trkpt><trkpt lat="42.0401917" lon="13.0152317"><ele>510.0</ele><time>2026-04-20T09:28:51.316Z</time></trkpt><trkpt lat="42.0401267" lon="13.0153017"><ele>510.0</ele><time>2026-04-20T09:28:52.316Z</time></trkpt><trkpt lat="42.0400633" lon="13.0153717"><ele>510.0</ele><time>2026-04-20T09:28:53.316Z</time></trkpt><trkpt lat="42.04" lon="13.015435"><ele>510.0</ele><time>2026-04-20T09:28:54.318Z</time></trkpt><trkpt lat="42.03993" lon="13.0154883"><ele>510.0</ele><time>2026-04-20T09:28:55.317Z</time></trkpt><trkpt lat="42.0398483" lon="13.0155233"><ele>510.0</ele><time>2026-04-20T09:28:56.318Z</time></trkpt><trkpt lat="42.0397583" lon="13.01554"><ele>507.0</ele><time>2026-04-20T09:28:57.317Z</time></trkpt><trkpt lat="42.03966" lon="13.0155283"><ele>504.0</ele><time>2026-04-20T09:28:58.317Z</time></trkpt><trkpt lat="42.0395683" lon="13.01549"><ele>501.0</ele><time>2026-04-20T09:28:59.317Z</time></trkpt><trkpt lat="42.03949" lon="13.0154367"><ele>498.0</ele><time>2026-04-20T09:29:00.317Z</time></trkpt><trkpt lat="42.0394217" lon="13.0153667"><ele>495.0</ele><time>2026-04-20T09:29:01.317Z</time></trkpt><trkpt lat="42.03937" lon="13.01529"><ele>492.0</ele><time>2026-04-20T09:29:02.317Z</time></trkpt><trkpt lat="42.0393317" lon="13.0152217"><ele>492.0</ele><time>2026-04-20T09:29:03.318Z</time></trkpt><trkpt lat="42.039275" lon="13.0151083"><ele>492.0</ele><time>2026-04-20T09:29:05.317Z</time></trkpt><trkpt lat="42.0392267" lon="13.015005"><ele>492.0</ele><time>2026-04-20T09:29:07.317Z</time></trkpt><trkpt lat="42.039185" lon="13.014915"><ele>492.0</ele><time>2026-04-20T09:29:09.317Z</time></trkpt><trkpt lat="42.0391567" lon="13.014835"><ele>492.0</ele><time>2026-04-20T09:29:11.316Z</time></trkpt><trkpt lat="42.03912" lon="13.014755"><ele>492.0</ele><time>2026-04-20T09:29:13.317Z</time></trkpt><trkpt lat="42.0390717" lon="13.0146633"><ele>491.8333333333333</ele><time>2026-04-20T09:29:15.317Z</time></trkpt><trkpt lat="42.0389983" lon="13.0146317"><ele>491.66666666666663</ele><time>2026-04-20T09:29:17.316Z</time></trkpt><trkpt lat="42.0389317" lon="13.0146733"><ele>491.5</ele><time>2026-04-20T09:29:19.317Z</time></trkpt><trkpt lat="42.038895" lon="13.0147667"><ele>491.3333333333333</ele><time>2026-04-20T09:29:21.317Z</time></trkpt><trkpt lat="42.038915" lon="13.0149267"><ele>491.16666666666663</ele><time>2026-04-20T09:29:23.317Z</time></trkpt><trkpt lat="42.0389433" lon="13.01501"><ele>491.0</ele><time>2026-04-20T09:29:24.315Z</time></trkpt><trkpt lat="42.03898" lon="13.01509"><ele>491.1428571428571</ele><time>2026-04-20T09:29:25.317Z</time></trkpt><trkpt lat="42.0390233" lon="13.0151733"><ele>491.2857142857142</ele><time>2026-04-20T09:29:26.316Z</time></trkpt><trkpt lat="42.0390683" lon="13.0152617"><ele>491.42857142857144</ele><time>2026-04-20T09:29:27.317Z</time></trkpt><trkpt lat="42.0391133" lon="13.0153483"><ele>491.57142857142856</ele><time>2026-04-20T09:29:28.315Z</time></trkpt><trkpt lat="42.0391533" lon="13.0154317"><ele>491.7142857142857</ele><time>2026-04-20T09:29:29.317Z</time></trkpt><trkpt lat="42.0391917" lon="13.01551"><ele>491.8571428571429</ele><time>2026-04-20T09:29:30.316Z</time></trkpt><trkpt lat="42.0392267" lon="13.015585"><ele>492.00000000000006</ele><time>2026-04-20T09:29:31.316Z</time></trkpt><trkpt lat="42.0392917" lon="13.01572"><ele>489.6666666666667</ele><time>2026-04-20T09:29:33.317Z</time></trkpt><trkpt lat="42.0393583" lon="13.0158483"><ele>487.33333333333337</ele><time>2026-04-20T09:29:35.316Z</time></trkpt><trkpt lat="42.0393967" lon="13.0159167"><ele>485.0</ele><time>2026-04-20T09:29:36.317Z</time></trkpt><trkpt lat="42.039445" lon="13.015985"><ele>482.6666666666667</ele><time>2026-04-20T09:29:37.317Z</time></trkpt><trkpt lat="42.0395067" lon="13.0160483"><ele>480.33333333333337</ele><time>2026-04-20T09:29:38.316Z</time></trkpt><trkpt lat="42.03958" lon="13.0160867"><ele>478.0</ele><time>2026-04-20T09:29:39.32Z</time></trkpt><trkpt lat="42.0396633" lon="13.0160983"><ele>478.00000000000006</ele><time>2026-04-20T09:29:40.316Z</time></trkpt><trkpt lat="42.0397517" lon="13.0160967"><ele>478.0</ele><time>2026-04-20T09:29:41.316Z</time></trkpt><trkpt lat="42.0398367" lon="13.0160867"><ele>478.0</ele><time>2026-04-20T09:29:42.317Z</time></trkpt><trkpt lat="42.03991" lon="13.016075"><ele>478.0</ele><time>2026-04-20T09:29:43.316Z</time></trkpt><trkpt lat="42.0399783" lon="13.0160617"><ele>478.00000000000006</ele><time>2026-04-20T09:29:44.318Z</time></trkpt><trkpt lat="42.0400417" lon="13.0160417"><ele>478.0</ele><time>2026-04-20T09:29:45.316Z</time></trkpt><trkpt lat="42.0401417" lon="13.0159633"><ele>478.83333333333337</ele><time>2026-04-20T09:29:47.316Z</time></trkpt><trkpt lat="42.0402417" lon="13.01586"><ele>479.6666666666667</ele><time>2026-04-20T09:29:49.317Z</time></trkpt><trkpt lat="42.0403083" lon="13.0158133"><ele>480.5</ele><time>2026-04-20T09:29:50.316Z</time></trkpt><trkpt lat="42.0403867" lon="13.015785"><ele>481.33333333333337</ele><time>2026-04-20T09:29:51.317Z</time></trkpt><trkpt lat="42.0404667" lon="13.0157733"><ele>482.1666666666667</ele><time>2026-04-20T09:29:52.317Z</time></trkpt><trkpt lat="42.04055" lon="13.01577"><ele>483.0</ele><time>2026-04-20T09:29:53.316Z</time></trkpt><trkpt lat="42.0406333" lon="13.0157667"><ele>487.0</ele><time>2026-04-20T09:29:54.317Z</time></trkpt><trkpt lat="42.04071" lon="13.015765"><ele>491.0</ele><time>2026-04-20T09:29:55.317Z</time></trkpt><trkpt lat="42.0407867" lon="13.0157667"><ele>495.0</ele><time>2026-04-20T09:29:56.318Z</time></trkpt><trkpt lat="42.0408533" lon="13.015765"><ele>499.0</ele><time>2026-04-20T09:29:57.316Z</time></trkpt><trkpt lat="42.0409617" lon="13.0157583"><ele>503.0</ele><time>2026-04-20T09:29:59.315Z</time></trkpt><trkpt lat="42.04105" lon="13.015755"><ele>507.0</ele><time>2026-04-20T09:30:02.316Z</time></trkpt><trkpt lat="42.041125" lon="13.0157733"><ele>507.0</ele><time>2026-04-20T09:30:05.316Z</time></trkpt><trkpt lat="42.0411967" lon="13.0158017"><ele>507.0</ele><time>2026-04-20T09:30:08.317Z</time></trkpt><trkpt lat="42.0412333" lon="13.01596"><ele>507.0</ele><time>2026-04-20T09:45:21.319Z</time></trkpt><trkpt lat="42.0410417" lon="13.0161083"><ele>507.0</ele><time>2026-04-20T09:49:57.265Z</time></trkpt><trkpt lat="42.04122" lon="13.0160683"><ele>502.20000000000005</ele><time>2026-04-20T09:50:06.317Z</time></trkpt><trkpt lat="42.0411167" lon="13.016035"><ele>497.40000000000003</ele><time>2026-04-20T09:51:57.318Z</time></trkpt><trkpt lat="42.0409867" lon="13.01606"><ele>492.59999999999997</ele><time>2026-04-20T09:51:59.317Z</time></trkpt><trkpt lat="42.0409133" lon="13.01607"><ele>487.79999999999995</ele><time>2026-04-20T09:52:00.319Z</time></trkpt><trkpt lat="42.0408283" lon="13.0160817"><ele>483.0</ele><time>2026-04-20T09:52:01.317Z</time></trkpt><trkpt lat="42.040735" lon="13.0161"><ele>483.0</ele><time>2026-04-20T09:52:02.317Z</time></trkpt><trkpt lat="42.0406417" lon="13.0161167"><ele>482.99999999999994</ele><time>2026-04-20T09:52:03.32Z</time></trkpt><trkpt lat="42.040545" lon="13.0161317"><ele>482.99999999999994</ele><time>2026-04-20T09:52:04.32Z</time></trkpt><trkpt lat="42.040445" lon="13.0161483"><ele>483.0</ele><time>2026-04-20T09:52:05.32Z</time></trkpt><trkpt lat="42.040335" lon="13.0161817"><ele>483.0</ele><time>2026-04-20T09:52:06.32Z</time></trkpt><trkpt lat="42.04022" lon="13.01622"><ele>483.0</ele><time>2026-04-20T09:52:07.316Z</time></trkpt><trkpt lat="42.0401" lon="13.0162617"><ele>483.0</ele><time>2026-04-20T09:52:08.319Z</time></trkpt><trkpt lat="42.039985" lon="13.0163117"><ele>483.0</ele><time>2026-04-20T09:52:09.318Z</time></trkpt><trkpt lat="42.0398817" lon="13.016375"><ele>483.0</ele><time>2026-04-20T09:52:10.317Z</time></trkpt><trkpt lat="42.0397717" lon="13.0164383"><ele>481.75</ele><time>2026-04-20T09:52:11.319Z</time></trkpt><trkpt lat="42.03966" lon="13.0164983"><ele>480.5</ele><time>2026-04-20T09:52:12.319Z</time></trkpt><trkpt lat="42.0395517" lon="13.0165433"><ele>479.25</ele><time>2026-04-20T09:52:13.32Z</time></trkpt><trkpt lat="42.039445" lon="13.01657"><ele>478.0</ele><time>2026-04-20T09:52:14.32Z</time></trkpt><trkpt lat="42.039335" lon="13.01658"><ele>478.0</ele><time>2026-04-20T09:52:15.319Z</time></trkpt><trkpt lat="42.03923" lon="13.0165583"><ele>478.0</ele><time>2026-04-20T09:52:16.32Z</time></trkpt><trkpt lat="42.0391217" lon="13.0165183"><ele>478.0</ele><time>2026-04-20T09:52:17.32Z</time></trkpt><trkpt lat="42.0390067" lon="13.016465"><ele>478.0</ele><time>2026-04-20T09:52:18.32Z</time></trkpt><trkpt lat="42.0388883" lon="13.0164033"><ele>473.59999999999997</ele><time>2026-04-20T09:52:19.316Z</time></trkpt><trkpt lat="42.0387767" lon="13.01636"><ele>469.19999999999993</ele><time>2026-04-20T09:52:20.317Z</time></trkpt><trkpt lat="42.0386683" lon="13.01632"><ele>464.8</ele><time>2026-04-20T09:52:21.318Z</time></trkpt><trkpt lat="42.03857" lon="13.0162667"><ele>460.4</ele><time>2026-04-20T09:52:22.316Z</time></trkpt><trkpt lat="42.038485" lon="13.01619"><ele>456.0</ele><time>2026-04-20T09:52:23.317Z</time></trkpt><trkpt lat="42.03842" lon="13.0160833"><ele>456.0</ele><time>2026-04-20T09:52:24.317Z</time></trkpt><trkpt lat="42.0383717" lon="13.0159567"><ele>456.0</ele><time>2026-04-20T09:52:25.316Z</time></trkpt><trkpt lat="42.0383333" lon="13.015815"><ele>456.0</ele><time>2026-04-20T09:52:26.318Z</time></trkpt><trkpt lat="42.0382783" lon="13.01567"><ele>456.0</ele><time>2026-04-20T09:52:27.317Z</time></trkpt><trkpt lat="42.0382017" lon="13.015535"><ele>455.0</ele><time>2026-04-20T09:52:28.315Z</time></trkpt><trkpt lat="42.0381183" lon="13.015415"><ele>454.0</ele><time>2026-04-20T09:52:29.317Z</time></trkpt><trkpt lat="42.038035" lon="13.01531"><ele>453.0</ele><time>2026-04-20T09:52:30.321Z</time></trkpt><trkpt lat="42.0379467" lon="13.01523"><ele>452.0</ele><time>2026-04-20T09:52:31.319Z</time></trkpt><trkpt lat="42.0378367" lon="13.015185"><ele>452.0</ele><time>2026-04-20T09:52:32.32Z</time></trkpt><trkpt lat="42.0377167" lon="13.015165"><ele>452.0</ele><time>2026-04-20T09:52:33.321Z</time></trkpt><trkpt lat="42.03759" lon="13.0151517"><ele>452.0</ele><time>2026-04-20T09:52:34.317Z</time></trkpt><trkpt lat="42.037475" lon="13.0151267"><ele>452.0</ele><time>2026-04-20T09:52:35.32Z</time></trkpt><trkpt lat="42.03737" lon="13.01507"><ele>451.5</ele><time>2026-04-20T09:52:36.32Z</time></trkpt><trkpt lat="42.0372733" lon="13.01499"><ele>451.0</ele><time>2026-04-20T09:52:37.319Z</time></trkpt><trkpt lat="42.0371917" lon="13.0148733"><ele>450.5</ele><time>2026-04-20T09:52:38.318Z</time></trkpt><trkpt lat="42.0371167" lon="13.0147383"><ele>450.0</ele><time>2026-04-20T09:52:39.32Z</time></trkpt><trkpt lat="42.037045" lon="13.0145967"><ele>450.0</ele><time>2026-04-20T09:52:40.32Z</time></trkpt><trkpt lat="42.0369767" lon="13.014465"><ele>450.0</ele><time>2026-04-20T09:52:41.32Z</time></trkpt><trkpt lat="42.036905" lon="13.0143417"><ele>450.0</ele><time>2026-04-20T09:52:42.32Z</time></trkpt><trkpt lat="42.0368217" lon="13.01424"><ele>450.0</ele><time>2026-04-20T09:52:43.322Z</time></trkpt><trkpt lat="42.0367367" lon="13.0141733"><ele>450.0</ele><time>2026-04-20T09:52:44.32Z</time></trkpt><trkpt lat="42.0366383" lon="13.0141517"><ele>447.0</ele><time>2026-04-20T09:52:45.32Z</time></trkpt><trkpt lat="42.0365183" lon="13.0141683"><ele>444.0</ele><time>2026-04-20T09:52:46.32Z</time></trkpt><trkpt lat="42.0363817" lon="13.0142117"><ele>441.0</ele><time>2026-04-20T09:52:47.32Z</time></trkpt><trkpt lat="42.0362433" lon="13.01426"><ele>438.0</ele><time>2026-04-20T09:52:48.319Z</time></trkpt><trkpt lat="42.0361133" lon="13.0142983"><ele>438.0</ele><time>2026-04-20T09:52:49.317Z</time></trkpt><trkpt lat="42.03599" lon="13.0143183"><ele>438.0</ele><time>2026-04-20T09:52:50.318Z</time></trkpt><trkpt lat="42.0358667" lon="13.014315"><ele>438.0</ele><time>2026-04-20T09:52:51.318Z</time></trkpt><trkpt lat="42.03575" lon="13.014285"><ele>438.0</ele><time>2026-04-20T09:52:52.319Z</time></trkpt><trkpt lat="42.0356433" lon="13.0142467"><ele>438.0</ele><time>2026-04-20T09:52:53.319Z</time></trkpt><trkpt lat="42.0355467" lon="13.0142067"><ele>437.99999999999994</ele><time>2026-04-20T09:52:54.32Z</time></trkpt><trkpt lat="42.03546" lon="13.0141633"><ele>437.99999999999994</ele><time>2026-04-20T09:52:55.32Z</time></trkpt><trkpt lat="42.03538" lon="13.0141133"><ele>438.0</ele><time>2026-04-20T09:52:56.319Z</time></trkpt><trkpt lat="42.035305" lon="13.0140433"><ele>438.0</ele><time>2026-04-20T09:52:57.318Z</time></trkpt><trkpt lat="42.0352267" lon="13.013965"><ele>438.0</ele><time>2026-04-20T09:52:58.319Z</time></trkpt><trkpt lat="42.035145" lon="13.0138667"><ele>437.99999999999994</ele><time>2026-04-20T09:52:59.319Z</time></trkpt><trkpt lat="42.0350633" lon="13.01376"><ele>437.99999999999994</ele><time>2026-04-20T09:53:00.318Z</time></trkpt><trkpt lat="42.0349783" lon="13.0136583"><ele>438.0</ele><time>2026-04-20T09:53:01.32Z</time></trkpt><trkpt lat="42.0348933" lon="13.0135633"><ele>438.0</ele><time>2026-04-20T09:53:02.32Z</time></trkpt><trkpt lat="42.0348133" lon="13.0134817"><ele>437.8333333333333</ele><time>2026-04-20T09:53:03.321Z</time></trkpt><trkpt lat="42.03474" lon="13.0134117"><ele>437.66666666666663</ele><time>2026-04-20T09:53:04.318Z</time></trkpt><trkpt lat="42.0346767" lon="13.01335"><ele>437.5</ele><time>2026-04-20T09:53:05.316Z</time></trkpt><trkpt lat="42.0346183" lon="13.0132883"><ele>437.3333333333333</ele><time>2026-04-20T09:53:06.318Z</time></trkpt><trkpt lat="42.0345617" lon="13.01323"><ele>437.16666666666663</ele><time>2026-04-20T09:53:07.318Z</time></trkpt><trkpt lat="42.034505" lon="13.0131733"><ele>437.0</ele><time>2026-04-20T09:53:08.316Z</time></trkpt><trkpt lat="42.034445" lon="13.0131167"><ele>436.99999999999994</ele><time>2026-04-20T09:53:09.321Z</time></trkpt><trkpt lat="42.03438" lon="13.0130583"><ele>437.0</ele><time>2026-04-20T09:53:10.319Z</time></trkpt><trkpt lat="42.034315" lon="13.0129967"><ele>437.0</ele><time>2026-04-20T09:53:11.318Z</time></trkpt><trkpt lat="42.0342433" lon="13.01293"><ele>437.0</ele><time>2026-04-20T09:53:12.32Z</time></trkpt><trkpt lat="42.0341717" lon="13.0128767"><ele>436.99999999999994</ele><time>2026-04-20T09:53:13.321Z</time></trkpt><trkpt lat="42.0340933" lon="13.0128467"><ele>437.0</ele><time>2026-04-20T09:53:14.32Z</time></trkpt><trkpt lat="42.0340067" lon="13.012845"><ele>436.8</ele><time>2026-04-20T09:53:15.319Z</time></trkpt><trkpt lat="42.0339183" lon="13.0128667"><ele>436.6</ele><time>2026-04-20T09:53:16.318Z</time></trkpt><trkpt lat="42.0338317" lon="13.012925"><ele>436.40000000000003</ele><time>2026-04-20T09:53:17.32Z</time></trkpt><trkpt lat="42.0337417" lon="13.013"><ele>436.20000000000005</ele><time>2026-04-20T09:53:18.318Z</time></trkpt><trkpt lat="42.033655" lon="13.0130683"><ele>436.0</ele><time>2026-04-20T09:53:19.316Z</time></trkpt><trkpt lat="42.0335683" lon="13.01314"><ele>436.0</ele><time>2026-04-20T09:53:20.317Z</time></trkpt><trkpt lat="42.0334833" lon="13.0132083"><ele>436.0</ele><time>2026-04-20T09:53:21.319Z</time></trkpt><trkpt lat="42.0333983" lon="13.0132733"><ele>436.0</ele><time>2026-04-20T09:53:22.317Z</time></trkpt><trkpt lat="42.033305" lon="13.0133283"><ele>436.0</ele><time>2026-04-20T09:53:23.318Z</time></trkpt><trkpt lat="42.0332" lon="13.01337"><ele>436.0</ele><time>2026-04-20T09:53:24.317Z</time></trkpt><trkpt lat="42.0330817" lon="13.013405"><ele>431.75</ele><time>2026-04-20T09:53:25.32Z</time></trkpt><trkpt lat="42.0329467" lon="13.0134333"><ele>427.5</ele><time>2026-04-20T09:53:26.319Z</time></trkpt><trkpt lat="42.03281" lon="13.0134517"><ele>423.25</ele><time>2026-04-20T09:53:27.32Z</time></trkpt><trkpt lat="42.0326867" lon="13.0134683"><ele>419.0</ele><time>2026-04-20T09:53:28.319Z</time></trkpt><trkpt lat="42.0325817" lon="13.0134833"><ele>419.0</ele><time>2026-04-20T09:53:29.316Z</time></trkpt><trkpt lat="42.03249" lon="13.0135"><ele>419.0</ele><time>2026-04-20T09:53:30.318Z</time></trkpt><trkpt lat="42.0324033" lon="13.0135167"><ele>419.0</ele><time>2026-04-20T09:53:31.317Z</time></trkpt><trkpt lat="42.0323183" lon="13.013535"><ele>419.0</ele><time>2026-04-20T09:53:32.317Z</time></trkpt><trkpt lat="42.0322267" lon="13.013565"><ele>419.0</ele><time>2026-04-20T09:53:33.318Z</time></trkpt><trkpt lat="42.0321233" lon="13.0136183"><ele>421.3333333333333</ele><time>2026-04-20T09:53:34.318Z</time></trkpt><trkpt lat="42.0319983" lon="13.0136917"><ele>423.66666666666663</ele><time>2026-04-20T09:53:35.318Z</time></trkpt><trkpt lat="42.0318633" lon="13.01378"><ele>426.0</ele><time>2026-04-20T09:53:36.318Z</time></trkpt><trkpt lat="42.031715" lon="13.0138833"><ele>423.0</ele><time>2026-04-20T09:53:37.317Z</time></trkpt><trkpt lat="42.0315533" lon="13.013995"><ele>420.0</ele><time>2026-04-20T09:53:38.318Z</time></trkpt><trkpt lat="42.0313883" lon="13.0141133"><ele>417.0</ele><time>2026-04-20T09:53:39.319Z</time></trkpt><trkpt lat="42.0312267" lon="13.0142417"><ele>417.0</ele><time>2026-04-20T09:53:40.32Z</time></trkpt><trkpt lat="42.0310633" lon="13.014365"><ele>417.0</ele><time>2026-04-20T09:53:41.317Z</time></trkpt><trkpt lat="42.0308967" lon="13.0144767"><ele>417.0</ele><time>2026-04-20T09:53:42.32Z</time></trkpt><trkpt lat="42.03074" lon="13.014575"><ele>419.33333333333337</ele><time>2026-04-20T09:53:43.319Z</time></trkpt><trkpt lat="42.0305783" lon="13.014655"><ele>421.6666666666667</ele><time>2026-04-20T09:53:44.317Z</time></trkpt><trkpt lat="42.030415" lon="13.014715"><ele>424.0</ele><time>2026-04-20T09:53:45.318Z</time></trkpt><trkpt lat="42.03027" lon="13.0147817"><ele>424.0</ele><time>2026-04-20T09:53:46.32Z</time></trkpt><trkpt lat="42.030145" lon="13.0148633"><ele>424.0</ele><time>2026-04-20T09:53:47.319Z</time></trkpt><trkpt lat="42.03003" lon="13.0149883"><ele>424.0</ele><time>2026-04-20T09:53:48.318Z</time></trkpt><trkpt lat="42.0299183" lon="13.0151567"><ele>418.6666666666667</ele><time>2026-04-20T09:53:49.32Z</time></trkpt><trkpt lat="42.029805" lon="13.0153417"><ele>413.33333333333337</ele><time>2026-04-20T09:53:50.32Z</time></trkpt><trkpt lat="42.0296733" lon="13.015525"><ele>408.0</ele><time>2026-04-20T09:53:51.319Z</time></trkpt><trkpt lat="42.02952" lon="13.0157033"><ele>403.66666666666663</ele><time>2026-04-20T09:53:52.319Z</time></trkpt><trkpt lat="42.0293667" lon="13.0158733"><ele>399.3333333333333</ele><time>2026-04-20T09:53:53.32Z</time></trkpt><trkpt lat="42.0292183" lon="13.0160267"><ele>395.0</ele><time>2026-04-20T09:53:54.32Z</time></trkpt><trkpt lat="42.029085" lon="13.016155"><ele>393.75</ele><time>2026-04-20T09:53:55.319Z</time></trkpt><trkpt lat="42.02896" lon="13.016255"><ele>392.5</ele><time>2026-04-20T09:53:56.319Z</time></trkpt><trkpt lat="42.0288317" lon="13.0163083"><ele>391.25</ele><time>2026-04-20T09:53:57.319Z</time></trkpt><trkpt lat="42.0287033" lon="13.01631"><ele>390.0</ele><time>2026-04-20T09:53:58.32Z</time></trkpt><trkpt lat="42.0285733" lon="13.01625"><ele>390.0</ele><time>2026-04-20T09:53:59.319Z</time></trkpt><trkpt lat="42.0284383" lon="13.016145"><ele>390.0</ele><time>2026-04-20T09:54:00.32Z</time></trkpt><trkpt lat="42.0282883" lon="13.0160367"><ele>390.0</ele><time>2026-04-20T09:54:01.32Z</time></trkpt><trkpt lat="42.0281283" lon="13.01595"><ele>387.0</ele><time>2026-04-20T09:54:02.318Z</time></trkpt><trkpt lat="42.0279717" lon="13.0159017"><ele>384.0</ele><time>2026-04-20T09:54:03.318Z</time></trkpt><trkpt lat="42.0278117" lon="13.0159117"><ele>381.0</ele><time>2026-04-20T09:54:04.319Z</time></trkpt><trkpt lat="42.0276483" lon="13.0159783"><ele>381.0</ele><time>2026-04-20T09:54:05.319Z</time></trkpt><trkpt lat="42.027485" lon="13.0160717"><ele>381.0</ele><time>2026-04-20T09:54:06.319Z</time></trkpt><trkpt lat="42.0273267" lon="13.0161517"><ele>381.0</ele><time>2026-04-20T09:54:07.32Z</time></trkpt><trkpt lat="42.0271683" lon="13.0161917"><ele>379.3333333333333</ele><time>2026-04-20T09:54:08.319Z</time></trkpt><trkpt lat="42.027" lon="13.0161883"><ele>377.66666666666663</ele><time>2026-04-20T09:54:09.32Z</time></trkpt><trkpt lat="42.02684" lon="13.0161483"><ele>376.0</ele><time>2026-04-20T09:54:10.319Z</time></trkpt><trkpt lat="42.0266967" lon="13.0160817"><ele>373.3333333333333</ele><time>2026-04-20T09:54:11.319Z</time></trkpt><trkpt lat="42.0265617" lon="13.01597"><ele>370.6666666666667</ele><time>2026-04-20T09:54:12.32Z</time></trkpt><trkpt lat="42.0264283" lon="13.01581"><ele>368.0</ele><time>2026-04-20T09:54:13.32Z</time></trkpt><trkpt lat="42.0262867" lon="13.01564"><ele>368.0</ele><time>2026-04-20T09:54:14.318Z</time></trkpt><trkpt lat="42.0261433" lon="13.0155017"><ele>368.0</ele><time>2026-04-20T09:54:15.32Z</time></trkpt><trkpt lat="42.026005" lon="13.0153967"><ele>368.0</ele><time>2026-04-20T09:54:16.316Z</time></trkpt><trkpt lat="42.0258733" lon="13.0153367"><ele>365.25</ele><time>2026-04-20T09:54:17.32Z</time></trkpt><trkpt lat="42.0257417" lon="13.0153367"><ele>362.5</ele><time>2026-04-20T09:54:18.322Z</time></trkpt><trkpt lat="42.0256167" lon="13.01539"><ele>359.75</ele><time>2026-04-20T09:54:19.318Z</time></trkpt><trkpt lat="42.0255067" lon="13.0155133"><ele>357.0</ele><time>2026-04-20T09:54:20.319Z</time></trkpt><trkpt lat="42.025385" lon="13.0156283"><ele>357.0</ele><time>2026-04-20T09:54:21.319Z</time></trkpt><trkpt lat="42.025245" lon="13.015695"><ele>357.0</ele><time>2026-04-20T09:54:22.318Z</time></trkpt><trkpt lat="42.0250767" lon="13.015745"><ele>357.0</ele><time>2026-04-20T09:54:23.32Z</time></trkpt><trkpt lat="42.0248983" lon="13.01578"><ele>355.75</ele><time>2026-04-20T09:54:24.32Z</time></trkpt><trkpt lat="42.024725" lon="13.0158083"><ele>354.5</ele><time>2026-04-20T09:54:25.32Z</time></trkpt><trkpt lat="42.02458" lon="13.01583"><ele>353.25</ele><time>2026-04-20T09:54:26.317Z</time></trkpt><trkpt lat="42.024465" lon="13.0158383"><ele>352.0</ele><time>2026-04-20T09:54:27.317Z</time></trkpt><trkpt lat="42.024385" lon="13.0158267"><ele>351.20000000000005</ele><time>2026-04-20T09:54:28.319Z</time></trkpt><trkpt lat="42.02432" lon="13.0157967"><ele>350.4</ele><time>2026-04-20T09:54:29.318Z</time></trkpt><trkpt lat="42.02431" lon="13.0156367"><ele>349.6</ele><time>2026-04-20T09:54:31.316Z</time></trkpt><trkpt lat="42.0243567" lon="13.01555"><ele>348.79999999999995</ele><time>2026-04-20T09:54:32.319Z</time></trkpt><trkpt lat="42.0244117" lon="13.0154733"><ele>348.0</ele><time>2026-04-20T09:54:33.32Z</time></trkpt><trkpt lat="42.02453" lon="13.0153883"><ele>348.0</ele><time>2026-04-20T09:54:34.319Z</time></trkpt><trkpt lat="42.02467" lon="13.01527"><ele>348.0</ele><time>2026-04-20T09:54:35.32Z</time></trkpt><trkpt lat="42.02478" lon="13.015125"><ele>348.0</ele><time>2026-04-20T09:54:36.32Z</time></trkpt><trkpt lat="42.02484" lon="13.01495"><ele>347.75</ele><time>2026-04-20T09:54:37.32Z</time></trkpt><trkpt lat="42.0248617" lon="13.014755"><ele>347.5</ele><time>2026-04-20T09:54:38.319Z</time></trkpt><trkpt lat="42.0248567" lon="13.0145583"><ele>347.25</ele><time>2026-04-20T09:54:39.32Z</time></trkpt><trkpt lat="42.0248167" lon="13.01437"><ele>347.0</ele><time>2026-04-20T09:54:40.318Z</time></trkpt><trkpt lat="42.0247433" lon="13.0142017"><ele>347.6666666666667</ele><time>2026-04-20T09:54:41.319Z</time></trkpt><trkpt lat="42.0246317" lon="13.01405"><ele>348.3333333333333</ele><time>2026-04-20T09:54:42.321Z</time></trkpt><trkpt lat="42.0244867" lon="13.0139117"><ele>349.0</ele><time>2026-04-20T09:54:43.319Z</time></trkpt><trkpt lat="42.0243417" lon="13.0137833"><ele>349.0</ele><time>2026-04-20T09:54:44.32Z</time></trkpt><trkpt lat="42.0242067" lon="13.013625"><ele>349.0</ele><time>2026-04-20T09:54:45.32Z</time></trkpt><trkpt lat="42.0240867" lon="13.0134317"><ele>349.0</ele><time>2026-04-20T09:54:46.319Z</time></trkpt><trkpt lat="42.0239717" lon="13.0132383"><ele>345.66666666666663</ele><time>2026-04-20T09:54:47.32Z</time></trkpt><trkpt lat="42.0238417" lon="13.0130617"><ele>342.3333333333333</ele><time>2026-04-20T09:54:48.318Z</time></trkpt><trkpt lat="42.0236867" lon="13.0128983"><ele>339.0</ele><time>2026-04-20T09:54:49.319Z</time></trkpt><trkpt lat="42.02353" lon="13.0127433"><ele>339.0</ele><time>2026-04-20T09:54:50.319Z</time></trkpt><trkpt lat="42.0233817" lon="13.0125833"><ele>339.0</ele><time>2026-04-20T09:54:51.32Z</time></trkpt><trkpt lat="42.0232433" lon="13.0123933"><ele>339.0</ele><time>2026-04-20T09:54:52.321Z</time></trkpt><trkpt lat="42.0231133" lon="13.0121667"><ele>337.0</ele><time>2026-04-20T09:54:53.32Z</time></trkpt><trkpt lat="42.0229867" lon="13.011935"><ele>335.0</ele><time>2026-04-20T09:54:54.321Z</time></trkpt><trkpt lat="42.022875" lon="13.0117083"><ele>333.0</ele><time>2026-04-20T09:54:55.32Z</time></trkpt><trkpt lat="42.022775" lon="13.0114917"><ele>333.0</ele><time>2026-04-20T09:54:56.317Z</time></trkpt><trkpt lat="42.0226817" lon="13.0112867"><ele>333.0</ele><time>2026-04-20T09:54:57.318Z</time></trkpt><trkpt lat="42.0225933" lon="13.0111"><ele>333.0</ele><time>2026-04-20T09:54:58.321Z</time></trkpt><trkpt lat="42.022495" lon="13.0109217"><ele>330.6666666666667</ele><time>2026-04-20T09:54:59.319Z</time></trkpt><trkpt lat="42.0223833" lon="13.0107417"><ele>328.33333333333337</ele><time>2026-04-20T09:55:00.317Z</time></trkpt><trkpt lat="42.0222617" lon="13.0105483"><ele>326.0</ele><time>2026-04-20T09:55:01.317Z</time></trkpt><trkpt lat="42.02213" lon="13.010345"><ele>326.0</ele><time>2026-04-20T09:55:02.317Z</time></trkpt><trkpt lat="42.0219933" lon="13.0101233"><ele>326.0</ele><time>2026-04-20T09:55:03.32Z</time></trkpt><trkpt lat="42.021855" lon="13.0099133"><ele>326.0</ele><time>2026-04-20T09:55:04.319Z</time></trkpt><trkpt lat="42.02173" lon="13.0097183"><ele>325.0</ele><time>2026-04-20T09:55:05.318Z</time></trkpt><trkpt lat="42.02163" lon="13.0095283"><ele>324.0</ele><time>2026-04-20T09:55:06.318Z</time></trkpt><trkpt lat="42.0215683" lon="13.009335"><ele>323.0</ele><time>2026-04-20T09:55:07.318Z</time></trkpt><trkpt lat="42.02154" lon="13.0091233"><ele>323.0</ele><time>2026-04-20T09:55:08.316Z</time></trkpt><trkpt lat="42.0215317" lon="13.00889"><ele>323.0</ele><time>2026-04-20T09:55:09.319Z</time></trkpt><trkpt lat="42.0215067" lon="13.0086383"><ele>323.0</ele><time>2026-04-20T09:55:10.317Z</time></trkpt><trkpt lat="42.0214517" lon="13.0083817"><ele>323.33333333333337</ele><time>2026-04-20T09:55:11.317Z</time></trkpt><trkpt lat="42.02137" lon="13.0081167"><ele>323.6666666666667</ele><time>2026-04-20T09:55:12.32Z</time></trkpt><trkpt lat="42.0212633" lon="13.0078533"><ele>324.0</ele><time>2026-04-20T09:55:13.32Z</time></trkpt><trkpt lat="42.0211417" lon="13.0075883"><ele>327.0</ele><time>2026-04-20T09:55:14.319Z</time></trkpt><trkpt lat="42.0210133" lon="13.007325"><ele>330.0</ele><time>2026-04-20T09:55:15.32Z</time></trkpt><trkpt lat="42.0208767" lon="13.00705"><ele>328.0</ele><time>2026-04-20T09:55:16.32Z</time></trkpt><trkpt lat="42.0207417" lon="13.006775"><ele>326.0</ele><time>2026-04-20T09:55:17.319Z</time></trkpt><trkpt lat="42.0206117" lon="13.0065167"><ele>326.0</ele><time>2026-04-20T09:55:18.319Z</time></trkpt><trkpt lat="42.0204933" lon="13.0062833"><ele>326.0</ele><time>2026-04-20T09:55:19.318Z</time></trkpt><trkpt lat="42.0203883" lon="13.006075"><ele>326.0</ele><time>2026-04-20T09:55:20.318Z</time></trkpt><trkpt lat="42.0202867" lon="13.00588"><ele>326.33333333333337</ele><time>2026-04-20T09:55:21.32Z</time></trkpt><trkpt lat="42.02019" lon="13.0056933"><ele>326.6666666666667</ele><time>2026-04-20T09:55:22.32Z</time></trkpt><trkpt lat="42.0200933" lon="13.005505"><ele>327.0</ele><time>2026-04-20T09:55:23.32Z</time></trkpt><trkpt lat="42.0199933" lon="13.00531"><ele>327.0</ele><time>2026-04-20T09:55:24.321Z</time></trkpt><trkpt lat="42.01989" lon="13.0051017"><ele>327.0</ele><time>2026-04-20T09:55:25.32Z</time></trkpt><trkpt lat="42.0197783" lon="13.004885"><ele>327.0</ele><time>2026-04-20T09:55:26.317Z</time></trkpt><trkpt lat="42.0196633" lon="13.0046617"><ele>327.0</ele><time>2026-04-20T09:55:27.321Z</time></trkpt><trkpt lat="42.0195417" lon="13.0044267"><ele>327.0</ele><time>2026-04-20T09:55:28.32Z</time></trkpt><trkpt lat="42.0194183" lon="13.0041817"><ele>327.0</ele><time>2026-04-20T09:55:29.318Z</time></trkpt><trkpt lat="42.0192967" lon="13.00393"><ele>327.0</ele><time>2026-04-20T09:55:30.319Z</time></trkpt><trkpt lat="42.0191717" lon="13.00368"><ele>327.0</ele><time>2026-04-20T09:55:31.319Z</time></trkpt><trkpt lat="42.0190483" lon="13.0034383"><ele>327.0</ele><time>2026-04-20T09:55:32.319Z</time></trkpt><trkpt lat="42.0189367" lon="13.003205"><ele>327.0</ele><time>2026-04-20T09:55:33.32Z</time></trkpt><trkpt lat="42.0188383" lon="13.0029683"><ele>327.0</ele><time>2026-04-20T09:55:34.32Z</time></trkpt><trkpt lat="42.0187567" lon="13.0027167"><ele>327.0</ele><time>2026-04-20T09:55:35.32Z</time></trkpt><trkpt lat="42.0186933" lon="13.0024533"><ele>327.0</ele><time>2026-04-20T09:55:36.319Z</time></trkpt><trkpt lat="42.0186483" lon="13.0021933"><ele>327.0</ele><time>2026-04-20T09:55:37.32Z</time></trkpt><trkpt lat="42.0186267" lon="13.0019383"><ele>327.0</ele><time>2026-04-20T09:55:38.319Z</time></trkpt><trkpt lat="42.018625" lon="13.0016683"><ele>327.0</ele><time>2026-04-20T09:55:39.321Z</time></trkpt><trkpt lat="42.0186417" lon="13.0013933"><ele>327.0</ele><time>2026-04-20T09:55:40.317Z</time></trkpt><trkpt lat="42.0186783" lon="13.0011133"><ele>327.0</ele><time>2026-04-20T09:55:41.317Z</time></trkpt><trkpt lat="42.0187317" lon="13.0008333"><ele>327.5</ele><time>2026-04-20T09:55:42.317Z</time></trkpt><trkpt lat="42.0187967" lon="13.0005467"><ele>328.0</ele><time>2026-04-20T09:55:43.318Z</time></trkpt><trkpt lat="42.0188683" lon="13.0002517"><ele>328.0</ele><time>2026-04-20T09:55:44.317Z</time></trkpt><trkpt lat="42.0189383" lon="12.9999517"><ele>328.0</ele><time>2026-04-20T09:55:45.318Z</time></trkpt><trkpt lat="42.0190067" lon="12.9996483"><ele>328.0</ele><time>2026-04-20T09:55:46.316Z</time></trkpt><trkpt lat="42.019075" lon="12.9993433"><ele>328.0</ele><time>2026-04-20T09:55:47.318Z</time></trkpt><trkpt lat="42.0191417" lon="12.9990483"><ele>329.0</ele><time>2026-04-20T09:55:48.318Z</time></trkpt><trkpt lat="42.0192067" lon="12.9987617"><ele>330.0</ele><time>2026-04-20T09:55:49.319Z</time></trkpt><trkpt lat="42.0192733" lon="12.99848"><ele>331.0</ele><time>2026-04-20T09:55:50.318Z</time></trkpt><trkpt lat="42.0193367" lon="12.9982083"><ele>331.0</ele><time>2026-04-20T09:55:51.318Z</time></trkpt><trkpt lat="42.0194" lon="12.9979467"><ele>331.0</ele><time>2026-04-20T09:55:52.318Z</time></trkpt><trkpt lat="42.019465" lon="12.9976867"><ele>331.0</ele><time>2026-04-20T09:55:53.32Z</time></trkpt><trkpt lat="42.019535" lon="12.9974183"><ele>330.3333333333333</ele><time>2026-04-20T09:55:54.317Z</time></trkpt><trkpt lat="42.019615" lon="12.9971517"><ele>329.6666666666667</ele><time>2026-04-20T09:55:55.318Z</time></trkpt><trkpt lat="42.0197017" lon="12.9968783"><ele>329.0</ele><time>2026-04-20T09:55:56.317Z</time></trkpt><trkpt lat="42.0197933" lon="12.9965983"><ele>329.0</ele><time>2026-04-20T09:55:57.322Z</time></trkpt><trkpt lat="42.0198917" lon="12.996325"><ele>329.0</ele><time>2026-04-20T09:55:58.32Z</time></trkpt><trkpt lat="42.0199933" lon="12.9960617"><ele>329.0</ele><time>2026-04-20T09:55:59.32Z</time></trkpt><trkpt lat="42.0200967" lon="12.995795"><ele>329.0</ele><time>2026-04-20T09:56:00.321Z</time></trkpt><trkpt lat="42.0202083" lon="12.9955283"><ele>329.0</ele><time>2026-04-20T09:56:01.317Z</time></trkpt><trkpt lat="42.0203267" lon="12.9952667"><ele>329.0</ele><time>2026-04-20T09:56:02.318Z</time></trkpt><trkpt lat="42.0204533" lon="12.99501"><ele>329.0</ele><time>2026-04-20T09:56:03.319Z</time></trkpt><trkpt lat="42.0205783" lon="12.9947683"><ele>329.0</ele><time>2026-04-20T09:56:04.32Z</time></trkpt><trkpt lat="42.0207" lon="12.99453"><ele>329.33333333333337</ele><time>2026-04-20T09:56:05.319Z</time></trkpt><trkpt lat="42.0208183" lon="12.994285"><ele>329.6666666666667</ele><time>2026-04-20T09:56:06.319Z</time></trkpt><trkpt lat="42.0209417" lon="12.99404"><ele>330.0</ele><time>2026-04-20T09:56:07.321Z</time></trkpt><trkpt lat="42.0210617" lon="12.9937917"><ele>330.0</ele><time>2026-04-20T09:56:08.32Z</time></trkpt><trkpt lat="42.0211833" lon="12.9935333"><ele>330.0</ele><time>2026-04-20T09:56:09.319Z</time></trkpt><trkpt lat="42.021305" lon="12.9932683"><ele>327.0</ele><time>2026-04-20T09:56:10.32Z</time></trkpt><trkpt lat="42.0214317" lon="12.9929967"><ele>324.0</ele><time>2026-04-20T09:56:11.317Z</time></trkpt><trkpt lat="42.0215617" lon="12.99272"><ele>327.5</ele><time>2026-04-20T09:56:12.32Z</time></trkpt><trkpt lat="42.0216933" lon="12.9924367"><ele>331.0</ele><time>2026-04-20T09:56:13.318Z</time></trkpt><trkpt lat="42.0218233" lon="12.992155"><ele>331.0</ele><time>2026-04-20T09:56:14.317Z</time></trkpt><trkpt lat="42.0219517" lon="12.991885"><ele>331.0</ele><time>2026-04-20T09:56:15.316Z</time></trkpt><trkpt lat="42.0220767" lon="12.9916317"><ele>329.0</ele><time>2026-04-20T09:56:16.32Z</time></trkpt><trkpt lat="42.0221883" lon="12.9914"><ele>327.0</ele><time>2026-04-20T09:56:17.319Z</time></trkpt><trkpt lat="42.0222933" lon="12.9911783"><ele>325.0</ele><time>2026-04-20T09:56:18.319Z</time></trkpt><trkpt lat="42.022395" lon="12.990965"><ele>329.0</ele><time>2026-04-20T09:56:19.32Z</time></trkpt><trkpt lat="42.022495" lon="12.990755"><ele>333.0</ele><time>2026-04-20T09:56:20.319Z</time></trkpt><trkpt lat="42.0225983" lon="12.9905467"><ele>337.0</ele><time>2026-04-20T09:56:21.32Z</time></trkpt><trkpt lat="42.0227" lon="12.9903483"><ele>337.0</ele><time>2026-04-20T09:56:22.32Z</time></trkpt><trkpt lat="42.0228017" lon="12.9901567"><ele>337.0</ele><time>2026-04-20T09:56:23.319Z</time></trkpt><trkpt lat="42.0229083" lon="12.9899767"><ele>337.0</ele><time>2026-04-20T09:56:24.317Z</time></trkpt><trkpt lat="42.0230233" lon="12.989815"><ele>336.66666666666663</ele><time>2026-04-20T09:56:25.317Z</time></trkpt><trkpt lat="42.0231483" lon="12.9896717"><ele>336.3333333333333</ele><time>2026-04-20T09:56:26.318Z</time></trkpt><trkpt lat="42.0232733" lon="12.9895267"><ele>336.0</ele><time>2026-04-20T09:56:27.318Z</time></trkpt><trkpt lat="42.0233983" lon="12.98938"><ele>336.0</ele><time>2026-04-20T09:56:28.318Z</time></trkpt><trkpt lat="42.0235267" lon="12.98923"><ele>336.0</ele><time>2026-04-20T09:56:29.32Z</time></trkpt><trkpt lat="42.0236567" lon="12.9890817"><ele>336.0</ele><time>2026-04-20T09:56:30.319Z</time></trkpt><trkpt lat="42.023785" lon="12.98892"><ele>333.6666666666667</ele><time>2026-04-20T09:56:31.316Z</time></trkpt><trkpt lat="42.023905" lon="12.9887417"><ele>331.33333333333337</ele><time>2026-04-20T09:56:32.316Z</time></trkpt><trkpt lat="42.0240167" lon="12.9885483"><ele>329.0</ele><time>2026-04-20T09:56:33.321Z</time></trkpt><trkpt lat="42.0241133" lon="12.9883317"><ele>330.6666666666667</ele><time>2026-04-20T09:56:34.319Z</time></trkpt><trkpt lat="42.0241917" lon="12.9881"><ele>332.3333333333333</ele><time>2026-04-20T09:56:35.318Z</time></trkpt><trkpt lat="42.02425" lon="12.9878567"><ele>334.0</ele><time>2026-04-20T09:56:36.316Z</time></trkpt><trkpt lat="42.0242883" lon="12.9875983"><ele>332.0</ele><time>2026-04-20T09:56:37.318Z</time></trkpt><trkpt lat="42.0243083" lon="12.9873317"><ele>330.0</ele><time>2026-04-20T09:56:38.32Z</time></trkpt><trkpt lat="42.0243233" lon="12.9870583"><ele>328.0</ele><time>2026-04-20T09:56:39.319Z</time></trkpt><trkpt lat="42.0243467" lon="12.9867767"><ele>327.3333333333333</ele><time>2026-04-20T09:56:40.32Z</time></trkpt><trkpt lat="42.0243717" lon="12.9864833"><ele>326.6666666666667</ele><time>2026-04-20T09:56:41.319Z</time></trkpt><trkpt lat="42.0244" lon="12.9861767"><ele>326.0</ele><time>2026-04-20T09:56:42.319Z</time></trkpt><trkpt lat="42.0244267" lon="12.9858567"><ele>327.0</ele><time>2026-04-20T09:56:43.316Z</time></trkpt><trkpt lat="42.02446" lon="12.9855333"><ele>328.0</ele><time>2026-04-20T09:56:44.317Z</time></trkpt><trkpt lat="42.0245117" lon="12.9852083"><ele>326.0</ele><time>2026-04-20T09:56:45.317Z</time></trkpt><trkpt lat="42.0245867" lon="12.98488"><ele>324.0</ele><time>2026-04-20T09:56:46.319Z</time></trkpt><trkpt lat="42.02468" lon="12.9845583"><ele>324.0</ele><time>2026-04-20T09:56:47.316Z</time></trkpt><trkpt lat="42.02479" lon="12.984245"><ele>324.0</ele><time>2026-04-20T09:56:48.317Z</time></trkpt><trkpt lat="42.0249217" lon="12.9839433"><ele>328.0</ele><time>2026-04-20T09:56:49.316Z</time></trkpt><trkpt lat="42.0250733" lon="12.983655"><ele>332.0</ele><time>2026-04-20T09:56:50.316Z</time></trkpt><trkpt lat="42.025255" lon="12.9833733"><ele>328.0</ele><time>2026-04-20T09:56:51.317Z</time></trkpt><trkpt lat="42.0254467" lon="12.983095"><ele>324.0</ele><time>2026-04-20T09:56:52.315Z</time></trkpt><trkpt lat="42.0256367" lon="12.9828217"><ele>323.5</ele><time>2026-04-20T09:56:53.317Z</time></trkpt><trkpt lat="42.0258233" lon="12.9825467"><ele>323.0</ele><time>2026-04-20T09:56:54.316Z</time></trkpt><trkpt lat="42.0260217" lon="12.98227"><ele>323.0</ele><time>2026-04-20T09:56:55.315Z</time></trkpt><trkpt lat="42.02622" lon="12.9819917"><ele>323.0</ele><time>2026-04-20T09:56:56.317Z</time></trkpt><trkpt lat="42.0264083" lon="12.98172"><ele>322.5</ele><time>2026-04-20T09:56:57.316Z</time></trkpt><trkpt lat="42.0265783" lon="12.9814617"><ele>322.0</ele><time>2026-04-20T09:56:58.316Z</time></trkpt><trkpt lat="42.0267383" lon="12.981205"><ele>322.0</ele><time>2026-04-20T09:56:59.317Z</time></trkpt><trkpt lat="42.0268817" lon="12.980935"><ele>322.0</ele><time>2026-04-20T09:57:00.315Z</time></trkpt><trkpt lat="42.02701" lon="12.98065"><ele>322.0</ele><time>2026-04-20T09:57:01.315Z</time></trkpt><trkpt lat="42.0271233" lon="12.98035"><ele>322.0</ele><time>2026-04-20T09:57:02.317Z</time></trkpt><trkpt lat="42.0272183" lon="12.9800317"><ele>320.5</ele><time>2026-04-20T09:57:03.317Z</time></trkpt><trkpt lat="42.0272883" lon="12.979695"><ele>319.0</ele><time>2026-04-20T09:57:04.315Z</time></trkpt><trkpt lat="42.0273383" lon="12.97934"><ele>319.5</ele><time>2026-04-20T09:57:05.317Z</time></trkpt><trkpt lat="42.02737" lon="12.978975"><ele>320.0</ele><time>2026-04-20T09:57:06.317Z</time></trkpt><trkpt lat="42.0273983" lon="12.9786133"><ele>320.0</ele><time>2026-04-20T09:57:07.316Z</time></trkpt><trkpt lat="42.0274267" lon="12.978265"><ele>320.0</ele><time>2026-04-20T09:57:08.319Z</time></trkpt><trkpt lat="42.027455" lon="12.977935"><ele>321.0</ele><time>2026-04-20T09:57:09.316Z</time></trkpt><trkpt lat="42.0274867" lon="12.9776267"><ele>322.0</ele><time>2026-04-20T09:57:10.319Z</time></trkpt><trkpt lat="42.0275167" lon="12.9773417"><ele>323.0</ele><time>2026-04-20T09:57:11.317Z</time></trkpt><trkpt lat="42.0275517" lon="12.9770783"><ele>323.33333333333337</ele><time>2026-04-20T09:57:12.316Z</time></trkpt><trkpt lat="42.027605" lon="12.9768317"><ele>323.6666666666667</ele><time>2026-04-20T09:57:13.319Z</time></trkpt><trkpt lat="42.0276833" lon="12.9766033"><ele>324.0</ele><time>2026-04-20T09:57:14.317Z</time></trkpt><trkpt lat="42.027795" lon="12.9764117"><ele>324.0</ele><time>2026-04-20T09:57:15.317Z</time></trkpt><trkpt lat="42.02793" lon="12.9762483"><ele>324.0</ele><time>2026-04-20T09:57:16.32Z</time></trkpt><trkpt lat="42.0280933" lon="12.976115"><ele>324.0</ele><time>2026-04-20T09:57:17.319Z</time></trkpt><trkpt lat="42.028275" lon="12.9760133"><ele>324.6666666666667</ele><time>2026-04-20T09:57:18.319Z</time></trkpt><trkpt lat="42.028475" lon="12.9759367"><ele>325.33333333333337</ele><time>2026-04-20T09:57:19.319Z</time></trkpt><trkpt lat="42.0286767" lon="12.97587"><ele>326.0</ele><time>2026-04-20T09:57:20.32Z</time></trkpt><trkpt lat="42.028865" lon="12.9757967"><ele>326.0</ele><time>2026-04-20T09:57:21.319Z</time></trkpt><trkpt lat="42.0290433" lon="12.9756917"><ele>326.0</ele><time>2026-04-20T09:57:22.319Z</time></trkpt><trkpt lat="42.029205" lon="12.9755283"><ele>326.0</ele><time>2026-04-20T09:57:23.318Z</time></trkpt><trkpt lat="42.0293517" lon="12.9753117"><ele>325.0</ele><time>2026-04-20T09:57:24.319Z</time></trkpt><trkpt lat="42.0294767" lon="12.97506"><ele>324.0</ele><time>2026-04-20T09:57:25.319Z</time></trkpt><trkpt lat="42.0295867" lon="12.9748033"><ele>323.0</ele><time>2026-04-20T09:57:26.32Z</time></trkpt><trkpt lat="42.0296917" lon="12.9745667"><ele>323.0</ele><time>2026-04-20T09:57:27.32Z</time></trkpt><trkpt lat="42.0298233" lon="12.9743567"><ele>323.0</ele><time>2026-04-20T09:57:28.319Z</time></trkpt><trkpt lat="42.02999" lon="12.97418"><ele>323.0</ele><time>2026-04-20T09:57:29.32Z</time></trkpt><trkpt lat="42.03018" lon="12.9740267"><ele>325.0</ele><time>2026-04-20T09:57:30.319Z</time></trkpt><trkpt lat="42.03038" lon="12.9738817"><ele>327.0</ele><time>2026-04-20T09:57:31.319Z</time></trkpt><trkpt lat="42.0305683" lon="12.9737333"><ele>329.0</ele><time>2026-04-20T09:57:32.319Z</time></trkpt><trkpt lat="42.03074" lon="12.973575"><ele>327.33333333333337</ele><time>2026-04-20T09:57:33.317Z</time></trkpt><trkpt lat="42.0308983" lon="12.9733983"><ele>325.6666666666667</ele><time>2026-04-20T09:57:34.319Z</time></trkpt><trkpt lat="42.0310467" lon="12.973195"><ele>324.0</ele><time>2026-04-20T09:57:35.32Z</time></trkpt><trkpt lat="42.0311867" lon="12.9729883"><ele>324.0</ele><time>2026-04-20T09:57:36.318Z</time></trkpt><trkpt lat="42.0313233" lon="12.9727883"><ele>324.0</ele><time>2026-04-20T09:57:37.317Z</time></trkpt><trkpt lat="42.0314583" lon="12.9725933"><ele>324.0</ele><time>2026-04-20T09:57:38.319Z</time></trkpt><trkpt lat="42.0315867" lon="12.9723633"><ele>325.0</ele><time>2026-04-20T09:57:39.317Z</time></trkpt><trkpt lat="42.0317033" lon="12.9721017"><ele>326.0</ele><time>2026-04-20T09:57:40.32Z</time></trkpt><trkpt lat="42.0318017" lon="12.9718367"><ele>327.0</ele><time>2026-04-20T09:57:41.319Z</time></trkpt><trkpt lat="42.0318917" lon="12.9715917"><ele>325.0</ele><time>2026-04-20T09:57:42.319Z</time></trkpt><trkpt lat="42.03198" lon="12.9713667"><ele>323.0</ele><time>2026-04-20T09:57:43.319Z</time></trkpt><trkpt lat="42.03207" lon="12.9711633"><ele>321.0</ele><time>2026-04-20T09:57:44.319Z</time></trkpt><trkpt lat="42.0321833" lon="12.970985"><ele>320.0</ele><time>2026-04-20T09:57:45.318Z</time></trkpt><trkpt lat="42.032325" lon="12.970835"><ele>319.0</ele><time>2026-04-20T09:57:46.316Z</time></trkpt><trkpt lat="42.0325067" lon="12.9707033"><ele>318.0</ele><time>2026-04-20T09:57:47.32Z</time></trkpt><trkpt lat="42.0327117" lon="12.9705783"><ele>318.0</ele><time>2026-04-20T09:57:48.317Z</time></trkpt><trkpt lat="42.0329267" lon="12.970435"><ele>318.0</ele><time>2026-04-20T09:57:49.318Z</time></trkpt><trkpt lat="42.03314" lon="12.9702767"><ele>318.6666666666667</ele><time>2026-04-20T09:57:50.316Z</time></trkpt><trkpt lat="42.0333283" lon="12.9701217"><ele>319.33333333333337</ele><time>2026-04-20T09:57:51.317Z</time></trkpt><trkpt lat="42.033485" lon="12.9699783"><ele>320.0</ele><time>2026-04-20T09:57:52.316Z</time></trkpt><trkpt lat="42.033625" lon="12.9698383"><ele>320.0</ele><time>2026-04-20T09:57:53.316Z</time></trkpt><trkpt lat="42.0337483" lon="12.9696733"><ele>320.0</ele><time>2026-04-20T09:57:54.316Z</time></trkpt><trkpt lat="42.033825" lon="12.9694717"><ele>320.0</ele><time>2026-04-20T09:57:55.318Z</time></trkpt><trkpt lat="42.033865" lon="12.96926"><ele>319.6666666666667</ele><time>2026-04-20T09:57:56.32Z</time></trkpt><trkpt lat="42.0338667" lon="12.969025"><ele>319.3333333333333</ele><time>2026-04-20T09:57:57.319Z</time></trkpt><trkpt lat="42.0338317" lon="12.9687617"><ele>319.0</ele><time>2026-04-20T09:57:58.319Z</time></trkpt><trkpt lat="42.03378" lon="12.9684717"><ele>320.5</ele><time>2026-04-20T09:57:59.318Z</time></trkpt><trkpt lat="42.0337183" lon="12.968155"><ele>322.0</ele><time>2026-04-20T09:58:00.319Z</time></trkpt><trkpt lat="42.03365" lon="12.967825"><ele>323.5</ele><time>2026-04-20T09:58:01.319Z</time></trkpt><trkpt lat="42.0335833" lon="12.96751"><ele>325.0</ele><time>2026-04-20T09:58:02.32Z</time></trkpt><trkpt lat="42.03353" lon="12.967215"><ele>325.0</ele><time>2026-04-20T09:58:03.319Z</time></trkpt><trkpt lat="42.0335017" lon="12.9669217"><ele>325.0</ele><time>2026-04-20T09:58:04.318Z</time></trkpt><trkpt lat="42.0334983" lon="12.9666233"><ele>325.0</ele><time>2026-04-20T09:58:05.319Z</time></trkpt><trkpt lat="42.033515" lon="12.966325"><ele>324.0</ele><time>2026-04-20T09:58:06.318Z</time></trkpt><trkpt lat="42.0335567" lon="12.9660317"><ele>323.0</ele><time>2026-04-20T09:58:07.319Z</time></trkpt><trkpt lat="42.033625" lon="12.96573"><ele>322.5</ele><time>2026-04-20T09:58:08.319Z</time></trkpt><trkpt lat="42.0337217" lon="12.9654183"><ele>322.0</ele><time>2026-04-20T09:58:09.319Z</time></trkpt><trkpt lat="42.0338267" lon="12.9650983"><ele>322.5</ele><time>2026-04-20T09:58:10.316Z</time></trkpt><trkpt lat="42.0339333" lon="12.9647833"><ele>323.0</ele><time>2026-04-20T09:58:11.319Z</time></trkpt><trkpt lat="42.0340367" lon="12.9644683"><ele>323.0</ele><time>2026-04-20T09:58:12.319Z</time></trkpt><trkpt lat="42.034135" lon="12.9641283"><ele>323.0</ele><time>2026-04-20T09:58:13.316Z</time></trkpt><trkpt lat="42.0342333" lon="12.963775"><ele>323.0</ele><time>2026-04-20T09:58:14.318Z</time></trkpt><trkpt lat="42.03432" lon="12.963435"><ele>323.0</ele><time>2026-04-20T09:58:15.32Z</time></trkpt><trkpt lat="42.034395" lon="12.9631183"><ele>322.5</ele><time>2026-04-20T09:58:16.319Z</time></trkpt><trkpt lat="42.0344533" lon="12.962805"><ele>322.0</ele><time>2026-04-20T09:58:17.319Z</time></trkpt><trkpt lat="42.034485" lon="12.9625033"><ele>321.0</ele><time>2026-04-20T09:58:18.317Z</time></trkpt><trkpt lat="42.034495" lon="12.9622217"><ele>320.0</ele><time>2026-04-20T09:58:19.317Z</time></trkpt><trkpt lat="42.0345017" lon="12.96196"><ele>319.0</ele><time>2026-04-20T09:58:20.318Z</time></trkpt><trkpt lat="42.0345233" lon="12.96172"><ele>319.66666666666663</ele><time>2026-04-20T09:58:21.317Z</time></trkpt><trkpt lat="42.034575" lon="12.96149"><ele>320.3333333333333</ele><time>2026-04-20T09:58:22.316Z</time></trkpt><trkpt lat="42.03466" lon="12.9612717"><ele>321.0</ele><time>2026-04-20T09:58:23.315Z</time></trkpt><trkpt lat="42.0347567" lon="12.9610667"><ele>321.0</ele><time>2026-04-20T09:58:24.316Z</time></trkpt><trkpt lat="42.0348467" lon="12.9608733"><ele>321.0</ele><time>2026-04-20T09:58:25.318Z</time></trkpt><trkpt lat="42.0349333" lon="12.96068"><ele>321.0</ele><time>2026-04-20T09:58:26.318Z</time></trkpt><trkpt lat="42.0350267" lon="12.9604817"><ele>321.0</ele><time>2026-04-20T09:58:27.317Z</time></trkpt><trkpt lat="42.0351267" lon="12.9602767"><ele>321.0</ele><time>2026-04-20T09:58:28.32Z</time></trkpt><trkpt lat="42.035225" lon="12.9600917"><ele>321.0</ele><time>2026-04-20T09:58:29.318Z</time></trkpt><trkpt lat="42.0353317" lon="12.9599367"><ele>321.0</ele><time>2026-04-20T09:58:30.32Z</time></trkpt><trkpt lat="42.0354483" lon="12.9598"><ele>321.0</ele><time>2026-04-20T09:58:31.317Z</time></trkpt><trkpt lat="42.0355867" lon="12.95969"><ele>321.0</ele><time>2026-04-20T09:58:32.32Z</time></trkpt><trkpt lat="42.0357433" lon="12.9596133"><ele>324.0</ele><time>2026-04-20T09:58:33.32Z</time></trkpt><trkpt lat="42.0358967" lon="12.9595467"><ele>327.0</ele><time>2026-04-20T09:58:34.318Z</time></trkpt><trkpt lat="42.0360467" lon="12.959485"><ele>330.0</ele><time>2026-04-20T09:58:35.319Z</time></trkpt><trkpt lat="42.0362017" lon="12.959425"><ele>330.0</ele><time>2026-04-20T09:58:36.319Z</time></trkpt><trkpt lat="42.0363583" lon="12.9593683"><ele>330.0</ele><time>2026-04-20T09:58:37.318Z</time></trkpt><trkpt lat="42.0365117" lon="12.9593183"><ele>330.0</ele><time>2026-04-20T09:58:38.32Z</time></trkpt><trkpt lat="42.0366533" lon="12.9592667"><ele>331.75</ele><time>2026-04-20T09:58:39.319Z</time></trkpt><trkpt lat="42.036785" lon="12.9592067"><ele>333.5</ele><time>2026-04-20T09:58:40.319Z</time></trkpt><trkpt lat="42.03691" lon="12.9591367"><ele>335.25</ele><time>2026-04-20T09:58:41.319Z</time></trkpt><trkpt lat="42.0370233" lon="12.9590483"><ele>337.0</ele><time>2026-04-20T09:58:42.318Z</time></trkpt><trkpt lat="42.037125" lon="12.9589567"><ele>334.25</ele><time>2026-04-20T09:58:43.317Z</time></trkpt><trkpt lat="42.03722" lon="12.95886"><ele>331.5</ele><time>2026-04-20T09:58:44.32Z</time></trkpt><trkpt lat="42.0373133" lon="12.95877"><ele>328.75</ele><time>2026-04-20T09:58:45.319Z</time></trkpt><trkpt lat="42.03741" lon="12.9586783"><ele>326.0</ele><time>2026-04-20T09:58:46.318Z</time></trkpt><trkpt lat="42.0375067" lon="12.9585733"><ele>326.0</ele><time>2026-04-20T09:58:47.319Z</time></trkpt><trkpt lat="42.0376083" lon="12.9584633"><ele>326.0</ele><time>2026-04-20T09:58:48.318Z</time></trkpt><trkpt lat="42.0377067" lon="12.95835"><ele>326.0</ele><time>2026-04-20T09:58:49.316Z</time></trkpt><trkpt lat="42.0377983" lon="12.95823"><ele>326.0</ele><time>2026-04-20T09:58:50.316Z</time></trkpt><trkpt lat="42.0378833" lon="12.9581017"><ele>324.5</ele><time>2026-04-20T09:58:51.317Z</time></trkpt><trkpt lat="42.0379583" lon="12.9579583"><ele>323.0</ele><time>2026-04-20T09:58:52.317Z</time></trkpt><trkpt lat="42.0380233" lon="12.9578017"><ele>321.5</ele><time>2026-04-20T09:58:53.317Z</time></trkpt><trkpt lat="42.0380683" lon="12.9576333"><ele>320.0</ele><time>2026-04-20T09:58:54.317Z</time></trkpt><trkpt lat="42.0380883" lon="12.9574567"><ele>319.5</ele><time>2026-04-20T09:58:55.318Z</time></trkpt><trkpt lat="42.038085" lon="12.9572717"><ele>319.0</ele><time>2026-04-20T09:58:56.318Z</time></trkpt><trkpt lat="42.0380583" lon="12.9570867"><ele>318.5</ele><time>2026-04-20T09:58:57.32Z</time></trkpt><trkpt lat="42.038015" lon="12.956905"><ele>318.0</ele><time>2026-04-20T09:58:58.321Z</time></trkpt><trkpt lat="42.037965" lon="12.9567233"><ele>317.75</ele><time>2026-04-20T09:58:59.319Z</time></trkpt><trkpt lat="42.0379067" lon="12.9565467"><ele>317.5</ele><time>2026-04-20T09:59:00.32Z</time></trkpt><trkpt lat="42.03784" lon="12.9563783"><ele>317.25</ele><time>2026-04-20T09:59:01.32Z</time></trkpt><trkpt lat="42.0377667" lon="12.9562017"><ele>317.0</ele><time>2026-04-20T09:59:02.319Z</time></trkpt><trkpt lat="42.0376883" lon="12.956005"><ele>316.6666666666667</ele><time>2026-04-20T09:59:03.319Z</time></trkpt><trkpt lat="42.0376017" lon="12.9557733"><ele>316.3333333333333</ele><time>2026-04-20T09:59:04.319Z</time></trkpt><trkpt lat="42.037505" lon="12.95552"><ele>316.0</ele><time>2026-04-20T09:59:05.318Z</time></trkpt><trkpt lat="42.0374033" lon="12.9552733"><ele>316.0</ele><time>2026-04-20T09:59:06.319Z</time></trkpt><trkpt lat="42.037295" lon="12.9550433"><ele>316.0</ele><time>2026-04-20T09:59:07.319Z</time></trkpt><trkpt lat="42.0371833" lon="12.9548117"><ele>316.0</ele><time>2026-04-20T09:59:08.319Z</time></trkpt><trkpt lat="42.0370567" lon="12.9545617"><ele>316.5</ele><time>2026-04-20T09:59:09.319Z</time></trkpt><trkpt lat="42.0369283" lon="12.9542933"><ele>317.0</ele><time>2026-04-20T09:59:10.319Z</time></trkpt><trkpt lat="42.0367917" lon="12.9540267"><ele>317.5</ele><time>2026-04-20T09:59:11.319Z</time></trkpt><trkpt lat="42.0366583" lon="12.95376"><ele>318.0</ele><time>2026-04-20T09:59:12.319Z</time></trkpt><trkpt lat="42.0365267" lon="12.9534983"><ele>317.0</ele><time>2026-04-20T09:59:13.316Z</time></trkpt><trkpt lat="42.0363983" lon="12.953235"><ele>316.0</ele><time>2026-04-20T09:59:14.317Z</time></trkpt><trkpt lat="42.0362667" lon="12.9529567"><ele>316.0</ele><time>2026-04-20T09:59:15.317Z</time></trkpt><trkpt lat="42.0361267" lon="12.9526583"><ele>316.0</ele><time>2026-04-20T09:59:16.317Z</time></trkpt><trkpt lat="42.03598" lon="12.952355"><ele>315.0</ele><time>2026-04-20T09:59:17.318Z</time></trkpt><trkpt lat="42.03582" lon="12.9520433"><ele>314.0</ele><time>2026-04-20T09:59:18.316Z</time></trkpt><trkpt lat="42.0356417" lon="12.9517183"><ele>313.0</ele><time>2026-04-20T09:59:19.316Z</time></trkpt><trkpt lat="42.0354533" lon="12.951395"><ele>312.0</ele><time>2026-04-20T09:59:20.316Z</time></trkpt><trkpt lat="42.0352733" lon="12.951095"><ele>312.0</ele><time>2026-04-20T09:59:21.317Z</time></trkpt><trkpt lat="42.0351083" lon="12.9508183"><ele>312.0</ele><time>2026-04-20T09:59:22.317Z</time></trkpt><trkpt lat="42.0349633" lon="12.9505567"><ele>312.0</ele><time>2026-04-20T09:59:23.316Z</time></trkpt><trkpt lat="42.0348383" lon="12.9502917"><ele>312.0</ele><time>2026-04-20T09:59:24.316Z</time></trkpt><trkpt lat="42.034735" lon="12.9500117"><ele>313.5</ele><time>2026-04-20T09:59:25.318Z</time></trkpt><trkpt lat="42.0346617" lon="12.9497133"><ele>315.0</ele><time>2026-04-20T09:59:26.319Z</time></trkpt><trkpt lat="42.0346017" lon="12.9494033"><ele>315.0</ele><time>2026-04-20T09:59:27.319Z</time></trkpt><trkpt lat="42.03454" lon="12.9490917"><ele>315.0</ele><time>2026-04-20T09:59:28.32Z</time></trkpt><trkpt lat="42.0344717" lon="12.94877"><ele>315.0</ele><time>2026-04-20T09:59:29.319Z</time></trkpt><trkpt lat="42.0344033" lon="12.9484467"><ele>315.0</ele><time>2026-04-20T09:59:30.32Z</time></trkpt><trkpt lat="42.034325" lon="12.9481433"><ele>316.0</ele><time>2026-04-20T09:59:31.32Z</time></trkpt><trkpt lat="42.0342367" lon="12.9478633"><ele>317.0</ele><time>2026-04-20T09:59:32.32Z</time></trkpt><trkpt lat="42.0341633" lon="12.9476083"><ele>318.0</ele><time>2026-04-20T09:59:33.318Z</time></trkpt><trkpt lat="42.03411" lon="12.94735"><ele>316.0</ele><time>2026-04-20T09:59:34.32Z</time></trkpt><trkpt lat="42.03408" lon="12.9470867"><ele>314.0</ele><time>2026-04-20T09:59:35.319Z</time></trkpt><trkpt lat="42.0340433" lon="12.9468333"><ele>312.0</ele><time>2026-04-20T09:59:36.318Z</time></trkpt><trkpt lat="42.0339733" lon="12.9465967"><ele>312.0</ele><time>2026-04-20T09:59:37.321Z</time></trkpt><trkpt lat="42.033865" lon="12.94638"><ele>312.0</ele><time>2026-04-20T09:59:38.319Z</time></trkpt><trkpt lat="42.0337267" lon="12.9461933"><ele>312.0</ele><time>2026-04-20T09:59:39.32Z</time></trkpt><trkpt lat="42.0335667" lon="12.946045"><ele>312.0</ele><time>2026-04-20T09:59:40.32Z</time></trkpt><trkpt lat="42.0333717" lon="12.9459383"><ele>312.0</ele><time>2026-04-20T09:59:41.32Z</time></trkpt><trkpt lat="42.033155" lon="12.94587"><ele>312.0</ele><time>2026-04-20T09:59:42.318Z</time></trkpt><trkpt lat="42.0329217" lon="12.9458217"><ele>313.0</ele><time>2026-04-20T09:59:43.318Z</time></trkpt><trkpt lat="42.03269" lon="12.945765"><ele>314.0</ele><time>2026-04-20T09:59:44.32Z</time></trkpt><trkpt lat="42.0324733" lon="12.9456967"><ele>312.33333333333337</ele><time>2026-04-20T09:59:45.32Z</time></trkpt><trkpt lat="42.0322767" lon="12.9456"><ele>310.6666666666667</ele><time>2026-04-20T09:59:46.319Z</time></trkpt><trkpt lat="42.03209" lon="12.9454667"><ele>309.0</ele><time>2026-04-20T09:59:47.319Z</time></trkpt><trkpt lat="42.0318933" lon="12.945295"><ele>309.0</ele><time>2026-04-20T09:59:48.317Z</time></trkpt><trkpt lat="42.031695" lon="12.9451233"><ele>309.0</ele><time>2026-04-20T09:59:49.317Z</time></trkpt><trkpt lat="42.0314917" lon="12.9449633"><ele>310.0</ele><time>2026-04-20T09:59:50.317Z</time></trkpt><trkpt lat="42.0312733" lon="12.9448333"><ele>311.0</ele><time>2026-04-20T09:59:51.318Z</time></trkpt><trkpt lat="42.0310567" lon="12.9447367"><ele>311.0</ele><time>2026-04-20T09:59:52.317Z</time></trkpt><trkpt lat="42.0308517" lon="12.94465"><ele>311.0</ele><time>2026-04-20T09:59:53.318Z</time></trkpt><trkpt lat="42.0306517" lon="12.9445667"><ele>311.0</ele><time>2026-04-20T09:59:54.317Z</time></trkpt><trkpt lat="42.03046" lon="12.9444833"><ele>310.0</ele><time>2026-04-20T09:59:55.319Z</time></trkpt><trkpt lat="42.03027" lon="12.9444083"><ele>309.0</ele><time>2026-04-20T09:59:56.319Z</time></trkpt><trkpt lat="42.0300867" lon="12.94433"><ele>308.0</ele><time>2026-04-20T09:59:57.318Z</time></trkpt><trkpt lat="42.02991" lon="12.94424"><ele>307.6666666666667</ele><time>2026-04-20T09:59:58.32Z</time></trkpt><trkpt lat="42.0297433" lon="12.9441367"><ele>307.3333333333333</ele><time>2026-04-20T09:59:59.317Z</time></trkpt><trkpt lat="42.029595" lon="12.944035"><ele>307.0</ele><time>2026-04-20T10:00:00.317Z</time></trkpt><trkpt lat="42.02946" lon="12.9439433"><ele>307.0</ele><time>2026-04-20T10:00:01.318Z</time></trkpt><trkpt lat="42.0293383" lon="12.9438633"><ele>307.0</ele><time>2026-04-20T10:00:02.317Z</time></trkpt><trkpt lat="42.0292267" lon="12.9437917"><ele>307.0</ele><time>2026-04-20T10:00:03.316Z</time></trkpt><trkpt lat="42.02912" lon="12.9437217"><ele>307.0</ele><time>2026-04-20T10:00:04.316Z</time></trkpt><trkpt lat="42.02902" lon="12.94365"><ele>306.75</ele><time>2026-04-20T10:00:05.317Z</time></trkpt><trkpt lat="42.0289283" lon="12.9435617"><ele>306.5</ele><time>2026-04-20T10:00:06.318Z</time></trkpt><trkpt lat="42.0288383" lon="12.9434467"><ele>306.25</ele><time>2026-04-20T10:00:07.317Z</time></trkpt><trkpt lat="42.02875" lon="12.9433167"><ele>306.0</ele><time>2026-04-20T10:00:08.317Z</time></trkpt><trkpt lat="42.02867" lon="12.9431667"><ele>306.0</ele><time>2026-04-20T10:00:09.318Z</time></trkpt><trkpt lat="42.0286" lon="12.9429917"><ele>306.0</ele><time>2026-04-20T10:00:10.316Z</time></trkpt><trkpt lat="42.0285433" lon="12.9427917"><ele>306.0</ele><time>2026-04-20T10:00:11.318Z</time></trkpt><trkpt lat="42.028495" lon="12.942565"><ele>304.6666666666667</ele><time>2026-04-20T10:00:12.318Z</time></trkpt><trkpt lat="42.028455" lon="12.942305"><ele>303.33333333333337</ele><time>2026-04-20T10:00:13.317Z</time></trkpt><trkpt lat="42.0284267" lon="12.9420083"><ele>302.0</ele><time>2026-04-20T10:00:14.317Z</time></trkpt><trkpt lat="42.0284083" lon="12.941705"><ele>301.33333333333337</ele><time>2026-04-20T10:00:15.317Z</time></trkpt><trkpt lat="42.028395" lon="12.941415"><ele>300.6666666666667</ele><time>2026-04-20T10:00:16.319Z</time></trkpt><trkpt lat="42.0283833" lon="12.94115"><ele>300.0</ele><time>2026-04-20T10:00:17.317Z</time></trkpt><trkpt lat="42.0283717" lon="12.9409067"><ele>300.3333333333333</ele><time>2026-04-20T10:00:18.317Z</time></trkpt><trkpt lat="42.02836" lon="12.9406783"><ele>300.66666666666663</ele><time>2026-04-20T10:00:19.316Z</time></trkpt><trkpt lat="42.0283483" lon="12.9404483"><ele>301.0</ele><time>2026-04-20T10:00:20.318Z</time></trkpt><trkpt lat="42.0283317" lon="12.9402067"><ele>300.66666666666663</ele><time>2026-04-20T10:00:21.318Z</time></trkpt><trkpt lat="42.0283083" lon="12.9399417"><ele>300.3333333333333</ele><time>2026-04-20T10:00:22.316Z</time></trkpt><trkpt lat="42.0282783" lon="12.9396567"><ele>300.0</ele><time>2026-04-20T10:00:23.316Z</time></trkpt><trkpt lat="42.02824" lon="12.9393533"><ele>300.5</ele><time>2026-04-20T10:00:24.318Z</time></trkpt><trkpt lat="42.028195" lon="12.9390333"><ele>301.0</ele><time>2026-04-20T10:00:25.318Z</time></trkpt><trkpt lat="42.028145" lon="12.9387017"><ele>302.0</ele><time>2026-04-20T10:00:26.319Z</time></trkpt><trkpt lat="42.0280767" lon="12.9383633"><ele>303.0</ele><time>2026-04-20T10:00:27.319Z</time></trkpt><trkpt lat="42.027985" lon="12.9380183"><ele>303.0</ele><time>2026-04-20T10:00:28.319Z</time></trkpt><trkpt lat="42.0278767" lon="12.93767"><ele>303.0</ele><time>2026-04-20T10:00:29.317Z</time></trkpt><trkpt lat="42.0277483" lon="12.93732"><ele>303.5</ele><time>2026-04-20T10:00:30.316Z</time></trkpt><trkpt lat="42.0276017" lon="12.9369767"><ele>304.0</ele><time>2026-04-20T10:00:31.316Z</time></trkpt><trkpt lat="42.0274383" lon="12.9366433"><ele>304.0</ele><time>2026-04-20T10:00:32.317Z</time></trkpt><trkpt lat="42.0272617" lon="12.9363117"><ele>304.0</ele><time>2026-04-20T10:00:33.317Z</time></trkpt><trkpt lat="42.0270733" lon="12.9359717"><ele>304.5</ele><time>2026-04-20T10:00:34.316Z</time></trkpt><trkpt lat="42.0268783" lon="12.9356283"><ele>305.0</ele><time>2026-04-20T10:00:35.318Z</time></trkpt><trkpt lat="42.0266917" lon="12.9352983"><ele>305.5</ele><time>2026-04-20T10:00:36.317Z</time></trkpt><trkpt lat="42.0265067" lon="12.9349783"><ele>306.0</ele><time>2026-04-20T10:00:37.317Z</time></trkpt><trkpt lat="42.0263233" lon="12.934655"><ele>306.0</ele><time>2026-04-20T10:00:38.317Z</time></trkpt><trkpt lat="42.026135" lon="12.9343217"><ele>306.0</ele><time>2026-04-20T10:00:39.318Z</time></trkpt><trkpt lat="42.0259433" lon="12.9339883"><ele>304.5</ele><time>2026-04-20T10:00:40.317Z</time></trkpt><trkpt lat="42.02576" lon="12.9336733"><ele>303.0</ele><time>2026-04-20T10:00:41.318Z</time></trkpt><trkpt lat="42.0255783" lon="12.9333617"><ele>303.0</ele><time>2026-04-20T10:00:42.32Z</time></trkpt><trkpt lat="42.0253983" lon="12.9330467"><ele>303.0</ele><time>2026-04-20T10:00:43.32Z</time></trkpt><trkpt lat="42.025215" lon="12.9327217"><ele>305.5</ele><time>2026-04-20T10:00:44.32Z</time></trkpt><trkpt lat="42.0250267" lon="12.9323867"><ele>308.0</ele><time>2026-04-20T10:00:45.32Z</time></trkpt><trkpt lat="42.0248267" lon="12.9320517"><ele>305.0</ele><time>2026-04-20T10:00:46.319Z</time></trkpt><trkpt lat="42.0246233" lon="12.93172"><ele>302.0</ele><time>2026-04-20T10:00:47.319Z</time></trkpt><trkpt lat="42.0244233" lon="12.9314067"><ele>302.0</ele><time>2026-04-20T10:00:48.317Z</time></trkpt><trkpt lat="42.024235" lon="12.9311167"><ele>302.0</ele><time>2026-04-20T10:00:49.318Z</time></trkpt><trkpt lat="42.0240517" lon="12.9308467"><ele>300.5</ele><time>2026-04-20T10:00:50.317Z</time></trkpt><trkpt lat="42.0238633" lon="12.9305917"><ele>299.0</ele><time>2026-04-20T10:00:51.318Z</time></trkpt><trkpt lat="42.0236733" lon="12.930345"><ele>299.0</ele><time>2026-04-20T10:00:52.316Z</time></trkpt><trkpt lat="42.0234717" lon="12.930105"><ele>299.0</ele><time>2026-04-20T10:00:53.317Z</time></trkpt><trkpt lat="42.02325" lon="12.9298683"><ele>297.5</ele><time>2026-04-20T10:00:54.317Z</time></trkpt><trkpt lat="42.02302" lon="12.9296333"><ele>296.0</ele><time>2026-04-20T10:00:55.319Z</time></trkpt><trkpt lat="42.0227783" lon="12.929405"><ele>297.0</ele><time>2026-04-20T10:00:56.319Z</time></trkpt><trkpt lat="42.022535" lon="12.9291783"><ele>298.0</ele><time>2026-04-20T10:00:57.319Z</time></trkpt><trkpt lat="42.0222917" lon="12.9289633"><ele>298.0</ele><time>2026-04-20T10:00:58.319Z</time></trkpt><trkpt lat="42.02204" lon="12.9287567"><ele>298.0</ele><time>2026-04-20T10:00:59.316Z</time></trkpt><trkpt lat="42.0217767" lon="12.9285617"><ele>300.0</ele><time>2026-04-20T10:01:00.318Z</time></trkpt><trkpt lat="42.0215067" lon="12.9283717"><ele>302.0</ele><time>2026-04-20T10:01:01.317Z</time></trkpt><trkpt lat="42.0212367" lon="12.9281817"><ele>302.0</ele><time>2026-04-20T10:01:02.317Z</time></trkpt><trkpt lat="42.0209767" lon="12.927985"><ele>302.0</ele><time>2026-04-20T10:01:03.316Z</time></trkpt><trkpt lat="42.0207417" lon="12.9277967"><ele>300.5</ele><time>2026-04-20T10:01:04.32Z</time></trkpt><trkpt lat="42.0205333" lon="12.9276333"><ele>299.0</ele><time>2026-04-20T10:01:05.32Z</time></trkpt><trkpt lat="42.02034" lon="12.9274733"><ele>299.0</ele><time>2026-04-20T10:01:06.318Z</time></trkpt><trkpt lat="42.0201567" lon="12.9273183"><ele>299.0</ele><time>2026-04-20T10:01:07.317Z</time></trkpt><trkpt lat="42.01997" lon="12.92716"><ele>299.0</ele><time>2026-04-20T10:01:08.318Z</time></trkpt><trkpt lat="42.01978" lon="12.927"><ele>299.0</ele><time>2026-04-20T10:01:09.318Z</time></trkpt><trkpt lat="42.0195833" lon="12.9268417"><ele>299.0</ele><time>2026-04-20T10:01:10.318Z</time></trkpt><trkpt lat="42.0193817" lon="12.9266783"><ele>299.0</ele><time>2026-04-20T10:01:11.316Z</time></trkpt><trkpt lat="42.0191767" lon="12.9265133"><ele>299.0</ele><time>2026-04-20T10:01:12.32Z</time></trkpt><trkpt lat="42.018975" lon="12.926345"><ele>299.33333333333337</ele><time>2026-04-20T10:01:13.319Z</time></trkpt><trkpt lat="42.0187933" lon="12.9261833"><ele>299.6666666666667</ele><time>2026-04-20T10:01:14.318Z</time></trkpt><trkpt lat="42.0186383" lon="12.9260267"><ele>300.0</ele><time>2026-04-20T10:01:15.317Z</time></trkpt><trkpt lat="42.018505" lon="12.92587"><ele>300.0</ele><time>2026-04-20T10:01:16.32Z</time></trkpt><trkpt lat="42.0183817" lon="12.9257033"><ele>300.0</ele><time>2026-04-20T10:01:17.32Z</time></trkpt><trkpt lat="42.01826" lon="12.9255417"><ele>300.0</ele><time>2026-04-20T10:01:18.316Z</time></trkpt><trkpt lat="42.0181417" lon="12.9253833"><ele>299.75</ele><time>2026-04-20T10:01:19.317Z</time></trkpt><trkpt lat="42.0180367" lon="12.9252317"><ele>299.5</ele><time>2026-04-20T10:01:20.318Z</time></trkpt><trkpt lat="42.0179533" lon="12.9250917"><ele>299.25</ele><time>2026-04-20T10:01:21.316Z</time></trkpt><trkpt lat="42.0178867" lon="12.92495"><ele>299.0</ele><time>2026-04-20T10:01:22.317Z</time></trkpt><trkpt lat="42.0178317" lon="12.9248083"><ele>299.0</ele><time>2026-04-20T10:01:23.315Z</time></trkpt><trkpt lat="42.0177783" lon="12.9246583"><ele>299.0</ele><time>2026-04-20T10:01:24.317Z</time></trkpt><trkpt lat="42.01773" lon="12.9244867"><ele>299.0</ele><time>2026-04-20T10:01:25.318Z</time></trkpt><trkpt lat="42.0176817" lon="12.9242917"><ele>299.0</ele><time>2026-04-20T10:01:26.317Z</time></trkpt><trkpt lat="42.0176267" lon="12.9240783"><ele>299.0</ele><time>2026-04-20T10:01:27.318Z</time></trkpt><trkpt lat="42.017565" lon="12.9238517"><ele>299.0</ele><time>2026-04-20T10:01:28.316Z</time></trkpt><trkpt lat="42.0174983" lon="12.9236083"><ele>299.0</ele><time>2026-04-20T10:01:29.317Z</time></trkpt><trkpt lat="42.01743" lon="12.923345"><ele>300.0</ele><time>2026-04-20T10:01:30.317Z</time></trkpt><trkpt lat="42.0173583" lon="12.92306"><ele>301.0</ele><time>2026-04-20T10:01:31.317Z</time></trkpt><trkpt lat="42.0172833" lon="12.9227517"><ele>302.0</ele><time>2026-04-20T10:01:32.317Z</time></trkpt><trkpt lat="42.0172067" lon="12.9224383"><ele>303.0</ele><time>2026-04-20T10:01:33.316Z</time></trkpt><trkpt lat="42.0171283" lon="12.922125"><ele>303.0</ele><time>2026-04-20T10:01:34.316Z</time></trkpt><trkpt lat="42.0170467" lon="12.921815"><ele>303.0</ele><time>2026-04-20T10:01:35.318Z</time></trkpt><trkpt lat="42.016965" lon="12.9215133"><ele>304.5</ele><time>2026-04-20T10:01:36.317Z</time></trkpt><trkpt lat="42.0168817" lon="12.92122"><ele>306.0</ele><time>2026-04-20T10:01:37.317Z</time></trkpt><trkpt lat="42.016805" lon="12.920925"><ele>307.0</ele><time>2026-04-20T10:01:38.317Z</time></trkpt><trkpt lat="42.0167333" lon="12.9206317"><ele>308.0</ele><time>2026-04-20T10:01:39.317Z</time></trkpt><trkpt lat="42.0166633" lon="12.9203433"><ele>306.33333333333337</ele><time>2026-04-20T10:01:40.316Z</time></trkpt><trkpt lat="42.0165933" lon="12.920075"><ele>304.6666666666667</ele><time>2026-04-20T10:01:41.316Z</time></trkpt><trkpt lat="42.0165233" lon="12.91983"><ele>303.0</ele><time>2026-04-20T10:01:42.317Z</time></trkpt><trkpt lat="42.01646" lon="12.9196"><ele>303.0</ele><time>2026-04-20T10:01:43.317Z</time></trkpt><trkpt lat="42.0164017" lon="12.9193833"><ele>303.0</ele><time>2026-04-20T10:01:44.317Z</time></trkpt><trkpt lat="42.0163483" lon="12.9191867"><ele>303.0</ele><time>2026-04-20T10:01:45.317Z</time></trkpt><trkpt lat="42.016305" lon="12.9190017"><ele>304.0</ele><time>2026-04-20T10:01:46.319Z</time></trkpt><trkpt lat="42.01626" lon="12.9188317"><ele>305.0</ele><time>2026-04-20T10:01:47.319Z</time></trkpt><trkpt lat="42.0162167" lon="12.91868"><ele>306.0</ele><time>2026-04-20T10:01:48.319Z</time></trkpt><trkpt lat="42.0161767" lon="12.91855"><ele>307.0</ele><time>2026-04-20T10:01:49.32Z</time></trkpt><trkpt lat="42.01614" lon="12.9184267"><ele>308.0</ele><time>2026-04-20T10:01:50.318Z</time></trkpt><trkpt lat="42.016105" lon="12.9183117"><ele>309.0</ele><time>2026-04-20T10:01:51.319Z</time></trkpt><trkpt lat="42.0160733" lon="12.9181917"><ele>310.0</ele><time>2026-04-20T10:01:52.318Z</time></trkpt><trkpt lat="42.0160417" lon="12.918075"><ele>311.0</ele><time>2026-04-20T10:01:53.319Z</time></trkpt><trkpt lat="42.0160133" lon="12.9179583"><ele>312.0</ele><time>2026-04-20T10:01:54.319Z</time></trkpt><trkpt lat="42.0159817" lon="12.917845"><ele>312.0</ele><time>2026-04-20T10:01:55.32Z</time></trkpt><trkpt lat="42.0159533" lon="12.91773"><ele>312.0</ele><time>2026-04-20T10:01:56.319Z</time></trkpt><trkpt lat="42.0159233" lon="12.9176117"><ele>312.0</ele><time>2026-04-20T10:01:57.318Z</time></trkpt><trkpt lat="42.0158917" lon="12.9174867"><ele>312.0</ele><time>2026-04-20T10:01:58.319Z</time></trkpt><trkpt lat="42.0158583" lon="12.9173567"><ele>312.0</ele><time>2026-04-20T10:01:59.317Z</time></trkpt><trkpt lat="42.0158233" lon="12.9172183"><ele>310.75</ele><time>2026-04-20T10:02:00.317Z</time></trkpt><trkpt lat="42.015785" lon="12.91707"><ele>309.5</ele><time>2026-04-20T10:02:01.317Z</time></trkpt><trkpt lat="42.015745" lon="12.91691"><ele>308.25</ele><time>2026-04-20T10:02:02.317Z</time></trkpt><trkpt lat="42.0157" lon="12.9167367"><ele>307.0</ele><time>2026-04-20T10:02:03.316Z</time></trkpt><trkpt lat="42.0156517" lon="12.9165483"><ele>307.0</ele><time>2026-04-20T10:02:04.315Z</time></trkpt><trkpt lat="42.0156033" lon="12.9163433"><ele>307.0</ele><time>2026-04-20T10:02:05.317Z</time></trkpt><trkpt lat="42.0155517" lon="12.9161317"><ele>307.0</ele><time>2026-04-20T10:02:06.317Z</time></trkpt><trkpt lat="42.0155" lon="12.9159267"><ele>308.66666666666663</ele><time>2026-04-20T10:02:07.316Z</time></trkpt><trkpt lat="42.0154467" lon="12.9157283"><ele>310.3333333333333</ele><time>2026-04-20T10:02:08.317Z</time></trkpt><trkpt lat="42.0153933" lon="12.9155217"><ele>312.0</ele><time>2026-04-20T10:02:09.316Z</time></trkpt><trkpt lat="42.01534" lon="12.91531"><ele>312.0</ele><time>2026-04-20T10:02:10.316Z</time></trkpt><trkpt lat="42.015285" lon="12.9150967"><ele>312.0</ele><time>2026-04-20T10:02:11.317Z</time></trkpt><trkpt lat="42.0152383" lon="12.9148767"><ele>312.0</ele><time>2026-04-20T10:02:12.319Z</time></trkpt><trkpt lat="42.0151983" lon="12.9146533"><ele>315.6666666666667</ele><time>2026-04-20T10:02:13.32Z</time></trkpt><trkpt lat="42.0151667" lon="12.9144217"><ele>319.33333333333337</ele><time>2026-04-20T10:02:14.319Z</time></trkpt><trkpt lat="42.0151517" lon="12.9141783"><ele>323.0</ele><time>2026-04-20T10:02:15.319Z</time></trkpt><trkpt lat="42.0151533" lon="12.9139217"><ele>324.6666666666667</ele><time>2026-04-20T10:02:16.318Z</time></trkpt><trkpt lat="42.015175" lon="12.9136533"><ele>326.3333333333333</ele><time>2026-04-20T10:02:17.319Z</time></trkpt><trkpt lat="42.0152167" lon="12.9133833"><ele>328.0</ele><time>2026-04-20T10:02:18.32Z</time></trkpt><trkpt lat="42.0152717" lon="12.9131217"><ele>329.3333333333333</ele><time>2026-04-20T10:02:19.319Z</time></trkpt><trkpt lat="42.01533" lon="12.9128767"><ele>330.6666666666667</ele><time>2026-04-20T10:02:20.319Z</time></trkpt><trkpt lat="42.01538" lon="12.9126417"><ele>332.0</ele><time>2026-04-20T10:02:21.32Z</time></trkpt><trkpt lat="42.0154333" lon="12.9123983"><ele>333.33333333333337</ele><time>2026-04-20T10:02:22.319Z</time></trkpt><trkpt lat="42.0154933" lon="12.9121483"><ele>334.6666666666667</ele><time>2026-04-20T10:02:23.32Z</time></trkpt><trkpt lat="42.01556" lon="12.9118883"><ele>336.0</ele><time>2026-04-20T10:02:24.32Z</time></trkpt><trkpt lat="42.015625" lon="12.9116217"><ele>336.3333333333333</ele><time>2026-04-20T10:02:25.319Z</time></trkpt><trkpt lat="42.0156917" lon="12.9113517"><ele>336.66666666666663</ele><time>2026-04-20T10:02:26.318Z</time></trkpt><trkpt lat="42.0157567" lon="12.9110833"><ele>337.0</ele><time>2026-04-20T10:02:27.32Z</time></trkpt><trkpt lat="42.01582" lon="12.91082"><ele>337.3333333333333</ele><time>2026-04-20T10:02:28.32Z</time></trkpt><trkpt lat="42.0158783" lon="12.9105683"><ele>337.6666666666667</ele><time>2026-04-20T10:02:29.32Z</time></trkpt><trkpt lat="42.0159367" lon="12.91033"><ele>338.0</ele><time>2026-04-20T10:02:30.319Z</time></trkpt><trkpt lat="42.0159967" lon="12.9101"><ele>338.0</ele><time>2026-04-20T10:02:31.319Z</time></trkpt><trkpt lat="42.0160683" lon="12.9098717"><ele>338.0</ele><time>2026-04-20T10:02:32.319Z</time></trkpt><trkpt lat="42.0161517" lon="12.9096483"><ele>338.0</ele><time>2026-04-20T10:02:33.316Z</time></trkpt><trkpt lat="42.0162433" lon="12.9094317"><ele>332.6666666666667</ele><time>2026-04-20T10:02:34.317Z</time></trkpt><trkpt lat="42.0163267" lon="12.9092217"><ele>327.3333333333333</ele><time>2026-04-20T10:02:35.316Z</time></trkpt><trkpt lat="42.0164017" lon="12.9090233"><ele>322.0</ele><time>2026-04-20T10:02:36.317Z</time></trkpt><trkpt lat="42.016465" lon="12.9088467"><ele>322.0</ele><time>2026-04-20T10:02:37.317Z</time></trkpt><trkpt lat="42.0165283" lon="12.90869"><ele>322.0</ele><time>2026-04-20T10:02:38.318Z</time></trkpt><trkpt lat="42.0165983" lon="12.9085517"><ele>322.0</ele><time>2026-04-20T10:02:39.318Z</time></trkpt><trkpt lat="42.0166733" lon="12.90843"><ele>322.0</ele><time>2026-04-20T10:02:40.317Z</time></trkpt><trkpt lat="42.0167617" lon="12.908325"><ele>325.25</ele><time>2026-04-20T10:02:41.316Z</time></trkpt><trkpt lat="42.01687" lon="12.9082383"><ele>328.5</ele><time>2026-04-20T10:02:42.319Z</time></trkpt><trkpt lat="42.01699" lon="12.9081633"><ele>331.75</ele><time>2026-04-20T10:02:43.316Z</time></trkpt><trkpt lat="42.0171183" lon="12.9080917"><ele>335.0</ele><time>2026-04-20T10:02:44.316Z</time></trkpt><trkpt lat="42.01725" lon="12.9080217"><ele>335.0</ele><time>2026-04-20T10:02:45.321Z</time></trkpt><trkpt lat="42.01738" lon="12.9079467"><ele>335.0</ele><time>2026-04-20T10:02:46.319Z</time></trkpt><trkpt lat="42.0175033" lon="12.9078583"><ele>335.0</ele><time>2026-04-20T10:02:47.316Z</time></trkpt><trkpt lat="42.0176183" lon="12.907755"><ele>335.0</ele><time>2026-04-20T10:02:48.318Z</time></trkpt><trkpt lat="42.0177283" lon="12.907635"><ele>336.0</ele><time>2026-04-20T10:02:49.32Z</time></trkpt><trkpt lat="42.0178233" lon="12.9074933"><ele>337.0</ele><time>2026-04-20T10:02:50.317Z</time></trkpt><trkpt lat="42.0179083" lon="12.907335"><ele>338.0</ele><time>2026-04-20T10:02:51.317Z</time></trkpt><trkpt lat="42.0179917" lon="12.9071767"><ele>339.0</ele><time>2026-04-20T10:02:52.316Z</time></trkpt><trkpt lat="42.0180733" lon="12.907015"><ele>339.0</ele><time>2026-04-20T10:02:53.319Z</time></trkpt><trkpt lat="42.0181567" lon="12.90684"><ele>339.0</ele><time>2026-04-20T10:02:54.32Z</time></trkpt><trkpt lat="42.018245" lon="12.9066533"><ele>339.0</ele><time>2026-04-20T10:02:55.318Z</time></trkpt><trkpt lat="42.0183367" lon="12.9064617"><ele>339.6666666666667</ele><time>2026-04-20T10:02:56.319Z</time></trkpt><trkpt lat="42.0184283" lon="12.9062683"><ele>340.33333333333337</ele><time>2026-04-20T10:02:57.319Z</time></trkpt><trkpt lat="42.01852" lon="12.906075"><ele>341.0</ele><time>2026-04-20T10:02:58.317Z</time></trkpt><trkpt lat="42.0186133" lon="12.9058783"><ele>338.6666666666667</ele><time>2026-04-20T10:02:59.317Z</time></trkpt><trkpt lat="42.018715" lon="12.9056767"><ele>336.3333333333333</ele><time>2026-04-20T10:03:00.318Z</time></trkpt><trkpt lat="42.0188217" lon="12.90547"><ele>334.0</ele><time>2026-04-20T10:03:01.318Z</time></trkpt><trkpt lat="42.0189283" lon="12.9052567"><ele>336.66666666666663</ele><time>2026-04-20T10:03:02.319Z</time></trkpt><trkpt lat="42.0190333" lon="12.9050383"><ele>339.3333333333333</ele><time>2026-04-20T10:03:03.318Z</time></trkpt><trkpt lat="42.0191433" lon="12.9048167"><ele>342.0</ele><time>2026-04-20T10:03:04.317Z</time></trkpt><trkpt lat="42.01926" lon="12.9045967"><ele>342.0</ele><time>2026-04-20T10:03:05.317Z</time></trkpt><trkpt lat="42.0193833" lon="12.904385"><ele>342.0</ele><time>2026-04-20T10:03:06.317Z</time></trkpt><trkpt lat="42.0195117" lon="12.9041917"><ele>342.0</ele><time>2026-04-20T10:03:07.318Z</time></trkpt><trkpt lat="42.01964" lon="12.9040133"><ele>338.0</ele><time>2026-04-20T10:03:08.318Z</time></trkpt><trkpt lat="42.0197667" lon="12.9038467"><ele>334.0</ele><time>2026-04-20T10:03:09.317Z</time></trkpt><trkpt lat="42.0198817" lon="12.903685"><ele>330.0</ele><time>2026-04-20T10:03:10.317Z</time></trkpt><trkpt lat="42.0199817" lon="12.90353"><ele>332.25</ele><time>2026-04-20T10:03:11.317Z</time></trkpt><trkpt lat="42.020055" lon="12.903365"><ele>334.5</ele><time>2026-04-20T10:03:12.318Z</time></trkpt><trkpt lat="42.0200967" lon="12.9031883"><ele>336.75</ele><time>2026-04-20T10:03:13.321Z</time></trkpt><trkpt lat="42.0200867" lon="12.9030017"><ele>339.0</ele><time>2026-04-20T10:03:14.318Z</time></trkpt><trkpt lat="42.0200283" lon="12.902815"><ele>337.3333333333333</ele><time>2026-04-20T10:03:15.319Z</time></trkpt><trkpt lat="42.0199217" lon="12.9026417"><ele>335.66666666666663</ele><time>2026-04-20T10:03:16.32Z</time></trkpt><trkpt lat="42.0197883" lon="12.902495"><ele>334.0</ele><time>2026-04-20T10:03:17.319Z</time></trkpt><trkpt lat="42.01964" lon="12.902395"><ele>334.0</ele><time>2026-04-20T10:03:18.32Z</time></trkpt><trkpt lat="42.01948" lon="12.9023433"><ele>334.0</ele><time>2026-04-20T10:03:19.316Z</time></trkpt><trkpt lat="42.0193133" lon="12.90235"><ele>334.0</ele><time>2026-04-20T10:03:20.317Z</time></trkpt><trkpt lat="42.0191383" lon="12.902405"><ele>332.0</ele><time>2026-04-20T10:03:21.317Z</time></trkpt><trkpt lat="42.0189567" lon="12.9024733"><ele>330.0</ele><time>2026-04-20T10:03:22.316Z</time></trkpt><trkpt lat="42.01878" lon="12.9025183"><ele>328.0</ele><time>2026-04-20T10:03:23.318Z</time></trkpt><trkpt lat="42.0186167" lon="12.9025267"><ele>328.0</ele><time>2026-04-20T10:03:24.315Z</time></trkpt><trkpt lat="42.0184667" lon="12.9024967"><ele>328.0</ele><time>2026-04-20T10:03:25.316Z</time></trkpt><trkpt lat="42.0183233" lon="12.9024167"><ele>328.0</ele><time>2026-04-20T10:03:26.317Z</time></trkpt><trkpt lat="42.0181783" lon="12.9022733"><ele>319.66666666666663</ele><time>2026-04-20T10:03:27.316Z</time></trkpt><trkpt lat="42.01804" lon="12.9021117"><ele>311.3333333333333</ele><time>2026-04-20T10:03:28.317Z</time></trkpt><trkpt lat="42.0179117" lon="12.90195"><ele>303.0</ele><time>2026-04-20T10:03:29.317Z</time></trkpt><trkpt lat="42.0178017" lon="12.9017917"><ele>304.4</ele><time>2026-04-20T10:03:30.318Z</time></trkpt><trkpt lat="42.0177233" lon="12.9016467"><ele>305.8</ele><time>2026-04-20T10:03:31.319Z</time></trkpt><trkpt lat="42.0176867" lon="12.901515"><ele>307.2</ele><time>2026-04-20T10:03:32.317Z</time></trkpt><trkpt lat="42.0176883" lon="12.9013983"><ele>308.6</ele><time>2026-04-20T10:03:33.317Z</time></trkpt><trkpt lat="42.01772" lon="12.9012933"><ele>310.0</ele><time>2026-04-20T10:03:34.316Z</time></trkpt><trkpt lat="42.0177917" lon="12.9012033"><ele>310.0</ele><time>2026-04-20T10:03:35.316Z</time></trkpt><trkpt lat="42.0179067" lon="12.90115"><ele>310.0</ele><time>2026-04-20T10:03:36.317Z</time></trkpt><trkpt lat="42.018075" lon="12.9011217"><ele>310.0</ele><time>2026-04-20T10:03:37.32Z</time></trkpt><trkpt lat="42.0182467" lon="12.90109"><ele>313.0</ele><time>2026-04-20T10:03:38.317Z</time></trkpt><trkpt lat="42.018425" lon="12.90105"><ele>316.0</ele><time>2026-04-20T10:03:39.318Z</time></trkpt><trkpt lat="42.0185717" lon="12.9009817"><ele>319.0</ele><time>2026-04-20T10:03:40.32Z</time></trkpt><trkpt lat="42.0186917" lon="12.9008667"><ele>319.0</ele><time>2026-04-20T10:03:41.318Z</time></trkpt><trkpt lat="42.0187917" lon="12.9007033"><ele>319.0</ele><time>2026-04-20T10:03:42.318Z</time></trkpt><trkpt lat="42.0188717" lon="12.9004933"><ele>319.0</ele><time>2026-04-20T10:03:43.317Z</time></trkpt><trkpt lat="42.0189467" lon="12.9002683"><ele>318.66666666666663</ele><time>2026-04-20T10:03:44.318Z</time></trkpt><trkpt lat="42.0190183" lon="12.9000567"><ele>318.3333333333333</ele><time>2026-04-20T10:03:45.32Z</time></trkpt><trkpt lat="42.019105" lon="12.8998833"><ele>318.0</ele><time>2026-04-20T10:03:46.319Z</time></trkpt><trkpt lat="42.0192333" lon="12.8997517"><ele>318.0</ele><time>2026-04-20T10:03:47.319Z</time></trkpt><trkpt lat="42.0194033" lon="12.8996467"><ele>318.0</ele><time>2026-04-20T10:03:48.319Z</time></trkpt><trkpt lat="42.01959" lon="12.899555"><ele>318.0</ele><time>2026-04-20T10:03:49.318Z</time></trkpt><trkpt lat="42.0197567" lon="12.8994767"><ele>318.0</ele><time>2026-04-20T10:03:50.317Z</time></trkpt><trkpt lat="42.019895" lon="12.8994067"><ele>318.0</ele><time>2026-04-20T10:03:51.318Z</time></trkpt><trkpt lat="42.019995" lon="12.8993417"><ele>318.0</ele><time>2026-04-20T10:03:52.318Z</time></trkpt><trkpt lat="42.0200633" lon="12.899275"><ele>318.0</ele><time>2026-04-20T10:03:53.317Z</time></trkpt><trkpt lat="42.0201033" lon="12.8992017"><ele>318.0</ele><time>2026-04-20T10:03:54.317Z</time></trkpt><trkpt lat="42.020085" lon="12.899095"><ele>317.8</ele><time>2026-04-20T10:03:55.317Z</time></trkpt><trkpt lat="42.020045" lon="12.8990017"><ele>317.6</ele><time>2026-04-20T10:03:56.317Z</time></trkpt><trkpt lat="42.0199533" lon="12.898955"><ele>317.4</ele><time>2026-04-20T10:03:57.317Z</time></trkpt><trkpt lat="42.0198333" lon="12.89895"><ele>317.2</ele><time>2026-04-20T10:03:58.317Z</time></trkpt><trkpt lat="42.019695" lon="12.898965"><ele>317.0</ele><time>2026-04-20T10:03:59.317Z</time></trkpt><trkpt lat="42.0195317" lon="12.89898"><ele>315.33333333333337</ele><time>2026-04-20T10:04:00.316Z</time></trkpt><trkpt lat="42.019355" lon="12.8989967"><ele>313.6666666666667</ele><time>2026-04-20T10:04:01.318Z</time></trkpt><trkpt lat="42.019165" lon="12.8990133"><ele>312.0</ele><time>2026-04-20T10:04:02.316Z</time></trkpt><trkpt lat="42.0189633" lon="12.8990283"><ele>312.0</ele><time>2026-04-20T10:04:03.318Z</time></trkpt><trkpt lat="42.01876" lon="12.8990483"><ele>312.0</ele><time>2026-04-20T10:04:04.32Z</time></trkpt><trkpt lat="42.0185583" lon="12.8990667"><ele>312.0</ele><time>2026-04-20T10:04:05.319Z</time></trkpt><trkpt lat="42.018355" lon="12.8990867"><ele>311.6666666666667</ele><time>2026-04-20T10:04:06.319Z</time></trkpt><trkpt lat="42.0181583" lon="12.899105"><ele>311.33333333333337</ele><time>2026-04-20T10:04:07.316Z</time></trkpt><trkpt lat="42.017975" lon="12.8991233"><ele>311.0</ele><time>2026-04-20T10:04:08.318Z</time></trkpt><trkpt lat="42.0178" lon="12.8991433"><ele>311.0</ele><time>2026-04-20T10:04:09.317Z</time></trkpt><trkpt lat="42.0176317" lon="12.8991633"><ele>311.0</ele><time>2026-04-20T10:04:10.318Z</time></trkpt><trkpt lat="42.0174733" lon="12.8991833"><ele>311.0</ele><time>2026-04-20T10:04:11.32Z</time></trkpt><trkpt lat="42.017325" lon="12.8992"><ele>310.5</ele><time>2026-04-20T10:04:12.318Z</time></trkpt><trkpt lat="42.0171867" lon="12.899215"><ele>310.0</ele><time>2026-04-20T10:04:13.32Z</time></trkpt><trkpt lat="42.017055" lon="12.8992283"><ele>309.5</ele><time>2026-04-20T10:04:14.32Z</time></trkpt><trkpt lat="42.0169283" lon="12.8992383"><ele>309.0</ele><time>2026-04-20T10:04:15.32Z</time></trkpt><trkpt lat="42.01681" lon="12.8992367"><ele>309.0</ele><time>2026-04-20T10:04:16.32Z</time></trkpt><trkpt lat="42.0167067" lon="12.8992167"><ele>309.0</ele><time>2026-04-20T10:04:17.317Z</time></trkpt><trkpt lat="42.016615" lon="12.89917"><ele>309.0</ele><time>2026-04-20T10:04:18.319Z</time></trkpt><trkpt lat="42.016535" lon="12.8990983"><ele>309.0</ele><time>2026-04-20T10:04:19.317Z</time></trkpt><trkpt lat="42.0164683" lon="12.89902"><ele>309.0</ele><time>2026-04-20T10:04:20.316Z</time></trkpt><trkpt lat="42.0164217" lon="12.89893"><ele>305.4</ele><time>2026-04-20T10:04:21.318Z</time></trkpt><trkpt lat="42.0163833" lon="12.8988267"><ele>301.79999999999995</ele><time>2026-04-20T10:04:22.316Z</time></trkpt><trkpt lat="42.0163533" lon="12.8987017"><ele>298.20000000000005</ele><time>2026-04-20T10:04:23.317Z</time></trkpt><trkpt lat="42.0163367" lon="12.8985533"><ele>294.6</ele><time>2026-04-20T10:04:24.318Z</time></trkpt><trkpt lat="42.0163067" lon="12.8983933"><ele>291.0</ele><time>2026-04-20T10:04:25.317Z</time></trkpt><trkpt lat="42.016275" lon="12.8981867"><ele>291.0</ele><time>2026-04-20T10:04:26.318Z</time></trkpt><trkpt lat="42.01624" lon="12.8979533"><ele>291.0</ele><time>2026-04-20T10:04:27.318Z</time></trkpt><trkpt lat="42.016205" lon="12.8976983"><ele>291.0</ele><time>2026-04-20T10:04:28.317Z</time></trkpt><trkpt lat="42.016175" lon="12.8974033"><ele>292.3333333333333</ele><time>2026-04-20T10:04:29.316Z</time></trkpt><trkpt lat="42.01614" lon="12.8971133"><ele>293.66666666666663</ele><time>2026-04-20T10:04:30.318Z</time></trkpt><trkpt lat="42.0161133" lon="12.8968383"><ele>295.0</ele><time>2026-04-20T10:04:31.317Z</time></trkpt><trkpt lat="42.016095" lon="12.8965883"><ele>295.0</ele><time>2026-04-20T10:04:32.316Z</time></trkpt><trkpt lat="42.0160917" lon="12.8963667"><ele>295.0</ele><time>2026-04-20T10:04:33.317Z</time></trkpt><trkpt lat="42.0160917" lon="12.89616"><ele>295.0</ele><time>2026-04-20T10:04:34.316Z</time></trkpt><trkpt lat="42.0160933" lon="12.8959667"><ele>295.25</ele><time>2026-04-20T10:04:35.316Z</time></trkpt><trkpt lat="42.0161" lon="12.895775"><ele>295.5</ele><time>2026-04-20T10:04:36.316Z</time></trkpt><trkpt lat="42.0161" lon="12.89558"><ele>295.75</ele><time>2026-04-20T10:04:37.318Z</time></trkpt><trkpt lat="42.01608" lon="12.8953767"><ele>296.0</ele><time>2026-04-20T10:04:38.317Z</time></trkpt><trkpt lat="42.016045" lon="12.8951617"><ele>297.0</ele><time>2026-04-20T10:04:39.318Z</time></trkpt><trkpt lat="42.0159917" lon="12.8949517"><ele>298.0</ele><time>2026-04-20T10:04:40.316Z</time></trkpt><trkpt lat="42.0159183" lon="12.8947417"><ele>299.0</ele><time>2026-04-20T10:04:41.317Z</time></trkpt><trkpt lat="42.0158317" lon="12.894525"><ele>292.33333333333337</ele><time>2026-04-20T10:04:42.319Z</time></trkpt><trkpt lat="42.0157367" lon="12.8943033"><ele>285.6666666666667</ele><time>2026-04-20T10:04:43.32Z</time></trkpt><trkpt lat="42.0156333" lon="12.89408"><ele>279.0</ele><time>2026-04-20T10:04:44.318Z</time></trkpt><trkpt lat="42.0155317" lon="12.89386"><ele>279.0</ele><time>2026-04-20T10:04:45.32Z</time></trkpt><trkpt lat="42.0154283" lon="12.8936433"><ele>279.0</ele><time>2026-04-20T10:04:46.32Z</time></trkpt><trkpt lat="42.01532" lon="12.8934317"><ele>279.0</ele><time>2026-04-20T10:04:47.319Z</time></trkpt><trkpt lat="42.0151967" lon="12.8932317"><ele>279.3333333333333</ele><time>2026-04-20T10:04:48.316Z</time></trkpt><trkpt lat="42.015065" lon="12.8930383"><ele>279.66666666666663</ele><time>2026-04-20T10:04:49.316Z</time></trkpt><trkpt lat="42.01491" lon="12.8928867"><ele>280.0</ele><time>2026-04-20T10:04:50.317Z</time></trkpt><trkpt lat="42.0147433" lon="12.8927817"><ele>280.0</ele><time>2026-04-20T10:04:51.316Z</time></trkpt><trkpt lat="42.0145667" lon="12.8927167"><ele>280.0</ele><time>2026-04-20T10:04:52.317Z</time></trkpt><trkpt lat="42.0143883" lon="12.89268"><ele>280.0</ele><time>2026-04-20T10:04:53.317Z</time></trkpt><trkpt lat="42.01422" lon="12.892645"><ele>277.66666666666663</ele><time>2026-04-20T10:04:54.316Z</time></trkpt><trkpt lat="42.014055" lon="12.8926233"><ele>275.3333333333333</ele><time>2026-04-20T10:04:55.317Z</time></trkpt><trkpt lat="42.0139017" lon="12.8925983"><ele>273.0</ele><time>2026-04-20T10:04:56.318Z</time></trkpt><trkpt lat="42.0137683" lon="12.8925683"><ele>276.5</ele><time>2026-04-20T10:04:57.318Z</time></trkpt><trkpt lat="42.0136517" lon="12.8925217"><ele>280.0</ele><time>2026-04-20T10:04:58.317Z</time></trkpt><trkpt lat="42.0135533" lon="12.8924367"><ele>283.5</ele><time>2026-04-20T10:04:59.316Z</time></trkpt><trkpt lat="42.01348" lon="12.8923183"><ele>287.0</ele><time>2026-04-20T10:05:00.319Z</time></trkpt><trkpt lat="42.01343" lon="12.8921683"><ele>287.0</ele><time>2026-04-20T10:05:01.319Z</time></trkpt><trkpt lat="42.0134017" lon="12.8919917"><ele>287.0</ele><time>2026-04-20T10:05:02.32Z</time></trkpt><trkpt lat="42.01339" lon="12.8918"><ele>287.0</ele><time>2026-04-20T10:05:03.319Z</time></trkpt><trkpt lat="42.0133967" lon="12.891595"><ele>287.0</ele><time>2026-04-20T10:05:04.319Z</time></trkpt><trkpt lat="42.01341" lon="12.8913833"><ele>286.0</ele><time>2026-04-20T10:05:05.319Z</time></trkpt><trkpt lat="42.01343" lon="12.89117"><ele>285.0</ele><time>2026-04-20T10:05:06.32Z</time></trkpt><trkpt lat="42.0134483" lon="12.8909667"><ele>284.0</ele><time>2026-04-20T10:05:07.318Z</time></trkpt><trkpt lat="42.0134683" lon="12.8907683"><ele>284.0</ele><time>2026-04-20T10:05:08.317Z</time></trkpt><trkpt lat="42.0134867" lon="12.8905583"><ele>284.0</ele><time>2026-04-20T10:05:09.321Z</time></trkpt><trkpt lat="42.013485" lon="12.8903333"><ele>284.0</ele><time>2026-04-20T10:05:10.318Z</time></trkpt><trkpt lat="42.013475" lon="12.8901067"><ele>280.6666666666667</ele><time>2026-04-20T10:05:11.317Z</time></trkpt><trkpt lat="42.0134567" lon="12.88989"><ele>277.3333333333333</ele><time>2026-04-20T10:05:12.319Z</time></trkpt><trkpt lat="42.013415" lon="12.8896917"><ele>274.0</ele><time>2026-04-20T10:05:13.316Z</time></trkpt><trkpt lat="42.0133333" lon="12.8895083"><ele>272.66666666666663</ele><time>2026-04-20T10:05:14.32Z</time></trkpt><trkpt lat="42.0132167" lon="12.889345"><ele>271.3333333333333</ele><time>2026-04-20T10:05:15.318Z</time></trkpt><trkpt lat="42.0130783" lon="12.8891917"><ele>270.0</ele><time>2026-04-20T10:05:16.319Z</time></trkpt><trkpt lat="42.0129383" lon="12.8890367"><ele>270.0</ele><time>2026-04-20T10:05:17.319Z</time></trkpt><trkpt lat="42.0128067" lon="12.888865"><ele>270.0</ele><time>2026-04-20T10:05:18.317Z</time></trkpt><trkpt lat="42.012685" lon="12.8886583"><ele>270.0</ele><time>2026-04-20T10:05:19.317Z</time></trkpt><trkpt lat="42.0125733" lon="12.88843"><ele>269.6666666666667</ele><time>2026-04-20T10:05:20.317Z</time></trkpt><trkpt lat="42.0124667" lon="12.8882"><ele>269.33333333333337</ele><time>2026-04-20T10:05:21.316Z</time></trkpt><trkpt lat="42.01236" lon="12.8879667"><ele>269.0</ele><time>2026-04-20T10:05:22.316Z</time></trkpt><trkpt lat="42.0122467" lon="12.8877317"><ele>269.33333333333337</ele><time>2026-04-20T10:05:23.316Z</time></trkpt><trkpt lat="42.0121317" lon="12.8875017"><ele>269.6666666666667</ele><time>2026-04-20T10:05:24.317Z</time></trkpt><trkpt lat="42.0120083" lon="12.8872667"><ele>270.0</ele><time>2026-04-20T10:05:25.32Z</time></trkpt><trkpt lat="42.0118883" lon="12.8870133"><ele>273.0</ele><time>2026-04-20T10:05:26.32Z</time></trkpt><trkpt lat="42.0117833" lon="12.8867433"><ele>276.0</ele><time>2026-04-20T10:05:27.32Z</time></trkpt><trkpt lat="42.011695" lon="12.8864633"><ele>272.6666666666667</ele><time>2026-04-20T10:05:28.318Z</time></trkpt><trkpt lat="42.0116117" lon="12.8861833"><ele>269.33333333333337</ele><time>2026-04-20T10:05:29.319Z</time></trkpt><trkpt lat="42.011525" lon="12.8859117"><ele>266.0</ele><time>2026-04-20T10:05:30.318Z</time></trkpt><trkpt lat="42.0114267" lon="12.885645"><ele>266.0</ele><time>2026-04-20T10:05:31.316Z</time></trkpt><trkpt lat="42.0113233" lon="12.88538"><ele>266.0</ele><time>2026-04-20T10:05:32.319Z</time></trkpt><trkpt lat="42.0112083" lon="12.8851133"><ele>269.5</ele><time>2026-04-20T10:05:33.319Z</time></trkpt><trkpt lat="42.0110683" lon="12.884855"><ele>273.0</ele><time>2026-04-20T10:05:34.32Z</time></trkpt><trkpt lat="42.0109167" lon="12.884595"><ele>269.0</ele><time>2026-04-20T10:05:35.317Z</time></trkpt><trkpt lat="42.0107583" lon="12.88433"><ele>265.0</ele><time>2026-04-20T10:05:36.319Z</time></trkpt><trkpt lat="42.0105933" lon="12.8840667"><ele>265.0</ele><time>2026-04-20T10:05:37.315Z</time></trkpt><trkpt lat="42.010425" lon="12.8838067"><ele>265.0</ele><time>2026-04-20T10:05:38.317Z</time></trkpt><trkpt lat="42.0102467" lon="12.8835533"><ele>265.0</ele><time>2026-04-20T10:05:39.321Z</time></trkpt><trkpt lat="42.010055" lon="12.8833117"><ele>265.0</ele><time>2026-04-20T10:05:40.319Z</time></trkpt><trkpt lat="42.00985" lon="12.88309"><ele>265.0</ele><time>2026-04-20T10:05:41.319Z</time></trkpt><trkpt lat="42.00964" lon="12.8828683"><ele>265.0</ele><time>2026-04-20T10:05:42.319Z</time></trkpt><trkpt lat="42.0094383" lon="12.8826467"><ele>264.0</ele><time>2026-04-20T10:05:43.319Z</time></trkpt><trkpt lat="42.00924" lon="12.88246"><ele>263.0</ele><time>2026-04-20T10:05:44.319Z</time></trkpt><trkpt lat="42.0090583" lon="12.8822783"><ele>263.0</ele><time>2026-04-20T10:05:45.32Z</time></trkpt><trkpt lat="42.00888" lon="12.8821133"><ele>263.0</ele><time>2026-04-20T10:05:46.319Z</time></trkpt><trkpt lat="42.0086833" lon="12.8819917"><ele>263.0</ele><time>2026-04-20T10:05:47.319Z</time></trkpt><trkpt lat="42.0084767" lon="12.8819083"><ele>263.0</ele><time>2026-04-20T10:05:48.317Z</time></trkpt><trkpt lat="42.0082533" lon="12.8818517"><ele>263.0</ele><time>2026-04-20T10:05:49.317Z</time></trkpt><trkpt lat="42.0080117" lon="12.8818167"><ele>263.0</ele><time>2026-04-20T10:05:50.316Z</time></trkpt><trkpt lat="42.0077683" lon="12.8817867"><ele>263.0</ele><time>2026-04-20T10:05:51.318Z</time></trkpt><trkpt lat="42.0075383" lon="12.881725"><ele>263.0</ele><time>2026-04-20T10:05:52.317Z</time></trkpt><trkpt lat="42.007325" lon="12.88162"><ele>263.0</ele><time>2026-04-20T10:05:53.317Z</time></trkpt><trkpt lat="42.007125" lon="12.8814717"><ele>263.0</ele><time>2026-04-20T10:05:54.318Z</time></trkpt><trkpt lat="42.0069317" lon="12.8812833"><ele>263.0</ele><time>2026-04-20T10:05:55.319Z</time></trkpt><trkpt lat="42.00675" lon="12.88107"><ele>263.0</ele><time>2026-04-20T10:05:56.319Z</time></trkpt><trkpt lat="42.0065833" lon="12.8808467"><ele>263.0</ele><time>2026-04-20T10:05:57.319Z</time></trkpt><trkpt lat="42.0064367" lon="12.880615"><ele>263.0</ele><time>2026-04-20T10:05:58.318Z</time></trkpt><trkpt lat="42.006305" lon="12.8803867"><ele>263.0</ele><time>2026-04-20T10:05:59.318Z</time></trkpt><trkpt lat="42.0062133" lon="12.880135"><ele>263.0</ele><time>2026-04-20T10:06:00.318Z</time></trkpt><trkpt lat="42.0061567" lon="12.8798617"><ele>263.33333333333337</ele><time>2026-04-20T10:06:01.319Z</time></trkpt><trkpt lat="42.0060967" lon="12.8795817"><ele>263.6666666666667</ele><time>2026-04-20T10:06:02.318Z</time></trkpt><trkpt lat="42.0060183" lon="12.879295"><ele>264.0</ele><time>2026-04-20T10:06:03.318Z</time></trkpt><trkpt lat="42.0059167" lon="12.8790133"><ele>263.5</ele><time>2026-04-20T10:06:04.32Z</time></trkpt><trkpt lat="42.0058067" lon="12.8787167"><ele>263.0</ele><time>2026-04-20T10:06:05.32Z</time></trkpt><trkpt lat="42.0057" lon="12.878415"><ele>263.6666666666667</ele><time>2026-04-20T10:06:06.319Z</time></trkpt><trkpt lat="42.00561" lon="12.878135"><ele>264.3333333333333</ele><time>2026-04-20T10:06:07.321Z</time></trkpt><trkpt lat="42.0055317" lon="12.8778833"><ele>265.0</ele><time>2026-04-20T10:06:08.319Z</time></trkpt><trkpt lat="42.0054733" lon="12.87765"><ele>266.5</ele><time>2026-04-20T10:06:09.318Z</time></trkpt><trkpt lat="42.0054317" lon="12.87744"><ele>268.0</ele><time>2026-04-20T10:06:10.315Z</time></trkpt><trkpt lat="42.005375" lon="12.8772583"><ele>269.5</ele><time>2026-04-20T10:06:11.319Z</time></trkpt><trkpt lat="42.00529" lon="12.87712"><ele>271.0</ele><time>2026-04-20T10:06:12.32Z</time></trkpt><trkpt lat="42.0051633" lon="12.8770417"><ele>269.3333333333333</ele><time>2026-04-20T10:06:13.319Z</time></trkpt><trkpt lat="42.0049933" lon="12.8770233"><ele>267.6666666666667</ele><time>2026-04-20T10:06:14.319Z</time></trkpt><trkpt lat="42.004805" lon="12.8770333"><ele>266.0</ele><time>2026-04-20T10:06:15.318Z</time></trkpt><trkpt lat="42.0046083" lon="12.8770333"><ele>266.0</ele><time>2026-04-20T10:06:16.319Z</time></trkpt><trkpt lat="42.0044067" lon="12.8769933"><ele>266.0</ele><time>2026-04-20T10:06:17.319Z</time></trkpt><trkpt lat="42.0041933" lon="12.8769083"><ele>266.0</ele><time>2026-04-20T10:06:18.32Z</time></trkpt><trkpt lat="42.0039783" lon="12.8767933"><ele>266.33333333333337</ele><time>2026-04-20T10:06:19.318Z</time></trkpt><trkpt lat="42.003765" lon="12.8766817"><ele>266.6666666666667</ele><time>2026-04-20T10:06:20.32Z</time></trkpt><trkpt lat="42.00356" lon="12.8765983"><ele>267.0</ele><time>2026-04-20T10:06:21.319Z</time></trkpt><trkpt lat="42.0033617" lon="12.8765567"><ele>265.0</ele><time>2026-04-20T10:06:22.319Z</time></trkpt><trkpt lat="42.003165" lon="12.876565"><ele>263.0</ele><time>2026-04-20T10:06:23.319Z</time></trkpt><trkpt lat="42.0029767" lon="12.876625"><ele>261.0</ele><time>2026-04-20T10:06:24.319Z</time></trkpt><trkpt lat="42.002795" lon="12.8767267"><ele>261.0</ele><time>2026-04-20T10:06:25.32Z</time></trkpt><trkpt lat="42.0025983" lon="12.8768633"><ele>261.0</ele><time>2026-04-20T10:06:26.319Z</time></trkpt><trkpt lat="42.0024" lon="12.8769833"><ele>261.0</ele><time>2026-04-20T10:06:27.318Z</time></trkpt><trkpt lat="42.002195" lon="12.8770517"><ele>261.0</ele><time>2026-04-20T10:06:28.319Z</time></trkpt><trkpt lat="42.0019667" lon="12.8770733"><ele>261.0</ele><time>2026-04-20T10:06:29.319Z</time></trkpt><trkpt lat="42.0017167" lon="12.87706"><ele>262.0</ele><time>2026-04-20T10:06:30.317Z</time></trkpt><trkpt lat="42.0014567" lon="12.8770383"><ele>263.0</ele><time>2026-04-20T10:06:31.32Z</time></trkpt><trkpt lat="42.0012083" lon="12.8770483"><ele>263.0</ele><time>2026-04-20T10:06:32.319Z</time></trkpt><trkpt lat="42.0009917" lon="12.8770817"><ele>263.0</ele><time>2026-04-20T10:06:33.321Z</time></trkpt><trkpt lat="42.0007917" lon="12.877115"><ele>263.0</ele><time>2026-04-20T10:06:34.319Z</time></trkpt><trkpt lat="42.0005883" lon="12.8771367"><ele>263.0</ele><time>2026-04-20T10:06:35.32Z</time></trkpt><trkpt lat="42.0003767" lon="12.8771383"><ele>263.0</ele><time>2026-04-20T10:06:36.317Z</time></trkpt><trkpt lat="42.00017" lon="12.8771283"><ele>263.0</ele><time>2026-04-20T10:06:37.317Z</time></trkpt><trkpt lat="41.9999583" lon="12.877115"><ele>263.0</ele><time>2026-04-20T10:06:38.318Z</time></trkpt><trkpt lat="41.99973" lon="12.87709"><ele>263.0</ele><time>2026-04-20T10:06:39.318Z</time></trkpt><trkpt lat="41.9994817" lon="12.87706"><ele>263.0</ele><time>2026-04-20T10:06:40.32Z</time></trkpt><trkpt lat="41.9992333" lon="12.8769867"><ele>263.0</ele><time>2026-04-20T10:06:41.317Z</time></trkpt><trkpt lat="41.99899" lon="12.8769033"><ele>261.5</ele><time>2026-04-20T10:06:42.318Z</time></trkpt><trkpt lat="41.9987583" lon="12.8768083"><ele>260.0</ele><time>2026-04-20T10:06:43.32Z</time></trkpt><trkpt lat="41.998535" lon="12.876695"><ele>261.0</ele><time>2026-04-20T10:06:44.319Z</time></trkpt><trkpt lat="41.9983217" lon="12.8765967"><ele>262.0</ele><time>2026-04-20T10:06:45.319Z</time></trkpt><trkpt lat="41.9981167" lon="12.8764967"><ele>263.0</ele><time>2026-04-20T10:06:46.319Z</time></trkpt><trkpt lat="41.9979233" lon="12.8763917"><ele>263.0</ele><time>2026-04-20T10:06:47.319Z</time></trkpt><trkpt lat="41.9977367" lon="12.8762633"><ele>263.0</ele><time>2026-04-20T10:06:48.319Z</time></trkpt><trkpt lat="41.9975533" lon="12.8761133"><ele>263.0</ele><time>2026-04-20T10:06:49.32Z</time></trkpt><trkpt lat="41.9973667" lon="12.87594"><ele>265.0</ele><time>2026-04-20T10:06:50.319Z</time></trkpt><trkpt lat="41.99717" lon="12.87575"><ele>267.0</ele><time>2026-04-20T10:06:51.321Z</time></trkpt><trkpt lat="41.99697" lon="12.8755467"><ele>267.0</ele><time>2026-04-20T10:06:52.319Z</time></trkpt><trkpt lat="41.9967683" lon="12.8753383"><ele>267.0</ele><time>2026-04-20T10:06:53.318Z</time></trkpt><trkpt lat="41.9965667" lon="12.8751167"><ele>269.0</ele><time>2026-04-20T10:06:54.319Z</time></trkpt><trkpt lat="41.9963633" lon="12.8748767"><ele>271.0</ele><time>2026-04-20T10:06:55.319Z</time></trkpt><trkpt lat="41.9961633" lon="12.8746183"><ele>271.0</ele><time>2026-04-20T10:06:56.319Z</time></trkpt><trkpt lat="41.99598" lon="12.8743567"><ele>271.0</ele><time>2026-04-20T10:06:57.321Z</time></trkpt><trkpt lat="41.9958267" lon="12.87412"><ele>270.0</ele><time>2026-04-20T10:06:58.319Z</time></trkpt><trkpt lat="41.995685" lon="12.8739167"><ele>269.0</ele><time>2026-04-20T10:06:59.317Z</time></trkpt><trkpt lat="41.995535" lon="12.8737567"><ele>268.0</ele><time>2026-04-20T10:07:00.316Z</time></trkpt><trkpt lat="41.9953583" lon="12.87364"><ele>268.0</ele><time>2026-04-20T10:07:01.316Z</time></trkpt><trkpt lat="41.99516" lon="12.8735533"><ele>268.0</ele><time>2026-04-20T10:07:02.317Z</time></trkpt><trkpt lat="41.9949683" lon="12.8734583"><ele>268.0</ele><time>2026-04-20T10:07:03.318Z</time></trkpt><trkpt lat="41.9947867" lon="12.8733283"><ele>270.66666666666663</ele><time>2026-04-20T10:07:04.315Z</time></trkpt><trkpt lat="41.99462" lon="12.8731617"><ele>273.3333333333333</ele><time>2026-04-20T10:07:05.319Z</time></trkpt><trkpt lat="41.9944683" lon="12.87297"><ele>276.0</ele><time>2026-04-20T10:07:06.32Z</time></trkpt><trkpt lat="41.994345" lon="12.8727483"><ele>273.0</ele><time>2026-04-20T10:07:07.316Z</time></trkpt><trkpt lat="41.9942467" lon="12.872525"><ele>270.0</ele><time>2026-04-20T10:07:08.32Z</time></trkpt><trkpt lat="41.99417" lon="12.87229"><ele>267.0</ele><time>2026-04-20T10:07:09.319Z</time></trkpt><trkpt lat="41.9941267" lon="12.8720317"><ele>269.3333333333333</ele><time>2026-04-20T10:07:10.315Z</time></trkpt><trkpt lat="41.994125" lon="12.8717617"><ele>271.66666666666663</ele><time>2026-04-20T10:07:11.32Z</time></trkpt><trkpt lat="41.9941517" lon="12.8714767"><ele>274.0</ele><time>2026-04-20T10:07:12.32Z</time></trkpt><trkpt lat="41.9941833" lon="12.87118"><ele>273.3333333333333</ele><time>2026-04-20T10:07:13.319Z</time></trkpt><trkpt lat="41.9941983" lon="12.870895"><ele>272.6666666666667</ele><time>2026-04-20T10:07:14.32Z</time></trkpt><trkpt lat="41.9941917" lon="12.8706233"><ele>272.0</ele><time>2026-04-20T10:07:15.321Z</time></trkpt><trkpt lat="41.9941533" lon="12.8703333"><ele>270.0</ele><time>2026-04-20T10:07:16.319Z</time></trkpt><trkpt lat="41.9940833" lon="12.870035"><ele>268.0</ele><time>2026-04-20T10:07:17.319Z</time></trkpt><trkpt lat="41.9939917" lon="12.8697467"><ele>268.0</ele><time>2026-04-20T10:07:18.319Z</time></trkpt><trkpt lat="41.9938817" lon="12.8694617"><ele>268.0</ele><time>2026-04-20T10:07:19.32Z</time></trkpt><trkpt lat="41.9937417" lon="12.8691783"><ele>270.0</ele><time>2026-04-20T10:07:20.318Z</time></trkpt><trkpt lat="41.9935767" lon="12.8689133"><ele>272.0</ele><time>2026-04-20T10:07:21.319Z</time></trkpt><trkpt lat="41.993385" lon="12.86867"><ele>268.5</ele><time>2026-04-20T10:07:22.318Z</time></trkpt><trkpt lat="41.99316" lon="12.8684483"><ele>265.0</ele><time>2026-04-20T10:07:23.316Z</time></trkpt><trkpt lat="41.992905" lon="12.868235"><ele>264.5</ele><time>2026-04-20T10:07:24.319Z</time></trkpt><trkpt lat="41.9926317" lon="12.8680333"><ele>264.0</ele><time>2026-04-20T10:07:25.32Z</time></trkpt><trkpt lat="41.9923517" lon="12.8678433"><ele>264.0</ele><time>2026-04-20T10:07:26.318Z</time></trkpt><trkpt lat="41.9920633" lon="12.8676733"><ele>264.0</ele><time>2026-04-20T10:07:27.32Z</time></trkpt><trkpt lat="41.991785" lon="12.86751"><ele>263.5</ele><time>2026-04-20T10:07:28.319Z</time></trkpt><trkpt lat="41.99152" lon="12.8673567"><ele>263.0</ele><time>2026-04-20T10:07:29.319Z</time></trkpt><trkpt lat="41.9912567" lon="12.8672267"><ele>263.0</ele><time>2026-04-20T10:07:30.318Z</time></trkpt><trkpt lat="41.9909983" lon="12.8671183"><ele>263.0</ele><time>2026-04-20T10:07:31.319Z</time></trkpt><trkpt lat="41.9907483" lon="12.8670317"><ele>262.33333333333337</ele><time>2026-04-20T10:07:32.318Z</time></trkpt><trkpt lat="41.9905283" lon="12.866955"><ele>261.6666666666667</ele><time>2026-04-20T10:07:33.321Z</time></trkpt><trkpt lat="41.99033" lon="12.8668617"><ele>261.0</ele><time>2026-04-20T10:07:34.319Z</time></trkpt><trkpt lat="41.9901517" lon="12.86675"><ele>264.3333333333333</ele><time>2026-04-20T10:07:35.317Z</time></trkpt><trkpt lat="41.9899817" lon="12.866615"><ele>267.66666666666663</ele><time>2026-04-20T10:07:36.317Z</time></trkpt><trkpt lat="41.989815" lon="12.86645"><ele>271.0</ele><time>2026-04-20T10:07:37.316Z</time></trkpt><trkpt lat="41.9896583" lon="12.86626"><ele>271.0</ele><time>2026-04-20T10:07:38.316Z</time></trkpt><trkpt lat="41.9895117" lon="12.8660467"><ele>271.0</ele><time>2026-04-20T10:07:39.318Z</time></trkpt><trkpt lat="41.9893817" lon="12.8658133"><ele>271.0</ele><time>2026-04-20T10:07:40.316Z</time></trkpt><trkpt lat="41.989265" lon="12.865555"><ele>269.5</ele><time>2026-04-20T10:07:41.318Z</time></trkpt><trkpt lat="41.9891533" lon="12.8652817"><ele>268.0</ele><time>2026-04-20T10:07:42.318Z</time></trkpt><trkpt lat="41.9890467" lon="12.86499"><ele>275.0</ele><time>2026-04-20T10:07:43.32Z</time></trkpt><trkpt lat="41.988935" lon="12.8647067"><ele>282.0</ele><time>2026-04-20T10:07:44.318Z</time></trkpt><trkpt lat="41.9888083" lon="12.8644617"><ele>289.0</ele><time>2026-04-20T10:07:45.318Z</time></trkpt><trkpt lat="41.988655" lon="12.8642483"><ele>296.0</ele><time>2026-04-20T10:07:46.32Z</time></trkpt><trkpt lat="41.9884717" lon="12.86405"><ele>284.5</ele><time>2026-04-20T10:07:47.319Z</time></trkpt><trkpt lat="41.9882783" lon="12.8638567"><ele>273.0</ele><time>2026-04-20T10:07:48.319Z</time></trkpt><trkpt lat="41.98809" lon="12.86367"><ele>273.0</ele><time>2026-04-20T10:07:49.319Z</time></trkpt><trkpt lat="41.9879033" lon="12.8634983"><ele>273.0</ele><time>2026-04-20T10:07:50.319Z</time></trkpt><trkpt lat="41.98772" lon="12.8633717"><ele>273.0</ele><time>2026-04-20T10:07:51.32Z</time></trkpt><trkpt lat="41.9875317" lon="12.8632867"><ele>275.3333333333333</ele><time>2026-04-20T10:07:52.32Z</time></trkpt><trkpt lat="41.9873317" lon="12.86324"><ele>277.66666666666663</ele><time>2026-04-20T10:07:53.318Z</time></trkpt><trkpt lat="41.9871217" lon="12.8632"><ele>280.0</ele><time>2026-04-20T10:07:54.32Z</time></trkpt><trkpt lat="41.9869233" lon="12.863155"><ele>280.0</ele><time>2026-04-20T10:07:55.32Z</time></trkpt><trkpt lat="41.9867483" lon="12.8631083"><ele>280.0</ele><time>2026-04-20T10:07:56.316Z</time></trkpt><trkpt lat="41.9865933" lon="12.86304"><ele>280.0</ele><time>2026-04-20T10:07:57.32Z</time></trkpt><trkpt lat="41.9864617" lon="12.8629333"><ele>280.0</ele><time>2026-04-20T10:07:58.321Z</time></trkpt><trkpt lat="41.9863483" lon="12.8627833"><ele>280.0</ele><time>2026-04-20T10:07:59.315Z</time></trkpt><trkpt lat="41.9862767" lon="12.862595"><ele>280.0</ele><time>2026-04-20T10:08:00.316Z</time></trkpt><trkpt lat="41.9862483" lon="12.8623817"><ele>280.0</ele><time>2026-04-20T10:08:01.316Z</time></trkpt><trkpt lat="41.9862583" lon="12.8621533"><ele>280.0</ele><time>2026-04-20T10:08:02.319Z</time></trkpt><trkpt lat="41.9863183" lon="12.8619183"><ele>280.0</ele><time>2026-04-20T10:08:03.32Z</time></trkpt><trkpt lat="41.9864133" lon="12.86168"><ele>279.0</ele><time>2026-04-20T10:08:04.318Z</time></trkpt><trkpt lat="41.986505" lon="12.86142"><ele>278.0</ele><time>2026-04-20T10:08:05.319Z</time></trkpt><trkpt lat="41.9865817" lon="12.8611483"><ele>277.0</ele><time>2026-04-20T10:08:06.32Z</time></trkpt><trkpt lat="41.986635" lon="12.86087"><ele>273.3333333333333</ele><time>2026-04-20T10:08:07.32Z</time></trkpt><trkpt lat="41.9866617" lon="12.8605883"><ele>269.6666666666667</ele><time>2026-04-20T10:08:08.316Z</time></trkpt><trkpt lat="41.9866617" lon="12.8603067"><ele>266.0</ele><time>2026-04-20T10:08:09.318Z</time></trkpt><trkpt lat="41.9866317" lon="12.8600183"><ele>266.0</ele><time>2026-04-20T10:08:10.32Z</time></trkpt><trkpt lat="41.9865683" lon="12.859725"><ele>266.0</ele><time>2026-04-20T10:08:11.32Z</time></trkpt><trkpt lat="41.9864683" lon="12.8594383"><ele>271.5</ele><time>2026-04-20T10:08:12.318Z</time></trkpt><trkpt lat="41.98635" lon="12.8591533"><ele>277.0</ele><time>2026-04-20T10:08:13.318Z</time></trkpt><trkpt lat="41.9862317" lon="12.858865"><ele>277.0</ele><time>2026-04-20T10:08:14.319Z</time></trkpt><trkpt lat="41.9861083" lon="12.858595"><ele>277.0</ele><time>2026-04-20T10:08:15.32Z</time></trkpt><trkpt lat="41.9859683" lon="12.85834"><ele>269.5</ele><time>2026-04-20T10:08:16.32Z</time></trkpt><trkpt lat="41.9858017" lon="12.8581067"><ele>262.0</ele><time>2026-04-20T10:08:17.318Z</time></trkpt><trkpt lat="41.9856167" lon="12.85787"><ele>262.0</ele><time>2026-04-20T10:08:18.319Z</time></trkpt><trkpt lat="41.985415" lon="12.8576367"><ele>262.0</ele><time>2026-04-20T10:08:19.319Z</time></trkpt><trkpt lat="41.9852" lon="12.8574033"><ele>260.0</ele><time>2026-04-20T10:08:20.32Z</time></trkpt><trkpt lat="41.984975" lon="12.857185"><ele>258.0</ele><time>2026-04-20T10:08:21.32Z</time></trkpt><trkpt lat="41.9847633" lon="12.8569767"><ele>264.0</ele><time>2026-04-20T10:08:22.318Z</time></trkpt><trkpt lat="41.9845667" lon="12.85678"><ele>270.0</ele><time>2026-04-20T10:08:23.318Z</time></trkpt><trkpt lat="41.9843817" lon="12.8565933"><ele>270.0</ele><time>2026-04-20T10:08:24.32Z</time></trkpt><trkpt lat="41.9842133" lon="12.8564183"><ele>270.0</ele><time>2026-04-20T10:08:25.319Z</time></trkpt><trkpt lat="41.984065" lon="12.8562433"><ele>270.0</ele><time>2026-04-20T10:08:26.318Z</time></trkpt><trkpt lat="41.9839467" lon="12.8560633"><ele>267.6666666666667</ele><time>2026-04-20T10:08:27.32Z</time></trkpt><trkpt lat="41.983855" lon="12.8558583"><ele>265.33333333333337</ele><time>2026-04-20T10:08:28.319Z</time></trkpt><trkpt lat="41.9837967" lon="12.855635"><ele>263.0</ele><time>2026-04-20T10:08:29.315Z</time></trkpt><trkpt lat="41.9837733" lon="12.8553917"><ele>261.33333333333337</ele><time>2026-04-20T10:08:30.319Z</time></trkpt><trkpt lat="41.9837833" lon="12.8551133"><ele>259.6666666666667</ele><time>2026-04-20T10:08:31.32Z</time></trkpt><trkpt lat="41.98381" lon="12.85481"><ele>258.0</ele><time>2026-04-20T10:08:32.319Z</time></trkpt><trkpt lat="41.9838367" lon="12.8545033"><ele>257.0</ele><time>2026-04-20T10:08:33.318Z</time></trkpt><trkpt lat="41.9838633" lon="12.8542183"><ele>256.0</ele><time>2026-04-20T10:08:34.32Z</time></trkpt><trkpt lat="41.98389" lon="12.8539583"><ele>255.0</ele><time>2026-04-20T10:08:35.316Z</time></trkpt><trkpt lat="41.9839367" lon="12.8537167"><ele>255.0</ele><time>2026-04-20T10:08:36.317Z</time></trkpt><trkpt lat="41.9840183" lon="12.8534867"><ele>255.0</ele><time>2026-04-20T10:08:37.319Z</time></trkpt><trkpt lat="41.9841467" lon="12.8532633"><ele>255.0</ele><time>2026-04-20T10:08:38.321Z</time></trkpt><trkpt lat="41.9843117" lon="12.853045"><ele>257.0</ele><time>2026-04-20T10:08:39.32Z</time></trkpt><trkpt lat="41.9845033" lon="12.8528217"><ele>259.0</ele><time>2026-04-20T10:08:40.318Z</time></trkpt><trkpt lat="41.984705" lon="12.852595"><ele>259.0</ele><time>2026-04-20T10:08:41.319Z</time></trkpt><trkpt lat="41.984905" lon="12.8523583"><ele>259.0</ele><time>2026-04-20T10:08:42.319Z</time></trkpt><trkpt lat="41.9851033" lon="12.852125"><ele>261.0</ele><time>2026-04-20T10:08:43.317Z</time></trkpt><trkpt lat="41.985285" lon="12.8519"><ele>263.0</ele><time>2026-04-20T10:08:44.319Z</time></trkpt><trkpt lat="41.9854567" lon="12.8516767"><ele>263.0</ele><time>2026-04-20T10:08:45.32Z</time></trkpt><trkpt lat="41.98561" lon="12.8514533"><ele>263.0</ele><time>2026-04-20T10:08:46.319Z</time></trkpt><trkpt lat="41.985735" lon="12.851225"><ele>263.0</ele><time>2026-04-20T10:08:47.319Z</time></trkpt><trkpt lat="41.985845" lon="12.8509967"><ele>263.0</ele><time>2026-04-20T10:08:48.316Z</time></trkpt><trkpt lat="41.9859417" lon="12.85075"><ele>263.0</ele><time>2026-04-20T10:08:49.319Z</time></trkpt><trkpt lat="41.9860117" lon="12.85048"><ele>263.0</ele><time>2026-04-20T10:08:50.317Z</time></trkpt><trkpt lat="41.9860433" lon="12.850185"><ele>262.6666666666667</ele><time>2026-04-20T10:08:51.32Z</time></trkpt><trkpt lat="41.9860533" lon="12.8498917"><ele>262.3333333333333</ele><time>2026-04-20T10:08:52.32Z</time></trkpt><trkpt lat="41.9860633" lon="12.8496033"><ele>262.0</ele><time>2026-04-20T10:08:53.319Z</time></trkpt><trkpt lat="41.986085" lon="12.8493333"><ele>261.66666666666663</ele><time>2026-04-20T10:08:54.32Z</time></trkpt><trkpt lat="41.9861283" lon="12.8490967"><ele>261.3333333333333</ele><time>2026-04-20T10:08:55.32Z</time></trkpt><trkpt lat="41.986205" lon="12.8488933"><ele>261.0</ele><time>2026-04-20T10:08:56.319Z</time></trkpt><trkpt lat="41.9863083" lon="12.8486917"><ele>261.0</ele><time>2026-04-20T10:08:57.32Z</time></trkpt><trkpt lat="41.98643" lon="12.84847"><ele>261.0</ele><time>2026-04-20T10:08:58.319Z</time></trkpt><trkpt lat="41.98654" lon="12.84824"><ele>261.0</ele><time>2026-04-20T10:08:59.32Z</time></trkpt><trkpt lat="41.986625" lon="12.8480033"><ele>260.3333333333333</ele><time>2026-04-20T10:09:00.317Z</time></trkpt><trkpt lat="41.9866783" lon="12.84776"><ele>259.66666666666663</ele><time>2026-04-20T10:09:01.317Z</time></trkpt><trkpt lat="41.9866883" lon="12.8475"><ele>259.0</ele><time>2026-04-20T10:09:02.319Z</time></trkpt><trkpt lat="41.98665" lon="12.8472433"><ele>258.66666666666663</ele><time>2026-04-20T10:09:03.318Z</time></trkpt><trkpt lat="41.9865683" lon="12.846985"><ele>258.3333333333333</ele><time>2026-04-20T10:09:04.319Z</time></trkpt><trkpt lat="41.986465" lon="12.84672"><ele>258.0</ele><time>2026-04-20T10:09:05.319Z</time></trkpt><trkpt lat="41.9863533" lon="12.8464433"><ele>257.5</ele><time>2026-04-20T10:09:06.317Z</time></trkpt><trkpt lat="41.9862433" lon="12.8461517"><ele>257.0</ele><time>2026-04-20T10:09:07.319Z</time></trkpt><trkpt lat="41.9861283" lon="12.84586"><ele>255.5</ele><time>2026-04-20T10:09:08.318Z</time></trkpt><trkpt lat="41.9860017" lon="12.8455883"><ele>254.0</ele><time>2026-04-20T10:09:09.318Z</time></trkpt><trkpt lat="41.9858567" lon="12.8453283"><ele>255.0</ele><time>2026-04-20T10:09:10.316Z</time></trkpt><trkpt lat="41.98569" lon="12.84509"><ele>256.0</ele><time>2026-04-20T10:09:11.319Z</time></trkpt><trkpt lat="41.9855067" lon="12.8448667"><ele>256.0</ele><time>2026-04-20T10:09:12.319Z</time></trkpt><trkpt lat="41.9853017" lon="12.8446667"><ele>256.0</ele><time>2026-04-20T10:09:13.319Z</time></trkpt><trkpt lat="41.985085" lon="12.8444817"><ele>256.5</ele><time>2026-04-20T10:09:14.32Z</time></trkpt><trkpt lat="41.98485" lon="12.844325"><ele>257.0</ele><time>2026-04-20T10:09:15.32Z</time></trkpt><trkpt lat="41.9846017" lon="12.844205"><ele>257.0</ele><time>2026-04-20T10:09:16.319Z</time></trkpt><trkpt lat="41.9843467" lon="12.8441183"><ele>257.0</ele><time>2026-04-20T10:09:17.319Z</time></trkpt><trkpt lat="41.9840917" lon="12.84407"><ele>255.5</ele><time>2026-04-20T10:09:18.315Z</time></trkpt><trkpt lat="41.9838383" lon="12.844055"><ele>254.0</ele><time>2026-04-20T10:09:19.319Z</time></trkpt><trkpt lat="41.98358" lon="12.8440683"><ele>254.0</ele><time>2026-04-20T10:09:20.319Z</time></trkpt><trkpt lat="41.98331" lon="12.84411"><ele>254.0</ele><time>2026-04-20T10:09:21.32Z</time></trkpt><trkpt lat="41.983045" lon="12.8441633"><ele>254.0</ele><time>2026-04-20T10:09:22.319Z</time></trkpt><trkpt lat="41.9828" lon="12.8442067"><ele>254.0</ele><time>2026-04-20T10:09:23.319Z</time></trkpt><trkpt lat="41.9825617" lon="12.844245"><ele>254.33333333333334</ele><time>2026-04-20T10:09:24.316Z</time></trkpt><trkpt lat="41.9823417" lon="12.8442833"><ele>254.66666666666669</ele><time>2026-04-20T10:09:25.316Z</time></trkpt><trkpt lat="41.98213" lon="12.8443167"><ele>255.0</ele><time>2026-04-20T10:09:26.32Z</time></trkpt><trkpt lat="41.9819267" lon="12.8443417"><ele>255.33333333333331</ele><time>2026-04-20T10:09:27.318Z</time></trkpt><trkpt lat="41.9817333" lon="12.8443433"><ele>255.66666666666666</ele><time>2026-04-20T10:09:28.317Z</time></trkpt><trkpt lat="41.9815433" lon="12.8443033"><ele>256.0</ele><time>2026-04-20T10:09:29.315Z</time></trkpt><trkpt lat="41.9813533" lon="12.8442167"><ele>256.0</ele><time>2026-04-20T10:09:30.317Z</time></trkpt><trkpt lat="41.9811633" lon="12.84409"><ele>256.0</ele><time>2026-04-20T10:09:31.318Z</time></trkpt><trkpt lat="41.9809817" lon="12.8439283"><ele>256.0</ele><time>2026-04-20T10:09:32.318Z</time></trkpt><trkpt lat="41.9808283" lon="12.84374"><ele>255.66666666666666</ele><time>2026-04-20T10:09:33.317Z</time></trkpt><trkpt lat="41.9807083" lon="12.8435133"><ele>255.33333333333331</ele><time>2026-04-20T10:09:34.317Z</time></trkpt><trkpt lat="41.9806183" lon="12.84325"><ele>255.0</ele><time>2026-04-20T10:09:35.316Z</time></trkpt><trkpt lat="41.98055" lon="12.8429533"><ele>255.0</ele><time>2026-04-20T10:09:36.316Z</time></trkpt><trkpt lat="41.9804833" lon="12.8426433"><ele>255.0</ele><time>2026-04-20T10:09:37.318Z</time></trkpt><trkpt lat="41.9803917" lon="12.8423333"><ele>256.5</ele><time>2026-04-20T10:09:38.316Z</time></trkpt><trkpt lat="41.98027" lon="12.8420217"><ele>258.0</ele><time>2026-04-20T10:09:39.317Z</time></trkpt><trkpt lat="41.9801167" lon="12.8417183"><ele>255.5</ele><time>2026-04-20T10:09:40.316Z</time></trkpt><trkpt lat="41.9799383" lon="12.8414267"><ele>253.0</ele><time>2026-04-20T10:09:41.316Z</time></trkpt><trkpt lat="41.979745" lon="12.8411633"><ele>257.5</ele><time>2026-04-20T10:09:42.317Z</time></trkpt><trkpt lat="41.9795533" lon="12.8409367"><ele>262.0</ele><time>2026-04-20T10:09:43.316Z</time></trkpt><trkpt lat="41.979375" lon="12.8407467"><ele>262.0</ele><time>2026-04-20T10:09:44.316Z</time></trkpt><trkpt lat="41.9792217" lon="12.840565"><ele>262.0</ele><time>2026-04-20T10:09:45.317Z</time></trkpt><trkpt lat="41.9790967" lon="12.8403667"><ele>262.0</ele><time>2026-04-20T10:09:46.32Z</time></trkpt><trkpt lat="41.9790017" lon="12.8401433"><ele>259.3333333333333</ele><time>2026-04-20T10:09:47.32Z</time></trkpt><trkpt lat="41.9789517" lon="12.8399"><ele>256.6666666666667</ele><time>2026-04-20T10:09:48.319Z</time></trkpt><trkpt lat="41.9789417" lon="12.8396517"><ele>254.0</ele><time>2026-04-20T10:09:49.318Z</time></trkpt><trkpt lat="41.978975" lon="12.8393967"><ele>254.0</ele><time>2026-04-20T10:09:50.318Z</time></trkpt><trkpt lat="41.9790417" lon="12.8391533"><ele>254.0</ele><time>2026-04-20T10:09:51.319Z</time></trkpt><trkpt lat="41.97914" lon="12.83892"><ele>254.0</ele><time>2026-04-20T10:09:52.318Z</time></trkpt><trkpt lat="41.97925" lon="12.8386933"><ele>257.0</ele><time>2026-04-20T10:09:53.318Z</time></trkpt><trkpt lat="41.979345" lon="12.838475"><ele>260.0</ele><time>2026-04-20T10:09:54.318Z</time></trkpt><trkpt lat="41.9794233" lon="12.83825"><ele>263.0</ele><time>2026-04-20T10:09:55.32Z</time></trkpt><trkpt lat="41.97947" lon="12.8380083"><ele>263.0</ele><time>2026-04-20T10:09:56.32Z</time></trkpt><trkpt lat="41.979475" lon="12.837745"><ele>263.0</ele><time>2026-04-20T10:09:57.318Z</time></trkpt><trkpt lat="41.9794433" lon="12.83747"><ele>263.0</ele><time>2026-04-20T10:09:58.318Z</time></trkpt><trkpt lat="41.9793867" lon="12.83719"><ele>261.0</ele><time>2026-04-20T10:09:59.318Z</time></trkpt><trkpt lat="41.9793083" lon="12.8369283"><ele>259.0</ele><time>2026-04-20T10:10:00.316Z</time></trkpt><trkpt lat="41.9792117" lon="12.8366933"><ele>257.0</ele><time>2026-04-20T10:10:01.321Z</time></trkpt><trkpt lat="41.9790933" lon="12.8364883"><ele>256.6666666666667</ele><time>2026-04-20T10:10:02.318Z</time></trkpt><trkpt lat="41.9789367" lon="12.8363033"><ele>256.3333333333333</ele><time>2026-04-20T10:10:03.318Z</time></trkpt><trkpt lat="41.97877" lon="12.8361283"><ele>256.0</ele><time>2026-04-20T10:10:04.315Z</time></trkpt><trkpt lat="41.9786083" lon="12.8359533"><ele>254.66666666666666</ele><time>2026-04-20T10:10:05.32Z</time></trkpt><trkpt lat="41.9784683" lon="12.83575"><ele>253.33333333333331</ele><time>2026-04-20T10:10:06.317Z</time></trkpt><trkpt lat="41.9783267" lon="12.8355233"><ele>252.0</ele><time>2026-04-20T10:10:07.316Z</time></trkpt><trkpt lat="41.9782017" lon="12.8352683"><ele>256.0</ele><time>2026-04-20T10:10:08.32Z</time></trkpt><trkpt lat="41.9780733" lon="12.83501"><ele>260.0</ele><time>2026-04-20T10:10:09.321Z</time></trkpt><trkpt lat="41.9779367" lon="12.8347383"><ele>260.0</ele><time>2026-04-20T10:10:10.315Z</time></trkpt><trkpt lat="41.9777933" lon="12.8344717"><ele>260.0</ele><time>2026-04-20T10:10:11.319Z</time></trkpt><trkpt lat="41.9776417" lon="12.8342233"><ele>258.5</ele><time>2026-04-20T10:10:12.319Z</time></trkpt><trkpt lat="41.9774783" lon="12.8340033"><ele>257.0</ele><time>2026-04-20T10:10:13.319Z</time></trkpt><trkpt lat="41.977305" lon="12.833805"><ele>257.0</ele><time>2026-04-20T10:10:14.319Z</time></trkpt><trkpt lat="41.9771233" lon="12.83363"><ele>257.0</ele><time>2026-04-20T10:10:15.319Z</time></trkpt><trkpt lat="41.97693" lon="12.8334867"><ele>257.0</ele><time>2026-04-20T10:10:16.318Z</time></trkpt><trkpt lat="41.9767267" lon="12.8333783"><ele>258.33333333333337</ele><time>2026-04-20T10:10:17.318Z</time></trkpt><trkpt lat="41.9765233" lon="12.83329"><ele>259.6666666666667</ele><time>2026-04-20T10:10:18.316Z</time></trkpt><trkpt lat="41.9763183" lon="12.8332067"><ele>261.0</ele><time>2026-04-20T10:10:19.319Z</time></trkpt><trkpt lat="41.9761133" lon="12.833125"><ele>261.0</ele><time>2026-04-20T10:10:20.319Z</time></trkpt><trkpt lat="41.975915" lon="12.83305"><ele>261.0</ele><time>2026-04-20T10:10:21.318Z</time></trkpt><trkpt lat="41.9757217" lon="12.8329717"><ele>261.0</ele><time>2026-04-20T10:10:22.318Z</time></trkpt><trkpt lat="41.9755267" lon="12.8328867"><ele>260.0</ele><time>2026-04-20T10:10:23.318Z</time></trkpt><trkpt lat="41.97532" lon="12.8328083"><ele>259.0</ele><time>2026-04-20T10:10:24.318Z</time></trkpt><trkpt lat="41.9751083" lon="12.8327267"><ele>258.0</ele><time>2026-04-20T10:10:25.32Z</time></trkpt><trkpt lat="41.9749017" lon="12.832645"><ele>260.0</ele><time>2026-04-20T10:10:26.319Z</time></trkpt><trkpt lat="41.9747" lon="12.83258"><ele>262.0</ele><time>2026-04-20T10:10:27.319Z</time></trkpt><trkpt lat="41.9744933" lon="12.8325333"><ele>264.0</ele><time>2026-04-20T10:10:28.32Z</time></trkpt><trkpt lat="41.9742783" lon="12.8324867"><ele>263.6666666666667</ele><time>2026-04-20T10:10:29.319Z</time></trkpt><trkpt lat="41.9740617" lon="12.8324417"><ele>263.33333333333337</ele><time>2026-04-20T10:10:30.317Z</time></trkpt><trkpt lat="41.973845" lon="12.8323983"><ele>263.0</ele><time>2026-04-20T10:10:31.321Z</time></trkpt><trkpt lat="41.9736317" lon="12.8323517"><ele>263.0</ele><time>2026-04-20T10:10:32.32Z</time></trkpt><trkpt lat="41.9734133" lon="12.832305"><ele>263.0</ele><time>2026-04-20T10:10:33.318Z</time></trkpt><trkpt lat="41.9731967" lon="12.83226"><ele>263.0</ele><time>2026-04-20T10:10:34.318Z</time></trkpt><trkpt lat="41.9729767" lon="12.832215"><ele>261.6666666666667</ele><time>2026-04-20T10:10:35.317Z</time></trkpt><trkpt lat="41.972755" lon="12.8321667"><ele>260.3333333333333</ele><time>2026-04-20T10:10:36.318Z</time></trkpt><trkpt lat="41.972535" lon="12.8321117"><ele>259.0</ele><time>2026-04-20T10:10:37.315Z</time></trkpt><trkpt lat="41.972315" lon="12.8320383"><ele>257.5</ele><time>2026-04-20T10:10:38.318Z</time></trkpt><trkpt lat="41.9720917" lon="12.83194"><ele>256.0</ele><time>2026-04-20T10:10:39.32Z</time></trkpt><trkpt lat="41.9718683" lon="12.8318167"><ele>253.5</ele><time>2026-04-20T10:10:40.32Z</time></trkpt><trkpt lat="41.9716483" lon="12.8316717"><ele>251.0</ele><time>2026-04-20T10:10:41.317Z</time></trkpt><trkpt lat="41.9714367" lon="12.831505"><ele>251.0</ele><time>2026-04-20T10:10:42.319Z</time></trkpt><trkpt lat="41.97123" lon="12.8313233"><ele>251.0</ele><time>2026-04-20T10:10:43.319Z</time></trkpt><trkpt lat="41.9710217" lon="12.8311333"><ele>253.5</ele><time>2026-04-20T10:10:44.319Z</time></trkpt><trkpt lat="41.97081" lon="12.83094"><ele>256.0</ele><time>2026-04-20T10:10:45.32Z</time></trkpt><trkpt lat="41.9705933" lon="12.83075"><ele>256.0</ele><time>2026-04-20T10:10:46.319Z</time></trkpt><trkpt lat="41.970375" lon="12.83056"><ele>256.0</ele><time>2026-04-20T10:10:47.32Z</time></trkpt><trkpt lat="41.97016" lon="12.8303767"><ele>256.5</ele><time>2026-04-20T10:10:48.316Z</time></trkpt><trkpt lat="41.9699517" lon="12.830195"><ele>257.0</ele><time>2026-04-20T10:10:49.318Z</time></trkpt><trkpt lat="41.9697533" lon="12.8299967"><ele>258.5</ele><time>2026-04-20T10:10:50.318Z</time></trkpt><trkpt lat="41.9695567" lon="12.8297917"><ele>260.0</ele><time>2026-04-20T10:10:51.318Z</time></trkpt><trkpt lat="41.96937" lon="12.8295683"><ele>260.0</ele><time>2026-04-20T10:10:52.317Z</time></trkpt><trkpt lat="41.9692017" lon="12.8293367"><ele>260.0</ele><time>2026-04-20T10:10:53.316Z</time></trkpt><trkpt lat="41.9690483" lon="12.8290983"><ele>261.5</ele><time>2026-04-20T10:10:54.317Z</time></trkpt><trkpt lat="41.968905" lon="12.8288517"><ele>263.0</ele><time>2026-04-20T10:10:55.321Z</time></trkpt><trkpt lat="41.9687817" lon="12.8285983"><ele>263.0</ele><time>2026-04-20T10:10:56.319Z</time></trkpt><trkpt lat="41.9686683" lon="12.8283433"><ele>263.0</ele><time>2026-04-20T10:10:57.319Z</time></trkpt><trkpt lat="41.9685567" lon="12.8281"><ele>263.0</ele><time>2026-04-20T10:10:58.319Z</time></trkpt><trkpt lat="41.968445" lon="12.8278617"><ele>262.33333333333337</ele><time>2026-04-20T10:10:59.319Z</time></trkpt><trkpt lat="41.968335" lon="12.82762"><ele>261.6666666666667</ele><time>2026-04-20T10:11:00.32Z</time></trkpt><trkpt lat="41.9682267" lon="12.8273717"><ele>261.0</ele><time>2026-04-20T10:11:01.319Z</time></trkpt><trkpt lat="41.96811" lon="12.8271233"><ele>261.0</ele><time>2026-04-20T10:11:02.317Z</time></trkpt><trkpt lat="41.9679783" lon="12.8268917"><ele>261.0</ele><time>2026-04-20T10:11:03.318Z</time></trkpt><trkpt lat="41.967835" lon="12.826675"><ele>261.0</ele><time>2026-04-20T10:11:04.318Z</time></trkpt><trkpt lat="41.9676833" lon="12.8264717"><ele>260.3333333333333</ele><time>2026-04-20T10:11:05.317Z</time></trkpt><trkpt lat="41.9675267" lon="12.82628"><ele>259.66666666666663</ele><time>2026-04-20T10:11:06.317Z</time></trkpt><trkpt lat="41.967365" lon="12.8261033"><ele>259.0</ele><time>2026-04-20T10:11:07.32Z</time></trkpt><trkpt lat="41.967195" lon="12.8259417"><ele>259.0</ele><time>2026-04-20T10:11:08.317Z</time></trkpt><trkpt lat="41.9670133" lon="12.8257917"><ele>259.0</ele><time>2026-04-20T10:11:09.317Z</time></trkpt><trkpt lat="41.966815" lon="12.8256617"><ele>259.0</ele><time>2026-04-20T10:11:10.316Z</time></trkpt><trkpt lat="41.96661" lon="12.8255417"><ele>257.5</ele><time>2026-04-20T10:11:11.319Z</time></trkpt><trkpt lat="41.9664067" lon="12.8254167"><ele>256.0</ele><time>2026-04-20T10:11:12.32Z</time></trkpt><trkpt lat="41.9661983" lon="12.8252883"><ele>256.0</ele><time>2026-04-20T10:11:13.32Z</time></trkpt><trkpt lat="41.9659867" lon="12.825165"><ele>256.0</ele><time>2026-04-20T10:11:14.32Z</time></trkpt><trkpt lat="41.9657633" lon="12.825045"><ele>256.5</ele><time>2026-04-20T10:11:15.319Z</time></trkpt><trkpt lat="41.9655267" lon="12.82492"><ele>257.0</ele><time>2026-04-20T10:11:16.32Z</time></trkpt><trkpt lat="41.96528" lon="12.82478"><ele>257.0</ele><time>2026-04-20T10:11:17.32Z</time></trkpt><trkpt lat="41.9650333" lon="12.8246283"><ele>257.0</ele><time>2026-04-20T10:11:18.316Z</time></trkpt><trkpt lat="41.964785" lon="12.82447"><ele>257.5</ele><time>2026-04-20T10:11:19.316Z</time></trkpt><trkpt lat="41.9645417" lon="12.824315"><ele>258.0</ele><time>2026-04-20T10:11:20.317Z</time></trkpt><trkpt lat="41.964295" lon="12.8241617"><ele>258.5</ele><time>2026-04-20T10:11:21.318Z</time></trkpt><trkpt lat="41.964055" lon="12.8240133"><ele>259.0</ele><time>2026-04-20T10:11:22.316Z</time></trkpt><trkpt lat="41.9638317" lon="12.82387"><ele>259.0</ele><time>2026-04-20T10:11:23.317Z</time></trkpt><trkpt lat="41.9636183" lon="12.8237183"><ele>259.0</ele><time>2026-04-20T10:11:24.318Z</time></trkpt><trkpt lat="41.9634083" lon="12.8235517"><ele>259.0</ele><time>2026-04-20T10:11:25.32Z</time></trkpt><trkpt lat="41.9631967" lon="12.823375"><ele>259.0</ele><time>2026-04-20T10:11:26.319Z</time></trkpt><trkpt lat="41.9629767" lon="12.8232033"><ele>259.0</ele><time>2026-04-20T10:11:27.318Z</time></trkpt><trkpt lat="41.9627483" lon="12.8230417"><ele>259.0</ele><time>2026-04-20T10:11:28.319Z</time></trkpt><trkpt lat="41.9625033" lon="12.8228967"><ele>257.5</ele><time>2026-04-20T10:11:29.319Z</time></trkpt><trkpt lat="41.9622517" lon="12.822775"><ele>256.0</ele><time>2026-04-20T10:11:30.318Z</time></trkpt><trkpt lat="41.962" lon="12.8226683"><ele>259.5</ele><time>2026-04-20T10:11:31.32Z</time></trkpt><trkpt lat="41.96176" lon="12.82257"><ele>263.0</ele><time>2026-04-20T10:11:32.315Z</time></trkpt><trkpt lat="41.961525" lon="12.8224783"><ele>263.0</ele><time>2026-04-20T10:11:33.316Z</time></trkpt><trkpt lat="41.961285" lon="12.8223967"><ele>263.0</ele><time>2026-04-20T10:11:34.316Z</time></trkpt><trkpt lat="41.9610533" lon="12.822315"><ele>261.6666666666667</ele><time>2026-04-20T10:11:35.315Z</time></trkpt><trkpt lat="41.9608383" lon="12.8222417"><ele>260.3333333333333</ele><time>2026-04-20T10:11:36.317Z</time></trkpt><trkpt lat="41.96063" lon="12.822175"><ele>259.0</ele><time>2026-04-20T10:11:37.317Z</time></trkpt><trkpt lat="41.9604233" lon="12.8221017"><ele>259.0</ele><time>2026-04-20T10:11:38.317Z</time></trkpt><trkpt lat="41.960215" lon="12.8220183"><ele>259.0</ele><time>2026-04-20T10:11:39.32Z</time></trkpt><trkpt lat="41.9600017" lon="12.8219267"><ele>259.0</ele><time>2026-04-20T10:11:40.319Z</time></trkpt><trkpt lat="41.9597833" lon="12.8218267"><ele>262.0</ele><time>2026-04-20T10:11:41.32Z</time></trkpt><trkpt lat="41.9595617" lon="12.8217183"><ele>265.0</ele><time>2026-04-20T10:11:42.319Z</time></trkpt><trkpt lat="41.9593483" lon="12.82159"><ele>263.66666666666663</ele><time>2026-04-20T10:11:43.319Z</time></trkpt><trkpt lat="41.9591467" lon="12.821455"><ele>262.3333333333333</ele><time>2026-04-20T10:11:44.318Z</time></trkpt><trkpt lat="41.9589617" lon="12.8213283"><ele>261.0</ele><time>2026-04-20T10:11:45.321Z</time></trkpt><trkpt lat="41.9587883" lon="12.82121"><ele>261.0</ele><time>2026-04-20T10:11:46.319Z</time></trkpt><trkpt lat="41.9586283" lon="12.8210983"><ele>261.0</ele><time>2026-04-20T10:11:47.319Z</time></trkpt><trkpt lat="41.9584767" lon="12.8209967"><ele>261.0</ele><time>2026-04-20T10:11:48.322Z</time></trkpt><trkpt lat="41.95833" lon="12.8208967"><ele>261.0</ele><time>2026-04-20T10:11:49.317Z</time></trkpt><trkpt lat="41.9581767" lon="12.8207917"><ele>261.0</ele><time>2026-04-20T10:11:50.317Z</time></trkpt><trkpt lat="41.958015" lon="12.8206783"><ele>261.0</ele><time>2026-04-20T10:11:51.318Z</time></trkpt><trkpt lat="41.95785" lon="12.820545"><ele>261.0</ele><time>2026-04-20T10:11:52.317Z</time></trkpt><trkpt lat="41.9576833" lon="12.820385"><ele>261.0</ele><time>2026-04-20T10:11:53.317Z</time></trkpt><trkpt lat="41.9575167" lon="12.82021"><ele>261.0</ele><time>2026-04-20T10:11:54.318Z</time></trkpt><trkpt lat="41.95736" lon="12.8200117"><ele>260.6666666666667</ele><time>2026-04-20T10:11:55.32Z</time></trkpt><trkpt lat="41.9572183" lon="12.819785"><ele>260.33333333333337</ele><time>2026-04-20T10:11:56.318Z</time></trkpt><trkpt lat="41.9570933" lon="12.8195467"><ele>260.0</ele><time>2026-04-20T10:11:57.321Z</time></trkpt><trkpt lat="41.9569783" lon="12.81932"><ele>259.0</ele><time>2026-04-20T10:11:58.319Z</time></trkpt><trkpt lat="41.95687" lon="12.8191083"><ele>258.0</ele><time>2026-04-20T10:11:59.318Z</time></trkpt><trkpt lat="41.9567567" lon="12.818905"><ele>257.0</ele><time>2026-04-20T10:12:00.315Z</time></trkpt><trkpt lat="41.95664" lon="12.8186983"><ele>257.0</ele><time>2026-04-20T10:12:01.32Z</time></trkpt><trkpt lat="41.9565167" lon="12.8185033"><ele>257.0</ele><time>2026-04-20T10:12:02.318Z</time></trkpt><trkpt lat="41.9563933" lon="12.81833"><ele>257.0</ele><time>2026-04-20T10:12:03.318Z</time></trkpt><trkpt lat="41.95628" lon="12.8181767"><ele>258.25</ele><time>2026-04-20T10:12:04.317Z</time></trkpt><trkpt lat="41.95618" lon="12.8180367"><ele>259.5</ele><time>2026-04-20T10:12:05.317Z</time></trkpt><trkpt lat="41.9560967" lon="12.817905"><ele>260.75</ele><time>2026-04-20T10:12:06.318Z</time></trkpt><trkpt lat="41.9560233" lon="12.8177767"><ele>262.0</ele><time>2026-04-20T10:12:07.316Z</time></trkpt><trkpt lat="41.955965" lon="12.817645"><ele>261.8</ele><time>2026-04-20T10:12:08.315Z</time></trkpt><trkpt lat="41.95591" lon="12.81751"><ele>261.6</ele><time>2026-04-20T10:12:09.318Z</time></trkpt><trkpt lat="41.9558617" lon="12.8173817"><ele>261.40000000000003</ele><time>2026-04-20T10:12:10.315Z</time></trkpt><trkpt lat="41.9558167" lon="12.81726"><ele>261.2</ele><time>2026-04-20T10:12:11.32Z</time></trkpt><trkpt lat="41.9557717" lon="12.8171333"><ele>261.0</ele><time>2026-04-20T10:12:12.32Z</time></trkpt><trkpt lat="41.955725" lon="12.8169917"><ele>261.0</ele><time>2026-04-20T10:12:13.32Z</time></trkpt><trkpt lat="41.9556783" lon="12.8168317"><ele>261.0</ele><time>2026-04-20T10:12:14.32Z</time></trkpt><trkpt lat="41.955635" lon="12.8166467"><ele>261.0</ele><time>2026-04-20T10:12:15.321Z</time></trkpt><trkpt lat="41.9555917" lon="12.816455"><ele>261.0</ele><time>2026-04-20T10:12:16.319Z</time></trkpt><trkpt lat="41.9555533" lon="12.8162683"><ele>261.25</ele><time>2026-04-20T10:12:17.319Z</time></trkpt><trkpt lat="41.9555183" lon="12.8160883"><ele>261.5</ele><time>2026-04-20T10:12:18.317Z</time></trkpt><trkpt lat="41.95549" lon="12.8159183"><ele>261.75</ele><time>2026-04-20T10:12:19.316Z</time></trkpt><trkpt lat="41.9554667" lon="12.8157567"><ele>262.0</ele><time>2026-04-20T10:12:20.318Z</time></trkpt><trkpt lat="41.9554483" lon="12.8156"><ele>262.0</ele><time>2026-04-20T10:12:21.317Z</time></trkpt><trkpt lat="41.9554333" lon="12.81545"><ele>262.0</ele><time>2026-04-20T10:12:22.317Z</time></trkpt><trkpt lat="41.955425" lon="12.8153033"><ele>262.0</ele><time>2026-04-20T10:12:23.316Z</time></trkpt><trkpt lat="41.9554267" lon="12.815155"><ele>262.0</ele><time>2026-04-20T10:12:24.317Z</time></trkpt><trkpt lat="41.95544" lon="12.8149967"><ele>262.75</ele><time>2026-04-20T10:12:25.32Z</time></trkpt><trkpt lat="41.95547" lon="12.814835"><ele>263.5</ele><time>2026-04-20T10:12:26.319Z</time></trkpt><trkpt lat="41.95551" lon="12.8146683"><ele>264.25</ele><time>2026-04-20T10:12:27.319Z</time></trkpt><trkpt lat="41.955555" lon="12.8144967"><ele>265.0</ele><time>2026-04-20T10:12:28.32Z</time></trkpt><trkpt lat="41.9556" lon="12.81432"><ele>265.0</ele><time>2026-04-20T10:12:29.319Z</time></trkpt><trkpt lat="41.955645" lon="12.8141367"><ele>265.0</ele><time>2026-04-20T10:12:30.32Z</time></trkpt><trkpt lat="41.9556867" lon="12.8139533"><ele>265.0</ele><time>2026-04-20T10:12:31.318Z</time></trkpt><trkpt lat="41.95572" lon="12.813765"><ele>265.0</ele><time>2026-04-20T10:12:32.319Z</time></trkpt><trkpt lat="41.9557433" lon="12.81357"><ele>264.5</ele><time>2026-04-20T10:12:33.32Z</time></trkpt><trkpt lat="41.95576" lon="12.8133817"><ele>264.0</ele><time>2026-04-20T10:12:34.318Z</time></trkpt><trkpt lat="41.9557933" lon="12.8131967"><ele>263.5</ele><time>2026-04-20T10:12:35.317Z</time></trkpt><trkpt lat="41.9558583" lon="12.8130067"><ele>263.0</ele><time>2026-04-20T10:12:36.317Z</time></trkpt><trkpt lat="41.9559433" lon="12.8128267"><ele>265.75</ele><time>2026-04-20T10:12:37.32Z</time></trkpt><trkpt lat="41.9560283" lon="12.8126583"><ele>268.5</ele><time>2026-04-20T10:12:38.32Z</time></trkpt><trkpt lat="41.9561067" lon="12.8124983"><ele>271.25</ele><time>2026-04-20T10:12:39.319Z</time></trkpt><trkpt lat="41.9561667" lon="12.8123383"><ele>274.0</ele><time>2026-04-20T10:12:40.318Z</time></trkpt><trkpt lat="41.9562083" lon="12.8121783"><ele>274.0</ele><time>2026-04-20T10:12:41.319Z</time></trkpt><trkpt lat="41.9562417" lon="12.8120417"><ele>274.0</ele><time>2026-04-20T10:12:42.319Z</time></trkpt><trkpt lat="41.9562667" lon="12.8119383"><ele>274.0</ele><time>2026-04-20T10:12:43.32Z</time></trkpt><trkpt lat="41.9562883" lon="12.811855"><ele>274.0</ele><time>2026-04-20T10:12:44.319Z</time></trkpt><trkpt lat="41.9563267" lon="12.8116967"><ele>274.0</ele><time>2026-04-20T10:12:46.32Z</time></trkpt><trkpt lat="41.9563533" lon="12.81157"><ele>272.66666666666663</ele><time>2026-04-20T10:12:48.318Z</time></trkpt><trkpt lat="41.956385" lon="12.8114767"><ele>271.3333333333333</ele><time>2026-04-20T10:12:51.318Z</time></trkpt><trkpt lat="41.9564167" lon="12.8113867"><ele>270.0</ele><time>2026-04-20T10:13:01.317Z</time></trkpt><trkpt lat="41.9564383" lon="12.811285"><ele>268.6666666666667</ele><time>2026-04-20T10:13:03.319Z</time></trkpt><trkpt lat="41.9564717" lon="12.81119"><ele>267.33333333333337</ele><time>2026-04-20T10:13:05.315Z</time></trkpt><trkpt lat="41.9564917" lon="12.811095"><ele>266.0</ele><time>2026-04-20T10:13:14.32Z</time></trkpt><trkpt lat="41.9565383" lon="12.8109933"><ele>265.5</ele><time>2026-04-20T10:13:15.32Z</time></trkpt><trkpt lat="41.956615" lon="12.810865"><ele>265.0</ele><time>2026-04-20T10:13:16.318Z</time></trkpt><trkpt lat="41.9567067" lon="12.8107267"><ele>264.5</ele><time>2026-04-20T10:13:17.319Z</time></trkpt><trkpt lat="41.9568083" lon="12.8105767"><ele>264.0</ele><time>2026-04-20T10:13:18.319Z</time></trkpt><trkpt lat="41.9569167" lon="12.8104033"><ele>264.0</ele><time>2026-04-20T10:13:19.321Z</time></trkpt><trkpt lat="41.9570317" lon="12.8102117"><ele>264.0</ele><time>2026-04-20T10:13:20.319Z</time></trkpt><trkpt lat="41.9571517" lon="12.8100217"><ele>264.0</ele><time>2026-04-20T10:13:21.32Z</time></trkpt><trkpt lat="41.957265" lon="12.80984"><ele>260.0</ele><time>2026-04-20T10:13:22.318Z</time></trkpt><trkpt lat="41.9573717" lon="12.80967"><ele>256.0</ele><time>2026-04-20T10:13:23.32Z</time></trkpt><trkpt lat="41.95747" lon="12.809505"><ele>252.0</ele><time>2026-04-20T10:13:24.319Z</time></trkpt><trkpt lat="41.95757" lon="12.809335"><ele>255.33333333333331</ele><time>2026-04-20T10:13:25.322Z</time></trkpt><trkpt lat="41.9576733" lon="12.809155"><ele>258.66666666666663</ele><time>2026-04-20T10:13:26.316Z</time></trkpt><trkpt lat="41.9577767" lon="12.8089733"><ele>262.0</ele><time>2026-04-20T10:13:27.317Z</time></trkpt><trkpt lat="41.9578767" lon="12.8087983"><ele>262.0</ele><time>2026-04-20T10:13:28.319Z</time></trkpt><trkpt lat="41.95797" lon="12.80863"><ele>262.0</ele><time>2026-04-20T10:13:29.32Z</time></trkpt><trkpt lat="41.9580717" lon="12.808465"><ele>262.0</ele><time>2026-04-20T10:13:30.318Z</time></trkpt><trkpt lat="41.9581767" lon="12.8082967"><ele>266.0</ele><time>2026-04-20T10:13:31.319Z</time></trkpt><trkpt lat="41.9582867" lon="12.80812"><ele>270.0</ele><time>2026-04-20T10:13:32.319Z</time></trkpt><trkpt lat="41.9584067" lon="12.8079333"><ele>274.0</ele><time>2026-04-20T10:13:33.32Z</time></trkpt><trkpt lat="41.9585233" lon="12.8077533"><ele>267.66666666666663</ele><time>2026-04-20T10:13:34.32Z</time></trkpt><trkpt lat="41.9586333" lon="12.8075867"><ele>261.3333333333333</ele><time>2026-04-20T10:13:35.318Z</time></trkpt><trkpt lat="41.958735" lon="12.8074283"><ele>255.0</ele><time>2026-04-20T10:13:36.319Z</time></trkpt><trkpt lat="41.9588383" lon="12.80727"><ele>255.0</ele><time>2026-04-20T10:13:37.32Z</time></trkpt><trkpt lat="41.958945" lon="12.8071083"><ele>255.0</ele><time>2026-04-20T10:13:38.32Z</time></trkpt><trkpt lat="41.9590517" lon="12.80694"><ele>255.0</ele><time>2026-04-20T10:13:39.318Z</time></trkpt><trkpt lat="41.9591533" lon="12.8067717"><ele>256.0</ele><time>2026-04-20T10:13:40.319Z</time></trkpt><trkpt lat="41.9592617" lon="12.806615"><ele>257.0</ele><time>2026-04-20T10:13:41.319Z</time></trkpt><trkpt lat="41.95938" lon="12.806465"><ele>258.0</ele><time>2026-04-20T10:13:42.318Z</time></trkpt><trkpt lat="41.959505" lon="12.80632"><ele>258.0</ele><time>2026-04-20T10:13:43.32Z</time></trkpt><trkpt lat="41.95963" lon="12.8061933"><ele>258.0</ele><time>2026-04-20T10:13:44.319Z</time></trkpt><trkpt lat="41.95976" lon="12.8060867"><ele>258.0</ele><time>2026-04-20T10:13:45.32Z</time></trkpt><trkpt lat="41.9599" lon="12.8060017"><ele>251.66666666666669</ele><time>2026-04-20T10:13:46.319Z</time></trkpt><trkpt lat="41.9600517" lon="12.8059367"><ele>245.33333333333334</ele><time>2026-04-20T10:13:47.318Z</time></trkpt><trkpt lat="41.96021" lon="12.8058967"><ele>239.0</ele><time>2026-04-20T10:13:48.319Z</time></trkpt><trkpt lat="41.9603617" lon="12.8058717"><ele>239.0</ele><time>2026-04-20T10:13:49.319Z</time></trkpt><trkpt lat="41.9605117" lon="12.8058567"><ele>239.0</ele><time>2026-04-20T10:13:50.318Z</time></trkpt><trkpt lat="41.9606717" lon="12.8058583"><ele>239.0</ele><time>2026-04-20T10:13:51.32Z</time></trkpt><trkpt lat="41.960835" lon="12.80586"><ele>239.33333333333334</ele><time>2026-04-20T10:13:52.318Z</time></trkpt><trkpt lat="41.961" lon="12.805855"><ele>239.66666666666669</ele><time>2026-04-20T10:13:53.32Z</time></trkpt><trkpt lat="41.961165" lon="12.805845"><ele>240.0</ele><time>2026-04-20T10:13:54.319Z</time></trkpt><trkpt lat="41.9613283" lon="12.8058267"><ele>240.0</ele><time>2026-04-20T10:13:55.319Z</time></trkpt><trkpt lat="41.9614983" lon="12.805785"><ele>240.0</ele><time>2026-04-20T10:13:56.319Z</time></trkpt><trkpt lat="41.9616633" lon="12.805715"><ele>240.0</ele><time>2026-04-20T10:13:57.318Z</time></trkpt><trkpt lat="41.961815" lon="12.8056383"><ele>244.66666666666669</ele><time>2026-04-20T10:13:58.318Z</time></trkpt><trkpt lat="41.96196" lon="12.8055667"><ele>249.33333333333334</ele><time>2026-04-20T10:13:59.317Z</time></trkpt><trkpt lat="41.9621083" lon="12.8054917"><ele>254.0</ele><time>2026-04-20T10:14:00.319Z</time></trkpt><trkpt lat="41.9622567" lon="12.80541"><ele>254.0</ele><time>2026-04-20T10:14:01.318Z</time></trkpt><trkpt lat="41.9623983" lon="12.80533"><ele>254.0</ele><time>2026-04-20T10:14:02.319Z</time></trkpt><trkpt lat="41.962535" lon="12.805265"><ele>254.0</ele><time>2026-04-20T10:14:03.319Z</time></trkpt><trkpt lat="41.962665" lon="12.8051983"><ele>254.0</ele><time>2026-04-20T10:14:04.318Z</time></trkpt><trkpt lat="41.96279" lon="12.80513"><ele>252.25</ele><time>2026-04-20T10:14:05.319Z</time></trkpt><trkpt lat="41.9629117" lon="12.8050467"><ele>250.5</ele><time>2026-04-20T10:14:06.318Z</time></trkpt><trkpt lat="41.9630283" lon="12.80495"><ele>248.75</ele><time>2026-04-20T10:14:07.319Z</time></trkpt><trkpt lat="41.9631383" lon="12.8048467"><ele>247.0</ele><time>2026-04-20T10:14:08.319Z</time></trkpt><trkpt lat="41.9632417" lon="12.804745"><ele>247.0</ele><time>2026-04-20T10:14:09.32Z</time></trkpt><trkpt lat="41.9633367" lon="12.80464"><ele>247.0</ele><time>2026-04-20T10:14:10.319Z</time></trkpt><trkpt lat="41.9634183" lon="12.804535"><ele>247.0</ele><time>2026-04-20T10:14:11.319Z</time></trkpt><trkpt lat="41.9634933" lon="12.804415"><ele>247.0</ele><time>2026-04-20T10:14:12.319Z</time></trkpt><trkpt lat="41.9635633" lon="12.804285"><ele>249.75</ele><time>2026-04-20T10:14:13.318Z</time></trkpt><trkpt lat="41.9636333" lon="12.8041383"><ele>252.5</ele><time>2026-04-20T10:14:14.319Z</time></trkpt><trkpt lat="41.9637033" lon="12.803995"><ele>255.25</ele><time>2026-04-20T10:14:15.32Z</time></trkpt><trkpt lat="41.9637717" lon="12.80386"><ele>258.0</ele><time>2026-04-20T10:14:16.317Z</time></trkpt><trkpt lat="41.9638317" lon="12.8037283"><ele>258.0</ele><time>2026-04-20T10:14:17.315Z</time></trkpt><trkpt lat="41.9638933" lon="12.8036083"><ele>258.0</ele><time>2026-04-20T10:14:18.319Z</time></trkpt><trkpt lat="41.9639583" lon="12.8034917"><ele>258.0</ele><time>2026-04-20T10:14:19.315Z</time></trkpt><trkpt lat="41.9640183" lon="12.8033683"><ele>258.0</ele><time>2026-04-20T10:14:20.315Z</time></trkpt><trkpt lat="41.9640817" lon="12.8032417"><ele>258.0</ele><time>2026-04-20T10:14:21.319Z</time></trkpt><trkpt lat="41.9641633" lon="12.80312"><ele>257.0</ele><time>2026-04-20T10:14:22.319Z</time></trkpt><trkpt lat="41.9642483" lon="12.8030033"><ele>256.0</ele><time>2026-04-20T10:14:23.319Z</time></trkpt><trkpt lat="41.9643283" lon="12.8028933"><ele>255.0</ele><time>2026-04-20T10:14:24.318Z</time></trkpt><trkpt lat="41.9644067" lon="12.8027967"><ele>254.0</ele><time>2026-04-20T10:14:25.316Z</time></trkpt><trkpt lat="41.9644733" lon="12.802715"><ele>253.0</ele><time>2026-04-20T10:14:26.32Z</time></trkpt><trkpt lat="41.9645317" lon="12.8026417"><ele>250.00000000000003</ele><time>2026-04-20T10:14:27.318Z</time></trkpt><trkpt lat="41.964585" lon="12.8025783"><ele>247.0</ele><time>2026-04-20T10:14:28.319Z</time></trkpt><trkpt lat="41.9646383" lon="12.8025183"><ele>244.00000000000003</ele><time>2026-04-20T10:14:29.316Z</time></trkpt><trkpt lat="41.9646917" lon="12.802455"><ele>241.00000000000003</ele><time>2026-04-20T10:14:30.318Z</time></trkpt><trkpt lat="41.9647467" lon="12.802385"><ele>238.0</ele><time>2026-04-20T10:14:31.319Z</time></trkpt><trkpt lat="41.9648033" lon="12.8023167"><ele>235.00000000000003</ele><time>2026-04-20T10:14:32.317Z</time></trkpt><trkpt lat="41.964855" lon="12.8022483"><ele>232.00000000000003</ele><time>2026-04-20T10:14:33.319Z</time></trkpt><trkpt lat="41.964905" lon="12.802185"><ele>231.99999999999997</ele><time>2026-04-20T10:14:34.318Z</time></trkpt><trkpt lat="41.9649917" lon="12.802085"><ele>232.0</ele><time>2026-04-20T10:14:36.319Z</time></trkpt><trkpt lat="41.9650567" lon="12.80202"><ele>232.0</ele><time>2026-04-20T10:14:38.319Z</time></trkpt><trkpt lat="41.9651367" lon="12.8020083"><ele>232.0</ele><time>2026-04-20T10:14:41.318Z</time></trkpt><trkpt lat="41.9652017" lon="12.80196"><ele>231.99999999999997</ele><time>2026-04-20T10:14:43.317Z</time></trkpt><trkpt lat="41.9652317" lon="12.801875"><ele>232.0</ele><time>2026-04-20T10:14:45.318Z</time></trkpt><trkpt lat="41.9652517" lon="12.801765"><ele>229.16666666666666</ele><time>2026-04-20T10:14:47.319Z</time></trkpt><trkpt lat="41.9652633" lon="12.8016733"><ele>226.33333333333331</ele><time>2026-04-20T10:14:50.319Z</time></trkpt><trkpt lat="41.9652883" lon="12.801585"><ele>223.5</ele><time>2026-04-20T10:14:54.319Z</time></trkpt><trkpt lat="41.9653167" lon="12.8015033"><ele>220.66666666666669</ele><time>2026-04-20T10:14:57.318Z</time></trkpt><trkpt lat="41.965315" lon="12.80139"><ele>217.83333333333334</ele><time>2026-04-20T10:15:01.319Z</time></trkpt><trkpt lat="41.9652383" lon="12.8013383"><ele>215.0</ele><time>2026-04-20T10:15:04.319Z</time></trkpt><trkpt lat="41.965165" lon="12.8013783"><ele>215.00000000000003</ele><time>2026-04-20T10:15:06.318Z</time></trkpt><trkpt lat="41.96509" lon="12.8014383"><ele>215.0</ele><time>2026-04-20T10:15:08.319Z</time></trkpt><trkpt lat="41.9649883" lon="12.801515"><ele>215.0</ele><time>2026-04-20T10:15:10.318Z</time></trkpt><trkpt lat="41.9649183" lon="12.8015517"><ele>215.0</ele><time>2026-04-20T10:15:11.318Z</time></trkpt><trkpt lat="41.96485" lon="12.8015867"><ele>215.00000000000003</ele><time>2026-04-20T10:15:12.318Z</time></trkpt><trkpt lat="41.9647733" lon="12.8016217"><ele>215.0</ele><time>2026-04-20T10:15:13.316Z</time></trkpt><trkpt lat="41.9646933" lon="12.80166"><ele>216.8</ele><time>2026-04-20T10:15:14.318Z</time></trkpt><trkpt lat="41.9646017" lon="12.8017"><ele>218.6</ele><time>2026-04-20T10:15:15.318Z</time></trkpt><trkpt lat="41.9645067" lon="12.8017333"><ele>220.39999999999998</ele><time>2026-04-20T10:15:16.317Z</time></trkpt><trkpt lat="41.9644033" lon="12.8017433"><ele>222.2</ele><time>2026-04-20T10:15:17.32Z</time></trkpt><trkpt lat="41.9643" lon="12.8017217"><ele>224.0</ele><time>2026-04-20T10:15:18.319Z</time></trkpt><trkpt lat="41.9641967" lon="12.8016983"><ele>223.2</ele><time>2026-04-20T10:15:19.317Z</time></trkpt><trkpt lat="41.9640917" lon="12.80167"><ele>222.39999999999998</ele><time>2026-04-20T10:15:20.316Z</time></trkpt><trkpt lat="41.963985" lon="12.8016483"><ele>221.6</ele><time>2026-04-20T10:15:21.318Z</time></trkpt><trkpt lat="41.9638767" lon="12.8016367"><ele>220.8</ele><time>2026-04-20T10:15:22.317Z</time></trkpt><trkpt lat="41.963765" lon="12.8016367"><ele>220.0</ele><time>2026-04-20T10:15:23.317Z</time></trkpt><trkpt lat="41.963655" lon="12.8016483"><ele>220.0</ele><time>2026-04-20T10:15:24.316Z</time></trkpt><trkpt lat="41.9635417" lon="12.8016717"><ele>220.0</ele><time>2026-04-20T10:15:25.317Z</time></trkpt><trkpt lat="41.9634317" lon="12.801715"><ele>220.0</ele><time>2026-04-20T10:15:26.316Z</time></trkpt><trkpt lat="41.963325" lon="12.8017667"><ele>220.0</ele><time>2026-04-20T10:15:27.317Z</time></trkpt><trkpt lat="41.9632217" lon="12.80182"><ele>220.8</ele><time>2026-04-20T10:15:28.317Z</time></trkpt><trkpt lat="41.96312" lon="12.801875"><ele>221.6</ele><time>2026-04-20T10:15:29.317Z</time></trkpt><trkpt lat="41.9630183" lon="12.8019267"><ele>222.39999999999998</ele><time>2026-04-20T10:15:30.32Z</time></trkpt><trkpt lat="41.962915" lon="12.80198"><ele>223.2</ele><time>2026-04-20T10:15:31.319Z</time></trkpt><trkpt lat="41.9628083" lon="12.802035"><ele>224.0</ele><time>2026-04-20T10:15:32.318Z</time></trkpt><trkpt lat="41.9627033" lon="12.8020983"><ele>224.0</ele><time>2026-04-20T10:15:33.32Z</time></trkpt><trkpt lat="41.9625983" lon="12.802165"><ele>223.99999999999997</ele><time>2026-04-20T10:15:34.314Z</time></trkpt><trkpt lat="41.962505" lon="12.8022283"><ele>223.99999999999997</ele><time>2026-04-20T10:15:35.318Z</time></trkpt><trkpt lat="41.9624167" lon="12.8022867"><ele>224.0</ele><time>2026-04-20T10:15:36.319Z</time></trkpt><trkpt lat="41.962335" lon="12.802345"><ele>224.0</ele><time>2026-04-20T10:15:37.319Z</time></trkpt><trkpt lat="41.9622467" lon="12.8024017"><ele>223.6</ele><time>2026-04-20T10:15:38.317Z</time></trkpt><trkpt lat="41.96215" lon="12.8024617"><ele>223.2</ele><time>2026-04-20T10:15:39.319Z</time></trkpt><trkpt lat="41.9620517" lon="12.80253"><ele>222.79999999999998</ele><time>2026-04-20T10:15:40.319Z</time></trkpt><trkpt lat="41.9619533" lon="12.8025917"><ele>222.39999999999998</ele><time>2026-04-20T10:15:41.319Z</time></trkpt><trkpt lat="41.9618467" lon="12.8026467"><ele>222.0</ele><time>2026-04-20T10:15:42.32Z</time></trkpt><trkpt lat="41.9617383" lon="12.802695"><ele>221.25</ele><time>2026-04-20T10:15:43.317Z</time></trkpt><trkpt lat="41.9616317" lon="12.8027417"><ele>220.5</ele><time>2026-04-20T10:15:44.319Z</time></trkpt><trkpt lat="41.9615217" lon="12.8027883"><ele>219.75</ele><time>2026-04-20T10:15:45.319Z</time></trkpt><trkpt lat="41.9614083" lon="12.8028333"><ele>219.0</ele><time>2026-04-20T10:15:46.316Z</time></trkpt><trkpt lat="41.9612917" lon="12.8028733"><ele>219.0</ele><time>2026-04-20T10:15:47.315Z</time></trkpt><trkpt lat="41.9611767" lon="12.8029067"><ele>219.0</ele><time>2026-04-20T10:15:48.32Z</time></trkpt><trkpt lat="41.9610583" lon="12.80293"><ele>219.0</ele><time>2026-04-20T10:15:49.315Z</time></trkpt><trkpt lat="41.9609383" lon="12.8029483"><ele>219.0</ele><time>2026-04-20T10:15:50.317Z</time></trkpt><trkpt lat="41.9608167" lon="12.80297"><ele>220.39999999999998</ele><time>2026-04-20T10:15:51.317Z</time></trkpt><trkpt lat="41.9607017" lon="12.8029917"><ele>221.79999999999998</ele><time>2026-04-20T10:15:52.317Z</time></trkpt><trkpt lat="41.9606" lon="12.8030133"><ele>223.20000000000002</ele><time>2026-04-20T10:15:53.317Z</time></trkpt><trkpt lat="41.96051" lon="12.80304"><ele>224.60000000000002</ele><time>2026-04-20T10:15:54.317Z</time></trkpt><trkpt lat="41.9604317" lon="12.8030633"><ele>226.0</ele><time>2026-04-20T10:15:55.317Z</time></trkpt><trkpt lat="41.9603617" lon="12.80308"><ele>225.99999999999997</ele><time>2026-04-20T10:15:56.317Z</time></trkpt><trkpt lat="41.96029" lon="12.8030933"><ele>226.0</ele><time>2026-04-20T10:15:57.316Z</time></trkpt><trkpt lat="41.960215" lon="12.8031033"><ele>226.0</ele><time>2026-04-20T10:15:58.317Z</time></trkpt><trkpt lat="41.96014" lon="12.8031133"><ele>226.0</ele><time>2026-04-20T10:15:59.317Z</time></trkpt><trkpt lat="41.960075" lon="12.80311"><ele>225.99999999999997</ele><time>2026-04-20T10:16:00.316Z</time></trkpt><trkpt lat="41.9599917" lon="12.8030867"><ele>226.0</ele><time>2026-04-20T10:16:02.319Z</time></trkpt><trkpt lat="41.9599" lon="12.8030417"><ele>226.83333333333331</ele><time>2026-04-20T10:16:05.319Z</time></trkpt><trkpt lat="41.9598467" lon="12.8029783"><ele>227.66666666666666</ele><time>2026-04-20T10:16:07.32Z</time></trkpt><trkpt lat="41.9598067" lon="12.8028883"><ele>228.5</ele><time>2026-04-20T10:16:09.32Z</time></trkpt><trkpt lat="41.9597667" lon="12.8027567"><ele>229.33333333333331</ele><time>2026-04-20T10:16:11.315Z</time></trkpt><trkpt lat="41.9597433" lon="12.8026417"><ele>230.16666666666666</ele><time>2026-04-20T10:16:13.319Z</time></trkpt><trkpt lat="41.9597267" lon="12.802535"><ele>231.0</ele><time>2026-04-20T10:16:15.319Z</time></trkpt><trkpt lat="41.959705" lon="12.8024233"><ele>233.0</ele><time>2026-04-20T10:16:18.318Z</time></trkpt><trkpt lat="41.9597083" lon="12.8023333"><ele>235.0</ele><time>2026-04-20T10:16:20.315Z</time></trkpt><trkpt lat="41.95972" lon="12.8022117"><ele>237.0</ele><time>2026-04-20T10:16:22.315Z</time></trkpt><trkpt lat="41.9597733" lon="12.8020667"><ele>239.0</ele><time>2026-04-20T10:16:24.317Z</time></trkpt><trkpt lat="41.959815" lon="12.8019983"><ele>241.0</ele><time>2026-04-20T10:16:25.316Z</time></trkpt><trkpt lat="41.9598583" lon="12.8019367"><ele>243.0</ele><time>2026-04-20T10:16:26.317Z</time></trkpt><trkpt lat="41.9598883" lon="12.801825"><ele>243.4</ele><time>2026-04-20T10:16:28.315Z</time></trkpt><trkpt lat="41.959875" lon="12.8016683"><ele>243.8</ele><time>2026-04-20T10:16:30.318Z</time></trkpt><trkpt lat="41.95987" lon="12.8015633"><ele>244.2</ele><time>2026-04-20T10:16:31.32Z</time></trkpt><trkpt lat="41.95985" lon="12.8014567"><ele>244.6</ele><time>2026-04-20T10:16:32.32Z</time></trkpt><trkpt lat="41.95984" lon="12.8013383"><ele>245.0</ele><time>2026-04-20T10:16:33.317Z</time></trkpt><trkpt lat="41.95983" lon="12.8012133"><ele>245.0</ele><time>2026-04-20T10:16:34.319Z</time></trkpt><trkpt lat="41.95982" lon="12.8010783"><ele>245.0</ele><time>2026-04-20T10:16:35.319Z</time></trkpt><trkpt lat="41.9598117" lon="12.8009433"><ele>245.0</ele><time>2026-04-20T10:16:36.32Z</time></trkpt><trkpt lat="41.9598017" lon="12.800805"><ele>245.0</ele><time>2026-04-20T10:16:37.319Z</time></trkpt><trkpt lat="41.959795" lon="12.8006567"><ele>245.0</ele><time>2026-04-20T10:16:38.316Z</time></trkpt><trkpt lat="41.9597917" lon="12.8005133"><ele>246.0</ele><time>2026-04-20T10:16:39.319Z</time></trkpt><trkpt lat="41.95979" lon="12.8003767"><ele>247.0</ele><time>2026-04-20T10:16:40.318Z</time></trkpt><trkpt lat="41.959785" lon="12.8002383"><ele>248.0</ele><time>2026-04-20T10:16:41.318Z</time></trkpt><trkpt lat="41.9597767" lon="12.800095"><ele>249.0</ele><time>2026-04-20T10:16:42.319Z</time></trkpt><trkpt lat="41.9597683" lon="12.7999633"><ele>250.0</ele><time>2026-04-20T10:16:43.319Z</time></trkpt><trkpt lat="41.95976" lon="12.7998433"><ele>250.16666666666666</ele><time>2026-04-20T10:16:44.319Z</time></trkpt><trkpt lat="41.9597567" lon="12.79973"><ele>250.33333333333331</ele><time>2026-04-20T10:16:45.319Z</time></trkpt><trkpt lat="41.959755" lon="12.7996217"><ele>250.5</ele><time>2026-04-20T10:16:46.321Z</time></trkpt><trkpt lat="41.9597533" lon="12.7994583"><ele>250.66666666666669</ele><time>2026-04-20T10:16:48.315Z</time></trkpt><trkpt lat="41.9597483" lon="12.79937"><ele>250.83333333333334</ele><time>2026-04-20T10:16:49.317Z</time></trkpt><trkpt lat="41.9597417" lon="12.79928"><ele>251.0</ele><time>2026-04-20T10:16:50.318Z</time></trkpt><trkpt lat="41.9597333" lon="12.7991783"><ele>251.00000000000003</ele><time>2026-04-20T10:16:51.318Z</time></trkpt><trkpt lat="41.9597217" lon="12.799075"><ele>251.0</ele><time>2026-04-20T10:16:52.317Z</time></trkpt><trkpt lat="41.9597133" lon="12.7989717"><ele>251.0</ele><time>2026-04-20T10:16:53.317Z</time></trkpt><trkpt lat="41.959705" lon="12.798885"><ele>251.0</ele><time>2026-04-20T10:16:54.317Z</time></trkpt><trkpt lat="41.959705" lon="12.7987517"><ele>251.00000000000003</ele><time>2026-04-20T10:16:56.318Z</time></trkpt><trkpt lat="41.9597483" lon="12.7986467"><ele>251.0</ele><time>2026-04-20T10:16:59.318Z</time></trkpt><trkpt lat="41.9598017" lon="12.7985867"><ele>251.0</ele><time>2026-04-20T10:17:01.316Z</time></trkpt><trkpt lat="41.9599117" lon="12.7985667"><ele>251.00000000000003</ele><time>2026-04-20T10:17:03.318Z</time></trkpt><trkpt lat="41.95999" lon="12.7985717"><ele>251.00000000000003</ele><time>2026-04-20T10:17:04.319Z</time></trkpt><trkpt lat="41.9600717" lon="12.7985767"><ele>251.0</ele><time>2026-04-20T10:17:05.316Z</time></trkpt><trkpt lat="41.9601583" lon="12.7986167"><ele>251.0</ele><time>2026-04-20T10:17:06.318Z</time></trkpt><trkpt lat="41.9602467" lon="12.798665"><ele>250.66666666666669</ele><time>2026-04-20T10:17:07.32Z</time></trkpt><trkpt lat="41.9603367" lon="12.79871"><ele>250.33333333333334</ele><time>2026-04-20T10:17:08.318Z</time></trkpt><trkpt lat="41.960415" lon="12.7987483"><ele>250.0</ele><time>2026-04-20T10:17:09.319Z</time></trkpt><trkpt lat="41.960475" lon="12.798775"><ele>249.66666666666669</ele><time>2026-04-20T10:17:10.32Z</time></trkpt><trkpt lat="41.9605483" lon="12.798795"><ele>249.33333333333334</ele><time>2026-04-20T10:17:12.317Z</time></trkpt><trkpt lat="41.9606133" lon="12.7988033"><ele>249.0</ele><time>2026-04-20T10:17:15.316Z</time></trkpt><trkpt lat="41.960735" lon="12.7987917"><ele>249.0</ele><time>2026-04-20T10:17:26.318Z</time></trkpt><trkpt lat="41.9608217" lon="12.7987433"><ele>249.0</ele><time>2026-04-20T10:17:29.318Z</time></trkpt><trkpt lat="41.9608783" lon="12.7986683"><ele>249.0</ele><time>2026-04-20T10:17:31.318Z</time></trkpt><trkpt lat="41.96092" lon="12.7986033"><ele>249.0</ele><time>2026-04-20T10:17:33.32Z</time></trkpt><trkpt lat="41.9609517" lon="12.79851"><ele>249.0</ele><time>2026-04-20T10:17:37.318Z</time></trkpt><trkpt lat="41.9609883" lon="12.798415"><ele>249.0</ele><time>2026-04-20T10:17:40.32Z</time></trkpt><trkpt lat="41.9610167" lon="12.7983267"><ele>248.79999999999998</ele><time>2026-04-20T10:17:45.319Z</time></trkpt><trkpt lat="41.9610383" lon="12.798235"><ele>248.59999999999997</ele><time>2026-04-20T10:17:48.319Z</time></trkpt><trkpt lat="41.9610367" lon="12.7981083"><ele>248.4</ele><time>2026-04-20T10:17:51.318Z</time></trkpt><trkpt lat="41.9610133" lon="12.7979817"><ele>248.2</ele><time>2026-04-20T10:17:53.319Z</time></trkpt><trkpt lat="41.96098" lon="12.7978217"><ele>248.0</ele><time>2026-04-20T10:17:55.318Z</time></trkpt><trkpt lat="41.9609517" lon="12.7976733"><ele>247.4</ele><time>2026-04-20T10:17:57.32Z</time></trkpt><trkpt lat="41.9609467" lon="12.797535"><ele>246.8</ele><time>2026-04-20T10:17:59.319Z</time></trkpt><trkpt lat="41.960965" lon="12.797385"><ele>246.2</ele><time>2026-04-20T10:18:01.32Z</time></trkpt><trkpt lat="41.9609917" lon="12.79728"><ele>245.6</ele><time>2026-04-20T10:18:03.32Z</time></trkpt><trkpt lat="41.9610117" lon="12.7971833"><ele>245.0</ele><time>2026-04-20T10:18:05.318Z</time></trkpt><trkpt lat="41.9610383" lon="12.797055"><ele>245.00000000000003</ele><time>2026-04-20T10:18:07.317Z</time></trkpt><trkpt lat="41.9610567" lon="12.7969367"><ele>245.0</ele><time>2026-04-20T10:18:09.316Z</time></trkpt><trkpt lat="41.9610467" lon="12.7968333"><ele>245.0</ele><time>2026-04-20T10:18:11.319Z</time></trkpt><trkpt lat="41.961005" lon="12.7967383"><ele>245.0</ele><time>2026-04-20T10:18:13.319Z</time></trkpt><trkpt lat="41.960965" lon="12.7966617"><ele>245.00000000000003</ele><time>2026-04-20T10:18:15.319Z</time></trkpt><trkpt lat="41.96091" lon="12.7965433"><ele>245.0</ele><time>2026-04-20T10:18:19.318Z</time></trkpt><trkpt lat="41.960835" lon="12.796425"><ele>244.83333333333334</ele><time>2026-04-20T10:18:21.319Z</time></trkpt><trkpt lat="41.9607933" lon="12.7963533"><ele>244.66666666666669</ele><time>2026-04-20T10:18:22.32Z</time></trkpt><trkpt lat="41.9607467" lon="12.79627"><ele>244.5</ele><time>2026-04-20T10:18:23.32Z</time></trkpt><trkpt lat="41.960705" lon="12.7961767"><ele>244.33333333333331</ele><time>2026-04-20T10:18:24.32Z</time></trkpt><trkpt lat="41.9606667" lon="12.79608"><ele>244.16666666666666</ele><time>2026-04-20T10:18:25.318Z</time></trkpt><trkpt lat="41.9606267" lon="12.7959867"><ele>244.0</ele><time>2026-04-20T10:18:26.316Z</time></trkpt><trkpt lat="41.9605733" lon="12.7959033"><ele>243.49999999999997</ele><time>2026-04-20T10:18:27.32Z</time></trkpt><trkpt lat="41.9605267" lon="12.7958117"><ele>243.0</ele><time>2026-04-20T10:18:28.319Z</time></trkpt><trkpt lat="41.9604767" lon="12.79572"><ele>242.5</ele><time>2026-04-20T10:18:29.318Z</time></trkpt><trkpt lat="41.9604217" lon="12.795625"><ele>242.0</ele><time>2026-04-20T10:18:30.319Z</time></trkpt><trkpt lat="41.9603583" lon="12.79554"><ele>241.49999999999997</ele><time>2026-04-20T10:18:31.319Z</time></trkpt><trkpt lat="41.9602867" lon="12.795455"><ele>241.0</ele><time>2026-04-20T10:18:32.32Z</time></trkpt><trkpt lat="41.9602133" lon="12.7953717"><ele>241.0</ele><time>2026-04-20T10:18:33.319Z</time></trkpt><trkpt lat="41.9601383" lon="12.7952933"><ele>241.00000000000003</ele><time>2026-04-20T10:18:34.318Z</time></trkpt><trkpt lat="41.9600583" lon="12.795215"><ele>241.00000000000003</ele><time>2026-04-20T10:18:35.319Z</time></trkpt><trkpt lat="41.959975" lon="12.7951383"><ele>241.0</ele><time>2026-04-20T10:18:36.318Z</time></trkpt><trkpt lat="41.9598867" lon="12.7950567"><ele>241.0</ele><time>2026-04-20T10:18:37.316Z</time></trkpt><trkpt lat="41.9597917" lon="12.7949767"><ele>241.25</ele><time>2026-04-20T10:18:38.317Z</time></trkpt><trkpt lat="41.9596933" lon="12.7948967"><ele>241.5</ele><time>2026-04-20T10:18:39.319Z</time></trkpt><trkpt lat="41.95959" lon="12.79481"><ele>241.75</ele><time>2026-04-20T10:18:40.319Z</time></trkpt><trkpt lat="41.9594817" lon="12.7947133"><ele>242.0</ele><time>2026-04-20T10:18:41.316Z</time></trkpt><trkpt lat="41.95937" lon="12.794625"><ele>242.0</ele><time>2026-04-20T10:18:42.317Z</time></trkpt><trkpt lat="41.9592667" lon="12.7945467"><ele>242.0</ele><time>2026-04-20T10:18:43.317Z</time></trkpt><trkpt lat="41.9591733" lon="12.79447"><ele>242.0</ele><time>2026-04-20T10:18:44.319Z</time></trkpt><trkpt lat="41.9590867" lon="12.7944033"><ele>242.0</ele><time>2026-04-20T10:18:45.32Z</time></trkpt><trkpt lat="41.95901" lon="12.794335"><ele>242.0</ele><time>2026-04-20T10:18:46.319Z</time></trkpt><trkpt lat="41.958935" lon="12.7942767"><ele>240.39999999999998</ele><time>2026-04-20T10:18:47.32Z</time></trkpt><trkpt lat="41.9588633" lon="12.79422"><ele>238.79999999999998</ele><time>2026-04-20T10:18:48.319Z</time></trkpt><trkpt lat="41.9587817" lon="12.79415"><ele>237.2</ele><time>2026-04-20T10:18:49.32Z</time></trkpt><trkpt lat="41.9586967" lon="12.7940733"><ele>235.6</ele><time>2026-04-20T10:18:50.318Z</time></trkpt><trkpt lat="41.9586117" lon="12.7939967"><ele>234.0</ele><time>2026-04-20T10:18:51.324Z</time></trkpt><trkpt lat="41.9585317" lon="12.7939233"><ele>234.0</ele><time>2026-04-20T10:18:52.318Z</time></trkpt><trkpt lat="41.95845" lon="12.7938583"><ele>233.99999999999997</ele><time>2026-04-20T10:18:53.319Z</time></trkpt><trkpt lat="41.95837" lon="12.793795"><ele>233.99999999999997</ele><time>2026-04-20T10:18:54.319Z</time></trkpt><trkpt lat="41.9582883" lon="12.7937317"><ele>234.0</ele><time>2026-04-20T10:18:55.319Z</time></trkpt><trkpt lat="41.9582083" lon="12.7936683"><ele>234.0</ele><time>2026-04-20T10:18:56.32Z</time></trkpt><trkpt lat="41.9581233" lon="12.7936033"><ele>233.0</ele><time>2026-04-20T10:18:57.318Z</time></trkpt><trkpt lat="41.9580367" lon="12.7935383"><ele>231.99999999999997</ele><time>2026-04-20T10:18:58.316Z</time></trkpt><trkpt lat="41.9579467" lon="12.7934733"><ele>230.99999999999997</ele><time>2026-04-20T10:18:59.318Z</time></trkpt><trkpt lat="41.95786" lon="12.7934117"><ele>230.0</ele><time>2026-04-20T10:19:00.318Z</time></trkpt><trkpt lat="41.9577767" lon="12.7933517"><ele>229.0</ele><time>2026-04-20T10:19:01.319Z</time></trkpt><trkpt lat="41.9576933" lon="12.7932933"><ele>229.0</ele><time>2026-04-20T10:19:02.32Z</time></trkpt><trkpt lat="41.95761" lon="12.7932383"><ele>228.99999999999997</ele><time>2026-04-20T10:19:03.318Z</time></trkpt><trkpt lat="41.9575233" lon="12.7931817"><ele>228.99999999999997</ele><time>2026-04-20T10:19:04.318Z</time></trkpt><trkpt lat="41.957435" lon="12.79312"><ele>229.0</ele><time>2026-04-20T10:19:05.319Z</time></trkpt><trkpt lat="41.9573467" lon="12.7930583"><ele>229.0</ele><time>2026-04-20T10:19:06.318Z</time></trkpt><trkpt lat="41.9572683" lon="12.7930017"><ele>229.99999999999997</ele><time>2026-04-20T10:19:07.316Z</time></trkpt><trkpt lat="41.9571983" lon="12.792955"><ele>231.0</ele><time>2026-04-20T10:19:08.32Z</time></trkpt><trkpt lat="41.9571333" lon="12.7929133"><ele>232.0</ele><time>2026-04-20T10:19:09.318Z</time></trkpt><trkpt lat="41.95707" lon="12.7928717"><ele>233.0</ele><time>2026-04-20T10:19:10.32Z</time></trkpt><trkpt lat="41.957005" lon="12.7928267"><ele>233.99999999999997</ele><time>2026-04-20T10:19:11.319Z</time></trkpt><trkpt lat="41.956935" lon="12.7927817"><ele>235.0</ele><time>2026-04-20T10:19:12.32Z</time></trkpt><trkpt lat="41.9568633" lon="12.79273"><ele>235.0</ele><time>2026-04-20T10:19:13.318Z</time></trkpt><trkpt lat="41.95679" lon="12.79268"><ele>235.0</ele><time>2026-04-20T10:19:14.32Z</time></trkpt><trkpt lat="41.956725" lon="12.7926317"><ele>235.0</ele><time>2026-04-20T10:19:15.319Z</time></trkpt><trkpt lat="41.9566667" lon="12.7925917"><ele>235.0</ele><time>2026-04-20T10:19:16.319Z</time></trkpt><trkpt lat="41.9565667" lon="12.79251"><ele>235.0</ele><time>2026-04-20T10:19:18.319Z</time></trkpt><trkpt lat="41.9564633" lon="12.7924367"><ele>232.2</ele><time>2026-04-20T10:19:20.32Z</time></trkpt><trkpt lat="41.9563917" lon="12.7923917"><ele>229.4</ele><time>2026-04-20T10:19:21.321Z</time></trkpt><trkpt lat="41.956305" lon="12.7923417"><ele>226.60000000000002</ele><time>2026-04-20T10:19:22.32Z</time></trkpt><trkpt lat="41.95621" lon="12.7922917"><ele>223.8</ele><time>2026-04-20T10:19:23.318Z</time></trkpt><trkpt lat="41.9561133" lon="12.7922433"><ele>221.0</ele><time>2026-04-20T10:19:24.319Z</time></trkpt><trkpt lat="41.9560167" lon="12.7921983"><ele>221.0</ele><time>2026-04-20T10:19:25.319Z</time></trkpt><trkpt lat="41.9559133" lon="12.7921533"><ele>221.00000000000003</ele><time>2026-04-20T10:19:26.32Z</time></trkpt><trkpt lat="41.95581" lon="12.7921117"><ele>221.00000000000003</ele><time>2026-04-20T10:19:27.322Z</time></trkpt><trkpt lat="41.9557067" lon="12.7920667"><ele>221.0</ele><time>2026-04-20T10:19:28.319Z</time></trkpt><trkpt lat="41.9556067" lon="12.7920267"><ele>221.0</ele><time>2026-04-20T10:19:29.319Z</time></trkpt><trkpt lat="41.9555133" lon="12.7919933"><ele>221.66666666666669</ele><time>2026-04-20T10:19:30.32Z</time></trkpt><trkpt lat="41.955435" lon="12.7919683"><ele>222.33333333333334</ele><time>2026-04-20T10:19:31.318Z</time></trkpt><trkpt lat="41.955325" lon="12.7919317"><ele>223.0</ele><time>2026-04-20T10:19:33.32Z</time></trkpt><trkpt lat="41.9552183" lon="12.79189"><ele>223.66666666666669</ele><time>2026-04-20T10:19:35.319Z</time></trkpt><trkpt lat="41.955155" lon="12.7918733"><ele>224.33333333333334</ele><time>2026-04-20T10:19:36.319Z</time></trkpt><trkpt lat="41.9550783" lon="12.7918567"><ele>225.0</ele><time>2026-04-20T10:19:37.318Z</time></trkpt><trkpt lat="41.95499" lon="12.7918383"><ele>221.6</ele><time>2026-04-20T10:19:38.32Z</time></trkpt><trkpt lat="41.9548967" lon="12.79182"><ele>218.2</ele><time>2026-04-20T10:19:39.32Z</time></trkpt><trkpt lat="41.9548083" lon="12.7917967"><ele>214.8</ele><time>2026-04-20T10:19:40.32Z</time></trkpt><trkpt lat="41.95472" lon="12.7917683"><ele>211.4</ele><time>2026-04-20T10:19:41.319Z</time></trkpt><trkpt lat="41.9546267" lon="12.791745"><ele>208.0</ele><time>2026-04-20T10:19:42.319Z</time></trkpt><trkpt lat="41.9545317" lon="12.7917167"><ele>208.0</ele><time>2026-04-20T10:19:43.316Z</time></trkpt><trkpt lat="41.954435" lon="12.79169"><ele>208.0</ele><time>2026-04-20T10:19:44.32Z</time></trkpt><trkpt lat="41.9543333" lon="12.791665"><ele>208.0</ele><time>2026-04-20T10:19:45.32Z</time></trkpt><trkpt lat="41.9542317" lon="12.79164"><ele>208.0</ele><time>2026-04-20T10:19:46.32Z</time></trkpt><trkpt lat="41.95413" lon="12.7916167"><ele>208.0</ele><time>2026-04-20T10:19:47.32Z</time></trkpt><trkpt lat="41.95403" lon="12.7915917"><ele>208.75</ele><time>2026-04-20T10:19:48.319Z</time></trkpt><trkpt lat="41.953925" lon="12.7915667"><ele>209.5</ele><time>2026-04-20T10:19:49.316Z</time></trkpt><trkpt lat="41.9538167" lon="12.79154"><ele>210.25</ele><time>2026-04-20T10:19:50.319Z</time></trkpt><trkpt lat="41.953695" lon="12.7915067"><ele>211.0</ele><time>2026-04-20T10:19:51.319Z</time></trkpt><trkpt lat="41.9535733" lon="12.7914717"><ele>211.0</ele><time>2026-04-20T10:19:52.32Z</time></trkpt><trkpt lat="41.953445" lon="12.7914367"><ele>211.0</ele><time>2026-04-20T10:19:53.319Z</time></trkpt><trkpt lat="41.953315" lon="12.7913967"><ele>211.0</ele><time>2026-04-20T10:19:54.32Z</time></trkpt><trkpt lat="41.9531867" lon="12.7913633"><ele>211.0</ele><time>2026-04-20T10:19:55.32Z</time></trkpt><trkpt lat="41.95305" lon="12.7913267"><ele>211.0</ele><time>2026-04-20T10:19:56.319Z</time></trkpt><trkpt lat="41.9529033" lon="12.791285"><ele>211.0</ele><time>2026-04-20T10:19:57.319Z</time></trkpt><trkpt lat="41.9527483" lon="12.7912383"><ele>211.0</ele><time>2026-04-20T10:19:58.319Z</time></trkpt><trkpt lat="41.9525867" lon="12.791195"><ele>211.33333333333331</ele><time>2026-04-20T10:19:59.319Z</time></trkpt><trkpt lat="41.9524133" lon="12.79115"><ele>211.66666666666669</ele><time>2026-04-20T10:20:00.32Z</time></trkpt><trkpt lat="41.9522367" lon="12.7911083"><ele>212.0</ele><time>2026-04-20T10:20:01.319Z</time></trkpt><trkpt lat="41.9520567" lon="12.79107"><ele>212.0</ele><time>2026-04-20T10:20:02.318Z</time></trkpt><trkpt lat="41.9518733" lon="12.79104"><ele>212.0</ele><time>2026-04-20T10:20:03.319Z</time></trkpt><trkpt lat="41.95169" lon="12.7910183"><ele>212.0</ele><time>2026-04-20T10:20:04.319Z</time></trkpt><trkpt lat="41.9515117" lon="12.791005"><ele>203.66666666666669</ele><time>2026-04-20T10:20:05.32Z</time></trkpt><trkpt lat="41.951335" lon="12.791"><ele>195.33333333333334</ele><time>2026-04-20T10:20:06.319Z</time></trkpt><trkpt lat="41.9511567" lon="12.790995"><ele>187.0</ele><time>2026-04-20T10:20:07.32Z</time></trkpt><trkpt lat="41.95098" lon="12.79099"><ele>186.0</ele><time>2026-04-20T10:20:08.32Z</time></trkpt><trkpt lat="41.950805" lon="12.7909867"><ele>185.0</ele><time>2026-04-20T10:20:09.32Z</time></trkpt><trkpt lat="41.9506333" lon="12.7909883"><ele>184.0</ele><time>2026-04-20T10:20:10.318Z</time></trkpt><trkpt lat="41.9504617" lon="12.790995"><ele>188.0</ele><time>2026-04-20T10:20:11.318Z</time></trkpt><trkpt lat="41.950295" lon="12.7910133"><ele>192.0</ele><time>2026-04-20T10:20:12.32Z</time></trkpt><trkpt lat="41.9501317" lon="12.7910483"><ele>196.0</ele><time>2026-04-20T10:20:13.319Z</time></trkpt><trkpt lat="41.9499733" lon="12.7911"><ele>196.0</ele><time>2026-04-20T10:20:14.32Z</time></trkpt><trkpt lat="41.9498167" lon="12.7911567"><ele>196.0</ele><time>2026-04-20T10:20:15.32Z</time></trkpt><trkpt lat="41.9496633" lon="12.791215"><ele>196.0</ele><time>2026-04-20T10:20:16.319Z</time></trkpt><trkpt lat="41.949515" lon="12.7912767"><ele>196.0</ele><time>2026-04-20T10:20:17.319Z</time></trkpt><trkpt lat="41.949375" lon="12.791345"><ele>196.0</ele><time>2026-04-20T10:20:18.318Z</time></trkpt><trkpt lat="41.9492433" lon="12.7914367"><ele>196.0</ele><time>2026-04-20T10:20:19.319Z</time></trkpt><trkpt lat="41.9491333" lon="12.7915533"><ele>196.0</ele><time>2026-04-20T10:20:20.319Z</time></trkpt><trkpt lat="41.9490517" lon="12.79169"><ele>191.75</ele><time>2026-04-20T10:20:21.32Z</time></trkpt><trkpt lat="41.9490017" lon="12.7918433"><ele>187.5</ele><time>2026-04-20T10:20:22.32Z</time></trkpt><trkpt lat="41.9489733" lon="12.792005"><ele>183.25</ele><time>2026-04-20T10:20:23.319Z</time></trkpt><trkpt lat="41.9489617" lon="12.79217"><ele>179.0</ele><time>2026-04-20T10:20:24.319Z</time></trkpt><trkpt lat="41.9489633" lon="12.79234"><ele>179.0</ele><time>2026-04-20T10:20:25.319Z</time></trkpt><trkpt lat="41.9489733" lon="12.7925017"><ele>179.0</ele><time>2026-04-20T10:20:26.319Z</time></trkpt><trkpt lat="41.9489783" lon="12.7926517"><ele>179.0</ele><time>2026-04-20T10:20:27.319Z</time></trkpt><trkpt lat="41.9489683" lon="12.792785"><ele>179.0</ele><time>2026-04-20T10:20:28.319Z</time></trkpt><trkpt lat="41.9489333" lon="12.7928983"><ele>179.0</ele><time>2026-04-20T10:20:29.319Z</time></trkpt><trkpt lat="41.94888" lon="12.7929933"><ele>179.6</ele><time>2026-04-20T10:20:30.319Z</time></trkpt><trkpt lat="41.9488117" lon="12.7930617"><ele>180.2</ele><time>2026-04-20T10:20:31.32Z</time></trkpt><trkpt lat="41.9487217" lon="12.793105"><ele>180.79999999999998</ele><time>2026-04-20T10:20:32.32Z</time></trkpt><trkpt lat="41.9486217" lon="12.7931317"><ele>181.39999999999998</ele><time>2026-04-20T10:20:33.32Z</time></trkpt><trkpt lat="41.9485217" lon="12.7931517"><ele>182.0</ele><time>2026-04-20T10:20:34.319Z</time></trkpt><trkpt lat="41.9484167" lon="12.7931667"><ele>180.6</ele><time>2026-04-20T10:20:35.319Z</time></trkpt><trkpt lat="41.9483067" lon="12.793175"><ele>179.2</ele><time>2026-04-20T10:20:36.318Z</time></trkpt><trkpt lat="41.9482083" lon="12.793175"><ele>177.8</ele><time>2026-04-20T10:20:37.32Z</time></trkpt><trkpt lat="41.9481167" lon="12.7931717"><ele>176.4</ele><time>2026-04-20T10:20:38.32Z</time></trkpt><trkpt lat="41.948035" lon="12.7931583"><ele>175.0</ele><time>2026-04-20T10:20:39.32Z</time></trkpt><trkpt lat="41.94796" lon="12.7931367"><ele>175.0</ele><time>2026-04-20T10:20:40.32Z</time></trkpt><trkpt lat="41.9478983" lon="12.7930967"><ele>175.0</ele><time>2026-04-20T10:20:41.32Z</time></trkpt><trkpt lat="41.947845" lon="12.7930433"><ele>175.0</ele><time>2026-04-20T10:20:42.317Z</time></trkpt><trkpt lat="41.9478083" lon="12.792965"><ele>175.0</ele><time>2026-04-20T10:20:43.32Z</time></trkpt><trkpt lat="41.9477983" lon="12.7928667"><ele>175.0</ele><time>2026-04-20T10:20:44.32Z</time></trkpt><trkpt lat="41.9478117" lon="12.7927633"><ele>175.0</ele><time>2026-04-20T10:20:45.319Z</time></trkpt><trkpt lat="41.94786" lon="12.7926633"><ele>175.0</ele><time>2026-04-20T10:20:46.319Z</time></trkpt><trkpt lat="41.9479383" lon="12.7925633"><ele>172.25</ele><time>2026-04-20T10:20:47.319Z</time></trkpt><trkpt lat="41.948035" lon="12.7924333"><ele>169.5</ele><time>2026-04-20T10:20:48.32Z</time></trkpt><trkpt lat="41.9481283" lon="12.7922933"><ele>166.75</ele><time>2026-04-20T10:20:49.32Z</time></trkpt><trkpt lat="41.9482167" lon="12.7921567"><ele>164.0</ele><time>2026-04-20T10:20:50.319Z</time></trkpt><trkpt lat="41.948285" lon="12.7920167"><ele>164.0</ele><time>2026-04-20T10:20:51.319Z</time></trkpt><trkpt lat="41.9483333" lon="12.7918683"><ele>164.0</ele><time>2026-04-20T10:20:52.319Z</time></trkpt><trkpt lat="41.9483667" lon="12.7917083"><ele>164.0</ele><time>2026-04-20T10:20:53.32Z</time></trkpt><trkpt lat="41.9483917" lon="12.791545"><ele>164.0</ele><time>2026-04-20T10:20:54.32Z</time></trkpt><trkpt lat="41.94841" lon="12.7913833"><ele>164.5</ele><time>2026-04-20T10:20:55.319Z</time></trkpt><trkpt lat="41.9484317" lon="12.791225"><ele>165.0</ele><time>2026-04-20T10:20:56.32Z</time></trkpt><trkpt lat="41.9484583" lon="12.7910667"><ele>165.5</ele><time>2026-04-20T10:20:57.319Z</time></trkpt><trkpt lat="41.9484983" lon="12.790905"><ele>166.0</ele><time>2026-04-20T10:20:58.319Z</time></trkpt><trkpt lat="41.9485517" lon="12.7907433"><ele>166.0</ele><time>2026-04-20T10:20:59.319Z</time></trkpt><trkpt lat="41.94862" lon="12.7905917"><ele>166.0</ele><time>2026-04-20T10:21:00.319Z</time></trkpt><trkpt lat="41.9487033" lon="12.7904567"><ele>166.0</ele><time>2026-04-20T10:21:01.32Z</time></trkpt><trkpt lat="41.9487983" lon="12.790335"><ele>166.0</ele><time>2026-04-20T10:21:02.319Z</time></trkpt><trkpt lat="41.948905" lon="12.7902183"><ele>165.25</ele><time>2026-04-20T10:21:03.319Z</time></trkpt><trkpt lat="41.9490133" lon="12.79011"><ele>164.5</ele><time>2026-04-20T10:21:04.32Z</time></trkpt><trkpt lat="41.9491083" lon="12.7900083"><ele>163.75</ele><time>2026-04-20T10:21:05.319Z</time></trkpt><trkpt lat="41.9491883" lon="12.789925"><ele>163.0</ele><time>2026-04-20T10:21:06.319Z</time></trkpt><trkpt lat="41.9492633" lon="12.7898433"><ele>163.0</ele><time>2026-04-20T10:21:07.32Z</time></trkpt><trkpt lat="41.9493433" lon="12.789755"><ele>163.0</ele><time>2026-04-20T10:21:08.319Z</time></trkpt><trkpt lat="41.9494333" lon="12.78965"><ele>163.0</ele><time>2026-04-20T10:21:09.319Z</time></trkpt><trkpt lat="41.9495367" lon="12.789535"><ele>163.0</ele><time>2026-04-20T10:21:10.32Z</time></trkpt><trkpt lat="41.9496533" lon="12.78942"><ele>158.66666666666669</ele><time>2026-04-20T10:21:11.32Z</time></trkpt><trkpt lat="41.9497833" lon="12.7893"><ele>154.33333333333334</ele><time>2026-04-20T10:21:12.318Z</time></trkpt><trkpt lat="41.9499267" lon="12.7891667"><ele>150.0</ele><time>2026-04-20T10:21:13.319Z</time></trkpt><trkpt lat="41.9500833" lon="12.7890317"><ele>150.0</ele><time>2026-04-20T10:21:14.319Z</time></trkpt><trkpt lat="41.95025" lon="12.788885"><ele>150.0</ele><time>2026-04-20T10:21:15.32Z</time></trkpt><trkpt lat="41.950415" lon="12.7887417"><ele>150.0</ele><time>2026-04-20T10:21:16.32Z</time></trkpt><trkpt lat="41.9505817" lon="12.78861"><ele>145.33333333333334</ele><time>2026-04-20T10:21:17.319Z</time></trkpt><trkpt lat="41.9507367" lon="12.788485"><ele>140.66666666666669</ele><time>2026-04-20T10:21:18.32Z</time></trkpt><trkpt lat="41.9508867" lon="12.78837"><ele>136.0</ele><time>2026-04-20T10:21:19.315Z</time></trkpt><trkpt lat="41.9510433" lon="12.7882583"><ele>136.0</ele><time>2026-04-20T10:21:20.317Z</time></trkpt><trkpt lat="41.9512167" lon="12.78814"><ele>136.0</ele><time>2026-04-20T10:21:21.32Z</time></trkpt><trkpt lat="41.9513983" lon="12.78802"><ele>136.0</ele><time>2026-04-20T10:21:22.316Z</time></trkpt><trkpt lat="41.9515683" lon="12.7879033"><ele>136.33333333333334</ele><time>2026-04-20T10:21:23.319Z</time></trkpt><trkpt lat="41.9517333" lon="12.7877833"><ele>136.66666666666666</ele><time>2026-04-20T10:21:24.32Z</time></trkpt><trkpt lat="41.9519083" lon="12.7876533"><ele>137.0</ele><time>2026-04-20T10:21:25.319Z</time></trkpt><trkpt lat="41.9521033" lon="12.7875267"><ele>134.0</ele><time>2026-04-20T10:21:26.32Z</time></trkpt><trkpt lat="41.9522917" lon="12.787405"><ele>131.0</ele><time>2026-04-20T10:21:27.32Z</time></trkpt><trkpt lat="41.9524617" lon="12.787305"><ele>128.0</ele><time>2026-04-20T10:21:28.316Z</time></trkpt><trkpt lat="41.9526233" lon="12.7872267"><ele>126.66666666666666</ele><time>2026-04-20T10:21:29.32Z</time></trkpt><trkpt lat="41.9527817" lon="12.7871717"><ele>125.33333333333334</ele><time>2026-04-20T10:21:30.318Z</time></trkpt><trkpt lat="41.952945" lon="12.7871483"><ele>124.0</ele><time>2026-04-20T10:21:31.32Z</time></trkpt><trkpt lat="41.9531217" lon="12.787155"><ele>124.0</ele><time>2026-04-20T10:21:32.318Z</time></trkpt><trkpt lat="41.9533167" lon="12.78717"><ele>124.0</ele><time>2026-04-20T10:21:33.319Z</time></trkpt><trkpt lat="41.95351" lon="12.7871833"><ele>124.0</ele><time>2026-04-20T10:21:34.319Z</time></trkpt><trkpt lat="41.9536967" lon="12.7872033"><ele>123.66666666666667</ele><time>2026-04-20T10:21:35.32Z</time></trkpt><trkpt lat="41.9538717" lon="12.7872167"><ele>123.33333333333334</ele><time>2026-04-20T10:21:36.32Z</time></trkpt><trkpt lat="41.9540317" lon="12.7872083"><ele>123.0</ele><time>2026-04-20T10:21:37.32Z</time></trkpt><trkpt lat="41.9541733" lon="12.7871617"><ele>122.33333333333334</ele><time>2026-04-20T10:21:38.318Z</time></trkpt><trkpt lat="41.9543017" lon="12.787065"><ele>121.66666666666667</ele><time>2026-04-20T10:21:39.32Z</time></trkpt><trkpt lat="41.95442" lon="12.7869217"><ele>121.0</ele><time>2026-04-20T10:21:40.319Z</time></trkpt><trkpt lat="41.954505" lon="12.78673"><ele>121.0</ele><time>2026-04-20T10:21:41.319Z</time></trkpt><trkpt lat="41.9545467" lon="12.7865067"><ele>121.0</ele><time>2026-04-20T10:21:42.32Z</time></trkpt><trkpt lat="41.9545433" lon="12.7862533"><ele>121.0</ele><time>2026-04-20T10:21:43.319Z</time></trkpt><trkpt lat="41.9545017" lon="12.785985"><ele>119.0</ele><time>2026-04-20T10:21:44.32Z</time></trkpt><trkpt lat="41.9544317" lon="12.7857217"><ele>117.0</ele><time>2026-04-20T10:21:45.321Z</time></trkpt><trkpt lat="41.9543467" lon="12.7854683"><ele>115.0</ele><time>2026-04-20T10:21:46.32Z</time></trkpt><trkpt lat="41.9542583" lon="12.7852217"><ele>112.66666666666667</ele><time>2026-04-20T10:21:47.319Z</time></trkpt><trkpt lat="41.954175" lon="12.7849817"><ele>110.33333333333334</ele><time>2026-04-20T10:21:48.316Z</time></trkpt><trkpt lat="41.95411" lon="12.784745"><ele>108.0</ele><time>2026-04-20T10:21:49.316Z</time></trkpt><trkpt lat="41.9540733" lon="12.7845167"><ele>107.0</ele><time>2026-04-20T10:21:50.316Z</time></trkpt><trkpt lat="41.9540767" lon="12.7842983"><ele>106.0</ele><time>2026-04-20T10:21:51.317Z</time></trkpt><trkpt lat="41.9541283" lon="12.7840933"><ele>105.0</ele><time>2026-04-20T10:21:52.315Z</time></trkpt><trkpt lat="41.9542183" lon="12.7839083"><ele>105.0</ele><time>2026-04-20T10:21:53.315Z</time></trkpt><trkpt lat="41.9543267" lon="12.783765"><ele>105.0</ele><time>2026-04-20T10:21:54.317Z</time></trkpt><trkpt lat="41.9544467" lon="12.7836683"><ele>105.0</ele><time>2026-04-20T10:21:55.32Z</time></trkpt><trkpt lat="41.9545917" lon="12.7836183"><ele>105.0</ele><time>2026-04-20T10:21:56.32Z</time></trkpt><trkpt lat="41.9547567" lon="12.7836017"><ele>105.0</ele><time>2026-04-20T10:21:57.316Z</time></trkpt><trkpt lat="41.954935" lon="12.783605"><ele>105.0</ele><time>2026-04-20T10:21:58.316Z</time></trkpt><trkpt lat="41.9551183" lon="12.78361"><ele>105.0</ele><time>2026-04-20T10:21:59.319Z</time></trkpt><trkpt lat="41.955315" lon="12.7836183"><ele>102.66666666666666</ele><time>2026-04-20T10:22:00.317Z</time></trkpt><trkpt lat="41.9555033" lon="12.783625"><ele>100.33333333333333</ele><time>2026-04-20T10:22:01.317Z</time></trkpt><trkpt lat="41.9556767" lon="12.7836133"><ele>98.0</ele><time>2026-04-20T10:22:02.317Z</time></trkpt><trkpt lat="41.955845" lon="12.7835683"><ele>95.33333333333333</ele><time>2026-04-20T10:22:03.317Z</time></trkpt><trkpt lat="41.956005" lon="12.7834883"><ele>92.66666666666666</ele><time>2026-04-20T10:22:04.317Z</time></trkpt><trkpt lat="41.9561517" lon="12.7833717"><ele>90.0</ele><time>2026-04-20T10:22:05.316Z</time></trkpt><trkpt lat="41.9562783" lon="12.783215"><ele>90.0</ele><time>2026-04-20T10:22:06.317Z</time></trkpt><trkpt lat="41.95637" lon="12.7830383"><ele>90.0</ele><time>2026-04-20T10:22:07.316Z</time></trkpt><trkpt lat="41.9564367" lon="12.78284"><ele>90.0</ele><time>2026-04-20T10:22:08.317Z</time></trkpt><trkpt lat="41.9564767" lon="12.782605"><ele>89.33333333333333</ele><time>2026-04-20T10:22:09.318Z</time></trkpt><trkpt lat="41.9565017" lon="12.7823483"><ele>88.66666666666666</ele><time>2026-04-20T10:22:10.315Z</time></trkpt><trkpt lat="41.9565233" lon="12.782095"><ele>88.0</ele><time>2026-04-20T10:22:11.317Z</time></trkpt><trkpt lat="41.9565467" lon="12.781855"><ele>87.0</ele><time>2026-04-20T10:22:12.318Z</time></trkpt><trkpt lat="41.95656" lon="12.7816233"><ele>86.0</ele><time>2026-04-20T10:22:13.315Z</time></trkpt><trkpt lat="41.9565683" lon="12.7814017"><ele>85.0</ele><time>2026-04-20T10:22:14.318Z</time></trkpt><trkpt lat="41.9565783" lon="12.781185"><ele>84.33333333333333</ele><time>2026-04-20T10:22:15.318Z</time></trkpt><trkpt lat="41.95659" lon="12.780975"><ele>83.66666666666667</ele><time>2026-04-20T10:22:16.317Z</time></trkpt><trkpt lat="41.9566017" lon="12.7807667"><ele>83.0</ele><time>2026-04-20T10:22:17.32Z</time></trkpt><trkpt lat="41.9566117" lon="12.7805617"><ele>83.0</ele><time>2026-04-20T10:22:18.318Z</time></trkpt><trkpt lat="41.95662" lon="12.7803617"><ele>83.0</ele><time>2026-04-20T10:22:19.317Z</time></trkpt><trkpt lat="41.9566267" lon="12.7801533"><ele>83.0</ele><time>2026-04-20T10:22:20.319Z</time></trkpt><trkpt lat="41.9566333" lon="12.77995"><ele>82.25</ele><time>2026-04-20T10:22:21.318Z</time></trkpt><trkpt lat="41.9566433" lon="12.7797533"><ele>81.5</ele><time>2026-04-20T10:22:22.317Z</time></trkpt><trkpt lat="41.9566533" lon="12.7795617"><ele>80.75</ele><time>2026-04-20T10:22:23.317Z</time></trkpt><trkpt lat="41.9566617" lon="12.7793717"><ele>80.0</ele><time>2026-04-20T10:22:24.319Z</time></trkpt><trkpt lat="41.956675" lon="12.779185"><ele>79.25</ele><time>2026-04-20T10:22:25.319Z</time></trkpt><trkpt lat="41.9566783" lon="12.7790083"><ele>78.5</ele><time>2026-04-20T10:22:26.32Z</time></trkpt><trkpt lat="41.95668" lon="12.778835"><ele>77.75</ele><time>2026-04-20T10:22:27.318Z</time></trkpt><trkpt lat="41.9566767" lon="12.7786683"><ele>77.0</ele><time>2026-04-20T10:22:28.319Z</time></trkpt><trkpt lat="41.95668" lon="12.7785033"><ele>76.75</ele><time>2026-04-20T10:22:29.319Z</time></trkpt><trkpt lat="41.956675" lon="12.7783433"><ele>76.5</ele><time>2026-04-20T10:22:30.317Z</time></trkpt><trkpt lat="41.95668" lon="12.7781717"><ele>76.25</ele><time>2026-04-20T10:22:31.32Z</time></trkpt><trkpt lat="41.9566883" lon="12.778"><ele>76.0</ele><time>2026-04-20T10:22:32.32Z</time></trkpt><trkpt lat="41.9566967" lon="12.7778283"><ele>76.25</ele><time>2026-04-20T10:22:33.319Z</time></trkpt><trkpt lat="41.9567067" lon="12.777655"><ele>76.5</ele><time>2026-04-20T10:22:34.32Z</time></trkpt><trkpt lat="41.9567117" lon="12.7774783"><ele>76.75</ele><time>2026-04-20T10:22:35.32Z</time></trkpt><trkpt lat="41.95672" lon="12.7773"><ele>77.0</ele><time>2026-04-20T10:22:36.316Z</time></trkpt><trkpt lat="41.95673" lon="12.77712"><ele>77.0</ele><time>2026-04-20T10:22:37.319Z</time></trkpt><trkpt lat="41.9567383" lon="12.7769417"><ele>77.0</ele><time>2026-04-20T10:22:38.318Z</time></trkpt><trkpt lat="41.95675" lon="12.7767617"><ele>77.0</ele><time>2026-04-20T10:22:39.319Z</time></trkpt><trkpt lat="41.9567583" lon="12.776585"><ele>77.0</ele><time>2026-04-20T10:22:40.318Z</time></trkpt><trkpt lat="41.9567667" lon="12.77641"><ele>76.5</ele><time>2026-04-20T10:22:41.317Z</time></trkpt><trkpt lat="41.9567717" lon="12.7762417"><ele>76.0</ele><time>2026-04-20T10:22:42.318Z</time></trkpt><trkpt lat="41.95677" lon="12.7760767"><ele>75.5</ele><time>2026-04-20T10:22:43.32Z</time></trkpt><trkpt lat="41.956775" lon="12.7759067"><ele>75.0</ele><time>2026-04-20T10:22:44.317Z</time></trkpt><trkpt lat="41.9567883" lon="12.7757317"><ele>74.75</ele><time>2026-04-20T10:22:45.317Z</time></trkpt><trkpt lat="41.9568033" lon="12.77556"><ele>74.5</ele><time>2026-04-20T10:22:46.318Z</time></trkpt><trkpt lat="41.9568133" lon="12.7753983"><ele>74.25</ele><time>2026-04-20T10:22:47.316Z</time></trkpt><trkpt lat="41.9568217" lon="12.775245"><ele>74.0</ele><time>2026-04-20T10:22:48.319Z</time></trkpt><trkpt lat="41.9568233" lon="12.7750983"><ele>73.8</ele><time>2026-04-20T10:22:49.319Z</time></trkpt><trkpt lat="41.9568183" lon="12.77496"><ele>73.60000000000001</ele><time>2026-04-20T10:22:50.318Z</time></trkpt><trkpt lat="41.9568133" lon="12.7748267"><ele>73.4</ele><time>2026-04-20T10:22:51.319Z</time></trkpt><trkpt lat="41.9568067" lon="12.7747"><ele>73.2</ele><time>2026-04-20T10:22:52.319Z</time></trkpt><trkpt lat="41.9568" lon="12.7745833"><ele>73.0</ele><time>2026-04-20T10:22:53.319Z</time></trkpt><trkpt lat="41.9567933" lon="12.7744767"><ele>73.0</ele><time>2026-04-20T10:22:54.32Z</time></trkpt><trkpt lat="41.9567883" lon="12.7743767"><ele>73.0</ele><time>2026-04-20T10:22:55.318Z</time></trkpt><trkpt lat="41.9567817" lon="12.7742833"><ele>73.0</ele><time>2026-04-20T10:22:56.32Z</time></trkpt><trkpt lat="41.9567683" lon="12.7741433"><ele>73.0</ele><time>2026-04-20T10:22:58.317Z</time></trkpt><trkpt lat="41.9567533" lon="12.7740483"><ele>73.0</ele><time>2026-04-20T10:23:01.316Z</time></trkpt><trkpt lat="41.9567483" lon="12.773925"><ele>73.0</ele><time>2026-04-20T10:23:03.316Z</time></trkpt><trkpt lat="41.9567433" lon="12.7738317"><ele>72.85714285714286</ele><time>2026-04-20T10:23:04.317Z</time></trkpt><trkpt lat="41.9567317" lon="12.77374"><ele>72.71428571428572</ele><time>2026-04-20T10:23:05.317Z</time></trkpt><trkpt lat="41.9567217" lon="12.7736483"><ele>72.57142857142858</ele><time>2026-04-20T10:23:06.318Z</time></trkpt><trkpt lat="41.9567067" lon="12.773555"><ele>72.42857142857143</ele><time>2026-04-20T10:23:07.316Z</time></trkpt><trkpt lat="41.9566883" lon="12.773455"><ele>72.28571428571429</ele><time>2026-04-20T10:23:08.321Z</time></trkpt><trkpt lat="41.9566683" lon="12.7733583"><ele>72.14285714285715</ele><time>2026-04-20T10:23:09.317Z</time></trkpt><trkpt lat="41.9566517" lon="12.7732683"><ele>72.0</ele><time>2026-04-20T10:23:10.316Z</time></trkpt><trkpt lat="41.9566233" lon="12.773115"><ele>72.0</ele><time>2026-04-20T10:23:12.318Z</time></trkpt><trkpt lat="41.9566017" lon="12.7729533"><ele>72.0</ele><time>2026-04-20T10:23:14.318Z</time></trkpt><trkpt lat="41.9565883" lon="12.7728533"><ele>72.0</ele><time>2026-04-20T10:23:15.319Z</time></trkpt><trkpt lat="41.9565617" lon="12.772735"><ele>72.0</ele><time>2026-04-20T10:23:16.318Z</time></trkpt><trkpt lat="41.956535" lon="12.772605"><ele>72.0</ele><time>2026-04-20T10:23:17.317Z</time></trkpt><trkpt lat="41.9565083" lon="12.772475"><ele>72.0</ele><time>2026-04-20T10:23:18.319Z</time></trkpt><trkpt lat="41.9564867" lon="12.7723517"><ele>72.0</ele><time>2026-04-20T10:23:19.318Z</time></trkpt><trkpt lat="41.9564633" lon="12.7722283"><ele>72.0</ele><time>2026-04-20T10:23:20.32Z</time></trkpt><trkpt lat="41.9564433" lon="12.7721"><ele>72.0</ele><time>2026-04-20T10:23:21.319Z</time></trkpt><trkpt lat="41.956425" lon="12.7719717"><ele>72.0</ele><time>2026-04-20T10:23:22.319Z</time></trkpt><trkpt lat="41.956405" lon="12.7718433"><ele>71.6</ele><time>2026-04-20T10:23:23.318Z</time></trkpt><trkpt lat="41.95639" lon="12.7717117"><ele>71.2</ele><time>2026-04-20T10:23:24.32Z</time></trkpt><trkpt lat="41.95638" lon="12.77158"><ele>70.8</ele><time>2026-04-20T10:23:25.318Z</time></trkpt><trkpt lat="41.956375" lon="12.7714517"><ele>70.4</ele><time>2026-04-20T10:23:26.319Z</time></trkpt><trkpt lat="41.956375" lon="12.7713233"><ele>70.0</ele><time>2026-04-20T10:23:27.32Z</time></trkpt><trkpt lat="41.9563767" lon="12.7711983"><ele>70.0</ele><time>2026-04-20T10:23:28.316Z</time></trkpt><trkpt lat="41.9563783" lon="12.7710767"><ele>70.0</ele><time>2026-04-20T10:23:29.321Z</time></trkpt><trkpt lat="41.9563817" lon="12.770955"><ele>70.0</ele><time>2026-04-20T10:23:30.32Z</time></trkpt><trkpt lat="41.9563817" lon="12.77085"><ele>70.0</ele><time>2026-04-20T10:23:31.32Z</time></trkpt><trkpt lat="41.9563833" lon="12.770755"><ele>70.0</ele><time>2026-04-20T10:23:32.32Z</time></trkpt><trkpt lat="41.956385" lon="12.7706667"><ele>70.0</ele><time>2026-04-20T10:23:33.32Z</time></trkpt><trkpt lat="41.9563783" lon="12.7705283"><ele>69.5</ele><time>2026-04-20T10:23:35.319Z</time></trkpt><trkpt lat="41.9563567" lon="12.7703917"><ele>69.0</ele><time>2026-04-20T10:23:37.317Z</time></trkpt><trkpt lat="41.9563317" lon="12.770305"><ele>68.5</ele><time>2026-04-20T10:23:38.319Z</time></trkpt><trkpt lat="41.9563" lon="12.7701983"><ele>68.0</ele><time>2026-04-20T10:23:39.32Z</time></trkpt><trkpt lat="41.9562633" lon="12.7700833"><ele>67.5</ele><time>2026-04-20T10:23:40.317Z</time></trkpt><trkpt lat="41.956225" lon="12.7699733"><ele>67.0</ele><time>2026-04-20T10:23:41.316Z</time></trkpt><trkpt lat="41.956185" lon="12.7698833"><ele>66.83333333333333</ele><time>2026-04-20T10:23:42.32Z</time></trkpt><trkpt lat="41.9561533" lon="12.76979"><ele>66.66666666666666</ele><time>2026-04-20T10:23:43.319Z</time></trkpt><trkpt lat="41.9561233" lon="12.7697117"><ele>66.5</ele><time>2026-04-20T10:23:44.319Z</time></trkpt><trkpt lat="41.9560783" lon="12.7696133"><ele>66.33333333333333</ele><time>2026-04-20T10:23:46.32Z</time></trkpt><trkpt lat="41.9560267" lon="12.7695267"><ele>66.16666666666667</ele><time>2026-04-20T10:23:48.32Z</time></trkpt><trkpt lat="41.9559833" lon="12.7694617"><ele>66.0</ele><time>2026-04-20T10:23:49.32Z</time></trkpt><trkpt lat="41.9559367" lon="12.7693783"><ele>65.66666666666667</ele><time>2026-04-20T10:23:50.319Z</time></trkpt><trkpt lat="41.9558867" lon="12.7692983"><ele>65.33333333333333</ele><time>2026-04-20T10:23:51.329Z</time></trkpt><trkpt lat="41.9558333" lon="12.7692167"><ele>65.0</ele><time>2026-04-20T10:23:52.32Z</time></trkpt><trkpt lat="41.95578" lon="12.7691367"><ele>64.66666666666666</ele><time>2026-04-20T10:23:53.318Z</time></trkpt><trkpt lat="41.9557233" lon="12.7690517"><ele>64.33333333333333</ele><time>2026-04-20T10:23:54.319Z</time></trkpt><trkpt lat="41.9556683" lon="12.76896"><ele>64.0</ele><time>2026-04-20T10:23:55.319Z</time></trkpt><trkpt lat="41.9556117" lon="12.768865"><ele>63.99999999999999</ele><time>2026-04-20T10:23:56.32Z</time></trkpt><trkpt lat="41.9555583" lon="12.768765"><ele>64.0</ele><time>2026-04-20T10:23:57.319Z</time></trkpt><trkpt lat="41.9555167" lon="12.7686617"><ele>64.0</ele><time>2026-04-20T10:23:58.32Z</time></trkpt><trkpt lat="41.9554783" lon="12.768565"><ele>64.0</ele><time>2026-04-20T10:23:59.32Z</time></trkpt><trkpt lat="41.9554517" lon="12.7684667"><ele>63.99999999999999</ele><time>2026-04-20T10:24:00.319Z</time></trkpt><trkpt lat="41.9554267" lon="12.7683683"><ele>64.0</ele><time>2026-04-20T10:24:01.317Z</time></trkpt><trkpt lat="41.9554067" lon="12.7682633"><ele>64.14285714285714</ele><time>2026-04-20T10:24:02.317Z</time></trkpt><trkpt lat="41.9553833" lon="12.7681717"><ele>64.28571428571428</ele><time>2026-04-20T10:24:03.317Z</time></trkpt><trkpt lat="41.9553617" lon="12.768085"><ele>64.42857142857143</ele><time>2026-04-20T10:24:04.317Z</time></trkpt><trkpt lat="41.9553433" lon="12.76799"><ele>64.57142857142857</ele><time>2026-04-20T10:24:05.318Z</time></trkpt><trkpt lat="41.9553233" lon="12.7678833"><ele>64.71428571428572</ele><time>2026-04-20T10:24:06.317Z</time></trkpt><trkpt lat="41.955305" lon="12.7677817"><ele>64.85714285714286</ele><time>2026-04-20T10:24:07.32Z</time></trkpt><trkpt lat="41.9552933" lon="12.76769"><ele>65.0</ele><time>2026-04-20T10:24:08.316Z</time></trkpt><trkpt lat="41.95528" lon="12.7676017"><ele>65.33333333333334</ele><time>2026-04-20T10:24:09.319Z</time></trkpt><trkpt lat="41.9552683" lon="12.767505"><ele>65.66666666666667</ele><time>2026-04-20T10:24:10.317Z</time></trkpt><trkpt lat="41.955255" lon="12.7673983"><ele>66.0</ele><time>2026-04-20T10:24:11.319Z</time></trkpt><trkpt lat="41.9552433" lon="12.7672733"><ele>66.33333333333333</ele><time>2026-04-20T10:24:12.317Z</time></trkpt><trkpt lat="41.9552317" lon="12.7671383"><ele>66.66666666666666</ele><time>2026-04-20T10:24:13.318Z</time></trkpt><trkpt lat="41.9552217" lon="12.7670133"><ele>67.0</ele><time>2026-04-20T10:24:14.319Z</time></trkpt><trkpt lat="41.95521" lon="12.7668933"><ele>67.0</ele><time>2026-04-20T10:24:15.319Z</time></trkpt><trkpt lat="41.955195" lon="12.7667717"><ele>67.0</ele><time>2026-04-20T10:24:16.318Z</time></trkpt><trkpt lat="41.95518" lon="12.7666367"><ele>67.0</ele><time>2026-04-20T10:24:17.318Z</time></trkpt><trkpt lat="41.955165" lon="12.766495"><ele>67.0</ele><time>2026-04-20T10:24:18.319Z</time></trkpt><trkpt lat="41.9551483" lon="12.766345"><ele>67.0</ele><time>2026-04-20T10:24:19.317Z</time></trkpt><trkpt lat="41.95513" lon="12.7661933"><ele>67.0</ele><time>2026-04-20T10:24:20.318Z</time></trkpt><trkpt lat="41.9551117" lon="12.76603"><ele>67.0</ele><time>2026-04-20T10:24:21.318Z</time></trkpt><trkpt lat="41.9550917" lon="12.7658533"><ele>67.0</ele><time>2026-04-20T10:24:22.318Z</time></trkpt><trkpt lat="41.9550783" lon="12.7656767"><ele>67.0</ele><time>2026-04-20T10:24:23.318Z</time></trkpt><trkpt lat="41.9550733" lon="12.7655067"><ele>66.5</ele><time>2026-04-20T10:24:24.319Z</time></trkpt><trkpt lat="41.9550717" lon="12.7653383"><ele>66.0</ele><time>2026-04-20T10:24:25.319Z</time></trkpt><trkpt lat="41.955075" lon="12.7651633"><ele>65.5</ele><time>2026-04-20T10:24:26.318Z</time></trkpt><trkpt lat="41.955085" lon="12.7649867"><ele>65.0</ele><time>2026-04-20T10:24:27.318Z</time></trkpt><trkpt lat="41.95511" lon="12.7648033"><ele>64.5</ele><time>2026-04-20T10:24:28.32Z</time></trkpt><trkpt lat="41.9551417" lon="12.764625"><ele>64.0</ele><time>2026-04-20T10:24:29.317Z</time></trkpt><trkpt lat="41.9551783" lon="12.7644567"><ele>63.5</ele><time>2026-04-20T10:24:30.32Z</time></trkpt><trkpt lat="41.9552183" lon="12.7642967"><ele>63.0</ele><time>2026-04-20T10:24:31.319Z</time></trkpt><trkpt lat="41.9552667" lon="12.76415"><ele>62.166666666666664</ele><time>2026-04-20T10:24:32.32Z</time></trkpt><trkpt lat="41.955305" lon="12.7640233"><ele>61.33333333333333</ele><time>2026-04-20T10:24:33.318Z</time></trkpt><trkpt lat="41.9553183" lon="12.76391"><ele>60.5</ele><time>2026-04-20T10:24:34.32Z</time></trkpt><trkpt lat="41.9553167" lon="12.7638083"><ele>59.666666666666664</ele><time>2026-04-20T10:24:35.32Z</time></trkpt><trkpt lat="41.955295" lon="12.7637217"><ele>58.83333333333333</ele><time>2026-04-20T10:24:36.32Z</time></trkpt><trkpt lat="41.9552533" lon="12.76364"><ele>58.0</ele><time>2026-04-20T10:24:37.319Z</time></trkpt><trkpt lat="41.95522" lon="12.7635567"><ele>57.33333333333333</ele><time>2026-04-20T10:24:38.319Z</time></trkpt><trkpt lat="41.9551917" lon="12.7634633"><ele>56.666666666666664</ele><time>2026-04-20T10:24:39.32Z</time></trkpt><trkpt lat="41.955155" lon="12.7633633"><ele>56.0</ele><time>2026-04-20T10:24:40.318Z</time></trkpt><trkpt lat="41.9551083" lon="12.76326"><ele>55.33333333333333</ele><time>2026-04-20T10:24:41.32Z</time></trkpt><trkpt lat="41.9550467" lon="12.7631633"><ele>54.666666666666664</ele><time>2026-04-20T10:24:42.318Z</time></trkpt><trkpt lat="41.9549767" lon="12.76308"><ele>54.0</ele><time>2026-04-20T10:24:43.317Z</time></trkpt><trkpt lat="41.9549" lon="12.7630183"><ele>53.6</ele><time>2026-04-20T10:24:44.316Z</time></trkpt><trkpt lat="41.954825" lon="12.7629867"><ele>53.2</ele><time>2026-04-20T10:24:45.316Z</time></trkpt><trkpt lat="41.9547617" lon="12.7629667"><ele>52.800000000000004</ele><time>2026-04-20T10:24:46.318Z</time></trkpt><trkpt lat="41.9546483" lon="12.7629183"><ele>52.400000000000006</ele><time>2026-04-20T10:24:48.319Z</time></trkpt><trkpt lat="41.9545367" lon="12.7628533"><ele>52.0</ele><time>2026-04-20T10:24:50.316Z</time></trkpt><trkpt lat="41.9544733" lon="12.7628117"><ele>51.99999999999999</ele><time>2026-04-20T10:24:51.319Z</time></trkpt><trkpt lat="41.95441" lon="12.7627767"><ele>52.0</ele><time>2026-04-20T10:24:52.318Z</time></trkpt><trkpt lat="41.9543517" lon="12.76274"><ele>52.0</ele><time>2026-04-20T10:24:53.319Z</time></trkpt><trkpt lat="41.95425" lon="12.76269"><ele>52.0</ele><time>2026-04-20T10:24:55.316Z</time></trkpt><trkpt lat="41.9541333" lon="12.7626483"><ele>51.99999999999999</ele><time>2026-04-20T10:24:57.319Z</time></trkpt><trkpt lat="41.9540667" lon="12.76262"><ele>52.0</ele><time>2026-04-20T10:24:58.319Z</time></trkpt><trkpt lat="41.9539933" lon="12.7625883"><ele>51.2</ele><time>2026-04-20T10:24:59.319Z</time></trkpt><trkpt lat="41.95392" lon="12.762555"><ele>50.400000000000006</ele><time>2026-04-20T10:25:00.317Z</time></trkpt><trkpt lat="41.9538383" lon="12.7625217"><ele>49.599999999999994</ele><time>2026-04-20T10:25:01.32Z</time></trkpt><trkpt lat="41.953755" lon="12.76248"><ele>48.8</ele><time>2026-04-20T10:25:02.32Z</time></trkpt><trkpt lat="41.9536617" lon="12.7624333"><ele>48.0</ele><time>2026-04-20T10:25:03.32Z</time></trkpt><trkpt lat="41.9535667" lon="12.762375"><ele>48.0</ele><time>2026-04-20T10:25:04.315Z</time></trkpt><trkpt lat="41.95346" lon="12.762315"><ele>48.0</ele><time>2026-04-20T10:25:05.319Z</time></trkpt><trkpt lat="41.9533467" lon="12.7622517"><ele>48.0</ele><time>2026-04-20T10:25:06.319Z</time></trkpt><trkpt lat="41.953225" lon="12.7621783"><ele>48.0</ele><time>2026-04-20T10:25:07.315Z</time></trkpt><trkpt lat="41.9530933" lon="12.7621"><ele>48.0</ele><time>2026-04-20T10:25:08.32Z</time></trkpt><trkpt lat="41.952965" lon="12.7620267"><ele>48.0</ele><time>2026-04-20T10:25:09.319Z</time></trkpt><trkpt lat="41.9528417" lon="12.7619517"><ele>48.0</ele><time>2026-04-20T10:25:10.32Z</time></trkpt><trkpt lat="41.95272" lon="12.7618833"><ele>48.0</ele><time>2026-04-20T10:25:11.319Z</time></trkpt><trkpt lat="41.9525983" lon="12.761815"><ele>48.0</ele><time>2026-04-20T10:25:12.32Z</time></trkpt><trkpt lat="41.9524717" lon="12.7617483"><ele>48.0</ele><time>2026-04-20T10:25:13.319Z</time></trkpt><trkpt lat="41.952345" lon="12.7616833"><ele>48.0</ele><time>2026-04-20T10:25:14.32Z</time></trkpt><trkpt lat="41.952215" lon="12.761615"><ele>48.0</ele><time>2026-04-20T10:25:15.32Z</time></trkpt><trkpt lat="41.9520883" lon="12.7615483"><ele>48.0</ele><time>2026-04-20T10:25:16.32Z</time></trkpt><trkpt lat="41.9519617" lon="12.7614867"><ele>48.0</ele><time>2026-04-20T10:25:17.32Z</time></trkpt><trkpt lat="41.951835" lon="12.761425"><ele>48.0</ele><time>2026-04-20T10:25:18.318Z</time></trkpt><trkpt lat="41.9517067" lon="12.7613683"><ele>48.0</ele><time>2026-04-20T10:25:19.318Z</time></trkpt><trkpt lat="41.9515833" lon="12.7613183"><ele>47.75</ele><time>2026-04-20T10:25:20.317Z</time></trkpt><trkpt lat="41.9514567" lon="12.7612783"><ele>47.5</ele><time>2026-04-20T10:25:21.317Z</time></trkpt><trkpt lat="41.951325" lon="12.761245"><ele>47.25</ele><time>2026-04-20T10:25:22.317Z</time></trkpt><trkpt lat="41.9511867" lon="12.76122"><ele>47.0</ele><time>2026-04-20T10:25:23.319Z</time></trkpt><trkpt lat="41.9510467" lon="12.7611933"><ele>47.0</ele><time>2026-04-20T10:25:24.319Z</time></trkpt><trkpt lat="41.95091" lon="12.761165"><ele>47.0</ele><time>2026-04-20T10:25:25.322Z</time></trkpt><trkpt lat="41.950775" lon="12.7611383"><ele>47.0</ele><time>2026-04-20T10:25:26.319Z</time></trkpt><trkpt lat="41.9506417" lon="12.7611083"><ele>47.0</ele><time>2026-04-20T10:25:27.32Z</time></trkpt><trkpt lat="41.9505083" lon="12.76107"><ele>47.0</ele><time>2026-04-20T10:25:28.319Z</time></trkpt><trkpt lat="41.950375" lon="12.7610317"><ele>47.0</ele><time>2026-04-20T10:25:29.32Z</time></trkpt><trkpt lat="41.9502467" lon="12.760995"><ele>47.0</ele><time>2026-04-20T10:25:30.32Z</time></trkpt><trkpt lat="41.9501183" lon="12.7609583"><ele>47.0</ele><time>2026-04-20T10:25:31.32Z</time></trkpt><trkpt lat="41.9499933" lon="12.7609233"><ele>47.0</ele><time>2026-04-20T10:25:32.32Z</time></trkpt><trkpt lat="41.9498683" lon="12.7608883"><ele>47.0</ele><time>2026-04-20T10:25:33.319Z</time></trkpt><trkpt lat="41.9497383" lon="12.7608533"><ele>47.0</ele><time>2026-04-20T10:25:34.32Z</time></trkpt><trkpt lat="41.949605" lon="12.7608167"><ele>47.0</ele><time>2026-04-20T10:25:35.32Z</time></trkpt><trkpt lat="41.94947" lon="12.76078"><ele>47.0</ele><time>2026-04-20T10:25:36.321Z</time></trkpt><trkpt lat="41.949335" lon="12.7607433"><ele>47.0</ele><time>2026-04-20T10:25:37.319Z</time></trkpt><trkpt lat="41.9491967" lon="12.7607083"><ele>47.0</ele><time>2026-04-20T10:25:38.32Z</time></trkpt><trkpt lat="41.94906" lon="12.7606717"><ele>47.0</ele><time>2026-04-20T10:25:39.32Z</time></trkpt><trkpt lat="41.9489267" lon="12.760635"><ele>47.25</ele><time>2026-04-20T10:25:40.32Z</time></trkpt><trkpt lat="41.9488" lon="12.7605983"><ele>47.5</ele><time>2026-04-20T10:25:41.319Z</time></trkpt><trkpt lat="41.9486833" lon="12.7605633"><ele>47.75</ele><time>2026-04-20T10:25:42.319Z</time></trkpt><trkpt lat="41.94857" lon="12.7605267"><ele>48.0</ele><time>2026-04-20T10:25:43.32Z</time></trkpt><trkpt lat="41.948465" lon="12.7604917"><ele>48.0</ele><time>2026-04-20T10:25:44.32Z</time></trkpt><trkpt lat="41.9483633" lon="12.76046"><ele>48.0</ele><time>2026-04-20T10:25:45.321Z</time></trkpt><trkpt lat="41.9482633" lon="12.76043"><ele>48.0</ele><time>2026-04-20T10:25:46.32Z</time></trkpt><trkpt lat="41.9481683" lon="12.7603983"><ele>48.0</ele><time>2026-04-20T10:25:47.319Z</time></trkpt><trkpt lat="41.94807" lon="12.7603633"><ele>48.0</ele><time>2026-04-20T10:25:48.32Z</time></trkpt><trkpt lat="41.947965" lon="12.76033"><ele>48.0</ele><time>2026-04-20T10:25:49.321Z</time></trkpt><trkpt lat="41.9478583" lon="12.760295"><ele>48.0</ele><time>2026-04-20T10:25:50.32Z</time></trkpt><trkpt lat="41.9477483" lon="12.7602617"><ele>48.0</ele><time>2026-04-20T10:25:51.319Z</time></trkpt><trkpt lat="41.9476367" lon="12.7602233"><ele>48.0</ele><time>2026-04-20T10:25:52.32Z</time></trkpt><trkpt lat="41.94753" lon="12.7601817"><ele>48.0</ele><time>2026-04-20T10:25:53.32Z</time></trkpt><trkpt lat="41.9474233" lon="12.760145"><ele>48.0</ele><time>2026-04-20T10:25:54.32Z</time></trkpt><trkpt lat="41.947315" lon="12.7601133"><ele>48.0</ele><time>2026-04-20T10:25:55.32Z</time></trkpt><trkpt lat="41.9472083" lon="12.7600767"><ele>48.0</ele><time>2026-04-20T10:25:56.318Z</time></trkpt><trkpt lat="41.9471067" lon="12.760045"><ele>48.0</ele><time>2026-04-20T10:25:57.321Z</time></trkpt><trkpt lat="41.9470033" lon="12.7600167"><ele>48.0</ele><time>2026-04-20T10:25:58.32Z</time></trkpt><trkpt lat="41.9468983" lon="12.75999"><ele>48.0</ele><time>2026-04-20T10:25:59.32Z</time></trkpt><trkpt lat="41.9467967" lon="12.7599633"><ele>48.0</ele><time>2026-04-20T10:26:00.32Z</time></trkpt><trkpt lat="41.9466967" lon="12.759935"><ele>48.0</ele><time>2026-04-20T10:26:01.319Z</time></trkpt><trkpt lat="41.9466" lon="12.7599067"><ele>48.0</ele><time>2026-04-20T10:26:02.319Z</time></trkpt><trkpt lat="41.9465083" lon="12.7598783"><ele>48.0</ele><time>2026-04-20T10:26:03.32Z</time></trkpt><trkpt lat="41.94641" lon="12.7598467"><ele>48.0</ele><time>2026-04-20T10:26:04.319Z</time></trkpt><trkpt lat="41.9463217" lon="12.7598183"><ele>48.0</ele><time>2026-04-20T10:26:05.32Z</time></trkpt><trkpt lat="41.9462333" lon="12.75979"><ele>48.0</ele><time>2026-04-20T10:26:06.318Z</time></trkpt><trkpt lat="41.9461533" lon="12.7597667"><ele>48.0</ele><time>2026-04-20T10:26:07.319Z</time></trkpt><trkpt lat="41.9460817" lon="12.7597433"><ele>48.0</ele><time>2026-04-20T10:26:08.32Z</time></trkpt><trkpt lat="41.9460183" lon="12.7597183"><ele>48.0</ele><time>2026-04-20T10:26:09.32Z</time></trkpt><trkpt lat="41.9459333" lon="12.7596817"><ele>48.333333333333336</ele><time>2026-04-20T10:26:11.32Z</time></trkpt><trkpt lat="41.9458667" lon="12.7596433"><ele>48.66666666666667</ele><time>2026-04-20T10:26:13.32Z</time></trkpt><trkpt lat="41.9458017" lon="12.75956"><ele>49.0</ele><time>2026-04-20T10:26:15.321Z</time></trkpt><trkpt lat="41.9457283" lon="12.7594317"><ele>49.333333333333336</ele><time>2026-04-20T10:26:17.319Z</time></trkpt><trkpt lat="41.9456767" lon="12.7593667"><ele>49.66666666666667</ele><time>2026-04-20T10:26:18.319Z</time></trkpt><trkpt lat="41.945605" lon="12.7593117"><ele>50.0</ele><time>2026-04-20T10:26:19.319Z</time></trkpt><trkpt lat="41.9455217" lon="12.7592583"><ele>50.0</ele><time>2026-04-20T10:26:20.32Z</time></trkpt><trkpt lat="41.9454217" lon="12.7592383"><ele>50.0</ele><time>2026-04-20T10:26:21.319Z</time></trkpt><trkpt lat="41.94533" lon="12.7592483"><ele>50.0</ele><time>2026-04-20T10:26:22.32Z</time></trkpt><trkpt lat="41.9452417" lon="12.7593"><ele>50.0</ele><time>2026-04-20T10:26:23.319Z</time></trkpt><trkpt lat="41.9451517" lon="12.7593683"><ele>50.0</ele><time>2026-04-20T10:26:24.319Z</time></trkpt><trkpt lat="41.94506" lon="12.7594183"><ele>50.8</ele><time>2026-04-20T10:26:25.32Z</time></trkpt><trkpt lat="41.9449683" lon="12.7594533"><ele>51.6</ele><time>2026-04-20T10:26:26.319Z</time></trkpt><trkpt lat="41.9448767" lon="12.7594817"><ele>52.400000000000006</ele><time>2026-04-20T10:26:27.319Z</time></trkpt><trkpt lat="41.9447833" lon="12.7594917"><ele>53.2</ele><time>2026-04-20T10:26:28.319Z</time></trkpt><trkpt lat="41.9446967" lon="12.7594817"><ele>54.0</ele><time>2026-04-20T10:26:29.319Z</time></trkpt><trkpt lat="41.9446" lon="12.75946"><ele>54.0</ele><time>2026-04-20T10:26:30.32Z</time></trkpt><trkpt lat="41.9444967" lon="12.759435"><ele>54.0</ele><time>2026-04-20T10:26:31.316Z</time></trkpt><trkpt lat="41.9443867" lon="12.7594"><ele>54.0</ele><time>2026-04-20T10:26:32.319Z</time></trkpt><trkpt lat="41.94427" lon="12.7593567"><ele>54.0</ele><time>2026-04-20T10:26:33.318Z</time></trkpt><trkpt lat="41.9441467" lon="12.7593083"><ele>52.5</ele><time>2026-04-20T10:26:34.317Z</time></trkpt><trkpt lat="41.944015" lon="12.7592583"><ele>51.0</ele><time>2026-04-20T10:26:35.317Z</time></trkpt><trkpt lat="41.943885" lon="12.7592"><ele>49.5</ele><time>2026-04-20T10:26:36.319Z</time></trkpt><trkpt lat="41.9437617" lon="12.7591183"><ele>48.0</ele><time>2026-04-20T10:26:37.319Z</time></trkpt><trkpt lat="41.9436417" lon="12.7590183"><ele>48.0</ele><time>2026-04-20T10:26:38.319Z</time></trkpt><trkpt lat="41.9435283" lon="12.758895"><ele>48.0</ele><time>2026-04-20T10:26:39.32Z</time></trkpt><trkpt lat="41.9434233" lon="12.7587533"><ele>48.0</ele><time>2026-04-20T10:26:40.32Z</time></trkpt><trkpt lat="41.9433383" lon="12.7586033"><ele>48.0</ele><time>2026-04-20T10:26:41.318Z</time></trkpt><trkpt lat="41.94327" lon="12.75845"><ele>48.0</ele><time>2026-04-20T10:26:42.319Z</time></trkpt><trkpt lat="41.943215" lon="12.758285"><ele>48.0</ele><time>2026-04-20T10:26:43.318Z</time></trkpt><trkpt lat="41.9431733" lon="12.7581067"><ele>48.0</ele><time>2026-04-20T10:26:44.32Z</time></trkpt><trkpt lat="41.9431383" lon="12.75792"><ele>48.0</ele><time>2026-04-20T10:26:45.319Z</time></trkpt><trkpt lat="41.943105" lon="12.7577183"><ele>48.0</ele><time>2026-04-20T10:26:46.321Z</time></trkpt><trkpt lat="41.94307" lon="12.757505"><ele>48.0</ele><time>2026-04-20T10:26:47.318Z</time></trkpt><trkpt lat="41.9430333" lon="12.7572867"><ele>48.0</ele><time>2026-04-20T10:26:48.318Z</time></trkpt><trkpt lat="41.9429967" lon="12.7570683"><ele>47.666666666666664</ele><time>2026-04-20T10:26:49.319Z</time></trkpt><trkpt lat="41.9429583" lon="12.7568517"><ele>47.33333333333333</ele><time>2026-04-20T10:26:50.319Z</time></trkpt><trkpt lat="41.9429183" lon="12.7566383"><ele>47.0</ele><time>2026-04-20T10:26:51.319Z</time></trkpt><trkpt lat="41.942875" lon="12.75644"><ele>47.0</ele><time>2026-04-20T10:26:52.32Z</time></trkpt><trkpt lat="41.94282" lon="12.75626"><ele>47.0</ele><time>2026-04-20T10:26:53.32Z</time></trkpt><trkpt lat="41.942745" lon="12.7560883"><ele>47.0</ele><time>2026-04-20T10:26:54.32Z</time></trkpt><trkpt lat="41.942655" lon="12.7559283"><ele>47.0</ele><time>2026-04-20T10:26:55.32Z</time></trkpt><trkpt lat="41.9425533" lon="12.7557917"><ele>48.25</ele><time>2026-04-20T10:26:56.32Z</time></trkpt><trkpt lat="41.94244" lon="12.75569"><ele>49.5</ele><time>2026-04-20T10:26:57.32Z</time></trkpt><trkpt lat="41.9423167" lon="12.7556167"><ele>50.75</ele><time>2026-04-20T10:26:58.319Z</time></trkpt><trkpt lat="41.9421917" lon="12.75556"><ele>52.0</ele><time>2026-04-20T10:26:59.32Z</time></trkpt><trkpt lat="41.942065" lon="12.7555183"><ele>52.0</ele><time>2026-04-20T10:27:00.32Z</time></trkpt><trkpt lat="41.9419433" lon="12.7554933"><ele>52.0</ele><time>2026-04-20T10:27:01.32Z</time></trkpt><trkpt lat="41.94182" lon="12.7554783"><ele>52.0</ele><time>2026-04-20T10:27:02.32Z</time></trkpt><trkpt lat="41.941695" lon="12.7554683"><ele>52.0</ele><time>2026-04-20T10:27:03.319Z</time></trkpt><trkpt lat="41.94157" lon="12.7554633"><ele>53.25</ele><time>2026-04-20T10:27:04.32Z</time></trkpt><trkpt lat="41.9414433" lon="12.75546"><ele>54.5</ele><time>2026-04-20T10:27:05.32Z</time></trkpt><trkpt lat="41.941325" lon="12.7554533"><ele>55.75</ele><time>2026-04-20T10:27:06.319Z</time></trkpt><trkpt lat="41.94121" lon="12.75545"><ele>57.0</ele><time>2026-04-20T10:27:07.319Z</time></trkpt><trkpt lat="41.941095" lon="12.755445"><ele>57.0</ele><time>2026-04-20T10:27:08.32Z</time></trkpt><trkpt lat="41.94098" lon="12.75543"><ele>57.0</ele><time>2026-04-20T10:27:09.32Z</time></trkpt><trkpt lat="41.9408683" lon="12.7554133"><ele>57.0</ele><time>2026-04-20T10:27:10.319Z</time></trkpt><trkpt lat="41.9407467" lon="12.7554033"><ele>57.0</ele><time>2026-04-20T10:27:11.32Z</time></trkpt><trkpt lat="41.9406267" lon="12.7553933"><ele>55.25</ele><time>2026-04-20T10:27:12.32Z</time></trkpt><trkpt lat="41.9405067" lon="12.7553817"><ele>53.5</ele><time>2026-04-20T10:27:13.319Z</time></trkpt><trkpt lat="41.940385" lon="12.755375"><ele>51.75</ele><time>2026-04-20T10:27:14.319Z</time></trkpt><trkpt lat="41.94028" lon="12.755375"><ele>50.0</ele><time>2026-04-20T10:27:15.318Z</time></trkpt><trkpt lat="41.940175" lon="12.7553733"><ele>50.0</ele><time>2026-04-20T10:27:16.319Z</time></trkpt><trkpt lat="41.940075" lon="12.755365"><ele>50.0</ele><time>2026-04-20T10:27:17.32Z</time></trkpt><trkpt lat="41.9399717" lon="12.7553567"><ele>50.0</ele><time>2026-04-20T10:27:18.318Z</time></trkpt><trkpt lat="41.9398717" lon="12.7553483"><ele>50.0</ele><time>2026-04-20T10:27:19.318Z</time></trkpt><trkpt lat="41.93977" lon="12.755345"><ele>50.0</ele><time>2026-04-20T10:27:20.32Z</time></trkpt><trkpt lat="41.939665" lon="12.7553383"><ele>49.75</ele><time>2026-04-20T10:27:21.32Z</time></trkpt><trkpt lat="41.9395567" lon="12.7553283"><ele>49.5</ele><time>2026-04-20T10:27:22.319Z</time></trkpt><trkpt lat="41.9394483" lon="12.7553217"><ele>49.25</ele><time>2026-04-20T10:27:23.32Z</time></trkpt><trkpt lat="41.9393317" lon="12.7553183"><ele>49.0</ele><time>2026-04-20T10:27:24.32Z</time></trkpt><trkpt lat="41.9392133" lon="12.7553117"><ele>49.75</ele><time>2026-04-20T10:27:25.319Z</time></trkpt><trkpt lat="41.939095" lon="12.7552983"><ele>50.5</ele><time>2026-04-20T10:27:26.32Z</time></trkpt><trkpt lat="41.9389717" lon="12.7552867"><ele>51.25</ele><time>2026-04-20T10:27:27.32Z</time></trkpt><trkpt lat="41.93885" lon="12.7552783"><ele>52.0</ele><time>2026-04-20T10:27:28.317Z</time></trkpt><trkpt lat="41.9387267" lon="12.7552733"><ele>52.0</ele><time>2026-04-20T10:27:29.317Z</time></trkpt><trkpt lat="41.9386" lon="12.75527"><ele>52.0</ele><time>2026-04-20T10:27:30.32Z</time></trkpt><trkpt lat="41.938475" lon="12.755265"><ele>52.0</ele><time>2026-04-20T10:27:31.32Z</time></trkpt><trkpt lat="41.9383467" lon="12.755265"><ele>52.0</ele><time>2026-04-20T10:27:32.318Z</time></trkpt><trkpt lat="41.9382167" lon="12.7552667"><ele>51.5</ele><time>2026-04-20T10:27:33.319Z</time></trkpt><trkpt lat="41.9380833" lon="12.7552633"><ele>51.0</ele><time>2026-04-20T10:27:34.318Z</time></trkpt><trkpt lat="41.9379467" lon="12.7552483"><ele>50.5</ele><time>2026-04-20T10:27:35.317Z</time></trkpt><trkpt lat="41.93781" lon="12.75522"><ele>50.0</ele><time>2026-04-20T10:27:36.32Z</time></trkpt><trkpt lat="41.937675" lon="12.7551733"><ele>49.75</ele><time>2026-04-20T10:27:37.315Z</time></trkpt><trkpt lat="41.9375433" lon="12.75512"><ele>49.5</ele><time>2026-04-20T10:27:38.319Z</time></trkpt><trkpt lat="41.9374083" lon="12.7550617"><ele>49.25</ele><time>2026-04-20T10:27:39.32Z</time></trkpt><trkpt lat="41.93727" lon="12.754995"><ele>49.0</ele><time>2026-04-20T10:27:40.319Z</time></trkpt><trkpt lat="41.93713" lon="12.7549233"><ele>49.0</ele><time>2026-04-20T10:27:41.32Z</time></trkpt><trkpt lat="41.936985" lon="12.7548583"><ele>49.0</ele><time>2026-04-20T10:27:42.319Z</time></trkpt><trkpt lat="41.9368367" lon="12.754795"><ele>49.0</ele><time>2026-04-20T10:27:43.32Z</time></trkpt><trkpt lat="41.9366883" lon="12.7547333"><ele>49.33333333333333</ele><time>2026-04-20T10:27:44.32Z</time></trkpt><trkpt lat="41.93654" lon="12.754675"><ele>49.66666666666667</ele><time>2026-04-20T10:27:45.319Z</time></trkpt><trkpt lat="41.9363883" lon="12.7546217"><ele>50.0</ele><time>2026-04-20T10:27:46.319Z</time></trkpt><trkpt lat="41.9362367" lon="12.7545883"><ele>50.0</ele><time>2026-04-20T10:27:47.32Z</time></trkpt><trkpt lat="41.93608" lon="12.7545683"><ele>50.0</ele><time>2026-04-20T10:27:48.32Z</time></trkpt><trkpt lat="41.9359167" lon="12.754565"><ele>50.0</ele><time>2026-04-20T10:27:49.317Z</time></trkpt><trkpt lat="41.9357517" lon="12.754575"><ele>53.0</ele><time>2026-04-20T10:27:50.318Z</time></trkpt><trkpt lat="41.9355883" lon="12.7545983"><ele>56.0</ele><time>2026-04-20T10:27:51.319Z</time></trkpt><trkpt lat="41.935425" lon="12.7546367"><ele>59.0</ele><time>2026-04-20T10:27:52.317Z</time></trkpt><trkpt lat="41.93526" lon="12.754675"><ele>59.0</ele><time>2026-04-20T10:27:53.316Z</time></trkpt><trkpt lat="41.93509" lon="12.7547183"><ele>59.0</ele><time>2026-04-20T10:27:54.318Z</time></trkpt><trkpt lat="41.9349183" lon="12.7547567"><ele>59.0</ele><time>2026-04-20T10:27:55.317Z</time></trkpt><trkpt lat="41.9347467" lon="12.754795"><ele>60.333333333333336</ele><time>2026-04-20T10:27:56.318Z</time></trkpt><trkpt lat="41.934575" lon="12.754835"><ele>61.66666666666667</ele><time>2026-04-20T10:27:57.317Z</time></trkpt><trkpt lat="41.9344033" lon="12.7548717"><ele>63.0</ele><time>2026-04-20T10:27:58.318Z</time></trkpt><trkpt lat="41.9342283" lon="12.7549067"><ele>61.66666666666667</ele><time>2026-04-20T10:27:59.316Z</time></trkpt><trkpt lat="41.934055" lon="12.7549367"><ele>60.333333333333336</ele><time>2026-04-20T10:28:00.318Z</time></trkpt><trkpt lat="41.933885" lon="12.7549583"><ele>59.0</ele><time>2026-04-20T10:28:01.319Z</time></trkpt><trkpt lat="41.933715" lon="12.754975"><ele>59.0</ele><time>2026-04-20T10:28:02.32Z</time></trkpt><trkpt lat="41.9335467" lon="12.7549883"><ele>59.0</ele><time>2026-04-20T10:28:03.321Z</time></trkpt><trkpt lat="41.9333783" lon="12.7549933"><ele>59.0</ele><time>2026-04-20T10:28:04.319Z</time></trkpt><trkpt lat="41.933205" lon="12.7549833"><ele>57.66666666666667</ele><time>2026-04-20T10:28:05.319Z</time></trkpt><trkpt lat="41.9330317" lon="12.7549533"><ele>56.33333333333333</ele><time>2026-04-20T10:28:06.32Z</time></trkpt><trkpt lat="41.9328617" lon="12.7549017"><ele>55.0</ele><time>2026-04-20T10:28:07.321Z</time></trkpt><trkpt lat="41.932695" lon="12.754825"><ele>55.33333333333333</ele><time>2026-04-20T10:28:08.319Z</time></trkpt><trkpt lat="41.9325317" lon="12.7547283"><ele>55.66666666666667</ele><time>2026-04-20T10:28:09.32Z</time></trkpt><trkpt lat="41.9323667" lon="12.7546183"><ele>56.0</ele><time>2026-04-20T10:28:10.319Z</time></trkpt><trkpt lat="41.9322017" lon="12.7545083"><ele>56.0</ele><time>2026-04-20T10:28:11.319Z</time></trkpt><trkpt lat="41.9320383" lon="12.7544017"><ele>56.0</ele><time>2026-04-20T10:28:12.319Z</time></trkpt><trkpt lat="41.9318833" lon="12.7543083"><ele>56.0</ele><time>2026-04-20T10:28:13.319Z</time></trkpt><trkpt lat="41.93173" lon="12.7542483"><ele>58.66666666666667</ele><time>2026-04-20T10:28:14.32Z</time></trkpt><trkpt lat="41.9315767" lon="12.7542283"><ele>61.33333333333333</ele><time>2026-04-20T10:28:15.317Z</time></trkpt><trkpt lat="41.9314267" lon="12.754245"><ele>64.0</ele><time>2026-04-20T10:28:16.325Z</time></trkpt><trkpt lat="41.9312733" lon="12.7543167"><ele>62.33333333333333</ele><time>2026-04-20T10:28:17.32Z</time></trkpt><trkpt lat="41.9311233" lon="12.75443"><ele>60.66666666666667</ele><time>2026-04-20T10:28:18.319Z</time></trkpt><trkpt lat="41.930975" lon="12.7545567"><ele>59.0</ele><time>2026-04-20T10:28:19.316Z</time></trkpt><trkpt lat="41.930815" lon="12.7546833"><ele>59.0</ele><time>2026-04-20T10:28:20.317Z</time></trkpt><trkpt lat="41.9306483" lon="12.7547883"><ele>59.0</ele><time>2026-04-20T10:28:21.317Z</time></trkpt><trkpt lat="41.9304767" lon="12.7548767"><ele>59.0</ele><time>2026-04-20T10:28:22.317Z</time></trkpt><trkpt lat="41.930305" lon="12.7549433"><ele>59.0</ele><time>2026-04-20T10:28:23.317Z</time></trkpt><trkpt lat="41.9301417" lon="12.7549883"><ele>59.0</ele><time>2026-04-20T10:28:24.316Z</time></trkpt><trkpt lat="41.9299917" lon="12.7550067"><ele>59.0</ele><time>2026-04-20T10:28:25.316Z</time></trkpt><trkpt lat="41.9298483" lon="12.7549933"><ele>59.333333333333336</ele><time>2026-04-20T10:28:26.317Z</time></trkpt><trkpt lat="41.929705" lon="12.75495"><ele>59.66666666666667</ele><time>2026-04-20T10:28:27.317Z</time></trkpt><trkpt lat="41.9295617" lon="12.7548817"><ele>60.0</ele><time>2026-04-20T10:28:28.317Z</time></trkpt><trkpt lat="41.9294117" lon="12.7547967"><ele>60.0</ele><time>2026-04-20T10:28:29.318Z</time></trkpt><trkpt lat="41.9292583" lon="12.7546983"><ele>60.0</ele><time>2026-04-20T10:28:30.317Z</time></trkpt><trkpt lat="41.9291083" lon="12.7546"><ele>60.0</ele><time>2026-04-20T10:28:31.32Z</time></trkpt><trkpt lat="41.9289683" lon="12.754505"><ele>59.75</ele><time>2026-04-20T10:28:32.319Z</time></trkpt><trkpt lat="41.9288367" lon="12.7544133"><ele>59.5</ele><time>2026-04-20T10:28:33.319Z</time></trkpt><trkpt lat="41.9287" lon="12.75433"><ele>59.25</ele><time>2026-04-20T10:28:34.32Z</time></trkpt><trkpt lat="41.928565" lon="12.7542483"><ele>59.0</ele><time>2026-04-20T10:28:35.32Z</time></trkpt><trkpt lat="41.9284283" lon="12.754175"><ele>60.5</ele><time>2026-04-20T10:28:36.318Z</time></trkpt><trkpt lat="41.9282967" lon="12.7541133"><ele>62.0</ele><time>2026-04-20T10:28:37.319Z</time></trkpt><trkpt lat="41.928165" lon="12.7540717"><ele>63.5</ele><time>2026-04-20T10:28:38.318Z</time></trkpt><trkpt lat="41.9280367" lon="12.7540683"><ele>65.0</ele><time>2026-04-20T10:28:39.316Z</time></trkpt><trkpt lat="41.927905" lon="12.7540883"><ele>65.0</ele><time>2026-04-20T10:28:40.319Z</time></trkpt><trkpt lat="41.9277533" lon="12.7541567"><ele>65.0</ele><time>2026-04-20T10:28:41.317Z</time></trkpt><trkpt lat="41.92758" lon="12.75425"><ele>65.0</ele><time>2026-04-20T10:28:42.32Z</time></trkpt><trkpt lat="41.92738" lon="12.754355"><ele>70.0</ele><time>2026-04-20T10:28:43.318Z</time></trkpt><trkpt lat="41.9271633" lon="12.7544683"><ele>75.0</ele><time>2026-04-20T10:28:44.318Z</time></trkpt><trkpt lat="41.926935" lon="12.754585"><ele>75.5</ele><time>2026-04-20T10:28:45.317Z</time></trkpt><trkpt lat="41.9266867" lon="12.7547167"><ele>76.0</ele><time>2026-04-20T10:28:46.317Z</time></trkpt><trkpt lat="41.9264417" lon="12.75485"><ele>76.0</ele><time>2026-04-20T10:28:47.317Z</time></trkpt><trkpt lat="41.9261783" lon="12.75499"><ele>76.0</ele><time>2026-04-20T10:28:48.317Z</time></trkpt><trkpt lat="41.9259267" lon="12.7551267"><ele>79.5</ele><time>2026-04-20T10:28:49.318Z</time></trkpt><trkpt lat="41.9256883" lon="12.755265"><ele>83.0</ele><time>2026-04-20T10:28:50.318Z</time></trkpt><trkpt lat="41.9254767" lon="12.7553933"><ele>83.0</ele><time>2026-04-20T10:28:51.318Z</time></trkpt><trkpt lat="41.925295" lon="12.755515"><ele>83.0</ele><time>2026-04-20T10:28:52.318Z</time></trkpt><trkpt lat="41.9251317" lon="12.7556383"><ele>83.0</ele><time>2026-04-20T10:28:53.316Z</time></trkpt><trkpt lat="41.9249717" lon="12.7557433"><ele>84.33333333333334</ele><time>2026-04-20T10:28:54.318Z</time></trkpt><trkpt lat="41.9248183" lon="12.7558183"><ele>85.66666666666667</ele><time>2026-04-20T10:28:55.318Z</time></trkpt><trkpt lat="41.9246583" lon="12.7558533"><ele>87.0</ele><time>2026-04-20T10:28:56.317Z</time></trkpt><trkpt lat="41.9245083" lon="12.755835"><ele>87.0</ele><time>2026-04-20T10:28:57.319Z</time></trkpt><trkpt lat="41.924365" lon="12.755765"><ele>87.0</ele><time>2026-04-20T10:28:58.318Z</time></trkpt><trkpt lat="41.92423" lon="12.7556617"><ele>87.0</ele><time>2026-04-20T10:28:59.318Z</time></trkpt><trkpt lat="41.9241" lon="12.7555583"><ele>85.5</ele><time>2026-04-20T10:29:00.318Z</time></trkpt><trkpt lat="41.9239767" lon="12.7554467"><ele>84.0</ele><time>2026-04-20T10:29:01.318Z</time></trkpt><trkpt lat="41.923855" lon="12.7553333"><ele>82.5</ele><time>2026-04-20T10:29:02.317Z</time></trkpt><trkpt lat="41.9237383" lon="12.7552217"><ele>81.0</ele><time>2026-04-20T10:29:03.318Z</time></trkpt><trkpt lat="41.9236283" lon="12.7551117"><ele>81.0</ele><time>2026-04-20T10:29:04.318Z</time></trkpt><trkpt lat="41.9235183" lon="12.754995"><ele>81.0</ele><time>2026-04-20T10:29:05.32Z</time></trkpt><trkpt lat="41.9234033" lon="12.7548767"><ele>81.0</ele><time>2026-04-20T10:29:06.32Z</time></trkpt><trkpt lat="41.923285" lon="12.7547633"><ele>81.0</ele><time>2026-04-20T10:29:07.319Z</time></trkpt><trkpt lat="41.9231683" lon="12.7546483"><ele>78.0</ele><time>2026-04-20T10:29:08.32Z</time></trkpt><trkpt lat="41.9230517" lon="12.7545367"><ele>75.0</ele><time>2026-04-20T10:29:09.32Z</time></trkpt><trkpt lat="41.9229317" lon="12.7544283"><ele>72.0</ele><time>2026-04-20T10:29:10.32Z</time></trkpt><trkpt lat="41.9228183" lon="12.754315"><ele>69.0</ele><time>2026-04-20T10:29:11.319Z</time></trkpt><trkpt lat="41.9227067" lon="12.7542067"><ele>68.0</ele><time>2026-04-20T10:29:12.317Z</time></trkpt><trkpt lat="41.9225967" lon="12.7541017"><ele>67.0</ele><time>2026-04-20T10:29:13.317Z</time></trkpt><trkpt lat="41.9224883" lon="12.7540017"><ele>66.0</ele><time>2026-04-20T10:29:14.32Z</time></trkpt><trkpt lat="41.92238" lon="12.7539033"><ele>65.0</ele><time>2026-04-20T10:29:15.319Z</time></trkpt><trkpt lat="41.9222767" lon="12.7538067"><ele>63.25</ele><time>2026-04-20T10:29:16.321Z</time></trkpt><trkpt lat="41.92218" lon="12.7537083"><ele>61.5</ele><time>2026-04-20T10:29:17.319Z</time></trkpt><trkpt lat="41.9220817" lon="12.7536167"><ele>59.75</ele><time>2026-04-20T10:29:18.317Z</time></trkpt><trkpt lat="41.9219867" lon="12.7535233"><ele>58.0</ele><time>2026-04-20T10:29:19.317Z</time></trkpt><trkpt lat="41.921895" lon="12.75343"><ele>57.33333333333333</ele><time>2026-04-20T10:29:20.317Z</time></trkpt><trkpt lat="41.921815" lon="12.7533467"><ele>56.666666666666664</ele><time>2026-04-20T10:29:21.318Z</time></trkpt><trkpt lat="41.9217483" lon="12.7532783"><ele>56.0</ele><time>2026-04-20T10:29:22.316Z</time></trkpt><trkpt lat="41.9216967" lon="12.7532233"><ele>55.33333333333333</ele><time>2026-04-20T10:29:23.317Z</time></trkpt><trkpt lat="41.9216383" lon="12.7531617"><ele>54.666666666666664</ele><time>2026-04-20T10:29:25.322Z</time></trkpt><trkpt lat="41.92155" lon="12.75311"><ele>54.0</ele><time>2026-04-20T10:29:28.319Z</time></trkpt><trkpt lat="41.9214867" lon="12.7531833"><ele>54.0</ele><time>2026-04-20T10:29:30.319Z</time></trkpt><trkpt lat="41.9214717" lon="12.7532783"><ele>54.00000000000001</ele><time>2026-04-20T10:29:31.32Z</time></trkpt><trkpt lat="41.9214567" lon="12.7533967"><ele>54.00000000000001</ele><time>2026-04-20T10:29:32.319Z</time></trkpt><trkpt lat="41.9214283" lon="12.7535183"><ele>54.0</ele><time>2026-04-20T10:29:33.321Z</time></trkpt><trkpt lat="41.9213917" lon="12.7536433"><ele>54.0</ele><time>2026-04-20T10:29:34.316Z</time></trkpt><trkpt lat="41.921355" lon="12.7537817"><ele>54.0</ele><time>2026-04-20T10:29:35.317Z</time></trkpt><trkpt lat="41.9213183" lon="12.7539267"><ele>54.0</ele><time>2026-04-20T10:29:36.319Z</time></trkpt><trkpt lat="41.9212767" lon="12.7540767"><ele>54.0</ele><time>2026-04-20T10:29:37.319Z</time></trkpt><trkpt lat="41.9212317" lon="12.7542383"><ele>54.0</ele><time>2026-04-20T10:29:38.32Z</time></trkpt><trkpt lat="41.9211817" lon="12.7544167"><ele>55.0</ele><time>2026-04-20T10:29:39.321Z</time></trkpt><trkpt lat="41.9211283" lon="12.7546"><ele>56.0</ele><time>2026-04-20T10:29:40.317Z</time></trkpt><trkpt lat="41.92108" lon="12.7547783"><ele>57.0</ele><time>2026-04-20T10:29:41.318Z</time></trkpt><trkpt lat="41.92103" lon="12.754955"><ele>58.0</ele><time>2026-04-20T10:29:42.319Z</time></trkpt><trkpt lat="41.9209733" lon="12.7551317"><ele>57.0</ele><time>2026-04-20T10:29:43.32Z</time></trkpt><trkpt lat="41.9208967" lon="12.7553033"><ele>56.0</ele><time>2026-04-20T10:29:44.32Z</time></trkpt><trkpt lat="41.9208033" lon="12.755465"><ele>55.0</ele><time>2026-04-20T10:29:45.32Z</time></trkpt><trkpt lat="41.9206917" lon="12.755615"><ele>55.0</ele><time>2026-04-20T10:29:46.318Z</time></trkpt><trkpt lat="41.920565" lon="12.7557583"><ele>55.0</ele><time>2026-04-20T10:29:47.32Z</time></trkpt><trkpt lat="41.9204183" lon="12.7558967"><ele>55.0</ele><time>2026-04-20T10:29:48.318Z</time></trkpt><trkpt lat="41.9202617" lon="12.756035"><ele>55.666666666666664</ele><time>2026-04-20T10:29:49.317Z</time></trkpt><trkpt lat="41.9200983" lon="12.7561667"><ele>56.33333333333333</ele><time>2026-04-20T10:29:50.318Z</time></trkpt><trkpt lat="41.9199383" lon="12.7562967"><ele>57.0</ele><time>2026-04-20T10:29:51.316Z</time></trkpt><trkpt lat="41.919775" lon="12.7564267"><ele>55.33333333333333</ele><time>2026-04-20T10:29:52.317Z</time></trkpt><trkpt lat="41.9196117" lon="12.75656"><ele>53.666666666666664</ele><time>2026-04-20T10:29:53.318Z</time></trkpt><trkpt lat="41.9194417" lon="12.7566883"><ele>52.0</ele><time>2026-04-20T10:29:54.317Z</time></trkpt><trkpt lat="41.9192683" lon="12.7568117"><ele>53.0</ele><time>2026-04-20T10:29:55.319Z</time></trkpt><trkpt lat="41.9190883" lon="12.7569233"><ele>54.0</ele><time>2026-04-20T10:29:56.32Z</time></trkpt><trkpt lat="41.9189033" lon="12.7570317"><ele>55.0</ele><time>2026-04-20T10:29:57.321Z</time></trkpt><trkpt lat="41.9187167" lon="12.7571483"><ele>55.0</ele><time>2026-04-20T10:29:58.32Z</time></trkpt><trkpt lat="41.91853" lon="12.7572817"><ele>55.0</ele><time>2026-04-20T10:29:59.318Z</time></trkpt><trkpt lat="41.9183417" lon="12.757425"><ele>55.0</ele><time>2026-04-20T10:30:00.318Z</time></trkpt><trkpt lat="41.91815" lon="12.757575"><ele>55.0</ele><time>2026-04-20T10:30:01.317Z</time></trkpt><trkpt lat="41.9179583" lon="12.757725"><ele>55.0</ele><time>2026-04-20T10:30:02.318Z</time></trkpt><trkpt lat="41.91777" lon="12.7578717"><ele>55.0</ele><time>2026-04-20T10:30:03.318Z</time></trkpt><trkpt lat="41.917585" lon="12.7580167"><ele>55.33333333333333</ele><time>2026-04-20T10:30:04.317Z</time></trkpt><trkpt lat="41.9173967" lon="12.75816"><ele>55.66666666666667</ele><time>2026-04-20T10:30:05.317Z</time></trkpt><trkpt lat="41.917205" lon="12.7583017"><ele>56.0</ele><time>2026-04-20T10:30:06.318Z</time></trkpt><trkpt lat="41.91701" lon="12.7584433"><ele>55.5</ele><time>2026-04-20T10:30:07.317Z</time></trkpt><trkpt lat="41.9168133" lon="12.7585833"><ele>55.0</ele><time>2026-04-20T10:30:08.318Z</time></trkpt><trkpt lat="41.91661" lon="12.75872"><ele>57.0</ele><time>2026-04-20T10:30:09.316Z</time></trkpt><trkpt lat="41.9164033" lon="12.7588467"><ele>59.0</ele><time>2026-04-20T10:30:10.316Z</time></trkpt><trkpt lat="41.916195" lon="12.75897"><ele>59.0</ele><time>2026-04-20T10:30:11.317Z</time></trkpt><trkpt lat="41.9159833" lon="12.75909"><ele>59.0</ele><time>2026-04-20T10:30:12.32Z</time></trkpt><trkpt lat="41.915775" lon="12.75921"><ele>59.333333333333336</ele><time>2026-04-20T10:30:13.319Z</time></trkpt><trkpt lat="41.9155717" lon="12.7593317"><ele>59.66666666666667</ele><time>2026-04-20T10:30:14.32Z</time></trkpt><trkpt lat="41.9153717" lon="12.75946"><ele>60.0</ele><time>2026-04-20T10:30:15.32Z</time></trkpt><trkpt lat="41.915175" lon="12.7595983"><ele>63.33333333333333</ele><time>2026-04-20T10:30:16.32Z</time></trkpt><trkpt lat="41.9149833" lon="12.7597467"><ele>66.66666666666666</ele><time>2026-04-20T10:30:17.318Z</time></trkpt><trkpt lat="41.9147933" lon="12.7599033"><ele>70.0</ele><time>2026-04-20T10:30:18.32Z</time></trkpt><trkpt lat="41.9146017" lon="12.760065"><ele>71.33333333333333</ele><time>2026-04-20T10:30:19.318Z</time></trkpt><trkpt lat="41.9144183" lon="12.760225"><ele>72.66666666666667</ele><time>2026-04-20T10:30:20.32Z</time></trkpt><trkpt lat="41.9142433" lon="12.7603783"><ele>74.0</ele><time>2026-04-20T10:30:21.321Z</time></trkpt><trkpt lat="41.91407" lon="12.7605317"><ele>74.0</ele><time>2026-04-20T10:30:22.32Z</time></trkpt><trkpt lat="41.913895" lon="12.760675"><ele>74.0</ele><time>2026-04-20T10:30:23.319Z</time></trkpt><trkpt lat="41.91372" lon="12.7608"><ele>74.0</ele><time>2026-04-20T10:30:24.32Z</time></trkpt><trkpt lat="41.9135367" lon="12.7609033"><ele>72.66666666666667</ele><time>2026-04-20T10:30:25.32Z</time></trkpt><trkpt lat="41.9133417" lon="12.76098"><ele>71.33333333333333</ele><time>2026-04-20T10:30:26.319Z</time></trkpt><trkpt lat="41.913145" lon="12.7610433"><ele>70.0</ele><time>2026-04-20T10:30:27.32Z</time></trkpt><trkpt lat="41.9129467" lon="12.76112"><ele>76.33333333333333</ele><time>2026-04-20T10:30:28.317Z</time></trkpt><trkpt lat="41.912755" lon="12.7612117"><ele>82.66666666666667</ele><time>2026-04-20T10:30:29.317Z</time></trkpt><trkpt lat="41.9125633" lon="12.7613067"><ele>89.0</ele><time>2026-04-20T10:30:30.318Z</time></trkpt><trkpt lat="41.91237" lon="12.7613933"><ele>89.33333333333334</ele><time>2026-04-20T10:30:31.316Z</time></trkpt><trkpt lat="41.912165" lon="12.76146"><ele>89.66666666666667</ele><time>2026-04-20T10:30:32.318Z</time></trkpt><trkpt lat="41.9119583" lon="12.7615233"><ele>90.0</ele><time>2026-04-20T10:30:33.318Z</time></trkpt><trkpt lat="41.9117467" lon="12.7615783"><ele>88.33333333333333</ele><time>2026-04-20T10:30:34.316Z</time></trkpt><trkpt lat="41.9115417" lon="12.7616167"><ele>86.66666666666666</ele><time>2026-04-20T10:30:35.318Z</time></trkpt><trkpt lat="41.9113383" lon="12.76166"><ele>85.0</ele><time>2026-04-20T10:30:36.317Z</time></trkpt><trkpt lat="41.9111317" lon="12.7617317"><ele>85.0</ele><time>2026-04-20T10:30:37.316Z</time></trkpt><trkpt lat="41.9109317" lon="12.7618267"><ele>85.0</ele><time>2026-04-20T10:30:38.317Z</time></trkpt><trkpt lat="41.9107317" lon="12.7619267"><ele>85.0</ele><time>2026-04-20T10:30:39.318Z</time></trkpt><trkpt lat="41.9105267" lon="12.7620233"><ele>85.0</ele><time>2026-04-20T10:30:40.316Z</time></trkpt><trkpt lat="41.9103167" lon="12.7621117"><ele>85.0</ele><time>2026-04-20T10:30:41.318Z</time></trkpt><trkpt lat="41.9101067" lon="12.7621867"><ele>85.0</ele><time>2026-04-20T10:30:42.32Z</time></trkpt><trkpt lat="41.909895" lon="12.7622567"><ele>85.0</ele><time>2026-04-20T10:30:43.32Z</time></trkpt><trkpt lat="41.9096817" lon="12.76232"><ele>85.0</ele><time>2026-04-20T10:30:44.319Z</time></trkpt><trkpt lat="41.9094683" lon="12.762365"><ele>85.0</ele><time>2026-04-20T10:30:45.32Z</time></trkpt><trkpt lat="41.9092617" lon="12.7623917"><ele>85.66666666666666</ele><time>2026-04-20T10:30:46.319Z</time></trkpt><trkpt lat="41.90907" lon="12.7624067"><ele>86.33333333333333</ele><time>2026-04-20T10:30:47.32Z</time></trkpt><trkpt lat="41.908895" lon="12.7623933"><ele>87.0</ele><time>2026-04-20T10:30:48.319Z</time></trkpt><trkpt lat="41.9087233" lon="12.7623467"><ele>87.0</ele><time>2026-04-20T10:30:49.319Z</time></trkpt><trkpt lat="41.9085567" lon="12.762285"><ele>87.0</ele><time>2026-04-20T10:30:50.319Z</time></trkpt><trkpt lat="41.9083933" lon="12.7622367"><ele>87.0</ele><time>2026-04-20T10:30:51.32Z</time></trkpt><trkpt lat="41.90823" lon="12.7622333"><ele>89.0</ele><time>2026-04-20T10:30:52.319Z</time></trkpt><trkpt lat="41.9080633" lon="12.7622783"><ele>91.0</ele><time>2026-04-20T10:30:53.319Z</time></trkpt><trkpt lat="41.9078883" lon="12.76236"><ele>93.0</ele><time>2026-04-20T10:30:54.32Z</time></trkpt><trkpt lat="41.9077133" lon="12.7624533"><ele>93.0</ele><time>2026-04-20T10:30:55.319Z</time></trkpt><trkpt lat="41.9075383" lon="12.7625567"><ele>93.0</ele><time>2026-04-20T10:30:56.318Z</time></trkpt><trkpt lat="41.9073633" lon="12.7626583"><ele>93.0</ele><time>2026-04-20T10:30:57.319Z</time></trkpt><trkpt lat="41.9071967" lon="12.7627683"><ele>96.66666666666666</ele><time>2026-04-20T10:30:58.32Z</time></trkpt><trkpt lat="41.9070517" lon="12.7628917"><ele>100.33333333333333</ele><time>2026-04-20T10:30:59.317Z</time></trkpt><trkpt lat="41.9069117" lon="12.7630533"><ele>104.0</ele><time>2026-04-20T10:31:00.318Z</time></trkpt><trkpt lat="41.9067833" lon="12.7632433"><ele>104.66666666666666</ele><time>2026-04-20T10:31:01.316Z</time></trkpt><trkpt lat="41.9066533" lon="12.7634517"><ele>105.33333333333334</ele><time>2026-04-20T10:31:02.317Z</time></trkpt><trkpt lat="41.9065133" lon="12.76366"><ele>106.0</ele><time>2026-04-20T10:31:03.318Z</time></trkpt><trkpt lat="41.90636" lon="12.7638567"><ele>106.0</ele><time>2026-04-20T10:31:04.317Z</time></trkpt><trkpt lat="41.9062" lon="12.7640417"><ele>106.0</ele><time>2026-04-20T10:31:05.317Z</time></trkpt><trkpt lat="41.9060383" lon="12.764225"><ele>106.0</ele><time>2026-04-20T10:31:06.318Z</time></trkpt><trkpt lat="41.90587" lon="12.7644083"><ele>104.33333333333334</ele><time>2026-04-20T10:31:07.317Z</time></trkpt><trkpt lat="41.9056967" lon="12.7645883"><ele>102.66666666666666</ele><time>2026-04-20T10:31:08.316Z</time></trkpt><trkpt lat="41.9055167" lon="12.7647633"><ele>101.0</ele><time>2026-04-20T10:31:09.318Z</time></trkpt><trkpt lat="41.9053283" lon="12.7649317"><ele>101.0</ele><time>2026-04-20T10:31:10.317Z</time></trkpt><trkpt lat="41.9051367" lon="12.7651033"><ele>101.0</ele><time>2026-04-20T10:31:11.317Z</time></trkpt><trkpt lat="41.9049417" lon="12.7652767"><ele>102.0</ele><time>2026-04-20T10:31:12.318Z</time></trkpt><trkpt lat="41.9047433" lon="12.7654533"><ele>103.0</ele><time>2026-04-20T10:31:13.318Z</time></trkpt><trkpt lat="41.904545" lon="12.765635"><ele>103.0</ele><time>2026-04-20T10:31:14.32Z</time></trkpt><trkpt lat="41.9043483" lon="12.7658133"><ele>103.0</ele><time>2026-04-20T10:31:15.321Z</time></trkpt><trkpt lat="41.9041567" lon="12.76599"><ele>104.5</ele><time>2026-04-20T10:31:16.318Z</time></trkpt><trkpt lat="41.90397" lon="12.7661633"><ele>106.0</ele><time>2026-04-20T10:31:17.32Z</time></trkpt><trkpt lat="41.9037817" lon="12.7663383"><ele>106.0</ele><time>2026-04-20T10:31:18.319Z</time></trkpt><trkpt lat="41.9035983" lon="12.7665183"><ele>106.0</ele><time>2026-04-20T10:31:19.319Z</time></trkpt><trkpt lat="41.9034217" lon="12.76671"><ele>106.0</ele><time>2026-04-20T10:31:20.32Z</time></trkpt><trkpt lat="41.9032433" lon="12.766895"><ele>106.0</ele><time>2026-04-20T10:31:21.32Z</time></trkpt><trkpt lat="41.9030633" lon="12.7670933"><ele>106.0</ele><time>2026-04-20T10:31:22.32Z</time></trkpt><trkpt lat="41.902885" lon="12.7672917"><ele>106.0</ele><time>2026-04-20T10:31:23.319Z</time></trkpt><trkpt lat="41.9027017" lon="12.7674783"><ele>105.5</ele><time>2026-04-20T10:31:24.32Z</time></trkpt><trkpt lat="41.9025167" lon="12.7676717"><ele>105.0</ele><time>2026-04-20T10:31:25.32Z</time></trkpt><trkpt lat="41.9023383" lon="12.76787"><ele>105.0</ele><time>2026-04-20T10:31:26.32Z</time></trkpt><trkpt lat="41.9021633" lon="12.76806"><ele>105.0</ele><time>2026-04-20T10:31:27.321Z</time></trkpt><trkpt lat="41.9019917" lon="12.76824"><ele>105.0</ele><time>2026-04-20T10:31:28.32Z</time></trkpt><trkpt lat="41.9018183" lon="12.7684083"><ele>105.33333333333334</ele><time>2026-04-20T10:31:29.316Z</time></trkpt><trkpt lat="41.901635" lon="12.768555"><ele>105.66666666666667</ele><time>2026-04-20T10:31:30.317Z</time></trkpt><trkpt lat="41.9014433" lon="12.7686817"><ele>106.0</ele><time>2026-04-20T10:31:31.317Z</time></trkpt><trkpt lat="41.9012433" lon="12.7687967"><ele>106.0</ele><time>2026-04-20T10:31:32.318Z</time></trkpt><trkpt lat="41.901045" lon="12.76891"><ele>106.0</ele><time>2026-04-20T10:31:33.318Z</time></trkpt><trkpt lat="41.9008567" lon="12.7690233"><ele>106.0</ele><time>2026-04-20T10:31:34.318Z</time></trkpt><trkpt lat="41.9006733" lon="12.7691317"><ele>105.66666666666667</ele><time>2026-04-20T10:31:35.317Z</time></trkpt><trkpt lat="41.90049" lon="12.7692417"><ele>105.33333333333334</ele><time>2026-04-20T10:31:36.317Z</time></trkpt><trkpt lat="41.9003067" lon="12.7693533"><ele>105.0</ele><time>2026-04-20T10:31:37.316Z</time></trkpt><trkpt lat="41.9001217" lon="12.7694617"><ele>104.66666666666666</ele><time>2026-04-20T10:31:38.318Z</time></trkpt><trkpt lat="41.8999367" lon="12.7695683"><ele>104.33333333333333</ele><time>2026-04-20T10:31:39.318Z</time></trkpt><trkpt lat="41.8997517" lon="12.7696733"><ele>104.0</ele><time>2026-04-20T10:31:40.317Z</time></trkpt><trkpt lat="41.8995683" lon="12.7697767"><ele>104.0</ele><time>2026-04-20T10:31:41.318Z</time></trkpt><trkpt lat="41.899385" lon="12.7698767"><ele>104.0</ele><time>2026-04-20T10:31:42.32Z</time></trkpt><trkpt lat="41.8992033" lon="12.7699767"><ele>104.0</ele><time>2026-04-20T10:31:43.32Z</time></trkpt><trkpt lat="41.899025" lon="12.7700717"><ele>105.0</ele><time>2026-04-20T10:31:44.319Z</time></trkpt><trkpt lat="41.898845" lon="12.7701583"><ele>106.0</ele><time>2026-04-20T10:31:45.32Z</time></trkpt><trkpt lat="41.8986617" lon="12.7702333"><ele>107.0</ele><time>2026-04-20T10:31:46.319Z</time></trkpt><trkpt lat="41.8984817" lon="12.770295"><ele>109.33333333333333</ele><time>2026-04-20T10:31:47.319Z</time></trkpt><trkpt lat="41.89831" lon="12.7703517"><ele>111.66666666666666</ele><time>2026-04-20T10:31:48.319Z</time></trkpt><trkpt lat="41.898145" lon="12.7704183"><ele>114.0</ele><time>2026-04-20T10:31:49.319Z</time></trkpt><trkpt lat="41.8978533" lon="12.7704783"><ele>114.0</ele><time>2026-04-20T10:31:50.797Z</time></trkpt><trkpt lat="41.8977033" lon="12.7705783"><ele>114.0</ele><time>2026-04-20T10:31:51.816Z</time></trkpt><trkpt lat="41.8975017" lon="12.7707083"><ele>114.0</ele><time>2026-04-20T10:31:53.316Z</time></trkpt><trkpt lat="41.89737" lon="12.7708117"><ele>112.75</ele><time>2026-04-20T10:31:54.316Z</time></trkpt><trkpt lat="41.8972467" lon="12.7709133"><ele>111.5</ele><time>2026-04-20T10:31:55.317Z</time></trkpt><trkpt lat="41.8971333" lon="12.7710083"><ele>110.25</ele><time>2026-04-20T10:31:56.321Z</time></trkpt><trkpt lat="41.8971767" lon="12.7710817"><ele>109.0</ele><time>2026-04-20T10:31:57.263Z</time></trkpt><trkpt lat="41.8970067" lon="12.7712"><ele>110.5</ele><time>2026-04-20T10:31:58.316Z</time></trkpt><trkpt lat="41.896885" lon="12.7712933"><ele>112.0</ele><time>2026-04-20T10:31:59.317Z</time></trkpt><trkpt lat="41.8967667" lon="12.771385"><ele>113.5</ele><time>2026-04-20T10:32:00.315Z</time></trkpt><trkpt lat="41.8966467" lon="12.77147"><ele>115.0</ele><time>2026-04-20T10:32:01.316Z</time></trkpt><trkpt lat="41.896525" lon="12.7715533"><ele>115.0</ele><time>2026-04-20T10:32:02.316Z</time></trkpt><trkpt lat="41.8964067" lon="12.7716383"><ele>115.0</ele><time>2026-04-20T10:32:03.315Z</time></trkpt><trkpt lat="41.896285" lon="12.7717267"><ele>115.0</ele><time>2026-04-20T10:32:04.315Z</time></trkpt><trkpt lat="41.8961667" lon="12.7718117"><ele>115.0</ele><time>2026-04-20T10:32:05.317Z</time></trkpt><trkpt lat="41.89593" lon="12.77198"><ele>115.75</ele><time>2026-04-20T10:32:07.317Z</time></trkpt><trkpt lat="41.8958067" lon="12.7720683"><ele>116.5</ele><time>2026-04-20T10:32:08.316Z</time></trkpt><trkpt lat="41.8956933" lon="12.7721467"><ele>117.25</ele><time>2026-04-20T10:32:09.316Z</time></trkpt><trkpt lat="41.8955733" lon="12.7722383"><ele>118.0</ele><time>2026-04-20T10:32:10.316Z</time></trkpt><trkpt lat="41.8954433" lon="12.7723283"><ele>118.0</ele><time>2026-04-20T10:32:11.316Z</time></trkpt><trkpt lat="41.8953117" lon="12.7724117"><ele>118.0</ele><time>2026-04-20T10:32:12.317Z</time></trkpt><trkpt lat="41.8951817" lon="12.7724933"><ele>118.0</ele><time>2026-04-20T10:32:13.318Z</time></trkpt><trkpt lat="41.89505" lon="12.77257"><ele>118.0</ele><time>2026-04-20T10:32:14.317Z</time></trkpt><trkpt lat="41.8949217" lon="12.7726317"><ele>116.25</ele><time>2026-04-20T10:32:15.317Z</time></trkpt><trkpt lat="41.8947883" lon="12.77268"><ele>114.5</ele><time>2026-04-20T10:32:16.316Z</time></trkpt><trkpt lat="41.8946567" lon="12.77272"><ele>112.75</ele><time>2026-04-20T10:32:17.316Z</time></trkpt><trkpt lat="41.8945233" lon="12.7727567"><ele>111.0</ele><time>2026-04-20T10:32:18.317Z</time></trkpt><trkpt lat="41.89439" lon="12.7727883"><ele>111.5</ele><time>2026-04-20T10:32:19.317Z</time></trkpt><trkpt lat="41.894255" lon="12.7728117"><ele>112.0</ele><time>2026-04-20T10:32:20.317Z</time></trkpt><trkpt lat="41.8941183" lon="12.7728283"><ele>112.5</ele><time>2026-04-20T10:32:21.317Z</time></trkpt><trkpt lat="41.8939867" lon="12.7728467"><ele>113.0</ele><time>2026-04-20T10:32:22.316Z</time></trkpt><trkpt lat="41.8938617" lon="12.772865"><ele>113.0</ele><time>2026-04-20T10:32:23.316Z</time></trkpt><trkpt lat="41.89374" lon="12.7728833"><ele>113.0</ele><time>2026-04-20T10:32:24.318Z</time></trkpt><trkpt lat="41.893635" lon="12.7729667"><ele>113.0</ele><time>2026-04-20T10:32:25.472Z</time></trkpt><trkpt lat="41.8934083" lon="12.77302"><ele>112.25</ele><time>2026-04-20T10:32:26.462Z</time></trkpt><trkpt lat="41.8933233" lon="12.7729167"><ele>111.5</ele><time>2026-04-20T10:32:27.816Z</time></trkpt><trkpt lat="41.8931617" lon="12.772925"><ele>110.75</ele><time>2026-04-20T10:32:29.318Z</time></trkpt><trkpt lat="41.8930517" lon="12.7729383"><ele>110.0</ele><time>2026-04-20T10:32:30.316Z</time></trkpt><trkpt lat="41.8929467" lon="12.7729483"><ele>110.0</ele><time>2026-04-20T10:32:31.317Z</time></trkpt><trkpt lat="41.89284" lon="12.7729617"><ele>110.0</ele><time>2026-04-20T10:32:32.316Z</time></trkpt><trkpt lat="41.8927367" lon="12.772975"><ele>110.0</ele><time>2026-04-20T10:32:33.318Z</time></trkpt><trkpt lat="41.8926217" lon="12.772985"><ele>110.0</ele><time>2026-04-20T10:32:34.316Z</time></trkpt><trkpt lat="41.8924967" lon="12.7729967"><ele>110.25</ele><time>2026-04-20T10:32:35.316Z</time></trkpt><trkpt lat="41.89236" lon="12.7730133"><ele>110.5</ele><time>2026-04-20T10:32:36.318Z</time></trkpt><trkpt lat="41.8922267" lon="12.7730417"><ele>110.75</ele><time>2026-04-20T10:32:37.316Z</time></trkpt><trkpt lat="41.8920883" lon="12.7730833"><ele>111.0</ele><time>2026-04-20T10:32:38.316Z</time></trkpt><trkpt lat="41.8919467" lon="12.77314"><ele>111.0</ele><time>2026-04-20T10:32:39.318Z</time></trkpt><trkpt lat="41.8918" lon="12.7732183"><ele>111.0</ele><time>2026-04-20T10:32:40.317Z</time></trkpt><trkpt lat="41.891655" lon="12.7733183"><ele>111.0</ele><time>2026-04-20T10:32:41.319Z</time></trkpt><trkpt lat="41.891515" lon="12.7734267"><ele>111.0</ele><time>2026-04-20T10:32:42.318Z</time></trkpt><trkpt lat="41.8913833" lon="12.7735233"><ele>111.0</ele><time>2026-04-20T10:32:43.316Z</time></trkpt><trkpt lat="41.8912583" lon="12.7736133"><ele>111.0</ele><time>2026-04-20T10:32:44.317Z</time></trkpt><trkpt lat="41.89114" lon="12.7736983"><ele>111.0</ele><time>2026-04-20T10:32:45.318Z</time></trkpt><trkpt lat="41.89102" lon="12.7737783"><ele>112.0</ele><time>2026-04-20T10:32:46.317Z</time></trkpt><trkpt lat="41.8908967" lon="12.77385"><ele>113.0</ele><time>2026-04-20T10:32:47.316Z</time></trkpt><trkpt lat="41.8907717" lon="12.773915"><ele>114.0</ele><time>2026-04-20T10:32:48.318Z</time></trkpt><trkpt lat="41.8906467" lon="12.77397"><ele>115.0</ele><time>2026-04-20T10:32:49.318Z</time></trkpt><trkpt lat="41.8905183" lon="12.77403"><ele>115.0</ele><time>2026-04-20T10:32:50.317Z</time></trkpt><trkpt lat="41.8903883" lon="12.7740983"><ele>115.0</ele><time>2026-04-20T10:32:51.317Z</time></trkpt><trkpt lat="41.8902567" lon="12.7741933"><ele>115.0</ele><time>2026-04-20T10:32:52.316Z</time></trkpt><trkpt lat="41.890125" lon="12.77431"><ele>115.0</ele><time>2026-04-20T10:32:53.316Z</time></trkpt><trkpt lat="41.8899867" lon="12.7744567"><ele>114.5</ele><time>2026-04-20T10:32:54.317Z</time></trkpt><trkpt lat="41.8898583" lon="12.7745917"><ele>114.0</ele><time>2026-04-20T10:32:55.317Z</time></trkpt><trkpt lat="41.8897467" lon="12.7747083"><ele>113.5</ele><time>2026-04-20T10:32:56.318Z</time></trkpt><trkpt lat="41.889645" lon="12.7748133"><ele>113.0</ele><time>2026-04-20T10:32:57.318Z</time></trkpt><trkpt lat="41.8895467" lon="12.7749167"><ele>113.0</ele><time>2026-04-20T10:32:58.317Z</time></trkpt><trkpt lat="41.889445" lon="12.7750233"><ele>113.0</ele><time>2026-04-20T10:32:59.317Z</time></trkpt><trkpt lat="41.8893467" lon="12.7751283"><ele>113.0</ele><time>2026-04-20T10:33:00.318Z</time></trkpt><trkpt lat="41.889245" lon="12.7752433"><ele>113.0</ele><time>2026-04-20T10:33:01.317Z</time></trkpt><trkpt lat="41.8891383" lon="12.77538"><ele>114.0</ele><time>2026-04-20T10:33:02.316Z</time></trkpt><trkpt lat="41.8890217" lon="12.7755333"><ele>115.0</ele><time>2026-04-20T10:33:03.317Z</time></trkpt><trkpt lat="41.8888967" lon="12.7756933"><ele>116.0</ele><time>2026-04-20T10:33:04.317Z</time></trkpt><trkpt lat="41.8887683" lon="12.7758583"><ele>117.0</ele><time>2026-04-20T10:33:05.317Z</time></trkpt><trkpt lat="41.8886417" lon="12.77602"><ele>118.0</ele><time>2026-04-20T10:33:06.316Z</time></trkpt><trkpt lat="41.8885217" lon="12.7761733"><ele>119.0</ele><time>2026-04-20T10:33:07.317Z</time></trkpt><trkpt lat="41.8884117" lon="12.7763217"><ele>119.0</ele><time>2026-04-20T10:33:08.316Z</time></trkpt><trkpt lat="41.888305" lon="12.77646"><ele>119.0</ele><time>2026-04-20T10:33:09.317Z</time></trkpt><trkpt lat="41.8882017" lon="12.7765983"><ele>119.0</ele><time>2026-04-20T10:33:10.315Z</time></trkpt><trkpt lat="41.888105" lon="12.7767333"><ele>119.0</ele><time>2026-04-20T10:33:11.317Z</time></trkpt><trkpt lat="41.8880167" lon="12.7768767"><ele>119.5</ele><time>2026-04-20T10:33:12.317Z</time></trkpt><trkpt lat="41.8879283" lon="12.7770267"><ele>120.0</ele><time>2026-04-20T10:33:13.316Z</time></trkpt><trkpt lat="41.887845" lon="12.777185"><ele>120.5</ele><time>2026-04-20T10:33:14.316Z</time></trkpt><trkpt lat="41.8877683" lon="12.7773417"><ele>121.0</ele><time>2026-04-20T10:33:15.317Z</time></trkpt><trkpt lat="41.8876967" lon="12.7774767"><ele>121.0</ele><time>2026-04-20T10:33:16.317Z</time></trkpt><trkpt lat="41.88762" lon="12.777605"><ele>121.0</ele><time>2026-04-20T10:33:17.317Z</time></trkpt><trkpt lat="41.88753" lon="12.777725"><ele>121.0</ele><time>2026-04-20T10:33:18.319Z</time></trkpt><trkpt lat="41.887425" lon="12.77783"><ele>121.0</ele><time>2026-04-20T10:33:19.317Z</time></trkpt><trkpt lat="41.887305" lon="12.7779217"><ele>120.75</ele><time>2026-04-20T10:33:20.319Z</time></trkpt><trkpt lat="41.8871817" lon="12.7780067"><ele>120.5</ele><time>2026-04-20T10:33:21.317Z</time></trkpt><trkpt lat="41.887065" lon="12.7780833"><ele>120.25</ele><time>2026-04-20T10:33:22.317Z</time></trkpt><trkpt lat="41.8869467" lon="12.7781583"><ele>120.0</ele><time>2026-04-20T10:33:23.317Z</time></trkpt><trkpt lat="41.88683" lon="12.7782383"><ele>120.75</ele><time>2026-04-20T10:33:24.317Z</time></trkpt><trkpt lat="41.8867067" lon="12.7783167"><ele>121.5</ele><time>2026-04-20T10:33:25.316Z</time></trkpt><trkpt lat="41.88658" lon="12.778395"><ele>122.25</ele><time>2026-04-20T10:33:26.317Z</time></trkpt><trkpt lat="41.8864533" lon="12.7784783"><ele>123.0</ele><time>2026-04-20T10:33:27.318Z</time></trkpt><trkpt lat="41.886325" lon="12.7785633"><ele>123.0</ele><time>2026-04-20T10:33:28.316Z</time></trkpt><trkpt lat="41.8861967" lon="12.7786467"><ele>123.0</ele><time>2026-04-20T10:33:29.317Z</time></trkpt><trkpt lat="41.886075" lon="12.7787317"><ele>123.0</ele><time>2026-04-20T10:33:30.32Z</time></trkpt><trkpt lat="41.8859633" lon="12.7788217"><ele>123.0</ele><time>2026-04-20T10:33:31.32Z</time></trkpt><trkpt lat="41.8858633" lon="12.7789183"><ele>122.75</ele><time>2026-04-20T10:33:32.317Z</time></trkpt><trkpt lat="41.8857717" lon="12.7790217"><ele>122.5</ele><time>2026-04-20T10:33:33.316Z</time></trkpt><trkpt lat="41.8856867" lon="12.779145"><ele>122.25</ele><time>2026-04-20T10:33:34.315Z</time></trkpt><trkpt lat="41.8856017" lon="12.7792767"><ele>122.0</ele><time>2026-04-20T10:33:35.32Z</time></trkpt><trkpt lat="41.885515" lon="12.7794133"><ele>124.75</ele><time>2026-04-20T10:33:36.319Z</time></trkpt><trkpt lat="41.8854317" lon="12.7795517"><ele>127.5</ele><time>2026-04-20T10:33:37.32Z</time></trkpt><trkpt lat="41.8853483" lon="12.779695"><ele>130.25</ele><time>2026-04-20T10:33:38.32Z</time></trkpt><trkpt lat="41.8852667" lon="12.7798417"><ele>133.0</ele><time>2026-04-20T10:33:39.319Z</time></trkpt><trkpt lat="41.885185" lon="12.7799883"><ele>134.75</ele><time>2026-04-20T10:33:40.319Z</time></trkpt><trkpt lat="41.885095" lon="12.7801317"><ele>136.5</ele><time>2026-04-20T10:33:41.32Z</time></trkpt><trkpt lat="41.8850083" lon="12.7802767"><ele>138.25</ele><time>2026-04-20T10:33:42.32Z</time></trkpt><trkpt lat="41.8849183" lon="12.78043"><ele>140.0</ele><time>2026-04-20T10:33:43.319Z</time></trkpt><trkpt lat="41.88481" lon="12.7806033"><ele>140.0</ele><time>2026-04-20T10:33:44.32Z</time></trkpt><trkpt lat="41.8846867" lon="12.7807767"><ele>140.0</ele><time>2026-04-20T10:33:45.319Z</time></trkpt><trkpt lat="41.8845617" lon="12.7809317"><ele>140.0</ele><time>2026-04-20T10:33:46.32Z</time></trkpt><trkpt lat="41.8844533" lon="12.7810683"><ele>139.25</ele><time>2026-04-20T10:33:47.32Z</time></trkpt><trkpt lat="41.88436" lon="12.78118"><ele>138.5</ele><time>2026-04-20T10:33:48.318Z</time></trkpt><trkpt lat="41.8842767" lon="12.7812933"><ele>137.75</ele><time>2026-04-20T10:33:49.317Z</time></trkpt><trkpt lat="41.8842083" lon="12.7814083"><ele>137.0</ele><time>2026-04-20T10:33:50.317Z</time></trkpt><trkpt lat="41.8841517" lon="12.7815417"><ele>137.0</ele><time>2026-04-20T10:33:51.317Z</time></trkpt><trkpt lat="41.8841" lon="12.781685"><ele>137.0</ele><time>2026-04-20T10:33:52.316Z</time></trkpt><trkpt lat="41.88406" lon="12.781835"><ele>137.0</ele><time>2026-04-20T10:33:53.319Z</time></trkpt><trkpt lat="41.8840217" lon="12.78198"><ele>137.0</ele><time>2026-04-20T10:33:54.317Z</time></trkpt><trkpt lat="41.883995" lon="12.7821283"><ele>139.6</ele><time>2026-04-20T10:33:55.319Z</time></trkpt><trkpt lat="41.883965" lon="12.7822717"><ele>142.2</ele><time>2026-04-20T10:33:56.318Z</time></trkpt><trkpt lat="41.8839333" lon="12.7824167"><ele>144.8</ele><time>2026-04-20T10:33:57.32Z</time></trkpt><trkpt lat="41.8838983" lon="12.7825617"><ele>147.4</ele><time>2026-04-20T10:33:58.32Z</time></trkpt><trkpt lat="41.88386" lon="12.7826967"><ele>150.0</ele><time>2026-04-20T10:33:59.319Z</time></trkpt><trkpt lat="41.8838133" lon="12.7828133"><ele>152.0</ele><time>2026-04-20T10:34:00.32Z</time></trkpt><trkpt lat="41.8837583" lon="12.7829417"><ele>154.0</ele><time>2026-04-20T10:34:01.32Z</time></trkpt><trkpt lat="41.883695" lon="12.7830883"><ele>156.0</ele><time>2026-04-20T10:34:02.319Z</time></trkpt><trkpt lat="41.8836117" lon="12.78326"><ele>158.0</ele><time>2026-04-20T10:34:03.317Z</time></trkpt><trkpt lat="41.8835267" lon="12.78346"><ele>155.0</ele><time>2026-04-20T10:34:04.32Z</time></trkpt><trkpt lat="41.8834333" lon="12.7836767"><ele>152.0</ele><time>2026-04-20T10:34:05.32Z</time></trkpt><trkpt lat="41.8833367" lon="12.7839083"><ele>149.0</ele><time>2026-04-20T10:34:06.319Z</time></trkpt><trkpt lat="41.8832367" lon="12.7841533"><ele>151.5</ele><time>2026-04-20T10:34:07.32Z</time></trkpt><trkpt lat="41.883125" lon="12.7844183"><ele>154.0</ele><time>2026-04-20T10:34:08.319Z</time></trkpt><trkpt lat="41.8830117" lon="12.7846967"><ele>154.0</ele><time>2026-04-20T10:34:09.319Z</time></trkpt><trkpt lat="41.8828917" lon="12.78499"><ele>154.0</ele><time>2026-04-20T10:34:10.315Z</time></trkpt><trkpt lat="41.8827683" lon="12.7852867"><ele>151.0</ele><time>2026-04-20T10:34:11.316Z</time></trkpt><trkpt lat="41.88264" lon="12.7855833"><ele>148.0</ele><time>2026-04-20T10:34:12.32Z</time></trkpt><trkpt lat="41.8825133" lon="12.78587"><ele>153.66666666666669</ele><time>2026-04-20T10:34:13.318Z</time></trkpt><trkpt lat="41.8823867" lon="12.7861317"><ele>159.33333333333334</ele><time>2026-04-20T10:34:14.319Z</time></trkpt><trkpt lat="41.8822617" lon="12.7863483"><ele>165.0</ele><time>2026-04-20T10:34:15.32Z</time></trkpt><trkpt lat="41.8821317" lon="12.7865283"><ele>165.0</ele><time>2026-04-20T10:34:16.319Z</time></trkpt><trkpt lat="41.8819883" lon="12.7866833"><ele>165.0</ele><time>2026-04-20T10:34:17.319Z</time></trkpt><trkpt lat="41.88184" lon="12.78683"><ele>165.0</ele><time>2026-04-20T10:34:18.317Z</time></trkpt><trkpt lat="41.8816967" lon="12.78698"><ele>164.33333333333334</ele><time>2026-04-20T10:34:19.315Z</time></trkpt><trkpt lat="41.8815717" lon="12.78714"><ele>163.66666666666669</ele><time>2026-04-20T10:34:20.316Z</time></trkpt><trkpt lat="41.881455" lon="12.78733"><ele>163.0</ele><time>2026-04-20T10:34:21.316Z</time></trkpt><trkpt lat="41.8813433" lon="12.7875517"><ele>166.33333333333334</ele><time>2026-04-20T10:34:22.315Z</time></trkpt><trkpt lat="41.8812283" lon="12.787795"><ele>169.66666666666666</ele><time>2026-04-20T10:34:23.318Z</time></trkpt><trkpt lat="41.8811167" lon="12.7880517"><ele>173.0</ele><time>2026-04-20T10:34:24.318Z</time></trkpt><trkpt lat="41.88101" lon="12.7883083"><ele>170.0</ele><time>2026-04-20T10:34:25.316Z</time></trkpt><trkpt lat="41.8809" lon="12.7885667"><ele>167.0</ele><time>2026-04-20T10:34:26.317Z</time></trkpt><trkpt lat="41.88079" lon="12.7888283"><ele>164.0</ele><time>2026-04-20T10:34:27.319Z</time></trkpt><trkpt lat="41.880685" lon="12.7891"><ele>167.5</ele><time>2026-04-20T10:34:28.41Z</time></trkpt><trkpt lat="41.8805833" lon="12.7893817"><ele>171.0</ele><time>2026-04-20T10:34:29.316Z</time></trkpt><trkpt lat="41.88048" lon="12.789675"><ele>171.0</ele><time>2026-04-20T10:34:30.316Z</time></trkpt><trkpt lat="41.8803867" lon="12.78997"><ele>171.0</ele><time>2026-04-20T10:34:31.316Z</time></trkpt><trkpt lat="41.8802883" lon="12.7902567"><ele>167.5</ele><time>2026-04-20T10:34:32.316Z</time></trkpt><trkpt lat="41.8801883" lon="12.7905333"><ele>164.0</ele><time>2026-04-20T10:34:33.317Z</time></trkpt><trkpt lat="41.8800733" lon="12.790805"><ele>170.0</ele><time>2026-04-20T10:34:34.317Z</time></trkpt><trkpt lat="41.87994" lon="12.79107"><ele>176.0</ele><time>2026-04-20T10:34:35.316Z</time></trkpt><trkpt lat="41.879805" lon="12.79134"><ele>176.0</ele><time>2026-04-20T10:34:36.316Z</time></trkpt><trkpt lat="41.8796633" lon="12.7916117"><ele>176.0</ele><time>2026-04-20T10:34:37.316Z</time></trkpt><trkpt lat="41.8795167" lon="12.7918817"><ele>171.5</ele><time>2026-04-20T10:34:38.317Z</time></trkpt><trkpt lat="41.8793733" lon="12.79215"><ele>167.0</ele><time>2026-04-20T10:34:39.317Z</time></trkpt><trkpt lat="41.8792317" lon="12.7924217"><ele>172.5</ele><time>2026-04-20T10:34:40.315Z</time></trkpt><trkpt lat="41.8790917" lon="12.7927"><ele>178.0</ele><time>2026-04-20T10:34:41.318Z</time></trkpt><trkpt lat="41.87895" lon="12.79298"><ele>178.0</ele><time>2026-04-20T10:34:42.317Z</time></trkpt><trkpt lat="41.8788133" lon="12.7932517"><ele>178.0</ele><time>2026-04-20T10:34:43.316Z</time></trkpt><trkpt lat="41.8786833" lon="12.7935017"><ele>175.33333333333334</ele><time>2026-04-20T10:34:44.316Z</time></trkpt><trkpt lat="41.8785517" lon="12.7937217"><ele>172.66666666666666</ele><time>2026-04-20T10:34:45.317Z</time></trkpt><trkpt lat="41.878405" lon="12.79392"><ele>170.0</ele><time>2026-04-20T10:34:46.32Z</time></trkpt><trkpt lat="41.87824" lon="12.7941083"><ele>170.0</ele><time>2026-04-20T10:34:47.315Z</time></trkpt><trkpt lat="41.8780517" lon="12.7942833"><ele>170.0</ele><time>2026-04-20T10:34:48.317Z</time></trkpt><trkpt lat="41.8778583" lon="12.794455"><ele>172.0</ele><time>2026-04-20T10:34:49.315Z</time></trkpt><trkpt lat="41.8776583" lon="12.7946267"><ele>174.0</ele><time>2026-04-20T10:34:50.317Z</time></trkpt><trkpt lat="41.877455" lon="12.7948"><ele>174.0</ele><time>2026-04-20T10:34:51.318Z</time></trkpt><trkpt lat="41.87725" lon="12.7949733"><ele>174.0</ele><time>2026-04-20T10:34:52.315Z</time></trkpt><trkpt lat="41.87705" lon="12.7951483"><ele>176.5</ele><time>2026-04-20T10:34:53.317Z</time></trkpt><trkpt lat="41.87685" lon="12.7953233"><ele>179.0</ele><time>2026-04-20T10:34:54.318Z</time></trkpt><trkpt lat="41.8766483" lon="12.7955"><ele>179.0</ele><time>2026-04-20T10:34:55.319Z</time></trkpt><trkpt lat="41.8764417" lon="12.7956717"><ele>179.0</ele><time>2026-04-20T10:34:56.318Z</time></trkpt><trkpt lat="41.87623" lon="12.7958417"><ele>181.0</ele><time>2026-04-20T10:34:57.318Z</time></trkpt><trkpt lat="41.8760183" lon="12.7960117"><ele>183.0</ele><time>2026-04-20T10:34:58.319Z</time></trkpt><trkpt lat="41.8758083" lon="12.7961883"><ele>183.0</ele><time>2026-04-20T10:34:59.318Z</time></trkpt><trkpt lat="41.8755967" lon="12.7963667"><ele>183.0</ele><time>2026-04-20T10:35:00.32Z</time></trkpt><trkpt lat="41.8753867" lon="12.7965433"><ele>183.0</ele><time>2026-04-20T10:35:01.32Z</time></trkpt><trkpt lat="41.8751733" lon="12.79672"><ele>183.0</ele><time>2026-04-20T10:35:02.317Z</time></trkpt><trkpt lat="41.8749633" lon="12.7969017"><ele>185.0</ele><time>2026-04-20T10:35:03.32Z</time></trkpt><trkpt lat="41.8747567" lon="12.7970983"><ele>187.0</ele><time>2026-04-20T10:35:04.315Z</time></trkpt><trkpt lat="41.8745533" lon="12.7973"><ele>187.0</ele><time>2026-04-20T10:35:05.316Z</time></trkpt><trkpt lat="41.8743567" lon="12.7975183"><ele>187.0</ele><time>2026-04-20T10:35:06.317Z</time></trkpt><trkpt lat="41.8741617" lon="12.7977367"><ele>186.5</ele><time>2026-04-20T10:35:07.316Z</time></trkpt><trkpt lat="41.873975" lon="12.7979617"><ele>186.0</ele><time>2026-04-20T10:35:08.317Z</time></trkpt><trkpt lat="41.87379" lon="12.7981817"><ele>186.0</ele><time>2026-04-20T10:35:09.317Z</time></trkpt><trkpt lat="41.87361" lon="12.7984"><ele>186.0</ele><time>2026-04-20T10:35:10.315Z</time></trkpt><trkpt lat="41.873435" lon="12.79862"><ele>184.5</ele><time>2026-04-20T10:35:11.317Z</time></trkpt><trkpt lat="41.8732617" lon="12.7988417"><ele>183.0</ele><time>2026-04-20T10:35:12.316Z</time></trkpt><trkpt lat="41.8730867" lon="12.7990667"><ele>183.0</ele><time>2026-04-20T10:35:13.32Z</time></trkpt><trkpt lat="41.8729167" lon="12.7992933"><ele>183.0</ele><time>2026-04-20T10:35:14.319Z</time></trkpt><trkpt lat="41.8727567" lon="12.7995133"><ele>180.66666666666666</ele><time>2026-04-20T10:35:15.32Z</time></trkpt><trkpt lat="41.8726033" lon="12.7997233"><ele>178.33333333333331</ele><time>2026-04-20T10:35:16.32Z</time></trkpt><trkpt lat="41.8724617" lon="12.7999417"><ele>176.0</ele><time>2026-04-20T10:35:17.32Z</time></trkpt><trkpt lat="41.8723233" lon="12.8001733"><ele>182.0</ele><time>2026-04-20T10:35:18.316Z</time></trkpt><trkpt lat="41.872195" lon="12.800415"><ele>188.0</ele><time>2026-04-20T10:35:19.317Z</time></trkpt><trkpt lat="41.8720633" lon="12.8006617"><ele>194.0</ele><time>2026-04-20T10:35:20.318Z</time></trkpt><trkpt lat="41.8719383" lon="12.80091"><ele>190.66666666666669</ele><time>2026-04-20T10:35:21.318Z</time></trkpt><trkpt lat="41.8718183" lon="12.8011617"><ele>187.33333333333334</ele><time>2026-04-20T10:35:22.316Z</time></trkpt><trkpt lat="41.8716983" lon="12.8014117"><ele>184.0</ele><time>2026-04-20T10:35:23.317Z</time></trkpt><trkpt lat="41.8715733" lon="12.80166"><ele>188.66666666666669</ele><time>2026-04-20T10:35:24.317Z</time></trkpt><trkpt lat="41.8714433" lon="12.801905"><ele>193.33333333333334</ele><time>2026-04-20T10:35:25.319Z</time></trkpt><trkpt lat="41.8713017" lon="12.80214"><ele>198.0</ele><time>2026-04-20T10:35:26.32Z</time></trkpt><trkpt lat="41.8711633" lon="12.80235"><ele>198.0</ele><time>2026-04-20T10:35:27.319Z</time></trkpt><trkpt lat="41.871015" lon="12.8025483"><ele>198.0</ele><time>2026-04-20T10:35:28.319Z</time></trkpt><trkpt lat="41.87086" lon="12.80274"><ele>198.0</ele><time>2026-04-20T10:35:29.319Z</time></trkpt><trkpt lat="41.8707117" lon="12.8029233"><ele>199.33333333333331</ele><time>2026-04-20T10:35:30.319Z</time></trkpt><trkpt lat="41.8705683" lon="12.8031117"><ele>200.66666666666666</ele><time>2026-04-20T10:35:31.316Z</time></trkpt><trkpt lat="41.870435" lon="12.80332"><ele>202.0</ele><time>2026-04-20T10:35:32.32Z</time></trkpt><trkpt lat="41.870315" lon="12.8035517"><ele>205.66666666666666</ele><time>2026-04-20T10:35:33.32Z</time></trkpt><trkpt lat="41.870205" lon="12.8038017"><ele>209.33333333333331</ele><time>2026-04-20T10:35:34.32Z</time></trkpt><trkpt lat="41.8701017" lon="12.8040533"><ele>213.0</ele><time>2026-04-20T10:35:35.319Z</time></trkpt><trkpt lat="41.8699883" lon="12.8043017"><ele>209.0</ele><time>2026-04-20T10:35:36.316Z</time></trkpt><trkpt lat="41.869865" lon="12.804545"><ele>205.0</ele><time>2026-04-20T10:35:37.316Z</time></trkpt><trkpt lat="41.86973" lon="12.804775"><ele>201.0</ele><time>2026-04-20T10:35:38.32Z</time></trkpt><trkpt lat="41.86959" lon="12.804995"><ele>199.0</ele><time>2026-04-20T10:35:39.319Z</time></trkpt><trkpt lat="41.8694433" lon="12.80521"><ele>197.0</ele><time>2026-04-20T10:35:40.32Z</time></trkpt><trkpt lat="41.8692933" lon="12.8054333"><ele>195.0</ele><time>2026-04-20T10:35:41.32Z</time></trkpt><trkpt lat="41.8691433" lon="12.8056583"><ele>195.0</ele><time>2026-04-20T10:35:42.322Z</time></trkpt><trkpt lat="41.86899" lon="12.805885"><ele>195.0</ele><time>2026-04-20T10:35:43.319Z</time></trkpt><trkpt lat="41.8688433" lon="12.8061083"><ele>200.66666666666669</ele><time>2026-04-20T10:35:44.32Z</time></trkpt><trkpt lat="41.8687017" lon="12.8063133"><ele>206.33333333333334</ele><time>2026-04-20T10:35:45.319Z</time></trkpt><trkpt lat="41.86857" lon="12.8065017"><ele>212.0</ele><time>2026-04-20T10:35:46.319Z</time></trkpt><trkpt lat="41.8684433" lon="12.80667"><ele>211.2</ele><time>2026-04-20T10:35:47.32Z</time></trkpt><trkpt lat="41.86834" lon="12.8068183"><ele>210.39999999999998</ele><time>2026-04-20T10:35:48.317Z</time></trkpt><trkpt lat="41.8682583" lon="12.8069383"><ele>209.60000000000002</ele><time>2026-04-20T10:35:49.317Z</time></trkpt><trkpt lat="41.86819" lon="12.8070317"><ele>208.8</ele><time>2026-04-20T10:35:50.318Z</time></trkpt><trkpt lat="41.8681383" lon="12.8070933"><ele>208.0</ele><time>2026-04-20T10:35:51.317Z</time></trkpt><trkpt lat="41.8680767" lon="12.80716"><ele>208.0</ele><time>2026-04-20T10:35:53.316Z</time></trkpt><trkpt lat="41.8680133" lon="12.8072033"><ele>208.0</ele><time>2026-04-20T10:35:55.319Z</time></trkpt><trkpt lat="41.8679183" lon="12.8073317"><ele>208.0</ele><time>2026-04-20T10:35:57.32Z</time></trkpt><trkpt lat="41.8678683" lon="12.8074267"><ele>208.0</ele><time>2026-04-20T10:35:58.32Z</time></trkpt><trkpt lat="41.867805" lon="12.80753"><ele>208.0</ele><time>2026-04-20T10:35:59.319Z</time></trkpt><trkpt lat="41.8677333" lon="12.8076417"><ele>209.75</ele><time>2026-04-20T10:36:00.32Z</time></trkpt><trkpt lat="41.8676433" lon="12.807755"><ele>211.5</ele><time>2026-04-20T10:36:01.319Z</time></trkpt><trkpt lat="41.8675417" lon="12.8078633"><ele>213.25</ele><time>2026-04-20T10:36:02.319Z</time></trkpt><trkpt lat="41.8674267" lon="12.8079783"><ele>215.0</ele><time>2026-04-20T10:36:03.317Z</time></trkpt><trkpt lat="41.8672983" lon="12.808105"><ele>214.66666666666669</ele><time>2026-04-20T10:36:04.32Z</time></trkpt><trkpt lat="41.8671617" lon="12.8082367"><ele>214.33333333333331</ele><time>2026-04-20T10:36:05.319Z</time></trkpt><trkpt lat="41.8670267" lon="12.808375"><ele>214.0</ele><time>2026-04-20T10:36:06.32Z</time></trkpt><trkpt lat="41.8668733" lon="12.8085183"><ele>210.66666666666666</ele><time>2026-04-20T10:36:07.32Z</time></trkpt><trkpt lat="41.8666917" lon="12.8086517"><ele>207.33333333333331</ele><time>2026-04-20T10:36:08.32Z</time></trkpt><trkpt lat="41.866505" lon="12.8087683"><ele>204.0</ele><time>2026-04-20T10:36:09.318Z</time></trkpt><trkpt lat="41.866315" lon="12.8088833"><ele>204.0</ele><time>2026-04-20T10:36:10.319Z</time></trkpt><trkpt lat="41.8661267" lon="12.8090017"><ele>204.0</ele><time>2026-04-20T10:36:11.32Z</time></trkpt><trkpt lat="41.8659333" lon="12.8091283"><ele>204.0</ele><time>2026-04-20T10:36:12.32Z</time></trkpt><trkpt lat="41.865745" lon="12.8092583"><ele>206.66666666666669</ele><time>2026-04-20T10:36:13.319Z</time></trkpt><trkpt lat="41.8655683" lon="12.8093833"><ele>209.33333333333334</ele><time>2026-04-20T10:36:14.319Z</time></trkpt><trkpt lat="41.86541" lon="12.8095017"><ele>212.0</ele><time>2026-04-20T10:36:15.321Z</time></trkpt><trkpt lat="41.8652817" lon="12.809615"><ele>212.0</ele><time>2026-04-20T10:36:16.319Z</time></trkpt><trkpt lat="41.86517" lon="12.8097283"><ele>212.0</ele><time>2026-04-20T10:36:17.32Z</time></trkpt><trkpt lat="41.8650567" lon="12.8098533"><ele>212.0</ele><time>2026-04-20T10:36:18.317Z</time></trkpt><trkpt lat="41.86494" lon="12.8099967"><ele>212.0</ele><time>2026-04-20T10:36:19.317Z</time></trkpt><trkpt lat="41.8648167" lon="12.8101517"><ele>213.66666666666669</ele><time>2026-04-20T10:36:20.317Z</time></trkpt><trkpt lat="41.86469" lon="12.81032"><ele>215.33333333333331</ele><time>2026-04-20T10:36:21.317Z</time></trkpt><trkpt lat="41.86456" lon="12.810495"><ele>217.0</ele><time>2026-04-20T10:36:22.316Z</time></trkpt><trkpt lat="41.8644217" lon="12.81068"><ele>216.33333333333331</ele><time>2026-04-20T10:36:23.317Z</time></trkpt><trkpt lat="41.8642767" lon="12.8108717"><ele>215.66666666666669</ele><time>2026-04-20T10:36:24.316Z</time></trkpt><trkpt lat="41.864125" lon="12.81107"><ele>215.0</ele><time>2026-04-20T10:36:25.318Z</time></trkpt><trkpt lat="41.8639717" lon="12.8112767"><ele>215.0</ele><time>2026-04-20T10:36:26.318Z</time></trkpt><trkpt lat="41.86381" lon="12.8114933"><ele>215.0</ele><time>2026-04-20T10:36:27.32Z</time></trkpt><trkpt lat="41.8636433" lon="12.8117183"><ele>212.5</ele><time>2026-04-20T10:36:28.319Z</time></trkpt><trkpt lat="41.8634683" lon="12.811945"><ele>210.0</ele><time>2026-04-20T10:36:29.32Z</time></trkpt><trkpt lat="41.8632883" lon="12.8121783"><ele>210.0</ele><time>2026-04-20T10:36:30.319Z</time></trkpt><trkpt lat="41.8631033" lon="12.8124117"><ele>210.0</ele><time>2026-04-20T10:36:31.318Z</time></trkpt><trkpt lat="41.8629183" lon="12.81264"><ele>209.5</ele><time>2026-04-20T10:36:32.317Z</time></trkpt><trkpt lat="41.8627383" lon="12.8128633"><ele>209.0</ele><time>2026-04-20T10:36:33.32Z</time></trkpt><trkpt lat="41.86256" lon="12.81309"><ele>209.0</ele><time>2026-04-20T10:36:34.319Z</time></trkpt><trkpt lat="41.8623883" lon="12.8133067"><ele>209.0</ele><time>2026-04-20T10:36:35.32Z</time></trkpt><trkpt lat="41.862235" lon="12.8135033"><ele>209.0</ele><time>2026-04-20T10:36:36.32Z</time></trkpt><trkpt lat="41.86208" lon="12.81369"><ele>209.33333333333334</ele><time>2026-04-20T10:36:37.319Z</time></trkpt><trkpt lat="41.8619183" lon="12.813855"><ele>209.66666666666669</ele><time>2026-04-20T10:36:38.319Z</time></trkpt><trkpt lat="41.86174" lon="12.81399"><ele>210.0</ele><time>2026-04-20T10:36:39.319Z</time></trkpt><trkpt lat="41.8615383" lon="12.814095"><ele>210.0</ele><time>2026-04-20T10:36:40.316Z</time></trkpt><trkpt lat="41.86133" lon="12.8141933"><ele>210.0</ele><time>2026-04-20T10:36:41.319Z</time></trkpt><trkpt lat="41.8611133" lon="12.8142917"><ele>215.0</ele><time>2026-04-20T10:36:42.319Z</time></trkpt><trkpt lat="41.8608917" lon="12.8143933"><ele>220.0</ele><time>2026-04-20T10:36:43.319Z</time></trkpt><trkpt lat="41.860675" lon="12.8144883"><ele>220.0</ele><time>2026-04-20T10:36:44.322Z</time></trkpt><trkpt lat="41.8604667" lon="12.8145817"><ele>220.0</ele><time>2026-04-20T10:36:45.321Z</time></trkpt><trkpt lat="41.8602583" lon="12.81468"><ele>220.0</ele><time>2026-04-20T10:36:46.319Z</time></trkpt><trkpt lat="41.8600567" lon="12.8147883"><ele>219.0</ele><time>2026-04-20T10:36:47.32Z</time></trkpt><trkpt lat="41.85986" lon="12.8149183"><ele>218.0</ele><time>2026-04-20T10:36:48.317Z</time></trkpt><trkpt lat="41.8596717" lon="12.8150733"><ele>217.0</ele><time>2026-04-20T10:36:49.317Z</time></trkpt><trkpt lat="41.859485" lon="12.81524"><ele>215.0</ele><time>2026-04-20T10:36:50.318Z</time></trkpt><trkpt lat="41.8592967" lon="12.8154117"><ele>213.0</ele><time>2026-04-20T10:36:51.317Z</time></trkpt><trkpt lat="41.8591067" lon="12.8155867"><ele>213.0</ele><time>2026-04-20T10:36:52.317Z</time></trkpt><trkpt lat="41.8589217" lon="12.8157667"><ele>213.0</ele><time>2026-04-20T10:36:53.316Z</time></trkpt><trkpt lat="41.8587367" lon="12.815945"><ele>213.5</ele><time>2026-04-20T10:36:54.318Z</time></trkpt><trkpt lat="41.8585517" lon="12.81612"><ele>214.0</ele><time>2026-04-20T10:36:55.319Z</time></trkpt><trkpt lat="41.85837" lon="12.8162983"><ele>214.0</ele><time>2026-04-20T10:36:56.319Z</time></trkpt><trkpt lat="41.8581833" lon="12.8164717"><ele>214.0</ele><time>2026-04-20T10:36:57.319Z</time></trkpt><trkpt lat="41.857995" lon="12.816645"><ele>225.5</ele><time>2026-04-20T10:36:58.32Z</time></trkpt><trkpt lat="41.8578083" lon="12.81682"><ele>237.0</ele><time>2026-04-20T10:36:59.317Z</time></trkpt><trkpt lat="41.8576217" lon="12.8169967"><ele>229.33333333333331</ele><time>2026-04-20T10:37:00.319Z</time></trkpt><trkpt lat="41.857435" lon="12.81717"><ele>221.66666666666666</ele><time>2026-04-20T10:37:01.315Z</time></trkpt><trkpt lat="41.8572533" lon="12.8173383"><ele>214.0</ele><time>2026-04-20T10:37:02.318Z</time></trkpt><trkpt lat="41.8570717" lon="12.8175067"><ele>216.66666666666666</ele><time>2026-04-20T10:37:03.319Z</time></trkpt><trkpt lat="41.8568867" lon="12.8176633"><ele>219.33333333333331</ele><time>2026-04-20T10:37:04.318Z</time></trkpt><trkpt lat="41.856695" lon="12.8178083"><ele>222.0</ele><time>2026-04-20T10:37:05.319Z</time></trkpt><trkpt lat="41.8565017" lon="12.81794"><ele>222.0</ele><time>2026-04-20T10:37:06.318Z</time></trkpt><trkpt lat="41.8563117" lon="12.8180633"><ele>222.0</ele><time>2026-04-20T10:37:07.317Z</time></trkpt><trkpt lat="41.8561317" lon="12.8181783"><ele>222.0</ele><time>2026-04-20T10:37:08.318Z</time></trkpt><trkpt lat="41.8559567" lon="12.818285"><ele>223.66666666666669</ele><time>2026-04-20T10:37:09.318Z</time></trkpt><trkpt lat="41.8557933" lon="12.8183917"><ele>225.33333333333334</ele><time>2026-04-20T10:37:10.318Z</time></trkpt><trkpt lat="41.85565" lon="12.8185017"><ele>227.0</ele><time>2026-04-20T10:37:11.319Z</time></trkpt><trkpt lat="41.855515" lon="12.8186133"><ele>227.0</ele><time>2026-04-20T10:37:12.319Z</time></trkpt><trkpt lat="41.8553867" lon="12.8187333"><ele>227.0</ele><time>2026-04-20T10:37:13.317Z</time></trkpt><trkpt lat="41.8552633" lon="12.8188517"><ele>227.0</ele><time>2026-04-20T10:37:14.318Z</time></trkpt><trkpt lat="41.8551367" lon="12.818985"><ele>227.33333333333334</ele><time>2026-04-20T10:37:15.319Z</time></trkpt><trkpt lat="41.855005" lon="12.819125"><ele>227.66666666666669</ele><time>2026-04-20T10:37:16.317Z</time></trkpt><trkpt lat="41.8548767" lon="12.81927"><ele>228.0</ele><time>2026-04-20T10:37:17.32Z</time></trkpt><trkpt lat="41.8547583" lon="12.819425"><ele>228.0</ele><time>2026-04-20T10:37:18.316Z</time></trkpt><trkpt lat="41.854645" lon="12.8195833"><ele>228.0</ele><time>2026-04-20T10:37:19.317Z</time></trkpt><trkpt lat="41.8545267" lon="12.8197433"><ele>228.0</ele><time>2026-04-20T10:37:20.318Z</time></trkpt><trkpt lat="41.8544117" lon="12.8199033"><ele>228.0</ele><time>2026-04-20T10:37:21.318Z</time></trkpt><trkpt lat="41.85429" lon="12.8200717"><ele>228.0</ele><time>2026-04-20T10:37:22.32Z</time></trkpt><trkpt lat="41.8541683" lon="12.82024"><ele>228.0</ele><time>2026-04-20T10:37:23.318Z</time></trkpt><trkpt lat="41.8540433" lon="12.8204083"><ele>226.0</ele><time>2026-04-20T10:37:24.319Z</time></trkpt><trkpt lat="41.853915" lon="12.82058"><ele>224.0</ele><time>2026-04-20T10:37:25.317Z</time></trkpt><trkpt lat="41.85378" lon="12.8207617"><ele>222.0</ele><time>2026-04-20T10:37:26.32Z</time></trkpt><trkpt lat="41.8536417" lon="12.8209417"><ele>220.0</ele><time>2026-04-20T10:37:27.318Z</time></trkpt><trkpt lat="41.8535" lon="12.8211267"><ele>218.0</ele><time>2026-04-20T10:37:28.32Z</time></trkpt><trkpt lat="41.8533567" lon="12.82132"><ele>216.0</ele><time>2026-04-20T10:37:29.315Z</time></trkpt><trkpt lat="41.8532117" lon="12.8215167"><ele>216.0</ele><time>2026-04-20T10:37:30.317Z</time></trkpt><trkpt lat="41.8530767" lon="12.8217067"><ele>216.0</ele><time>2026-04-20T10:37:31.319Z</time></trkpt><trkpt lat="41.8529433" lon="12.821885"><ele>216.0</ele><time>2026-04-20T10:37:32.318Z</time></trkpt><trkpt lat="41.8528217" lon="12.822045"><ele>216.33333333333331</ele><time>2026-04-20T10:37:33.319Z</time></trkpt><trkpt lat="41.8527" lon="12.8221917"><ele>216.66666666666666</ele><time>2026-04-20T10:37:34.318Z</time></trkpt><trkpt lat="41.8525733" lon="12.8223233"><ele>217.0</ele><time>2026-04-20T10:37:35.319Z</time></trkpt><trkpt lat="41.8524283" lon="12.8224417"><ele>217.0</ele><time>2026-04-20T10:37:36.319Z</time></trkpt><trkpt lat="41.8522717" lon="12.8225483"><ele>217.0</ele><time>2026-04-20T10:37:37.32Z</time></trkpt><trkpt lat="41.852105" lon="12.8226533"><ele>217.0</ele><time>2026-04-20T10:37:38.318Z</time></trkpt><trkpt lat="41.8519333" lon="12.82276"><ele>220.66666666666666</ele><time>2026-04-20T10:37:39.321Z</time></trkpt><trkpt lat="41.85176" lon="12.8228783"><ele>224.33333333333331</ele><time>2026-04-20T10:37:40.319Z</time></trkpt><trkpt lat="41.851585" lon="12.8230117"><ele>228.0</ele><time>2026-04-20T10:37:41.319Z</time></trkpt><trkpt lat="41.85141" lon="12.8231417"><ele>228.0</ele><time>2026-04-20T10:37:42.32Z</time></trkpt><trkpt lat="41.8512383" lon="12.8232667"><ele>228.0</ele><time>2026-04-20T10:37:43.319Z</time></trkpt><trkpt lat="41.8510683" lon="12.8233917"><ele>228.0</ele><time>2026-04-20T10:37:44.316Z</time></trkpt><trkpt lat="41.8508933" lon="12.8235183"><ele>231.33333333333331</ele><time>2026-04-20T10:37:45.319Z</time></trkpt><trkpt lat="41.850715" lon="12.8236467"><ele>234.66666666666666</ele><time>2026-04-20T10:37:46.315Z</time></trkpt><trkpt lat="41.8505333" lon="12.8237733"><ele>238.0</ele><time>2026-04-20T10:37:47.316Z</time></trkpt><trkpt lat="41.850345" lon="12.8239"><ele>238.0</ele><time>2026-04-20T10:37:48.318Z</time></trkpt><trkpt lat="41.850155" lon="12.824025"><ele>238.0</ele><time>2026-04-20T10:37:49.317Z</time></trkpt><trkpt lat="41.8499667" lon="12.8241567"><ele>238.0</ele><time>2026-04-20T10:37:50.317Z</time></trkpt><trkpt lat="41.849775" lon="12.8242933"><ele>240.66666666666666</ele><time>2026-04-20T10:37:51.318Z</time></trkpt><trkpt lat="41.8495817" lon="12.824425"><ele>243.33333333333331</ele><time>2026-04-20T10:37:52.319Z</time></trkpt><trkpt lat="41.8493883" lon="12.8245583"><ele>246.0</ele><time>2026-04-20T10:37:53.318Z</time></trkpt><trkpt lat="41.8491983" lon="12.824685"><ele>239.66666666666669</ele><time>2026-04-20T10:37:54.32Z</time></trkpt><trkpt lat="41.8490133" lon="12.8248117"><ele>233.33333333333334</ele><time>2026-04-20T10:37:55.316Z</time></trkpt><trkpt lat="41.848835" lon="12.824935"><ele>227.0</ele><time>2026-04-20T10:37:56.319Z</time></trkpt><trkpt lat="41.8486583" lon="12.825055"><ele>228.33333333333334</ele><time>2026-04-20T10:37:57.319Z</time></trkpt><trkpt lat="41.8484833" lon="12.8251733"><ele>229.66666666666669</ele><time>2026-04-20T10:37:58.317Z</time></trkpt><trkpt lat="41.8483167" lon="12.8252983"><ele>231.0</ele><time>2026-04-20T10:37:59.32Z</time></trkpt><trkpt lat="41.84816" lon="12.8254283"><ele>231.0</ele><time>2026-04-20T10:38:00.319Z</time></trkpt><trkpt lat="41.8480167" lon="12.8255517"><ele>231.0</ele><time>2026-04-20T10:38:01.32Z</time></trkpt><trkpt lat="41.8478833" lon="12.8256767"><ele>231.0</ele><time>2026-04-20T10:38:02.32Z</time></trkpt><trkpt lat="41.8477533" lon="12.8258017"><ele>230.0</ele><time>2026-04-20T10:38:03.319Z</time></trkpt><trkpt lat="41.847615" lon="12.825925"><ele>229.0</ele><time>2026-04-20T10:38:04.318Z</time></trkpt><trkpt lat="41.8474767" lon="12.8260383"><ele>228.0</ele><time>2026-04-20T10:38:05.316Z</time></trkpt><trkpt lat="41.8473367" lon="12.826145"><ele>228.0</ele><time>2026-04-20T10:38:06.319Z</time></trkpt><trkpt lat="41.8471967" lon="12.826245"><ele>228.0</ele><time>2026-04-20T10:38:07.319Z</time></trkpt><trkpt lat="41.84705" lon="12.826335"><ele>228.0</ele><time>2026-04-20T10:38:08.317Z</time></trkpt><trkpt lat="41.8469033" lon="12.8264183"><ele>227.75</ele><time>2026-04-20T10:38:09.32Z</time></trkpt><trkpt lat="41.8467583" lon="12.826495"><ele>227.5</ele><time>2026-04-20T10:38:10.319Z</time></trkpt><trkpt lat="41.8466233" lon="12.8265583"><ele>227.25</ele><time>2026-04-20T10:38:11.32Z</time></trkpt><trkpt lat="41.8464983" lon="12.826615"><ele>227.0</ele><time>2026-04-20T10:38:12.319Z</time></trkpt><trkpt lat="41.8463833" lon="12.8266617"><ele>227.0</ele><time>2026-04-20T10:38:13.319Z</time></trkpt><trkpt lat="41.846275" lon="12.8266983"><ele>227.0</ele><time>2026-04-20T10:38:14.319Z</time></trkpt><trkpt lat="41.846165" lon="12.82672"><ele>227.0</ele><time>2026-04-20T10:38:15.32Z</time></trkpt><trkpt lat="41.8460633" lon="12.826725"><ele>227.0</ele><time>2026-04-20T10:38:16.32Z</time></trkpt><trkpt lat="41.8459633" lon="12.82672"><ele>227.0</ele><time>2026-04-20T10:38:17.32Z</time></trkpt><trkpt lat="41.8458717" lon="12.826705"><ele>226.8</ele><time>2026-04-20T10:38:18.318Z</time></trkpt><trkpt lat="41.8457867" lon="12.826665"><ele>226.6</ele><time>2026-04-20T10:38:19.32Z</time></trkpt><trkpt lat="41.8457117" lon="12.8265983"><ele>226.40000000000003</ele><time>2026-04-20T10:38:20.319Z</time></trkpt><trkpt lat="41.845645" lon="12.8265"><ele>226.20000000000002</ele><time>2026-04-20T10:38:21.32Z</time></trkpt><trkpt lat="41.8455733" lon="12.8264017"><ele>226.0</ele><time>2026-04-20T10:38:22.318Z</time></trkpt><trkpt lat="41.845495" lon="12.8263333"><ele>226.0</ele><time>2026-04-20T10:38:23.319Z</time></trkpt><trkpt lat="41.8454083" lon="12.826305"><ele>226.00000000000003</ele><time>2026-04-20T10:38:24.319Z</time></trkpt><trkpt lat="41.8453183" lon="12.826315"><ele>226.00000000000003</ele><time>2026-04-20T10:38:25.32Z</time></trkpt><trkpt lat="41.845225" lon="12.82636"><ele>226.0</ele><time>2026-04-20T10:38:26.319Z</time></trkpt><trkpt lat="41.845135" lon="12.82646"><ele>226.0</ele><time>2026-04-20T10:38:27.321Z</time></trkpt><trkpt lat="41.845065" lon="12.8265967"><ele>228.0</ele><time>2026-04-20T10:38:28.319Z</time></trkpt><trkpt lat="41.845" lon="12.8267617"><ele>230.0</ele><time>2026-04-20T10:38:29.317Z</time></trkpt><trkpt lat="41.84492" lon="12.8269033"><ele>232.0</ele><time>2026-04-20T10:38:30.319Z</time></trkpt><trkpt lat="41.8448183" lon="12.82703"><ele>234.0</ele><time>2026-04-20T10:38:31.32Z</time></trkpt><trkpt lat="41.8446933" lon="12.8271417"><ele>234.0</ele><time>2026-04-20T10:38:32.328Z</time></trkpt><trkpt lat="41.8445417" lon="12.8272317"><ele>234.0</ele><time>2026-04-20T10:38:33.319Z</time></trkpt><trkpt lat="41.8443833" lon="12.8273317"><ele>234.0</ele><time>2026-04-20T10:38:34.315Z</time></trkpt><trkpt lat="41.8442283" lon="12.8274433"><ele>235.0</ele><time>2026-04-20T10:38:35.316Z</time></trkpt><trkpt lat="41.8440717" lon="12.8275633"><ele>236.0</ele><time>2026-04-20T10:38:36.317Z</time></trkpt><trkpt lat="41.8439133" lon="12.827685"><ele>237.0</ele><time>2026-04-20T10:38:37.317Z</time></trkpt><trkpt lat="41.843755" lon="12.8278117"><ele>237.0</ele><time>2026-04-20T10:38:38.317Z</time></trkpt><trkpt lat="41.8435933" lon="12.827945"><ele>237.0</ele><time>2026-04-20T10:38:39.316Z</time></trkpt><trkpt lat="41.8434183" lon="12.8280783"><ele>237.0</ele><time>2026-04-20T10:38:40.316Z</time></trkpt><trkpt lat="41.8432383" lon="12.828215"><ele>239.66666666666669</ele><time>2026-04-20T10:38:41.319Z</time></trkpt><trkpt lat="41.8430533" lon="12.8283533"><ele>242.33333333333334</ele><time>2026-04-20T10:38:42.319Z</time></trkpt><trkpt lat="41.84287" lon="12.8284783"><ele>245.0</ele><time>2026-04-20T10:38:43.319Z</time></trkpt><trkpt lat="41.8426833" lon="12.8285983"><ele>246.66666666666669</ele><time>2026-04-20T10:38:44.319Z</time></trkpt><trkpt lat="41.8424983" lon="12.8287117"><ele>248.33333333333331</ele><time>2026-04-20T10:38:45.32Z</time></trkpt><trkpt lat="41.8423167" lon="12.8288233"><ele>250.0</ele><time>2026-04-20T10:38:46.319Z</time></trkpt><trkpt lat="41.8421383" lon="12.82893"><ele>250.0</ele><time>2026-04-20T10:38:47.319Z</time></trkpt><trkpt lat="41.8419683" lon="12.829045"><ele>250.0</ele><time>2026-04-20T10:38:48.32Z</time></trkpt><trkpt lat="41.841815" lon="12.8291517"><ele>250.0</ele><time>2026-04-20T10:38:49.32Z</time></trkpt><trkpt lat="41.8416733" lon="12.8292633"><ele>253.25</ele><time>2026-04-20T10:38:50.319Z</time></trkpt><trkpt lat="41.8415517" lon="12.82938"><ele>256.5</ele><time>2026-04-20T10:38:51.319Z</time></trkpt><trkpt lat="41.841445" lon="12.82951"><ele>259.75</ele><time>2026-04-20T10:38:52.32Z</time></trkpt><trkpt lat="41.841345" lon="12.8296467"><ele>263.0</ele><time>2026-04-20T10:38:53.318Z</time></trkpt><trkpt lat="41.8412417" lon="12.8297933"><ele>263.0</ele><time>2026-04-20T10:38:54.319Z</time></trkpt><trkpt lat="41.8411383" lon="12.8299417"><ele>263.0</ele><time>2026-04-20T10:38:55.316Z</time></trkpt><trkpt lat="41.8410267" lon="12.8300883"><ele>263.0</ele><time>2026-04-20T10:38:56.32Z</time></trkpt><trkpt lat="41.8409083" lon="12.8302367"><ele>265.0</ele><time>2026-04-20T10:38:57.319Z</time></trkpt><trkpt lat="41.840785" lon="12.8303767"><ele>267.0</ele><time>2026-04-20T10:38:58.32Z</time></trkpt><trkpt lat="41.840655" lon="12.8305167"><ele>269.0</ele><time>2026-04-20T10:38:59.316Z</time></trkpt><trkpt lat="41.84052" lon="12.8306483"><ele>269.0</ele><time>2026-04-20T10:39:00.319Z</time></trkpt><trkpt lat="41.8403867" lon="12.830775"><ele>269.0</ele><time>2026-04-20T10:39:01.316Z</time></trkpt><trkpt lat="41.8402567" lon="12.8308917"><ele>269.0</ele><time>2026-04-20T10:39:02.319Z</time></trkpt><trkpt lat="41.84013" lon="12.8310033"><ele>270.5</ele><time>2026-04-20T10:39:03.319Z</time></trkpt><trkpt lat="41.8400067" lon="12.8311083"><ele>272.0</ele><time>2026-04-20T10:39:04.319Z</time></trkpt><trkpt lat="41.8398833" lon="12.8312133"><ele>273.5</ele><time>2026-04-20T10:39:05.321Z</time></trkpt><trkpt lat="41.8397583" lon="12.8313133"><ele>275.0</ele><time>2026-04-20T10:39:06.319Z</time></trkpt><trkpt lat="41.83963" lon="12.83141"><ele>275.0</ele><time>2026-04-20T10:39:07.319Z</time></trkpt><trkpt lat="41.8395033" lon="12.8315033"><ele>275.0</ele><time>2026-04-20T10:39:08.319Z</time></trkpt><trkpt lat="41.839375" lon="12.831595"><ele>275.0</ele><time>2026-04-20T10:39:09.319Z</time></trkpt><trkpt lat="41.8392517" lon="12.831685"><ele>275.0</ele><time>2026-04-20T10:39:10.319Z</time></trkpt><trkpt lat="41.83915" lon="12.8317617"><ele>276.0</ele><time>2026-04-20T10:39:11.319Z</time></trkpt><trkpt lat="41.83907" lon="12.8318267"><ele>277.0</ele><time>2026-04-20T10:39:12.32Z</time></trkpt><trkpt lat="41.8390017" lon="12.8318833"><ele>278.0</ele><time>2026-04-20T10:39:13.319Z</time></trkpt><trkpt lat="41.8389417" lon="12.8319333"><ele>279.0</ele><time>2026-04-20T10:39:14.318Z</time></trkpt><trkpt lat="41.838845" lon="12.8320017"><ele>280.0</ele><time>2026-04-20T10:39:16.319Z</time></trkpt><trkpt lat="41.8387733" lon="12.8320517"><ele>281.0</ele><time>2026-04-20T10:39:18.319Z</time></trkpt><trkpt lat="41.8386867" lon="12.832115"><ele>281.0</ele><time>2026-04-20T10:39:20.318Z</time></trkpt><trkpt lat="41.8386283" lon="12.8321583"><ele>281.0</ele><time>2026-04-20T10:39:21.318Z</time></trkpt><trkpt lat="41.838555" lon="12.83222"><ele>281.0</ele><time>2026-04-20T10:39:22.317Z</time></trkpt><trkpt lat="41.8384633" lon="12.832285"><ele>281.0</ele><time>2026-04-20T10:39:23.317Z</time></trkpt><trkpt lat="41.8383583" lon="12.8323567"><ele>281.0</ele><time>2026-04-20T10:39:24.316Z</time></trkpt><trkpt lat="41.8382333" lon="12.8324417"><ele>280.75</ele><time>2026-04-20T10:39:25.316Z</time></trkpt><trkpt lat="41.8381" lon="12.8325367"><ele>280.5</ele><time>2026-04-20T10:39:26.317Z</time></trkpt><trkpt lat="41.8379733" lon="12.832625"><ele>280.25</ele><time>2026-04-20T10:39:27.317Z</time></trkpt><trkpt lat="41.8378533" lon="12.8327083"><ele>280.0</ele><time>2026-04-20T10:39:28.317Z</time></trkpt><trkpt lat="41.837735" lon="12.8327933"><ele>282.25</ele><time>2026-04-20T10:39:29.317Z</time></trkpt><trkpt lat="41.8376083" lon="12.8328767"><ele>284.5</ele><time>2026-04-20T10:39:30.316Z</time></trkpt><trkpt lat="41.83748" lon="12.83296"><ele>286.75</ele><time>2026-04-20T10:39:31.316Z</time></trkpt><trkpt lat="41.8373483" lon="12.8330417"><ele>289.0</ele><time>2026-04-20T10:39:32.318Z</time></trkpt><trkpt lat="41.8372117" lon="12.8331217"><ele>289.0</ele><time>2026-04-20T10:39:33.318Z</time></trkpt><trkpt lat="41.8370733" lon="12.8332"><ele>289.0</ele><time>2026-04-20T10:39:34.318Z</time></trkpt><trkpt lat="41.83693" lon="12.83328"><ele>289.0</ele><time>2026-04-20T10:39:35.316Z</time></trkpt><trkpt lat="41.836785" lon="12.8333583"><ele>289.66666666666663</ele><time>2026-04-20T10:39:36.317Z</time></trkpt><trkpt lat="41.8366367" lon="12.83344"><ele>290.3333333333333</ele><time>2026-04-20T10:39:37.316Z</time></trkpt><trkpt lat="41.8364867" lon="12.8335183"><ele>291.0</ele><time>2026-04-20T10:39:38.317Z</time></trkpt><trkpt lat="41.83634" lon="12.8336"><ele>294.3333333333333</ele><time>2026-04-20T10:39:39.318Z</time></trkpt><trkpt lat="41.8361917" lon="12.83368"><ele>297.66666666666663</ele><time>2026-04-20T10:39:40.317Z</time></trkpt><trkpt lat="41.8360467" lon="12.8337717"><ele>301.0</ele><time>2026-04-20T10:39:41.317Z</time></trkpt><trkpt lat="41.8359067" lon="12.8338667"><ele>301.0</ele><time>2026-04-20T10:39:42.32Z</time></trkpt><trkpt lat="41.8357667" lon="12.833965"><ele>301.0</ele><time>2026-04-20T10:39:43.317Z</time></trkpt><trkpt lat="41.8356267" lon="12.8340583"><ele>301.0</ele><time>2026-04-20T10:39:44.317Z</time></trkpt><trkpt lat="41.835485" lon="12.834155"><ele>301.0</ele><time>2026-04-20T10:39:45.318Z</time></trkpt><trkpt lat="41.8353433" lon="12.8342567"><ele>301.0</ele><time>2026-04-20T10:39:46.316Z</time></trkpt><trkpt lat="41.8352183" lon="12.8343583"><ele>301.0</ele><time>2026-04-20T10:39:47.317Z</time></trkpt><trkpt lat="41.835105" lon="12.8344517"><ele>301.0</ele><time>2026-04-20T10:39:48.318Z</time></trkpt><trkpt lat="41.835005" lon="12.8345333"><ele>302.6</ele><time>2026-04-20T10:39:49.316Z</time></trkpt><trkpt lat="41.8349133" lon="12.8346067"><ele>304.20000000000005</ele><time>2026-04-20T10:39:50.318Z</time></trkpt><trkpt lat="41.8348217" lon="12.8346667"><ele>305.79999999999995</ele><time>2026-04-20T10:39:51.318Z</time></trkpt><trkpt lat="41.8347333" lon="12.83473"><ele>307.4</ele><time>2026-04-20T10:39:52.318Z</time></trkpt><trkpt lat="41.8346517" lon="12.8347917"><ele>309.0</ele><time>2026-04-20T10:39:53.318Z</time></trkpt><trkpt lat="41.8345767" lon="12.8348533"><ele>309.0</ele><time>2026-04-20T10:39:54.318Z</time></trkpt><trkpt lat="41.8345033" lon="12.8349183"><ele>309.0</ele><time>2026-04-20T10:39:55.318Z</time></trkpt><trkpt lat="41.8344217" lon="12.834985"><ele>309.0</ele><time>2026-04-20T10:39:56.318Z</time></trkpt><trkpt lat="41.834345" lon="12.835045"><ele>309.0</ele><time>2026-04-20T10:39:57.318Z</time></trkpt><trkpt lat="41.83428" lon="12.8350967"><ele>309.0</ele><time>2026-04-20T10:39:58.318Z</time></trkpt><trkpt lat="41.8342233" lon="12.8351383"><ele>309.0</ele><time>2026-04-20T10:39:59.317Z</time></trkpt><trkpt lat="41.8341183" lon="12.83521"><ele>311.2</ele><time>2026-04-20T10:40:01.318Z</time></trkpt><trkpt lat="41.8340183" lon="12.83529"><ele>313.4</ele><time>2026-04-20T10:40:03.318Z</time></trkpt><trkpt lat="41.8339167" lon="12.83536"><ele>315.6</ele><time>2026-04-20T10:40:05.318Z</time></trkpt><trkpt lat="41.8338317" lon="12.8354183"><ele>317.8</ele><time>2026-04-20T10:40:07.317Z</time></trkpt><trkpt lat="41.83377" lon="12.8354583"><ele>320.0</ele><time>2026-04-20T10:40:09.317Z</time></trkpt><trkpt lat="41.83371" lon="12.8355183"><ele>320.0</ele><time>2026-04-20T10:40:13.318Z</time></trkpt><trkpt lat="41.8336317" lon="12.8355967"><ele>320.0</ele><time>2026-04-20T10:40:15.319Z</time></trkpt><trkpt lat="41.833535" lon="12.8356667"><ele>320.0</ele><time>2026-04-20T10:40:17.316Z</time></trkpt><trkpt lat="41.8334483" lon="12.835735"><ele>320.0</ele><time>2026-04-20T10:40:19.316Z</time></trkpt><trkpt lat="41.83335" lon="12.8358033"><ele>320.0</ele><time>2026-04-20T10:40:21.318Z</time></trkpt><trkpt lat="41.8332333" lon="12.8358583"><ele>320.5</ele><time>2026-04-20T10:40:23.315Z</time></trkpt><trkpt lat="41.8331733" lon="12.8358983"><ele>321.0</ele><time>2026-04-20T10:40:24.316Z</time></trkpt><trkpt lat="41.833115" lon="12.835935"><ele>321.5</ele><time>2026-04-20T10:40:25.317Z</time></trkpt><trkpt lat="41.83302" lon="12.835995"><ele>322.0</ele><time>2026-04-20T10:40:27.317Z</time></trkpt><trkpt lat="41.8329483" lon="12.83604"><ele>322.5</ele><time>2026-04-20T10:40:29.316Z</time></trkpt><trkpt lat="41.832855" lon="12.836025"><ele>323.0</ele><time>2026-04-20T10:40:32.317Z</time></trkpt><trkpt lat="41.8327683" lon="12.8360333"><ele>323.0</ele><time>2026-04-20T10:40:34.32Z</time></trkpt><trkpt lat="41.83269" lon="12.836105"><ele>323.0</ele><time>2026-04-20T10:40:36.317Z</time></trkpt><trkpt lat="41.832605" lon="12.836205"><ele>323.0</ele><time>2026-04-20T10:40:38.319Z</time></trkpt><trkpt lat="41.83255" lon="12.83626"><ele>323.0</ele><time>2026-04-20T10:40:39.32Z</time></trkpt><trkpt lat="41.83249" lon="12.8363183"><ele>323.0</ele><time>2026-04-20T10:40:40.317Z</time></trkpt><trkpt lat="41.8324317" lon="12.8363733"><ele>323.0</ele><time>2026-04-20T10:40:41.319Z</time></trkpt><trkpt lat="41.8323683" lon="12.8364367"><ele>323.42857142857144</ele><time>2026-04-20T10:40:42.319Z</time></trkpt><trkpt lat="41.8323067" lon="12.8365033"><ele>323.8571428571429</ele><time>2026-04-20T10:40:43.318Z</time></trkpt><trkpt lat="41.8322467" lon="12.8365683"><ele>324.28571428571433</ele><time>2026-04-20T10:40:44.319Z</time></trkpt><trkpt lat="41.8321917" lon="12.836625"><ele>324.7142857142857</ele><time>2026-04-20T10:40:45.319Z</time></trkpt><trkpt lat="41.8321383" lon="12.8366817"><ele>325.1428571428571</ele><time>2026-04-20T10:40:46.319Z</time></trkpt><trkpt lat="41.8320883" lon="12.8367417"><ele>325.5714285714286</ele><time>2026-04-20T10:40:47.319Z</time></trkpt><trkpt lat="41.8320333" lon="12.8368017"><ele>326.0</ele><time>2026-04-20T10:40:48.316Z</time></trkpt><trkpt lat="41.8319717" lon="12.8368617"><ele>326.0</ele><time>2026-04-20T10:40:49.318Z</time></trkpt><trkpt lat="41.8319117" lon="12.8369267"><ele>326.0</ele><time>2026-04-20T10:40:50.319Z</time></trkpt><trkpt lat="41.83185" lon="12.8369883"><ele>326.0</ele><time>2026-04-20T10:40:51.32Z</time></trkpt><trkpt lat="41.8317833" lon="12.8370367"><ele>326.0</ele><time>2026-04-20T10:40:52.317Z</time></trkpt><trkpt lat="41.831725" lon="12.83709"><ele>326.0</ele><time>2026-04-20T10:40:53.318Z</time></trkpt><trkpt lat="41.83167" lon="12.8371383"><ele>326.0</ele><time>2026-04-20T10:40:54.318Z</time></trkpt><trkpt lat="41.8315683" lon="12.8372"><ele>324.2</ele><time>2026-04-20T10:40:56.318Z</time></trkpt><trkpt lat="41.8314717" lon="12.83729"><ele>322.40000000000003</ele><time>2026-04-20T10:40:58.318Z</time></trkpt><trkpt lat="41.8314133" lon="12.83735"><ele>320.6</ele><time>2026-04-20T10:40:59.319Z</time></trkpt><trkpt lat="41.83134" lon="12.837415"><ele>318.8</ele><time>2026-04-20T10:41:00.32Z</time></trkpt><trkpt lat="41.83126" lon="12.8374917"><ele>317.0</ele><time>2026-04-20T10:41:01.316Z</time></trkpt><trkpt lat="41.8311717" lon="12.837575"><ele>317.8</ele><time>2026-04-20T10:41:02.319Z</time></trkpt><trkpt lat="41.83108" lon="12.83766"><ele>318.6</ele><time>2026-04-20T10:41:03.318Z</time></trkpt><trkpt lat="41.830995" lon="12.8377417"><ele>319.40000000000003</ele><time>2026-04-20T10:41:04.317Z</time></trkpt><trkpt lat="41.8309083" lon="12.8378167"><ele>320.2</ele><time>2026-04-20T10:41:05.319Z</time></trkpt><trkpt lat="41.8308183" lon="12.8378933"><ele>321.0</ele><time>2026-04-20T10:41:06.32Z</time></trkpt><trkpt lat="41.8307283" lon="12.8379733"><ele>321.0</ele><time>2026-04-20T10:41:07.317Z</time></trkpt><trkpt lat="41.8306333" lon="12.8380517"><ele>321.0</ele><time>2026-04-20T10:41:08.318Z</time></trkpt><trkpt lat="41.8305367" lon="12.83813"><ele>321.0</ele><time>2026-04-20T10:41:09.32Z</time></trkpt><trkpt lat="41.83044" lon="12.8382133"><ele>321.0</ele><time>2026-04-20T10:41:10.315Z</time></trkpt><trkpt lat="41.8303383" lon="12.8382983"><ele>321.0</ele><time>2026-04-20T10:41:11.317Z</time></trkpt><trkpt lat="41.8302433" lon="12.8383783"><ele>321.0</ele><time>2026-04-20T10:41:12.317Z</time></trkpt><trkpt lat="41.83015" lon="12.8384467"><ele>321.0</ele><time>2026-04-20T10:41:13.315Z</time></trkpt><trkpt lat="41.8300533" lon="12.8385033"><ele>321.0</ele><time>2026-04-20T10:41:14.316Z</time></trkpt><trkpt lat="41.8299533" lon="12.8385583"><ele>321.0</ele><time>2026-04-20T10:41:15.317Z</time></trkpt><trkpt lat="41.82985" lon="12.8386083"><ele>321.0</ele><time>2026-04-20T10:41:16.316Z</time></trkpt><trkpt lat="41.829745" lon="12.8386517"><ele>321.0</ele><time>2026-04-20T10:41:17.315Z</time></trkpt><trkpt lat="41.8296433" lon="12.8386933"><ele>321.0</ele><time>2026-04-20T10:41:18.317Z</time></trkpt><trkpt lat="41.8295433" lon="12.8387317"><ele>321.0</ele><time>2026-04-20T10:41:19.316Z</time></trkpt><trkpt lat="41.829445" lon="12.8387667"><ele>321.0</ele><time>2026-04-20T10:41:20.318Z</time></trkpt><trkpt lat="41.829345" lon="12.8387917"><ele>321.6</ele><time>2026-04-20T10:41:21.316Z</time></trkpt><trkpt lat="41.8292417" lon="12.8388083"><ele>322.20000000000005</ele><time>2026-04-20T10:41:22.317Z</time></trkpt><trkpt lat="41.8291333" lon="12.8388183"><ele>322.79999999999995</ele><time>2026-04-20T10:41:23.316Z</time></trkpt><trkpt lat="41.8290283" lon="12.8388283"><ele>323.4</ele><time>2026-04-20T10:41:24.317Z</time></trkpt><trkpt lat="41.828935" lon="12.8388367"><ele>324.0</ele><time>2026-04-20T10:41:25.316Z</time></trkpt><trkpt lat="41.8288483" lon="12.8388433"><ele>324.0</ele><time>2026-04-20T10:41:26.318Z</time></trkpt><trkpt lat="41.828765" lon="12.8388483"><ele>324.0</ele><time>2026-04-20T10:41:27.321Z</time></trkpt><trkpt lat="41.82869" lon="12.8388617"><ele>324.0</ele><time>2026-04-20T10:41:28.318Z</time></trkpt><trkpt lat="41.828575" lon="12.838885"><ele>324.0</ele><time>2026-04-20T10:41:30.318Z</time></trkpt><trkpt lat="41.8284967" lon="12.8389033"><ele>324.0</ele><time>2026-04-20T10:41:32.319Z</time></trkpt><trkpt lat="41.8284283" lon="12.8389167"><ele>324.0</ele><time>2026-04-20T10:41:34.317Z</time></trkpt><trkpt lat="41.8283217" lon="12.8389333"><ele>324.42857142857144</ele><time>2026-04-20T10:41:36.319Z</time></trkpt><trkpt lat="41.82825" lon="12.83894"><ele>324.85714285714283</ele><time>2026-04-20T10:41:37.318Z</time></trkpt><trkpt lat="41.82818" lon="12.8389483"><ele>325.2857142857143</ele><time>2026-04-20T10:41:38.32Z</time></trkpt><trkpt lat="41.82811" lon="12.838955"><ele>325.7142857142857</ele><time>2026-04-20T10:41:39.319Z</time></trkpt><trkpt lat="41.8280433" lon="12.8389633"><ele>326.14285714285717</ele><time>2026-04-20T10:41:40.318Z</time></trkpt><trkpt lat="41.8279733" lon="12.8389733"><ele>326.57142857142856</ele><time>2026-04-20T10:41:41.319Z</time></trkpt><trkpt lat="41.8279017" lon="12.838975"><ele>327.0</ele><time>2026-04-20T10:41:42.319Z</time></trkpt><trkpt lat="41.827835" lon="12.8389683"><ele>327.0</ele><time>2026-04-20T10:41:43.318Z</time></trkpt><trkpt lat="41.8277717" lon="12.8389617"><ele>327.0</ele><time>2026-04-20T10:41:44.319Z</time></trkpt><trkpt lat="41.8276517" lon="12.838905"><ele>327.0</ele><time>2026-04-20T10:41:46.318Z</time></trkpt><trkpt lat="41.8275933" lon="12.838865"><ele>327.0</ele><time>2026-04-20T10:41:47.318Z</time></trkpt><trkpt lat="41.827535" lon="12.8388233"><ele>327.0</ele><time>2026-04-20T10:41:48.316Z</time></trkpt><trkpt lat="41.8274417" lon="12.83876"><ele>327.0</ele><time>2026-04-20T10:41:50.317Z</time></trkpt><trkpt lat="41.8273617" lon="12.8386667"><ele>326.0</ele><time>2026-04-20T10:41:52.318Z</time></trkpt><trkpt lat="41.82726" lon="12.8385533"><ele>325.0</ele><time>2026-04-20T10:41:54.318Z</time></trkpt><trkpt lat="41.8272017" lon="12.8384767"><ele>324.0</ele><time>2026-04-20T10:41:55.32Z</time></trkpt><trkpt lat="41.8271517" lon="12.8383983"><ele>323.0</ele><time>2026-04-20T10:41:56.316Z</time></trkpt><trkpt lat="41.8271117" lon="12.8383067"><ele>322.0</ele><time>2026-04-20T10:41:57.318Z</time></trkpt><trkpt lat="41.827075" lon="12.8382033"><ele>322.0</ele><time>2026-04-20T10:41:58.32Z</time></trkpt><trkpt lat="41.82704" lon="12.8380867"><ele>322.0</ele><time>2026-04-20T10:41:59.318Z</time></trkpt><trkpt lat="41.827005" lon="12.8379683"><ele>322.0</ele><time>2026-04-20T10:42:00.318Z</time></trkpt><trkpt lat="41.8269667" lon="12.8378517"><ele>322.0</ele><time>2026-04-20T10:42:01.318Z</time></trkpt><trkpt lat="41.8269283" lon="12.8377217"><ele>322.0</ele><time>2026-04-20T10:42:02.319Z</time></trkpt><trkpt lat="41.82689" lon="12.837575"><ele>323.25</ele><time>2026-04-20T10:42:03.316Z</time></trkpt><trkpt lat="41.826845" lon="12.8374333"><ele>324.5</ele><time>2026-04-20T10:42:04.32Z</time></trkpt><trkpt lat="41.8267967" lon="12.8372817"><ele>325.75</ele><time>2026-04-20T10:42:05.318Z</time></trkpt><trkpt lat="41.8267433" lon="12.8371283"><ele>327.0</ele><time>2026-04-20T10:42:06.32Z</time></trkpt><trkpt lat="41.82669" lon="12.8369683"><ele>327.0</ele><time>2026-04-20T10:42:07.32Z</time></trkpt><trkpt lat="41.82662" lon="12.8368217"><ele>327.0</ele><time>2026-04-20T10:42:08.319Z</time></trkpt><trkpt lat="41.8265583" lon="12.8366783"><ele>327.0</ele><time>2026-04-20T10:42:09.317Z</time></trkpt><trkpt lat="41.8265067" lon="12.83653"><ele>327.0</ele><time>2026-04-20T10:42:10.315Z</time></trkpt><trkpt lat="41.8264533" lon="12.8363867"><ele>324.75</ele><time>2026-04-20T10:42:11.316Z</time></trkpt><trkpt lat="41.826395" lon="12.8362383"><ele>322.5</ele><time>2026-04-20T10:42:12.317Z</time></trkpt><trkpt lat="41.8263417" lon="12.8360817"><ele>320.25</ele><time>2026-04-20T10:42:13.319Z</time></trkpt><trkpt lat="41.8262833" lon="12.8359233"><ele>318.0</ele><time>2026-04-20T10:42:14.32Z</time></trkpt><trkpt lat="41.8262283" lon="12.8357617"><ele>314.25</ele><time>2026-04-20T10:42:15.316Z</time></trkpt><trkpt lat="41.8261733" lon="12.8356067"><ele>310.5</ele><time>2026-04-20T10:42:16.317Z</time></trkpt><trkpt lat="41.8261233" lon="12.8354583"><ele>306.75</ele><time>2026-04-20T10:42:17.317Z</time></trkpt><trkpt lat="41.8260817" lon="12.835305"><ele>303.0</ele><time>2026-04-20T10:42:18.316Z</time></trkpt><trkpt lat="41.8260533" lon="12.83514"><ele>302.5</ele><time>2026-04-20T10:42:19.316Z</time></trkpt><trkpt lat="41.8260483" lon="12.83497"><ele>302.0</ele><time>2026-04-20T10:42:20.317Z</time></trkpt><trkpt lat="41.8260633" lon="12.8348033"><ele>301.5</ele><time>2026-04-20T10:42:21.316Z</time></trkpt><trkpt lat="41.8260933" lon="12.8346333"><ele>301.0</ele><time>2026-04-20T10:42:22.316Z</time></trkpt><trkpt lat="41.8261283" lon="12.834465"><ele>303.5</ele><time>2026-04-20T10:42:23.318Z</time></trkpt><trkpt lat="41.8261683" lon="12.8343"><ele>306.0</ele><time>2026-04-20T10:42:24.315Z</time></trkpt><trkpt lat="41.8262067" lon="12.8341267"><ele>308.5</ele><time>2026-04-20T10:42:25.321Z</time></trkpt><trkpt lat="41.8262467" lon="12.8339467"><ele>311.0</ele><time>2026-04-20T10:42:26.32Z</time></trkpt><trkpt lat="41.8262867" lon="12.833775"><ele>311.0</ele><time>2026-04-20T10:42:27.318Z</time></trkpt><trkpt lat="41.8263217" lon="12.83362"><ele>311.0</ele><time>2026-04-20T10:42:28.324Z</time></trkpt><trkpt lat="41.826355" lon="12.8334767"><ele>311.0</ele><time>2026-04-20T10:42:29.319Z</time></trkpt><trkpt lat="41.82639" lon="12.83334"><ele>311.0</ele><time>2026-04-20T10:42:30.317Z</time></trkpt><trkpt lat="41.8264233" lon="12.8332"><ele>313.20000000000005</ele><time>2026-04-20T10:42:31.32Z</time></trkpt><trkpt lat="41.826455" lon="12.8330567"><ele>315.40000000000003</ele><time>2026-04-20T10:42:32.32Z</time></trkpt><trkpt lat="41.8264867" lon="12.8329167"><ele>317.6</ele><time>2026-04-20T10:42:33.319Z</time></trkpt><trkpt lat="41.82652" lon="12.8327883"><ele>319.8</ele><time>2026-04-20T10:42:34.319Z</time></trkpt><trkpt lat="41.8265483" lon="12.83267"><ele>322.0</ele><time>2026-04-20T10:42:35.319Z</time></trkpt><trkpt lat="41.8265733" lon="12.8325567"><ele>323.40000000000003</ele><time>2026-04-20T10:42:36.319Z</time></trkpt><trkpt lat="41.8265983" lon="12.8324367"><ele>324.8</ele><time>2026-04-20T10:42:37.319Z</time></trkpt><trkpt lat="41.8266217" lon="12.83231"><ele>326.2</ele><time>2026-04-20T10:42:38.32Z</time></trkpt><trkpt lat="41.8266417" lon="12.8321783"><ele>327.6</ele><time>2026-04-20T10:42:39.32Z</time></trkpt><trkpt lat="41.8266517" lon="12.8320417"><ele>329.0</ele><time>2026-04-20T10:42:40.319Z</time></trkpt><trkpt lat="41.8266533" lon="12.8319"><ele>328.6</ele><time>2026-04-20T10:42:41.318Z</time></trkpt><trkpt lat="41.82665" lon="12.8317567"><ele>328.2</ele><time>2026-04-20T10:42:42.318Z</time></trkpt><trkpt lat="41.8266433" lon="12.831615"><ele>327.8</ele><time>2026-04-20T10:42:43.318Z</time></trkpt><trkpt lat="41.82664" lon="12.8314717"><ele>327.40000000000003</ele><time>2026-04-20T10:42:44.318Z</time></trkpt><trkpt lat="41.8266383" lon="12.8313233"><ele>327.0</ele><time>2026-04-20T10:42:45.317Z</time></trkpt><trkpt lat="41.82664" lon="12.8311733"><ele>327.0</ele><time>2026-04-20T10:42:46.317Z</time></trkpt><trkpt lat="41.8266367" lon="12.831015"><ele>327.0</ele><time>2026-04-20T10:42:47.319Z</time></trkpt><trkpt lat="41.8266317" lon="12.83085"><ele>327.0</ele><time>2026-04-20T10:42:48.317Z</time></trkpt><trkpt lat="41.8266233" lon="12.830685"><ele>327.0</ele><time>2026-04-20T10:42:49.316Z</time></trkpt><trkpt lat="41.826615" lon="12.8305167"><ele>326.25</ele><time>2026-04-20T10:42:50.317Z</time></trkpt><trkpt lat="41.826605" lon="12.8303467"><ele>325.5</ele><time>2026-04-20T10:42:51.317Z</time></trkpt><trkpt lat="41.8265917" lon="12.8301717"><ele>324.75</ele><time>2026-04-20T10:42:52.316Z</time></trkpt><trkpt lat="41.8265767" lon="12.8299983"><ele>324.0</ele><time>2026-04-20T10:42:53.319Z</time></trkpt><trkpt lat="41.82656" lon="12.829825"><ele>324.0</ele><time>2026-04-20T10:42:54.318Z</time></trkpt><trkpt lat="41.826535" lon="12.82966"><ele>324.0</ele><time>2026-04-20T10:42:55.318Z</time></trkpt><trkpt lat="41.8265033" lon="12.829505"><ele>324.0</ele><time>2026-04-20T10:42:56.317Z</time></trkpt><trkpt lat="41.8264667" lon="12.8293517"><ele>324.0</ele><time>2026-04-20T10:42:57.317Z</time></trkpt><trkpt lat="41.826425" lon="12.8292"><ele>323.75</ele><time>2026-04-20T10:42:58.318Z</time></trkpt><trkpt lat="41.82638" lon="12.829055"><ele>323.5</ele><time>2026-04-20T10:42:59.317Z</time></trkpt><trkpt lat="41.826335" lon="12.8289133"><ele>323.25</ele><time>2026-04-20T10:43:00.318Z</time></trkpt><trkpt lat="41.8262917" lon="12.8287733"><ele>323.0</ele><time>2026-04-20T10:43:01.319Z</time></trkpt><trkpt lat="41.8262517" lon="12.8286433"><ele>323.0</ele><time>2026-04-20T10:43:02.317Z</time></trkpt><trkpt lat="41.8262117" lon="12.8285133"><ele>323.0</ele><time>2026-04-20T10:43:03.318Z</time></trkpt><trkpt lat="41.82617" lon="12.8283867"><ele>323.0</ele><time>2026-04-20T10:43:04.318Z</time></trkpt><trkpt lat="41.8261283" lon="12.8282583"><ele>323.0</ele><time>2026-04-20T10:43:05.324Z</time></trkpt><trkpt lat="41.8260917" lon="12.8281367"><ele>323.0</ele><time>2026-04-20T10:43:06.318Z</time></trkpt><trkpt lat="41.8260567" lon="12.8280217"><ele>323.0</ele><time>2026-04-20T10:43:07.317Z</time></trkpt><trkpt lat="41.8260217" lon="12.8279117"><ele>323.0</ele><time>2026-04-20T10:43:08.317Z</time></trkpt><trkpt lat="41.8259867" lon="12.827805"><ele>323.0</ele><time>2026-04-20T10:43:09.318Z</time></trkpt><trkpt lat="41.8259533" lon="12.8277083"><ele>323.0</ele><time>2026-04-20T10:43:10.317Z</time></trkpt><trkpt lat="41.8259183" lon="12.8276183"><ele>323.0</ele><time>2026-04-20T10:43:11.318Z</time></trkpt><trkpt lat="41.8258683" lon="12.8274833"><ele>323.0</ele><time>2026-04-20T10:43:13.318Z</time></trkpt><trkpt lat="41.8258367" lon="12.8273933"><ele>321.83333333333337</ele><time>2026-04-20T10:43:16.318Z</time></trkpt><trkpt lat="41.82576" lon="12.8273617"><ele>320.6666666666667</ele><time>2026-04-20T10:43:19.319Z</time></trkpt><trkpt lat="41.8256267" lon="12.8273683"><ele>319.5</ele><time>2026-04-20T10:43:21.318Z</time></trkpt><trkpt lat="41.8255533" lon="12.8273667"><ele>318.3333333333333</ele><time>2026-04-20T10:43:22.32Z</time></trkpt><trkpt lat="41.8254833" lon="12.8273583"><ele>317.16666666666663</ele><time>2026-04-20T10:43:23.32Z</time></trkpt><trkpt lat="41.8254133" lon="12.827355"><ele>316.0</ele><time>2026-04-20T10:43:24.319Z</time></trkpt><trkpt lat="41.8253433" lon="12.8273583"><ele>316.0</ele><time>2026-04-20T10:43:25.319Z</time></trkpt><trkpt lat="41.825265" lon="12.827365"><ele>316.0</ele><time>2026-04-20T10:43:26.32Z</time></trkpt><trkpt lat="41.8251817" lon="12.8273717"><ele>316.0</ele><time>2026-04-20T10:43:27.319Z</time></trkpt><trkpt lat="41.8251017" lon="12.827375"><ele>316.0</ele><time>2026-04-20T10:43:28.316Z</time></trkpt><trkpt lat="41.8250217" lon="12.8273817"><ele>316.0</ele><time>2026-04-20T10:43:29.316Z</time></trkpt><trkpt lat="41.82494" lon="12.827385"><ele>316.0</ele><time>2026-04-20T10:43:30.319Z</time></trkpt><trkpt lat="41.824865" lon="12.8273867"><ele>316.14285714285717</ele><time>2026-04-20T10:43:31.317Z</time></trkpt><trkpt lat="41.8247933" lon="12.82739"><ele>316.2857142857143</ele><time>2026-04-20T10:43:32.317Z</time></trkpt><trkpt lat="41.8247217" lon="12.8273917"><ele>316.42857142857144</ele><time>2026-04-20T10:43:33.317Z</time></trkpt><trkpt lat="41.8246517" lon="12.8273917"><ele>316.57142857142856</ele><time>2026-04-20T10:43:34.316Z</time></trkpt><trkpt lat="41.8245817" lon="12.8273917"><ele>316.7142857142857</ele><time>2026-04-20T10:43:35.318Z</time></trkpt><trkpt lat="41.8245117" lon="12.82739"><ele>316.8571428571429</ele><time>2026-04-20T10:43:36.317Z</time></trkpt><trkpt lat="41.82444" lon="12.8273917"><ele>317.0</ele><time>2026-04-20T10:43:37.317Z</time></trkpt><trkpt lat="41.8243633" lon="12.8273933"><ele>316.83333333333337</ele><time>2026-04-20T10:43:38.317Z</time></trkpt><trkpt lat="41.8242817" lon="12.8273933"><ele>316.6666666666667</ele><time>2026-04-20T10:43:39.317Z</time></trkpt><trkpt lat="41.8242" lon="12.827395"><ele>316.5</ele><time>2026-04-20T10:43:40.316Z</time></trkpt><trkpt lat="41.8241283" lon="12.8274033"><ele>316.3333333333333</ele><time>2026-04-20T10:43:41.317Z</time></trkpt><trkpt lat="41.8240633" lon="12.8274117"><ele>316.16666666666663</ele><time>2026-04-20T10:43:42.317Z</time></trkpt><trkpt lat="41.8239417" lon="12.8274133"><ele>316.0</ele><time>2026-04-20T10:43:44.317Z</time></trkpt><trkpt lat="41.8238217" lon="12.8274067"><ele>316.0</ele><time>2026-04-20T10:43:46.319Z</time></trkpt><trkpt lat="41.8237267" lon="12.8274133"><ele>316.0</ele><time>2026-04-20T10:43:48.319Z</time></trkpt><trkpt lat="41.8236067" lon="12.8274217"><ele>316.0</ele><time>2026-04-20T10:43:50.318Z</time></trkpt><trkpt lat="41.8235283" lon="12.827425"><ele>316.0</ele><time>2026-04-20T10:43:51.321Z</time></trkpt><trkpt lat="41.8234483" lon="12.8274267"><ele>316.0</ele><time>2026-04-20T10:43:52.319Z</time></trkpt><trkpt lat="41.8233633" lon="12.827425"><ele>316.0</ele><time>2026-04-20T10:43:53.32Z</time></trkpt><trkpt lat="41.8232767" lon="12.82742"><ele>316.0</ele><time>2026-04-20T10:43:54.319Z</time></trkpt><trkpt lat="41.8231967" lon="12.8274183"><ele>316.0</ele><time>2026-04-20T10:43:55.318Z</time></trkpt><trkpt lat="41.8231183" lon="12.8274233"><ele>316.0</ele><time>2026-04-20T10:43:56.32Z</time></trkpt><trkpt lat="41.82304" lon="12.8274333"><ele>316.0</ele><time>2026-04-20T10:43:57.32Z</time></trkpt><trkpt lat="41.8229633" lon="12.8274417"><ele>316.0</ele><time>2026-04-20T10:43:58.319Z</time></trkpt><trkpt lat="41.8228883" lon="12.827455"><ele>316.0</ele><time>2026-04-20T10:43:59.319Z</time></trkpt><trkpt lat="41.8228167" lon="12.8274633"><ele>316.0</ele><time>2026-04-20T10:44:00.32Z</time></trkpt><trkpt lat="41.8227467" lon="12.8274717"><ele>316.0</ele><time>2026-04-20T10:44:01.316Z</time></trkpt><trkpt lat="41.8226767" lon="12.82748"><ele>316.0</ele><time>2026-04-20T10:44:02.316Z</time></trkpt><trkpt lat="41.8226083" lon="12.8274883"><ele>316.0</ele><time>2026-04-20T10:44:03.317Z</time></trkpt><trkpt lat="41.8225433" lon="12.8275"><ele>316.0</ele><time>2026-04-20T10:44:04.315Z</time></trkpt><trkpt lat="41.822435" lon="12.8275483"><ele>317.0</ele><time>2026-04-20T10:44:06.317Z</time></trkpt><trkpt lat="41.822365" lon="12.8276433"><ele>317.0</ele><time>2026-04-20T10:44:08.317Z</time></trkpt><trkpt lat="41.8223483" lon="12.8277517"><ele>319.0</ele><time>2026-04-20T10:44:10.315Z</time></trkpt></trkseg></trk></gpx>